<?xml version='1.0' encoding='UTF-8'?><gpx version="1.1" creator="JPX - https://github.com/jenetics/jpx" xmlns="http://www.topografix.com/GPX/1/1"><trk><trkseg><trkpt lat="44.4552882" lon="11.1198328"><ele>146.0</ele><time>2026-03-22T08:09:51.57Z</time></trkpt><trkpt lat="44.4553645" lon="11.1197999"><ele>146.0</ele><time>2026-03-22T08:10:00.997Z</time></trkpt><trkpt lat="44.4554133" lon="11.11969"><ele>146.0</ele><time>2026-03-22T08:11:07.992Z</time></trkpt><trkpt lat="44.4553567" lon="11.1196033"><ele>146.0</ele><time>2026-03-22T08:11:10.996Z</time></trkpt><trkpt lat="44.4553" lon="11.11954"><ele>146.0</ele><time>2026-03-22T08:11:13.996Z</time></trkpt><trkpt lat="44.4552333" lon="11.1195117"><ele>146.0</ele><time>2026-03-22T08:11:15.993Z</time></trkpt><trkpt lat="44.4551117" lon="11.1195083"><ele>146.0</ele><time>2026-03-22T08:11:17.996Z</time></trkpt><trkpt lat="44.4550267" lon="11.11951"><ele>146.0</ele><time>2026-03-22T08:11:18.996Z</time></trkpt><trkpt lat="44.4549283" lon="11.1195117"><ele>146.0</ele><time>2026-03-22T08:11:20.001Z</time></trkpt><trkpt lat="44.454825" lon="11.1195167"><ele>146.0</ele><time>2026-03-22T08:11:20.994Z</time></trkpt><trkpt lat="44.4547217" lon="11.1195217"><ele>146.0</ele><time>2026-03-22T08:11:21.993Z</time></trkpt><trkpt lat="44.4546283" lon="11.119565"><ele>145.75</ele><time>2026-03-22T08:11:23.487Z</time></trkpt><trkpt lat="44.4544883" lon="11.1195633"><ele>145.5</ele><time>2026-03-22T08:11:24.625Z</time></trkpt><trkpt lat="44.4543283" lon="11.11958"><ele>145.25</ele><time>2026-03-22T08:11:25.989Z</time></trkpt><trkpt lat="44.4542183" lon="11.119595"><ele>145.0</ele><time>2026-03-22T08:11:26.989Z</time></trkpt><trkpt lat="44.4541133" lon="11.11959"><ele>145.0</ele><time>2026-03-22T08:11:27.988Z</time></trkpt><trkpt lat="44.454005" lon="11.119585"><ele>145.0</ele><time>2026-03-22T08:11:28.991Z</time></trkpt><trkpt lat="44.4538867" lon="11.1195867"><ele>145.0</ele><time>2026-03-22T08:11:29.992Z</time></trkpt><trkpt lat="44.4537667" lon="11.11959"><ele>145.0</ele><time>2026-03-22T08:11:30.988Z</time></trkpt><trkpt lat="44.45365" lon="11.1195933"><ele>145.25</ele><time>2026-03-22T08:11:31.991Z</time></trkpt><trkpt lat="44.4535333" lon="11.11959"><ele>145.5</ele><time>2026-03-22T08:11:32.991Z</time></trkpt><trkpt lat="44.4534167" lon="11.1195933"><ele>145.75</ele><time>2026-03-22T08:11:33.987Z</time></trkpt><trkpt lat="44.4532983" lon="11.1196067"><ele>146.0</ele><time>2026-03-22T08:11:34.99Z</time></trkpt><trkpt lat="44.4531783" lon="11.1196183"><ele>146.0</ele><time>2026-03-22T08:11:35.998Z</time></trkpt><trkpt lat="44.4530583" lon="11.119625"><ele>146.0</ele><time>2026-03-22T08:11:36.995Z</time></trkpt><trkpt lat="44.45294" lon="11.11964"><ele>146.0</ele><time>2026-03-22T08:11:37.99Z</time></trkpt><trkpt lat="44.4528167" lon="11.1196433"><ele>146.0</ele><time>2026-03-22T08:11:38.991Z</time></trkpt><trkpt lat="44.4526867" lon="11.11964"><ele>146.5</ele><time>2026-03-22T08:11:39.99Z</time></trkpt><trkpt lat="44.452555" lon="11.1196467"><ele>147.0</ele><time>2026-03-22T08:11:40.993Z</time></trkpt><trkpt lat="44.4524217" lon="11.1196483"><ele>147.5</ele><time>2026-03-22T08:11:41.998Z</time></trkpt><trkpt lat="44.45229" lon="11.1196467"><ele>148.0</ele><time>2026-03-22T08:11:42.991Z</time></trkpt><trkpt lat="44.4521583" lon="11.1196483"><ele>148.25</ele><time>2026-03-22T08:11:43.989Z</time></trkpt><trkpt lat="44.4520233" lon="11.119645"><ele>148.5</ele><time>2026-03-22T08:11:44.993Z</time></trkpt><trkpt lat="44.4518883" lon="11.11965"><ele>148.75</ele><time>2026-03-22T08:11:45.992Z</time></trkpt><trkpt lat="44.4517583" lon="11.11965"><ele>149.0</ele><time>2026-03-22T08:11:46.993Z</time></trkpt><trkpt lat="44.45163" lon="11.1196467"><ele>149.0</ele><time>2026-03-22T08:11:47.99Z</time></trkpt><trkpt lat="44.4515" lon="11.1196483"><ele>149.0</ele><time>2026-03-22T08:11:48.987Z</time></trkpt><trkpt lat="44.4513717" lon="11.11965"><ele>149.0</ele><time>2026-03-22T08:11:49.996Z</time></trkpt><trkpt lat="44.4512417" lon="11.1196517"><ele>149.0</ele><time>2026-03-22T08:11:50.994Z</time></trkpt><trkpt lat="44.4511133" lon="11.1196583"><ele>149.25</ele><time>2026-03-22T08:11:51.999Z</time></trkpt><trkpt lat="44.4509783" lon="11.1196583"><ele>149.5</ele><time>2026-03-22T08:11:52.995Z</time></trkpt><trkpt lat="44.450845" lon="11.1196567"><ele>149.75</ele><time>2026-03-22T08:11:53.991Z</time></trkpt><trkpt lat="44.4507117" lon="11.1196567"><ele>150.0</ele><time>2026-03-22T08:11:54.991Z</time></trkpt><trkpt lat="44.4505767" lon="11.119655"><ele>149.75</ele><time>2026-03-22T08:11:55.995Z</time></trkpt><trkpt lat="44.4504433" lon="11.1196567"><ele>149.5</ele><time>2026-03-22T08:11:56.989Z</time></trkpt><trkpt lat="44.4503083" lon="11.1196567"><ele>149.25</ele><time>2026-03-22T08:11:57.993Z</time></trkpt><trkpt lat="44.4501733" lon="11.1196583"><ele>149.0</ele><time>2026-03-22T08:11:58.988Z</time></trkpt><trkpt lat="44.4500417" lon="11.1196567"><ele>149.0</ele><time>2026-03-22T08:11:59.99Z</time></trkpt><trkpt lat="44.44991" lon="11.1196517"><ele>149.0</ele><time>2026-03-22T08:12:00.989Z</time></trkpt><trkpt lat="44.449775" lon="11.1196533"><ele>149.0</ele><time>2026-03-22T08:12:01.991Z</time></trkpt><trkpt lat="44.4496433" lon="11.119655"><ele>149.0</ele><time>2026-03-22T08:12:02.99Z</time></trkpt><trkpt lat="44.4495117" lon="11.1196567"><ele>149.5</ele><time>2026-03-22T08:12:03.992Z</time></trkpt><trkpt lat="44.4493783" lon="11.1196683"><ele>150.0</ele><time>2026-03-22T08:12:04.99Z</time></trkpt><trkpt lat="44.4492483" lon="11.11969"><ele>150.5</ele><time>2026-03-22T08:12:05.996Z</time></trkpt><trkpt lat="44.4491233" lon="11.1197217"><ele>151.0</ele><time>2026-03-22T08:12:06.992Z</time></trkpt><trkpt lat="44.4489967" lon="11.1197617"><ele>151.0</ele><time>2026-03-22T08:12:07.993Z</time></trkpt><trkpt lat="44.4488717" lon="11.1198083"><ele>151.0</ele><time>2026-03-22T08:12:08.995Z</time></trkpt><trkpt lat="44.4487483" lon="11.1198667"><ele>151.0</ele><time>2026-03-22T08:12:09.992Z</time></trkpt><trkpt lat="44.448625" lon="11.1199317"><ele>151.0</ele><time>2026-03-22T08:12:10.993Z</time></trkpt><trkpt lat="44.4484983" lon="11.1199883"><ele>152.25</ele><time>2026-03-22T08:12:11.989Z</time></trkpt><trkpt lat="44.4483717" lon="11.1200433"><ele>153.5</ele><time>2026-03-22T08:12:12.996Z</time></trkpt><trkpt lat="44.4482417" lon="11.1200983"><ele>154.75</ele><time>2026-03-22T08:12:13.994Z</time></trkpt><trkpt lat="44.4481217" lon="11.1201367"><ele>156.0</ele><time>2026-03-22T08:12:14.991Z</time></trkpt><trkpt lat="44.447995" lon="11.12016"><ele>156.5</ele><time>2026-03-22T08:12:15.991Z</time></trkpt><trkpt lat="44.4478617" lon="11.1201767"><ele>157.0</ele><time>2026-03-22T08:12:16.989Z</time></trkpt><trkpt lat="44.4477267" lon="11.12019"><ele>157.5</ele><time>2026-03-22T08:12:17.993Z</time></trkpt><trkpt lat="44.4475867" lon="11.1202"><ele>158.0</ele><time>2026-03-22T08:12:18.993Z</time></trkpt><trkpt lat="44.4474483" lon="11.1202083"><ele>158.0</ele><time>2026-03-22T08:12:19.988Z</time></trkpt><trkpt lat="44.44731" lon="11.1202117"><ele>158.0</ele><time>2026-03-22T08:12:20.99Z</time></trkpt><trkpt lat="44.4471783" lon="11.1201983"><ele>158.0</ele><time>2026-03-22T08:12:21.992Z</time></trkpt><trkpt lat="44.4470483" lon="11.120175"><ele>158.0</ele><time>2026-03-22T08:12:22.993Z</time></trkpt><trkpt lat="44.4469267" lon="11.120135"><ele>157.75</ele><time>2026-03-22T08:12:23.989Z</time></trkpt><trkpt lat="44.4468133" lon="11.120075"><ele>157.5</ele><time>2026-03-22T08:12:24.988Z</time></trkpt><trkpt lat="44.4467067" lon="11.1199867"><ele>157.25</ele><time>2026-03-22T08:12:25.995Z</time></trkpt><trkpt lat="44.446605" lon="11.1198817"><ele>157.0</ele><time>2026-03-22T08:12:26.991Z</time></trkpt><trkpt lat="44.4465" lon="11.1197667"><ele>157.0</ele><time>2026-03-22T08:12:27.988Z</time></trkpt><trkpt lat="44.4463917" lon="11.1196533"><ele>157.0</ele><time>2026-03-22T08:12:28.992Z</time></trkpt><trkpt lat="44.4462817" lon="11.11954"><ele>157.0</ele><time>2026-03-22T08:12:29.989Z</time></trkpt><trkpt lat="44.44617" lon="11.1194267"><ele>157.0</ele><time>2026-03-22T08:12:30.988Z</time></trkpt><trkpt lat="44.4460583" lon="11.1193117"><ele>157.0</ele><time>2026-03-22T08:12:31.987Z</time></trkpt><trkpt lat="44.44595" lon="11.1192"><ele>157.0</ele><time>2026-03-22T08:12:32.99Z</time></trkpt><trkpt lat="44.44585" lon="11.119095"><ele>157.0</ele><time>2026-03-22T08:12:33.993Z</time></trkpt><trkpt lat="44.44574" lon="11.119005"><ele>157.0</ele><time>2026-03-22T08:12:34.989Z</time></trkpt><trkpt lat="44.445625" lon="11.1189317"><ele>157.0</ele><time>2026-03-22T08:12:35.995Z</time></trkpt><trkpt lat="44.4455017" lon="11.1188583"><ele>157.0</ele><time>2026-03-22T08:12:36.993Z</time></trkpt><trkpt lat="44.445375" lon="11.1187833"><ele>157.0</ele><time>2026-03-22T08:12:37.995Z</time></trkpt><trkpt lat="44.44525" lon="11.1187"><ele>157.0</ele><time>2026-03-22T08:12:38.99Z</time></trkpt><trkpt lat="44.4451267" lon="11.1186083"><ele>158.0</ele><time>2026-03-22T08:12:39.991Z</time></trkpt><trkpt lat="44.4450067" lon="11.1185117"><ele>159.0</ele><time>2026-03-22T08:12:40.988Z</time></trkpt><trkpt lat="44.4448883" lon="11.1184217"><ele>160.0</ele><time>2026-03-22T08:12:41.988Z</time></trkpt><trkpt lat="44.44477" lon="11.1183317"><ele>161.0</ele><time>2026-03-22T08:12:42.992Z</time></trkpt><trkpt lat="44.44465" lon="11.118245"><ele>160.0</ele><time>2026-03-22T08:12:43.991Z</time></trkpt><trkpt lat="44.444525" lon="11.1181717"><ele>159.0</ele><time>2026-03-22T08:12:45Z</time></trkpt><trkpt lat="44.4443933" lon="11.11812"><ele>158.0</ele><time>2026-03-22T08:12:45.989Z</time></trkpt><trkpt lat="44.4442617" lon="11.1180867"><ele>157.0</ele><time>2026-03-22T08:12:46.987Z</time></trkpt><trkpt lat="44.4441267" lon="11.1180667"><ele>157.0</ele><time>2026-03-22T08:12:47.991Z</time></trkpt><trkpt lat="44.443985" lon="11.1180583"><ele>157.0</ele><time>2026-03-22T08:12:48.994Z</time></trkpt><trkpt lat="44.443845" lon="11.1180533"><ele>157.0</ele><time>2026-03-22T08:12:49.991Z</time></trkpt><trkpt lat="44.443705" lon="11.1180467"><ele>157.0</ele><time>2026-03-22T08:12:50.992Z</time></trkpt><trkpt lat="44.443565" lon="11.11804"><ele>157.5</ele><time>2026-03-22T08:12:51.985Z</time></trkpt><trkpt lat="44.4434233" lon="11.1180333"><ele>158.0</ele><time>2026-03-22T08:12:52.991Z</time></trkpt><trkpt lat="44.4432817" lon="11.11803"><ele>158.5</ele><time>2026-03-22T08:12:53.991Z</time></trkpt><trkpt lat="44.4431433" lon="11.118025"><ele>159.0</ele><time>2026-03-22T08:12:54.993Z</time></trkpt><trkpt lat="44.4430067" lon="11.1180167"><ele>159.0</ele><time>2026-03-22T08:12:55.997Z</time></trkpt><trkpt lat="44.4428717" lon="11.1180083"><ele>159.0</ele><time>2026-03-22T08:12:56.99Z</time></trkpt><trkpt lat="44.4427383" lon="11.1180017"><ele>159.0</ele><time>2026-03-22T08:12:57.988Z</time></trkpt><trkpt lat="44.4426017" lon="11.1179967"><ele>159.0</ele><time>2026-03-22T08:12:58.993Z</time></trkpt><trkpt lat="44.44247" lon="11.1179883"><ele>159.0</ele><time>2026-03-22T08:12:59.988Z</time></trkpt><trkpt lat="44.4423367" lon="11.117985"><ele>159.0</ele><time>2026-03-22T08:13:00.993Z</time></trkpt><trkpt lat="44.4422017" lon="11.11798"><ele>159.0</ele><time>2026-03-22T08:13:01.989Z</time></trkpt><trkpt lat="44.4420717" lon="11.117975"><ele>159.0</ele><time>2026-03-22T08:13:02.997Z</time></trkpt><trkpt lat="44.4419467" lon="11.11797"><ele>159.5</ele><time>2026-03-22T08:13:03.99Z</time></trkpt><trkpt lat="44.4418217" lon="11.117965"><ele>160.0</ele><time>2026-03-22T08:13:04.987Z</time></trkpt><trkpt lat="44.4416967" lon="11.11796"><ele>160.5</ele><time>2026-03-22T08:13:05.99Z</time></trkpt><trkpt lat="44.4415767" lon="11.1179533"><ele>161.0</ele><time>2026-03-22T08:13:06.994Z</time></trkpt><trkpt lat="44.4414567" lon="11.117945"><ele>161.0</ele><time>2026-03-22T08:13:07.992Z</time></trkpt><trkpt lat="44.4413383" lon="11.11794"><ele>161.0</ele><time>2026-03-22T08:13:08.99Z</time></trkpt><trkpt lat="44.44122" lon="11.117935"><ele>161.0</ele><time>2026-03-22T08:13:09.99Z</time></trkpt><trkpt lat="44.4411033" lon="11.1179317"><ele>161.0</ele><time>2026-03-22T08:13:10.992Z</time></trkpt><trkpt lat="44.4409883" lon="11.117925"><ele>161.0</ele><time>2026-03-22T08:13:11.991Z</time></trkpt><trkpt lat="44.4408733" lon="11.1179183"><ele>161.0</ele><time>2026-03-22T08:13:12.994Z</time></trkpt><trkpt lat="44.440755" lon="11.1179083"><ele>161.0</ele><time>2026-03-22T08:13:13.991Z</time></trkpt><trkpt lat="44.4406383" lon="11.1178917"><ele>161.0</ele><time>2026-03-22T08:13:14.994Z</time></trkpt><trkpt lat="44.4405233" lon="11.117855"><ele>162.25</ele><time>2026-03-22T08:13:15.99Z</time></trkpt><trkpt lat="44.4404133" lon="11.1178067"><ele>163.5</ele><time>2026-03-22T08:13:16.995Z</time></trkpt><trkpt lat="44.440305" lon="11.1177517"><ele>164.75</ele><time>2026-03-22T08:13:17.994Z</time></trkpt><trkpt lat="44.4402" lon="11.1176933"><ele>166.0</ele><time>2026-03-22T08:13:18.992Z</time></trkpt><trkpt lat="44.4401" lon="11.1176417"><ele>166.0</ele><time>2026-03-22T08:13:19.989Z</time></trkpt><trkpt lat="44.4400017" lon="11.1175917"><ele>166.0</ele><time>2026-03-22T08:13:20.997Z</time></trkpt><trkpt lat="44.4399017" lon="11.1175467"><ele>166.0</ele><time>2026-03-22T08:13:21.988Z</time></trkpt><trkpt lat="44.4397983" lon="11.1175067"><ele>166.0</ele><time>2026-03-22T08:13:22.995Z</time></trkpt><trkpt lat="44.4396967" lon="11.1174717"><ele>166.0</ele><time>2026-03-22T08:13:23.997Z</time></trkpt><trkpt lat="44.439595" lon="11.1174333"><ele>165.4</ele><time>2026-03-22T08:13:24.995Z</time></trkpt><trkpt lat="44.4394933" lon="11.1173967"><ele>164.8</ele><time>2026-03-22T08:13:25.991Z</time></trkpt><trkpt lat="44.439395" lon="11.117365"><ele>164.20000000000002</ele><time>2026-03-22T08:13:26.994Z</time></trkpt><trkpt lat="44.4393" lon="11.1173333"><ele>163.60000000000002</ele><time>2026-03-22T08:13:27.99Z</time></trkpt><trkpt lat="44.4392083" lon="11.1173"><ele>163.0</ele><time>2026-03-22T08:13:28.994Z</time></trkpt><trkpt lat="44.4391183" lon="11.1172667"><ele>163.0</ele><time>2026-03-22T08:13:29.994Z</time></trkpt><trkpt lat="44.4390233" lon="11.117235"><ele>163.0</ele><time>2026-03-22T08:13:30.999Z</time></trkpt><trkpt lat="44.43893" lon="11.1172017"><ele>163.0</ele><time>2026-03-22T08:13:31.992Z</time></trkpt><trkpt lat="44.438845" lon="11.11717"><ele>163.0</ele><time>2026-03-22T08:13:32.991Z</time></trkpt><trkpt lat="44.4387583" lon="11.1171433"><ele>163.0</ele><time>2026-03-22T08:13:33.993Z</time></trkpt><trkpt lat="44.4386683" lon="11.1171167"><ele>163.5</ele><time>2026-03-22T08:13:34.989Z</time></trkpt><trkpt lat="44.43858" lon="11.1170917"><ele>164.0</ele><time>2026-03-22T08:13:35.989Z</time></trkpt><trkpt lat="44.4385" lon="11.117065"><ele>164.5</ele><time>2026-03-22T08:13:36.99Z</time></trkpt><trkpt lat="44.4384267" lon="11.1170483"><ele>165.0</ele><time>2026-03-22T08:13:37.988Z</time></trkpt><trkpt lat="44.4383567" lon="11.1170433"><ele>165.5</ele><time>2026-03-22T08:13:38.994Z</time></trkpt><trkpt lat="44.4382883" lon="11.1170583"><ele>166.0</ele><time>2026-03-22T08:13:39.998Z</time></trkpt><trkpt lat="44.4382217" lon="11.1170967"><ele>166.0</ele><time>2026-03-22T08:13:40.991Z</time></trkpt><trkpt lat="44.438185" lon="11.117175"><ele>166.0</ele><time>2026-03-22T08:13:41.994Z</time></trkpt><trkpt lat="44.4381633" lon="11.1173033"><ele>166.0</ele><time>2026-03-22T08:13:42.993Z</time></trkpt><trkpt lat="44.4381333" lon="11.117445"><ele>166.0</ele><time>2026-03-22T08:13:43.994Z</time></trkpt><trkpt lat="44.4380983" lon="11.1175917"><ele>166.0</ele><time>2026-03-22T08:13:44.994Z</time></trkpt><trkpt lat="44.4380667" lon="11.1177433"><ele>167.75</ele><time>2026-03-22T08:13:45.993Z</time></trkpt><trkpt lat="44.4380417" lon="11.1179033"><ele>169.5</ele><time>2026-03-22T08:13:46.991Z</time></trkpt><trkpt lat="44.4380133" lon="11.1180517"><ele>171.25</ele><time>2026-03-22T08:13:47.99Z</time></trkpt><trkpt lat="44.43799" lon="11.1182067"><ele>173.0</ele><time>2026-03-22T08:13:48.992Z</time></trkpt><trkpt lat="44.4379683" lon="11.11837"><ele>173.75</ele><time>2026-03-22T08:13:49.994Z</time></trkpt><trkpt lat="44.43794" lon="11.118535"><ele>174.5</ele><time>2026-03-22T08:13:50.988Z</time></trkpt><trkpt lat="44.4379217" lon="11.1187167"><ele>175.25</ele><time>2026-03-22T08:13:51.992Z</time></trkpt><trkpt lat="44.4379033" lon="11.1188967"><ele>176.0</ele><time>2026-03-22T08:13:52.99Z</time></trkpt><trkpt lat="44.4378867" lon="11.11907"><ele>176.60000000000002</ele><time>2026-03-22T08:13:53.988Z</time></trkpt><trkpt lat="44.4378667" lon="11.1192283"><ele>177.2</ele><time>2026-03-22T08:13:54.992Z</time></trkpt><trkpt lat="44.437855" lon="11.1193783"><ele>177.8</ele><time>2026-03-22T08:13:55.992Z</time></trkpt><trkpt lat="44.4378417" lon="11.1195167"><ele>178.39999999999998</ele><time>2026-03-22T08:13:56.992Z</time></trkpt><trkpt lat="44.43782" lon="11.119645"><ele>179.0</ele><time>2026-03-22T08:13:57.988Z</time></trkpt><trkpt lat="44.4377867" lon="11.1197633"><ele>179.0</ele><time>2026-03-22T08:13:58.994Z</time></trkpt><trkpt lat="44.4377433" lon="11.1198583"><ele>179.0</ele><time>2026-03-22T08:13:59.989Z</time></trkpt><trkpt lat="44.437685" lon="11.119925"><ele>179.0</ele><time>2026-03-22T08:14:00.992Z</time></trkpt><trkpt lat="44.437615" lon="11.1199733"><ele>179.0</ele><time>2026-03-22T08:14:01.993Z</time></trkpt><trkpt lat="44.4375283" lon="11.119995"><ele>179.0</ele><time>2026-03-22T08:14:02.995Z</time></trkpt><trkpt lat="44.4374317" lon="11.1200033"><ele>179.0</ele><time>2026-03-22T08:14:03.991Z</time></trkpt><trkpt lat="44.4373283" lon="11.1200117"><ele>180.0</ele><time>2026-03-22T08:14:04.991Z</time></trkpt><trkpt lat="44.4372183" lon="11.1200233"><ele>181.0</ele><time>2026-03-22T08:14:05.997Z</time></trkpt><trkpt lat="44.4371" lon="11.12003"><ele>182.0</ele><time>2026-03-22T08:14:06.991Z</time></trkpt><trkpt lat="44.4369817" lon="11.1200417"><ele>183.0</ele><time>2026-03-22T08:14:07.995Z</time></trkpt><trkpt lat="44.4368583" lon="11.12005"><ele>184.0</ele><time>2026-03-22T08:14:08.995Z</time></trkpt><trkpt lat="44.43673" lon="11.1200633"><ele>185.0</ele><time>2026-03-22T08:14:09.994Z</time></trkpt><trkpt lat="44.436605" lon="11.12008"><ele>186.0</ele><time>2026-03-22T08:14:10.991Z</time></trkpt><trkpt lat="44.43647" lon="11.12009"><ele>187.0</ele><time>2026-03-22T08:14:11.994Z</time></trkpt><trkpt lat="44.436335" lon="11.120105"><ele>185.75</ele><time>2026-03-22T08:14:12.997Z</time></trkpt><trkpt lat="44.436205" lon="11.1201283"><ele>184.5</ele><time>2026-03-22T08:14:13.994Z</time></trkpt><trkpt lat="44.4360733" lon="11.12015"><ele>183.25</ele><time>2026-03-22T08:14:14.997Z</time></trkpt><trkpt lat="44.4359433" lon="11.1201667"><ele>182.0</ele><time>2026-03-22T08:14:15.99Z</time></trkpt><trkpt lat="44.4358133" lon="11.1201817"><ele>182.0</ele><time>2026-03-22T08:14:16.99Z</time></trkpt><trkpt lat="44.435685" lon="11.1201983"><ele>182.0</ele><time>2026-03-22T08:14:17.991Z</time></trkpt><trkpt lat="44.4355567" lon="11.1202133"><ele>182.0</ele><time>2026-03-22T08:14:18.991Z</time></trkpt><trkpt lat="44.4354283" lon="11.12023"><ele>182.0</ele><time>2026-03-22T08:14:19.996Z</time></trkpt><trkpt lat="44.4352983" lon="11.1202483"><ele>182.5</ele><time>2026-03-22T08:14:20.99Z</time></trkpt><trkpt lat="44.435165" lon="11.1202683"><ele>183.0</ele><time>2026-03-22T08:14:21.987Z</time></trkpt><trkpt lat="44.4350317" lon="11.1202883"><ele>183.5</ele><time>2026-03-22T08:14:22.994Z</time></trkpt><trkpt lat="44.4349" lon="11.1203033"><ele>184.0</ele><time>2026-03-22T08:14:23.993Z</time></trkpt><trkpt lat="44.434765" lon="11.1203217"><ele>184.5</ele><time>2026-03-22T08:14:24.991Z</time></trkpt><trkpt lat="44.4346317" lon="11.1203383"><ele>185.0</ele><time>2026-03-22T08:14:25.988Z</time></trkpt><trkpt lat="44.4344983" lon="11.1203533"><ele>185.5</ele><time>2026-03-22T08:14:26.99Z</time></trkpt><trkpt lat="44.434365" lon="11.1203683"><ele>186.0</ele><time>2026-03-22T08:14:27.994Z</time></trkpt><trkpt lat="44.4342333" lon="11.1203867"><ele>186.0</ele><time>2026-03-22T08:14:28.993Z</time></trkpt><trkpt lat="44.4341" lon="11.120405"><ele>186.0</ele><time>2026-03-22T08:14:29.997Z</time></trkpt><trkpt lat="44.433965" lon="11.120425"><ele>186.0</ele><time>2026-03-22T08:14:30.995Z</time></trkpt><trkpt lat="44.4338317" lon="11.12044"><ele>186.0</ele><time>2026-03-22T08:14:31.996Z</time></trkpt><trkpt lat="44.4336967" lon="11.120455"><ele>186.5</ele><time>2026-03-22T08:14:32.994Z</time></trkpt><trkpt lat="44.433565" lon="11.1204733"><ele>187.0</ele><time>2026-03-22T08:14:33.992Z</time></trkpt><trkpt lat="44.43343" lon="11.1204883"><ele>187.5</ele><time>2026-03-22T08:14:34.987Z</time></trkpt><trkpt lat="44.4332967" lon="11.1205117"><ele>188.0</ele><time>2026-03-22T08:14:35.989Z</time></trkpt><trkpt lat="44.4331633" lon="11.1205317"><ele>188.0</ele><time>2026-03-22T08:14:36.99Z</time></trkpt><trkpt lat="44.433035" lon="11.12055"><ele>188.0</ele><time>2026-03-22T08:14:37.995Z</time></trkpt><trkpt lat="44.4329033" lon="11.1205733"><ele>188.0</ele><time>2026-03-22T08:14:38.992Z</time></trkpt><trkpt lat="44.4327683" lon="11.1205933"><ele>188.0</ele><time>2026-03-22T08:14:39.99Z</time></trkpt><trkpt lat="44.4326367" lon="11.1206083"><ele>188.5</ele><time>2026-03-22T08:14:40.994Z</time></trkpt><trkpt lat="44.4325017" lon="11.1206267"><ele>189.0</ele><time>2026-03-22T08:14:41.992Z</time></trkpt><trkpt lat="44.432365" lon="11.1206417"><ele>189.5</ele><time>2026-03-22T08:14:42.991Z</time></trkpt><trkpt lat="44.432225" lon="11.120645"><ele>190.0</ele><time>2026-03-22T08:14:43.987Z</time></trkpt><trkpt lat="44.4320867" lon="11.1206583"><ele>191.0</ele><time>2026-03-22T08:14:44.995Z</time></trkpt><trkpt lat="44.4319533" lon="11.1206783"><ele>192.0</ele><time>2026-03-22T08:14:45.994Z</time></trkpt><trkpt lat="44.4318267" lon="11.1206983"><ele>193.0</ele><time>2026-03-22T08:14:46.988Z</time></trkpt><trkpt lat="44.4317117" lon="11.120715"><ele>194.0</ele><time>2026-03-22T08:14:47.989Z</time></trkpt><trkpt lat="44.4316" lon="11.12074"><ele>194.2</ele><time>2026-03-22T08:14:48.992Z</time></trkpt><trkpt lat="44.4314933" lon="11.1207583"><ele>194.39999999999998</ele><time>2026-03-22T08:14:49.992Z</time></trkpt><trkpt lat="44.43139" lon="11.120765"><ele>194.6</ele><time>2026-03-22T08:14:50.991Z</time></trkpt><trkpt lat="44.4312933" lon="11.1207383"><ele>194.8</ele><time>2026-03-22T08:14:51.992Z</time></trkpt><trkpt lat="44.431195" lon="11.1206883"><ele>195.0</ele><time>2026-03-22T08:14:52.986Z</time></trkpt><trkpt lat="44.4310983" lon="11.1206283"><ele>195.25</ele><time>2026-03-22T08:14:53.993Z</time></trkpt><trkpt lat="44.4309933" lon="11.1205667"><ele>195.5</ele><time>2026-03-22T08:14:54.995Z</time></trkpt><trkpt lat="44.430885" lon="11.1204983"><ele>195.75</ele><time>2026-03-22T08:14:55.994Z</time></trkpt><trkpt lat="44.43078" lon="11.1204233"><ele>196.0</ele><time>2026-03-22T08:14:56.994Z</time></trkpt><trkpt lat="44.43067" lon="11.120345"><ele>196.0</ele><time>2026-03-22T08:14:57.989Z</time></trkpt><trkpt lat="44.43056" lon="11.1202617"><ele>196.0</ele><time>2026-03-22T08:14:58.993Z</time></trkpt><trkpt lat="44.4304483" lon="11.12018"><ele>196.0</ele><time>2026-03-22T08:14:59.991Z</time></trkpt><trkpt lat="44.430335" lon="11.1200983"><ele>196.0</ele><time>2026-03-22T08:15:00.992Z</time></trkpt><trkpt lat="44.43022" lon="11.1200183"><ele>196.25</ele><time>2026-03-22T08:15:01.991Z</time></trkpt><trkpt lat="44.4301033" lon="11.1199433"><ele>196.5</ele><time>2026-03-22T08:15:02.987Z</time></trkpt><trkpt lat="44.4299917" lon="11.1198633"><ele>196.75</ele><time>2026-03-22T08:15:03.995Z</time></trkpt><trkpt lat="44.4298733" lon="11.119785"><ele>197.0</ele><time>2026-03-22T08:15:04.989Z</time></trkpt><trkpt lat="44.4297533" lon="11.1197083"><ele>199.25</ele><time>2026-03-22T08:15:05.991Z</time></trkpt><trkpt lat="44.4296317" lon="11.1196283"><ele>201.5</ele><time>2026-03-22T08:15:06.993Z</time></trkpt><trkpt lat="44.4295167" lon="11.1195417"><ele>203.75</ele><time>2026-03-22T08:15:07.991Z</time></trkpt><trkpt lat="44.4294067" lon="11.1194483"><ele>206.0</ele><time>2026-03-22T08:15:08.992Z</time></trkpt><trkpt lat="44.4293017" lon="11.1193483"><ele>206.0</ele><time>2026-03-22T08:15:09.994Z</time></trkpt><trkpt lat="44.4292033" lon="11.1192433"><ele>206.0</ele><time>2026-03-22T08:15:10.995Z</time></trkpt><trkpt lat="44.4291017" lon="11.11914"><ele>206.0</ele><time>2026-03-22T08:15:11.992Z</time></trkpt><trkpt lat="44.4290067" lon="11.11905"><ele>206.0</ele><time>2026-03-22T08:15:12.989Z</time></trkpt><trkpt lat="44.4289167" lon="11.1189683"><ele>205.0</ele><time>2026-03-22T08:15:13.989Z</time></trkpt><trkpt lat="44.4288333" lon="11.1188983"><ele>204.0</ele><time>2026-03-22T08:15:14.998Z</time></trkpt><trkpt lat="44.42875" lon="11.1188283"><ele>203.0</ele><time>2026-03-22T08:15:15.992Z</time></trkpt><trkpt lat="44.4286667" lon="11.1187567"><ele>202.0</ele><time>2026-03-22T08:15:16.992Z</time></trkpt><trkpt lat="44.4285833" lon="11.118685"><ele>201.0</ele><time>2026-03-22T08:15:17.993Z</time></trkpt><trkpt lat="44.4284967" lon="11.1186183"><ele>201.0</ele><time>2026-03-22T08:15:19.002Z</time></trkpt><trkpt lat="44.4284067" lon="11.1185617"><ele>201.0</ele><time>2026-03-22T08:15:19.995Z</time></trkpt><trkpt lat="44.4283267" lon="11.1184983"><ele>201.0</ele><time>2026-03-22T08:15:20.996Z</time></trkpt><trkpt lat="44.4282467" lon="11.1184133"><ele>201.0</ele><time>2026-03-22T08:15:21.992Z</time></trkpt><trkpt lat="44.4281667" lon="11.1183017"><ele>201.0</ele><time>2026-03-22T08:15:22.993Z</time></trkpt><trkpt lat="44.42809" lon="11.1181733"><ele>201.20000000000002</ele><time>2026-03-22T08:15:23.996Z</time></trkpt><trkpt lat="44.42802" lon="11.11805"><ele>201.4</ele><time>2026-03-22T08:15:24.995Z</time></trkpt><trkpt lat="44.4279483" lon="11.11794"><ele>201.6</ele><time>2026-03-22T08:15:25.993Z</time></trkpt><trkpt lat="44.4278767" lon="11.1178383"><ele>201.8</ele><time>2026-03-22T08:15:26.991Z</time></trkpt><trkpt lat="44.427805" lon="11.1177383"><ele>202.0</ele><time>2026-03-22T08:15:27.991Z</time></trkpt><trkpt lat="44.4277383" lon="11.1176483"><ele>201.99999999999997</ele><time>2026-03-22T08:15:28.989Z</time></trkpt><trkpt lat="44.4276767" lon="11.1175617"><ele>202.0</ele><time>2026-03-22T08:15:29.996Z</time></trkpt><trkpt lat="44.42763" lon="11.1174683"><ele>202.0</ele><time>2026-03-22T08:15:30.992Z</time></trkpt><trkpt lat="44.427595" lon="11.1173683"><ele>202.0</ele><time>2026-03-22T08:15:32Z</time></trkpt><trkpt lat="44.427595" lon="11.1172517"><ele>201.99999999999997</ele><time>2026-03-22T08:15:33.002Z</time></trkpt><trkpt lat="44.4276033" lon="11.1171183"><ele>202.0</ele><time>2026-03-22T08:15:33.987Z</time></trkpt><trkpt lat="44.4275917" lon="11.1169883"><ele>200.0</ele><time>2026-03-22T08:15:35.001Z</time></trkpt><trkpt lat="44.4275617" lon="11.1168567"><ele>198.0</ele><time>2026-03-22T08:15:35.99Z</time></trkpt><trkpt lat="44.4275117" lon="11.1167267"><ele>196.0</ele><time>2026-03-22T08:15:36.989Z</time></trkpt><trkpt lat="44.427455" lon="11.1166033"><ele>194.0</ele><time>2026-03-22T08:15:37.992Z</time></trkpt><trkpt lat="44.4273867" lon="11.1165033"><ele>192.0</ele><time>2026-03-22T08:15:38.993Z</time></trkpt><trkpt lat="44.4272967" lon="11.1164333"><ele>190.39999999999998</ele><time>2026-03-22T08:15:39.991Z</time></trkpt><trkpt lat="44.4271933" lon="11.1163867"><ele>188.79999999999998</ele><time>2026-03-22T08:15:40.989Z</time></trkpt><trkpt lat="44.4270833" lon="11.11635"><ele>187.2</ele><time>2026-03-22T08:15:41.993Z</time></trkpt><trkpt lat="44.42698" lon="11.1163"><ele>185.6</ele><time>2026-03-22T08:15:42.989Z</time></trkpt><trkpt lat="44.4268833" lon="11.1162417"><ele>184.0</ele><time>2026-03-22T08:15:44Z</time></trkpt><trkpt lat="44.42679" lon="11.1161667"><ele>184.0</ele><time>2026-03-22T08:15:44.994Z</time></trkpt><trkpt lat="44.4267" lon="11.1160717"><ele>184.0</ele><time>2026-03-22T08:15:45.995Z</time></trkpt><trkpt lat="44.42661" lon="11.1159683"><ele>184.0</ele><time>2026-03-22T08:15:46.987Z</time></trkpt><trkpt lat="44.426515" lon="11.11586"><ele>184.0</ele><time>2026-03-22T08:15:47.991Z</time></trkpt><trkpt lat="44.4264167" lon="11.1157467"><ele>183.75</ele><time>2026-03-22T08:15:48.995Z</time></trkpt><trkpt lat="44.4263167" lon="11.1156333"><ele>183.5</ele><time>2026-03-22T08:15:49.992Z</time></trkpt><trkpt lat="44.4262117" lon="11.1155167"><ele>183.25</ele><time>2026-03-22T08:15:50.991Z</time></trkpt><trkpt lat="44.42611" lon="11.1153983"><ele>183.0</ele><time>2026-03-22T08:15:51.992Z</time></trkpt><trkpt lat="44.4260067" lon="11.1152883"><ele>183.0</ele><time>2026-03-22T08:15:53Z</time></trkpt><trkpt lat="44.4259017" lon="11.1151783"><ele>183.0</ele><time>2026-03-22T08:15:53.992Z</time></trkpt><trkpt lat="44.4257933" lon="11.1150667"><ele>183.0</ele><time>2026-03-22T08:15:54.994Z</time></trkpt><trkpt lat="44.4256817" lon="11.1149567"><ele>183.0</ele><time>2026-03-22T08:15:55.996Z</time></trkpt><trkpt lat="44.4255717" lon="11.11484"><ele>184.25</ele><time>2026-03-22T08:15:56.999Z</time></trkpt><trkpt lat="44.4254617" lon="11.1147183"><ele>185.5</ele><time>2026-03-22T08:15:57.992Z</time></trkpt><trkpt lat="44.4253567" lon="11.1146033"><ele>186.75</ele><time>2026-03-22T08:15:58.995Z</time></trkpt><trkpt lat="44.4252517" lon="11.1144917"><ele>188.0</ele><time>2026-03-22T08:15:59.995Z</time></trkpt><trkpt lat="44.4251467" lon="11.11437"><ele>188.0</ele><time>2026-03-22T08:16:00.998Z</time></trkpt><trkpt lat="44.4250417" lon="11.1142433"><ele>188.0</ele><time>2026-03-22T08:16:01.989Z</time></trkpt><trkpt lat="44.4249417" lon="11.1141167"><ele>188.0</ele><time>2026-03-22T08:16:02.996Z</time></trkpt><trkpt lat="44.4248383" lon="11.1139883"><ele>188.0</ele><time>2026-03-22T08:16:03.993Z</time></trkpt><trkpt lat="44.42474" lon="11.1138533"><ele>189.25</ele><time>2026-03-22T08:16:04.993Z</time></trkpt><trkpt lat="44.4246367" lon="11.11372"><ele>190.5</ele><time>2026-03-22T08:16:05.995Z</time></trkpt><trkpt lat="44.4245317" lon="11.113585"><ele>191.75</ele><time>2026-03-22T08:16:06.993Z</time></trkpt><trkpt lat="44.4244317" lon="11.1134467"><ele>193.0</ele><time>2026-03-22T08:16:07.993Z</time></trkpt><trkpt lat="44.4243217" lon="11.1133217"><ele>191.75</ele><time>2026-03-22T08:16:08.989Z</time></trkpt><trkpt lat="44.424215" lon="11.1131933"><ele>190.5</ele><time>2026-03-22T08:16:09.988Z</time></trkpt><trkpt lat="44.4241033" lon="11.1130717"><ele>189.25</ele><time>2026-03-22T08:16:10.996Z</time></trkpt><trkpt lat="44.42399" lon="11.1129517"><ele>188.0</ele><time>2026-03-22T08:16:11.993Z</time></trkpt><trkpt lat="44.42388" lon="11.112835"><ele>188.0</ele><time>2026-03-22T08:16:12.994Z</time></trkpt><trkpt lat="44.4237767" lon="11.11272"><ele>188.0</ele><time>2026-03-22T08:16:13.997Z</time></trkpt><trkpt lat="44.4236767" lon="11.1125983"><ele>188.0</ele><time>2026-03-22T08:16:14.995Z</time></trkpt><trkpt lat="44.4235767" lon="11.1124783"><ele>188.0</ele><time>2026-03-22T08:16:15.99Z</time></trkpt><trkpt lat="44.423475" lon="11.11236"><ele>188.0</ele><time>2026-03-22T08:16:16.994Z</time></trkpt><trkpt lat="44.42338" lon="11.11224"><ele>188.0</ele><time>2026-03-22T08:16:17.998Z</time></trkpt><trkpt lat="44.4232867" lon="11.1121233"><ele>188.0</ele><time>2026-03-22T08:16:18.994Z</time></trkpt><trkpt lat="44.42319" lon="11.1120167"><ele>188.0</ele><time>2026-03-22T08:16:19.994Z</time></trkpt><trkpt lat="44.4230833" lon="11.1119233"><ele>188.75</ele><time>2026-03-22T08:16:20.995Z</time></trkpt><trkpt lat="44.422965" lon="11.1118417"><ele>189.5</ele><time>2026-03-22T08:16:21.991Z</time></trkpt><trkpt lat="44.4228467" lon="11.111765"><ele>190.25</ele><time>2026-03-22T08:16:22.992Z</time></trkpt><trkpt lat="44.4227383" lon="11.1116817"><ele>191.0</ele><time>2026-03-22T08:16:23.994Z</time></trkpt><trkpt lat="44.42264" lon="11.1115783"><ele>190.0</ele><time>2026-03-22T08:16:24.996Z</time></trkpt><trkpt lat="44.422555" lon="11.1114483"><ele>189.0</ele><time>2026-03-22T08:16:25.993Z</time></trkpt><trkpt lat="44.4224783" lon="11.1113033"><ele>188.0</ele><time>2026-03-22T08:16:26.992Z</time></trkpt><trkpt lat="44.4224067" lon="11.1111483"><ele>187.0</ele><time>2026-03-22T08:16:27.989Z</time></trkpt><trkpt lat="44.4223283" lon="11.1110017"><ele>187.0</ele><time>2026-03-22T08:16:28.995Z</time></trkpt><trkpt lat="44.4222433" lon="11.1108583"><ele>187.0</ele><time>2026-03-22T08:16:29.988Z</time></trkpt><trkpt lat="44.42215" lon="11.1107267"><ele>187.0</ele><time>2026-03-22T08:16:30.995Z</time></trkpt><trkpt lat="44.42205" lon="11.1106083"><ele>187.0</ele><time>2026-03-22T08:16:31.994Z</time></trkpt><trkpt lat="44.4219433" lon="11.1104967"><ele>187.75</ele><time>2026-03-22T08:16:32.989Z</time></trkpt><trkpt lat="44.421835" lon="11.1103917"><ele>188.5</ele><time>2026-03-22T08:16:33.991Z</time></trkpt><trkpt lat="44.4217283" lon="11.1102833"><ele>189.25</ele><time>2026-03-22T08:16:34.988Z</time></trkpt><trkpt lat="44.421625" lon="11.1101733"><ele>190.0</ele><time>2026-03-22T08:16:35.993Z</time></trkpt><trkpt lat="44.421525" lon="11.1100583"><ele>190.0</ele><time>2026-03-22T08:16:36.998Z</time></trkpt><trkpt lat="44.4214233" lon="11.1099433"><ele>190.0</ele><time>2026-03-22T08:16:37.992Z</time></trkpt><trkpt lat="44.4213283" lon="11.1098167"><ele>190.0</ele><time>2026-03-22T08:16:38.996Z</time></trkpt><trkpt lat="44.4212333" lon="11.1096883"><ele>190.0</ele><time>2026-03-22T08:16:39.997Z</time></trkpt><trkpt lat="44.42114" lon="11.10956"><ele>190.25</ele><time>2026-03-22T08:16:40.995Z</time></trkpt><trkpt lat="44.4210467" lon="11.109425"><ele>190.5</ele><time>2026-03-22T08:16:41.994Z</time></trkpt><trkpt lat="44.4209517" lon="11.10929"><ele>190.75</ele><time>2026-03-22T08:16:42.994Z</time></trkpt><trkpt lat="44.4208533" lon="11.1091567"><ele>191.0</ele><time>2026-03-22T08:16:43.992Z</time></trkpt><trkpt lat="44.4207517" lon="11.109025"><ele>191.0</ele><time>2026-03-22T08:16:44.996Z</time></trkpt><trkpt lat="44.4206467" lon="11.1088983"><ele>191.0</ele><time>2026-03-22T08:16:45.996Z</time></trkpt><trkpt lat="44.42054" lon="11.10877"><ele>191.0</ele><time>2026-03-22T08:16:46.989Z</time></trkpt><trkpt lat="44.4204317" lon="11.1086417"><ele>191.0</ele><time>2026-03-22T08:16:47.997Z</time></trkpt><trkpt lat="44.4203233" lon="11.1085083"><ele>191.25</ele><time>2026-03-22T08:16:48.998Z</time></trkpt><trkpt lat="44.42023" lon="11.1083717"><ele>191.5</ele><time>2026-03-22T08:16:49.994Z</time></trkpt><trkpt lat="44.42014" lon="11.1082283"><ele>191.75</ele><time>2026-03-22T08:16:50.994Z</time></trkpt><trkpt lat="44.4200517" lon="11.1080883"><ele>192.0</ele><time>2026-03-22T08:16:51.996Z</time></trkpt><trkpt lat="44.4199667" lon="11.10794"><ele>192.0</ele><time>2026-03-22T08:16:52.993Z</time></trkpt><trkpt lat="44.419885" lon="11.107795"><ele>192.0</ele><time>2026-03-22T08:16:53.993Z</time></trkpt><trkpt lat="44.419805" lon="11.10766"><ele>192.0</ele><time>2026-03-22T08:16:54.991Z</time></trkpt><trkpt lat="44.41972" lon="11.107525"><ele>192.0</ele><time>2026-03-22T08:16:55.994Z</time></trkpt><trkpt lat="44.4196367" lon="11.107395"><ele>192.2</ele><time>2026-03-22T08:16:56.991Z</time></trkpt><trkpt lat="44.4195617" lon="11.107275"><ele>192.39999999999998</ele><time>2026-03-22T08:16:57.992Z</time></trkpt><trkpt lat="44.41949" lon="11.10717"><ele>192.60000000000002</ele><time>2026-03-22T08:16:58.993Z</time></trkpt><trkpt lat="44.4194333" lon="11.107065"><ele>192.8</ele><time>2026-03-22T08:16:59.993Z</time></trkpt><trkpt lat="44.4193917" lon="11.10695"><ele>193.0</ele><time>2026-03-22T08:17:00.998Z</time></trkpt><trkpt lat="44.419375" lon="11.1068183"><ele>193.0</ele><time>2026-03-22T08:17:01.994Z</time></trkpt><trkpt lat="44.4193883" lon="11.1066733"><ele>193.0</ele><time>2026-03-22T08:17:02.992Z</time></trkpt><trkpt lat="44.4194233" lon="11.1065283"><ele>193.0</ele><time>2026-03-22T08:17:03.989Z</time></trkpt><trkpt lat="44.41947" lon="11.106395"><ele>193.0</ele><time>2026-03-22T08:17:04.99Z</time></trkpt><trkpt lat="44.41951" lon="11.1062633"><ele>193.0</ele><time>2026-03-22T08:17:05.992Z</time></trkpt><trkpt lat="44.4195233" lon="11.10613"><ele>193.0</ele><time>2026-03-22T08:17:06.995Z</time></trkpt><trkpt lat="44.41951" lon="11.106005"><ele>193.0</ele><time>2026-03-22T08:17:08.002Z</time></trkpt><trkpt lat="44.419475" lon="11.1058983"><ele>193.0</ele><time>2026-03-22T08:17:08.989Z</time></trkpt><trkpt lat="44.41942" lon="11.1058067"><ele>193.0</ele><time>2026-03-22T08:17:09.993Z</time></trkpt><trkpt lat="44.4193083" lon="11.1057433"><ele>193.0</ele><time>2026-03-22T08:17:10.992Z</time></trkpt><trkpt lat="44.4191933" lon="11.1056883"><ele>193.0</ele><time>2026-03-22T08:17:11.994Z</time></trkpt><trkpt lat="44.4190783" lon="11.1056167"><ele>193.0</ele><time>2026-03-22T08:17:12.992Z</time></trkpt><trkpt lat="44.4189583" lon="11.1055433"><ele>193.0</ele><time>2026-03-22T08:17:13.994Z</time></trkpt><trkpt lat="44.4188333" lon="11.1054683"><ele>193.0</ele><time>2026-03-22T08:17:14.995Z</time></trkpt><trkpt lat="44.4187067" lon="11.1053933"><ele>193.0</ele><time>2026-03-22T08:17:15.987Z</time></trkpt><trkpt lat="44.4185767" lon="11.10532"><ele>193.0</ele><time>2026-03-22T08:17:16.994Z</time></trkpt><trkpt lat="44.4184417" lon="11.105245"><ele>193.0</ele><time>2026-03-22T08:17:17.994Z</time></trkpt><trkpt lat="44.41831" lon="11.1051583"><ele>193.0</ele><time>2026-03-22T08:17:18.995Z</time></trkpt><trkpt lat="44.4181767" lon="11.10507"><ele>193.0</ele><time>2026-03-22T08:17:19.992Z</time></trkpt><trkpt lat="44.41805" lon="11.1049833"><ele>193.0</ele><time>2026-03-22T08:17:21.001Z</time></trkpt><trkpt lat="44.41792" lon="11.1049067"><ele>193.0</ele><time>2026-03-22T08:17:21.994Z</time></trkpt><trkpt lat="44.4177967" lon="11.1048467"><ele>193.0</ele><time>2026-03-22T08:17:22.992Z</time></trkpt><trkpt lat="44.4176633" lon="11.1048167"><ele>193.5</ele><time>2026-03-22T08:17:23.989Z</time></trkpt><trkpt lat="44.417525" lon="11.1048183"><ele>194.0</ele><time>2026-03-22T08:17:24.993Z</time></trkpt><trkpt lat="44.4173883" lon="11.104825"><ele>194.5</ele><time>2026-03-22T08:17:25.989Z</time></trkpt><trkpt lat="44.4172483" lon="11.1048267"><ele>195.0</ele><time>2026-03-22T08:17:26.996Z</time></trkpt><trkpt lat="44.4171117" lon="11.1048"><ele>196.0</ele><time>2026-03-22T08:17:27.995Z</time></trkpt><trkpt lat="44.41698" lon="11.1047467"><ele>197.0</ele><time>2026-03-22T08:17:28.992Z</time></trkpt><trkpt lat="44.4168483" lon="11.1046867"><ele>198.0</ele><time>2026-03-22T08:17:29.995Z</time></trkpt><trkpt lat="44.41672" lon="11.1046167"><ele>199.0</ele><time>2026-03-22T08:17:30.995Z</time></trkpt><trkpt lat="44.4165883" lon="11.1045517"><ele>199.0</ele><time>2026-03-22T08:17:31.996Z</time></trkpt><trkpt lat="44.416455" lon="11.10449"><ele>199.0</ele><time>2026-03-22T08:17:32.996Z</time></trkpt><trkpt lat="44.41632" lon="11.10443"><ele>199.0</ele><time>2026-03-22T08:17:33.993Z</time></trkpt><trkpt lat="44.416185" lon="11.1043667"><ele>199.0</ele><time>2026-03-22T08:17:34.995Z</time></trkpt><trkpt lat="44.4160483" lon="11.1043017"><ele>199.25</ele><time>2026-03-22T08:17:35.992Z</time></trkpt><trkpt lat="44.41591" lon="11.1042367"><ele>199.5</ele><time>2026-03-22T08:17:36.991Z</time></trkpt><trkpt lat="44.4157717" lon="11.1041733"><ele>199.75</ele><time>2026-03-22T08:17:37.997Z</time></trkpt><trkpt lat="44.4156317" lon="11.1041117"><ele>200.0</ele><time>2026-03-22T08:17:39.004Z</time></trkpt><trkpt lat="44.415495" lon="11.10405"><ele>200.25</ele><time>2026-03-22T08:17:39.994Z</time></trkpt><trkpt lat="44.41536" lon="11.103985"><ele>200.5</ele><time>2026-03-22T08:17:40.999Z</time></trkpt><trkpt lat="44.4152233" lon="11.1039217"><ele>200.75</ele><time>2026-03-22T08:17:41.998Z</time></trkpt><trkpt lat="44.415085" lon="11.1038567"><ele>201.0</ele><time>2026-03-22T08:17:42.994Z</time></trkpt><trkpt lat="44.4149533" lon="11.1037817"><ele>201.0</ele><time>2026-03-22T08:17:43.992Z</time></trkpt><trkpt lat="44.4148267" lon="11.1036883"><ele>201.0</ele><time>2026-03-22T08:17:45.001Z</time></trkpt><trkpt lat="44.4147" lon="11.1035867"><ele>201.0</ele><time>2026-03-22T08:17:46.002Z</time></trkpt><trkpt lat="44.4145783" lon="11.1034733"><ele>201.0</ele><time>2026-03-22T08:17:46.992Z</time></trkpt><trkpt lat="44.4144617" lon="11.1033567"><ele>200.5</ele><time>2026-03-22T08:17:47.992Z</time></trkpt><trkpt lat="44.4143467" lon="11.1032317"><ele>200.0</ele><time>2026-03-22T08:17:48.996Z</time></trkpt><trkpt lat="44.41423" lon="11.1031067"><ele>199.5</ele><time>2026-03-22T08:17:49.994Z</time></trkpt><trkpt lat="44.4141117" lon="11.1029867"><ele>199.0</ele><time>2026-03-22T08:17:50.995Z</time></trkpt><trkpt lat="44.4139983" lon="11.10286"><ele>199.0</ele><time>2026-03-22T08:17:52Z</time></trkpt><trkpt lat="44.4138833" lon="11.102735"><ele>199.0</ele><time>2026-03-22T08:17:52.992Z</time></trkpt><trkpt lat="44.41377" lon="11.10261"><ele>199.0</ele><time>2026-03-22T08:17:53.989Z</time></trkpt><trkpt lat="44.4136567" lon="11.1024883"><ele>199.0</ele><time>2026-03-22T08:17:54.997Z</time></trkpt><trkpt lat="44.4135433" lon="11.10237"><ele>199.75</ele><time>2026-03-22T08:17:55.996Z</time></trkpt><trkpt lat="44.4134283" lon="11.1022617"><ele>200.5</ele><time>2026-03-22T08:17:56.998Z</time></trkpt><trkpt lat="44.41331" lon="11.1021617"><ele>201.25</ele><time>2026-03-22T08:17:57.996Z</time></trkpt><trkpt lat="44.4131883" lon="11.10207"><ele>202.0</ele><time>2026-03-22T08:17:58.997Z</time></trkpt><trkpt lat="44.4130633" lon="11.1019833"><ele>201.75</ele><time>2026-03-22T08:17:59.995Z</time></trkpt><trkpt lat="44.41294" lon="11.101895"><ele>201.5</ele><time>2026-03-22T08:18:00.999Z</time></trkpt><trkpt lat="44.4128183" lon="11.1017983"><ele>201.25</ele><time>2026-03-22T08:18:01.995Z</time></trkpt><trkpt lat="44.4127" lon="11.101685"><ele>201.0</ele><time>2026-03-22T08:18:03.001Z</time></trkpt><trkpt lat="44.4125867" lon="11.1015583"><ele>201.0</ele><time>2026-03-22T08:18:04.001Z</time></trkpt><trkpt lat="44.4124733" lon="11.101425"><ele>201.0</ele><time>2026-03-22T08:18:04.991Z</time></trkpt><trkpt lat="44.41237" lon="11.1012883"><ele>201.0</ele><time>2026-03-22T08:18:05.994Z</time></trkpt><trkpt lat="44.4122667" lon="11.1011517"><ele>201.0</ele><time>2026-03-22T08:18:06.999Z</time></trkpt><trkpt lat="44.412165" lon="11.10101"><ele>201.25</ele><time>2026-03-22T08:18:07.993Z</time></trkpt><trkpt lat="44.4120567" lon="11.1008733"><ele>201.5</ele><time>2026-03-22T08:18:08.993Z</time></trkpt><trkpt lat="44.4119467" lon="11.1007417"><ele>201.75</ele><time>2026-03-22T08:18:09.988Z</time></trkpt><trkpt lat="44.4118333" lon="11.100615"><ele>202.0</ele><time>2026-03-22T08:18:10.993Z</time></trkpt><trkpt lat="44.4117233" lon="11.1004917"><ele>202.0</ele><time>2026-03-22T08:18:11.993Z</time></trkpt><trkpt lat="44.4116183" lon="11.1003733"><ele>202.0</ele><time>2026-03-22T08:18:12.992Z</time></trkpt><trkpt lat="44.411515" lon="11.10026"><ele>202.0</ele><time>2026-03-22T08:18:13.996Z</time></trkpt><trkpt lat="44.4114117" lon="11.1001583"><ele>202.0</ele><time>2026-03-22T08:18:14.994Z</time></trkpt><trkpt lat="44.411305" lon="11.100085"><ele>203.5</ele><time>2026-03-22T08:18:15.996Z</time></trkpt><trkpt lat="44.4111867" lon="11.1000383"><ele>205.0</ele><time>2026-03-22T08:18:16.992Z</time></trkpt><trkpt lat="44.4110617" lon="11.1000217"><ele>206.5</ele><time>2026-03-22T08:18:17.987Z</time></trkpt><trkpt lat="44.4109283" lon="11.10003"><ele>208.0</ele><time>2026-03-22T08:18:18.992Z</time></trkpt><trkpt lat="44.4107967" lon="11.1000533"><ele>208.0</ele><time>2026-03-22T08:18:19.994Z</time></trkpt><trkpt lat="44.4106717" lon="11.1000883"><ele>208.0</ele><time>2026-03-22T08:18:21.001Z</time></trkpt><trkpt lat="44.4105483" lon="11.1001183"><ele>208.0</ele><time>2026-03-22T08:18:21.993Z</time></trkpt><trkpt lat="44.4104217" lon="11.10015"><ele>208.0</ele><time>2026-03-22T08:18:22.989Z</time></trkpt><trkpt lat="44.4103017" lon="11.1001767"><ele>208.5</ele><time>2026-03-22T08:18:23.993Z</time></trkpt><trkpt lat="44.4101817" lon="11.1002067"><ele>209.0</ele><time>2026-03-22T08:18:24.995Z</time></trkpt><trkpt lat="44.4100667" lon="11.1002333"><ele>209.5</ele><time>2026-03-22T08:18:25.989Z</time></trkpt><trkpt lat="44.4099567" lon="11.1002567"><ele>210.0</ele><time>2026-03-22T08:18:26.996Z</time></trkpt><trkpt lat="44.4098533" lon="11.1002767"><ele>210.0</ele><time>2026-03-22T08:18:27.991Z</time></trkpt><trkpt lat="44.40976" lon="11.1002933"><ele>210.0</ele><time>2026-03-22T08:18:28.993Z</time></trkpt><trkpt lat="44.4096833" lon="11.100315"><ele>210.0</ele><time>2026-03-22T08:18:29.994Z</time></trkpt><trkpt lat="44.4096183" lon="11.1003233"><ele>210.0</ele><time>2026-03-22T08:18:30.997Z</time></trkpt><trkpt lat="44.4095217" lon="11.1002467"><ele>210.0</ele><time>2026-03-22T08:18:32.995Z</time></trkpt><trkpt lat="44.4094933" lon="11.1001633"><ele>210.0</ele><time>2026-03-22T08:18:34.004Z</time></trkpt><trkpt lat="44.4094817" lon="11.10006"><ele>210.4</ele><time>2026-03-22T08:18:34.997Z</time></trkpt><trkpt lat="44.4094883" lon="11.0999317"><ele>210.8</ele><time>2026-03-22T08:18:35.991Z</time></trkpt><trkpt lat="44.40948" lon="11.099785"><ele>211.2</ele><time>2026-03-22T08:18:36.995Z</time></trkpt><trkpt lat="44.409455" lon="11.0996267"><ele>211.6</ele><time>2026-03-22T08:18:37.99Z</time></trkpt><trkpt lat="44.4094283" lon="11.0994433"><ele>212.0</ele><time>2026-03-22T08:18:38.994Z</time></trkpt><trkpt lat="44.4093933" lon="11.0992733"><ele>212.0</ele><time>2026-03-22T08:18:39.991Z</time></trkpt><trkpt lat="44.409355" lon="11.0990983"><ele>212.0</ele><time>2026-03-22T08:18:41.003Z</time></trkpt><trkpt lat="44.40931" lon="11.0989167"><ele>212.0</ele><time>2026-03-22T08:18:41.989Z</time></trkpt><trkpt lat="44.40926" lon="11.09874"><ele>212.0</ele><time>2026-03-22T08:18:42.993Z</time></trkpt><trkpt lat="44.40921" lon="11.0985633"><ele>211.5</ele><time>2026-03-22T08:18:43.994Z</time></trkpt><trkpt lat="44.40915" lon="11.0983967"><ele>211.0</ele><time>2026-03-22T08:18:44.995Z</time></trkpt><trkpt lat="44.4090783" lon="11.0982333"><ele>210.5</ele><time>2026-03-22T08:18:46Z</time></trkpt><trkpt lat="44.4090033" lon="11.0980717"><ele>210.0</ele><time>2026-03-22T08:18:46.989Z</time></trkpt><trkpt lat="44.4089217" lon="11.097915"><ele>209.75</ele><time>2026-03-22T08:18:47.998Z</time></trkpt><trkpt lat="44.4088367" lon="11.0977633"><ele>209.5</ele><time>2026-03-22T08:18:48.988Z</time></trkpt><trkpt lat="44.40875" lon="11.0976033"><ele>209.25</ele><time>2026-03-22T08:18:49.989Z</time></trkpt><trkpt lat="44.4086583" lon="11.0974417"><ele>209.0</ele><time>2026-03-22T08:18:50.996Z</time></trkpt><trkpt lat="44.4085683" lon="11.0972833"><ele>209.75</ele><time>2026-03-22T08:18:52Z</time></trkpt><trkpt lat="44.40848" lon="11.0971217"><ele>210.5</ele><time>2026-03-22T08:18:52.996Z</time></trkpt><trkpt lat="44.40839" lon="11.0969567"><ele>211.25</ele><time>2026-03-22T08:18:53.989Z</time></trkpt><trkpt lat="44.4083" lon="11.096795"><ele>212.0</ele><time>2026-03-22T08:18:54.998Z</time></trkpt><trkpt lat="44.4082133" lon="11.09664"><ele>211.75</ele><time>2026-03-22T08:18:55.993Z</time></trkpt><trkpt lat="44.4081317" lon="11.0964833"><ele>211.5</ele><time>2026-03-22T08:18:56.994Z</time></trkpt><trkpt lat="44.4080483" lon="11.0963317"><ele>211.25</ele><time>2026-03-22T08:18:57.995Z</time></trkpt><trkpt lat="44.407965" lon="11.0961883"><ele>211.0</ele><time>2026-03-22T08:18:58.99Z</time></trkpt><trkpt lat="44.4078867" lon="11.0960467"><ele>211.60000000000002</ele><time>2026-03-22T08:18:59.995Z</time></trkpt><trkpt lat="44.4078117" lon="11.095915"><ele>212.2</ele><time>2026-03-22T08:19:00.991Z</time></trkpt><trkpt lat="44.4077417" lon="11.09579"><ele>212.79999999999998</ele><time>2026-03-22T08:19:01.992Z</time></trkpt><trkpt lat="44.4076833" lon="11.095675"><ele>213.39999999999998</ele><time>2026-03-22T08:19:02.996Z</time></trkpt><trkpt lat="44.4076367" lon="11.09557"><ele>214.0</ele><time>2026-03-22T08:19:03.995Z</time></trkpt><trkpt lat="44.4076017" lon="11.0954683"><ele>214.0</ele><time>2026-03-22T08:19:04.991Z</time></trkpt><trkpt lat="44.4075767" lon="11.0953683"><ele>213.99999999999997</ele><time>2026-03-22T08:19:05.998Z</time></trkpt><trkpt lat="44.4075633" lon="11.0952717"><ele>213.99999999999997</ele><time>2026-03-22T08:19:06.997Z</time></trkpt><trkpt lat="44.4075683" lon="11.09518"><ele>214.0</ele><time>2026-03-22T08:19:07.996Z</time></trkpt><trkpt lat="44.4075683" lon="11.0950283"><ele>214.0</ele><time>2026-03-22T08:19:09.997Z</time></trkpt><trkpt lat="44.407485" lon="11.0948833"><ele>214.39999999999998</ele><time>2026-03-22T08:19:11.991Z</time></trkpt><trkpt lat="44.4074217" lon="11.0948"><ele>214.79999999999998</ele><time>2026-03-22T08:19:12.999Z</time></trkpt><trkpt lat="44.4073533" lon="11.0947"><ele>215.20000000000002</ele><time>2026-03-22T08:19:13.994Z</time></trkpt><trkpt lat="44.407285" lon="11.0945617"><ele>215.60000000000002</ele><time>2026-03-22T08:19:14.995Z</time></trkpt><trkpt lat="44.4072183" lon="11.0943983"><ele>216.0</ele><time>2026-03-22T08:19:15.996Z</time></trkpt><trkpt lat="44.40716" lon="11.0942233"><ele>216.75</ele><time>2026-03-22T08:19:16.988Z</time></trkpt><trkpt lat="44.4071133" lon="11.09405"><ele>217.5</ele><time>2026-03-22T08:19:17.997Z</time></trkpt><trkpt lat="44.407075" lon="11.0938833"><ele>218.25</ele><time>2026-03-22T08:19:18.993Z</time></trkpt><trkpt lat="44.407045" lon="11.0937267"><ele>219.0</ele><time>2026-03-22T08:19:19.994Z</time></trkpt><trkpt lat="44.4070117" lon="11.09358"><ele>219.0</ele><time>2026-03-22T08:19:20.995Z</time></trkpt><trkpt lat="44.40696" lon="11.0934217"><ele>219.0</ele><time>2026-03-22T08:19:21.989Z</time></trkpt><trkpt lat="44.4068933" lon="11.0932633"><ele>219.0</ele><time>2026-03-22T08:19:22.989Z</time></trkpt><trkpt lat="44.40682" lon="11.0931117"><ele>219.0</ele><time>2026-03-22T08:19:23.99Z</time></trkpt><trkpt lat="44.406745" lon="11.0929583"><ele>218.5</ele><time>2026-03-22T08:19:24.996Z</time></trkpt><trkpt lat="44.4066683" lon="11.0927983"><ele>218.0</ele><time>2026-03-22T08:19:25.992Z</time></trkpt><trkpt lat="44.4065917" lon="11.0926333"><ele>217.5</ele><time>2026-03-22T08:19:26.998Z</time></trkpt><trkpt lat="44.4065133" lon="11.09247"><ele>217.0</ele><time>2026-03-22T08:19:27.997Z</time></trkpt><trkpt lat="44.4064383" lon="11.09231"><ele>217.0</ele><time>2026-03-22T08:19:28.994Z</time></trkpt><trkpt lat="44.4063667" lon="11.092155"><ele>217.0</ele><time>2026-03-22T08:19:29.991Z</time></trkpt><trkpt lat="44.4063" lon="11.0920133"><ele>217.0</ele><time>2026-03-22T08:19:30.99Z</time></trkpt><trkpt lat="44.40624" lon="11.09188"><ele>217.0</ele><time>2026-03-22T08:19:31.989Z</time></trkpt><trkpt lat="44.40619" lon="11.0917567"><ele>217.0</ele><time>2026-03-22T08:19:32.995Z</time></trkpt><trkpt lat="44.4061467" lon="11.09164"><ele>217.0</ele><time>2026-03-22T08:19:33.988Z</time></trkpt><trkpt lat="44.4060983" lon="11.0915333"><ele>217.0</ele><time>2026-03-22T08:19:34.993Z</time></trkpt><trkpt lat="44.4060333" lon="11.0914483"><ele>217.0</ele><time>2026-03-22T08:19:35.999Z</time></trkpt><trkpt lat="44.4059533" lon="11.0913767"><ele>217.0</ele><time>2026-03-22T08:19:36.995Z</time></trkpt><trkpt lat="44.4058683" lon="11.0913"><ele>217.0</ele><time>2026-03-22T08:19:37.991Z</time></trkpt><trkpt lat="44.4057867" lon="11.0911983"><ele>217.0</ele><time>2026-03-22T08:19:38.993Z</time></trkpt><trkpt lat="44.40571" lon="11.0910767"><ele>217.0</ele><time>2026-03-22T08:19:39.992Z</time></trkpt><trkpt lat="44.4056417" lon="11.090925"><ele>217.0</ele><time>2026-03-22T08:19:40.991Z</time></trkpt><trkpt lat="44.4055733" lon="11.0907667"><ele>217.5</ele><time>2026-03-22T08:19:41.992Z</time></trkpt><trkpt lat="44.405505" lon="11.0905983"><ele>218.0</ele><time>2026-03-22T08:19:42.994Z</time></trkpt><trkpt lat="44.4054383" lon="11.0904333"><ele>218.5</ele><time>2026-03-22T08:19:43.995Z</time></trkpt><trkpt lat="44.4053733" lon="11.0902767"><ele>219.0</ele><time>2026-03-22T08:19:44.996Z</time></trkpt><trkpt lat="44.4053033" lon="11.0901233"><ele>219.25</ele><time>2026-03-22T08:19:45.994Z</time></trkpt><trkpt lat="44.4052267" lon="11.0899767"><ele>219.5</ele><time>2026-03-22T08:19:46.994Z</time></trkpt><trkpt lat="44.4051467" lon="11.089845"><ele>219.75</ele><time>2026-03-22T08:19:47.993Z</time></trkpt><trkpt lat="44.4050717" lon="11.0897283"><ele>220.0</ele><time>2026-03-22T08:19:48.994Z</time></trkpt><trkpt lat="44.4049883" lon="11.0896417"><ele>220.0</ele><time>2026-03-22T08:19:49.995Z</time></trkpt><trkpt lat="44.4048983" lon="11.0895733"><ele>220.0</ele><time>2026-03-22T08:19:50.993Z</time></trkpt><trkpt lat="44.4048" lon="11.0895233"><ele>220.0</ele><time>2026-03-22T08:19:51.988Z</time></trkpt><trkpt lat="44.404705" lon="11.0894933"><ele>220.0</ele><time>2026-03-22T08:19:52.987Z</time></trkpt><trkpt lat="44.404615" lon="11.0894833"><ele>220.0</ele><time>2026-03-22T08:19:53.99Z</time></trkpt><trkpt lat="44.4045283" lon="11.0894917"><ele>220.5</ele><time>2026-03-22T08:19:54.988Z</time></trkpt><trkpt lat="44.4044283" lon="11.08953"><ele>221.0</ele><time>2026-03-22T08:19:55.989Z</time></trkpt><trkpt lat="44.4043233" lon="11.089575"><ele>221.5</ele><time>2026-03-22T08:19:56.994Z</time></trkpt><trkpt lat="44.4042017" lon="11.089595"><ele>222.0</ele><time>2026-03-22T08:19:58Z</time></trkpt><trkpt lat="44.4040717" lon="11.0895967"><ele>222.0</ele><time>2026-03-22T08:19:58.996Z</time></trkpt><trkpt lat="44.40395" lon="11.0895783"><ele>222.0</ele><time>2026-03-22T08:19:59.991Z</time></trkpt><trkpt lat="44.403845" lon="11.0895583"><ele>222.0</ele><time>2026-03-22T08:20:00.989Z</time></trkpt><trkpt lat="44.4037483" lon="11.089555"><ele>222.0</ele><time>2026-03-22T08:20:01.995Z</time></trkpt><trkpt lat="44.4036583" lon="11.0895767"><ele>222.0</ele><time>2026-03-22T08:20:02.993Z</time></trkpt><trkpt lat="44.4035767" lon="11.0896483"><ele>222.75</ele><time>2026-03-22T08:20:03.995Z</time></trkpt><trkpt lat="44.4034917" lon="11.0897467"><ele>223.5</ele><time>2026-03-22T08:20:04.995Z</time></trkpt><trkpt lat="44.4034067" lon="11.0898567"><ele>224.25</ele><time>2026-03-22T08:20:05.987Z</time></trkpt><trkpt lat="44.40332" lon="11.0899633"><ele>225.0</ele><time>2026-03-22T08:20:06.991Z</time></trkpt><trkpt lat="44.4032317" lon="11.09006"><ele>226.0</ele><time>2026-03-22T08:20:07.996Z</time></trkpt><trkpt lat="44.4031367" lon="11.0901517"><ele>227.0</ele><time>2026-03-22T08:20:08.996Z</time></trkpt><trkpt lat="44.403035" lon="11.0902333"><ele>228.0</ele><time>2026-03-22T08:20:09.995Z</time></trkpt><trkpt lat="44.4029283" lon="11.0903"><ele>229.0</ele><time>2026-03-22T08:20:10.992Z</time></trkpt><trkpt lat="44.4028233" lon="11.090365"><ele>229.6</ele><time>2026-03-22T08:20:11.989Z</time></trkpt><trkpt lat="44.4027183" lon="11.0904317"><ele>230.2</ele><time>2026-03-22T08:20:13.002Z</time></trkpt><trkpt lat="44.4026133" lon="11.0904867"><ele>230.79999999999998</ele><time>2026-03-22T08:20:13.992Z</time></trkpt><trkpt lat="44.4025117" lon="11.09052"><ele>231.39999999999998</ele><time>2026-03-22T08:20:15.005Z</time></trkpt><trkpt lat="44.4024133" lon="11.0905483"><ele>232.0</ele><time>2026-03-22T08:20:15.997Z</time></trkpt><trkpt lat="44.4023233" lon="11.0905867"><ele>232.0</ele><time>2026-03-22T08:20:16.991Z</time></trkpt><trkpt lat="44.40225" lon="11.0906583"><ele>232.0</ele><time>2026-03-22T08:20:17.993Z</time></trkpt><trkpt lat="44.4021817" lon="11.0907667"><ele>232.0</ele><time>2026-03-22T08:20:18.99Z</time></trkpt><trkpt lat="44.4021167" lon="11.090905"><ele>232.0</ele><time>2026-03-22T08:20:19.993Z</time></trkpt><trkpt lat="44.4020517" lon="11.09105"><ele>232.0</ele><time>2026-03-22T08:20:20.991Z</time></trkpt><trkpt lat="44.401995" lon="11.0911867"><ele>233.0</ele><time>2026-03-22T08:20:21.989Z</time></trkpt><trkpt lat="44.40194" lon="11.0913183"><ele>234.0</ele><time>2026-03-22T08:20:22.992Z</time></trkpt><trkpt lat="44.4018867" lon="11.0914333"><ele>235.0</ele><time>2026-03-22T08:20:23.989Z</time></trkpt><trkpt lat="44.4018417" lon="11.09153"><ele>236.0</ele><time>2026-03-22T08:20:24.996Z</time></trkpt><trkpt lat="44.4017883" lon="11.091595"><ele>237.0</ele><time>2026-03-22T08:20:25.991Z</time></trkpt><trkpt lat="44.40168" lon="11.0916383"><ele>237.0</ele><time>2026-03-22T08:20:27.991Z</time></trkpt><trkpt lat="44.4016083" lon="11.0916083"><ele>237.0</ele><time>2026-03-22T08:20:28.996Z</time></trkpt><trkpt lat="44.4015217" lon="11.0915667"><ele>237.0</ele><time>2026-03-22T08:20:29.997Z</time></trkpt><trkpt lat="44.4014183" lon="11.0915233"><ele>237.0</ele><time>2026-03-22T08:20:30.99Z</time></trkpt><trkpt lat="44.4012967" lon="11.0914783"><ele>237.0</ele><time>2026-03-22T08:20:31.991Z</time></trkpt><trkpt lat="44.401165" lon="11.091425"><ele>240.5</ele><time>2026-03-22T08:20:32.994Z</time></trkpt><trkpt lat="44.40103" lon="11.0913617"><ele>244.0</ele><time>2026-03-22T08:20:33.996Z</time></trkpt><trkpt lat="44.4009" lon="11.0912767"><ele>247.5</ele><time>2026-03-22T08:20:34.997Z</time></trkpt><trkpt lat="44.40078" lon="11.0911817"><ele>251.0</ele><time>2026-03-22T08:20:35.989Z</time></trkpt><trkpt lat="44.4006633" lon="11.0910883"><ele>251.0</ele><time>2026-03-22T08:20:36.994Z</time></trkpt><trkpt lat="44.4005517" lon="11.0910033"><ele>251.0</ele><time>2026-03-22T08:20:37.992Z</time></trkpt><trkpt lat="44.400445" lon="11.0909367"><ele>251.0</ele><time>2026-03-22T08:20:38.99Z</time></trkpt><trkpt lat="44.4003333" lon="11.090905"><ele>251.0</ele><time>2026-03-22T08:20:39.99Z</time></trkpt><trkpt lat="44.4002217" lon="11.0909067"><ele>253.25</ele><time>2026-03-22T08:20:40.989Z</time></trkpt><trkpt lat="44.400105" lon="11.09094"><ele>255.5</ele><time>2026-03-22T08:20:41.992Z</time></trkpt><trkpt lat="44.3999883" lon="11.090995"><ele>257.75</ele><time>2026-03-22T08:20:42.993Z</time></trkpt><trkpt lat="44.3998617" lon="11.0910383"><ele>260.0</ele><time>2026-03-22T08:20:43.994Z</time></trkpt><trkpt lat="44.39973" lon="11.0910717"><ele>262.75</ele><time>2026-03-22T08:20:44.991Z</time></trkpt><trkpt lat="44.3995917" lon="11.0910933"><ele>265.5</ele><time>2026-03-22T08:20:45.989Z</time></trkpt><trkpt lat="44.3994517" lon="11.0911083"><ele>268.25</ele><time>2026-03-22T08:20:46.988Z</time></trkpt><trkpt lat="44.3993133" lon="11.0911367"><ele>271.0</ele><time>2026-03-22T08:20:47.995Z</time></trkpt><trkpt lat="44.399175" lon="11.0911667"><ele>271.0</ele><time>2026-03-22T08:20:48.992Z</time></trkpt><trkpt lat="44.3990367" lon="11.0911933"><ele>271.0</ele><time>2026-03-22T08:20:49.99Z</time></trkpt><trkpt lat="44.3988983" lon="11.09121"><ele>271.0</ele><time>2026-03-22T08:20:50.993Z</time></trkpt><trkpt lat="44.3987583" lon="11.09123"><ele>271.0</ele><time>2026-03-22T08:20:51.992Z</time></trkpt><trkpt lat="44.398625" lon="11.0912483"><ele>274.75</ele><time>2026-03-22T08:20:52.99Z</time></trkpt><trkpt lat="44.3984933" lon="11.09127"><ele>278.5</ele><time>2026-03-22T08:20:53.997Z</time></trkpt><trkpt lat="44.3983633" lon="11.0912917"><ele>282.25</ele><time>2026-03-22T08:20:54.992Z</time></trkpt><trkpt lat="44.3982333" lon="11.0913183"><ele>286.0</ele><time>2026-03-22T08:20:55.993Z</time></trkpt><trkpt lat="44.3981017" lon="11.0913383"><ele>289.0</ele><time>2026-03-22T08:20:56.994Z</time></trkpt><trkpt lat="44.3979733" lon="11.0913683"><ele>292.0</ele><time>2026-03-22T08:20:57.994Z</time></trkpt><trkpt lat="44.3978433" lon="11.0914017"><ele>295.0</ele><time>2026-03-22T08:20:58.989Z</time></trkpt><trkpt lat="44.397715" lon="11.091445"><ele>298.0</ele><time>2026-03-22T08:20:59.991Z</time></trkpt><trkpt lat="44.39759" lon="11.0915"><ele>298.0</ele><time>2026-03-22T08:21:00.993Z</time></trkpt><trkpt lat="44.3974683" lon="11.0915533"><ele>298.0</ele><time>2026-03-22T08:21:01.991Z</time></trkpt><trkpt lat="44.397345" lon="11.0916033"><ele>298.0</ele><time>2026-03-22T08:21:02.987Z</time></trkpt><trkpt lat="44.3972267" lon="11.0916517"><ele>298.0</ele><time>2026-03-22T08:21:03.99Z</time></trkpt><trkpt lat="44.3971067" lon="11.0917033"><ele>302.0</ele><time>2026-03-22T08:21:04.99Z</time></trkpt><trkpt lat="44.3969867" lon="11.0917533"><ele>306.0</ele><time>2026-03-22T08:21:05.991Z</time></trkpt><trkpt lat="44.3968633" lon="11.0918017"><ele>310.0</ele><time>2026-03-22T08:21:06.994Z</time></trkpt><trkpt lat="44.39674" lon="11.0918567"><ele>314.0</ele><time>2026-03-22T08:21:07.99Z</time></trkpt><trkpt lat="44.3966183" lon="11.09191"><ele>314.0</ele><time>2026-03-22T08:21:08.993Z</time></trkpt><trkpt lat="44.3964983" lon="11.0919667"><ele>314.0</ele><time>2026-03-22T08:21:09.995Z</time></trkpt><trkpt lat="44.3963817" lon="11.0920267"><ele>314.0</ele><time>2026-03-22T08:21:10.989Z</time></trkpt><trkpt lat="44.3962733" lon="11.0920933"><ele>314.0</ele><time>2026-03-22T08:21:11.998Z</time></trkpt><trkpt lat="44.396175" lon="11.09217"><ele>314.5</ele><time>2026-03-22T08:21:12.989Z</time></trkpt><trkpt lat="44.3960767" lon="11.0922583"><ele>315.0</ele><time>2026-03-22T08:21:13.994Z</time></trkpt><trkpt lat="44.3959817" lon="11.0923683"><ele>315.5</ele><time>2026-03-22T08:21:14.99Z</time></trkpt><trkpt lat="44.39589" lon="11.0924983"><ele>316.0</ele><time>2026-03-22T08:21:15.992Z</time></trkpt><trkpt lat="44.3958" lon="11.0926417"><ele>316.0</ele><time>2026-03-22T08:21:17.003Z</time></trkpt><trkpt lat="44.3957117" lon="11.0927783"><ele>316.0</ele><time>2026-03-22T08:21:17.989Z</time></trkpt><trkpt lat="44.3956283" lon="11.0929067"><ele>316.0</ele><time>2026-03-22T08:21:18.993Z</time></trkpt><trkpt lat="44.395545" lon="11.093025"><ele>316.0</ele><time>2026-03-22T08:21:19.993Z</time></trkpt><trkpt lat="44.395455" lon="11.093125"><ele>318.75</ele><time>2026-03-22T08:21:20.99Z</time></trkpt><trkpt lat="44.3953617" lon="11.0932033"><ele>321.5</ele><time>2026-03-22T08:21:21.995Z</time></trkpt><trkpt lat="44.3952567" lon="11.0932617"><ele>324.25</ele><time>2026-03-22T08:21:22.995Z</time></trkpt><trkpt lat="44.3951417" lon="11.0933"><ele>327.0</ele><time>2026-03-22T08:21:23.991Z</time></trkpt><trkpt lat="44.3950183" lon="11.093325"><ele>327.0</ele><time>2026-03-22T08:21:24.995Z</time></trkpt><trkpt lat="44.3948933" lon="11.0933483"><ele>327.0</ele><time>2026-03-22T08:21:25.991Z</time></trkpt><trkpt lat="44.3947667" lon="11.0933717"><ele>327.0</ele><time>2026-03-22T08:21:26.994Z</time></trkpt><trkpt lat="44.394635" lon="11.093395"><ele>327.0</ele><time>2026-03-22T08:21:28.003Z</time></trkpt><trkpt lat="44.394495" lon="11.09342"><ele>329.6</ele><time>2026-03-22T08:21:28.994Z</time></trkpt><trkpt lat="44.3943667" lon="11.09344"><ele>332.20000000000005</ele><time>2026-03-22T08:21:30Z</time></trkpt><trkpt lat="44.3942583" lon="11.0934567"><ele>334.8</ele><time>2026-03-22T08:21:30.991Z</time></trkpt><trkpt lat="44.3941617" lon="11.0934683"><ele>337.4</ele><time>2026-03-22T08:21:31.989Z</time></trkpt><trkpt lat="44.3940567" lon="11.09346"><ele>340.0</ele><time>2026-03-22T08:21:32.995Z</time></trkpt><trkpt lat="44.3939483" lon="11.0934367"><ele>340.0</ele><time>2026-03-22T08:21:33.995Z</time></trkpt><trkpt lat="44.39384" lon="11.09341"><ele>340.0</ele><time>2026-03-22T08:21:34.989Z</time></trkpt><trkpt lat="44.3937383" lon="11.093395"><ele>340.0</ele><time>2026-03-22T08:21:35.991Z</time></trkpt><trkpt lat="44.3936417" lon="11.0933767"><ele>340.0</ele><time>2026-03-22T08:21:37.003Z</time></trkpt><trkpt lat="44.393555" lon="11.0933517"><ele>340.0</ele><time>2026-03-22T08:21:37.993Z</time></trkpt><trkpt lat="44.39347" lon="11.0933167"><ele>345.16666666666663</ele><time>2026-03-22T08:21:38.998Z</time></trkpt><trkpt lat="44.393415" lon="11.09323"><ele>350.3333333333333</ele><time>2026-03-22T08:21:39.989Z</time></trkpt><trkpt lat="44.3933717" lon="11.093125"><ele>355.5</ele><time>2026-03-22T08:21:40.994Z</time></trkpt><trkpt lat="44.3933367" lon="11.0930067"><ele>360.6666666666667</ele><time>2026-03-22T08:21:41.994Z</time></trkpt><trkpt lat="44.3933133" lon="11.092885"><ele>365.83333333333337</ele><time>2026-03-22T08:21:42.989Z</time></trkpt><trkpt lat="44.3933217" lon="11.092765"><ele>371.0</ele><time>2026-03-22T08:21:43.993Z</time></trkpt><trkpt lat="44.3933283" lon="11.092675"><ele>371.0</ele><time>2026-03-22T08:21:44.996Z</time></trkpt><trkpt lat="44.3933533" lon="11.0925833"><ele>371.0</ele><time>2026-03-22T08:21:46.002Z</time></trkpt><trkpt lat="44.3934033" lon="11.0924883"><ele>371.0</ele><time>2026-03-22T08:21:46.998Z</time></trkpt><trkpt lat="44.3934783" lon="11.0923967"><ele>371.0</ele><time>2026-03-22T08:21:47.992Z</time></trkpt><trkpt lat="44.3935667" lon="11.0923133"><ele>371.0</ele><time>2026-03-22T08:21:48.997Z</time></trkpt><trkpt lat="44.39365" lon="11.0922417"><ele>370.83333333333337</ele><time>2026-03-22T08:21:49.991Z</time></trkpt><trkpt lat="44.3937133" lon="11.092175"><ele>370.6666666666667</ele><time>2026-03-22T08:21:50.99Z</time></trkpt><trkpt lat="44.3937783" lon="11.0921133"><ele>370.5</ele><time>2026-03-22T08:21:51.993Z</time></trkpt><trkpt lat="44.3938467" lon="11.0920617"><ele>370.3333333333333</ele><time>2026-03-22T08:21:52.99Z</time></trkpt><trkpt lat="44.3939217" lon="11.0920283"><ele>370.16666666666663</ele><time>2026-03-22T08:21:53.998Z</time></trkpt><trkpt lat="44.393985" lon="11.091995"><ele>370.0</ele><time>2026-03-22T08:21:54.997Z</time></trkpt><trkpt lat="44.3940733" lon="11.091895"><ele>370.0</ele><time>2026-03-22T08:21:56.994Z</time></trkpt><trkpt lat="44.394125" lon="11.0917483"><ele>370.0</ele><time>2026-03-22T08:21:58.988Z</time></trkpt><trkpt lat="44.3941483" lon="11.0916067"><ele>370.0</ele><time>2026-03-22T08:22:00.996Z</time></trkpt><trkpt lat="44.39418" lon="11.0914617"><ele>370.0</ele><time>2026-03-22T08:22:02.994Z</time></trkpt><trkpt lat="44.3941883" lon="11.0912833"><ele>371.3333333333333</ele><time>2026-03-22T08:22:04.992Z</time></trkpt><trkpt lat="44.3941833" lon="11.0911917"><ele>372.66666666666663</ele><time>2026-03-22T08:22:05.996Z</time></trkpt><trkpt lat="44.39416" lon="11.0911017"><ele>374.0</ele><time>2026-03-22T08:22:06.994Z</time></trkpt><trkpt lat="44.3941167" lon="11.091"><ele>375.3333333333333</ele><time>2026-03-22T08:22:07.994Z</time></trkpt><trkpt lat="44.3940533" lon="11.0909067"><ele>376.6666666666667</ele><time>2026-03-22T08:22:09Z</time></trkpt><trkpt lat="44.393995" lon="11.09081"><ele>378.0</ele><time>2026-03-22T08:22:09.992Z</time></trkpt><trkpt lat="44.3939583" lon="11.0907117"><ele>378.59999999999997</ele><time>2026-03-22T08:22:10.992Z</time></trkpt><trkpt lat="44.3939283" lon="11.090605"><ele>379.2</ele><time>2026-03-22T08:22:11.993Z</time></trkpt><trkpt lat="44.393915" lon="11.0904883"><ele>379.8</ele><time>2026-03-22T08:22:12.997Z</time></trkpt><trkpt lat="44.3939033" lon="11.0903633"><ele>380.4</ele><time>2026-03-22T08:22:13.991Z</time></trkpt><trkpt lat="44.3938717" lon="11.090205"><ele>381.0</ele><time>2026-03-22T08:22:14.998Z</time></trkpt><trkpt lat="44.3938483" lon="11.09005"><ele>382.8</ele><time>2026-03-22T08:22:16.004Z</time></trkpt><trkpt lat="44.3938233" lon="11.089895"><ele>384.6</ele><time>2026-03-22T08:22:16.994Z</time></trkpt><trkpt lat="44.3938" lon="11.08974"><ele>386.4</ele><time>2026-03-22T08:22:17.99Z</time></trkpt><trkpt lat="44.3937783" lon="11.0895967"><ele>388.2</ele><time>2026-03-22T08:22:18.995Z</time></trkpt><trkpt lat="44.3937533" lon="11.0894733"><ele>390.0</ele><time>2026-03-22T08:22:19.996Z</time></trkpt><trkpt lat="44.3937283" lon="11.0893533"><ele>390.0</ele><time>2026-03-22T08:22:20.989Z</time></trkpt><trkpt lat="44.3936917" lon="11.08926"><ele>390.0</ele><time>2026-03-22T08:22:21.997Z</time></trkpt><trkpt lat="44.3935767" lon="11.0892383"><ele>390.0</ele><time>2026-03-22T08:22:23.996Z</time></trkpt><trkpt lat="44.3935067" lon="11.089315"><ele>390.0</ele><time>2026-03-22T08:22:24.996Z</time></trkpt><trkpt lat="44.3934317" lon="11.0894233"><ele>390.0</ele><time>2026-03-22T08:22:25.993Z</time></trkpt><trkpt lat="44.393355" lon="11.0895583"><ele>390.0</ele><time>2026-03-22T08:22:26.993Z</time></trkpt><trkpt lat="44.3932733" lon="11.08969"><ele>390.0</ele><time>2026-03-22T08:22:27.996Z</time></trkpt><trkpt lat="44.39319" lon="11.0898283"><ele>390.0</ele><time>2026-03-22T08:22:28.991Z</time></trkpt><trkpt lat="44.3931067" lon="11.08997"><ele>390.0</ele><time>2026-03-22T08:22:29.998Z</time></trkpt><trkpt lat="44.3930283" lon="11.090115"><ele>391.4</ele><time>2026-03-22T08:22:30.994Z</time></trkpt><trkpt lat="44.39296" lon="11.0902617"><ele>392.8</ele><time>2026-03-22T08:22:31.993Z</time></trkpt><trkpt lat="44.392895" lon="11.090395"><ele>394.20000000000005</ele><time>2026-03-22T08:22:32.996Z</time></trkpt><trkpt lat="44.3928367" lon="11.0905217"><ele>395.6</ele><time>2026-03-22T08:22:33.996Z</time></trkpt><trkpt lat="44.39278" lon="11.0906233"><ele>397.0</ele><time>2026-03-22T08:22:34.996Z</time></trkpt><trkpt lat="44.3927167" lon="11.0907067"><ele>400.25</ele><time>2026-03-22T08:22:35.99Z</time></trkpt><trkpt lat="44.3926283" lon="11.0907767"><ele>403.5</ele><time>2026-03-22T08:22:36.989Z</time></trkpt><trkpt lat="44.39251" lon="11.0908417"><ele>406.75</ele><time>2026-03-22T08:22:38Z</time></trkpt><trkpt lat="44.392395" lon="11.09091"><ele>410.0</ele><time>2026-03-22T08:22:38.992Z</time></trkpt><trkpt lat="44.3922833" lon="11.0909783"><ele>410.0</ele><time>2026-03-22T08:22:39.997Z</time></trkpt><trkpt lat="44.3921783" lon="11.0910467"><ele>410.0</ele><time>2026-03-22T08:22:40.989Z</time></trkpt><trkpt lat="44.3920817" lon="11.0911083"><ele>410.0</ele><time>2026-03-22T08:22:41.991Z</time></trkpt><trkpt lat="44.39198" lon="11.09115"><ele>410.0</ele><time>2026-03-22T08:22:42.999Z</time></trkpt><trkpt lat="44.3918783" lon="11.091165"><ele>410.0</ele><time>2026-03-22T08:22:43.998Z</time></trkpt><trkpt lat="44.3917833" lon="11.09114"><ele>410.8</ele><time>2026-03-22T08:22:44.994Z</time></trkpt><trkpt lat="44.3916867" lon="11.0910967"><ele>411.6</ele><time>2026-03-22T08:22:45.989Z</time></trkpt><trkpt lat="44.3916017" lon="11.0910217"><ele>412.4</ele><time>2026-03-22T08:22:46.995Z</time></trkpt><trkpt lat="44.3915383" lon="11.0909333"><ele>413.2</ele><time>2026-03-22T08:22:47.997Z</time></trkpt><trkpt lat="44.3914683" lon="11.09087"><ele>414.0</ele><time>2026-03-22T08:22:48.995Z</time></trkpt><trkpt lat="44.391385" lon="11.0908367"><ele>414.6666666666667</ele><time>2026-03-22T08:22:49.993Z</time></trkpt><trkpt lat="44.3912983" lon="11.0908383"><ele>415.33333333333337</ele><time>2026-03-22T08:22:50.994Z</time></trkpt><trkpt lat="44.391215" lon="11.0908717"><ele>416.0</ele><time>2026-03-22T08:22:51.997Z</time></trkpt><trkpt lat="44.3911567" lon="11.0909333"><ele>416.6666666666667</ele><time>2026-03-22T08:22:52.99Z</time></trkpt><trkpt lat="44.3911183" lon="11.09105"><ele>417.33333333333337</ele><time>2026-03-22T08:22:53.991Z</time></trkpt><trkpt lat="44.3910867" lon="11.09116"><ele>418.0</ele><time>2026-03-22T08:22:54.993Z</time></trkpt><trkpt lat="44.39105" lon="11.0912617"><ele>418.0</ele><time>2026-03-22T08:22:56.004Z</time></trkpt><trkpt lat="44.3909967" lon="11.0913317"><ele>418.0</ele><time>2026-03-22T08:22:56.995Z</time></trkpt><trkpt lat="44.3909133" lon="11.0913783"><ele>418.0</ele><time>2026-03-22T08:22:58.003Z</time></trkpt><trkpt lat="44.390815" lon="11.0914017"><ele>418.0</ele><time>2026-03-22T08:22:58.992Z</time></trkpt><trkpt lat="44.3907133" lon="11.0914417"><ele>418.0</ele><time>2026-03-22T08:22:59.989Z</time></trkpt><trkpt lat="44.3906067" lon="11.0914983"><ele>419.0</ele><time>2026-03-22T08:23:00.996Z</time></trkpt><trkpt lat="44.3904933" lon="11.0915683"><ele>420.0</ele><time>2026-03-22T08:23:01.994Z</time></trkpt><trkpt lat="44.3903833" lon="11.091655"><ele>421.0</ele><time>2026-03-22T08:23:02.994Z</time></trkpt><trkpt lat="44.390275" lon="11.0917633"><ele>422.0</ele><time>2026-03-22T08:23:03.989Z</time></trkpt><trkpt lat="44.3901633" lon="11.0918867"><ele>422.0</ele><time>2026-03-22T08:23:04.997Z</time></trkpt><trkpt lat="44.3900467" lon="11.09202"><ele>422.0</ele><time>2026-03-22T08:23:05.99Z</time></trkpt><trkpt lat="44.3899167" lon="11.0921417"><ele>422.0</ele><time>2026-03-22T08:23:06.992Z</time></trkpt><trkpt lat="44.3897767" lon="11.0922517"><ele>422.0</ele><time>2026-03-22T08:23:07.997Z</time></trkpt><trkpt lat="44.3896217" lon="11.0923367"><ele>422.0</ele><time>2026-03-22T08:23:08.995Z</time></trkpt><trkpt lat="44.389465" lon="11.092415"><ele>422.0</ele><time>2026-03-22T08:23:09.997Z</time></trkpt><trkpt lat="44.3893133" lon="11.0924833"><ele>425.25</ele><time>2026-03-22T08:23:10.996Z</time></trkpt><trkpt lat="44.3891733" lon="11.09255"><ele>428.5</ele><time>2026-03-22T08:23:11.998Z</time></trkpt><trkpt lat="44.3890533" lon="11.0926233"><ele>431.75</ele><time>2026-03-22T08:23:12.989Z</time></trkpt><trkpt lat="44.3889483" lon="11.0926733"><ele>435.0</ele><time>2026-03-22T08:23:13.991Z</time></trkpt><trkpt lat="44.3888533" lon="11.0927133"><ele>434.6666666666667</ele><time>2026-03-22T08:23:14.997Z</time></trkpt><trkpt lat="44.3887733" lon="11.0927433"><ele>434.33333333333337</ele><time>2026-03-22T08:23:15.99Z</time></trkpt><trkpt lat="44.3886967" lon="11.0927867"><ele>434.0</ele><time>2026-03-22T08:23:16.991Z</time></trkpt><trkpt lat="44.3886233" lon="11.092835"><ele>433.6666666666667</ele><time>2026-03-22T08:23:17.999Z</time></trkpt><trkpt lat="44.3885633" lon="11.092915"><ele>433.33333333333337</ele><time>2026-03-22T08:23:18.991Z</time></trkpt><trkpt lat="44.3884983" lon="11.0930183"><ele>433.0</ele><time>2026-03-22T08:23:20.029Z</time></trkpt><trkpt lat="44.3884117" lon="11.09312"><ele>433.0</ele><time>2026-03-22T08:23:20.994Z</time></trkpt><trkpt lat="44.3883083" lon="11.0932133"><ele>433.0</ele><time>2026-03-22T08:23:21.994Z</time></trkpt><trkpt lat="44.3881967" lon="11.0933067"><ele>433.0</ele><time>2026-03-22T08:23:22.999Z</time></trkpt><trkpt lat="44.3880833" lon="11.0933917"><ele>433.0</ele><time>2026-03-22T08:23:23.991Z</time></trkpt><trkpt lat="44.3879783" lon="11.0934617"><ele>435.2</ele><time>2026-03-22T08:23:24.992Z</time></trkpt><trkpt lat="44.3878817" lon="11.0935217"><ele>437.4</ele><time>2026-03-22T08:23:25.994Z</time></trkpt><trkpt lat="44.387795" lon="11.09358"><ele>439.59999999999997</ele><time>2026-03-22T08:23:26.995Z</time></trkpt><trkpt lat="44.3877267" lon="11.0936533"><ele>441.79999999999995</ele><time>2026-03-22T08:23:27.996Z</time></trkpt><trkpt lat="44.3876617" lon="11.0937417"><ele>444.0</ele><time>2026-03-22T08:23:28.995Z</time></trkpt><trkpt lat="44.3876083" lon="11.0938417"><ele>444.0</ele><time>2026-03-22T08:23:29.997Z</time></trkpt><trkpt lat="44.3875517" lon="11.0939567"><ele>444.0</ele><time>2026-03-22T08:23:30.994Z</time></trkpt><trkpt lat="44.3874967" lon="11.0940767"><ele>444.0</ele><time>2026-03-22T08:23:31.991Z</time></trkpt><trkpt lat="44.38745" lon="11.0942033"><ele>444.0</ele><time>2026-03-22T08:23:33Z</time></trkpt><trkpt lat="44.38741" lon="11.09433"><ele>444.0</ele><time>2026-03-22T08:23:33.997Z</time></trkpt><trkpt lat="44.387375" lon="11.0944583"><ele>447.0</ele><time>2026-03-22T08:23:34.987Z</time></trkpt><trkpt lat="44.3873417" lon="11.094575"><ele>450.0</ele><time>2026-03-22T08:23:35.991Z</time></trkpt><trkpt lat="44.3873" lon="11.09468"><ele>453.0</ele><time>2026-03-22T08:23:36.999Z</time></trkpt><trkpt lat="44.3872417" lon="11.0947683"><ele>456.0</ele><time>2026-03-22T08:23:37.993Z</time></trkpt><trkpt lat="44.3871717" lon="11.0948467"><ele>459.0</ele><time>2026-03-22T08:23:38.999Z</time></trkpt><trkpt lat="44.3870933" lon="11.0949267"><ele>462.0</ele><time>2026-03-22T08:23:39.992Z</time></trkpt><trkpt lat="44.38701" lon="11.0950017"><ele>466.75</ele><time>2026-03-22T08:23:40.996Z</time></trkpt><trkpt lat="44.3869217" lon="11.0950867"><ele>471.5</ele><time>2026-03-22T08:23:41.989Z</time></trkpt><trkpt lat="44.3868233" lon="11.0951767"><ele>476.25</ele><time>2026-03-22T08:23:42.996Z</time></trkpt><trkpt lat="44.3867267" lon="11.0952667"><ele>481.0</ele><time>2026-03-22T08:23:43.995Z</time></trkpt><trkpt lat="44.3866267" lon="11.095335"><ele>481.0</ele><time>2026-03-22T08:23:44.994Z</time></trkpt><trkpt lat="44.3865317" lon="11.0953717"><ele>481.0</ele><time>2026-03-22T08:23:45.994Z</time></trkpt><trkpt lat="44.3864283" lon="11.09538"><ele>481.0</ele><time>2026-03-22T08:23:46.994Z</time></trkpt><trkpt lat="44.3863333" lon="11.0953717"><ele>481.0</ele><time>2026-03-22T08:23:47.989Z</time></trkpt><trkpt lat="44.3862333" lon="11.0953483"><ele>481.0</ele><time>2026-03-22T08:23:48.997Z</time></trkpt><trkpt lat="44.386145" lon="11.0953117"><ele>483.83333333333337</ele><time>2026-03-22T08:23:49.991Z</time></trkpt><trkpt lat="44.3860717" lon="11.095265"><ele>486.6666666666667</ele><time>2026-03-22T08:23:50.995Z</time></trkpt><trkpt lat="44.386015" lon="11.095215"><ele>489.5</ele><time>2026-03-22T08:23:51.989Z</time></trkpt><trkpt lat="44.3859517" lon="11.0951233"><ele>492.33333333333337</ele><time>2026-03-22T08:23:53.993Z</time></trkpt><trkpt lat="44.3859" lon="11.09507"><ele>495.1666666666667</ele><time>2026-03-22T08:23:56.996Z</time></trkpt><trkpt lat="44.3858833" lon="11.0951917"><ele>498.0</ele><time>2026-03-22T08:24:00.996Z</time></trkpt><trkpt lat="44.385915" lon="11.0952833"><ele>498.0</ele><time>2026-03-22T08:24:01.995Z</time></trkpt><trkpt lat="44.38593" lon="11.0953883"><ele>498.0</ele><time>2026-03-22T08:24:02.992Z</time></trkpt><trkpt lat="44.385925" lon="11.0954917"><ele>498.0</ele><time>2026-03-22T08:24:03.989Z</time></trkpt><trkpt lat="44.385895" lon="11.0955783"><ele>498.0</ele><time>2026-03-22T08:24:04.997Z</time></trkpt><trkpt lat="44.385845" lon="11.0956433"><ele>498.0</ele><time>2026-03-22T08:24:05.994Z</time></trkpt><trkpt lat="44.38577" lon="11.0956767"><ele>498.0</ele><time>2026-03-22T08:24:06.995Z</time></trkpt><trkpt lat="44.3856883" lon="11.09571"><ele>499.59999999999997</ele><time>2026-03-22T08:24:07.992Z</time></trkpt><trkpt lat="44.3856117" lon="11.0957617"><ele>501.19999999999993</ele><time>2026-03-22T08:24:08.996Z</time></trkpt><trkpt lat="44.385545" lon="11.0958517"><ele>502.8</ele><time>2026-03-22T08:24:09.988Z</time></trkpt><trkpt lat="44.3854817" lon="11.095945"><ele>504.4</ele><time>2026-03-22T08:24:10.988Z</time></trkpt><trkpt lat="44.3854283" lon="11.0960533"><ele>506.0</ele><time>2026-03-22T08:24:11.989Z</time></trkpt><trkpt lat="44.3853683" lon="11.0961583"><ele>507.4</ele><time>2026-03-22T08:24:12.989Z</time></trkpt><trkpt lat="44.38531" lon="11.09627"><ele>508.8</ele><time>2026-03-22T08:24:13.994Z</time></trkpt><trkpt lat="44.3852483" lon="11.0963833"><ele>510.19999999999993</ele><time>2026-03-22T08:24:14.994Z</time></trkpt><trkpt lat="44.3851867" lon="11.0965"><ele>511.59999999999997</ele><time>2026-03-22T08:24:15.993Z</time></trkpt><trkpt lat="44.38512" lon="11.0966183"><ele>513.0</ele><time>2026-03-22T08:24:16.996Z</time></trkpt><trkpt lat="44.385055" lon="11.0967317"><ele>515.1666666666666</ele><time>2026-03-22T08:24:17.989Z</time></trkpt><trkpt lat="44.384995" lon="11.0968333"><ele>517.3333333333334</ele><time>2026-03-22T08:24:18.998Z</time></trkpt><trkpt lat="44.384935" lon="11.096925"><ele>519.5</ele><time>2026-03-22T08:24:19.99Z</time></trkpt><trkpt lat="44.3848883" lon="11.0970133"><ele>521.6666666666667</ele><time>2026-03-22T08:24:20.993Z</time></trkpt><trkpt lat="44.3848467" lon="11.0970833"><ele>523.8333333333334</ele><time>2026-03-22T08:24:21.987Z</time></trkpt><trkpt lat="44.3847583" lon="11.0971583"><ele>526.0</ele><time>2026-03-22T08:24:23.998Z</time></trkpt><trkpt lat="44.3846817" lon="11.0971633"><ele>525.6</ele><time>2026-03-22T08:24:25.994Z</time></trkpt><trkpt lat="44.3846017" lon="11.097075"><ele>525.2</ele><time>2026-03-22T08:24:27.988Z</time></trkpt><trkpt lat="44.384505" lon="11.0970167"><ele>524.8</ele><time>2026-03-22T08:24:29.988Z</time></trkpt><trkpt lat="44.38439" lon="11.0970667"><ele>524.4</ele><time>2026-03-22T08:24:31.99Z</time></trkpt><trkpt lat="44.3843267" lon="11.097125"><ele>524.0</ele><time>2026-03-22T08:24:33Z</time></trkpt><trkpt lat="44.3842683" lon="11.0972017"><ele>524.0</ele><time>2026-03-22T08:24:33.989Z</time></trkpt><trkpt lat="44.384215" lon="11.097285"><ele>524.0</ele><time>2026-03-22T08:24:34.992Z</time></trkpt><trkpt lat="44.384155" lon="11.0973767"><ele>524.0</ele><time>2026-03-22T08:24:36.001Z</time></trkpt><trkpt lat="44.3840983" lon="11.0974583"><ele>524.0</ele><time>2026-03-22T08:24:36.993Z</time></trkpt><trkpt lat="44.38404" lon="11.0975283"><ele>524.0</ele><time>2026-03-22T08:24:37.994Z</time></trkpt><trkpt lat="44.3839783" lon="11.0975933"><ele>524.0</ele><time>2026-03-22T08:24:38.995Z</time></trkpt><trkpt lat="44.38392" lon="11.0976567"><ele>525.1666666666666</ele><time>2026-03-22T08:24:39.99Z</time></trkpt><trkpt lat="44.3838667" lon="11.0977283"><ele>526.3333333333333</ele><time>2026-03-22T08:24:40.995Z</time></trkpt><trkpt lat="44.38382" lon="11.097805"><ele>527.5</ele><time>2026-03-22T08:24:41.989Z</time></trkpt><trkpt lat="44.38378" lon="11.09788"><ele>528.6666666666666</ele><time>2026-03-22T08:24:42.988Z</time></trkpt><trkpt lat="44.3837017" lon="11.09802"><ele>529.8333333333334</ele><time>2026-03-22T08:24:44.995Z</time></trkpt><trkpt lat="44.38366" lon="11.0980933"><ele>531.0</ele><time>2026-03-22T08:24:45.992Z</time></trkpt><trkpt lat="44.3836067" lon="11.09817"><ele>531.0</ele><time>2026-03-22T08:24:46.995Z</time></trkpt><trkpt lat="44.38355" lon="11.0982317"><ele>531.0</ele><time>2026-03-22T08:24:47.99Z</time></trkpt><trkpt lat="44.3834867" lon="11.09828"><ele>531.0</ele><time>2026-03-22T08:24:48.994Z</time></trkpt><trkpt lat="44.3834117" lon="11.0982967"><ele>531.0</ele><time>2026-03-22T08:24:49.991Z</time></trkpt><trkpt lat="44.383325" lon="11.098285"><ele>531.0</ele><time>2026-03-22T08:24:50.996Z</time></trkpt><trkpt lat="44.38323" lon="11.098255"><ele>531.0</ele><time>2026-03-22T08:24:51.994Z</time></trkpt><trkpt lat="44.38313" lon="11.0982033"><ele>531.0</ele><time>2026-03-22T08:24:52.993Z</time></trkpt><trkpt lat="44.3830317" lon="11.098135"><ele>531.0</ele><time>2026-03-22T08:24:53.991Z</time></trkpt><trkpt lat="44.382935" lon="11.0980433"><ele>531.0</ele><time>2026-03-22T08:24:54.991Z</time></trkpt><trkpt lat="44.382845" lon="11.0979367"><ele>531.0</ele><time>2026-03-22T08:24:55.992Z</time></trkpt><trkpt lat="44.3827567" lon="11.09783"><ele>531.5</ele><time>2026-03-22T08:24:56.995Z</time></trkpt><trkpt lat="44.38266" lon="11.0977367"><ele>532.0</ele><time>2026-03-22T08:24:57.989Z</time></trkpt><trkpt lat="44.38256" lon="11.097655"><ele>532.5</ele><time>2026-03-22T08:24:58.988Z</time></trkpt><trkpt lat="44.3824533" lon="11.0975883"><ele>533.0</ele><time>2026-03-22T08:24:59.991Z</time></trkpt><trkpt lat="44.3823467" lon="11.0975167"><ele>533.0</ele><time>2026-03-22T08:25:01.003Z</time></trkpt><trkpt lat="44.3822433" lon="11.09745"><ele>533.0</ele><time>2026-03-22T08:25:01.993Z</time></trkpt><trkpt lat="44.3821467" lon="11.0973733"><ele>533.0</ele><time>2026-03-22T08:25:02.99Z</time></trkpt><trkpt lat="44.3820517" lon="11.0972833"><ele>533.0</ele><time>2026-03-22T08:25:03.994Z</time></trkpt><trkpt lat="44.381955" lon="11.0971967"><ele>532.0</ele><time>2026-03-22T08:25:04.988Z</time></trkpt><trkpt lat="44.38186" lon="11.0971167"><ele>531.0</ele><time>2026-03-22T08:25:05.996Z</time></trkpt><trkpt lat="44.381765" lon="11.0970383"><ele>530.0</ele><time>2026-03-22T08:25:06.991Z</time></trkpt><trkpt lat="44.381675" lon="11.096955"><ele>529.0</ele><time>2026-03-22T08:25:07.993Z</time></trkpt><trkpt lat="44.381595" lon="11.0968733"><ele>528.0</ele><time>2026-03-22T08:25:08.988Z</time></trkpt><trkpt lat="44.3815233" lon="11.09678"><ele>528.0</ele><time>2026-03-22T08:25:09.99Z</time></trkpt><trkpt lat="44.38147" lon="11.0966617"><ele>528.0</ele><time>2026-03-22T08:25:10.993Z</time></trkpt><trkpt lat="44.3814217" lon="11.0965117"><ele>528.0</ele><time>2026-03-22T08:25:11.99Z</time></trkpt><trkpt lat="44.381375" lon="11.0963533"><ele>528.0</ele><time>2026-03-22T08:25:12.99Z</time></trkpt><trkpt lat="44.38133" lon="11.0961883"><ele>526.5</ele><time>2026-03-22T08:25:13.987Z</time></trkpt><trkpt lat="44.38129" lon="11.0960233"><ele>525.0</ele><time>2026-03-22T08:25:14.988Z</time></trkpt><trkpt lat="44.3812517" lon="11.0958567"><ele>523.5</ele><time>2026-03-22T08:25:15.991Z</time></trkpt><trkpt lat="44.3812083" lon="11.0956817"><ele>522.0</ele><time>2026-03-22T08:25:16.995Z</time></trkpt><trkpt lat="44.38115" lon="11.0955117"><ele>522.0</ele><time>2026-03-22T08:25:17.989Z</time></trkpt><trkpt lat="44.3810883" lon="11.0953483"><ele>522.0</ele><time>2026-03-22T08:25:18.995Z</time></trkpt><trkpt lat="44.3810183" lon="11.0951917"><ele>522.0</ele><time>2026-03-22T08:25:19.993Z</time></trkpt><trkpt lat="44.380945" lon="11.0950367"><ele>522.0</ele><time>2026-03-22T08:25:20.989Z</time></trkpt><trkpt lat="44.38087" lon="11.0948833"><ele>518.75</ele><time>2026-03-22T08:25:21.996Z</time></trkpt><trkpt lat="44.3807933" lon="11.0947417"><ele>515.5</ele><time>2026-03-22T08:25:22.989Z</time></trkpt><trkpt lat="44.3807217" lon="11.0946017"><ele>512.25</ele><time>2026-03-22T08:25:23.989Z</time></trkpt><trkpt lat="44.38066" lon="11.0944517"><ele>509.0</ele><time>2026-03-22T08:25:24.996Z</time></trkpt><trkpt lat="44.38062" lon="11.09429"><ele>509.0</ele><time>2026-03-22T08:25:25.989Z</time></trkpt><trkpt lat="44.3806017" lon="11.094115"><ele>509.0</ele><time>2026-03-22T08:25:26.997Z</time></trkpt><trkpt lat="44.38059" lon="11.09396"><ele>509.0</ele><time>2026-03-22T08:25:27.989Z</time></trkpt><trkpt lat="44.380575" lon="11.09383"><ele>509.0</ele><time>2026-03-22T08:25:28.995Z</time></trkpt><trkpt lat="44.3805417" lon="11.0937217"><ele>509.0</ele><time>2026-03-22T08:25:29.99Z</time></trkpt><trkpt lat="44.3804983" lon="11.09363"><ele>509.2</ele><time>2026-03-22T08:25:30.992Z</time></trkpt><trkpt lat="44.3804017" lon="11.0935767"><ele>509.4</ele><time>2026-03-22T08:25:32.003Z</time></trkpt><trkpt lat="44.3803" lon="11.0935483"><ele>509.6</ele><time>2026-03-22T08:25:32.992Z</time></trkpt><trkpt lat="44.3802083" lon="11.0935333"><ele>509.8</ele><time>2026-03-22T08:25:33.997Z</time></trkpt><trkpt lat="44.3801217" lon="11.093545"><ele>510.0</ele><time>2026-03-22T08:25:34.989Z</time></trkpt><trkpt lat="44.3800317" lon="11.0935867"><ele>510.0</ele><time>2026-03-22T08:25:35.993Z</time></trkpt><trkpt lat="44.3799433" lon="11.0936517"><ele>510.0</ele><time>2026-03-22T08:25:36.991Z</time></trkpt><trkpt lat="44.3798583" lon="11.0937167"><ele>510.0</ele><time>2026-03-22T08:25:37.99Z</time></trkpt><trkpt lat="44.3797817" lon="11.0937567"><ele>510.0</ele><time>2026-03-22T08:25:38.995Z</time></trkpt><trkpt lat="44.3797" lon="11.0937667"><ele>510.0</ele><time>2026-03-22T08:25:39.997Z</time></trkpt><trkpt lat="44.3796133" lon="11.093755"><ele>510.0</ele><time>2026-03-22T08:25:40.995Z</time></trkpt><trkpt lat="44.379535" lon="11.0937333"><ele>513.5</ele><time>2026-03-22T08:25:41.999Z</time></trkpt><trkpt lat="44.3794617" lon="11.0937"><ele>517.0</ele><time>2026-03-22T08:25:42.992Z</time></trkpt><trkpt lat="44.379405" lon="11.0936567"><ele>520.5</ele><time>2026-03-22T08:25:43.996Z</time></trkpt><trkpt lat="44.3793483" lon="11.0936033"><ele>524.0</ele><time>2026-03-22T08:25:44.992Z</time></trkpt><trkpt lat="44.3793033" lon="11.0935217"><ele>527.5</ele><time>2026-03-22T08:25:45.991Z</time></trkpt><trkpt lat="44.3792617" lon="11.0934083"><ele>531.0</ele><time>2026-03-22T08:25:46.992Z</time></trkpt><trkpt lat="44.37921" lon="11.0933033"><ele>530.2</ele><time>2026-03-22T08:25:47.99Z</time></trkpt><trkpt lat="44.3791433" lon="11.0932"><ele>529.4000000000001</ele><time>2026-03-22T08:25:48.989Z</time></trkpt><trkpt lat="44.3790717" lon="11.0930967"><ele>528.6</ele><time>2026-03-22T08:25:49.99Z</time></trkpt><trkpt lat="44.378985" lon="11.0930133"><ele>527.8000000000001</ele><time>2026-03-22T08:25:50.996Z</time></trkpt><trkpt lat="44.3788967" lon="11.09293"><ele>527.0</ele><time>2026-03-22T08:25:51.995Z</time></trkpt><trkpt lat="44.3788083" lon="11.09285"><ele>527.0</ele><time>2026-03-22T08:25:52.994Z</time></trkpt><trkpt lat="44.3787167" lon="11.092765"><ele>527.0</ele><time>2026-03-22T08:25:53.995Z</time></trkpt><trkpt lat="44.3786317" lon="11.09268"><ele>527.0</ele><time>2026-03-22T08:25:54.989Z</time></trkpt><trkpt lat="44.3785583" lon="11.0925933"><ele>527.0</ele><time>2026-03-22T08:25:55.994Z</time></trkpt><trkpt lat="44.378495" lon="11.0925167"><ele>527.0</ele><time>2026-03-22T08:25:56.996Z</time></trkpt><trkpt lat="44.3784417" lon="11.09245"><ele>527.0</ele><time>2026-03-22T08:25:57.991Z</time></trkpt><trkpt lat="44.3783383" lon="11.09239"><ele>527.0</ele><time>2026-03-22T08:25:59.992Z</time></trkpt><trkpt lat="44.3782267" lon="11.09243"><ele>527.0</ele><time>2026-03-22T08:26:01.997Z</time></trkpt><trkpt lat="44.378175" lon="11.09252"><ele>527.0</ele><time>2026-03-22T08:26:03Z</time></trkpt><trkpt lat="44.378125" lon="11.092625"><ele>527.0</ele><time>2026-03-22T08:26:03.993Z</time></trkpt><trkpt lat="44.3780733" lon="11.0927267"><ele>526.0</ele><time>2026-03-22T08:26:04.999Z</time></trkpt><trkpt lat="44.3780083" lon="11.092815"><ele>525.0</ele><time>2026-03-22T08:26:05.993Z</time></trkpt><trkpt lat="44.37794" lon="11.09289"><ele>524.0</ele><time>2026-03-22T08:26:06.998Z</time></trkpt><trkpt lat="44.3778717" lon="11.092955"><ele>523.0</ele><time>2026-03-22T08:26:07.99Z</time></trkpt><trkpt lat="44.3777967" lon="11.0929967"><ele>522.0</ele><time>2026-03-22T08:26:08.993Z</time></trkpt><trkpt lat="44.3777117" lon="11.0930117"><ele>521.0</ele><time>2026-03-22T08:26:09.988Z</time></trkpt><trkpt lat="44.3776267" lon="11.0930017"><ele>521.0</ele><time>2026-03-22T08:26:10.993Z</time></trkpt><trkpt lat="44.3775383" lon="11.0929683"><ele>521.0</ele><time>2026-03-22T08:26:12.007Z</time></trkpt><trkpt lat="44.3774533" lon="11.0929083"><ele>521.0</ele><time>2026-03-22T08:26:12.993Z</time></trkpt><trkpt lat="44.377365" lon="11.0928433"><ele>521.0</ele><time>2026-03-22T08:26:13.995Z</time></trkpt><trkpt lat="44.3772733" lon="11.0927767"><ele>521.0</ele><time>2026-03-22T08:26:14.993Z</time></trkpt><trkpt lat="44.377175" lon="11.0927183"><ele>521.0</ele><time>2026-03-22T08:26:15.994Z</time></trkpt><trkpt lat="44.3770817" lon="11.09267"><ele>521.0</ele><time>2026-03-22T08:26:16.994Z</time></trkpt><trkpt lat="44.3769883" lon="11.092635"><ele>521.0</ele><time>2026-03-22T08:26:17.992Z</time></trkpt><trkpt lat="44.3769083" lon="11.0925867"><ele>521.0</ele><time>2026-03-22T08:26:18.995Z</time></trkpt><trkpt lat="44.37683" lon="11.0925433"><ele>521.0</ele><time>2026-03-22T08:26:19.992Z</time></trkpt><trkpt lat="44.37677" lon="11.092485"><ele>521.0</ele><time>2026-03-22T08:26:20.996Z</time></trkpt><trkpt lat="44.37673" lon="11.0924117"><ele>521.0</ele><time>2026-03-22T08:26:21.993Z</time></trkpt><trkpt lat="44.3766983" lon="11.09232"><ele>521.0</ele><time>2026-03-22T08:26:22.988Z</time></trkpt><trkpt lat="44.37668" lon="11.0922133"><ele>521.0</ele><time>2026-03-22T08:26:23.999Z</time></trkpt><trkpt lat="44.3766767" lon="11.0921017"><ele>521.0</ele><time>2026-03-22T08:26:24.993Z</time></trkpt><trkpt lat="44.3766783" lon="11.0919833"><ele>521.0</ele><time>2026-03-22T08:26:25.996Z</time></trkpt><trkpt lat="44.37668" lon="11.091865"><ele>521.0</ele><time>2026-03-22T08:26:26.997Z</time></trkpt><trkpt lat="44.3766617" lon="11.0917383"><ele>521.0</ele><time>2026-03-22T08:26:27.992Z</time></trkpt><trkpt lat="44.3766333" lon="11.0915967"><ele>521.0</ele><time>2026-03-22T08:26:28.99Z</time></trkpt><trkpt lat="44.3765867" lon="11.0914583"><ele>521.0</ele><time>2026-03-22T08:26:29.992Z</time></trkpt><trkpt lat="44.3765467" lon="11.0913167"><ele>521.0</ele><time>2026-03-22T08:26:30.993Z</time></trkpt><trkpt lat="44.3765117" lon="11.09117"><ele>521.0</ele><time>2026-03-22T08:26:31.994Z</time></trkpt><trkpt lat="44.3764833" lon="11.0910233"><ele>521.0</ele><time>2026-03-22T08:26:33.001Z</time></trkpt><trkpt lat="44.3764633" lon="11.09088"><ele>521.0</ele><time>2026-03-22T08:26:33.996Z</time></trkpt><trkpt lat="44.3764633" lon="11.09073"><ele>521.0</ele><time>2026-03-22T08:26:34.995Z</time></trkpt><trkpt lat="44.37647" lon="11.0905817"><ele>521.0</ele><time>2026-03-22T08:26:35.996Z</time></trkpt><trkpt lat="44.3764783" lon="11.090435"><ele>521.0</ele><time>2026-03-22T08:26:36.999Z</time></trkpt><trkpt lat="44.3764833" lon="11.0903"><ele>521.0</ele><time>2026-03-22T08:26:38Z</time></trkpt><trkpt lat="44.3764933" lon="11.0901717"><ele>521.0</ele><time>2026-03-22T08:26:38.989Z</time></trkpt><trkpt lat="44.376485" lon="11.09005"><ele>521.0</ele><time>2026-03-22T08:26:39.995Z</time></trkpt><trkpt lat="44.376475" lon="11.089945"><ele>521.0</ele><time>2026-03-22T08:26:40.994Z</time></trkpt><trkpt lat="44.376445" lon="11.0898483"><ele>521.0</ele><time>2026-03-22T08:26:41.997Z</time></trkpt><trkpt lat="44.3763833" lon="11.089765"><ele>521.0</ele><time>2026-03-22T08:26:43.004Z</time></trkpt><trkpt lat="44.3763133" lon="11.089675"><ele>523.3333333333333</ele><time>2026-03-22T08:26:43.99Z</time></trkpt><trkpt lat="44.3762333" lon="11.0896067"><ele>525.6666666666666</ele><time>2026-03-22T08:26:44.998Z</time></trkpt><trkpt lat="44.3761617" lon="11.089535"><ele>528.0</ele><time>2026-03-22T08:26:46Z</time></trkpt><trkpt lat="44.3761033" lon="11.08947"><ele>530.3333333333334</ele><time>2026-03-22T08:26:46.995Z</time></trkpt><trkpt lat="44.3760317" lon="11.0894167"><ele>532.6666666666667</ele><time>2026-03-22T08:26:47.999Z</time></trkpt><trkpt lat="44.3759683" lon="11.08937"><ele>535.0</ele><time>2026-03-22T08:26:48.991Z</time></trkpt><trkpt lat="44.3759033" lon="11.0893383"><ele>535.0</ele><time>2026-03-22T08:26:49.993Z</time></trkpt><trkpt lat="44.3758" lon="11.0892817"><ele>535.0</ele><time>2026-03-22T08:26:51.999Z</time></trkpt><trkpt lat="44.3757283" lon="11.08924"><ele>535.0</ele><time>2026-03-22T08:26:53.998Z</time></trkpt><trkpt lat="44.37565" lon="11.0892483"><ele>535.0</ele><time>2026-03-22T08:26:55.992Z</time></trkpt><trkpt lat="44.3755767" lon="11.08929"><ele>535.0</ele><time>2026-03-22T08:26:57.993Z</time></trkpt><trkpt lat="44.3755083" lon="11.0892733"><ele>535.0</ele><time>2026-03-22T08:26:59.998Z</time></trkpt><trkpt lat="44.3754583" lon="11.0891917"><ele>536.6666666666667</ele><time>2026-03-22T08:27:01.994Z</time></trkpt><trkpt lat="44.3754267" lon="11.089085"><ele>538.3333333333334</ele><time>2026-03-22T08:27:03.993Z</time></trkpt><trkpt lat="44.37537" lon="11.0890367"><ele>540.0</ele><time>2026-03-22T08:27:05.995Z</time></trkpt><trkpt lat="44.3752967" lon="11.0890133"><ele>541.6666666666666</ele><time>2026-03-22T08:27:07.999Z</time></trkpt><trkpt lat="44.3752083" lon="11.0889333"><ele>543.3333333333333</ele><time>2026-03-22T08:27:09.991Z</time></trkpt><trkpt lat="44.37515" lon="11.08888"><ele>545.0</ele><time>2026-03-22T08:27:10.998Z</time></trkpt><trkpt lat="44.37508" lon="11.0888317"><ele>545.0</ele><time>2026-03-22T08:27:11.994Z</time></trkpt><trkpt lat="44.3750033" lon="11.0887883"><ele>545.0</ele><time>2026-03-22T08:27:12.99Z</time></trkpt><trkpt lat="44.3749217" lon="11.0887383"><ele>545.0</ele><time>2026-03-22T08:27:13.993Z</time></trkpt><trkpt lat="44.3748417" lon="11.0886783"><ele>545.0</ele><time>2026-03-22T08:27:14.999Z</time></trkpt><trkpt lat="44.374766" lon="11.0886112"><ele>545.0</ele><time>2026-03-22T08:27:15.991Z</time></trkpt><trkpt lat="44.3746978" lon="11.0885342"><ele>545.0</ele><time>2026-03-22T08:27:16.999Z</time></trkpt><trkpt lat="44.3746425" lon="11.0884478"><ele>549.1666666666666</ele><time>2026-03-22T08:27:17.991Z</time></trkpt><trkpt lat="44.3745842" lon="11.088359"><ele>553.3333333333333</ele><time>2026-03-22T08:27:18.993Z</time></trkpt><trkpt lat="44.3745224" lon="11.0882846"><ele>557.5</ele><time>2026-03-22T08:27:19.993Z</time></trkpt><trkpt lat="44.3744608" lon="11.0882266"><ele>561.6666666666666</ele><time>2026-03-22T08:27:21Z</time></trkpt><trkpt lat="44.3744111" lon="11.0881722"><ele>565.8333333333334</ele><time>2026-03-22T08:27:21.994Z</time></trkpt><trkpt lat="44.3743419" lon="11.0880477"><ele>570.0</ele><time>2026-03-22T08:27:23.989Z</time></trkpt><trkpt lat="44.3743047" lon="11.0878895"><ele>570.0</ele><time>2026-03-22T08:27:25.992Z</time></trkpt><trkpt lat="44.3742872" lon="11.0877982"><ele>570.0</ele><time>2026-03-22T08:27:26.991Z</time></trkpt><trkpt lat="44.3742709" lon="11.0877061"><ele>570.0</ele><time>2026-03-22T08:27:27.995Z</time></trkpt><trkpt lat="44.374256" lon="11.0876175"><ele>570.0</ele><time>2026-03-22T08:27:28.991Z</time></trkpt><trkpt lat="44.3742431" lon="11.0875266"><ele>570.0</ele><time>2026-03-22T08:27:29.994Z</time></trkpt><trkpt lat="44.3742263" lon="11.0874368"><ele>570.0</ele><time>2026-03-22T08:27:31Z</time></trkpt><trkpt lat="44.3742003" lon="11.0873514"><ele>570.0</ele><time>2026-03-22T08:27:31.995Z</time></trkpt><trkpt lat="44.3741638" lon="11.087269"><ele>569.5</ele><time>2026-03-22T08:27:32.997Z</time></trkpt><trkpt lat="44.3741153" lon="11.0871863"><ele>569.0</ele><time>2026-03-22T08:27:33.997Z</time></trkpt><trkpt lat="44.3740585" lon="11.0871002"><ele>568.5</ele><time>2026-03-22T08:27:34.999Z</time></trkpt><trkpt lat="44.3740027" lon="11.0870188"><ele>568.0</ele><time>2026-03-22T08:27:35.991Z</time></trkpt><trkpt lat="44.3739545" lon="11.0869348"><ele>567.5</ele><time>2026-03-22T08:27:36.992Z</time></trkpt><trkpt lat="44.3739162" lon="11.0868355"><ele>567.0</ele><time>2026-03-22T08:27:37.995Z</time></trkpt><trkpt lat="44.3738886" lon="11.0867356"><ele>567.0</ele><time>2026-03-22T08:27:38.995Z</time></trkpt><trkpt lat="44.3738712" lon="11.0866366"><ele>567.0</ele><time>2026-03-22T08:27:39.992Z</time></trkpt><trkpt lat="44.3738633" lon="11.08654"><ele>567.0</ele><time>2026-03-22T08:27:40.995Z</time></trkpt><trkpt lat="44.3738632" lon="11.0864455"><ele>567.0</ele><time>2026-03-22T08:27:41.995Z</time></trkpt><trkpt lat="44.3738594" lon="11.0863421"><ele>567.0</ele><time>2026-03-22T08:27:42.989Z</time></trkpt><trkpt lat="44.3738475" lon="11.0862306"><ele>567.0</ele><time>2026-03-22T08:27:43.993Z</time></trkpt><trkpt lat="44.3738264" lon="11.0861163"><ele>567.0</ele><time>2026-03-22T08:27:44.999Z</time></trkpt><trkpt lat="44.3737907" lon="11.0860056"><ele>569.8333333333334</ele><time>2026-03-22T08:27:45.997Z</time></trkpt><trkpt lat="44.3737486" lon="11.0859002"><ele>572.6666666666666</ele><time>2026-03-22T08:27:46.992Z</time></trkpt><trkpt lat="44.3737096" lon="11.0858049"><ele>575.5</ele><time>2026-03-22T08:27:47.992Z</time></trkpt><trkpt lat="44.3736693" lon="11.0857187"><ele>578.3333333333333</ele><time>2026-03-22T08:27:49Z</time></trkpt><trkpt lat="44.3736312" lon="11.0856323"><ele>581.1666666666666</ele><time>2026-03-22T08:27:49.994Z</time></trkpt><trkpt lat="44.3735932" lon="11.0855443"><ele>584.0</ele><time>2026-03-22T08:27:50.993Z</time></trkpt><trkpt lat="44.3735575" lon="11.0854503"><ele>584.0</ele><time>2026-03-22T08:27:51.987Z</time></trkpt><trkpt lat="44.3735276" lon="11.0853463"><ele>584.0</ele><time>2026-03-22T08:27:52.992Z</time></trkpt><trkpt lat="44.3735027" lon="11.0852441"><ele>584.0</ele><time>2026-03-22T08:27:53.991Z</time></trkpt><trkpt lat="44.3734851" lon="11.0851437"><ele>584.0</ele><time>2026-03-22T08:27:54.994Z</time></trkpt><trkpt lat="44.3734858" lon="11.0850428"><ele>584.0</ele><time>2026-03-22T08:27:55.994Z</time></trkpt><trkpt lat="44.3735044" lon="11.0849545"><ele>584.0</ele><time>2026-03-22T08:27:56.995Z</time></trkpt><trkpt lat="44.3735484" lon="11.084837"><ele>584.0</ele><time>2026-03-22T08:27:58.993Z</time></trkpt><trkpt lat="44.3734859" lon="11.0849726"><ele>584.0</ele><time>2026-03-22T08:28:08.996Z</time></trkpt><trkpt lat="44.3733891" lon="11.0850058"><ele>584.0</ele><time>2026-03-22T08:28:09.994Z</time></trkpt><trkpt lat="44.3733252" lon="11.085093"><ele>584.0</ele><time>2026-03-22T08:28:10.988Z</time></trkpt><trkpt lat="44.3732714" lon="11.0851938"><ele>584.0</ele><time>2026-03-22T08:28:11.99Z</time></trkpt><trkpt lat="44.3732277" lon="11.0853007"><ele>584.0</ele><time>2026-03-22T08:28:12.992Z</time></trkpt><trkpt lat="44.3731887" lon="11.0854083"><ele>584.0</ele><time>2026-03-22T08:28:13.987Z</time></trkpt><trkpt lat="44.3731495" lon="11.0855177"><ele>584.0</ele><time>2026-03-22T08:28:14.99Z</time></trkpt><trkpt lat="44.3731136" lon="11.085622"><ele>584.0</ele><time>2026-03-22T08:28:15.989Z</time></trkpt><trkpt lat="44.373083" lon="11.0857207"><ele>584.0</ele><time>2026-03-22T08:28:16.99Z</time></trkpt><trkpt lat="44.3730614" lon="11.0858174"><ele>584.0</ele><time>2026-03-22T08:28:17.987Z</time></trkpt><trkpt lat="44.373045" lon="11.08592"><ele>584.8</ele><time>2026-03-22T08:28:18.999Z</time></trkpt><trkpt lat="44.373036" lon="11.0860305"><ele>585.5999999999999</ele><time>2026-03-22T08:28:20.007Z</time></trkpt><trkpt lat="44.3730312" lon="11.0861509"><ele>586.4</ele><time>2026-03-22T08:28:21Z</time></trkpt><trkpt lat="44.3730287" lon="11.086283"><ele>587.1999999999999</ele><time>2026-03-22T08:28:21.991Z</time></trkpt><trkpt lat="44.3730258" lon="11.086418"><ele>588.0</ele><time>2026-03-22T08:28:22.991Z</time></trkpt><trkpt lat="44.3730192" lon="11.0865579"><ele>586.1999999999999</ele><time>2026-03-22T08:28:23.99Z</time></trkpt><trkpt lat="44.37301" lon="11.0866983"><ele>584.4</ele><time>2026-03-22T08:28:24.992Z</time></trkpt><trkpt lat="44.3730033" lon="11.086835"><ele>582.5999999999999</ele><time>2026-03-22T08:28:25.993Z</time></trkpt><trkpt lat="44.3729967" lon="11.0869717"><ele>580.8</ele><time>2026-03-22T08:28:26.99Z</time></trkpt><trkpt lat="44.372995" lon="11.0871083"><ele>579.0</ele><time>2026-03-22T08:28:28.001Z</time></trkpt><trkpt lat="44.3729917" lon="11.0872483"><ele>579.0</ele><time>2026-03-22T08:28:28.99Z</time></trkpt><trkpt lat="44.3729833" lon="11.0873817"><ele>579.0</ele><time>2026-03-22T08:28:29.995Z</time></trkpt><trkpt lat="44.372965" lon="11.0875083"><ele>579.0</ele><time>2026-03-22T08:28:31Z</time></trkpt><trkpt lat="44.37293" lon="11.08763"><ele>579.0</ele><time>2026-03-22T08:28:31.996Z</time></trkpt><trkpt lat="44.3728867" lon="11.0877517"><ele>579.0</ele><time>2026-03-22T08:28:32.987Z</time></trkpt><trkpt lat="44.3728367" lon="11.0878717"><ele>580.8</ele><time>2026-03-22T08:28:33.999Z</time></trkpt><trkpt lat="44.3727867" lon="11.0879933"><ele>582.5999999999999</ele><time>2026-03-22T08:28:34.99Z</time></trkpt><trkpt lat="44.3727417" lon="11.0881183"><ele>584.4</ele><time>2026-03-22T08:28:35.99Z</time></trkpt><trkpt lat="44.3727067" lon="11.0882467"><ele>586.1999999999999</ele><time>2026-03-22T08:28:36.99Z</time></trkpt><trkpt lat="44.3726667" lon="11.0883733"><ele>588.0</ele><time>2026-03-22T08:28:37.989Z</time></trkpt><trkpt lat="44.3726267" lon="11.08849"><ele>589.8333333333334</ele><time>2026-03-22T08:28:38.991Z</time></trkpt><trkpt lat="44.3725867" lon="11.08861"><ele>591.6666666666666</ele><time>2026-03-22T08:28:39.994Z</time></trkpt><trkpt lat="44.3725467" lon="11.08873"><ele>593.5</ele><time>2026-03-22T08:28:40.993Z</time></trkpt><trkpt lat="44.3725083" lon="11.0888433"><ele>595.3333333333333</ele><time>2026-03-22T08:28:41.994Z</time></trkpt><trkpt lat="44.37247" lon="11.0889433"><ele>597.1666666666666</ele><time>2026-03-22T08:28:42.995Z</time></trkpt><trkpt lat="44.37243" lon="11.0890317"><ele>599.0</ele><time>2026-03-22T08:28:43.994Z</time></trkpt><trkpt lat="44.372395" lon="11.089115"><ele>600.5</ele><time>2026-03-22T08:28:44.989Z</time></trkpt><trkpt lat="44.3723667" lon="11.0891983"><ele>602.0</ele><time>2026-03-22T08:28:45.994Z</time></trkpt><trkpt lat="44.372345" lon="11.0892883"><ele>603.5</ele><time>2026-03-22T08:28:46.992Z</time></trkpt><trkpt lat="44.3723267" lon="11.08939"><ele>605.0</ele><time>2026-03-22T08:28:47.993Z</time></trkpt><trkpt lat="44.37232" lon="11.0894983"><ele>606.5</ele><time>2026-03-22T08:28:48.994Z</time></trkpt><trkpt lat="44.3723183" lon="11.089615"><ele>608.0</ele><time>2026-03-22T08:28:49.991Z</time></trkpt><trkpt lat="44.3723167" lon="11.0897317"><ele>608.0</ele><time>2026-03-22T08:28:50.991Z</time></trkpt><trkpt lat="44.3723117" lon="11.0898483"><ele>608.0</ele><time>2026-03-22T08:28:51.99Z</time></trkpt><trkpt lat="44.3723" lon="11.08996"><ele>608.0</ele><time>2026-03-22T08:28:52.99Z</time></trkpt><trkpt lat="44.3722817" lon="11.0900733"><ele>608.0</ele><time>2026-03-22T08:28:53.994Z</time></trkpt><trkpt lat="44.3722667" lon="11.0901967"><ele>608.0</ele><time>2026-03-22T08:28:54.989Z</time></trkpt><trkpt lat="44.3722467" lon="11.09032"><ele>608.0</ele><time>2026-03-22T08:28:55.992Z</time></trkpt><trkpt lat="44.3722183" lon="11.0904483"><ele>609.3333333333333</ele><time>2026-03-22T08:28:56.991Z</time></trkpt><trkpt lat="44.372185" lon="11.0905717"><ele>610.6666666666666</ele><time>2026-03-22T08:28:57.991Z</time></trkpt><trkpt lat="44.3721667" lon="11.0906817"><ele>612.0</ele><time>2026-03-22T08:28:58.991Z</time></trkpt><trkpt lat="44.3721517" lon="11.09078"><ele>613.3333333333334</ele><time>2026-03-22T08:28:59.99Z</time></trkpt><trkpt lat="44.3721333" lon="11.0908883"><ele>614.6666666666667</ele><time>2026-03-22T08:29:00.993Z</time></trkpt><trkpt lat="44.3721167" lon="11.0910033"><ele>616.0</ele><time>2026-03-22T08:29:01.997Z</time></trkpt><trkpt lat="44.3721033" lon="11.091125"><ele>617.6</ele><time>2026-03-22T08:29:02.996Z</time></trkpt><trkpt lat="44.372115" lon="11.0912733"><ele>619.2</ele><time>2026-03-22T08:29:03.995Z</time></trkpt><trkpt lat="44.37213" lon="11.0914267"><ele>620.8</ele><time>2026-03-22T08:29:04.991Z</time></trkpt><trkpt lat="44.372145" lon="11.0915783"><ele>622.4</ele><time>2026-03-22T08:29:05.991Z</time></trkpt><trkpt lat="44.3721467" lon="11.0917283"><ele>624.0</ele><time>2026-03-22T08:29:06.997Z</time></trkpt><trkpt lat="44.3721483" lon="11.0918767"><ele>624.0</ele><time>2026-03-22T08:29:07.99Z</time></trkpt><trkpt lat="44.3721483" lon="11.092"><ele>624.0</ele><time>2026-03-22T08:29:08.993Z</time></trkpt><trkpt lat="44.3721517" lon="11.0921017"><ele>624.0</ele><time>2026-03-22T08:29:09.992Z</time></trkpt><trkpt lat="44.372165" lon="11.0921967"><ele>624.0</ele><time>2026-03-22T08:29:11Z</time></trkpt><trkpt lat="44.3721967" lon="11.0922783"><ele>624.0</ele><time>2026-03-22T08:29:11.987Z</time></trkpt><trkpt lat="44.3722517" lon="11.0923617"><ele>624.0</ele><time>2026-03-22T08:29:12.993Z</time></trkpt><trkpt lat="44.3723133" lon="11.0924617"><ele>624.3333333333334</ele><time>2026-03-22T08:29:13.99Z</time></trkpt><trkpt lat="44.3723733" lon="11.09258"><ele>624.6666666666666</ele><time>2026-03-22T08:29:14.99Z</time></trkpt><trkpt lat="44.37242" lon="11.0926833"><ele>625.0</ele><time>2026-03-22T08:29:15.99Z</time></trkpt><trkpt lat="44.3724567" lon="11.0927717"><ele>625.3333333333333</ele><time>2026-03-22T08:29:16.995Z</time></trkpt><trkpt lat="44.3724683" lon="11.0928683"><ele>625.6666666666666</ele><time>2026-03-22T08:29:17.991Z</time></trkpt><trkpt lat="44.3724483" lon="11.0929783"><ele>626.0</ele><time>2026-03-22T08:29:18.998Z</time></trkpt><trkpt lat="44.37243" lon="11.09311"><ele>626.0</ele><time>2026-03-22T08:29:19.994Z</time></trkpt><trkpt lat="44.3724167" lon="11.0932533"><ele>626.0</ele><time>2026-03-22T08:29:21.003Z</time></trkpt><trkpt lat="44.3724083" lon="11.0933917"><ele>626.0</ele><time>2026-03-22T08:29:21.995Z</time></trkpt><trkpt lat="44.3724033" lon="11.09352"><ele>626.0</ele><time>2026-03-22T08:29:22.999Z</time></trkpt><trkpt lat="44.3723983" lon="11.0936467"><ele>626.0</ele><time>2026-03-22T08:29:23.991Z</time></trkpt><trkpt lat="44.3723917" lon="11.0937667"><ele>626.6666666666666</ele><time>2026-03-22T08:29:24.995Z</time></trkpt><trkpt lat="44.372385" lon="11.0938833"><ele>627.3333333333333</ele><time>2026-03-22T08:29:25.997Z</time></trkpt><trkpt lat="44.3723783" lon="11.0940017"><ele>628.0</ele><time>2026-03-22T08:29:26.993Z</time></trkpt><trkpt lat="44.3723733" lon="11.0941283"><ele>628.6666666666666</ele><time>2026-03-22T08:29:27.995Z</time></trkpt><trkpt lat="44.3723683" lon="11.0942583"><ele>629.3333333333334</ele><time>2026-03-22T08:29:28.993Z</time></trkpt><trkpt lat="44.3723683" lon="11.0943867"><ele>630.0</ele><time>2026-03-22T08:29:29.996Z</time></trkpt><trkpt lat="44.37237" lon="11.0945167"><ele>631.6</ele><time>2026-03-22T08:29:30.997Z</time></trkpt><trkpt lat="44.3723783" lon="11.0946417"><ele>633.2</ele><time>2026-03-22T08:29:31.991Z</time></trkpt><trkpt lat="44.3723967" lon="11.0947733"><ele>634.8</ele><time>2026-03-22T08:29:32.996Z</time></trkpt><trkpt lat="44.3724133" lon="11.0949122"><ele>636.4</ele><time>2026-03-22T08:29:33.996Z</time></trkpt><trkpt lat="44.3724215" lon="11.095057"><ele>638.0</ele><time>2026-03-22T08:29:34.994Z</time></trkpt><trkpt lat="44.3724168" lon="11.0952087"><ele>638.8</ele><time>2026-03-22T08:29:35.996Z</time></trkpt><trkpt lat="44.3724033" lon="11.0953554"><ele>639.5999999999999</ele><time>2026-03-22T08:29:36.995Z</time></trkpt><trkpt lat="44.3723899" lon="11.0954889"><ele>640.4000000000001</ele><time>2026-03-22T08:29:37.989Z</time></trkpt><trkpt lat="44.3723699" lon="11.0956057"><ele>641.2</ele><time>2026-03-22T08:29:38.991Z</time></trkpt><trkpt lat="44.3723441" lon="11.0957215"><ele>642.0</ele><time>2026-03-22T08:29:39.993Z</time></trkpt><trkpt lat="44.3723159" lon="11.0958389"><ele>644.0</ele><time>2026-03-22T08:29:40.996Z</time></trkpt><trkpt lat="44.3723008" lon="11.0959514"><ele>646.0</ele><time>2026-03-22T08:29:41.994Z</time></trkpt><trkpt lat="44.3723033" lon="11.0960654"><ele>648.0</ele><time>2026-03-22T08:29:42.992Z</time></trkpt><trkpt lat="44.3723181" lon="11.0961729"><ele>650.0</ele><time>2026-03-22T08:29:43.991Z</time></trkpt><trkpt lat="44.372333" lon="11.0962745"><ele>652.0</ele><time>2026-03-22T08:29:44.993Z</time></trkpt><trkpt lat="44.3723409" lon="11.0963784"><ele>654.0</ele><time>2026-03-22T08:29:45.992Z</time></trkpt><trkpt lat="44.3723395" lon="11.0964942"><ele>654.8333333333334</ele><time>2026-03-22T08:29:46.995Z</time></trkpt><trkpt lat="44.3723413" lon="11.096618"><ele>655.6666666666666</ele><time>2026-03-22T08:29:47.997Z</time></trkpt><trkpt lat="44.3723494" lon="11.096738"><ele>656.5</ele><time>2026-03-22T08:29:48.996Z</time></trkpt><trkpt lat="44.372358" lon="11.0968589"><ele>657.3333333333333</ele><time>2026-03-22T08:29:49.995Z</time></trkpt><trkpt lat="44.3723799" lon="11.0969559"><ele>658.1666666666666</ele><time>2026-03-22T08:29:50.994Z</time></trkpt><trkpt lat="44.3724147" lon="11.0970621"><ele>659.0</ele><time>2026-03-22T08:29:51.996Z</time></trkpt><trkpt lat="44.3724542" lon="11.0971683"><ele>659.0</ele><time>2026-03-22T08:29:52.991Z</time></trkpt><trkpt lat="44.3725086" lon="11.0972755"><ele>659.0</ele><time>2026-03-22T08:29:53.989Z</time></trkpt><trkpt lat="44.3725678" lon="11.0973917"><ele>659.0</ele><time>2026-03-22T08:29:54.999Z</time></trkpt><trkpt lat="44.3726199" lon="11.0975161"><ele>659.0</ele><time>2026-03-22T08:29:55.996Z</time></trkpt><trkpt lat="44.3726573" lon="11.0976472"><ele>659.0</ele><time>2026-03-22T08:29:56.99Z</time></trkpt><trkpt lat="44.3726848" lon="11.0977936"><ele>660.0</ele><time>2026-03-22T08:29:57.994Z</time></trkpt><trkpt lat="44.3727025" lon="11.0979428"><ele>661.0</ele><time>2026-03-22T08:29:58.989Z</time></trkpt><trkpt lat="44.3727189" lon="11.0980721"><ele>662.0</ele><time>2026-03-22T08:29:59.99Z</time></trkpt><trkpt lat="44.3727305" lon="11.0981923"><ele>663.0</ele><time>2026-03-22T08:30:00.991Z</time></trkpt><trkpt lat="44.3727336" lon="11.0983188"><ele>664.0</ele><time>2026-03-22T08:30:01.99Z</time></trkpt><trkpt lat="44.3727295" lon="11.0984506"><ele>665.0</ele><time>2026-03-22T08:30:03.001Z</time></trkpt><trkpt lat="44.3727233" lon="11.098596"><ele>666.0</ele><time>2026-03-22T08:30:03.991Z</time></trkpt><trkpt lat="44.372711" lon="11.0987571"><ele>667.0</ele><time>2026-03-22T08:30:04.989Z</time></trkpt><trkpt lat="44.3726965" lon="11.0989161"><ele>668.0</ele><time>2026-03-22T08:30:05.991Z</time></trkpt><trkpt lat="44.3726817" lon="11.0990667"><ele>669.0</ele><time>2026-03-22T08:30:06.995Z</time></trkpt><trkpt lat="44.3726733" lon="11.0992183"><ele>671.75</ele><time>2026-03-22T08:30:07.992Z</time></trkpt><trkpt lat="44.37267" lon="11.0993767"><ele>674.5</ele><time>2026-03-22T08:30:08.995Z</time></trkpt><trkpt lat="44.3726717" lon="11.09954"><ele>677.25</ele><time>2026-03-22T08:30:09.989Z</time></trkpt><trkpt lat="44.3726767" lon="11.0997083"><ele>680.0</ele><time>2026-03-22T08:30:10.99Z</time></trkpt><trkpt lat="44.3726783" lon="11.0998783"><ele>682.2</ele><time>2026-03-22T08:30:11.992Z</time></trkpt><trkpt lat="44.3726767" lon="11.100035"><ele>684.4</ele><time>2026-03-22T08:30:12.994Z</time></trkpt><trkpt lat="44.372675" lon="11.100185"><ele>686.5999999999999</ele><time>2026-03-22T08:30:13.992Z</time></trkpt><trkpt lat="44.3726717" lon="11.1003283"><ele>688.8</ele><time>2026-03-22T08:30:14.999Z</time></trkpt><trkpt lat="44.3726683" lon="11.100465"><ele>691.0</ele><time>2026-03-22T08:30:15.99Z</time></trkpt><trkpt lat="44.37266" lon="11.100605"><ele>691.0</ele><time>2026-03-22T08:30:16.99Z</time></trkpt><trkpt lat="44.3726467" lon="11.1007417"><ele>691.0</ele><time>2026-03-22T08:30:17.997Z</time></trkpt><trkpt lat="44.37263" lon="11.1008767"><ele>691.0</ele><time>2026-03-22T08:30:18.989Z</time></trkpt><trkpt lat="44.3726067" lon="11.101015"><ele>691.0</ele><time>2026-03-22T08:30:19.995Z</time></trkpt><trkpt lat="44.372585" lon="11.1011467"><ele>691.0</ele><time>2026-03-22T08:30:20.991Z</time></trkpt><trkpt lat="44.3725467" lon="11.1012517"><ele>692.8333333333334</ele><time>2026-03-22T08:30:22Z</time></trkpt><trkpt lat="44.3725167" lon="11.1013517"><ele>694.6666666666667</ele><time>2026-03-22T08:30:22.986Z</time></trkpt><trkpt lat="44.372475" lon="11.10145"><ele>696.5</ele><time>2026-03-22T08:30:23.991Z</time></trkpt><trkpt lat="44.3724317" lon="11.101555"><ele>698.3333333333334</ele><time>2026-03-22T08:30:24.991Z</time></trkpt><trkpt lat="44.3723933" lon="11.10166"><ele>700.1666666666666</ele><time>2026-03-22T08:30:25.991Z</time></trkpt><trkpt lat="44.37236" lon="11.1017583"><ele>702.0</ele><time>2026-03-22T08:30:26.998Z</time></trkpt><trkpt lat="44.3723233" lon="11.10185"><ele>703.0</ele><time>2026-03-22T08:30:27.991Z</time></trkpt><trkpt lat="44.3722767" lon="11.1019283"><ele>704.0</ele><time>2026-03-22T08:30:28.994Z</time></trkpt><trkpt lat="44.3722233" lon="11.1019867"><ele>705.0</ele><time>2026-03-22T08:30:29.992Z</time></trkpt><trkpt lat="44.3721367" lon="11.1020733"><ele>706.0</ele><time>2026-03-22T08:30:31.992Z</time></trkpt><trkpt lat="44.3720667" lon="11.10209"><ele>707.0</ele><time>2026-03-22T08:31:38.992Z</time></trkpt><trkpt lat="44.3719333" lon="11.1021467"><ele>707.5</ele><time>2026-03-22T08:31:40.988Z</time></trkpt><trkpt lat="44.3718317" lon="11.1021933"><ele>708.0</ele><time>2026-03-22T08:31:41.99Z</time></trkpt><trkpt lat="44.371715" lon="11.1022433"><ele>708.5</ele><time>2026-03-22T08:31:42.993Z</time></trkpt><trkpt lat="44.3715883" lon="11.1023067"><ele>709.0</ele><time>2026-03-22T08:31:43.989Z</time></trkpt><trkpt lat="44.3714617" lon="11.102375"><ele>707.25</ele><time>2026-03-22T08:31:44.992Z</time></trkpt><trkpt lat="44.3713333" lon="11.10244"><ele>705.5</ele><time>2026-03-22T08:31:45.994Z</time></trkpt><trkpt lat="44.3712067" lon="11.1025083"><ele>703.75</ele><time>2026-03-22T08:31:46.988Z</time></trkpt><trkpt lat="44.3710783" lon="11.1025717"><ele>702.0</ele><time>2026-03-22T08:31:47.988Z</time></trkpt><trkpt lat="44.37095" lon="11.1026283"><ele>702.0</ele><time>2026-03-22T08:31:48.993Z</time></trkpt><trkpt lat="44.370825" lon="11.102685"><ele>702.0</ele><time>2026-03-22T08:31:49.986Z</time></trkpt><trkpt lat="44.370705" lon="11.1027483"><ele>702.0</ele><time>2026-03-22T08:31:50.992Z</time></trkpt><trkpt lat="44.3705933" lon="11.1028183"><ele>702.0</ele><time>2026-03-22T08:31:51.989Z</time></trkpt><trkpt lat="44.3704833" lon="11.1028883"><ele>698.25</ele><time>2026-03-22T08:31:52.987Z</time></trkpt><trkpt lat="44.3703717" lon="11.1029633"><ele>694.5</ele><time>2026-03-22T08:31:53.989Z</time></trkpt><trkpt lat="44.3702583" lon="11.1030483"><ele>690.75</ele><time>2026-03-22T08:31:55.001Z</time></trkpt><trkpt lat="44.3701467" lon="11.1031367"><ele>687.0</ele><time>2026-03-22T08:31:55.99Z</time></trkpt><trkpt lat="44.3700367" lon="11.1032283"><ele>687.0</ele><time>2026-03-22T08:31:56.995Z</time></trkpt><trkpt lat="44.3699267" lon="11.103315"><ele>687.0</ele><time>2026-03-22T08:31:57.993Z</time></trkpt><trkpt lat="44.3698167" lon="11.103395"><ele>687.0</ele><time>2026-03-22T08:31:58.994Z</time></trkpt><trkpt lat="44.36971" lon="11.1034667"><ele>687.0</ele><time>2026-03-22T08:31:59.996Z</time></trkpt><trkpt lat="44.36961" lon="11.103535"><ele>685.0</ele><time>2026-03-22T08:32:01.001Z</time></trkpt><trkpt lat="44.3695083" lon="11.1035967"><ele>683.0</ele><time>2026-03-22T08:32:01.998Z</time></trkpt><trkpt lat="44.3693983" lon="11.1036633"><ele>681.0</ele><time>2026-03-22T08:32:02.989Z</time></trkpt><trkpt lat="44.3692883" lon="11.10374"><ele>679.0</ele><time>2026-03-22T08:32:03.992Z</time></trkpt><trkpt lat="44.3691833" lon="11.103825"><ele>679.0</ele><time>2026-03-22T08:32:04.991Z</time></trkpt><trkpt lat="44.3690767" lon="11.10392"><ele>679.0</ele><time>2026-03-22T08:32:05.991Z</time></trkpt><trkpt lat="44.36897" lon="11.1040117"><ele>679.0</ele><time>2026-03-22T08:32:06.998Z</time></trkpt><trkpt lat="44.36886" lon="11.1040967"><ele>679.0</ele><time>2026-03-22T08:32:07.998Z</time></trkpt><trkpt lat="44.3687517" lon="11.1041717"><ele>679.0</ele><time>2026-03-22T08:32:08.991Z</time></trkpt><trkpt lat="44.3686383" lon="11.1042267"><ele>679.0</ele><time>2026-03-22T08:32:09.995Z</time></trkpt><trkpt lat="44.36852" lon="11.1042767"><ele>679.0</ele><time>2026-03-22T08:32:10.992Z</time></trkpt><trkpt lat="44.3684" lon="11.1043233"><ele>679.0</ele><time>2026-03-22T08:32:11.992Z</time></trkpt><trkpt lat="44.36828" lon="11.1043733"><ele>679.0</ele><time>2026-03-22T08:32:12.99Z</time></trkpt><trkpt lat="44.368155" lon="11.1044283"><ele>679.0</ele><time>2026-03-22T08:32:13.994Z</time></trkpt><trkpt lat="44.3680283" lon="11.1044867"><ele>679.0</ele><time>2026-03-22T08:32:14.991Z</time></trkpt><trkpt lat="44.3679033" lon="11.1045433"><ele>679.0</ele><time>2026-03-22T08:32:15.989Z</time></trkpt><trkpt lat="44.367775" lon="11.10459"><ele>679.5</ele><time>2026-03-22T08:32:16.991Z</time></trkpt><trkpt lat="44.36765" lon="11.104645"><ele>680.0</ele><time>2026-03-22T08:32:17.992Z</time></trkpt><trkpt lat="44.3675283" lon="11.1047017"><ele>680.5</ele><time>2026-03-22T08:32:18.992Z</time></trkpt><trkpt lat="44.3674117" lon="11.1047583"><ele>681.0</ele><time>2026-03-22T08:32:19.99Z</time></trkpt><trkpt lat="44.367295" lon="11.1048133"><ele>680.75</ele><time>2026-03-22T08:32:20.995Z</time></trkpt><trkpt lat="44.3671717" lon="11.1048617"><ele>680.5</ele><time>2026-03-22T08:32:21.986Z</time></trkpt><trkpt lat="44.367045" lon="11.104895"><ele>680.25</ele><time>2026-03-22T08:32:23.001Z</time></trkpt><trkpt lat="44.3669167" lon="11.104925"><ele>680.0</ele><time>2026-03-22T08:32:23.99Z</time></trkpt><trkpt lat="44.366785" lon="11.1049467"><ele>680.75</ele><time>2026-03-22T08:32:25.001Z</time></trkpt><trkpt lat="44.3666483" lon="11.1049667"><ele>681.5</ele><time>2026-03-22T08:32:25.993Z</time></trkpt><trkpt lat="44.36651" lon="11.104985"><ele>682.25</ele><time>2026-03-22T08:32:26.992Z</time></trkpt><trkpt lat="44.366375" lon="11.105"><ele>683.0</ele><time>2026-03-22T08:32:27.995Z</time></trkpt><trkpt lat="44.36624" lon="11.105015"><ele>683.0</ele><time>2026-03-22T08:32:28.999Z</time></trkpt><trkpt lat="44.3661033" lon="11.1050267"><ele>683.0</ele><time>2026-03-22T08:32:30.001Z</time></trkpt><trkpt lat="44.365965" lon="11.1050383"><ele>683.0</ele><time>2026-03-22T08:32:30.999Z</time></trkpt><trkpt lat="44.3658333" lon="11.1050533"><ele>683.0</ele><time>2026-03-22T08:32:31.994Z</time></trkpt><trkpt lat="44.36571" lon="11.10507"><ele>683.0</ele><time>2026-03-22T08:32:33.001Z</time></trkpt><trkpt lat="44.3655933" lon="11.1050917"><ele>683.0</ele><time>2026-03-22T08:32:33.993Z</time></trkpt><trkpt lat="44.3654867" lon="11.1051167"><ele>683.0</ele><time>2026-03-22T08:32:34.995Z</time></trkpt><trkpt lat="44.3654017" lon="11.1051383"><ele>683.0</ele><time>2026-03-22T08:32:35.99Z</time></trkpt><trkpt lat="44.36533" lon="11.10515"><ele>683.0</ele><time>2026-03-22T08:32:36.991Z</time></trkpt><trkpt lat="44.3652317" lon="11.10513"><ele>682.8</ele><time>2026-03-22T08:32:38.998Z</time></trkpt><trkpt lat="44.36517" lon="11.1050183"><ele>682.5999999999999</ele><time>2026-03-22T08:32:40.997Z</time></trkpt><trkpt lat="44.365145" lon="11.10491"><ele>682.4000000000001</ele><time>2026-03-22T08:32:41.992Z</time></trkpt><trkpt lat="44.3651117" lon="11.1047883"><ele>682.2</ele><time>2026-03-22T08:32:42.991Z</time></trkpt><trkpt lat="44.3650583" lon="11.1046667"><ele>682.0</ele><time>2026-03-22T08:32:43.993Z</time></trkpt><trkpt lat="44.3649983" lon="11.1045417"><ele>682.0</ele><time>2026-03-22T08:32:44.992Z</time></trkpt><trkpt lat="44.36494" lon="11.10442"><ele>682.0</ele><time>2026-03-22T08:32:45.995Z</time></trkpt><trkpt lat="44.3648817" lon="11.1043017"><ele>682.0</ele><time>2026-03-22T08:32:46.991Z</time></trkpt><trkpt lat="44.3648217" lon="11.1041817"><ele>682.0</ele><time>2026-03-22T08:32:47.992Z</time></trkpt><trkpt lat="44.3647617" lon="11.1040617"><ele>682.0</ele><time>2026-03-22T08:32:48.992Z</time></trkpt><trkpt lat="44.364705" lon="11.103945"><ele>681.5</ele><time>2026-03-22T08:32:49.991Z</time></trkpt><trkpt lat="44.3646633" lon="11.1038333"><ele>681.0</ele><time>2026-03-22T08:32:50.994Z</time></trkpt><trkpt lat="44.3646317" lon="11.1037283"><ele>680.5</ele><time>2026-03-22T08:32:51.999Z</time></trkpt><trkpt lat="44.3646017" lon="11.1036283"><ele>680.0</ele><time>2026-03-22T08:32:52.987Z</time></trkpt><trkpt lat="44.3645767" lon="11.1035383"><ele>679.5</ele><time>2026-03-22T08:32:53.999Z</time></trkpt><trkpt lat="44.36455" lon="11.1033833"><ele>679.0</ele><time>2026-03-22T08:32:55.989Z</time></trkpt><trkpt lat="44.3646033" lon="11.1032283"><ele>676.5</ele><time>2026-03-22T08:32:57.992Z</time></trkpt><trkpt lat="44.3646517" lon="11.103145"><ele>674.0</ele><time>2026-03-22T08:32:58.993Z</time></trkpt><trkpt lat="44.3647083" lon="11.103055"><ele>671.5</ele><time>2026-03-22T08:32:59.99Z</time></trkpt><trkpt lat="44.3647617" lon="11.1029617"><ele>669.0</ele><time>2026-03-22T08:33:00.997Z</time></trkpt><trkpt lat="44.364815" lon="11.10287"><ele>666.5</ele><time>2026-03-22T08:33:01.99Z</time></trkpt><trkpt lat="44.3648683" lon="11.1027717"><ele>664.0</ele><time>2026-03-22T08:33:03.001Z</time></trkpt><trkpt lat="44.364915" lon="11.1026717"><ele>663.8333333333334</ele><time>2026-03-22T08:33:03.995Z</time></trkpt><trkpt lat="44.3649667" lon="11.1025767"><ele>663.6666666666667</ele><time>2026-03-22T08:33:04.991Z</time></trkpt><trkpt lat="44.3650017" lon="11.1024767"><ele>663.5</ele><time>2026-03-22T08:33:05.995Z</time></trkpt><trkpt lat="44.3650167" lon="11.102375"><ele>663.3333333333334</ele><time>2026-03-22T08:33:07Z</time></trkpt><trkpt lat="44.3650267" lon="11.1022683"><ele>663.1666666666666</ele><time>2026-03-22T08:33:07.999Z</time></trkpt><trkpt lat="44.365035" lon="11.102155"><ele>663.0</ele><time>2026-03-22T08:33:08.998Z</time></trkpt><trkpt lat="44.3650417" lon="11.1020433"><ele>661.5714285714286</ele><time>2026-03-22T08:33:09.991Z</time></trkpt><trkpt lat="44.3650533" lon="11.101935"><ele>660.1428571428571</ele><time>2026-03-22T08:33:10.991Z</time></trkpt><trkpt lat="44.3650683" lon="11.1018317"><ele>658.7142857142858</ele><time>2026-03-22T08:33:11.991Z</time></trkpt><trkpt lat="44.3650833" lon="11.1017433"><ele>657.2857142857142</ele><time>2026-03-22T08:33:12.991Z</time></trkpt><trkpt lat="44.365095" lon="11.1016533"><ele>655.8571428571429</ele><time>2026-03-22T08:33:13.992Z</time></trkpt><trkpt lat="44.3651117" lon="11.101565"><ele>654.4285714285714</ele><time>2026-03-22T08:33:14.989Z</time></trkpt><trkpt lat="44.365135" lon="11.1014617"><ele>653.0</ele><time>2026-03-22T08:33:16.002Z</time></trkpt><trkpt lat="44.3651583" lon="11.1013567"><ele>650.6666666666666</ele><time>2026-03-22T08:33:16.993Z</time></trkpt><trkpt lat="44.3651733" lon="11.1012533"><ele>648.3333333333333</ele><time>2026-03-22T08:33:17.997Z</time></trkpt><trkpt lat="44.3651833" lon="11.1011467"><ele>646.0</ele><time>2026-03-22T08:33:18.988Z</time></trkpt><trkpt lat="44.36519" lon="11.1010467"><ele>643.6666666666666</ele><time>2026-03-22T08:33:19.989Z</time></trkpt><trkpt lat="44.365175" lon="11.1008967"><ele>641.3333333333334</ele><time>2026-03-22T08:33:21.99Z</time></trkpt><trkpt lat="44.365115" lon="11.1007833"><ele>639.0</ele><time>2026-03-22T08:33:23.991Z</time></trkpt><trkpt lat="44.3650467" lon="11.10066"><ele>637.0</ele><time>2026-03-22T08:33:25.992Z</time></trkpt><trkpt lat="44.364995" lon="11.1005183"><ele>635.0</ele><time>2026-03-22T08:33:27.997Z</time></trkpt><trkpt lat="44.3649483" lon="11.1003767"><ele>633.0</ele><time>2026-03-22T08:33:29.992Z</time></trkpt><trkpt lat="44.3649033" lon="11.1002417"><ele>631.0</ele><time>2026-03-22T08:33:31.993Z</time></trkpt><trkpt lat="44.3648617" lon="11.1001367"><ele>629.0</ele><time>2026-03-22T08:33:33.998Z</time></trkpt><trkpt lat="44.3648083" lon="11.1000367"><ele>629.0</ele><time>2026-03-22T08:33:35.995Z</time></trkpt><trkpt lat="44.3647467" lon="11.099955"><ele>629.0</ele><time>2026-03-22T08:33:37.992Z</time></trkpt><trkpt lat="44.3646917" lon="11.0998567"><ele>629.0</ele><time>2026-03-22T08:33:39.994Z</time></trkpt><trkpt lat="44.364655" lon="11.0997433"><ele>629.0</ele><time>2026-03-22T08:33:41.992Z</time></trkpt><trkpt lat="44.364625" lon="11.0996233"><ele>629.0</ele><time>2026-03-22T08:33:43.995Z</time></trkpt><trkpt lat="44.3645967" lon="11.0994733"><ele>625.0</ele><time>2026-03-22T08:33:45.989Z</time></trkpt><trkpt lat="44.3645567" lon="11.0993583"><ele>621.0</ele><time>2026-03-22T08:33:47.991Z</time></trkpt><trkpt lat="44.364555" lon="11.099255"><ele>617.0</ele><time>2026-03-22T08:33:49.988Z</time></trkpt><trkpt lat="44.3645783" lon="11.099165"><ele>613.0</ele><time>2026-03-22T08:33:51.989Z</time></trkpt><trkpt lat="44.3645783" lon="11.0990667"><ele>609.0</ele><time>2026-03-22T08:33:53.992Z</time></trkpt><trkpt lat="44.3645233" lon="11.0990033"><ele>605.0</ele><time>2026-03-22T08:33:55.997Z</time></trkpt><trkpt lat="44.3644417" lon="11.0989567"><ele>602.5</ele><time>2026-03-22T08:33:57.993Z</time></trkpt><trkpt lat="44.3643933" lon="11.098875"><ele>600.0</ele><time>2026-03-22T08:33:59.995Z</time></trkpt><trkpt lat="44.3644067" lon="11.098755"><ele>597.5</ele><time>2026-03-22T08:34:01.994Z</time></trkpt><trkpt lat="44.364435" lon="11.0986533"><ele>595.0</ele><time>2026-03-22T08:34:03.991Z</time></trkpt><trkpt lat="44.36444" lon="11.098535"><ele>592.5</ele><time>2026-03-22T08:34:05.993Z</time></trkpt><trkpt lat="44.3644067" lon="11.098415"><ele>590.0</ele><time>2026-03-22T08:34:07.993Z</time></trkpt><trkpt lat="44.3643617" lon="11.098305"><ele>586.8</ele><time>2026-03-22T08:34:09.992Z</time></trkpt><trkpt lat="44.3643267" lon="11.098215"><ele>583.6</ele><time>2026-03-22T08:34:11.989Z</time></trkpt><trkpt lat="44.3643083" lon="11.0981083"><ele>580.4</ele><time>2026-03-22T08:34:14Z</time></trkpt><trkpt lat="44.3643367" lon="11.09798"><ele>577.2</ele><time>2026-03-22T08:34:15.999Z</time></trkpt><trkpt lat="44.3644233" lon="11.0978367"><ele>574.0</ele><time>2026-03-22T08:34:17.989Z</time></trkpt><trkpt lat="44.36449" lon="11.0977617"><ele>574.0</ele><time>2026-03-22T08:34:18.993Z</time></trkpt><trkpt lat="44.364555" lon="11.0976967"><ele>574.0</ele><time>2026-03-22T08:34:19.99Z</time></trkpt><trkpt lat="44.3646033" lon="11.09764"><ele>574.0</ele><time>2026-03-22T08:34:20.999Z</time></trkpt><trkpt lat="44.36463" lon="11.0975217"><ele>574.0</ele><time>2026-03-22T08:34:22.996Z</time></trkpt><trkpt lat="44.3645533" lon="11.09741"><ele>574.0</ele><time>2026-03-22T08:34:24.998Z</time></trkpt><trkpt lat="44.3644617" lon="11.0973017"><ele>571.5</ele><time>2026-03-22T08:34:26.995Z</time></trkpt><trkpt lat="44.3644017" lon="11.0972533"><ele>569.0</ele><time>2026-03-22T08:34:27.992Z</time></trkpt><trkpt lat="44.3643333" lon="11.0972"><ele>566.5</ele><time>2026-03-22T08:34:28.993Z</time></trkpt><trkpt lat="44.3642667" lon="11.0971467"><ele>564.0</ele><time>2026-03-22T08:34:29.992Z</time></trkpt><trkpt lat="44.3641917" lon="11.0970967"><ele>561.5</ele><time>2026-03-22T08:34:30.998Z</time></trkpt><trkpt lat="44.3641133" lon="11.0970467"><ele>559.0</ele><time>2026-03-22T08:34:32.001Z</time></trkpt><trkpt lat="44.3640333" lon="11.0969983"><ele>559.0</ele><time>2026-03-22T08:34:32.992Z</time></trkpt><trkpt lat="44.363955" lon="11.0969467"><ele>559.0</ele><time>2026-03-22T08:34:33.993Z</time></trkpt><trkpt lat="44.3638817" lon="11.096895"><ele>559.0</ele><time>2026-03-22T08:34:34.992Z</time></trkpt><trkpt lat="44.3638167" lon="11.0968317"><ele>559.0</ele><time>2026-03-22T08:34:36.001Z</time></trkpt><trkpt lat="44.3637567" lon="11.0967717"><ele>559.0</ele><time>2026-03-22T08:34:36.993Z</time></trkpt><trkpt lat="44.3636983" lon="11.09671"><ele>559.0</ele><time>2026-03-22T08:34:37.999Z</time></trkpt><trkpt lat="44.363645" lon="11.0966433"><ele>560.0</ele><time>2026-03-22T08:34:38.994Z</time></trkpt><trkpt lat="44.3635583" lon="11.0965683"><ele>561.0</ele><time>2026-03-22T08:34:40.993Z</time></trkpt><trkpt lat="44.36354" lon="11.09647"><ele>562.0</ele><time>2026-03-22T08:34:42.992Z</time></trkpt><trkpt lat="44.3635417" lon="11.096335"><ele>563.0</ele><time>2026-03-22T08:34:45.003Z</time></trkpt><trkpt lat="44.3635383" lon="11.0962367"><ele>564.0</ele><time>2026-03-22T08:34:45.997Z</time></trkpt><trkpt lat="44.3635333" lon="11.0961367"><ele>565.0</ele><time>2026-03-22T08:34:46.998Z</time></trkpt><trkpt lat="44.3635283" lon="11.0960367"><ele>565.0</ele><time>2026-03-22T08:34:47.987Z</time></trkpt><trkpt lat="44.36353" lon="11.095915"><ele>565.0</ele><time>2026-03-22T08:34:48.998Z</time></trkpt><trkpt lat="44.3635267" lon="11.09579"><ele>565.0</ele><time>2026-03-22T08:34:49.997Z</time></trkpt><trkpt lat="44.3635167" lon="11.0956667"><ele>565.0</ele><time>2026-03-22T08:34:51Z</time></trkpt><trkpt lat="44.3635083" lon="11.0955517"><ele>565.0</ele><time>2026-03-22T08:34:51.99Z</time></trkpt><trkpt lat="44.3634917" lon="11.09543"><ele>565.0</ele><time>2026-03-22T08:34:52.996Z</time></trkpt><trkpt lat="44.3634683" lon="11.0952917"><ele>564.6666666666667</ele><time>2026-03-22T08:34:54Z</time></trkpt><trkpt lat="44.3634483" lon="11.0951667"><ele>564.3333333333334</ele><time>2026-03-22T08:34:54.992Z</time></trkpt><trkpt lat="44.3634317" lon="11.0950567"><ele>564.0</ele><time>2026-03-22T08:34:55.996Z</time></trkpt><trkpt lat="44.3634217" lon="11.094925"><ele>563.6666666666666</ele><time>2026-03-22T08:34:56.999Z</time></trkpt><trkpt lat="44.3634183" lon="11.0947983"><ele>563.3333333333333</ele><time>2026-03-22T08:34:57.993Z</time></trkpt><trkpt lat="44.36342" lon="11.094685"><ele>563.0</ele><time>2026-03-22T08:34:58.991Z</time></trkpt><trkpt lat="44.3634233" lon="11.094575"><ele>561.1666666666666</ele><time>2026-03-22T08:35:00.002Z</time></trkpt><trkpt lat="44.3634233" lon="11.0944733"><ele>559.3333333333333</ele><time>2026-03-22T08:35:00.993Z</time></trkpt><trkpt lat="44.3633983" lon="11.0943883"><ele>557.5</ele><time>2026-03-22T08:35:01.993Z</time></trkpt><trkpt lat="44.3633483" lon="11.0943233"><ele>555.6666666666666</ele><time>2026-03-22T08:35:02.998Z</time></trkpt><trkpt lat="44.3633" lon="11.0942667"><ele>553.8333333333334</ele><time>2026-03-22T08:35:03.993Z</time></trkpt><trkpt lat="44.3632" lon="11.094185"><ele>552.0</ele><time>2026-03-22T08:35:05.99Z</time></trkpt><trkpt lat="44.3631023" lon="11.0940762"><ele>550.8333333333334</ele><time>2026-03-22T08:35:07.992Z</time></trkpt><trkpt lat="44.363047" lon="11.0940125"><ele>549.6666666666666</ele><time>2026-03-22T08:35:08.999Z</time></trkpt><trkpt lat="44.3630016" lon="11.0939471"><ele>548.5</ele><time>2026-03-22T08:35:09.999Z</time></trkpt><trkpt lat="44.3629415" lon="11.0938024"><ele>547.3333333333333</ele><time>2026-03-22T08:35:11.99Z</time></trkpt><trkpt lat="44.3629313" lon="11.0937005"><ele>546.1666666666666</ele><time>2026-03-22T08:35:12.993Z</time></trkpt><trkpt lat="44.3629239" lon="11.0935897"><ele>545.0</ele><time>2026-03-22T08:35:13.99Z</time></trkpt><trkpt lat="44.3629238" lon="11.0934761"><ele>544.5</ele><time>2026-03-22T08:35:14.992Z</time></trkpt><trkpt lat="44.3629321" lon="11.0933605"><ele>544.0</ele><time>2026-03-22T08:35:15.996Z</time></trkpt><trkpt lat="44.3629407" lon="11.0932482"><ele>543.5</ele><time>2026-03-22T08:35:16.987Z</time></trkpt><trkpt lat="44.3629621" lon="11.0931488"><ele>543.0</ele><time>2026-03-22T08:35:17.995Z</time></trkpt><trkpt lat="44.3629928" lon="11.093065"><ele>542.5</ele><time>2026-03-22T08:35:18.993Z</time></trkpt><trkpt lat="44.363028" lon="11.092986"><ele>542.0</ele><time>2026-03-22T08:35:19.987Z</time></trkpt><trkpt lat="44.3630641" lon="11.0928201"><ele>542.0</ele><time>2026-03-22T08:35:21.987Z</time></trkpt><trkpt lat="44.3630618" lon="11.0927206"><ele>542.0</ele><time>2026-03-22T08:35:22.991Z</time></trkpt><trkpt lat="44.3630556" lon="11.0926156"><ele>542.0</ele><time>2026-03-22T08:35:23.992Z</time></trkpt><trkpt lat="44.3630329" lon="11.0925158"><ele>542.0</ele><time>2026-03-22T08:35:24.999Z</time></trkpt><trkpt lat="44.3629934" lon="11.0924155"><ele>542.0</ele><time>2026-03-22T08:35:25.987Z</time></trkpt><trkpt lat="44.3629474" lon="11.0923159"><ele>542.0</ele><time>2026-03-22T08:35:26.996Z</time></trkpt><trkpt lat="44.3628991" lon="11.0922183"><ele>543.4285714285714</ele><time>2026-03-22T08:35:27.995Z</time></trkpt><trkpt lat="44.3628578" lon="11.0921331"><ele>544.8571428571429</ele><time>2026-03-22T08:35:28.992Z</time></trkpt><trkpt lat="44.3628243" lon="11.0920523"><ele>546.2857142857143</ele><time>2026-03-22T08:35:29.995Z</time></trkpt><trkpt lat="44.3627945" lon="11.0919686"><ele>547.7142857142858</ele><time>2026-03-22T08:35:30.989Z</time></trkpt><trkpt lat="44.3627715" lon="11.0918829"><ele>549.1428571428572</ele><time>2026-03-22T08:35:31.993Z</time></trkpt><trkpt lat="44.3627562" lon="11.0917963"><ele>550.5714285714286</ele><time>2026-03-22T08:35:32.99Z</time></trkpt><trkpt lat="44.3627452" lon="11.0917082"><ele>552.0</ele><time>2026-03-22T08:35:33.991Z</time></trkpt><trkpt lat="44.3627261" lon="11.091616"><ele>549.6</ele><time>2026-03-22T08:35:34.999Z</time></trkpt><trkpt lat="44.3627" lon="11.0915257"><ele>547.2</ele><time>2026-03-22T08:35:35.99Z</time></trkpt><trkpt lat="44.3626777" lon="11.0914429"><ele>544.8</ele><time>2026-03-22T08:35:37.009Z</time></trkpt><trkpt lat="44.362645" lon="11.0912914"><ele>542.4</ele><time>2026-03-22T08:35:38.998Z</time></trkpt><trkpt lat="44.362625" lon="11.0911233"><ele>540.0</ele><time>2026-03-22T08:35:40.993Z</time></trkpt><trkpt lat="44.3626233" lon="11.0909533"><ele>540.0</ele><time>2026-03-22T08:35:42.993Z</time></trkpt><trkpt lat="44.3626083" lon="11.090795"><ele>540.0</ele><time>2026-03-22T08:35:44.994Z</time></trkpt><trkpt lat="44.36257" lon="11.0906567"><ele>540.0</ele><time>2026-03-22T08:35:46.99Z</time></trkpt><trkpt lat="44.3625017" lon="11.090595"><ele>540.0</ele><time>2026-03-22T08:35:48.992Z</time></trkpt><trkpt lat="44.3624067" lon="11.0905717"><ele>540.0</ele><time>2026-03-22T08:35:50.996Z</time></trkpt><trkpt lat="44.3623183" lon="11.0905367"><ele>539.6</ele><time>2026-03-22T08:35:52.993Z</time></trkpt><trkpt lat="44.362225" lon="11.0904433"><ele>539.2</ele><time>2026-03-22T08:35:54.997Z</time></trkpt><trkpt lat="44.3621683" lon="11.0902833"><ele>538.8</ele><time>2026-03-22T08:35:56.992Z</time></trkpt><trkpt lat="44.3621567" lon="11.0901733"><ele>538.4</ele><time>2026-03-22T08:35:57.993Z</time></trkpt><trkpt lat="44.362155" lon="11.09003"><ele>538.0</ele><time>2026-03-22T08:35:58.999Z</time></trkpt><trkpt lat="44.3621383" lon="11.0898817"><ele>538.0</ele><time>2026-03-22T08:35:59.994Z</time></trkpt><trkpt lat="44.36211" lon="11.0897417"><ele>538.0</ele><time>2026-03-22T08:36:00.994Z</time></trkpt><trkpt lat="44.362075" lon="11.0896183"><ele>538.0</ele><time>2026-03-22T08:36:01.994Z</time></trkpt><trkpt lat="44.3620433" lon="11.0894967"><ele>538.0</ele><time>2026-03-22T08:36:02.998Z</time></trkpt><trkpt lat="44.36203" lon="11.089375"><ele>538.0</ele><time>2026-03-22T08:36:03.993Z</time></trkpt><trkpt lat="44.3620283" lon="11.0892633"><ele>538.0</ele><time>2026-03-22T08:36:04.994Z</time></trkpt><trkpt lat="44.3620217" lon="11.089165"><ele>538.0</ele><time>2026-03-22T08:36:05.993Z</time></trkpt><trkpt lat="44.362005" lon="11.0890717"><ele>538.0</ele><time>2026-03-22T08:36:06.993Z</time></trkpt><trkpt lat="44.361975" lon="11.0889817"><ele>538.0</ele><time>2026-03-22T08:36:07.997Z</time></trkpt><trkpt lat="44.361935" lon="11.0888817"><ele>538.0</ele><time>2026-03-22T08:36:08.996Z</time></trkpt><trkpt lat="44.3619" lon="11.0887783"><ele>538.0</ele><time>2026-03-22T08:36:10.003Z</time></trkpt><trkpt lat="44.3618717" lon="11.08868"><ele>537.4285714285714</ele><time>2026-03-22T08:36:10.995Z</time></trkpt><trkpt lat="44.3618633" lon="11.088575"><ele>536.8571428571429</ele><time>2026-03-22T08:36:11.992Z</time></trkpt><trkpt lat="44.3618667" lon="11.0884767"><ele>536.2857142857143</ele><time>2026-03-22T08:36:12.998Z</time></trkpt><trkpt lat="44.3618783" lon="11.0883783"><ele>535.7142857142858</ele><time>2026-03-22T08:36:13.992Z</time></trkpt><trkpt lat="44.3618917" lon="11.0882733"><ele>535.1428571428571</ele><time>2026-03-22T08:36:14.991Z</time></trkpt><trkpt lat="44.3619" lon="11.0881783"><ele>534.5714285714287</ele><time>2026-03-22T08:36:15.992Z</time></trkpt><trkpt lat="44.3618983" lon="11.0880883"><ele>534.0</ele><time>2026-03-22T08:36:16.994Z</time></trkpt><trkpt lat="44.3618733" lon="11.0879317"><ele>532.8</ele><time>2026-03-22T08:36:18.996Z</time></trkpt><trkpt lat="44.361825" lon="11.0877933"><ele>531.5999999999999</ele><time>2026-03-22T08:36:20.994Z</time></trkpt><trkpt lat="44.36176" lon="11.0876483"><ele>530.4</ele><time>2026-03-22T08:36:22.991Z</time></trkpt><trkpt lat="44.3617233" lon="11.0875667"><ele>529.1999999999999</ele><time>2026-03-22T08:36:24.005Z</time></trkpt><trkpt lat="44.3616833" lon="11.0874767"><ele>528.0</ele><time>2026-03-22T08:36:24.994Z</time></trkpt><trkpt lat="44.3616367" lon="11.0873817"><ele>527.1666666666666</ele><time>2026-03-22T08:36:25.993Z</time></trkpt><trkpt lat="44.361595" lon="11.087285"><ele>526.3333333333334</ele><time>2026-03-22T08:36:26.994Z</time></trkpt><trkpt lat="44.3615633" lon="11.0871967"><ele>525.5</ele><time>2026-03-22T08:36:27.992Z</time></trkpt><trkpt lat="44.3615417" lon="11.087105"><ele>524.6666666666667</ele><time>2026-03-22T08:36:28.997Z</time></trkpt><trkpt lat="44.3615233" lon="11.0870033"><ele>523.8333333333334</ele><time>2026-03-22T08:36:29.997Z</time></trkpt><trkpt lat="44.3615017" lon="11.0868867"><ele>523.0</ele><time>2026-03-22T08:36:30.992Z</time></trkpt><trkpt lat="44.3614767" lon="11.08676"><ele>523.0</ele><time>2026-03-22T08:36:32.001Z</time></trkpt><trkpt lat="44.3614483" lon="11.0866233"><ele>523.0</ele><time>2026-03-22T08:36:32.999Z</time></trkpt><trkpt lat="44.3614283" lon="11.0864833"><ele>523.0</ele><time>2026-03-22T08:36:33.993Z</time></trkpt><trkpt lat="44.36142" lon="11.08634"><ele>523.0</ele><time>2026-03-22T08:36:34.996Z</time></trkpt><trkpt lat="44.3614167" lon="11.0861983"><ele>523.0</ele><time>2026-03-22T08:36:35.987Z</time></trkpt><trkpt lat="44.3614117" lon="11.0860617"><ele>521.8</ele><time>2026-03-22T08:36:37.001Z</time></trkpt><trkpt lat="44.3614" lon="11.085925"><ele>520.5999999999999</ele><time>2026-03-22T08:36:37.998Z</time></trkpt><trkpt lat="44.3613617" lon="11.0857767"><ele>519.4000000000001</ele><time>2026-03-22T08:36:38.993Z</time></trkpt><trkpt lat="44.3613117" lon="11.0856267"><ele>518.2</ele><time>2026-03-22T08:36:39.99Z</time></trkpt><trkpt lat="44.3612667" lon="11.085475"><ele>517.0</ele><time>2026-03-22T08:36:40.994Z</time></trkpt><trkpt lat="44.361235" lon="11.0853117"><ele>518.0</ele><time>2026-03-22T08:36:41.99Z</time></trkpt><trkpt lat="44.3612133" lon="11.0851433"><ele>519.0</ele><time>2026-03-22T08:36:42.997Z</time></trkpt><trkpt lat="44.3611967" lon="11.0849767"><ele>520.0</ele><time>2026-03-22T08:36:43.999Z</time></trkpt><trkpt lat="44.3611817" lon="11.084825"><ele>521.0</ele><time>2026-03-22T08:36:44.992Z</time></trkpt><trkpt lat="44.3611617" lon="11.0846817"><ele>521.0</ele><time>2026-03-22T08:36:45.998Z</time></trkpt><trkpt lat="44.3611333" lon="11.0845617"><ele>521.0</ele><time>2026-03-22T08:36:46.994Z</time></trkpt><trkpt lat="44.3610817" lon="11.0844517"><ele>521.0</ele><time>2026-03-22T08:36:47.991Z</time></trkpt><trkpt lat="44.3610217" lon="11.0843533"><ele>521.0</ele><time>2026-03-22T08:36:48.993Z</time></trkpt><trkpt lat="44.36096" lon="11.08425"><ele>521.0</ele><time>2026-03-22T08:36:49.988Z</time></trkpt><trkpt lat="44.360915" lon="11.0841167"><ele>520.0</ele><time>2026-03-22T08:36:50.994Z</time></trkpt><trkpt lat="44.3608883" lon="11.0839667"><ele>519.0</ele><time>2026-03-22T08:36:51.989Z</time></trkpt><trkpt lat="44.3608633" lon="11.0838117"><ele>518.0</ele><time>2026-03-22T08:36:52.99Z</time></trkpt><trkpt lat="44.360845" lon="11.08365"><ele>517.0</ele><time>2026-03-22T08:36:53.987Z</time></trkpt><trkpt lat="44.3608333" lon="11.083495"><ele>517.0</ele><time>2026-03-22T08:36:54.991Z</time></trkpt><trkpt lat="44.3608333" lon="11.0833483"><ele>517.0</ele><time>2026-03-22T08:36:55.992Z</time></trkpt><trkpt lat="44.3608433" lon="11.0832183"><ele>517.0</ele><time>2026-03-22T08:36:56.994Z</time></trkpt><trkpt lat="44.36086" lon="11.0831"><ele>517.0</ele><time>2026-03-22T08:36:57.988Z</time></trkpt><trkpt lat="44.3608983" lon="11.0829983"><ele>517.0</ele><time>2026-03-22T08:36:58.994Z</time></trkpt><trkpt lat="44.3609567" lon="11.0829183"><ele>517.0</ele><time>2026-03-22T08:36:59.989Z</time></trkpt><trkpt lat="44.3610267" lon="11.0828567"><ele>516.2</ele><time>2026-03-22T08:37:00.989Z</time></trkpt><trkpt lat="44.3611033" lon="11.08282"><ele>515.4000000000001</ele><time>2026-03-22T08:37:01.994Z</time></trkpt><trkpt lat="44.361185" lon="11.0828367"><ele>514.5999999999999</ele><time>2026-03-22T08:37:02.992Z</time></trkpt><trkpt lat="44.361255" lon="11.0828433"><ele>513.8</ele><time>2026-03-22T08:37:03.99Z</time></trkpt><trkpt lat="44.361355" lon="11.0827667"><ele>513.0</ele><time>2026-03-22T08:37:05.996Z</time></trkpt><trkpt lat="44.36131" lon="11.082605"><ele>513.0</ele><time>2026-03-22T08:37:07.993Z</time></trkpt><trkpt lat="44.3612417" lon="11.0825017"><ele>513.0</ele><time>2026-03-22T08:37:08.999Z</time></trkpt><trkpt lat="44.361165" lon="11.08237"><ele>513.0</ele><time>2026-03-22T08:37:09.987Z</time></trkpt><trkpt lat="44.3610983" lon="11.0822083"><ele>513.0</ele><time>2026-03-22T08:37:11.001Z</time></trkpt><trkpt lat="44.36104" lon="11.0820383"><ele>510.0</ele><time>2026-03-22T08:37:11.996Z</time></trkpt><trkpt lat="44.360985" lon="11.08187"><ele>507.0</ele><time>2026-03-22T08:37:12.988Z</time></trkpt><trkpt lat="44.36093" lon="11.0817067"><ele>504.0</ele><time>2026-03-22T08:37:13.992Z</time></trkpt><trkpt lat="44.3608783" lon="11.08155"><ele>501.0</ele><time>2026-03-22T08:37:14.989Z</time></trkpt><trkpt lat="44.3608367" lon="11.0814017"><ele>499.4</ele><time>2026-03-22T08:37:15.993Z</time></trkpt><trkpt lat="44.3608133" lon="11.0812567"><ele>497.8</ele><time>2026-03-22T08:37:16.993Z</time></trkpt><trkpt lat="44.3608083" lon="11.0810967"><ele>496.19999999999993</ele><time>2026-03-22T08:37:17.999Z</time></trkpt><trkpt lat="44.36083" lon="11.0809383"><ele>494.59999999999997</ele><time>2026-03-22T08:37:19.005Z</time></trkpt><trkpt lat="44.3608717" lon="11.0807933"><ele>493.0</ele><time>2026-03-22T08:37:19.993Z</time></trkpt><trkpt lat="44.360925" lon="11.0806683"><ele>491.6666666666667</ele><time>2026-03-22T08:37:20.995Z</time></trkpt><trkpt lat="44.3609767" lon="11.08056"><ele>490.33333333333337</ele><time>2026-03-22T08:37:21.995Z</time></trkpt><trkpt lat="44.36102" lon="11.080455"><ele>489.0</ele><time>2026-03-22T08:37:22.993Z</time></trkpt><trkpt lat="44.3610417" lon="11.0803533"><ele>487.66666666666663</ele><time>2026-03-22T08:37:23.988Z</time></trkpt><trkpt lat="44.3610367" lon="11.0802433"><ele>486.3333333333333</ele><time>2026-03-22T08:37:24.99Z</time></trkpt><trkpt lat="44.3610117" lon="11.0801233"><ele>485.0</ele><time>2026-03-22T08:37:26.001Z</time></trkpt><trkpt lat="44.3609167" lon="11.0799567"><ele>483.25</ele><time>2026-03-22T08:37:26.989Z</time></trkpt><trkpt lat="44.360845" lon="11.0798"><ele>481.5</ele><time>2026-03-22T08:37:28.001Z</time></trkpt><trkpt lat="44.3607683" lon="11.079645"><ele>479.75</ele><time>2026-03-22T08:37:28.996Z</time></trkpt><trkpt lat="44.3606917" lon="11.0795017"><ele>478.0</ele><time>2026-03-22T08:37:29.994Z</time></trkpt><trkpt lat="44.3606217" lon="11.0793783"><ele>478.0</ele><time>2026-03-22T08:37:30.992Z</time></trkpt><trkpt lat="44.360545" lon="11.0792767"><ele>477.99999999999994</ele><time>2026-03-22T08:37:31.992Z</time></trkpt><trkpt lat="44.36046" lon="11.0791833"><ele>477.99999999999994</ele><time>2026-03-22T08:37:32.995Z</time></trkpt><trkpt lat="44.3603767" lon="11.0790783"><ele>478.0</ele><time>2026-03-22T08:37:33.996Z</time></trkpt><trkpt lat="44.3603117" lon="11.0789467"><ele>478.0</ele><time>2026-03-22T08:37:34.993Z</time></trkpt><trkpt lat="44.3602617" lon="11.078815"><ele>478.25</ele><time>2026-03-22T08:37:35.991Z</time></trkpt><trkpt lat="44.3602017" lon="11.0786817"><ele>478.5</ele><time>2026-03-22T08:37:36.992Z</time></trkpt><trkpt lat="44.36012" lon="11.0785417"><ele>478.75</ele><time>2026-03-22T08:37:37.996Z</time></trkpt><trkpt lat="44.3600367" lon="11.0784083"><ele>479.0</ele><time>2026-03-22T08:37:38.998Z</time></trkpt><trkpt lat="44.3599567" lon="11.0782867"><ele>478.25</ele><time>2026-03-22T08:37:39.993Z</time></trkpt><trkpt lat="44.35988" lon="11.078155"><ele>477.5</ele><time>2026-03-22T08:37:40.992Z</time></trkpt><trkpt lat="44.359805" lon="11.0780217"><ele>476.75</ele><time>2026-03-22T08:37:41.999Z</time></trkpt><trkpt lat="44.3597383" lon="11.0778967"><ele>476.0</ele><time>2026-03-22T08:37:42.993Z</time></trkpt><trkpt lat="44.3596967" lon="11.077775"><ele>477.8</ele><time>2026-03-22T08:37:43.992Z</time></trkpt><trkpt lat="44.3596783" lon="11.0776433"><ele>479.6</ele><time>2026-03-22T08:37:44.995Z</time></trkpt><trkpt lat="44.3596933" lon="11.0775"><ele>481.4</ele><time>2026-03-22T08:37:45.986Z</time></trkpt><trkpt lat="44.3597333" lon="11.07736"><ele>483.2</ele><time>2026-03-22T08:37:46.998Z</time></trkpt><trkpt lat="44.3597933" lon="11.077205"><ele>485.0</ele><time>2026-03-22T08:37:47.994Z</time></trkpt><trkpt lat="44.3598667" lon="11.07705"><ele>485.0</ele><time>2026-03-22T08:37:48.986Z</time></trkpt><trkpt lat="44.3599483" lon="11.0769183"><ele>485.0</ele><time>2026-03-22T08:37:49.988Z</time></trkpt><trkpt lat="44.3600333" lon="11.07681"><ele>485.0</ele><time>2026-03-22T08:37:51Z</time></trkpt><trkpt lat="44.3601283" lon="11.0767267"><ele>485.0</ele><time>2026-03-22T08:37:52.032Z</time></trkpt><trkpt lat="44.360225" lon="11.0766583"><ele>484.99999999999994</ele><time>2026-03-22T08:37:52.991Z</time></trkpt><trkpt lat="44.360315" lon="11.0766017"><ele>485.0</ele><time>2026-03-22T08:37:54.003Z</time></trkpt><trkpt lat="44.3603983" lon="11.0765283"><ele>485.0</ele><time>2026-03-22T08:37:54.993Z</time></trkpt><trkpt lat="44.3604683" lon="11.0764633"><ele>485.0</ele><time>2026-03-22T08:37:55.991Z</time></trkpt><trkpt lat="44.36054" lon="11.0764"><ele>484.99999999999994</ele><time>2026-03-22T08:37:56.991Z</time></trkpt><trkpt lat="44.3605767" lon="11.0763217"><ele>485.0</ele><time>2026-03-22T08:37:57.996Z</time></trkpt><trkpt lat="44.36061" lon="11.076185"><ele>483.8333333333333</ele><time>2026-03-22T08:37:59.988Z</time></trkpt><trkpt lat="44.360685" lon="11.0761183"><ele>482.66666666666663</ele><time>2026-03-22T08:38:03Z</time></trkpt><trkpt lat="44.36075" lon="11.0761067"><ele>481.5</ele><time>2026-03-22T08:38:04.999Z</time></trkpt><trkpt lat="44.3608333" lon="11.0761"><ele>480.33333333333337</ele><time>2026-03-22T08:38:06.994Z</time></trkpt><trkpt lat="44.3609483" lon="11.0761117"><ele>479.1666666666667</ele><time>2026-03-22T08:38:09Z</time></trkpt><trkpt lat="44.361025" lon="11.07611"><ele>478.0</ele><time>2026-03-22T08:38:09.995Z</time></trkpt><trkpt lat="44.36112" lon="11.0761183"><ele>478.0</ele><time>2026-03-22T08:38:10.992Z</time></trkpt><trkpt lat="44.3612233" lon="11.0761283"><ele>477.99999999999994</ele><time>2026-03-22T08:38:11.987Z</time></trkpt><trkpt lat="44.3613267" lon="11.0761283"><ele>477.99999999999994</ele><time>2026-03-22T08:38:12.993Z</time></trkpt><trkpt lat="44.3614333" lon="11.07611"><ele>478.0</ele><time>2026-03-22T08:38:13.993Z</time></trkpt><trkpt lat="44.361535" lon="11.0760833"><ele>478.0</ele><time>2026-03-22T08:38:15Z</time></trkpt><trkpt lat="44.3616283" lon="11.0760517"><ele>476.00000000000006</ele><time>2026-03-22T08:38:15.988Z</time></trkpt><trkpt lat="44.3617183" lon="11.0760233"><ele>474.0</ele><time>2026-03-22T08:38:16.99Z</time></trkpt><trkpt lat="44.3618033" lon="11.07602"><ele>472.0</ele><time>2026-03-22T08:38:17.994Z</time></trkpt><trkpt lat="44.3618817" lon="11.07603"><ele>470.0</ele><time>2026-03-22T08:38:18.993Z</time></trkpt><trkpt lat="44.3619617" lon="11.076035"><ele>468.00000000000006</ele><time>2026-03-22T08:38:19.991Z</time></trkpt><trkpt lat="44.3620417" lon="11.0760317"><ele>466.0</ele><time>2026-03-22T08:38:20.987Z</time></trkpt><trkpt lat="44.3621167" lon="11.076035"><ele>466.0</ele><time>2026-03-22T08:38:21.991Z</time></trkpt><trkpt lat="44.36219" lon="11.0760567"><ele>466.0</ele><time>2026-03-22T08:38:22.995Z</time></trkpt><trkpt lat="44.36226" lon="11.0760833"><ele>466.0</ele><time>2026-03-22T08:38:23.991Z</time></trkpt><trkpt lat="44.3623217" lon="11.076125"><ele>466.0</ele><time>2026-03-22T08:38:24.998Z</time></trkpt><trkpt lat="44.3623767" lon="11.07617"><ele>466.0</ele><time>2026-03-22T08:38:25.989Z</time></trkpt><trkpt lat="44.362435" lon="11.0762133"><ele>466.0</ele><time>2026-03-22T08:38:26.993Z</time></trkpt><trkpt lat="44.362495" lon="11.07624"><ele>466.0</ele><time>2026-03-22T08:38:27.99Z</time></trkpt><trkpt lat="44.36256" lon="11.0762567"><ele>464.83333333333337</ele><time>2026-03-22T08:38:28.993Z</time></trkpt><trkpt lat="44.3626367" lon="11.0762467"><ele>463.6666666666667</ele><time>2026-03-22T08:38:29.994Z</time></trkpt><trkpt lat="44.3627183" lon="11.07621"><ele>462.5</ele><time>2026-03-22T08:38:30.992Z</time></trkpt><trkpt lat="44.3628" lon="11.0761767"><ele>461.33333333333337</ele><time>2026-03-22T08:38:31.992Z</time></trkpt><trkpt lat="44.3628833" lon="11.0761367"><ele>460.1666666666667</ele><time>2026-03-22T08:38:32.994Z</time></trkpt><trkpt lat="44.36296" lon="11.0760817"><ele>459.0</ele><time>2026-03-22T08:38:33.995Z</time></trkpt><trkpt lat="44.3630183" lon="11.0760017"><ele>457.1666666666667</ele><time>2026-03-22T08:38:34.994Z</time></trkpt><trkpt lat="44.3630717" lon="11.075925"><ele>455.33333333333337</ele><time>2026-03-22T08:38:35.99Z</time></trkpt><trkpt lat="44.3631333" lon="11.07585"><ele>453.5</ele><time>2026-03-22T08:38:36.995Z</time></trkpt><trkpt lat="44.3632017" lon="11.0757917"><ele>451.6666666666667</ele><time>2026-03-22T08:38:37.993Z</time></trkpt><trkpt lat="44.3632683" lon="11.075755"><ele>449.83333333333337</ele><time>2026-03-22T08:38:38.997Z</time></trkpt><trkpt lat="44.3633767" lon="11.0757483"><ele>448.0</ele><time>2026-03-22T08:38:40.994Z</time></trkpt><trkpt lat="44.3634367" lon="11.0758583"><ele>448.0</ele><time>2026-03-22T08:38:43.004Z</time></trkpt><trkpt lat="44.3634167" lon="11.07603"><ele>447.99999999999994</ele><time>2026-03-22T08:38:44.988Z</time></trkpt><trkpt lat="44.3633933" lon="11.0761383"><ele>447.99999999999994</ele><time>2026-03-22T08:38:45.989Z</time></trkpt><trkpt lat="44.3633783" lon="11.0762617"><ele>448.0</ele><time>2026-03-22T08:38:46.989Z</time></trkpt><trkpt lat="44.3633633" lon="11.076395"><ele>448.0</ele><time>2026-03-22T08:38:48Z</time></trkpt><trkpt lat="44.363345" lon="11.0765317"><ele>447.59999999999997</ele><time>2026-03-22T08:38:48.998Z</time></trkpt><trkpt lat="44.3633417" lon="11.0766717"><ele>447.19999999999993</ele><time>2026-03-22T08:38:49.987Z</time></trkpt><trkpt lat="44.3633333" lon="11.0768117"><ele>446.8</ele><time>2026-03-22T08:38:50.992Z</time></trkpt><trkpt lat="44.3633183" lon="11.0769467"><ele>446.4</ele><time>2026-03-22T08:38:51.992Z</time></trkpt><trkpt lat="44.36329" lon="11.0770783"><ele>446.0</ele><time>2026-03-22T08:38:52.993Z</time></trkpt><trkpt lat="44.36325" lon="11.07721"><ele>446.0</ele><time>2026-03-22T08:38:53.999Z</time></trkpt><trkpt lat="44.36319" lon="11.0773367"><ele>446.0</ele><time>2026-03-22T08:38:54.987Z</time></trkpt><trkpt lat="44.3631133" lon="11.0774633"><ele>446.0</ele><time>2026-03-22T08:38:55.998Z</time></trkpt><trkpt lat="44.3630333" lon="11.0775883"><ele>446.0</ele><time>2026-03-22T08:38:57.001Z</time></trkpt><trkpt lat="44.3629617" lon="11.0777033"><ele>445.3333333333333</ele><time>2026-03-22T08:38:57.992Z</time></trkpt><trkpt lat="44.3628883" lon="11.0778083"><ele>444.66666666666663</ele><time>2026-03-22T08:38:58.993Z</time></trkpt><trkpt lat="44.3628183" lon="11.0779033"><ele>444.0</ele><time>2026-03-22T08:38:59.991Z</time></trkpt><trkpt lat="44.3627583" lon="11.0779883"><ele>443.33333333333337</ele><time>2026-03-22T08:39:00.996Z</time></trkpt><trkpt lat="44.3627117" lon="11.0780717"><ele>442.6666666666667</ele><time>2026-03-22T08:39:01.999Z</time></trkpt><trkpt lat="44.3626833" lon="11.0781567"><ele>442.0</ele><time>2026-03-22T08:39:02.994Z</time></trkpt><trkpt lat="44.3626733" lon="11.078255"><ele>441.40000000000003</ele><time>2026-03-22T08:39:03.996Z</time></trkpt><trkpt lat="44.36272" lon="11.07837"><ele>440.80000000000007</ele><time>2026-03-22T08:39:04.994Z</time></trkpt><trkpt lat="44.3627717" lon="11.0784767"><ele>440.2</ele><time>2026-03-22T08:39:05.994Z</time></trkpt><trkpt lat="44.3628567" lon="11.078555"><ele>439.6</ele><time>2026-03-22T08:39:07Z</time></trkpt><trkpt lat="44.3629483" lon="11.07861"><ele>439.0</ele><time>2026-03-22T08:39:07.993Z</time></trkpt><trkpt lat="44.3630333" lon="11.0786667"><ele>436.4</ele><time>2026-03-22T08:39:08.992Z</time></trkpt><trkpt lat="44.3631383" lon="11.0786833"><ele>433.79999999999995</ele><time>2026-03-22T08:39:09.994Z</time></trkpt><trkpt lat="44.3632417" lon="11.078635"><ele>431.20000000000005</ele><time>2026-03-22T08:39:10.989Z</time></trkpt><trkpt lat="44.3633483" lon="11.0785817"><ele>428.6</ele><time>2026-03-22T08:39:11.987Z</time></trkpt><trkpt lat="44.3634383" lon="11.07856"><ele>426.0</ele><time>2026-03-22T08:39:12.997Z</time></trkpt><trkpt lat="44.363525" lon="11.0785533"><ele>426.0</ele><time>2026-03-22T08:39:13.992Z</time></trkpt><trkpt lat="44.3636117" lon="11.0785567"><ele>426.0</ele><time>2026-03-22T08:39:14.987Z</time></trkpt><trkpt lat="44.3636983" lon="11.0785833"><ele>426.0</ele><time>2026-03-22T08:39:15.996Z</time></trkpt><trkpt lat="44.363775" lon="11.0786233"><ele>426.0</ele><time>2026-03-22T08:39:16.995Z</time></trkpt><trkpt lat="44.3638467" lon="11.0786733"><ele>426.0</ele><time>2026-03-22T08:39:17.995Z</time></trkpt><trkpt lat="44.3639083" lon="11.0787433"><ele>426.0</ele><time>2026-03-22T08:39:18.995Z</time></trkpt><trkpt lat="44.3639633" lon="11.078815"><ele>424.3333333333333</ele><time>2026-03-22T08:39:19.992Z</time></trkpt><trkpt lat="44.364015" lon="11.078885"><ele>422.66666666666663</ele><time>2026-03-22T08:39:20.992Z</time></trkpt><trkpt lat="44.36406" lon="11.0789533"><ele>421.0</ele><time>2026-03-22T08:39:22Z</time></trkpt><trkpt lat="44.3641433" lon="11.0790617"><ele>419.3333333333333</ele><time>2026-03-22T08:39:23.996Z</time></trkpt><trkpt lat="44.3642217" lon="11.0791333"><ele>417.66666666666663</ele><time>2026-03-22T08:39:26Z</time></trkpt><trkpt lat="44.3642817" lon="11.0791833"><ele>416.0</ele><time>2026-03-22T08:39:27.992Z</time></trkpt><trkpt lat="44.3643483" lon="11.07924"><ele>415.99999999999994</ele><time>2026-03-22T08:39:30.998Z</time></trkpt><trkpt lat="44.364435" lon="11.0792417"><ele>416.0</ele><time>2026-03-22T08:39:50.994Z</time></trkpt><trkpt lat="44.3645083" lon="11.079245"><ele>416.0</ele><time>2026-03-22T08:39:52.996Z</time></trkpt><trkpt lat="44.36459" lon="11.0792267"><ele>416.0</ele><time>2026-03-22T08:39:55.001Z</time></trkpt><trkpt lat="44.36467" lon="11.0791533"><ele>415.99999999999994</ele><time>2026-03-22T08:39:56.991Z</time></trkpt><trkpt lat="44.3647517" lon="11.07906"><ele>416.0</ele><time>2026-03-22T08:39:58.994Z</time></trkpt><trkpt lat="44.3648233" lon="11.0789633"><ele>413.8</ele><time>2026-03-22T08:40:00.995Z</time></trkpt><trkpt lat="44.3649117" lon="11.078895"><ele>411.6</ele><time>2026-03-22T08:40:02.988Z</time></trkpt><trkpt lat="44.3650367" lon="11.0788533"><ele>409.4</ele><time>2026-03-22T08:40:04.993Z</time></trkpt><trkpt lat="44.3651" lon="11.0788567"><ele>407.2</ele><time>2026-03-22T08:40:05.993Z</time></trkpt><trkpt lat="44.3652267" lon="11.0788567"><ele>405.0</ele><time>2026-03-22T08:40:07.995Z</time></trkpt><trkpt lat="44.3653583" lon="11.078875"><ele>405.0</ele><time>2026-03-22T08:40:09.993Z</time></trkpt><trkpt lat="44.365425" lon="11.07889"><ele>405.0</ele><time>2026-03-22T08:40:10.994Z</time></trkpt><trkpt lat="44.3655" lon="11.0788917"><ele>405.0</ele><time>2026-03-22T08:40:11.989Z</time></trkpt><trkpt lat="44.3656017" lon="11.0789217"><ele>405.0</ele><time>2026-03-22T08:40:13.998Z</time></trkpt><trkpt lat="44.3656867" lon="11.0789067"><ele>405.0</ele><time>2026-03-22T08:40:15.994Z</time></trkpt><trkpt lat="44.3657483" lon="11.0788567"><ele>405.0</ele><time>2026-03-22T08:40:17.993Z</time></trkpt><trkpt lat="44.3658133" lon="11.078815"><ele>404.5</ele><time>2026-03-22T08:40:21.995Z</time></trkpt><trkpt lat="44.365875" lon="11.0787883"><ele>404.0</ele><time>2026-03-22T08:40:25.996Z</time></trkpt><trkpt lat="44.3659517" lon="11.078725"><ele>403.5</ele><time>2026-03-22T08:40:28.989Z</time></trkpt><trkpt lat="44.365985" lon="11.078595"><ele>403.0</ele><time>2026-03-22T08:40:30.994Z</time></trkpt><trkpt lat="44.3660283" lon="11.0784667"><ele>402.5</ele><time>2026-03-22T08:40:33Z</time></trkpt><trkpt lat="44.3660733" lon="11.07836"><ele>402.0</ele><time>2026-03-22T08:40:34.993Z</time></trkpt><trkpt lat="44.3661067" lon="11.0782717"><ele>401.0</ele><time>2026-03-22T08:40:36.996Z</time></trkpt><trkpt lat="44.366125" lon="11.07817"><ele>400.0</ele><time>2026-03-22T08:40:38.993Z</time></trkpt><trkpt lat="44.3661267" lon="11.0780333"><ele>399.0</ele><time>2026-03-22T08:40:40.992Z</time></trkpt><trkpt lat="44.366125" lon="11.0779233"><ele>398.0</ele><time>2026-03-22T08:40:42.992Z</time></trkpt><trkpt lat="44.3661067" lon="11.0778183"><ele>397.0</ele><time>2026-03-22T08:40:49.994Z</time></trkpt><trkpt lat="44.3661433" lon="11.07772"><ele>396.0</ele><time>2026-03-22T08:40:52.994Z</time></trkpt><trkpt lat="44.3662317" lon="11.0776917"><ele>396.0</ele><time>2026-03-22T08:40:55.994Z</time></trkpt><trkpt lat="44.366315" lon="11.077695"><ele>396.0</ele><time>2026-03-22T08:40:57.993Z</time></trkpt><trkpt lat="44.3663883" lon="11.0776517"><ele>396.0</ele><time>2026-03-22T08:40:59.999Z</time></trkpt><trkpt lat="44.3664433" lon="11.077555"><ele>396.0</ele><time>2026-03-22T08:41:01.998Z</time></trkpt><trkpt lat="44.366475" lon="11.077425"><ele>396.0</ele><time>2026-03-22T08:41:03.995Z</time></trkpt><trkpt lat="44.3664567" lon="11.0772467"><ele>393.8333333333333</ele><time>2026-03-22T08:41:05.995Z</time></trkpt><trkpt lat="44.3664467" lon="11.0771567"><ele>391.6666666666667</ele><time>2026-03-22T08:41:06.988Z</time></trkpt><trkpt lat="44.3664383" lon="11.0770117"><ele>389.5</ele><time>2026-03-22T08:41:08.994Z</time></trkpt><trkpt lat="44.3664783" lon="11.07689"><ele>387.33333333333337</ele><time>2026-03-22T08:41:10.989Z</time></trkpt><trkpt lat="44.3665233" lon="11.0768067"><ele>385.1666666666667</ele><time>2026-03-22T08:41:13.002Z</time></trkpt><trkpt lat="44.36657" lon="11.0767267"><ele>383.0</ele><time>2026-03-22T08:41:15Z</time></trkpt><trkpt lat="44.3666133" lon="11.0766267"><ele>382.79999999999995</ele><time>2026-03-22T08:41:16.992Z</time></trkpt><trkpt lat="44.3666733" lon="11.0765083"><ele>382.6</ele><time>2026-03-22T08:41:18.988Z</time></trkpt><trkpt lat="44.3667567" lon="11.0764"><ele>382.4</ele><time>2026-03-22T08:41:20.994Z</time></trkpt><trkpt lat="44.36684" lon="11.0763183"><ele>382.20000000000005</ele><time>2026-03-22T08:41:22.989Z</time></trkpt><trkpt lat="44.3669133" lon="11.07623"><ele>382.0</ele><time>2026-03-22T08:41:24.989Z</time></trkpt><trkpt lat="44.3669733" lon="11.0761583"><ele>382.0</ele><time>2026-03-22T08:41:26.998Z</time></trkpt><trkpt lat="44.3670417" lon="11.0760933"><ele>382.0</ele><time>2026-03-22T08:41:28.997Z</time></trkpt><trkpt lat="44.36712" lon="11.0760067"><ele>382.0</ele><time>2026-03-22T08:41:30.994Z</time></trkpt><trkpt lat="44.3671927" lon="11.0758839"><ele>382.0</ele><time>2026-03-22T08:41:32.995Z</time></trkpt><trkpt lat="44.3672582" lon="11.0757649"><ele>382.0</ele><time>2026-03-22T08:41:34.994Z</time></trkpt><trkpt lat="44.367325" lon="11.0756861"><ele>378.8</ele><time>2026-03-22T08:41:36.993Z</time></trkpt><trkpt lat="44.3673893" lon="11.0755926"><ele>375.6</ele><time>2026-03-22T08:41:38.994Z</time></trkpt><trkpt lat="44.367455" lon="11.0755018"><ele>372.40000000000003</ele><time>2026-03-22T08:41:40.995Z</time></trkpt><trkpt lat="44.3675185" lon="11.0754297"><ele>369.20000000000005</ele><time>2026-03-22T08:41:42.994Z</time></trkpt><trkpt lat="44.3675925" lon="11.07537"><ele>366.0</ele><time>2026-03-22T08:41:44.997Z</time></trkpt><trkpt lat="44.3676899" lon="11.0752909"><ele>366.0</ele><time>2026-03-22T08:41:46.992Z</time></trkpt><trkpt lat="44.3677838" lon="11.0752314"><ele>366.0</ele><time>2026-03-22T08:41:48.994Z</time></trkpt><trkpt lat="44.3678658" lon="11.0751671"><ele>366.0</ele><time>2026-03-22T08:41:50.992Z</time></trkpt><trkpt lat="44.3679809" lon="11.0751065"><ele>366.0</ele><time>2026-03-22T08:41:52.992Z</time></trkpt><trkpt lat="44.3680399" lon="11.075069"><ele>366.0</ele><time>2026-03-22T08:41:53.994Z</time></trkpt><trkpt lat="44.36815" lon="11.0749983"><ele>364.3333333333333</ele><time>2026-03-22T08:41:55.991Z</time></trkpt><trkpt lat="44.3682167" lon="11.0749167"><ele>362.6666666666667</ele><time>2026-03-22T08:41:57.994Z</time></trkpt><trkpt lat="44.3682817" lon="11.0748733"><ele>361.0</ele><time>2026-03-22T08:41:59.996Z</time></trkpt><trkpt lat="44.3683733" lon="11.074845"><ele>359.33333333333337</ele><time>2026-03-22T08:42:02.996Z</time></trkpt><trkpt lat="44.3684367" lon="11.0748417"><ele>357.6666666666667</ele><time>2026-03-22T08:42:04.997Z</time></trkpt><trkpt lat="44.36843" lon="11.0747483"><ele>356.0</ele><time>2026-03-22T08:42:12.993Z</time></trkpt><trkpt lat="44.3684217" lon="11.0746467"><ele>356.0</ele><time>2026-03-22T08:42:16.991Z</time></trkpt><trkpt lat="44.368455" lon="11.0745333"><ele>356.0</ele><time>2026-03-22T08:42:19.989Z</time></trkpt><trkpt lat="44.368445" lon="11.074435"><ele>356.0</ele><time>2026-03-22T08:42:21.993Z</time></trkpt><trkpt lat="44.368445" lon="11.0743133"><ele>356.0</ele><time>2026-03-22T08:42:24.988Z</time></trkpt><trkpt lat="44.368475" lon="11.0742283"><ele>356.0</ele><time>2026-03-22T08:42:27.994Z</time></trkpt><trkpt lat="44.3685567" lon="11.074155"><ele>356.0</ele><time>2026-03-22T08:42:30.994Z</time></trkpt><trkpt lat="44.3686383" lon="11.07413"><ele>356.8</ele><time>2026-03-22T08:42:33.999Z</time></trkpt><trkpt lat="44.3687133" lon="11.0740633"><ele>357.6</ele><time>2026-03-22T08:42:36.989Z</time></trkpt><trkpt lat="44.36882" lon="11.0740167"><ele>358.4</ele><time>2026-03-22T08:42:38.998Z</time></trkpt><trkpt lat="44.3689217" lon="11.0739783"><ele>359.2</ele><time>2026-03-22T08:42:40.99Z</time></trkpt><trkpt lat="44.3690133" lon="11.07398"><ele>360.0</ele><time>2026-03-22T08:42:42.992Z</time></trkpt><trkpt lat="44.3690767" lon="11.0740167"><ele>360.0</ele><time>2026-03-22T08:42:45.001Z</time></trkpt><trkpt lat="44.3691683" lon="11.074025"><ele>360.0</ele><time>2026-03-22T08:42:46.989Z</time></trkpt><trkpt lat="44.36927" lon="11.073985"><ele>360.0</ele><time>2026-03-22T08:42:48.993Z</time></trkpt><trkpt lat="44.36934" lon="11.0739417"><ele>360.0</ele><time>2026-03-22T08:42:49.99Z</time></trkpt><trkpt lat="44.369416" lon="11.0738924"><ele>360.0</ele><time>2026-03-22T08:42:50.99Z</time></trkpt><trkpt lat="44.369491" lon="11.0738407"><ele>360.0</ele><time>2026-03-22T08:42:51.994Z</time></trkpt><trkpt lat="44.3695593" lon="11.0737883"><ele>360.0</ele><time>2026-03-22T08:42:53Z</time></trkpt><trkpt lat="44.3696187" lon="11.0737422"><ele>360.0</ele><time>2026-03-22T08:42:53.994Z</time></trkpt><trkpt lat="44.3697002" lon="11.0737039"><ele>360.0</ele><time>2026-03-22T08:42:55.986Z</time></trkpt><trkpt lat="44.3697634" lon="11.0737027"><ele>360.0</ele><time>2026-03-22T08:42:57.991Z</time></trkpt><trkpt lat="44.3698833" lon="11.073725"><ele>360.0</ele><time>2026-03-22T08:43:24.989Z</time></trkpt><trkpt lat="44.36997" lon="11.0736717"><ele>360.0</ele><time>2026-03-22T08:43:26.988Z</time></trkpt><trkpt lat="44.370055" lon="11.073615"><ele>359.1666666666667</ele><time>2026-03-22T08:43:28.988Z</time></trkpt><trkpt lat="44.370125" lon="11.07354"><ele>358.3333333333333</ele><time>2026-03-22T08:43:30.994Z</time></trkpt><trkpt lat="44.3702033" lon="11.0734183"><ele>357.5</ele><time>2026-03-22T08:43:32.996Z</time></trkpt><trkpt lat="44.37025" lon="11.0733367"><ele>356.66666666666663</ele><time>2026-03-22T08:43:33.993Z</time></trkpt><trkpt lat="44.3703067" lon="11.07326"><ele>355.8333333333333</ele><time>2026-03-22T08:43:34.99Z</time></trkpt><trkpt lat="44.3703667" lon="11.0731817"><ele>355.0</ele><time>2026-03-22T08:43:35.989Z</time></trkpt><trkpt lat="44.3704333" lon="11.0731017"><ele>355.0</ele><time>2026-03-22T08:43:36.994Z</time></trkpt><trkpt lat="44.3705067" lon="11.0730283"><ele>355.0</ele><time>2026-03-22T08:43:37.995Z</time></trkpt><trkpt lat="44.3705817" lon="11.0729533"><ele>355.0</ele><time>2026-03-22T08:43:38.989Z</time></trkpt><trkpt lat="44.37066" lon="11.0728783"><ele>355.0</ele><time>2026-03-22T08:43:39.996Z</time></trkpt><trkpt lat="44.370735" lon="11.072795"><ele>355.0</ele><time>2026-03-22T08:43:40.996Z</time></trkpt><trkpt lat="44.370815" lon="11.0727133"><ele>354.5</ele><time>2026-03-22T08:43:41.996Z</time></trkpt><trkpt lat="44.3708933" lon="11.0726383"><ele>354.0</ele><time>2026-03-22T08:43:42.991Z</time></trkpt><trkpt lat="44.370965" lon="11.0725717"><ele>353.5</ele><time>2026-03-22T08:43:43.996Z</time></trkpt><trkpt lat="44.37102" lon="11.0725133"><ele>353.0</ele><time>2026-03-22T08:43:44.99Z</time></trkpt><trkpt lat="44.371115" lon="11.0724217"><ele>352.5</ele><time>2026-03-22T08:43:46.995Z</time></trkpt><trkpt lat="44.37118" lon="11.0723683"><ele>352.0</ele><time>2026-03-22T08:43:48.997Z</time></trkpt><trkpt lat="44.3712483" lon="11.0724567"><ele>349.0</ele><time>2026-03-22T08:43:50.994Z</time></trkpt><trkpt lat="44.3712833" lon="11.0725383"><ele>346.0</ele><time>2026-03-22T08:43:51.995Z</time></trkpt><trkpt lat="44.371335" lon="11.0726217"><ele>343.0</ele><time>2026-03-22T08:43:52.989Z</time></trkpt><trkpt lat="44.371385" lon="11.0726867"><ele>340.0</ele><time>2026-03-22T08:43:53.99Z</time></trkpt><trkpt lat="44.3714804" lon="11.0727715"><ele>337.0</ele><time>2026-03-22T08:43:55.989Z</time></trkpt><trkpt lat="44.3715492" lon="11.0727468"><ele>334.0</ele><time>2026-03-22T08:43:58.001Z</time></trkpt><trkpt lat="44.3715998" lon="11.0726172"><ele>333.0</ele><time>2026-03-22T08:43:59.997Z</time></trkpt><trkpt lat="44.3716289" lon="11.0725288"><ele>332.0</ele><time>2026-03-22T08:44:00.99Z</time></trkpt><trkpt lat="44.3716587" lon="11.0724284"><ele>331.0</ele><time>2026-03-22T08:44:01.998Z</time></trkpt><trkpt lat="44.3716864" lon="11.0723253"><ele>330.0</ele><time>2026-03-22T08:44:02.993Z</time></trkpt><trkpt lat="44.3717158" lon="11.0722281"><ele>329.0</ele><time>2026-03-22T08:44:03.991Z</time></trkpt><trkpt lat="44.3717415" lon="11.0721317"><ele>328.0</ele><time>2026-03-22T08:44:04.999Z</time></trkpt><trkpt lat="44.3717632" lon="11.0720367"><ele>327.0</ele><time>2026-03-22T08:44:05.989Z</time></trkpt><trkpt lat="44.3717804" lon="11.0719387"><ele>327.1666666666667</ele><time>2026-03-22T08:44:06.998Z</time></trkpt><trkpt lat="44.3717978" lon="11.0718414"><ele>327.3333333333333</ele><time>2026-03-22T08:44:07.998Z</time></trkpt><trkpt lat="44.3718195" lon="11.0717385"><ele>327.5</ele><time>2026-03-22T08:44:08.99Z</time></trkpt><trkpt lat="44.3718418" lon="11.0716247"><ele>327.66666666666663</ele><time>2026-03-22T08:44:09.991Z</time></trkpt><trkpt lat="44.371862" lon="11.0715093"><ele>327.8333333333333</ele><time>2026-03-22T08:44:10.991Z</time></trkpt><trkpt lat="44.3718802" lon="11.0713994"><ele>328.0</ele><time>2026-03-22T08:44:11.992Z</time></trkpt><trkpt lat="44.3718935" lon="11.0712876"><ele>328.0</ele><time>2026-03-22T08:44:12.994Z</time></trkpt><trkpt lat="44.3719034" lon="11.0711716"><ele>328.0</ele><time>2026-03-22T08:44:13.995Z</time></trkpt><trkpt lat="44.3719141" lon="11.0710574"><ele>328.0</ele><time>2026-03-22T08:44:14.993Z</time></trkpt><trkpt lat="44.3719285" lon="11.0709469"><ele>328.0</ele><time>2026-03-22T08:44:15.991Z</time></trkpt><trkpt lat="44.3719417" lon="11.0708341"><ele>328.0</ele><time>2026-03-22T08:44:16.99Z</time></trkpt><trkpt lat="44.371956" lon="11.0707252"><ele>328.0</ele><time>2026-03-22T08:44:17.997Z</time></trkpt><trkpt lat="44.3719669" lon="11.0706196"><ele>327.66666666666663</ele><time>2026-03-22T08:44:19Z</time></trkpt><trkpt lat="44.371977" lon="11.0705137"><ele>327.3333333333333</ele><time>2026-03-22T08:44:19.988Z</time></trkpt><trkpt lat="44.3719905" lon="11.0703986"><ele>327.0</ele><time>2026-03-22T08:44:20.99Z</time></trkpt><trkpt lat="44.3720033" lon="11.0702775"><ele>326.6666666666667</ele><time>2026-03-22T08:44:21.996Z</time></trkpt><trkpt lat="44.37202" lon="11.0701558"><ele>326.33333333333337</ele><time>2026-03-22T08:44:22.989Z</time></trkpt><trkpt lat="44.372036" lon="11.0700334"><ele>326.0</ele><time>2026-03-22T08:44:23.996Z</time></trkpt><trkpt lat="44.3720537" lon="11.0699076"><ele>325.8</ele><time>2026-03-22T08:44:24.998Z</time></trkpt><trkpt lat="44.3720684" lon="11.0697834"><ele>325.6</ele><time>2026-03-22T08:44:25.997Z</time></trkpt><trkpt lat="44.3720834" lon="11.0696636"><ele>325.4</ele><time>2026-03-22T08:44:26.992Z</time></trkpt><trkpt lat="44.372102" lon="11.0695404"><ele>325.2</ele><time>2026-03-22T08:44:27.99Z</time></trkpt><trkpt lat="44.3721274" lon="11.0694158"><ele>325.0</ele><time>2026-03-22T08:44:28.988Z</time></trkpt><trkpt lat="44.3721571" lon="11.0692936"><ele>325.0</ele><time>2026-03-22T08:44:29.991Z</time></trkpt><trkpt lat="44.3721877" lon="11.0691694"><ele>325.0</ele><time>2026-03-22T08:44:30.997Z</time></trkpt><trkpt lat="44.3722217" lon="11.0690473"><ele>325.0</ele><time>2026-03-22T08:44:31.995Z</time></trkpt><trkpt lat="44.372261" lon="11.0689274"><ele>325.0</ele><time>2026-03-22T08:44:33.001Z</time></trkpt><trkpt lat="44.3723014" lon="11.0688071"><ele>325.0</ele><time>2026-03-22T08:44:33.996Z</time></trkpt><trkpt lat="44.3723419" lon="11.0686928"><ele>323.0</ele><time>2026-03-22T08:44:34.989Z</time></trkpt><trkpt lat="44.3723878" lon="11.0685859"><ele>321.0</ele><time>2026-03-22T08:44:35.989Z</time></trkpt><trkpt lat="44.3724354" lon="11.0684768"><ele>319.0</ele><time>2026-03-22T08:44:36.996Z</time></trkpt><trkpt lat="44.3724868" lon="11.0683688"><ele>317.0</ele><time>2026-03-22T08:44:37.995Z</time></trkpt><trkpt lat="44.3725467" lon="11.0682646"><ele>315.0</ele><time>2026-03-22T08:44:38.996Z</time></trkpt><trkpt lat="44.372609" lon="11.0681627"><ele>314.0</ele><time>2026-03-22T08:44:39.996Z</time></trkpt><trkpt lat="44.3726711" lon="11.0680599"><ele>313.0</ele><time>2026-03-22T08:44:40.994Z</time></trkpt><trkpt lat="44.3727362" lon="11.0679514"><ele>312.0</ele><time>2026-03-22T08:44:42Z</time></trkpt><trkpt lat="44.3728029" lon="11.067846"><ele>311.0</ele><time>2026-03-22T08:44:42.995Z</time></trkpt><trkpt lat="44.372867" lon="11.0677479"><ele>310.0</ele><time>2026-03-22T08:44:43.995Z</time></trkpt><trkpt lat="44.3729264" lon="11.0676615"><ele>310.0</ele><time>2026-03-22T08:44:44.991Z</time></trkpt><trkpt lat="44.3729897" lon="11.0675969"><ele>310.0</ele><time>2026-03-22T08:44:45.991Z</time></trkpt><trkpt lat="44.3730557" lon="11.0675451"><ele>310.0</ele><time>2026-03-22T08:44:46.987Z</time></trkpt><trkpt lat="44.3731231" lon="11.0674932"><ele>310.0</ele><time>2026-03-22T08:44:47.989Z</time></trkpt><trkpt lat="44.3731933" lon="11.0674364"><ele>310.0</ele><time>2026-03-22T08:44:48.989Z</time></trkpt><trkpt lat="44.3732637" lon="11.0673834"><ele>310.0</ele><time>2026-03-22T08:44:49.989Z</time></trkpt><trkpt lat="44.3733355" lon="11.0673361"><ele>307.8333333333333</ele><time>2026-03-22T08:44:50.994Z</time></trkpt><trkpt lat="44.3734071" lon="11.0672983"><ele>305.66666666666663</ele><time>2026-03-22T08:44:51.989Z</time></trkpt><trkpt lat="44.3734804" lon="11.0672797"><ele>303.5</ele><time>2026-03-22T08:44:52.991Z</time></trkpt><trkpt lat="44.3735581" lon="11.0672688"><ele>301.3333333333333</ele><time>2026-03-22T08:44:53.997Z</time></trkpt><trkpt lat="44.3736405" lon="11.0672616"><ele>299.1666666666667</ele><time>2026-03-22T08:44:54.998Z</time></trkpt><trkpt lat="44.3737233" lon="11.0672566"><ele>297.0</ele><time>2026-03-22T08:44:55.996Z</time></trkpt><trkpt lat="44.373811" lon="11.0672513"><ele>296.8</ele><time>2026-03-22T08:44:56.995Z</time></trkpt><trkpt lat="44.3739003" lon="11.0672425"><ele>296.6</ele><time>2026-03-22T08:44:57.996Z</time></trkpt><trkpt lat="44.373995" lon="11.0672352"><ele>296.40000000000003</ele><time>2026-03-22T08:44:58.99Z</time></trkpt><trkpt lat="44.3740962" lon="11.0672273"><ele>296.2</ele><time>2026-03-22T08:44:59.998Z</time></trkpt><trkpt lat="44.3741983" lon="11.067221"><ele>296.0</ele><time>2026-03-22T08:45:00.991Z</time></trkpt><trkpt lat="44.3743067" lon="11.0672217"><ele>296.0</ele><time>2026-03-22T08:45:01.992Z</time></trkpt><trkpt lat="44.3744167" lon="11.067225"><ele>296.0</ele><time>2026-03-22T08:45:02.993Z</time></trkpt><trkpt lat="44.3745283" lon="11.067235"><ele>296.0</ele><time>2026-03-22T08:45:03.992Z</time></trkpt><trkpt lat="44.374635" lon="11.0672417"><ele>296.0</ele><time>2026-03-22T08:45:04.99Z</time></trkpt><trkpt lat="44.374745" lon="11.0672517"><ele>296.0</ele><time>2026-03-22T08:45:05.998Z</time></trkpt><trkpt lat="44.374855" lon="11.067255"><ele>296.6</ele><time>2026-03-22T08:45:06.99Z</time></trkpt><trkpt lat="44.3749567" lon="11.0672617"><ele>297.20000000000005</ele><time>2026-03-22T08:45:07.991Z</time></trkpt><trkpt lat="44.375055" lon="11.0672683"><ele>297.79999999999995</ele><time>2026-03-22T08:45:08.998Z</time></trkpt><trkpt lat="44.3751567" lon="11.0672833"><ele>298.4</ele><time>2026-03-22T08:45:09.988Z</time></trkpt><trkpt lat="44.3752533" lon="11.0672967"><ele>299.0</ele><time>2026-03-22T08:45:11.002Z</time></trkpt><trkpt lat="44.3753383" lon="11.0673133"><ele>299.0</ele><time>2026-03-22T08:45:11.99Z</time></trkpt><trkpt lat="44.37542" lon="11.0673533"><ele>299.0</ele><time>2026-03-22T08:45:12.992Z</time></trkpt><trkpt lat="44.375505" lon="11.06742"><ele>299.0</ele><time>2026-03-22T08:45:13.989Z</time></trkpt><trkpt lat="44.3755883" lon="11.0675067"><ele>299.0</ele><time>2026-03-22T08:45:14.993Z</time></trkpt><trkpt lat="44.3756667" lon="11.0675817"><ele>299.0</ele><time>2026-03-22T08:45:15.994Z</time></trkpt><trkpt lat="44.3757383" lon="11.0676517"><ele>298.6666666666667</ele><time>2026-03-22T08:45:16.994Z</time></trkpt><trkpt lat="44.3758033" lon="11.0677067"><ele>298.33333333333337</ele><time>2026-03-22T08:45:17.994Z</time></trkpt><trkpt lat="44.37586" lon="11.067755"><ele>298.0</ele><time>2026-03-22T08:45:18.997Z</time></trkpt><trkpt lat="44.3759467" lon="11.06781"><ele>297.6666666666667</ele><time>2026-03-22T08:45:20.998Z</time></trkpt><trkpt lat="44.3760133" lon="11.067765"><ele>297.3333333333333</ele><time>2026-03-22T08:45:22.991Z</time></trkpt><trkpt lat="44.376075" lon="11.067625"><ele>297.0</ele><time>2026-03-22T08:45:24.99Z</time></trkpt><trkpt lat="44.3761133" lon="11.0675283"><ele>298.0</ele><time>2026-03-22T08:45:25.99Z</time></trkpt><trkpt lat="44.37616" lon="11.0673967"><ele>299.0</ele><time>2026-03-22T08:45:26.998Z</time></trkpt><trkpt lat="44.376205" lon="11.067265"><ele>300.0</ele><time>2026-03-22T08:45:27.999Z</time></trkpt><trkpt lat="44.3762467" lon="11.0671483"><ele>301.0</ele><time>2026-03-22T08:45:28.988Z</time></trkpt><trkpt lat="44.3762833" lon="11.0670467"><ele>302.0</ele><time>2026-03-22T08:45:29.995Z</time></trkpt><trkpt lat="44.3763167" lon="11.06696"><ele>302.8</ele><time>2026-03-22T08:45:30.999Z</time></trkpt><trkpt lat="44.3764017" lon="11.06683"><ele>303.6</ele><time>2026-03-22T08:45:32.989Z</time></trkpt><trkpt lat="44.37646" lon="11.0667883"><ele>304.40000000000003</ele><time>2026-03-22T08:45:33.998Z</time></trkpt><trkpt lat="44.376535" lon="11.0667767"><ele>305.2</ele><time>2026-03-22T08:45:34.99Z</time></trkpt><trkpt lat="44.37662" lon="11.0667883"><ele>306.0</ele><time>2026-03-22T08:45:35.99Z</time></trkpt><trkpt lat="44.3767283" lon="11.0668133"><ele>306.0</ele><time>2026-03-22T08:45:36.998Z</time></trkpt><trkpt lat="44.3768683" lon="11.0668833"><ele>306.0</ele><time>2026-03-22T08:45:37.995Z</time></trkpt><trkpt lat="44.3769967" lon="11.0669517"><ele>306.0</ele><time>2026-03-22T08:45:38.989Z</time></trkpt><trkpt lat="44.377125" lon="11.0670183"><ele>306.0</ele><time>2026-03-22T08:45:39.995Z</time></trkpt><trkpt lat="44.3772517" lon="11.06709"><ele>308.0</ele><time>2026-03-22T08:45:40.992Z</time></trkpt><trkpt lat="44.37737" lon="11.0671633"><ele>310.0</ele><time>2026-03-22T08:45:41.992Z</time></trkpt><trkpt lat="44.3774917" lon="11.0672433"><ele>312.0</ele><time>2026-03-22T08:45:42.989Z</time></trkpt><trkpt lat="44.3776117" lon="11.0673417"><ele>314.0</ele><time>2026-03-22T08:45:43.995Z</time></trkpt><trkpt lat="44.3777267" lon="11.067445"><ele>313.0</ele><time>2026-03-22T08:45:44.988Z</time></trkpt><trkpt lat="44.3778417" lon="11.0675467"><ele>312.0</ele><time>2026-03-22T08:45:45.992Z</time></trkpt><trkpt lat="44.3779567" lon="11.0676483"><ele>311.0</ele><time>2026-03-22T08:45:46.995Z</time></trkpt><trkpt lat="44.378075" lon="11.0677433"><ele>310.0</ele><time>2026-03-22T08:45:48.002Z</time></trkpt><trkpt lat="44.378195" lon="11.0678317"><ele>310.0</ele><time>2026-03-22T08:45:48.992Z</time></trkpt><trkpt lat="44.3783217" lon="11.0679217"><ele>310.0</ele><time>2026-03-22T08:45:49.988Z</time></trkpt><trkpt lat="44.37845" lon="11.0680117"><ele>310.0</ele><time>2026-03-22T08:45:50.991Z</time></trkpt><trkpt lat="44.3785783" lon="11.06809"><ele>310.0</ele><time>2026-03-22T08:45:51.989Z</time></trkpt><trkpt lat="44.37871" lon="11.068165"><ele>310.0</ele><time>2026-03-22T08:45:52.99Z</time></trkpt><trkpt lat="44.3788433" lon="11.06824"><ele>310.0</ele><time>2026-03-22T08:45:53.998Z</time></trkpt><trkpt lat="44.378975" lon="11.0683117"><ele>310.0</ele><time>2026-03-22T08:45:54.996Z</time></trkpt><trkpt lat="44.3791" lon="11.0683783"><ele>310.0</ele><time>2026-03-22T08:45:55.989Z</time></trkpt><trkpt lat="44.3792217" lon="11.0684467"><ele>308.2</ele><time>2026-03-22T08:45:56.989Z</time></trkpt><trkpt lat="44.3793367" lon="11.068515"><ele>306.4</ele><time>2026-03-22T08:45:57.989Z</time></trkpt><trkpt lat="44.3794417" lon="11.0685733"><ele>304.6</ele><time>2026-03-22T08:45:58.989Z</time></trkpt><trkpt lat="44.3795283" lon="11.0686117"><ele>302.8</ele><time>2026-03-22T08:45:59.996Z</time></trkpt><trkpt lat="44.3796033" lon="11.0686467"><ele>301.0</ele><time>2026-03-22T08:46:00.989Z</time></trkpt><trkpt lat="44.3796633" lon="11.0686767"><ele>300.40000000000003</ele><time>2026-03-22T08:46:01.99Z</time></trkpt><trkpt lat="44.3797767" lon="11.068755"><ele>299.8</ele><time>2026-03-22T08:46:04Z</time></trkpt><trkpt lat="44.3798383" lon="11.06883"><ele>299.20000000000005</ele><time>2026-03-22T08:46:04.99Z</time></trkpt><trkpt lat="44.3799017" lon="11.0689233"><ele>298.6</ele><time>2026-03-22T08:46:05.998Z</time></trkpt><trkpt lat="44.3799783" lon="11.0690333"><ele>298.0</ele><time>2026-03-22T08:46:06.997Z</time></trkpt><trkpt lat="44.3800633" lon="11.06915"><ele>295.75</ele><time>2026-03-22T08:46:07.995Z</time></trkpt><trkpt lat="44.3801533" lon="11.06927"><ele>293.5</ele><time>2026-03-22T08:46:08.996Z</time></trkpt><trkpt lat="44.3802433" lon="11.0693883"><ele>291.25</ele><time>2026-03-22T08:46:09.997Z</time></trkpt><trkpt lat="44.3803317" lon="11.0695067"><ele>289.0</ele><time>2026-03-22T08:46:10.994Z</time></trkpt><trkpt lat="44.3804167" lon="11.0696267"><ele>289.0</ele><time>2026-03-22T08:46:11.993Z</time></trkpt><trkpt lat="44.3804983" lon="11.0697367"><ele>289.0</ele><time>2026-03-22T08:46:12.994Z</time></trkpt><trkpt lat="44.3805717" lon="11.069845"><ele>289.0</ele><time>2026-03-22T08:46:13.99Z</time></trkpt><trkpt lat="44.3806317" lon="11.069955"><ele>289.0</ele><time>2026-03-22T08:46:15Z</time></trkpt><trkpt lat="44.3806767" lon="11.0700817"><ele>289.0</ele><time>2026-03-22T08:46:15.997Z</time></trkpt><trkpt lat="44.3806967" lon="11.0702283"><ele>288.2</ele><time>2026-03-22T08:46:16.993Z</time></trkpt><trkpt lat="44.3807083" lon="11.0703783"><ele>287.4</ele><time>2026-03-22T08:46:18.002Z</time></trkpt><trkpt lat="44.3807367" lon="11.0705233"><ele>286.6</ele><time>2026-03-22T08:46:18.996Z</time></trkpt><trkpt lat="44.3807867" lon="11.0706533"><ele>285.8</ele><time>2026-03-22T08:46:19.991Z</time></trkpt><trkpt lat="44.380855" lon="11.0707683"><ele>285.0</ele><time>2026-03-22T08:46:20.99Z</time></trkpt><trkpt lat="44.3809567" lon="11.0708483"><ele>283.75</ele><time>2026-03-22T08:46:21.989Z</time></trkpt><trkpt lat="44.38107" lon="11.070915"><ele>282.5</ele><time>2026-03-22T08:46:22.997Z</time></trkpt><trkpt lat="44.3811917" lon="11.0709783"><ele>281.25</ele><time>2026-03-22T08:46:23.989Z</time></trkpt><trkpt lat="44.38131" lon="11.0710433"><ele>280.0</ele><time>2026-03-22T08:46:24.992Z</time></trkpt><trkpt lat="44.3814317" lon="11.0711117"><ele>279.75</ele><time>2026-03-22T08:46:25.996Z</time></trkpt><trkpt lat="44.381555" lon="11.0711783"><ele>279.5</ele><time>2026-03-22T08:46:26.993Z</time></trkpt><trkpt lat="44.3816767" lon="11.0712417"><ele>279.25</ele><time>2026-03-22T08:46:27.996Z</time></trkpt><trkpt lat="44.3817967" lon="11.0713"><ele>279.0</ele><time>2026-03-22T08:46:28.996Z</time></trkpt><trkpt lat="44.3819217" lon="11.0713417"><ele>279.0</ele><time>2026-03-22T08:46:29.997Z</time></trkpt><trkpt lat="44.3820517" lon="11.071385"><ele>279.0</ele><time>2026-03-22T08:46:30.993Z</time></trkpt><trkpt lat="44.3821817" lon="11.071415"><ele>279.0</ele><time>2026-03-22T08:46:31.989Z</time></trkpt><trkpt lat="44.3823117" lon="11.0714333"><ele>279.0</ele><time>2026-03-22T08:46:32.997Z</time></trkpt><trkpt lat="44.382445" lon="11.0714467"><ele>278.5</ele><time>2026-03-22T08:46:33.991Z</time></trkpt><trkpt lat="44.3825783" lon="11.0714533"><ele>278.0</ele><time>2026-03-22T08:46:34.996Z</time></trkpt><trkpt lat="44.3827117" lon="11.0714583"><ele>277.5</ele><time>2026-03-22T08:46:35.995Z</time></trkpt><trkpt lat="44.382845" lon="11.0714617"><ele>277.0</ele><time>2026-03-22T08:46:36.992Z</time></trkpt><trkpt lat="44.3829833" lon="11.0714633"><ele>277.25</ele><time>2026-03-22T08:46:37.995Z</time></trkpt><trkpt lat="44.383125" lon="11.0714617"><ele>277.5</ele><time>2026-03-22T08:46:38.994Z</time></trkpt><trkpt lat="44.38327" lon="11.07146"><ele>277.75</ele><time>2026-03-22T08:46:39.997Z</time></trkpt><trkpt lat="44.3834183" lon="11.0714567"><ele>278.0</ele><time>2026-03-22T08:46:40.996Z</time></trkpt><trkpt lat="44.3835683" lon="11.0714533"><ele>278.0</ele><time>2026-03-22T08:46:41.992Z</time></trkpt><trkpt lat="44.3837183" lon="11.0714467"><ele>278.0</ele><time>2026-03-22T08:46:43.002Z</time></trkpt><trkpt lat="44.38387" lon="11.071435"><ele>278.0</ele><time>2026-03-22T08:46:44Z</time></trkpt><trkpt lat="44.384025" lon="11.071425"><ele>277.0</ele><time>2026-03-22T08:46:44.996Z</time></trkpt><trkpt lat="44.3841783" lon="11.0714133"><ele>276.0</ele><time>2026-03-22T08:46:45.99Z</time></trkpt><trkpt lat="44.38433" lon="11.0714"><ele>275.0</ele><time>2026-03-22T08:46:46.991Z</time></trkpt><trkpt lat="44.3844817" lon="11.0713867"><ele>275.0</ele><time>2026-03-22T08:46:48.001Z</time></trkpt><trkpt lat="44.3846333" lon="11.07138"><ele>275.0</ele><time>2026-03-22T08:46:48.99Z</time></trkpt><trkpt lat="44.384785" lon="11.0713717"><ele>275.0</ele><time>2026-03-22T08:46:49.991Z</time></trkpt><trkpt lat="44.3849383" lon="11.0713633"><ele>274.33333333333337</ele><time>2026-03-22T08:46:50.997Z</time></trkpt><trkpt lat="44.3850933" lon="11.071355"><ele>273.6666666666667</ele><time>2026-03-22T08:46:51.998Z</time></trkpt><trkpt lat="44.3852483" lon="11.0713483"><ele>273.0</ele><time>2026-03-22T08:46:52.995Z</time></trkpt><trkpt lat="44.3854033" lon="11.07134"><ele>273.0</ele><time>2026-03-22T08:46:53.995Z</time></trkpt><trkpt lat="44.3855617" lon="11.0713317"><ele>273.0</ele><time>2026-03-22T08:46:54.99Z</time></trkpt><trkpt lat="44.3857183" lon="11.0713267"><ele>273.0</ele><time>2026-03-22T08:46:55.99Z</time></trkpt><trkpt lat="44.38587" lon="11.0713167"><ele>273.0</ele><time>2026-03-22T08:46:56.995Z</time></trkpt><trkpt lat="44.386025" lon="11.0713033"><ele>273.0</ele><time>2026-03-22T08:46:57.989Z</time></trkpt><trkpt lat="44.3861767" lon="11.07129"><ele>273.0</ele><time>2026-03-22T08:46:58.994Z</time></trkpt><trkpt lat="44.3863283" lon="11.0712833"><ele>272.3333333333333</ele><time>2026-03-22T08:46:59.999Z</time></trkpt><trkpt lat="44.386485" lon="11.0712817"><ele>271.66666666666663</ele><time>2026-03-22T08:47:00.996Z</time></trkpt><trkpt lat="44.3866383" lon="11.0712767"><ele>271.0</ele><time>2026-03-22T08:47:01.989Z</time></trkpt><trkpt lat="44.3867933" lon="11.0712717"><ele>271.0</ele><time>2026-03-22T08:47:02.994Z</time></trkpt><trkpt lat="44.3869517" lon="11.0712617"><ele>271.0</ele><time>2026-03-22T08:47:03.996Z</time></trkpt><trkpt lat="44.3871117" lon="11.0712483"><ele>271.0</ele><time>2026-03-22T08:47:04.991Z</time></trkpt><trkpt lat="44.3872733" lon="11.0712317"><ele>270.0</ele><time>2026-03-22T08:47:05.993Z</time></trkpt><trkpt lat="44.3874267" lon="11.07122"><ele>269.0</ele><time>2026-03-22T08:47:06.993Z</time></trkpt><trkpt lat="44.3875783" lon="11.0712133"><ele>268.0</ele><time>2026-03-22T08:47:07.996Z</time></trkpt><trkpt lat="44.3877317" lon="11.0712083"><ele>268.0</ele><time>2026-03-22T08:47:08.994Z</time></trkpt><trkpt lat="44.3878817" lon="11.0712017"><ele>268.0</ele><time>2026-03-22T08:47:09.991Z</time></trkpt><trkpt lat="44.3880233" lon="11.071195"><ele>268.0</ele><time>2026-03-22T08:47:10.998Z</time></trkpt><trkpt lat="44.3881583" lon="11.0711917"><ele>268.0</ele><time>2026-03-22T08:47:11.991Z</time></trkpt><trkpt lat="44.3882817" lon="11.0711883"><ele>268.0</ele><time>2026-03-22T08:47:12.996Z</time></trkpt><trkpt lat="44.3884" lon="11.071185"><ele>268.0</ele><time>2026-03-22T08:47:13.997Z</time></trkpt><trkpt lat="44.388505" lon="11.0711817"><ele>268.0</ele><time>2026-03-22T08:47:14.991Z</time></trkpt><trkpt lat="44.388605" lon="11.0711817"><ele>268.0</ele><time>2026-03-22T08:47:15.998Z</time></trkpt><trkpt lat="44.3886983" lon="11.0711883"><ele>268.0</ele><time>2026-03-22T08:47:16.989Z</time></trkpt><trkpt lat="44.388785" lon="11.0711983"><ele>267.2</ele><time>2026-03-22T08:47:18.003Z</time></trkpt><trkpt lat="44.3888683" lon="11.0712083"><ele>266.4</ele><time>2026-03-22T08:47:18.991Z</time></trkpt><trkpt lat="44.3889583" lon="11.07122"><ele>265.59999999999997</ele><time>2026-03-22T08:47:19.992Z</time></trkpt><trkpt lat="44.389055" lon="11.0712283"><ele>264.8</ele><time>2026-03-22T08:47:20.997Z</time></trkpt><trkpt lat="44.3891533" lon="11.07123"><ele>264.0</ele><time>2026-03-22T08:47:21.995Z</time></trkpt><trkpt lat="44.3892467" lon="11.0712417"><ele>264.0</ele><time>2026-03-22T08:47:22.996Z</time></trkpt><trkpt lat="44.3893367" lon="11.07126"><ele>264.0</ele><time>2026-03-22T08:47:23.992Z</time></trkpt><trkpt lat="44.3894217" lon="11.07128"><ele>264.0</ele><time>2026-03-22T08:47:24.993Z</time></trkpt><trkpt lat="44.3895017" lon="11.0712967"><ele>264.0</ele><time>2026-03-22T08:47:25.989Z</time></trkpt><trkpt lat="44.3895733" lon="11.0713033"><ele>264.0</ele><time>2026-03-22T08:47:26.99Z</time></trkpt><trkpt lat="44.3896417" lon="11.0713"><ele>264.0</ele><time>2026-03-22T08:47:27.993Z</time></trkpt><trkpt lat="44.3897533" lon="11.0712833"><ele>263.7142857142857</ele><time>2026-03-22T08:47:29.989Z</time></trkpt><trkpt lat="44.389845" lon="11.0713033"><ele>263.42857142857144</ele><time>2026-03-22T08:47:31.995Z</time></trkpt><trkpt lat="44.3899117" lon="11.0712933"><ele>263.14285714285717</ele><time>2026-03-22T08:47:33.985Z</time></trkpt><trkpt lat="44.3898567" lon="11.07125"><ele>262.8571428571429</ele><time>2026-03-22T08:55:37.993Z</time></trkpt><trkpt lat="44.389795" lon="11.0711783"><ele>262.5714285714286</ele><time>2026-03-22T08:55:38.991Z</time></trkpt><trkpt lat="44.3897367" lon="11.071225"><ele>262.2857142857143</ele><time>2026-03-22T08:55:41.986Z</time></trkpt><trkpt lat="44.3897567" lon="11.07133"><ele>262.0</ele><time>2026-03-22T08:55:44.999Z</time></trkpt><trkpt lat="44.3898183" lon="11.0713733"><ele>262.0</ele><time>2026-03-22T08:55:45.996Z</time></trkpt><trkpt lat="44.38988" lon="11.0713983"><ele>262.0</ele><time>2026-03-22T08:55:46.988Z</time></trkpt><trkpt lat="44.3899467" lon="11.07142"><ele>262.0</ele><time>2026-03-22T08:55:47.987Z</time></trkpt><trkpt lat="44.390015" lon="11.07144"><ele>262.0</ele><time>2026-03-22T08:55:48.989Z</time></trkpt><trkpt lat="44.3901367" lon="11.07147"><ele>262.0</ele><time>2026-03-22T08:55:50.994Z</time></trkpt><trkpt lat="44.3902017" lon="11.071485"><ele>262.0</ele><time>2026-03-22T08:55:51.99Z</time></trkpt><trkpt lat="44.390275" lon="11.0714983"><ele>262.0</ele><time>2026-03-22T08:55:52.991Z</time></trkpt><trkpt lat="44.3903533" lon="11.0715167"><ele>262.0</ele><time>2026-03-22T08:55:53.994Z</time></trkpt><trkpt lat="44.3904367" lon="11.07154"><ele>262.0</ele><time>2026-03-22T08:55:54.986Z</time></trkpt><trkpt lat="44.3905267" lon="11.0715683"><ele>262.0</ele><time>2026-03-22T08:55:55.99Z</time></trkpt><trkpt lat="44.3906233" lon="11.0716"><ele>262.0</ele><time>2026-03-22T08:55:56.997Z</time></trkpt><trkpt lat="44.390725" lon="11.07163"><ele>261.2</ele><time>2026-03-22T08:55:57.991Z</time></trkpt><trkpt lat="44.3908267" lon="11.0716583"><ele>260.4</ele><time>2026-03-22T08:55:58.992Z</time></trkpt><trkpt lat="44.3909317" lon="11.0716883"><ele>259.6</ele><time>2026-03-22T08:55:59.988Z</time></trkpt><trkpt lat="44.3910417" lon="11.07172"><ele>258.8</ele><time>2026-03-22T08:56:00.996Z</time></trkpt><trkpt lat="44.39115" lon="11.0717583"><ele>258.0</ele><time>2026-03-22T08:56:01.989Z</time></trkpt><trkpt lat="44.3912567" lon="11.0717933"><ele>257.75</ele><time>2026-03-22T08:56:02.999Z</time></trkpt><trkpt lat="44.391365" lon="11.0718333"><ele>257.5</ele><time>2026-03-22T08:56:03.992Z</time></trkpt><trkpt lat="44.391475" lon="11.0718733"><ele>257.25</ele><time>2026-03-22T08:56:04.987Z</time></trkpt><trkpt lat="44.3915883" lon="11.0719133"><ele>257.0</ele><time>2026-03-22T08:56:06Z</time></trkpt><trkpt lat="44.3917033" lon="11.0719517"><ele>257.0</ele><time>2026-03-22T08:56:06.989Z</time></trkpt><trkpt lat="44.39182" lon="11.071985"><ele>257.0</ele><time>2026-03-22T08:56:07.989Z</time></trkpt><trkpt lat="44.3919383" lon="11.072025"><ele>257.0</ele><time>2026-03-22T08:56:08.997Z</time></trkpt><trkpt lat="44.3920567" lon="11.0720617"><ele>257.0</ele><time>2026-03-22T08:56:09.988Z</time></trkpt><trkpt lat="44.3921767" lon="11.0721"><ele>257.5</ele><time>2026-03-22T08:56:10.987Z</time></trkpt><trkpt lat="44.3923017" lon="11.0721417"><ele>258.0</ele><time>2026-03-22T08:56:11.993Z</time></trkpt><trkpt lat="44.3924283" lon="11.0721817"><ele>258.5</ele><time>2026-03-22T08:56:12.993Z</time></trkpt><trkpt lat="44.392555" lon="11.072225"><ele>259.0</ele><time>2026-03-22T08:56:13.993Z</time></trkpt><trkpt lat="44.3926783" lon="11.0722717"><ele>259.0</ele><time>2026-03-22T08:56:14.995Z</time></trkpt><trkpt lat="44.3928017" lon="11.0723283"><ele>259.0</ele><time>2026-03-22T08:56:15.993Z</time></trkpt><trkpt lat="44.39292" lon="11.0723933"><ele>259.0</ele><time>2026-03-22T08:56:16.998Z</time></trkpt><trkpt lat="44.3930433" lon="11.07247"><ele>259.0</ele><time>2026-03-22T08:56:17.998Z</time></trkpt><trkpt lat="44.39316" lon="11.0725633"><ele>258.5</ele><time>2026-03-22T08:56:18.988Z</time></trkpt><trkpt lat="44.3932733" lon="11.072665"><ele>258.0</ele><time>2026-03-22T08:56:19.989Z</time></trkpt><trkpt lat="44.3933967" lon="11.0727633"><ele>257.5</ele><time>2026-03-22T08:56:20.991Z</time></trkpt><trkpt lat="44.393525" lon="11.072865"><ele>257.0</ele><time>2026-03-22T08:56:21.996Z</time></trkpt><trkpt lat="44.393655" lon="11.072965"><ele>257.0</ele><time>2026-03-22T08:56:22.995Z</time></trkpt><trkpt lat="44.39378" lon="11.07307"><ele>257.0</ele><time>2026-03-22T08:56:23.993Z</time></trkpt><trkpt lat="44.3939083" lon="11.07317"><ele>257.0</ele><time>2026-03-22T08:56:24.99Z</time></trkpt><trkpt lat="44.3940383" lon="11.0732683"><ele>257.0</ele><time>2026-03-22T08:56:25.989Z</time></trkpt><trkpt lat="44.39416" lon="11.073365"><ele>256.25</ele><time>2026-03-22T08:56:26.992Z</time></trkpt><trkpt lat="44.39429" lon="11.0734683"><ele>255.5</ele><time>2026-03-22T08:56:27.994Z</time></trkpt><trkpt lat="44.3944217" lon="11.0735667"><ele>254.75</ele><time>2026-03-22T08:56:28.993Z</time></trkpt><trkpt lat="44.3945483" lon="11.07367"><ele>254.0</ele><time>2026-03-22T08:56:29.991Z</time></trkpt><trkpt lat="44.3946767" lon="11.0737717"><ele>254.0</ele><time>2026-03-22T08:56:30.99Z</time></trkpt><trkpt lat="44.3948083" lon="11.0738633"><ele>254.0</ele><time>2026-03-22T08:56:31.995Z</time></trkpt><trkpt lat="44.3949433" lon="11.073955"><ele>254.0</ele><time>2026-03-22T08:56:32.994Z</time></trkpt><trkpt lat="44.3950717" lon="11.0740483"><ele>254.0</ele><time>2026-03-22T08:56:33.993Z</time></trkpt><trkpt lat="44.395195" lon="11.0741417"><ele>253.25</ele><time>2026-03-22T08:56:34.991Z</time></trkpt><trkpt lat="44.3953133" lon="11.074235"><ele>252.5</ele><time>2026-03-22T08:56:36.001Z</time></trkpt><trkpt lat="44.3954333" lon="11.074315"><ele>251.75</ele><time>2026-03-22T08:56:36.995Z</time></trkpt><trkpt lat="44.3955533" lon="11.0743767"><ele>251.0</ele><time>2026-03-22T08:56:37.989Z</time></trkpt><trkpt lat="44.39568" lon="11.0744117"><ele>252.5</ele><time>2026-03-22T08:56:38.992Z</time></trkpt><trkpt lat="44.3958017" lon="11.0744367"><ele>254.0</ele><time>2026-03-22T08:56:39.988Z</time></trkpt><trkpt lat="44.39592" lon="11.0744683"><ele>255.5</ele><time>2026-03-22T08:56:40.996Z</time></trkpt><trkpt lat="44.396045" lon="11.0745233"><ele>257.0</ele><time>2026-03-22T08:56:41.996Z</time></trkpt><trkpt lat="44.396165" lon="11.0746117"><ele>257.0</ele><time>2026-03-22T08:56:42.995Z</time></trkpt><trkpt lat="44.3962783" lon="11.0747183"><ele>257.0</ele><time>2026-03-22T08:56:43.994Z</time></trkpt><trkpt lat="44.3963867" lon="11.0748383"><ele>257.0</ele><time>2026-03-22T08:56:44.992Z</time></trkpt><trkpt lat="44.3964833" lon="11.0749583"><ele>257.0</ele><time>2026-03-22T08:56:45.994Z</time></trkpt><trkpt lat="44.396565" lon="11.075065"><ele>257.0</ele><time>2026-03-22T08:56:46.992Z</time></trkpt><trkpt lat="44.3966483" lon="11.0751633"><ele>257.0</ele><time>2026-03-22T08:56:47.991Z</time></trkpt><trkpt lat="44.3967367" lon="11.0752633"><ele>257.0</ele><time>2026-03-22T08:56:48.996Z</time></trkpt><trkpt lat="44.3968233" lon="11.07537"><ele>257.0</ele><time>2026-03-22T08:56:49.991Z</time></trkpt><trkpt lat="44.3969083" lon="11.0754967"><ele>257.0</ele><time>2026-03-22T08:56:50.994Z</time></trkpt><trkpt lat="44.39699" lon="11.075645"><ele>257.0</ele><time>2026-03-22T08:56:51.997Z</time></trkpt><trkpt lat="44.397055" lon="11.0758033"><ele>257.0</ele><time>2026-03-22T08:56:52.991Z</time></trkpt><trkpt lat="44.3971083" lon="11.0759833"><ele>257.0</ele><time>2026-03-22T08:56:53.995Z</time></trkpt><trkpt lat="44.3971567" lon="11.0761583"><ele>257.5</ele><time>2026-03-22T08:56:54.989Z</time></trkpt><trkpt lat="44.3972183" lon="11.076315"><ele>258.0</ele><time>2026-03-22T08:56:55.993Z</time></trkpt><trkpt lat="44.3973" lon="11.0764333"><ele>258.5</ele><time>2026-03-22T08:56:56.994Z</time></trkpt><trkpt lat="44.3974033" lon="11.0765433"><ele>259.0</ele><time>2026-03-22T08:56:57.994Z</time></trkpt><trkpt lat="44.3975283" lon="11.0766367"><ele>257.75</ele><time>2026-03-22T08:56:58.99Z</time></trkpt><trkpt lat="44.397665" lon="11.07671"><ele>256.5</ele><time>2026-03-22T08:56:59.989Z</time></trkpt><trkpt lat="44.3978017" lon="11.076775"><ele>255.25</ele><time>2026-03-22T08:57:00.998Z</time></trkpt><trkpt lat="44.3979333" lon="11.0768433"><ele>254.0</ele><time>2026-03-22T08:57:01.996Z</time></trkpt><trkpt lat="44.3980667" lon="11.0769033"><ele>254.0</ele><time>2026-03-22T08:57:02.996Z</time></trkpt><trkpt lat="44.3982033" lon="11.07697"><ele>254.0</ele><time>2026-03-22T08:57:03.994Z</time></trkpt><trkpt lat="44.3983383" lon="11.07704"><ele>254.0</ele><time>2026-03-22T08:57:04.988Z</time></trkpt><trkpt lat="44.3984733" lon="11.07711"><ele>254.0</ele><time>2026-03-22T08:57:05.989Z</time></trkpt><trkpt lat="44.398605" lon="11.0771817"><ele>254.0</ele><time>2026-03-22T08:57:06.994Z</time></trkpt><trkpt lat="44.3987317" lon="11.0772483"><ele>254.0</ele><time>2026-03-22T08:57:07.994Z</time></trkpt><trkpt lat="44.39885" lon="11.077305"><ele>254.0</ele><time>2026-03-22T08:57:08.994Z</time></trkpt><trkpt lat="44.398965" lon="11.07736"><ele>254.0</ele><time>2026-03-22T08:57:09.994Z</time></trkpt><trkpt lat="44.3990717" lon="11.07741"><ele>253.50000000000003</ele><time>2026-03-22T08:57:10.991Z</time></trkpt><trkpt lat="44.3991683" lon="11.0774633"><ele>253.0</ele><time>2026-03-22T08:57:11.991Z</time></trkpt><trkpt lat="44.399255" lon="11.0774967"><ele>252.5</ele><time>2026-03-22T08:57:12.99Z</time></trkpt><trkpt lat="44.399335" lon="11.0775233"><ele>252.0</ele><time>2026-03-22T08:57:13.994Z</time></trkpt><trkpt lat="44.399405" lon="11.0775217"><ele>251.50000000000003</ele><time>2026-03-22T08:57:14.991Z</time></trkpt><trkpt lat="44.3994633" lon="11.07747"><ele>251.0</ele><time>2026-03-22T08:57:15.992Z</time></trkpt><trkpt lat="44.39951" lon="11.077385"><ele>251.0</ele><time>2026-03-22T08:57:16.994Z</time></trkpt><trkpt lat="44.39955" lon="11.0772767"><ele>251.00000000000003</ele><time>2026-03-22T08:57:17.999Z</time></trkpt><trkpt lat="44.3995933" lon="11.07717"><ele>251.00000000000003</ele><time>2026-03-22T08:57:18.993Z</time></trkpt><trkpt lat="44.39965" lon="11.077065"><ele>251.0</ele><time>2026-03-22T08:57:19.993Z</time></trkpt><trkpt lat="44.3997117" lon="11.076965"><ele>251.0</ele><time>2026-03-22T08:57:20.998Z</time></trkpt><trkpt lat="44.399785" lon="11.0768517"><ele>251.8</ele><time>2026-03-22T08:57:21.992Z</time></trkpt><trkpt lat="44.3998583" lon="11.076735"><ele>252.60000000000002</ele><time>2026-03-22T08:57:22.989Z</time></trkpt><trkpt lat="44.3999167" lon="11.0766117"><ele>253.4</ele><time>2026-03-22T08:57:23.997Z</time></trkpt><trkpt lat="44.39995" lon="11.076465"><ele>254.2</ele><time>2026-03-22T08:57:24.992Z</time></trkpt><trkpt lat="44.3999533" lon="11.0763083"><ele>255.0</ele><time>2026-03-22T08:57:25.993Z</time></trkpt><trkpt lat="44.3999317" lon="11.07615"><ele>256.4</ele><time>2026-03-22T08:57:26.994Z</time></trkpt><trkpt lat="44.3999" lon="11.0759967"><ele>257.8</ele><time>2026-03-22T08:57:27.992Z</time></trkpt><trkpt lat="44.3998783" lon="11.0758433"><ele>259.2</ele><time>2026-03-22T08:57:28.995Z</time></trkpt><trkpt lat="44.3998583" lon="11.0757067"><ele>260.6</ele><time>2026-03-22T08:57:29.996Z</time></trkpt><trkpt lat="44.3998617" lon="11.0755967"><ele>262.0</ele><time>2026-03-22T08:57:30.992Z</time></trkpt><trkpt lat="44.39987" lon="11.0755017"><ele>262.0</ele><time>2026-03-22T08:57:31.995Z</time></trkpt><trkpt lat="44.3999567" lon="11.0754317"><ele>262.0</ele><time>2026-03-22T08:57:33.994Z</time></trkpt><trkpt lat="44.4000567" lon="11.075575"><ele>262.0</ele><time>2026-03-22T08:57:35.992Z</time></trkpt><trkpt lat="44.4000933" lon="11.0756933"><ele>262.0</ele><time>2026-03-22T08:57:36.995Z</time></trkpt><trkpt lat="44.40013" lon="11.0758417"><ele>262.0</ele><time>2026-03-22T08:57:37.992Z</time></trkpt><trkpt lat="44.4001833" lon="11.07599"><ele>262.0</ele><time>2026-03-22T08:57:38.989Z</time></trkpt><trkpt lat="44.4002467" lon="11.076125"><ele>262.0</ele><time>2026-03-22T08:57:39.989Z</time></trkpt><trkpt lat="44.4003267" lon="11.0762367"><ele>262.0</ele><time>2026-03-22T08:57:40.989Z</time></trkpt><trkpt lat="44.400415" lon="11.076325"><ele>262.0</ele><time>2026-03-22T08:57:41.988Z</time></trkpt><trkpt lat="44.4005117" lon="11.0764033"><ele>262.0</ele><time>2026-03-22T08:57:42.991Z</time></trkpt><trkpt lat="44.4006117" lon="11.07648"><ele>264.0</ele><time>2026-03-22T08:57:43.989Z</time></trkpt><trkpt lat="44.4007233" lon="11.0765417"><ele>266.0</ele><time>2026-03-22T08:57:44.99Z</time></trkpt><trkpt lat="44.4008383" lon="11.07659"><ele>268.0</ele><time>2026-03-22T08:57:45.991Z</time></trkpt><trkpt lat="44.4009583" lon="11.0766267"><ele>270.0</ele><time>2026-03-22T08:57:46.989Z</time></trkpt><trkpt lat="44.4010817" lon="11.0766517"><ele>270.0</ele><time>2026-03-22T08:57:47.999Z</time></trkpt><trkpt lat="44.4012017" lon="11.076665"><ele>270.0</ele><time>2026-03-22T08:57:48.994Z</time></trkpt><trkpt lat="44.401325" lon="11.07668"><ele>270.0</ele><time>2026-03-22T08:57:49.994Z</time></trkpt><trkpt lat="44.40145" lon="11.0767"><ele>270.0</ele><time>2026-03-22T08:57:50.992Z</time></trkpt><trkpt lat="44.4015717" lon="11.0767283"><ele>272.75</ele><time>2026-03-22T08:57:51.999Z</time></trkpt><trkpt lat="44.4016933" lon="11.0767617"><ele>275.5</ele><time>2026-03-22T08:57:52.993Z</time></trkpt><trkpt lat="44.40181" lon="11.0767933"><ele>278.25</ele><time>2026-03-22T08:57:53.991Z</time></trkpt><trkpt lat="44.4019217" lon="11.0768033"><ele>281.0</ele><time>2026-03-22T08:57:54.989Z</time></trkpt><trkpt lat="44.4020217" lon="11.0767833"><ele>281.0</ele><time>2026-03-22T08:57:55.994Z</time></trkpt><trkpt lat="44.4021083" lon="11.0767233"><ele>281.0</ele><time>2026-03-22T08:57:56.994Z</time></trkpt><trkpt lat="44.4021667" lon="11.0766283"><ele>281.0</ele><time>2026-03-22T08:57:57.993Z</time></trkpt><trkpt lat="44.402185" lon="11.0765067"><ele>281.0</ele><time>2026-03-22T08:57:58.994Z</time></trkpt><trkpt lat="44.4021767" lon="11.0763867"><ele>281.0</ele><time>2026-03-22T08:57:59.99Z</time></trkpt><trkpt lat="44.4021083" lon="11.07625"><ele>284.0</ele><time>2026-03-22T08:58:00.992Z</time></trkpt><trkpt lat="44.4020217" lon="11.07613"><ele>287.0</ele><time>2026-03-22T08:58:01.991Z</time></trkpt><trkpt lat="44.40191" lon="11.0760283"><ele>290.0</ele><time>2026-03-22T08:58:02.992Z</time></trkpt><trkpt lat="44.4017967" lon="11.07593"><ele>293.0</ele><time>2026-03-22T08:58:03.995Z</time></trkpt><trkpt lat="44.4016883" lon="11.0758417"><ele>293.33333333333337</ele><time>2026-03-22T08:58:04.987Z</time></trkpt><trkpt lat="44.4015967" lon="11.0757567"><ele>293.6666666666667</ele><time>2026-03-22T08:58:05.992Z</time></trkpt><trkpt lat="44.4015317" lon="11.075665"><ele>294.0</ele><time>2026-03-22T08:58:06.989Z</time></trkpt><trkpt lat="44.4014867" lon="11.0755667"><ele>294.3333333333333</ele><time>2026-03-22T08:58:07.993Z</time></trkpt><trkpt lat="44.40148" lon="11.075455"><ele>294.66666666666663</ele><time>2026-03-22T08:58:08.996Z</time></trkpt><trkpt lat="44.4015183" lon="11.0753633"><ele>295.0</ele><time>2026-03-22T08:58:09.989Z</time></trkpt><trkpt lat="44.4016133" lon="11.075305"><ele>295.0</ele><time>2026-03-22T08:58:10.998Z</time></trkpt><trkpt lat="44.4017033" lon="11.0752533"><ele>295.0</ele><time>2026-03-22T08:58:11.989Z</time></trkpt><trkpt lat="44.401845" lon="11.0752467"><ele>295.0</ele><time>2026-03-22T08:58:12.993Z</time></trkpt><trkpt lat="44.4019833" lon="11.0752267"><ele>295.0</ele><time>2026-03-22T08:58:13.993Z</time></trkpt><trkpt lat="44.4021133" lon="11.075215"><ele>297.75</ele><time>2026-03-22T08:58:14.991Z</time></trkpt><trkpt lat="44.40225" lon="11.075225"><ele>300.5</ele><time>2026-03-22T08:58:15.994Z</time></trkpt><trkpt lat="44.40238" lon="11.0752583"><ele>303.25</ele><time>2026-03-22T08:58:16.988Z</time></trkpt><trkpt lat="44.4025117" lon="11.0753"><ele>306.0</ele><time>2026-03-22T08:58:17.989Z</time></trkpt><trkpt lat="44.4026483" lon="11.0753483"><ele>306.0</ele><time>2026-03-22T08:58:18.993Z</time></trkpt><trkpt lat="44.4027867" lon="11.07539"><ele>306.0</ele><time>2026-03-22T08:58:19.992Z</time></trkpt><trkpt lat="44.40292" lon="11.0754183"><ele>306.0</ele><time>2026-03-22T08:58:20.997Z</time></trkpt><trkpt lat="44.4030517" lon="11.0754383"><ele>306.0</ele><time>2026-03-22T08:58:21.989Z</time></trkpt><trkpt lat="44.4031783" lon="11.075445"><ele>308.25</ele><time>2026-03-22T08:58:22.989Z</time></trkpt><trkpt lat="44.4033033" lon="11.0754433"><ele>310.5</ele><time>2026-03-22T08:58:23.99Z</time></trkpt><trkpt lat="44.403425" lon="11.0754383"><ele>312.75</ele><time>2026-03-22T08:58:24.994Z</time></trkpt><trkpt lat="44.40355" lon="11.075425"><ele>315.0</ele><time>2026-03-22T08:58:25.991Z</time></trkpt><trkpt lat="44.4036767" lon="11.0753967"><ele>315.0</ele><time>2026-03-22T08:58:26.995Z</time></trkpt><trkpt lat="44.4038" lon="11.0753667"><ele>315.0</ele><time>2026-03-22T08:58:27.996Z</time></trkpt><trkpt lat="44.4039217" lon="11.0753417"><ele>315.0</ele><time>2026-03-22T08:58:28.993Z</time></trkpt><trkpt lat="44.4040383" lon="11.07533"><ele>315.0</ele><time>2026-03-22T08:58:29.991Z</time></trkpt><trkpt lat="44.4041583" lon="11.075325"><ele>317.25</ele><time>2026-03-22T08:58:30.995Z</time></trkpt><trkpt lat="44.404285" lon="11.07533"><ele>319.5</ele><time>2026-03-22T08:58:31.993Z</time></trkpt><trkpt lat="44.40441" lon="11.075345"><ele>321.75</ele><time>2026-03-22T08:58:32.994Z</time></trkpt><trkpt lat="44.404535" lon="11.0753683"><ele>324.0</ele><time>2026-03-22T08:58:33.991Z</time></trkpt><trkpt lat="44.4046517" lon="11.075385"><ele>326.6</ele><time>2026-03-22T08:58:34.992Z</time></trkpt><trkpt lat="44.40476" lon="11.075395"><ele>329.2</ele><time>2026-03-22T08:58:35.993Z</time></trkpt><trkpt lat="44.4048667" lon="11.0753833"><ele>331.8</ele><time>2026-03-22T08:58:36.997Z</time></trkpt><trkpt lat="44.4049733" lon="11.07533"><ele>334.40000000000003</ele><time>2026-03-22T08:58:37.989Z</time></trkpt><trkpt lat="44.405075" lon="11.0752467"><ele>337.0</ele><time>2026-03-22T08:58:38.994Z</time></trkpt><trkpt lat="44.4051717" lon="11.0751483"><ele>337.0</ele><time>2026-03-22T08:58:39.99Z</time></trkpt><trkpt lat="44.4052633" lon="11.075055"><ele>337.0</ele><time>2026-03-22T08:58:40.991Z</time></trkpt><trkpt lat="44.4053583" lon="11.0749867"><ele>337.0</ele><time>2026-03-22T08:58:41.993Z</time></trkpt><trkpt lat="44.4054567" lon="11.07493"><ele>337.0</ele><time>2026-03-22T08:58:42.993Z</time></trkpt><trkpt lat="44.405565" lon="11.0748883"><ele>337.0</ele><time>2026-03-22T08:58:43.994Z</time></trkpt><trkpt lat="44.40568" lon="11.0748483"><ele>336.75</ele><time>2026-03-22T08:58:44.994Z</time></trkpt><trkpt lat="44.4058033" lon="11.0748167"><ele>336.5</ele><time>2026-03-22T08:58:45.989Z</time></trkpt><trkpt lat="44.4059267" lon="11.0747933"><ele>336.25</ele><time>2026-03-22T08:58:46.995Z</time></trkpt><trkpt lat="44.4060517" lon="11.0747633"><ele>336.0</ele><time>2026-03-22T08:58:47.995Z</time></trkpt><trkpt lat="44.4061783" lon="11.0747183"><ele>336.0</ele><time>2026-03-22T08:58:48.993Z</time></trkpt><trkpt lat="44.406305" lon="11.0746667"><ele>336.0</ele><time>2026-03-22T08:58:49.989Z</time></trkpt><trkpt lat="44.4064267" lon="11.07462"><ele>336.0</ele><time>2026-03-22T08:58:50.996Z</time></trkpt><trkpt lat="44.4065433" lon="11.0745867"><ele>336.0</ele><time>2026-03-22T08:58:51.994Z</time></trkpt><trkpt lat="44.4066583" lon="11.0745717"><ele>336.5</ele><time>2026-03-22T08:58:52.995Z</time></trkpt><trkpt lat="44.4067767" lon="11.0745767"><ele>337.0</ele><time>2026-03-22T08:58:54.002Z</time></trkpt><trkpt lat="44.4069" lon="11.074595"><ele>337.5</ele><time>2026-03-22T08:58:54.99Z</time></trkpt><trkpt lat="44.4070267" lon="11.0746067"><ele>338.0</ele><time>2026-03-22T08:58:55.992Z</time></trkpt><trkpt lat="44.4071567" lon="11.074595"><ele>339.0</ele><time>2026-03-22T08:58:56.992Z</time></trkpt><trkpt lat="44.4072883" lon="11.07456"><ele>340.0</ele><time>2026-03-22T08:58:57.991Z</time></trkpt><trkpt lat="44.4074183" lon="11.07452"><ele>341.0</ele><time>2026-03-22T08:58:58.993Z</time></trkpt><trkpt lat="44.407545" lon="11.074475"><ele>342.0</ele><time>2026-03-22T08:58:59.995Z</time></trkpt><trkpt lat="44.4076683" lon="11.0744183"><ele>342.0</ele><time>2026-03-22T08:59:00.997Z</time></trkpt><trkpt lat="44.40779" lon="11.0743667"><ele>342.0</ele><time>2026-03-22T08:59:01.989Z</time></trkpt><trkpt lat="44.4079117" lon="11.07431"><ele>342.0</ele><time>2026-03-22T08:59:02.992Z</time></trkpt><trkpt lat="44.4080333" lon="11.0742567"><ele>342.0</ele><time>2026-03-22T08:59:03.987Z</time></trkpt><trkpt lat="44.408155" lon="11.0742083"><ele>341.75</ele><time>2026-03-22T08:59:04.993Z</time></trkpt><trkpt lat="44.40828" lon="11.0741567"><ele>341.5</ele><time>2026-03-22T08:59:05.995Z</time></trkpt><trkpt lat="44.408405" lon="11.0741017"><ele>341.25</ele><time>2026-03-22T08:59:07.002Z</time></trkpt><trkpt lat="44.40853" lon="11.07404"><ele>341.0</ele><time>2026-03-22T08:59:07.988Z</time></trkpt><trkpt lat="44.4086533" lon="11.0739733"><ele>341.0</ele><time>2026-03-22T08:59:08.992Z</time></trkpt><trkpt lat="44.40877" lon="11.0739067"><ele>341.0</ele><time>2026-03-22T08:59:09.993Z</time></trkpt><trkpt lat="44.408885" lon="11.0738383"><ele>341.0</ele><time>2026-03-22T08:59:10.99Z</time></trkpt><trkpt lat="44.4090033" lon="11.0737717"><ele>341.0</ele><time>2026-03-22T08:59:11.992Z</time></trkpt><trkpt lat="44.409125" lon="11.0737117"><ele>345.0</ele><time>2026-03-22T08:59:12.989Z</time></trkpt><trkpt lat="44.4092417" lon="11.07365"><ele>349.0</ele><time>2026-03-22T08:59:13.992Z</time></trkpt><trkpt lat="44.4093533" lon="11.0735817"><ele>353.0</ele><time>2026-03-22T08:59:15.001Z</time></trkpt><trkpt lat="44.4094617" lon="11.073515"><ele>357.0</ele><time>2026-03-22T08:59:15.987Z</time></trkpt><trkpt lat="44.40956" lon="11.07344"><ele>357.0</ele><time>2026-03-22T08:59:16.995Z</time></trkpt><trkpt lat="44.409655" lon="11.0733583"><ele>357.0</ele><time>2026-03-22T08:59:17.997Z</time></trkpt><trkpt lat="44.4097467" lon="11.0732683"><ele>357.0</ele><time>2026-03-22T08:59:18.994Z</time></trkpt><trkpt lat="44.4098333" lon="11.0731733"><ele>357.0</ele><time>2026-03-22T08:59:19.991Z</time></trkpt><trkpt lat="44.40992" lon="11.07308"><ele>357.0</ele><time>2026-03-22T08:59:20.994Z</time></trkpt><trkpt lat="44.4100083" lon="11.0729817"><ele>359.0</ele><time>2026-03-22T08:59:21.991Z</time></trkpt><trkpt lat="44.4101" lon="11.07288"><ele>361.0</ele><time>2026-03-22T08:59:22.992Z</time></trkpt><trkpt lat="44.41019" lon="11.0727783"><ele>363.0</ele><time>2026-03-22T08:59:23.994Z</time></trkpt><trkpt lat="44.410275" lon="11.0726617"><ele>365.0</ele><time>2026-03-22T08:59:24.989Z</time></trkpt><trkpt lat="44.4103633" lon="11.0725433"><ele>366.75</ele><time>2026-03-22T08:59:25.993Z</time></trkpt><trkpt lat="44.410455" lon="11.0724283"><ele>368.5</ele><time>2026-03-22T08:59:26.998Z</time></trkpt><trkpt lat="44.4105467" lon="11.0723233"><ele>370.25</ele><time>2026-03-22T08:59:27.992Z</time></trkpt><trkpt lat="44.41064" lon="11.0722183"><ele>372.0</ele><time>2026-03-22T08:59:28.996Z</time></trkpt><trkpt lat="44.4107367" lon="11.072125"><ele>372.0</ele><time>2026-03-22T08:59:29.992Z</time></trkpt><trkpt lat="44.4108267" lon="11.0720483"><ele>372.0</ele><time>2026-03-22T08:59:30.999Z</time></trkpt><trkpt lat="44.41091" lon="11.0719933"><ele>372.0</ele><time>2026-03-22T08:59:31.988Z</time></trkpt><trkpt lat="44.4109817" lon="11.0719533"><ele>372.0</ele><time>2026-03-22T08:59:32.993Z</time></trkpt><trkpt lat="44.4110483" lon="11.0719233"><ele>372.0</ele><time>2026-03-22T08:59:33.99Z</time></trkpt><trkpt lat="44.4111433" lon="11.0718667"><ele>372.0</ele><time>2026-03-22T08:59:35.991Z</time></trkpt><trkpt lat="44.4111367" lon="11.0717233"><ele>372.0</ele><time>2026-03-22T08:59:37.989Z</time></trkpt><trkpt lat="44.4110983" lon="11.0716367"><ele>372.0</ele><time>2026-03-22T08:59:38.997Z</time></trkpt><trkpt lat="44.41105" lon="11.07154"><ele>372.0</ele><time>2026-03-22T08:59:39.995Z</time></trkpt><trkpt lat="44.4110117" lon="11.071435"><ele>372.0</ele><time>2026-03-22T08:59:40.99Z</time></trkpt><trkpt lat="44.4109683" lon="11.07132"><ele>372.0</ele><time>2026-03-22T08:59:41.993Z</time></trkpt><trkpt lat="44.4109333" lon="11.0712083"><ele>372.0</ele><time>2026-03-22T08:59:42.994Z</time></trkpt><trkpt lat="44.410905" lon="11.071105"><ele>371.1666666666667</ele><time>2026-03-22T08:59:43.992Z</time></trkpt><trkpt lat="44.41089" lon="11.0710017"><ele>370.3333333333333</ele><time>2026-03-22T08:59:44.991Z</time></trkpt><trkpt lat="44.4109017" lon="11.070895"><ele>369.5</ele><time>2026-03-22T08:59:45.997Z</time></trkpt><trkpt lat="44.4109317" lon="11.0707783"><ele>368.66666666666663</ele><time>2026-03-22T08:59:46.989Z</time></trkpt><trkpt lat="44.410975" lon="11.070675"><ele>367.8333333333333</ele><time>2026-03-22T08:59:47.992Z</time></trkpt><trkpt lat="44.4110083" lon="11.0705667"><ele>367.0</ele><time>2026-03-22T08:59:48.999Z</time></trkpt><trkpt lat="44.4110267" lon="11.070455"><ele>366.5</ele><time>2026-03-22T08:59:49.993Z</time></trkpt><trkpt lat="44.4110367" lon="11.070335"><ele>366.0</ele><time>2026-03-22T08:59:50.994Z</time></trkpt><trkpt lat="44.411035" lon="11.0702133"><ele>365.5</ele><time>2026-03-22T08:59:51.995Z</time></trkpt><trkpt lat="44.4110333" lon="11.0700917"><ele>365.0</ele><time>2026-03-22T08:59:52.991Z</time></trkpt><trkpt lat="44.4110267" lon="11.069975"><ele>364.5</ele><time>2026-03-22T08:59:53.997Z</time></trkpt><trkpt lat="44.4110167" lon="11.0698667"><ele>364.0</ele><time>2026-03-22T08:59:54.992Z</time></trkpt><trkpt lat="44.41099" lon="11.0697717"><ele>365.2</ele><time>2026-03-22T08:59:55.991Z</time></trkpt><trkpt lat="44.4109567" lon="11.06968"><ele>366.4</ele><time>2026-03-22T08:59:56.99Z</time></trkpt><trkpt lat="44.4109233" lon="11.0695967"><ele>367.6</ele><time>2026-03-22T08:59:57.991Z</time></trkpt><trkpt lat="44.410895" lon="11.069515"><ele>368.8</ele><time>2026-03-22T08:59:58.991Z</time></trkpt><trkpt lat="44.4108633" lon="11.06935"><ele>370.0</ele><time>2026-03-22T09:00:00.99Z</time></trkpt><trkpt lat="44.4108483" lon="11.069165"><ele>369.99999999999994</ele><time>2026-03-22T09:00:02.989Z</time></trkpt><trkpt lat="44.41087" lon="11.0690633"><ele>370.0</ele><time>2026-03-22T09:00:03.993Z</time></trkpt><trkpt lat="44.4108967" lon="11.0689583"><ele>370.0</ele><time>2026-03-22T09:00:04.99Z</time></trkpt><trkpt lat="44.4109283" lon="11.0688617"><ele>370.0</ele><time>2026-03-22T09:00:05.994Z</time></trkpt><trkpt lat="44.4109533" lon="11.0687633"><ele>370.0</ele><time>2026-03-22T09:00:06.997Z</time></trkpt><trkpt lat="44.4109783" lon="11.06867"><ele>369.99999999999994</ele><time>2026-03-22T09:00:07.986Z</time></trkpt><trkpt lat="44.4110133" lon="11.0685833"><ele>370.0</ele><time>2026-03-22T09:00:08.992Z</time></trkpt><trkpt lat="44.4110517" lon="11.0684983"><ele>369.99999999999994</ele><time>2026-03-22T09:00:09.988Z</time></trkpt><trkpt lat="44.4110917" lon="11.068415"><ele>370.0</ele><time>2026-03-22T09:00:10.988Z</time></trkpt><trkpt lat="44.411135" lon="11.068335"><ele>370.0</ele><time>2026-03-22T09:00:11.995Z</time></trkpt><trkpt lat="44.411165" lon="11.0682483"><ele>370.0</ele><time>2026-03-22T09:00:12.989Z</time></trkpt><trkpt lat="44.4111833" lon="11.0681583"><ele>370.0</ele><time>2026-03-22T09:00:13.99Z</time></trkpt><trkpt lat="44.4111833" lon="11.0680567"><ele>369.99999999999994</ele><time>2026-03-22T09:00:14.994Z</time></trkpt><trkpt lat="44.4111783" lon="11.0679617"><ele>370.0</ele><time>2026-03-22T09:00:15.993Z</time></trkpt><trkpt lat="44.4111433" lon="11.06786"><ele>370.71428571428567</ele><time>2026-03-22T09:00:16.991Z</time></trkpt><trkpt lat="44.4111083" lon="11.0677633"><ele>371.42857142857144</ele><time>2026-03-22T09:00:17.994Z</time></trkpt><trkpt lat="44.41108" lon="11.0676633"><ele>372.1428571428571</ele><time>2026-03-22T09:00:18.993Z</time></trkpt><trkpt lat="44.4110533" lon="11.067565"><ele>372.85714285714283</ele><time>2026-03-22T09:00:19.988Z</time></trkpt><trkpt lat="44.41103" lon="11.0674717"><ele>373.57142857142856</ele><time>2026-03-22T09:00:20.995Z</time></trkpt><trkpt lat="44.411015" lon="11.0673767"><ele>374.2857142857143</ele><time>2026-03-22T09:00:21.992Z</time></trkpt><trkpt lat="44.4110117" lon="11.0672883"><ele>375.0</ele><time>2026-03-22T09:00:22.993Z</time></trkpt><trkpt lat="44.41101" lon="11.067145"><ele>375.1666666666667</ele><time>2026-03-22T09:00:24.996Z</time></trkpt><trkpt lat="44.410975" lon="11.0670567"><ele>375.3333333333333</ele><time>2026-03-22T09:00:26.991Z</time></trkpt><trkpt lat="44.4108883" lon="11.0670417"><ele>375.5</ele><time>2026-03-22T09:00:28.989Z</time></trkpt><trkpt lat="44.410765" lon="11.0670967"><ele>375.66666666666663</ele><time>2026-03-22T09:00:30.996Z</time></trkpt><trkpt lat="44.4106967" lon="11.0671233"><ele>375.8333333333333</ele><time>2026-03-22T09:00:31.993Z</time></trkpt><trkpt lat="44.4106283" lon="11.0671483"><ele>376.0</ele><time>2026-03-22T09:00:32.996Z</time></trkpt><trkpt lat="44.4105633" lon="11.0671717"><ele>376.0</ele><time>2026-03-22T09:00:33.997Z</time></trkpt><trkpt lat="44.4105" lon="11.06719"><ele>376.0</ele><time>2026-03-22T09:00:34.992Z</time></trkpt><trkpt lat="44.4103933" lon="11.067225"><ele>376.0</ele><time>2026-03-22T09:00:36.994Z</time></trkpt><trkpt lat="44.4102983" lon="11.0672467"><ele>376.0</ele><time>2026-03-22T09:00:38.989Z</time></trkpt><trkpt lat="44.410205" lon="11.067275"><ele>376.0</ele><time>2026-03-22T09:00:40.995Z</time></trkpt><trkpt lat="44.41012" lon="11.06732"><ele>374.6</ele><time>2026-03-22T09:00:42.992Z</time></trkpt><trkpt lat="44.4100433" lon="11.0673717"><ele>373.20000000000005</ele><time>2026-03-22T09:00:44.992Z</time></trkpt><trkpt lat="44.4099567" lon="11.0673983"><ele>371.79999999999995</ele><time>2026-03-22T09:00:46.992Z</time></trkpt><trkpt lat="44.409865" lon="11.06738"><ele>370.4</ele><time>2026-03-22T09:00:48.992Z</time></trkpt><trkpt lat="44.40978" lon="11.0673317"><ele>369.0</ele><time>2026-03-22T09:00:50.988Z</time></trkpt><trkpt lat="44.409695" lon="11.067275"><ele>366.4</ele><time>2026-03-22T09:00:52.994Z</time></trkpt><trkpt lat="44.4096133" lon="11.0672133"><ele>363.79999999999995</ele><time>2026-03-22T09:00:54.994Z</time></trkpt><trkpt lat="44.4095367" lon="11.06713"><ele>361.20000000000005</ele><time>2026-03-22T09:00:56.995Z</time></trkpt><trkpt lat="44.409455" lon="11.0670567"><ele>358.6</ele><time>2026-03-22T09:00:58.988Z</time></trkpt><trkpt lat="44.409375" lon="11.0669817"><ele>356.0</ele><time>2026-03-22T09:01:00.998Z</time></trkpt><trkpt lat="44.4092833" lon="11.0669067"><ele>356.0</ele><time>2026-03-22T09:01:02.991Z</time></trkpt><trkpt lat="44.4091933" lon="11.0668233"><ele>356.0</ele><time>2026-03-22T09:01:04.99Z</time></trkpt><trkpt lat="44.4091" lon="11.0667433"><ele>356.0</ele><time>2026-03-22T09:01:06.995Z</time></trkpt><trkpt lat="44.4089917" lon="11.0666967"><ele>356.0</ele><time>2026-03-22T09:01:08.991Z</time></trkpt><trkpt lat="44.408865" lon="11.0666683"><ele>354.0</ele><time>2026-03-22T09:01:10.99Z</time></trkpt><trkpt lat="44.4088" lon="11.066655"><ele>352.0</ele><time>2026-03-22T09:01:11.992Z</time></trkpt><trkpt lat="44.4087317" lon="11.0666433"><ele>350.0</ele><time>2026-03-22T09:01:12.995Z</time></trkpt><trkpt lat="44.40866" lon="11.0666267"><ele>348.0</ele><time>2026-03-22T09:01:13.994Z</time></trkpt><trkpt lat="44.4085833" lon="11.0666033"><ele>346.0</ele><time>2026-03-22T09:01:14.997Z</time></trkpt><trkpt lat="44.4085017" lon="11.0665717"><ele>344.0</ele><time>2026-03-22T09:01:15.994Z</time></trkpt><trkpt lat="44.4084167" lon="11.0665383"><ele>343.6</ele><time>2026-03-22T09:01:16.994Z</time></trkpt><trkpt lat="44.4083317" lon="11.0665"><ele>343.2</ele><time>2026-03-22T09:01:17.99Z</time></trkpt><trkpt lat="44.4082467" lon="11.06646"><ele>342.8</ele><time>2026-03-22T09:01:18.991Z</time></trkpt><trkpt lat="44.408165" lon="11.0664133"><ele>342.40000000000003</ele><time>2026-03-22T09:01:19.994Z</time></trkpt><trkpt lat="44.4080833" lon="11.0663567"><ele>342.0</ele><time>2026-03-22T09:01:20.993Z</time></trkpt><trkpt lat="44.4080017" lon="11.0662967"><ele>342.0</ele><time>2026-03-22T09:01:21.996Z</time></trkpt><trkpt lat="44.4079167" lon="11.0662233"><ele>342.0</ele><time>2026-03-22T09:01:22.99Z</time></trkpt><trkpt lat="44.407835" lon="11.0661333"><ele>342.0</ele><time>2026-03-22T09:01:23.995Z</time></trkpt><trkpt lat="44.40776" lon="11.0660233"><ele>342.0</ele><time>2026-03-22T09:01:24.994Z</time></trkpt><trkpt lat="44.407685" lon="11.0659"><ele>342.0</ele><time>2026-03-22T09:01:25.996Z</time></trkpt><trkpt lat="44.4076117" lon="11.0657617"><ele>341.25</ele><time>2026-03-22T09:01:26.992Z</time></trkpt><trkpt lat="44.4075367" lon="11.0656283"><ele>340.5</ele><time>2026-03-22T09:01:27.995Z</time></trkpt><trkpt lat="44.407455" lon="11.065505"><ele>339.75</ele><time>2026-03-22T09:01:28.998Z</time></trkpt><trkpt lat="44.40736" lon="11.0653933"><ele>339.0</ele><time>2026-03-22T09:01:29.994Z</time></trkpt><trkpt lat="44.407255" lon="11.0652817"><ele>340.2</ele><time>2026-03-22T09:01:30.992Z</time></trkpt><trkpt lat="44.4071583" lon="11.06517"><ele>341.4</ele><time>2026-03-22T09:01:31.995Z</time></trkpt><trkpt lat="44.4070717" lon="11.0650733"><ele>342.6</ele><time>2026-03-22T09:01:32.995Z</time></trkpt><trkpt lat="44.406995" lon="11.064995"><ele>343.8</ele><time>2026-03-22T09:01:33.993Z</time></trkpt><trkpt lat="44.406925" lon="11.0649383"><ele>345.0</ele><time>2026-03-22T09:01:34.989Z</time></trkpt><trkpt lat="44.4068617" lon="11.0648917"><ele>345.0</ele><time>2026-03-22T09:01:35.996Z</time></trkpt><trkpt lat="44.4067983" lon="11.0648683"><ele>345.0</ele><time>2026-03-22T09:01:36.994Z</time></trkpt><trkpt lat="44.4067317" lon="11.0649"><ele>345.0</ele><time>2026-03-22T09:01:37.993Z</time></trkpt><trkpt lat="44.4066767" lon="11.0649733"><ele>345.0</ele><time>2026-03-22T09:01:38.995Z</time></trkpt><trkpt lat="44.4066267" lon="11.0650633"><ele>345.0</ele><time>2026-03-22T09:01:39.99Z</time></trkpt><trkpt lat="44.4065733" lon="11.0651683"><ele>345.0</ele><time>2026-03-22T09:01:40.994Z</time></trkpt><trkpt lat="44.4065117" lon="11.0652667"><ele>345.2</ele><time>2026-03-22T09:01:41.995Z</time></trkpt><trkpt lat="44.4064483" lon="11.0653717"><ele>345.4</ele><time>2026-03-22T09:01:42.99Z</time></trkpt><trkpt lat="44.406385" lon="11.0654833"><ele>345.6</ele><time>2026-03-22T09:01:43.997Z</time></trkpt><trkpt lat="44.4063217" lon="11.06559"><ele>345.8</ele><time>2026-03-22T09:01:44.994Z</time></trkpt><trkpt lat="44.4062567" lon="11.0656933"><ele>346.0</ele><time>2026-03-22T09:01:45.995Z</time></trkpt><trkpt lat="44.40619" lon="11.0658017"><ele>349.8</ele><time>2026-03-22T09:01:46.987Z</time></trkpt><trkpt lat="44.40612" lon="11.0659067"><ele>353.6</ele><time>2026-03-22T09:01:48.022Z</time></trkpt><trkpt lat="44.4060517" lon="11.0660117"><ele>357.4</ele><time>2026-03-22T09:01:48.997Z</time></trkpt><trkpt lat="44.40599" lon="11.0661167"><ele>361.2</ele><time>2026-03-22T09:01:49.997Z</time></trkpt><trkpt lat="44.4059333" lon="11.06621"><ele>365.0</ele><time>2026-03-22T09:01:50.996Z</time></trkpt><trkpt lat="44.4058817" lon="11.066295"><ele>365.0</ele><time>2026-03-22T09:01:51.998Z</time></trkpt><trkpt lat="44.40584" lon="11.066375"><ele>365.0</ele><time>2026-03-22T09:01:52.996Z</time></trkpt><trkpt lat="44.4058017" lon="11.0664467"><ele>365.0</ele><time>2026-03-22T09:01:53.993Z</time></trkpt><trkpt lat="44.405765" lon="11.0665317"><ele>365.0</ele><time>2026-03-22T09:01:54.994Z</time></trkpt><trkpt lat="44.4057" lon="11.0666483"><ele>365.0</ele><time>2026-03-22T09:01:56.995Z</time></trkpt><trkpt lat="44.4056283" lon="11.06675"><ele>365.0</ele><time>2026-03-22T09:01:58.993Z</time></trkpt><trkpt lat="44.4055217" lon="11.0668367"><ele>366.5</ele><time>2026-03-22T09:02:00.996Z</time></trkpt><trkpt lat="44.40546" lon="11.0668617"><ele>368.0</ele><time>2026-03-22T09:02:01.997Z</time></trkpt><trkpt lat="44.4053967" lon="11.06689"><ele>369.5</ele><time>2026-03-22T09:02:02.992Z</time></trkpt><trkpt lat="44.4053283" lon="11.0669083"><ele>371.0</ele><time>2026-03-22T09:02:03.997Z</time></trkpt><trkpt lat="44.4052517" lon="11.06693"><ele>372.5</ele><time>2026-03-22T09:02:04.991Z</time></trkpt><trkpt lat="44.4051833" lon="11.066955"><ele>374.0</ele><time>2026-03-22T09:02:05.989Z</time></trkpt><trkpt lat="44.4050883" lon="11.0670267"><ele>374.0</ele><time>2026-03-22T09:02:07.987Z</time></trkpt><trkpt lat="44.4050767" lon="11.0671533"><ele>374.0</ele><time>2026-03-22T09:02:10.002Z</time></trkpt><trkpt lat="44.405085" lon="11.0672733"><ele>374.0</ele><time>2026-03-22T09:02:11.993Z</time></trkpt><trkpt lat="44.40501" lon="11.0673233"><ele>374.0</ele><time>2026-03-22T09:02:14.995Z</time></trkpt><trkpt lat="44.404885" lon="11.067315"><ele>374.0</ele><time>2026-03-22T09:02:16.998Z</time></trkpt><trkpt lat="44.4048167" lon="11.0673117"><ele>374.0</ele><time>2026-03-22T09:02:17.989Z</time></trkpt><trkpt lat="44.40474" lon="11.067315"><ele>374.0</ele><time>2026-03-22T09:02:18.99Z</time></trkpt><trkpt lat="44.4046283" lon="11.067295"><ele>374.0</ele><time>2026-03-22T09:02:20.994Z</time></trkpt><trkpt lat="44.4045833" lon="11.0671533"><ele>374.0</ele><time>2026-03-22T09:02:22.993Z</time></trkpt><trkpt lat="44.4045683" lon="11.0670467"><ele>374.0</ele><time>2026-03-22T09:02:23.989Z</time></trkpt><trkpt lat="44.4045583" lon="11.0669133"><ele>373.79999999999995</ele><time>2026-03-22T09:02:24.992Z</time></trkpt><trkpt lat="44.4045483" lon="11.06677"><ele>373.59999999999997</ele><time>2026-03-22T09:02:25.997Z</time></trkpt><trkpt lat="44.404535" lon="11.0666267"><ele>373.4</ele><time>2026-03-22T09:02:26.997Z</time></trkpt><trkpt lat="44.4045167" lon="11.0664867"><ele>373.2</ele><time>2026-03-22T09:02:27.99Z</time></trkpt><trkpt lat="44.4044983" lon="11.0663533"><ele>373.0</ele><time>2026-03-22T09:02:28.994Z</time></trkpt><trkpt lat="44.4044717" lon="11.0662283"><ele>375.2</ele><time>2026-03-22T09:02:29.997Z</time></trkpt><trkpt lat="44.4044467" lon="11.066105"><ele>377.4</ele><time>2026-03-22T09:02:30.997Z</time></trkpt><trkpt lat="44.4044133" lon="11.0659617"><ele>379.59999999999997</ele><time>2026-03-22T09:02:31.99Z</time></trkpt><trkpt lat="44.404385" lon="11.0658233"><ele>381.79999999999995</ele><time>2026-03-22T09:02:32.992Z</time></trkpt><trkpt lat="44.4043617" lon="11.0656833"><ele>384.0</ele><time>2026-03-22T09:02:33.989Z</time></trkpt><trkpt lat="44.4043483" lon="11.0655433"><ele>386.79999999999995</ele><time>2026-03-22T09:02:34.993Z</time></trkpt><trkpt lat="44.4043367" lon="11.0654083"><ele>389.59999999999997</ele><time>2026-03-22T09:02:35.999Z</time></trkpt><trkpt lat="44.4043267" lon="11.0652783"><ele>392.4</ele><time>2026-03-22T09:02:36.996Z</time></trkpt><trkpt lat="44.4043283" lon="11.065145"><ele>395.2</ele><time>2026-03-22T09:02:37.992Z</time></trkpt><trkpt lat="44.4043233" lon="11.065015"><ele>398.0</ele><time>2026-03-22T09:02:38.997Z</time></trkpt><trkpt lat="44.4043267" lon="11.0648967"><ele>399.3333333333333</ele><time>2026-03-22T09:02:39.989Z</time></trkpt><trkpt lat="44.4043217" lon="11.0647817"><ele>400.66666666666663</ele><time>2026-03-22T09:02:40.992Z</time></trkpt><trkpt lat="44.4043067" lon="11.0646817"><ele>402.0</ele><time>2026-03-22T09:02:41.991Z</time></trkpt><trkpt lat="44.404275" lon="11.0645467"><ele>403.33333333333337</ele><time>2026-03-22T09:02:43.991Z</time></trkpt><trkpt lat="44.40424" lon="11.0644417"><ele>404.6666666666667</ele><time>2026-03-22T09:02:46.998Z</time></trkpt><trkpt lat="44.4042067" lon="11.06433"><ele>406.0</ele><time>2026-03-22T09:02:48.991Z</time></trkpt><trkpt lat="44.4041583" lon="11.06419"><ele>406.33333333333337</ele><time>2026-03-22T09:02:50.992Z</time></trkpt><trkpt lat="44.4041167" lon="11.0641117"><ele>406.6666666666667</ele><time>2026-03-22T09:02:51.991Z</time></trkpt><trkpt lat="44.4040667" lon="11.064035"><ele>407.0</ele><time>2026-03-22T09:02:52.995Z</time></trkpt><trkpt lat="44.40401" lon="11.0639617"><ele>407.33333333333337</ele><time>2026-03-22T09:02:53.994Z</time></trkpt><trkpt lat="44.4039567" lon="11.063875"><ele>407.6666666666667</ele><time>2026-03-22T09:02:54.995Z</time></trkpt><trkpt lat="44.4039117" lon="11.0637733"><ele>408.0</ele><time>2026-03-22T09:02:55.994Z</time></trkpt><trkpt lat="44.4038817" lon="11.063655"><ele>408.0</ele><time>2026-03-22T09:02:56.995Z</time></trkpt><trkpt lat="44.403855" lon="11.0635367"><ele>408.0</ele><time>2026-03-22T09:02:57.996Z</time></trkpt><trkpt lat="44.4038167" lon="11.063425"><ele>408.0</ele><time>2026-03-22T09:02:58.994Z</time></trkpt><trkpt lat="44.403775" lon="11.06332"><ele>408.0</ele><time>2026-03-22T09:02:59.995Z</time></trkpt><trkpt lat="44.4037367" lon="11.0632167"><ele>408.0</ele><time>2026-03-22T09:03:00.996Z</time></trkpt><trkpt lat="44.4036867" lon="11.0631283"><ele>408.0</ele><time>2026-03-22T09:03:01.989Z</time></trkpt><trkpt lat="44.40364" lon="11.0630533"><ele>410.6666666666667</ele><time>2026-03-22T09:03:02.997Z</time></trkpt><trkpt lat="44.4035917" lon="11.0629883"><ele>413.33333333333337</ele><time>2026-03-22T09:03:03.994Z</time></trkpt><trkpt lat="44.4035517" lon="11.062915"><ele>416.0</ele><time>2026-03-22T09:03:04.995Z</time></trkpt><trkpt lat="44.4034983" lon="11.0627717"><ele>418.6666666666667</ele><time>2026-03-22T09:03:06.994Z</time></trkpt><trkpt lat="44.4034583" lon="11.062655"><ele>421.33333333333337</ele><time>2026-03-22T09:03:08.995Z</time></trkpt><trkpt lat="44.4034" lon="11.0625417"><ele>424.0</ele><time>2026-03-22T09:03:10.997Z</time></trkpt><trkpt lat="44.4033383" lon="11.0624017"><ele>425.4</ele><time>2026-03-22T09:03:12.997Z</time></trkpt><trkpt lat="44.4032917" lon="11.0622233"><ele>426.79999999999995</ele><time>2026-03-22T09:03:14.997Z</time></trkpt><trkpt lat="44.4032733" lon="11.062115"><ele>428.20000000000005</ele><time>2026-03-22T09:03:15.997Z</time></trkpt><trkpt lat="44.4032583" lon="11.0619933"><ele>429.6</ele><time>2026-03-22T09:03:16.993Z</time></trkpt><trkpt lat="44.40323" lon="11.0618783"><ele>431.0</ele><time>2026-03-22T09:03:18.005Z</time></trkpt><trkpt lat="44.4031983" lon="11.061775"><ele>430.99999999999994</ele><time>2026-03-22T09:03:18.99Z</time></trkpt><trkpt lat="44.4031683" lon="11.061675"><ele>431.0</ele><time>2026-03-22T09:03:19.997Z</time></trkpt><trkpt lat="44.4031467" lon="11.0615767"><ele>431.0</ele><time>2026-03-22T09:03:20.996Z</time></trkpt><trkpt lat="44.403135" lon="11.06147"><ele>431.0</ele><time>2026-03-22T09:03:21.994Z</time></trkpt><trkpt lat="44.4031117" lon="11.061375"><ele>430.99999999999994</ele><time>2026-03-22T09:03:22.993Z</time></trkpt><trkpt lat="44.4030883" lon="11.0612917"><ele>431.0</ele><time>2026-03-22T09:03:24Z</time></trkpt><trkpt lat="44.40301" lon="11.0611717"><ele>430.0</ele><time>2026-03-22T09:03:25.995Z</time></trkpt><trkpt lat="44.4028833" lon="11.0611817"><ele>429.0</ele><time>2026-03-22T09:03:27.993Z</time></trkpt><trkpt lat="44.402805" lon="11.0612517"><ele>428.0</ele><time>2026-03-22T09:03:28.993Z</time></trkpt><trkpt lat="44.4027267" lon="11.0613183"><ele>427.0</ele><time>2026-03-22T09:03:29.996Z</time></trkpt><trkpt lat="44.4026517" lon="11.0613617"><ele>426.0</ele><time>2026-03-22T09:03:30.992Z</time></trkpt><trkpt lat="44.4025817" lon="11.0613983"><ele>426.0</ele><time>2026-03-22T09:03:31.998Z</time></trkpt><trkpt lat="44.40247" lon="11.061425"><ele>426.0</ele><time>2026-03-22T09:03:33.998Z</time></trkpt><trkpt lat="44.4023533" lon="11.0614667"><ele>426.0</ele><time>2026-03-22T09:03:35.998Z</time></trkpt><trkpt lat="44.4022367" lon="11.0615133"><ele>426.0</ele><time>2026-03-22T09:03:37.992Z</time></trkpt><trkpt lat="44.40216" lon="11.0615767"><ele>426.0</ele><time>2026-03-22T09:03:39.992Z</time></trkpt><trkpt lat="44.4021033" lon="11.06163"><ele>426.20000000000005</ele><time>2026-03-22T09:03:41.994Z</time></trkpt><trkpt lat="44.4020267" lon="11.0616067"><ele>426.40000000000003</ele><time>2026-03-22T09:03:43.996Z</time></trkpt><trkpt lat="44.40191" lon="11.0615767"><ele>426.6</ele><time>2026-03-22T09:03:45.997Z</time></trkpt><trkpt lat="44.4018267" lon="11.0615617"><ele>426.8</ele><time>2026-03-22T09:03:46.991Z</time></trkpt><trkpt lat="44.4017417" lon="11.0615433"><ele>427.0</ele><time>2026-03-22T09:03:47.994Z</time></trkpt><trkpt lat="44.40166" lon="11.0615217"><ele>427.00000000000006</ele><time>2026-03-22T09:03:48.993Z</time></trkpt><trkpt lat="44.4015867" lon="11.0614817"><ele>427.0</ele><time>2026-03-22T09:03:49.998Z</time></trkpt><trkpt lat="44.4015167" lon="11.0614467"><ele>427.0</ele><time>2026-03-22T09:03:50.993Z</time></trkpt><trkpt lat="44.401455" lon="11.0614083"><ele>427.0</ele><time>2026-03-22T09:03:52.001Z</time></trkpt><trkpt lat="44.4013567" lon="11.0613517"><ele>427.00000000000006</ele><time>2026-03-22T09:03:53.991Z</time></trkpt><trkpt lat="44.4012917" lon="11.06131"><ele>427.0</ele><time>2026-03-22T09:03:55.994Z</time></trkpt><trkpt lat="44.401215" lon="11.06125"><ele>427.83333333333337</ele><time>2026-03-22T09:03:58.993Z</time></trkpt><trkpt lat="44.40113" lon="11.0611483"><ele>428.6666666666667</ele><time>2026-03-22T09:04:00.994Z</time></trkpt><trkpt lat="44.401075" lon="11.0610933"><ele>429.5</ele><time>2026-03-22T09:04:01.993Z</time></trkpt><trkpt lat="44.4010117" lon="11.0610433"><ele>430.33333333333337</ele><time>2026-03-22T09:04:02.994Z</time></trkpt><trkpt lat="44.4009417" lon="11.061"><ele>431.1666666666667</ele><time>2026-03-22T09:04:03.997Z</time></trkpt><trkpt lat="44.40087" lon="11.06097"><ele>432.0</ele><time>2026-03-22T09:04:04.99Z</time></trkpt><trkpt lat="44.4007967" lon="11.0609333"><ele>432.0</ele><time>2026-03-22T09:04:05.996Z</time></trkpt><trkpt lat="44.4007267" lon="11.06089"><ele>432.0</ele><time>2026-03-22T09:04:06.992Z</time></trkpt><trkpt lat="44.40063" lon="11.0608333"><ele>432.0</ele><time>2026-03-22T09:04:08.995Z</time></trkpt><trkpt lat="44.4005683" lon="11.0607833"><ele>432.0</ele><time>2026-03-22T09:04:10.996Z</time></trkpt><trkpt lat="44.4004717" lon="11.0606983"><ele>432.0</ele><time>2026-03-22T09:04:12.995Z</time></trkpt><trkpt lat="44.400405" lon="11.060645"><ele>432.0</ele><time>2026-03-22T09:04:13.994Z</time></trkpt><trkpt lat="44.400335" lon="11.0605917"><ele>432.8333333333333</ele><time>2026-03-22T09:04:14.999Z</time></trkpt><trkpt lat="44.4002667" lon="11.0605467"><ele>433.66666666666663</ele><time>2026-03-22T09:04:15.989Z</time></trkpt><trkpt lat="44.4001983" lon="11.06051"><ele>434.5</ele><time>2026-03-22T09:04:16.996Z</time></trkpt><trkpt lat="44.4001383" lon="11.060475"><ele>435.3333333333333</ele><time>2026-03-22T09:04:17.993Z</time></trkpt><trkpt lat="44.4000267" lon="11.0603683"><ele>436.16666666666663</ele><time>2026-03-22T09:04:19.994Z</time></trkpt><trkpt lat="44.3999583" lon="11.0602967"><ele>437.0</ele><time>2026-03-22T09:04:20.994Z</time></trkpt><trkpt lat="44.3998917" lon="11.0602333"><ele>436.99999999999994</ele><time>2026-03-22T09:04:21.992Z</time></trkpt><trkpt lat="44.3998233" lon="11.0601717"><ele>437.0</ele><time>2026-03-22T09:04:22.992Z</time></trkpt><trkpt lat="44.3997583" lon="11.0601"><ele>437.0</ele><time>2026-03-22T09:04:23.995Z</time></trkpt><trkpt lat="44.3996983" lon="11.060025"><ele>437.0</ele><time>2026-03-22T09:04:24.993Z</time></trkpt><trkpt lat="44.3996433" lon="11.05996"><ele>436.99999999999994</ele><time>2026-03-22T09:04:25.992Z</time></trkpt><trkpt lat="44.3995883" lon="11.0599067"><ele>437.0</ele><time>2026-03-22T09:04:26.994Z</time></trkpt><trkpt lat="44.3994983" lon="11.0598317"><ele>439.0</ele><time>2026-03-22T09:04:28.992Z</time></trkpt><trkpt lat="44.3994167" lon="11.0597733"><ele>441.00000000000006</ele><time>2026-03-22T09:04:30.99Z</time></trkpt><trkpt lat="44.3993067" lon="11.05969"><ele>443.00000000000006</ele><time>2026-03-22T09:04:32.994Z</time></trkpt><trkpt lat="44.399245" lon="11.059645"><ele>445.0</ele><time>2026-03-22T09:04:33.995Z</time></trkpt><trkpt lat="44.39915" lon="11.0595483"><ele>447.0</ele><time>2026-03-22T09:04:35.994Z</time></trkpt><trkpt lat="44.39911" lon="11.0594783"><ele>447.0</ele><time>2026-03-22T09:04:36.995Z</time></trkpt><trkpt lat="44.399065" lon="11.0594033"><ele>447.0</ele><time>2026-03-22T09:04:37.993Z</time></trkpt><trkpt lat="44.3990167" lon="11.0593267"><ele>447.0</ele><time>2026-03-22T09:04:38.989Z</time></trkpt><trkpt lat="44.3989617" lon="11.0592517"><ele>447.0</ele><time>2026-03-22T09:04:39.993Z</time></trkpt><trkpt lat="44.398905" lon="11.05919"><ele>447.0</ele><time>2026-03-22T09:04:40.988Z</time></trkpt><trkpt lat="44.3988283" lon="11.059075"><ele>447.0</ele><time>2026-03-22T09:04:42.991Z</time></trkpt><trkpt lat="44.39877" lon="11.058945"><ele>447.8</ele><time>2026-03-22T09:04:44.994Z</time></trkpt><trkpt lat="44.3987267" lon="11.0588017"><ele>448.6</ele><time>2026-03-22T09:04:46.989Z</time></trkpt><trkpt lat="44.3986683" lon="11.0586767"><ele>449.40000000000003</ele><time>2026-03-22T09:04:48.988Z</time></trkpt><trkpt lat="44.3986117" lon="11.0585233"><ele>450.20000000000005</ele><time>2026-03-22T09:04:50.993Z</time></trkpt><trkpt lat="44.398585" lon="11.0584217"><ele>451.0</ele><time>2026-03-22T09:04:51.996Z</time></trkpt><trkpt lat="44.3985567" lon="11.058305"><ele>451.33333333333337</ele><time>2026-03-22T09:04:52.995Z</time></trkpt><trkpt lat="44.3985283" lon="11.0581817"><ele>451.6666666666667</ele><time>2026-03-22T09:04:53.995Z</time></trkpt><trkpt lat="44.3985" lon="11.0580583"><ele>452.0</ele><time>2026-03-22T09:04:54.996Z</time></trkpt><trkpt lat="44.39848" lon="11.05794"><ele>452.33333333333337</ele><time>2026-03-22T09:04:55.995Z</time></trkpt><trkpt lat="44.3984683" lon="11.057815"><ele>452.6666666666667</ele><time>2026-03-22T09:04:56.996Z</time></trkpt><trkpt lat="44.3984667" lon="11.057695"><ele>453.0</ele><time>2026-03-22T09:04:57.994Z</time></trkpt><trkpt lat="44.398475" lon="11.057585"><ele>453.0</ele><time>2026-03-22T09:04:58.993Z</time></trkpt><trkpt lat="44.3984867" lon="11.0574817"><ele>452.99999999999994</ele><time>2026-03-22T09:04:59.995Z</time></trkpt><trkpt lat="44.3985133" lon="11.0573717"><ele>452.99999999999994</ele><time>2026-03-22T09:05:00.992Z</time></trkpt><trkpt lat="44.3985633" lon="11.05726"><ele>453.0</ele><time>2026-03-22T09:05:02.001Z</time></trkpt><trkpt lat="44.3986167" lon="11.05714"><ele>453.0</ele><time>2026-03-22T09:05:02.99Z</time></trkpt><trkpt lat="44.3986583" lon="11.0570083"><ele>452.79999999999995</ele><time>2026-03-22T09:05:03.993Z</time></trkpt><trkpt lat="44.3986867" lon="11.056865"><ele>452.59999999999997</ele><time>2026-03-22T09:05:04.989Z</time></trkpt><trkpt lat="44.3987033" lon="11.0567133"><ele>452.40000000000003</ele><time>2026-03-22T09:05:05.991Z</time></trkpt><trkpt lat="44.3987183" lon="11.0565667"><ele>452.20000000000005</ele><time>2026-03-22T09:05:06.992Z</time></trkpt><trkpt lat="44.39874" lon="11.05642"><ele>452.0</ele><time>2026-03-22T09:05:07.994Z</time></trkpt><trkpt lat="44.3987683" lon="11.0562817"><ele>451.99999999999994</ele><time>2026-03-22T09:05:08.997Z</time></trkpt><trkpt lat="44.39879" lon="11.056155"><ele>452.0</ele><time>2026-03-22T09:05:09.993Z</time></trkpt><trkpt lat="44.398805" lon="11.0560467"><ele>452.0</ele><time>2026-03-22T09:05:10.995Z</time></trkpt><trkpt lat="44.398815" lon="11.0559367"><ele>452.0</ele><time>2026-03-22T09:05:12.003Z</time></trkpt><trkpt lat="44.3988167" lon="11.0558133"><ele>451.99999999999994</ele><time>2026-03-22T09:05:12.995Z</time></trkpt><trkpt lat="44.398815" lon="11.0556933"><ele>452.0</ele><time>2026-03-22T09:05:13.992Z</time></trkpt><trkpt lat="44.3988083" lon="11.0555783"><ele>453.20000000000005</ele><time>2026-03-22T09:05:15Z</time></trkpt><trkpt lat="44.39879" lon="11.0554567"><ele>454.40000000000003</ele><time>2026-03-22T09:05:15.993Z</time></trkpt><trkpt lat="44.398765" lon="11.0553417"><ele>455.59999999999997</ele><time>2026-03-22T09:05:16.99Z</time></trkpt><trkpt lat="44.3987367" lon="11.0552367"><ele>456.79999999999995</ele><time>2026-03-22T09:05:17.996Z</time></trkpt><trkpt lat="44.3987117" lon="11.0551383"><ele>458.0</ele><time>2026-03-22T09:05:18.992Z</time></trkpt><trkpt lat="44.398665" lon="11.0549617"><ele>459.79999999999995</ele><time>2026-03-22T09:05:20.992Z</time></trkpt><trkpt lat="44.3986417" lon="11.05486"><ele>461.59999999999997</ele><time>2026-03-22T09:05:21.994Z</time></trkpt><trkpt lat="44.3986117" lon="11.0547417"><ele>463.40000000000003</ele><time>2026-03-22T09:05:22.991Z</time></trkpt><trkpt lat="44.3985833" lon="11.0546117"><ele>465.20000000000005</ele><time>2026-03-22T09:05:23.995Z</time></trkpt><trkpt lat="44.3985517" lon="11.054475"><ele>467.0</ele><time>2026-03-22T09:05:24.995Z</time></trkpt><trkpt lat="44.3985167" lon="11.05434"><ele>466.99999999999994</ele><time>2026-03-22T09:05:25.995Z</time></trkpt><trkpt lat="44.39848" lon="11.0542183"><ele>467.0</ele><time>2026-03-22T09:05:26.996Z</time></trkpt><trkpt lat="44.3984433" lon="11.0541133"><ele>467.0</ele><time>2026-03-22T09:05:27.996Z</time></trkpt><trkpt lat="44.39841" lon="11.0540167"><ele>467.0</ele><time>2026-03-22T09:05:28.995Z</time></trkpt><trkpt lat="44.3983917" lon="11.0539267"><ele>466.99999999999994</ele><time>2026-03-22T09:05:29.993Z</time></trkpt><trkpt lat="44.39839" lon="11.0538317"><ele>467.0</ele><time>2026-03-22T09:05:30.991Z</time></trkpt><trkpt lat="44.39839" lon="11.0537283"><ele>468.20000000000005</ele><time>2026-03-22T09:05:31.996Z</time></trkpt><trkpt lat="44.3983833" lon="11.0536033"><ele>469.40000000000003</ele><time>2026-03-22T09:05:32.996Z</time></trkpt><trkpt lat="44.39838" lon="11.0534683"><ele>470.59999999999997</ele><time>2026-03-22T09:05:33.989Z</time></trkpt><trkpt lat="44.39837" lon="11.0533267"><ele>471.79999999999995</ele><time>2026-03-22T09:05:34.99Z</time></trkpt><trkpt lat="44.398355" lon="11.053185"><ele>473.0</ele><time>2026-03-22T09:05:35.993Z</time></trkpt><trkpt lat="44.39834" lon="11.0530517"><ele>474.16666666666663</ele><time>2026-03-22T09:05:36.996Z</time></trkpt><trkpt lat="44.398325" lon="11.0529217"><ele>475.3333333333333</ele><time>2026-03-22T09:05:37.992Z</time></trkpt><trkpt lat="44.3983017" lon="11.05279"><ele>476.5</ele><time>2026-03-22T09:05:38.989Z</time></trkpt><trkpt lat="44.3982817" lon="11.052665"><ele>477.66666666666663</ele><time>2026-03-22T09:05:39.988Z</time></trkpt><trkpt lat="44.3982633" lon="11.0525533"><ele>478.8333333333333</ele><time>2026-03-22T09:05:40.99Z</time></trkpt><trkpt lat="44.3982483" lon="11.0524467"><ele>480.0</ele><time>2026-03-22T09:05:41.992Z</time></trkpt><trkpt lat="44.3982383" lon="11.0523483"><ele>481.6666666666667</ele><time>2026-03-22T09:05:42.992Z</time></trkpt><trkpt lat="44.3982233" lon="11.052255"><ele>483.33333333333337</ele><time>2026-03-22T09:05:43.991Z</time></trkpt><trkpt lat="44.3982117" lon="11.0521633"><ele>485.0</ele><time>2026-03-22T09:05:45.001Z</time></trkpt><trkpt lat="44.3982" lon="11.0520767"><ele>486.6666666666667</ele><time>2026-03-22T09:05:45.994Z</time></trkpt><trkpt lat="44.3981783" lon="11.0519333"><ele>488.33333333333337</ele><time>2026-03-22T09:05:47.996Z</time></trkpt><trkpt lat="44.3981683" lon="11.0517967"><ele>490.0</ele><time>2026-03-22T09:05:49.991Z</time></trkpt><trkpt lat="44.3981933" lon="11.05162"><ele>490.6666666666667</ele><time>2026-03-22T09:05:51.992Z</time></trkpt><trkpt lat="44.3982067" lon="11.05152"><ele>491.33333333333337</ele><time>2026-03-22T09:05:52.998Z</time></trkpt><trkpt lat="44.3982117" lon="11.0514133"><ele>492.0</ele><time>2026-03-22T09:05:53.996Z</time></trkpt><trkpt lat="44.3982033" lon="11.05131"><ele>492.66666666666663</ele><time>2026-03-22T09:05:54.998Z</time></trkpt><trkpt lat="44.39819" lon="11.05121"><ele>493.3333333333333</ele><time>2026-03-22T09:05:55.994Z</time></trkpt><trkpt lat="44.3981417" lon="11.0511333"><ele>494.0</ele><time>2026-03-22T09:05:57.002Z</time></trkpt><trkpt lat="44.3980783" lon="11.0510617"><ele>494.0</ele><time>2026-03-22T09:05:57.994Z</time></trkpt><trkpt lat="44.3980067" lon="11.0509883"><ele>494.0</ele><time>2026-03-22T09:05:58.992Z</time></trkpt><trkpt lat="44.39793" lon="11.05092"><ele>494.0</ele><time>2026-03-22T09:05:59.996Z</time></trkpt><trkpt lat="44.3978517" lon="11.05084"><ele>494.0</ele><time>2026-03-22T09:06:00.997Z</time></trkpt><trkpt lat="44.3977717" lon="11.0507617"><ele>494.0</ele><time>2026-03-22T09:06:01.994Z</time></trkpt><trkpt lat="44.3977017" lon="11.0506833"><ele>496.3333333333333</ele><time>2026-03-22T09:06:02.999Z</time></trkpt><trkpt lat="44.3976433" lon="11.0506117"><ele>498.66666666666663</ele><time>2026-03-22T09:06:03.989Z</time></trkpt><trkpt lat="44.39759" lon="11.0505383"><ele>501.0</ele><time>2026-03-22T09:06:04.989Z</time></trkpt><trkpt lat="44.3975383" lon="11.0504483"><ele>503.33333333333337</ele><time>2026-03-22T09:06:05.993Z</time></trkpt><trkpt lat="44.3975" lon="11.0503367"><ele>505.6666666666667</ele><time>2026-03-22T09:06:06.996Z</time></trkpt><trkpt lat="44.3974633" lon="11.0502117"><ele>508.0</ele><time>2026-03-22T09:06:07.993Z</time></trkpt><trkpt lat="44.39743" lon="11.0500783"><ele>508.2</ele><time>2026-03-22T09:06:08.995Z</time></trkpt><trkpt lat="44.3974017" lon="11.0499583"><ele>508.4</ele><time>2026-03-22T09:06:09.991Z</time></trkpt><trkpt lat="44.3973767" lon="11.0498433"><ele>508.59999999999997</ele><time>2026-03-22T09:06:10.992Z</time></trkpt><trkpt lat="44.3973483" lon="11.0497233"><ele>508.79999999999995</ele><time>2026-03-22T09:06:11.991Z</time></trkpt><trkpt lat="44.39732" lon="11.0495967"><ele>509.0</ele><time>2026-03-22T09:06:12.993Z</time></trkpt><trkpt lat="44.3972883" lon="11.0494767"><ele>509.0</ele><time>2026-03-22T09:06:13.993Z</time></trkpt><trkpt lat="44.39725" lon="11.0493733"><ele>509.0</ele><time>2026-03-22T09:06:14.996Z</time></trkpt><trkpt lat="44.3972167" lon="11.04927"><ele>509.0</ele><time>2026-03-22T09:06:15.992Z</time></trkpt><trkpt lat="44.3971817" lon="11.0491767"><ele>509.0</ele><time>2026-03-22T09:06:16.995Z</time></trkpt><trkpt lat="44.3971283" lon="11.04903"><ele>509.0</ele><time>2026-03-22T09:06:18.997Z</time></trkpt><trkpt lat="44.3970783" lon="11.048875"><ele>510.1428571428571</ele><time>2026-03-22T09:06:21.002Z</time></trkpt><trkpt lat="44.3970433" lon="11.048795"><ele>511.2857142857143</ele><time>2026-03-22T09:06:21.992Z</time></trkpt><trkpt lat="44.3969983" lon="11.0487083"><ele>512.4285714285714</ele><time>2026-03-22T09:06:22.991Z</time></trkpt><trkpt lat="44.3969533" lon="11.0486317"><ele>513.5714285714286</ele><time>2026-03-22T09:06:24.001Z</time></trkpt><trkpt lat="44.396905" lon="11.0485683"><ele>514.7142857142858</ele><time>2026-03-22T09:06:24.997Z</time></trkpt><trkpt lat="44.39685" lon="11.0485083"><ele>515.8571428571429</ele><time>2026-03-22T09:06:25.992Z</time></trkpt><trkpt lat="44.3967983" lon="11.0484483"><ele>517.0</ele><time>2026-03-22T09:06:26.995Z</time></trkpt><trkpt lat="44.39675" lon="11.0483917"><ele>517.0</ele><time>2026-03-22T09:06:27.999Z</time></trkpt><trkpt lat="44.396695" lon="11.0483333"><ele>517.0</ele><time>2026-03-22T09:06:28.995Z</time></trkpt><trkpt lat="44.3966467" lon="11.0482683"><ele>517.0</ele><time>2026-03-22T09:06:29.995Z</time></trkpt><trkpt lat="44.3965967" lon="11.0482"><ele>517.0</ele><time>2026-03-22T09:06:30.994Z</time></trkpt><trkpt lat="44.3965433" lon="11.0481233"><ele>517.0</ele><time>2026-03-22T09:06:31.991Z</time></trkpt><trkpt lat="44.3964867" lon="11.0480433"><ele>517.0</ele><time>2026-03-22T09:06:32.995Z</time></trkpt><trkpt lat="44.3964267" lon="11.0479717"><ele>517.0</ele><time>2026-03-22T09:06:33.99Z</time></trkpt><trkpt lat="44.3963667" lon="11.0479117"><ele>516.5714285714286</ele><time>2026-03-22T09:06:34.993Z</time></trkpt><trkpt lat="44.39631" lon="11.0478567"><ele>516.1428571428572</ele><time>2026-03-22T09:06:35.989Z</time></trkpt><trkpt lat="44.396255" lon="11.047795"><ele>515.7142857142858</ele><time>2026-03-22T09:06:36.992Z</time></trkpt><trkpt lat="44.3962083" lon="11.0477183"><ele>515.2857142857143</ele><time>2026-03-22T09:06:37.988Z</time></trkpt><trkpt lat="44.39616" lon="11.0476433"><ele>514.8571428571429</ele><time>2026-03-22T09:06:38.992Z</time></trkpt><trkpt lat="44.3961083" lon="11.0475717"><ele>514.4285714285714</ele><time>2026-03-22T09:06:39.988Z</time></trkpt><trkpt lat="44.3960617" lon="11.047505"><ele>514.0</ele><time>2026-03-22T09:06:40.995Z</time></trkpt><trkpt lat="44.39601" lon="11.047445"><ele>511.2</ele><time>2026-03-22T09:06:41.993Z</time></trkpt><trkpt lat="44.3959633" lon="11.0473783"><ele>508.4</ele><time>2026-03-22T09:06:42.989Z</time></trkpt><trkpt lat="44.39591" lon="11.0473217"><ele>505.6</ele><time>2026-03-22T09:06:43.996Z</time></trkpt><trkpt lat="44.395815" lon="11.0472283"><ele>502.8</ele><time>2026-03-22T09:06:45.992Z</time></trkpt><trkpt lat="44.39571" lon="11.0471767"><ele>500.0</ele><time>2026-03-22T09:06:47.993Z</time></trkpt><trkpt lat="44.3955833" lon="11.047195"><ele>500.0</ele><time>2026-03-22T09:06:49.997Z</time></trkpt><trkpt lat="44.3955167" lon="11.0472167"><ele>500.0</ele><time>2026-03-22T09:06:50.993Z</time></trkpt><trkpt lat="44.3954533" lon="11.04724"><ele>500.0</ele><time>2026-03-22T09:06:51.997Z</time></trkpt><trkpt lat="44.3953867" lon="11.047275"><ele>500.0</ele><time>2026-03-22T09:06:52.993Z</time></trkpt><trkpt lat="44.3953267" lon="11.047305"><ele>500.0</ele><time>2026-03-22T09:06:53.991Z</time></trkpt><trkpt lat="44.3952617" lon="11.04733"><ele>500.0</ele><time>2026-03-22T09:06:54.998Z</time></trkpt><trkpt lat="44.3951983" lon="11.047355"><ele>500.0</ele><time>2026-03-22T09:06:55.996Z</time></trkpt><trkpt lat="44.39512" lon="11.0473967"><ele>499.66666666666663</ele><time>2026-03-22T09:06:56.994Z</time></trkpt><trkpt lat="44.3950367" lon="11.0474417"><ele>499.3333333333333</ele><time>2026-03-22T09:06:57.994Z</time></trkpt><trkpt lat="44.394955" lon="11.04748"><ele>499.0</ele><time>2026-03-22T09:06:58.992Z</time></trkpt><trkpt lat="44.3948767" lon="11.04751"><ele>498.66666666666663</ele><time>2026-03-22T09:06:59.991Z</time></trkpt><trkpt lat="44.3948067" lon="11.0475433"><ele>498.3333333333333</ele><time>2026-03-22T09:07:00.996Z</time></trkpt><trkpt lat="44.3946967" lon="11.04759"><ele>498.0</ele><time>2026-03-22T09:07:02.992Z</time></trkpt><trkpt lat="44.3945817" lon="11.0475683"><ele>496.5</ele><time>2026-03-22T09:07:04.999Z</time></trkpt><trkpt lat="44.3945217" lon="11.0475167"><ele>495.0</ele><time>2026-03-22T09:07:05.997Z</time></trkpt><trkpt lat="44.3944683" lon="11.0474533"><ele>493.5</ele><time>2026-03-22T09:07:06.995Z</time></trkpt><trkpt lat="44.3944083" lon="11.0473967"><ele>492.0</ele><time>2026-03-22T09:07:07.994Z</time></trkpt><trkpt lat="44.3943467" lon="11.0473667"><ele>490.5</ele><time>2026-03-22T09:07:08.991Z</time></trkpt><trkpt lat="44.3942467" lon="11.0473083"><ele>489.0</ele><time>2026-03-22T09:07:10.989Z</time></trkpt><trkpt lat="44.3941417" lon="11.047265"><ele>486.6</ele><time>2026-03-22T09:07:12.997Z</time></trkpt><trkpt lat="44.3940367" lon="11.0471667"><ele>484.2</ele><time>2026-03-22T09:07:14.991Z</time></trkpt><trkpt lat="44.3939433" lon="11.0470717"><ele>481.80000000000007</ele><time>2026-03-22T09:07:16.993Z</time></trkpt><trkpt lat="44.3938767" lon="11.0470367"><ele>479.40000000000003</ele><time>2026-03-22T09:07:17.995Z</time></trkpt><trkpt lat="44.3937917" lon="11.0470267"><ele>477.0</ele><time>2026-03-22T09:07:18.992Z</time></trkpt><trkpt lat="44.3937117" lon="11.0470283"><ele>476.5</ele><time>2026-03-22T09:07:19.995Z</time></trkpt><trkpt lat="44.39364" lon="11.0470117"><ele>476.0</ele><time>2026-03-22T09:07:20.99Z</time></trkpt><trkpt lat="44.3935683" lon="11.0470083"><ele>475.5</ele><time>2026-03-22T09:07:21.995Z</time></trkpt><trkpt lat="44.3934967" lon="11.0470133"><ele>475.0</ele><time>2026-03-22T09:07:23.001Z</time></trkpt><trkpt lat="44.3934283" lon="11.0470267"><ele>474.5</ele><time>2026-03-22T09:07:23.995Z</time></trkpt><trkpt lat="44.39332" lon="11.0470883"><ele>474.0</ele><time>2026-03-22T09:07:25.991Z</time></trkpt><trkpt lat="44.393235" lon="11.047135"><ele>474.0</ele><time>2026-03-22T09:07:27.993Z</time></trkpt><trkpt lat="44.3931633" lon="11.0471517"><ele>474.0</ele><time>2026-03-22T09:07:29.999Z</time></trkpt><trkpt lat="44.3930833" lon="11.0471667"><ele>474.0</ele><time>2026-03-22T09:07:31.988Z</time></trkpt><trkpt lat="44.3929967" lon="11.0471917"><ele>474.0</ele><time>2026-03-22T09:07:33.997Z</time></trkpt><trkpt lat="44.3928917" lon="11.0472333"><ele>474.0</ele><time>2026-03-22T09:07:35.993Z</time></trkpt><trkpt lat="44.392795" lon="11.0472833"><ele>475.5</ele><time>2026-03-22T09:07:37.993Z</time></trkpt><trkpt lat="44.3927017" lon="11.0473183"><ele>477.0</ele><time>2026-03-22T09:07:39.995Z</time></trkpt><trkpt lat="44.3926067" lon="11.04733"><ele>478.5</ele><time>2026-03-22T09:07:41.993Z</time></trkpt><trkpt lat="44.3925267" lon="11.047325"><ele>480.0</ele><time>2026-03-22T09:07:43.996Z</time></trkpt><trkpt lat="44.392455" lon="11.0472983"><ele>481.5</ele><time>2026-03-22T09:07:45.997Z</time></trkpt><trkpt lat="44.39238" lon="11.04724"><ele>483.0</ele><time>2026-03-22T09:07:47.999Z</time></trkpt><trkpt lat="44.3923067" lon="11.0471833"><ele>483.0</ele><time>2026-03-22T09:07:49.991Z</time></trkpt><trkpt lat="44.3922268" lon="11.0471201"><ele>482.99999999999994</ele><time>2026-03-22T09:07:51.99Z</time></trkpt><trkpt lat="44.3921348" lon="11.0470766"><ele>482.99999999999994</ele><time>2026-03-22T09:07:54.001Z</time></trkpt><trkpt lat="44.3920235" lon="11.0470693"><ele>483.0</ele><time>2026-03-22T09:07:55.991Z</time></trkpt><trkpt lat="44.3919318" lon="11.0471103"><ele>483.0</ele><time>2026-03-22T09:07:57.991Z</time></trkpt><trkpt lat="44.3918385" lon="11.0471635"><ele>485.4</ele><time>2026-03-22T09:07:59.99Z</time></trkpt><trkpt lat="44.3917563" lon="11.0472098"><ele>487.79999999999995</ele><time>2026-03-22T09:08:01.992Z</time></trkpt><trkpt lat="44.3916677" lon="11.0472328"><ele>490.2</ele><time>2026-03-22T09:08:03.996Z</time></trkpt><trkpt lat="44.3915633" lon="11.0472246"><ele>492.6</ele><time>2026-03-22T09:08:05.991Z</time></trkpt><trkpt lat="44.3914718" lon="11.0472012"><ele>495.0</ele><time>2026-03-22T09:08:07.997Z</time></trkpt><trkpt lat="44.3913964" lon="11.0471828"><ele>497.0</ele><time>2026-03-22T09:08:09.991Z</time></trkpt><trkpt lat="44.3912917" lon="11.0471863"><ele>499.0</ele><time>2026-03-22T09:08:11.992Z</time></trkpt><trkpt lat="44.3912012" lon="11.04718"><ele>501.0</ele><time>2026-03-22T09:08:14.016Z</time></trkpt><trkpt lat="44.3910766" lon="11.0471641"><ele>503.0</ele><time>2026-03-22T09:08:15.997Z</time></trkpt><trkpt lat="44.391008" lon="11.0471516"><ele>505.0</ele><time>2026-03-22T09:08:16.997Z</time></trkpt><trkpt lat="44.3909427" lon="11.0471385"><ele>505.00000000000006</ele><time>2026-03-22T09:08:17.994Z</time></trkpt><trkpt lat="44.3908471" lon="11.0471089"><ele>505.0</ele><time>2026-03-22T09:08:19.989Z</time></trkpt><trkpt lat="44.3907786" lon="11.0470821"><ele>505.0</ele><time>2026-03-22T09:08:21.998Z</time></trkpt><trkpt lat="44.3906977" lon="11.0470575"><ele>505.0</ele><time>2026-03-22T09:08:24.996Z</time></trkpt><trkpt lat="44.3906305" lon="11.0470047"><ele>505.00000000000006</ele><time>2026-03-22T09:08:27.989Z</time></trkpt><trkpt lat="44.3905774" lon="11.0468836"><ele>505.0</ele><time>2026-03-22T09:08:29.995Z</time></trkpt><trkpt lat="44.3905275" lon="11.046793"><ele>505.00000000000006</ele><time>2026-03-22T09:08:30.997Z</time></trkpt><trkpt lat="44.3904718" lon="11.0467011"><ele>505.0</ele><time>2026-03-22T09:08:31.989Z</time></trkpt><trkpt lat="44.3904072" lon="11.0466267"><ele>505.0</ele><time>2026-03-22T09:08:32.995Z</time></trkpt><trkpt lat="44.3903403" lon="11.0465496"><ele>505.0</ele><time>2026-03-22T09:08:34Z</time></trkpt><trkpt lat="44.3902701" lon="11.0464643"><ele>505.00000000000006</ele><time>2026-03-22T09:08:34.989Z</time></trkpt><trkpt lat="44.3902081" lon="11.0463812"><ele>505.0</ele><time>2026-03-22T09:08:35.994Z</time></trkpt><trkpt lat="44.3901559" lon="11.0463211"><ele>504.6</ele><time>2026-03-22T09:08:36.991Z</time></trkpt><trkpt lat="44.3900621" lon="11.046266"><ele>504.2</ele><time>2026-03-22T09:08:38.991Z</time></trkpt><trkpt lat="44.3899633" lon="11.0462217"><ele>503.79999999999995</ele><time>2026-03-22T09:08:40.99Z</time></trkpt><trkpt lat="44.3898433" lon="11.04616"><ele>503.4</ele><time>2026-03-22T09:08:42.996Z</time></trkpt><trkpt lat="44.3897733" lon="11.0461267"><ele>503.0</ele><time>2026-03-22T09:08:43.991Z</time></trkpt><trkpt lat="44.3897017" lon="11.0460983"><ele>504.8571428571429</ele><time>2026-03-22T09:08:44.994Z</time></trkpt><trkpt lat="44.3896267" lon="11.046075"><ele>506.7142857142858</ele><time>2026-03-22T09:08:45.996Z</time></trkpt><trkpt lat="44.38956" lon="11.0460667"><ele>508.57142857142856</ele><time>2026-03-22T09:08:46.992Z</time></trkpt><trkpt lat="44.389495" lon="11.04607"><ele>510.42857142857144</ele><time>2026-03-22T09:08:48Z</time></trkpt><trkpt lat="44.3894267" lon="11.0460683"><ele>512.2857142857142</ele><time>2026-03-22T09:08:48.99Z</time></trkpt><trkpt lat="44.3893583" lon="11.046065"><ele>514.1428571428571</ele><time>2026-03-22T09:08:49.999Z</time></trkpt><trkpt lat="44.3892883" lon="11.0460533"><ele>516.0</ele><time>2026-03-22T09:08:50.99Z</time></trkpt><trkpt lat="44.3892233" lon="11.0460333"><ele>516.0</ele><time>2026-03-22T09:08:51.989Z</time></trkpt><trkpt lat="44.38911" lon="11.046025"><ele>516.0</ele><time>2026-03-22T09:08:53.987Z</time></trkpt><trkpt lat="44.389025" lon="11.0461117"><ele>516.0</ele><time>2026-03-22T09:08:55.994Z</time></trkpt><trkpt lat="44.3889267" lon="11.046225"><ele>516.0</ele><time>2026-03-22T09:08:57.998Z</time></trkpt><trkpt lat="44.3888633" lon="11.04627"><ele>516.0</ele><time>2026-03-22T09:08:58.993Z</time></trkpt><trkpt lat="44.388795" lon="11.0462983"><ele>516.1666666666666</ele><time>2026-03-22T09:08:59.996Z</time></trkpt><trkpt lat="44.3887317" lon="11.04633"><ele>516.3333333333334</ele><time>2026-03-22T09:09:00.991Z</time></trkpt><trkpt lat="44.388665" lon="11.0463783"><ele>516.5</ele><time>2026-03-22T09:09:02Z</time></trkpt><trkpt lat="44.388605" lon="11.0464317"><ele>516.6666666666667</ele><time>2026-03-22T09:09:02.994Z</time></trkpt><trkpt lat="44.388555" lon="11.0465"><ele>516.8333333333334</ele><time>2026-03-22T09:09:03.991Z</time></trkpt><trkpt lat="44.3885083" lon="11.0465733"><ele>517.0</ele><time>2026-03-22T09:09:04.993Z</time></trkpt><trkpt lat="44.3884133" lon="11.046665"><ele>517.0</ele><time>2026-03-22T09:09:06.989Z</time></trkpt><trkpt lat="44.3883483" lon="11.0466883"><ele>517.0</ele><time>2026-03-22T09:09:07.996Z</time></trkpt><trkpt lat="44.3882367" lon="11.0467217"><ele>517.0</ele><time>2026-03-22T09:09:09.994Z</time></trkpt><trkpt lat="44.3881733" lon="11.0467483"><ele>517.0</ele><time>2026-03-22T09:09:10.989Z</time></trkpt><trkpt lat="44.388115" lon="11.0467833"><ele>517.0</ele><time>2026-03-22T09:09:11.993Z</time></trkpt><trkpt lat="44.3880617" lon="11.0468317"><ele>517.0</ele><time>2026-03-22T09:09:12.995Z</time></trkpt><trkpt lat="44.3879867" lon="11.0469017"><ele>518.4</ele><time>2026-03-22T09:09:14.999Z</time></trkpt><trkpt lat="44.387925" lon="11.0468767"><ele>519.8000000000001</ele><time>2026-03-22T09:09:16.99Z</time></trkpt><trkpt lat="44.3878683" lon="11.0467617"><ele>521.2</ele><time>2026-03-22T09:09:18.992Z</time></trkpt><trkpt lat="44.3878133" lon="11.0466067"><ele>522.6</ele><time>2026-03-22T09:09:20.993Z</time></trkpt><trkpt lat="44.3877667" lon="11.046465"><ele>524.0</ele><time>2026-03-22T09:09:22.992Z</time></trkpt><trkpt lat="44.3877083" lon="11.04633"><ele>527.6</ele><time>2026-03-22T09:09:24.994Z</time></trkpt><trkpt lat="44.38765" lon="11.0462167"><ele>531.2</ele><time>2026-03-22T09:09:26.991Z</time></trkpt><trkpt lat="44.3876267" lon="11.0460533"><ele>534.8000000000001</ele><time>2026-03-22T09:09:28.992Z</time></trkpt><trkpt lat="44.38763" lon="11.0458817"><ele>538.4</ele><time>2026-03-22T09:09:30.991Z</time></trkpt><trkpt lat="44.38763" lon="11.0457933"><ele>542.0</ele><time>2026-03-22T09:09:31.99Z</time></trkpt><trkpt lat="44.38763" lon="11.0456817"><ele>544.6666666666666</ele><time>2026-03-22T09:09:32.991Z</time></trkpt><trkpt lat="44.3876367" lon="11.0455533"><ele>547.3333333333333</ele><time>2026-03-22T09:09:33.99Z</time></trkpt><trkpt lat="44.3876483" lon="11.0454233"><ele>550.0</ele><time>2026-03-22T09:09:34.99Z</time></trkpt><trkpt lat="44.3876667" lon="11.045295"><ele>552.6666666666666</ele><time>2026-03-22T09:09:35.994Z</time></trkpt><trkpt lat="44.387685" lon="11.0451717"><ele>555.3333333333334</ele><time>2026-03-22T09:09:36.996Z</time></trkpt><trkpt lat="44.3877083" lon="11.0450733"><ele>558.0</ele><time>2026-03-22T09:09:37.993Z</time></trkpt><trkpt lat="44.387745" lon="11.044985"><ele>559.1666666666666</ele><time>2026-03-22T09:09:38.997Z</time></trkpt><trkpt lat="44.3878017" lon="11.0449067"><ele>560.3333333333334</ele><time>2026-03-22T09:09:39.994Z</time></trkpt><trkpt lat="44.3878633" lon="11.04482"><ele>561.5</ele><time>2026-03-22T09:09:40.989Z</time></trkpt><trkpt lat="44.3879217" lon="11.0447033"><ele>562.6666666666667</ele><time>2026-03-22T09:09:41.998Z</time></trkpt><trkpt lat="44.3879767" lon="11.044585"><ele>563.8333333333334</ele><time>2026-03-22T09:09:42.994Z</time></trkpt><trkpt lat="44.3880133" lon="11.04449"><ele>565.0</ele><time>2026-03-22T09:09:43.994Z</time></trkpt><trkpt lat="44.38802" lon="11.0443367"><ele>565.0</ele><time>2026-03-22T09:09:45.995Z</time></trkpt><trkpt lat="44.38794" lon="11.0442533"><ele>565.0</ele><time>2026-03-22T09:09:47.993Z</time></trkpt><trkpt lat="44.3878233" lon="11.0442133"><ele>565.0</ele><time>2026-03-22T09:09:48.991Z</time></trkpt><trkpt lat="44.38772" lon="11.0441867"><ele>565.0</ele><time>2026-03-22T09:09:49.991Z</time></trkpt><trkpt lat="44.3875967" lon="11.0441717"><ele>565.0</ele><time>2026-03-22T09:09:50.993Z</time></trkpt><trkpt lat="44.38748" lon="11.0441717"><ele>565.0</ele><time>2026-03-22T09:09:51.996Z</time></trkpt><trkpt lat="44.38737" lon="11.04417"><ele>565.0</ele><time>2026-03-22T09:09:52.987Z</time></trkpt><trkpt lat="44.3872633" lon="11.0441583"><ele>565.0</ele><time>2026-03-22T09:09:53.994Z</time></trkpt><trkpt lat="44.38716" lon="11.0441517"><ele>565.0</ele><time>2026-03-22T09:09:54.99Z</time></trkpt><trkpt lat="44.38705" lon="11.0441467"><ele>565.0</ele><time>2026-03-22T09:09:55.997Z</time></trkpt><trkpt lat="44.38694" lon="11.044135"><ele>562.6</ele><time>2026-03-22T09:09:56.994Z</time></trkpt><trkpt lat="44.3868367" lon="11.04412"><ele>560.2</ele><time>2026-03-22T09:09:57.988Z</time></trkpt><trkpt lat="44.3867267" lon="11.0441167"><ele>557.8</ele><time>2026-03-22T09:09:58.994Z</time></trkpt><trkpt lat="44.38662" lon="11.044115"><ele>555.4</ele><time>2026-03-22T09:09:59.994Z</time></trkpt><trkpt lat="44.38653" lon="11.044105"><ele>553.0</ele><time>2026-03-22T09:10:00.992Z</time></trkpt><trkpt lat="44.3864483" lon="11.0440817"><ele>553.0</ele><time>2026-03-22T09:10:01.992Z</time></trkpt><trkpt lat="44.3863733" lon="11.04406"><ele>553.0</ele><time>2026-03-22T09:10:02.99Z</time></trkpt><trkpt lat="44.38631" lon="11.0440333"><ele>553.0</ele><time>2026-03-22T09:10:03.989Z</time></trkpt><trkpt lat="44.386195" lon="11.0439933"><ele>553.0</ele><time>2026-03-22T09:10:05.993Z</time></trkpt><trkpt lat="44.3860933" lon="11.0439117"><ele>553.0</ele><time>2026-03-22T09:10:07.99Z</time></trkpt><trkpt lat="44.386045" lon="11.043855"><ele>553.0</ele><time>2026-03-22T09:10:08.99Z</time></trkpt><trkpt lat="44.3859983" lon="11.0437933"><ele>553.1666666666667</ele><time>2026-03-22T09:10:09.989Z</time></trkpt><trkpt lat="44.3859583" lon="11.0437217"><ele>553.3333333333334</ele><time>2026-03-22T09:10:10.989Z</time></trkpt><trkpt lat="44.38592" lon="11.0436283"><ele>553.5</ele><time>2026-03-22T09:10:11.989Z</time></trkpt><trkpt lat="44.3858817" lon="11.04352"><ele>553.6666666666666</ele><time>2026-03-22T09:10:12.995Z</time></trkpt><trkpt lat="44.3858367" lon="11.04341"><ele>553.8333333333333</ele><time>2026-03-22T09:10:13.991Z</time></trkpt><trkpt lat="44.3857883" lon="11.0433083"><ele>554.0</ele><time>2026-03-22T09:10:14.994Z</time></trkpt><trkpt lat="44.385725" lon="11.0432083"><ele>554.0</ele><time>2026-03-22T09:10:15.999Z</time></trkpt><trkpt lat="44.3856633" lon="11.043095"><ele>554.0</ele><time>2026-03-22T09:10:16.994Z</time></trkpt><trkpt lat="44.385605" lon="11.0429667"><ele>554.0</ele><time>2026-03-22T09:10:17.992Z</time></trkpt><trkpt lat="44.3855467" lon="11.04283"><ele>554.0</ele><time>2026-03-22T09:10:18.988Z</time></trkpt><trkpt lat="44.3854883" lon="11.0426917"><ele>554.0</ele><time>2026-03-22T09:10:19.988Z</time></trkpt><trkpt lat="44.38543" lon="11.04256"><ele>554.6666666666666</ele><time>2026-03-22T09:10:20.989Z</time></trkpt><trkpt lat="44.3853733" lon="11.04245"><ele>555.3333333333333</ele><time>2026-03-22T09:10:21.987Z</time></trkpt><trkpt lat="44.3853117" lon="11.0423617"><ele>556.0</ele><time>2026-03-22T09:10:22.991Z</time></trkpt><trkpt lat="44.385255" lon="11.042285"><ele>556.6666666666666</ele><time>2026-03-22T09:10:23.99Z</time></trkpt><trkpt lat="44.3851983" lon="11.04222"><ele>557.3333333333334</ele><time>2026-03-22T09:10:24.997Z</time></trkpt><trkpt lat="44.3851383" lon="11.0421617"><ele>558.0</ele><time>2026-03-22T09:10:25.99Z</time></trkpt><trkpt lat="44.3850767" lon="11.0421083"><ele>558.0</ele><time>2026-03-22T09:10:26.997Z</time></trkpt><trkpt lat="44.3850067" lon="11.042065"><ele>558.0</ele><time>2026-03-22T09:10:27.991Z</time></trkpt><trkpt lat="44.3849317" lon="11.0420267"><ele>558.0</ele><time>2026-03-22T09:10:28.99Z</time></trkpt><trkpt lat="44.3848533" lon="11.0419833"><ele>558.0</ele><time>2026-03-22T09:10:29.991Z</time></trkpt><trkpt lat="44.3847767" lon="11.0419383"><ele>558.0</ele><time>2026-03-22T09:10:30.992Z</time></trkpt><trkpt lat="44.3847017" lon="11.0418883"><ele>558.0</ele><time>2026-03-22T09:10:31.994Z</time></trkpt><trkpt lat="44.38463" lon="11.041835"><ele>558.6</ele><time>2026-03-22T09:10:32.997Z</time></trkpt><trkpt lat="44.3845583" lon="11.0417733"><ele>559.1999999999999</ele><time>2026-03-22T09:10:33.991Z</time></trkpt><trkpt lat="44.3844817" lon="11.041715"><ele>559.8</ele><time>2026-03-22T09:10:35Z</time></trkpt><trkpt lat="44.3844017" lon="11.0416567"><ele>560.4</ele><time>2026-03-22T09:10:36Z</time></trkpt><trkpt lat="44.3843167" lon="11.0416017"><ele>561.0</ele><time>2026-03-22T09:10:36.993Z</time></trkpt><trkpt lat="44.38422" lon="11.0415533"><ele>561.0</ele><time>2026-03-22T09:10:37.991Z</time></trkpt><trkpt lat="44.384115" lon="11.041495"><ele>561.0</ele><time>2026-03-22T09:10:38.993Z</time></trkpt><trkpt lat="44.3840033" lon="11.0414233"><ele>561.0</ele><time>2026-03-22T09:10:39.995Z</time></trkpt><trkpt lat="44.383885" lon="11.0413367"><ele>561.0</ele><time>2026-03-22T09:10:40.988Z</time></trkpt><trkpt lat="44.3837633" lon="11.0412417"><ele>565.25</ele><time>2026-03-22T09:10:41.996Z</time></trkpt><trkpt lat="44.383645" lon="11.041145"><ele>569.5</ele><time>2026-03-22T09:10:42.996Z</time></trkpt><trkpt lat="44.3835267" lon="11.041045"><ele>573.75</ele><time>2026-03-22T09:10:43.993Z</time></trkpt><trkpt lat="44.3834117" lon="11.0409533"><ele>578.0</ele><time>2026-03-22T09:10:44.996Z</time></trkpt><trkpt lat="44.3832983" lon="11.04088"><ele>578.0</ele><time>2026-03-22T09:10:45.994Z</time></trkpt><trkpt lat="44.3831983" lon="11.0408233"><ele>578.0</ele><time>2026-03-22T09:10:46.992Z</time></trkpt><trkpt lat="44.383105" lon="11.0407867"><ele>578.0</ele><time>2026-03-22T09:10:47.992Z</time></trkpt><trkpt lat="44.3830267" lon="11.0407333"><ele>578.0</ele><time>2026-03-22T09:10:48.991Z</time></trkpt><trkpt lat="44.38295" lon="11.0406617"><ele>578.0</ele><time>2026-03-22T09:10:50Z</time></trkpt><trkpt lat="44.3828617" lon="11.0405783"><ele>581.8</ele><time>2026-03-22T09:10:50.998Z</time></trkpt><trkpt lat="44.3827667" lon="11.04051"><ele>585.5999999999999</ele><time>2026-03-22T09:10:51.992Z</time></trkpt><trkpt lat="44.3826817" lon="11.0404433"><ele>589.4000000000001</ele><time>2026-03-22T09:10:52.999Z</time></trkpt><trkpt lat="44.3826" lon="11.04039"><ele>593.2</ele><time>2026-03-22T09:10:53.99Z</time></trkpt><trkpt lat="44.382525" lon="11.040335"><ele>597.0</ele><time>2026-03-22T09:10:54.993Z</time></trkpt><trkpt lat="44.3824533" lon="11.0402883"><ele>597.0</ele><time>2026-03-22T09:10:55.992Z</time></trkpt><trkpt lat="44.38239" lon="11.040235"><ele>597.0</ele><time>2026-03-22T09:10:56.99Z</time></trkpt><trkpt lat="44.3823333" lon="11.0401833"><ele>597.0</ele><time>2026-03-22T09:10:57.989Z</time></trkpt><trkpt lat="44.38228" lon="11.0401317"><ele>597.0</ele><time>2026-03-22T09:10:58.996Z</time></trkpt><trkpt lat="44.3821683" lon="11.0400883"><ele>597.0</ele><time>2026-03-22T09:11:00.993Z</time></trkpt><trkpt lat="44.3820733" lon="11.0401033"><ele>597.0</ele><time>2026-03-22T09:11:02.991Z</time></trkpt><trkpt lat="44.3819917" lon="11.0401367"><ele>598.0000000000001</ele><time>2026-03-22T09:11:04.992Z</time></trkpt><trkpt lat="44.3819183" lon="11.04018"><ele>599.0</ele><time>2026-03-22T09:11:06.99Z</time></trkpt><trkpt lat="44.3818283" lon="11.0401867"><ele>600.0</ele><time>2026-03-22T09:11:08.989Z</time></trkpt><trkpt lat="44.381765" lon="11.0401633"><ele>601.0</ele><time>2026-03-22T09:11:09.992Z</time></trkpt><trkpt lat="44.3816967" lon="11.0401267"><ele>602.0</ele><time>2026-03-22T09:11:10.992Z</time></trkpt><trkpt lat="44.38163" lon="11.0400867"><ele>603.0000000000001</ele><time>2026-03-22T09:11:11.992Z</time></trkpt><trkpt lat="44.381575" lon="11.0400317"><ele>604.0</ele><time>2026-03-22T09:11:13Z</time></trkpt><trkpt lat="44.3815233" lon="11.03997"><ele>604.6</ele><time>2026-03-22T09:11:13.993Z</time></trkpt><trkpt lat="44.381475" lon="11.0399033"><ele>605.2</ele><time>2026-03-22T09:11:14.995Z</time></trkpt><trkpt lat="44.38143" lon="11.0398367"><ele>605.8000000000001</ele><time>2026-03-22T09:11:15.992Z</time></trkpt><trkpt lat="44.3813433" lon="11.0397233"><ele>606.4</ele><time>2026-03-22T09:11:17.996Z</time></trkpt><trkpt lat="44.3812783" lon="11.039605"><ele>607.0</ele><time>2026-03-22T09:11:19.993Z</time></trkpt><trkpt lat="44.3812017" lon="11.0394933"><ele>607.5</ele><time>2026-03-22T09:11:21.99Z</time></trkpt><trkpt lat="44.381155" lon="11.039415"><ele>608.0</ele><time>2026-03-22T09:11:22.999Z</time></trkpt><trkpt lat="44.38109" lon="11.0393533"><ele>608.5</ele><time>2026-03-22T09:11:23.991Z</time></trkpt><trkpt lat="44.3810267" lon="11.039295"><ele>609.0</ele><time>2026-03-22T09:11:24.994Z</time></trkpt><trkpt lat="44.3809667" lon="11.0392483"><ele>609.5</ele><time>2026-03-22T09:11:25.993Z</time></trkpt><trkpt lat="44.3808783" lon="11.0392383"><ele>610.0</ele><time>2026-03-22T09:11:27.992Z</time></trkpt><trkpt lat="44.380775" lon="11.03919"><ele>610.5</ele><time>2026-03-22T09:11:29.993Z</time></trkpt><trkpt lat="44.3806733" lon="11.0391333"><ele>611.0</ele><time>2026-03-22T09:11:31.99Z</time></trkpt><trkpt lat="44.3806033" lon="11.0390817"><ele>611.5</ele><time>2026-03-22T09:11:33.991Z</time></trkpt><trkpt lat="44.38056" lon="11.0390133"><ele>612.0</ele><time>2026-03-22T09:11:35.997Z</time></trkpt><trkpt lat="44.3805383" lon="11.0389117"><ele>612.5</ele><time>2026-03-22T09:11:38.994Z</time></trkpt><trkpt lat="44.3804783" lon="11.0388717"><ele>613.0</ele><time>2026-03-22T09:11:44.992Z</time></trkpt><trkpt lat="44.3804117" lon="11.038795"><ele>613.0</ele><time>2026-03-22T09:11:46.997Z</time></trkpt><trkpt lat="44.3803417" lon="11.0387433"><ele>613.0</ele><time>2026-03-22T09:11:48.005Z</time></trkpt><trkpt lat="44.3802583" lon="11.0386767"><ele>613.0</ele><time>2026-03-22T09:11:48.989Z</time></trkpt><trkpt lat="44.3801667" lon="11.0386233"><ele>613.0</ele><time>2026-03-22T09:11:49.998Z</time></trkpt><trkpt lat="44.3800483" lon="11.0386017"><ele>613.0</ele><time>2026-03-22T09:11:50.991Z</time></trkpt><trkpt lat="44.379945" lon="11.038585"><ele>613.0</ele><time>2026-03-22T09:11:51.989Z</time></trkpt><trkpt lat="44.3798333" lon="11.0385533"><ele>613.0</ele><time>2026-03-22T09:11:52.994Z</time></trkpt><trkpt lat="44.37973" lon="11.0385167"><ele>613.0</ele><time>2026-03-22T09:11:53.99Z</time></trkpt><trkpt lat="44.3796183" lon="11.0384633"><ele>613.0</ele><time>2026-03-22T09:11:54.992Z</time></trkpt><trkpt lat="44.3795183" lon="11.0384033"><ele>613.0</ele><time>2026-03-22T09:11:55.993Z</time></trkpt><trkpt lat="44.3794183" lon="11.03835"><ele>613.6</ele><time>2026-03-22T09:11:56.994Z</time></trkpt><trkpt lat="44.3793167" lon="11.0383017"><ele>614.1999999999999</ele><time>2026-03-22T09:11:57.997Z</time></trkpt><trkpt lat="44.3792217" lon="11.0382533"><ele>614.8</ele><time>2026-03-22T09:11:58.996Z</time></trkpt><trkpt lat="44.37914" lon="11.03818"><ele>615.4</ele><time>2026-03-22T09:11:59.987Z</time></trkpt><trkpt lat="44.3790733" lon="11.0380867"><ele>616.0</ele><time>2026-03-22T09:12:01Z</time></trkpt><trkpt lat="44.37903" lon="11.0379567"><ele>616.0</ele><time>2026-03-22T09:12:01.99Z</time></trkpt><trkpt lat="44.3789967" lon="11.0378083"><ele>616.0</ele><time>2026-03-22T09:12:02.997Z</time></trkpt><trkpt lat="44.3789667" lon="11.037655"><ele>616.0</ele><time>2026-03-22T09:12:03.992Z</time></trkpt><trkpt lat="44.3789383" lon="11.037485"><ele>616.0</ele><time>2026-03-22T09:12:04.996Z</time></trkpt><trkpt lat="44.378905" lon="11.037325"><ele>617.0</ele><time>2026-03-22T09:12:05.996Z</time></trkpt><trkpt lat="44.3788717" lon="11.0371667"><ele>618.0</ele><time>2026-03-22T09:12:06.992Z</time></trkpt><trkpt lat="44.3788433" lon="11.0370217"><ele>619.0</ele><time>2026-03-22T09:12:07.994Z</time></trkpt><trkpt lat="44.378815" lon="11.0368983"><ele>620.0</ele><time>2026-03-22T09:12:08.996Z</time></trkpt><trkpt lat="44.3787817" lon="11.03679"><ele>621.0</ele><time>2026-03-22T09:12:09.991Z</time></trkpt><trkpt lat="44.3787467" lon="11.0366933"><ele>621.0</ele><time>2026-03-22T09:12:10.994Z</time></trkpt><trkpt lat="44.378675" lon="11.036675"><ele>621.0</ele><time>2026-03-22T09:12:11.993Z</time></trkpt><trkpt lat="44.3786017" lon="11.036685"><ele>621.0</ele><time>2026-03-22T09:12:12.993Z</time></trkpt><trkpt lat="44.378525" lon="11.03672"><ele>621.0</ele><time>2026-03-22T09:12:13.992Z</time></trkpt><trkpt lat="44.37844" lon="11.0368033"><ele>621.0</ele><time>2026-03-22T09:12:14.988Z</time></trkpt><trkpt lat="44.3783467" lon="11.0368933"><ele>621.0</ele><time>2026-03-22T09:12:15.994Z</time></trkpt><trkpt lat="44.3782667" lon="11.0369833"><ele>621.0</ele><time>2026-03-22T09:12:16.992Z</time></trkpt><trkpt lat="44.37818" lon="11.0370567"><ele>621.0</ele><time>2026-03-22T09:12:17.986Z</time></trkpt><trkpt lat="44.3780817" lon="11.0371117"><ele>621.0</ele><time>2026-03-22T09:12:18.988Z</time></trkpt><trkpt lat="44.3779817" lon="11.0371583"><ele>621.0</ele><time>2026-03-22T09:12:19.99Z</time></trkpt><trkpt lat="44.3778783" lon="11.0371467"><ele>621.0</ele><time>2026-03-22T09:12:20.994Z</time></trkpt><trkpt lat="44.3777767" lon="11.037115"><ele>622.6</ele><time>2026-03-22T09:12:21.989Z</time></trkpt><trkpt lat="44.37768" lon="11.037065"><ele>624.2</ele><time>2026-03-22T09:12:22.998Z</time></trkpt><trkpt lat="44.3775867" lon="11.0370183"><ele>625.8</ele><time>2026-03-22T09:12:23.991Z</time></trkpt><trkpt lat="44.3774917" lon="11.03697"><ele>627.4</ele><time>2026-03-22T09:12:24.995Z</time></trkpt><trkpt lat="44.3773967" lon="11.0369133"><ele>629.0</ele><time>2026-03-22T09:12:25.992Z</time></trkpt><trkpt lat="44.3773017" lon="11.0368483"><ele>629.0</ele><time>2026-03-22T09:12:26.99Z</time></trkpt><trkpt lat="44.3772067" lon="11.0367733"><ele>629.0</ele><time>2026-03-22T09:12:27.993Z</time></trkpt><trkpt lat="44.37712" lon="11.0367"><ele>629.0</ele><time>2026-03-22T09:12:28.994Z</time></trkpt><trkpt lat="44.3770433" lon="11.0366217"><ele>629.0</ele><time>2026-03-22T09:12:29.994Z</time></trkpt><trkpt lat="44.3769817" lon="11.0365283"><ele>629.0</ele><time>2026-03-22T09:12:30.99Z</time></trkpt><trkpt lat="44.3769383" lon="11.036415"><ele>631.3333333333333</ele><time>2026-03-22T09:12:31.994Z</time></trkpt><trkpt lat="44.37691" lon="11.03629"><ele>633.6666666666666</ele><time>2026-03-22T09:12:32.994Z</time></trkpt><trkpt lat="44.37692" lon="11.0361633"><ele>636.0</ele><time>2026-03-22T09:12:33.99Z</time></trkpt><trkpt lat="44.3769567" lon="11.03605"><ele>638.3333333333334</ele><time>2026-03-22T09:12:34.997Z</time></trkpt><trkpt lat="44.3770033" lon="11.0359483"><ele>640.6666666666667</ele><time>2026-03-22T09:12:35.99Z</time></trkpt><trkpt lat="44.3770483" lon="11.0358583"><ele>643.0</ele><time>2026-03-22T09:12:36.991Z</time></trkpt><trkpt lat="44.377075" lon="11.03576"><ele>643.0</ele><time>2026-03-22T09:12:37.988Z</time></trkpt><trkpt lat="44.3770967" lon="11.0356533"><ele>643.0</ele><time>2026-03-22T09:12:38.994Z</time></trkpt><trkpt lat="44.3771033" lon="11.0355383"><ele>643.0</ele><time>2026-03-22T09:12:39.994Z</time></trkpt><trkpt lat="44.3770933" lon="11.035425"><ele>643.0</ele><time>2026-03-22T09:12:40.988Z</time></trkpt><trkpt lat="44.3770733" lon="11.0353183"><ele>643.0</ele><time>2026-03-22T09:12:41.995Z</time></trkpt><trkpt lat="44.37705" lon="11.0352317"><ele>643.0</ele><time>2026-03-22T09:12:42.989Z</time></trkpt><trkpt lat="44.3770167" lon="11.0351567"><ele>643.0</ele><time>2026-03-22T09:12:43.992Z</time></trkpt><trkpt lat="44.3769617" lon="11.0351"><ele>643.0</ele><time>2026-03-22T09:12:44.998Z</time></trkpt><trkpt lat="44.3768933" lon="11.03506"><ele>643.0</ele><time>2026-03-22T09:12:45.992Z</time></trkpt><trkpt lat="44.3768083" lon="11.0350433"><ele>643.0</ele><time>2026-03-22T09:12:46.992Z</time></trkpt><trkpt lat="44.37673" lon="11.0350217"><ele>643.0</ele><time>2026-03-22T09:12:47.995Z</time></trkpt><trkpt lat="44.3766583" lon="11.0350017"><ele>643.0</ele><time>2026-03-22T09:12:48.991Z</time></trkpt><trkpt lat="44.3765933" lon="11.03501"><ele>643.0</ele><time>2026-03-22T09:12:49.999Z</time></trkpt><trkpt lat="44.3765467" lon="11.0350767"><ele>643.0</ele><time>2026-03-22T09:12:51.991Z</time></trkpt><trkpt lat="44.3766317" lon="11.0351833"><ele>643.0</ele><time>2026-03-22T09:12:53.99Z</time></trkpt><trkpt lat="44.3767067" lon="11.0352467"><ele>643.0</ele><time>2026-03-22T09:12:54.992Z</time></trkpt><trkpt lat="44.3767583" lon="11.0353117"><ele>643.0</ele><time>2026-03-22T09:12:55.994Z</time></trkpt><trkpt lat="44.376775" lon="11.0354633"><ele>643.0</ele><time>2026-03-22T09:12:57.99Z</time></trkpt><trkpt lat="44.3767333" lon="11.035555"><ele>643.0</ele><time>2026-03-22T09:12:58.997Z</time></trkpt><trkpt lat="44.3766633" lon="11.0356567"><ele>643.0</ele><time>2026-03-22T09:12:59.993Z</time></trkpt><trkpt lat="44.37659" lon="11.0357783"><ele>643.0</ele><time>2026-03-22T09:13:00.991Z</time></trkpt><trkpt lat="44.3765283" lon="11.0358867"><ele>643.0</ele><time>2026-03-22T09:13:01.99Z</time></trkpt><trkpt lat="44.3764717" lon="11.0359733"><ele>643.0</ele><time>2026-03-22T09:13:02.994Z</time></trkpt><trkpt lat="44.3764233" lon="11.036045"><ele>644.4</ele><time>2026-03-22T09:13:03.994Z</time></trkpt><trkpt lat="44.3763383" lon="11.0361267"><ele>645.8</ele><time>2026-03-22T09:13:05.991Z</time></trkpt><trkpt lat="44.3762667" lon="11.0360667"><ele>647.2</ele><time>2026-03-22T09:13:08.992Z</time></trkpt><trkpt lat="44.37628" lon="11.03597"><ele>648.6</ele><time>2026-03-22T09:13:09.987Z</time></trkpt><trkpt lat="44.376275" lon="11.0357967"><ele>650.0</ele><time>2026-03-22T09:13:11.996Z</time></trkpt><trkpt lat="44.3762483" lon="11.0356983"><ele>651.4285714285714</ele><time>2026-03-22T09:13:12.992Z</time></trkpt><trkpt lat="44.3762133" lon="11.0356033"><ele>652.8571428571429</ele><time>2026-03-22T09:13:13.994Z</time></trkpt><trkpt lat="44.37618" lon="11.0355117"><ele>654.2857142857143</ele><time>2026-03-22T09:13:14.999Z</time></trkpt><trkpt lat="44.37614" lon="11.0354367"><ele>655.7142857142858</ele><time>2026-03-22T09:13:15.99Z</time></trkpt><trkpt lat="44.3761" lon="11.0353617"><ele>657.1428571428571</ele><time>2026-03-22T09:13:16.99Z</time></trkpt><trkpt lat="44.37606" lon="11.0352683"><ele>658.5714285714287</ele><time>2026-03-22T09:13:17.992Z</time></trkpt><trkpt lat="44.3760183" lon="11.0351683"><ele>660.0</ele><time>2026-03-22T09:13:18.992Z</time></trkpt><trkpt lat="44.3759783" lon="11.0350617"><ele>661.3333333333334</ele><time>2026-03-22T09:13:19.994Z</time></trkpt><trkpt lat="44.3759383" lon="11.0349483"><ele>662.6666666666666</ele><time>2026-03-22T09:13:20.988Z</time></trkpt><trkpt lat="44.3759" lon="11.0348317"><ele>664.0</ele><time>2026-03-22T09:13:21.99Z</time></trkpt><trkpt lat="44.3758683" lon="11.0347167"><ele>665.3333333333333</ele><time>2026-03-22T09:13:22.991Z</time></trkpt><trkpt lat="44.3758317" lon="11.0346117"><ele>666.6666666666666</ele><time>2026-03-22T09:13:23.992Z</time></trkpt><trkpt lat="44.375795" lon="11.03452"><ele>668.0</ele><time>2026-03-22T09:13:24.999Z</time></trkpt><trkpt lat="44.375765" lon="11.0344367"><ele>668.0</ele><time>2026-03-22T09:13:25.992Z</time></trkpt><trkpt lat="44.3757183" lon="11.0342633"><ele>668.0</ele><time>2026-03-22T09:13:27.992Z</time></trkpt><trkpt lat="44.3756917" lon="11.0341483"><ele>668.0</ele><time>2026-03-22T09:13:28.992Z</time></trkpt><trkpt lat="44.375655" lon="11.03403"><ele>668.0</ele><time>2026-03-22T09:13:29.996Z</time></trkpt><trkpt lat="44.3756083" lon="11.0339133"><ele>668.0</ele><time>2026-03-22T09:13:30.995Z</time></trkpt><trkpt lat="44.3755517" lon="11.033805"><ele>669.0</ele><time>2026-03-22T09:13:31.998Z</time></trkpt><trkpt lat="44.3754983" lon="11.033705"><ele>670.0</ele><time>2026-03-22T09:13:32.995Z</time></trkpt><trkpt lat="44.3754517" lon="11.033615"><ele>671.0</ele><time>2026-03-22T09:13:33.993Z</time></trkpt><trkpt lat="44.375405" lon="11.0335233"><ele>672.0</ele><time>2026-03-22T09:13:34.99Z</time></trkpt><trkpt lat="44.3753633" lon="11.0334133"><ele>673.0</ele><time>2026-03-22T09:13:35.995Z</time></trkpt><trkpt lat="44.37532" lon="11.033305"><ele>674.0</ele><time>2026-03-22T09:13:36.992Z</time></trkpt><trkpt lat="44.3752667" lon="11.033205"><ele>674.0</ele><time>2026-03-22T09:13:37.994Z</time></trkpt><trkpt lat="44.3752183" lon="11.0331033"><ele>674.0</ele><time>2026-03-22T09:13:38.992Z</time></trkpt><trkpt lat="44.375175" lon="11.033"><ele>674.0</ele><time>2026-03-22T09:13:40Z</time></trkpt><trkpt lat="44.3751317" lon="11.0329033"><ele>674.0</ele><time>2026-03-22T09:13:40.994Z</time></trkpt><trkpt lat="44.3750767" lon="11.0328117"><ele>674.0</ele><time>2026-03-22T09:13:41.999Z</time></trkpt><trkpt lat="44.3750177" lon="11.0327251"><ele>674.0</ele><time>2026-03-22T09:13:42.997Z</time></trkpt><trkpt lat="44.3749695" lon="11.0326397"><ele>674.0</ele><time>2026-03-22T09:13:44.002Z</time></trkpt><trkpt lat="44.3749342" lon="11.0325609"><ele>674.0</ele><time>2026-03-22T09:13:44.994Z</time></trkpt><trkpt lat="44.3748717" lon="11.0324177"><ele>674.0</ele><time>2026-03-22T09:13:46.991Z</time></trkpt><trkpt lat="44.3748432" lon="11.032336"><ele>674.0</ele><time>2026-03-22T09:13:47.992Z</time></trkpt><trkpt lat="44.3748234" lon="11.0322288"><ele>674.0</ele><time>2026-03-22T09:13:48.999Z</time></trkpt><trkpt lat="44.3748067" lon="11.0320995"><ele>674.0</ele><time>2026-03-22T09:13:49.992Z</time></trkpt><trkpt lat="44.3747804" lon="11.0319658"><ele>673.6</ele><time>2026-03-22T09:13:50.99Z</time></trkpt><trkpt lat="44.3747421" lon="11.0318394"><ele>673.2</ele><time>2026-03-22T09:13:51.986Z</time></trkpt><trkpt lat="44.3746884" lon="11.0317263"><ele>672.8000000000001</ele><time>2026-03-22T09:13:52.991Z</time></trkpt><trkpt lat="44.3746199" lon="11.0316282"><ele>672.4000000000001</ele><time>2026-03-22T09:13:53.988Z</time></trkpt><trkpt lat="44.3745397" lon="11.031541"><ele>672.0</ele><time>2026-03-22T09:13:54.991Z</time></trkpt><trkpt lat="44.3744589" lon="11.031466"><ele>674.2</ele><time>2026-03-22T09:13:55.992Z</time></trkpt><trkpt lat="44.3743727" lon="11.0313996"><ele>676.4000000000001</ele><time>2026-03-22T09:13:56.99Z</time></trkpt><trkpt lat="44.3742833" lon="11.0313282"><ele>678.5999999999999</ele><time>2026-03-22T09:13:57.997Z</time></trkpt><trkpt lat="44.374199" lon="11.0312608"><ele>680.8</ele><time>2026-03-22T09:13:58.99Z</time></trkpt><trkpt lat="44.3741198" lon="11.0311909"><ele>683.0</ele><time>2026-03-22T09:13:59.994Z</time></trkpt><trkpt lat="44.3740485" lon="11.0311132"><ele>683.0</ele><time>2026-03-22T09:14:00.991Z</time></trkpt><trkpt lat="44.3739799" lon="11.0310394"><ele>683.0</ele><time>2026-03-22T09:14:01.995Z</time></trkpt><trkpt lat="44.3739232" lon="11.0309621"><ele>683.0</ele><time>2026-03-22T09:14:02.992Z</time></trkpt><trkpt lat="44.3738691" lon="11.0308768"><ele>683.0</ele><time>2026-03-22T09:14:03.994Z</time></trkpt><trkpt lat="44.3738104" lon="11.030793"><ele>683.0</ele><time>2026-03-22T09:14:04.989Z</time></trkpt><trkpt lat="44.3737527" lon="11.0307126"><ele>683.0</ele><time>2026-03-22T09:14:05.995Z</time></trkpt><trkpt lat="44.373702" lon="11.0306286"><ele>685.2</ele><time>2026-03-22T09:14:06.992Z</time></trkpt><trkpt lat="44.3736539" lon="11.0305264"><ele>687.4</ele><time>2026-03-22T09:14:07.991Z</time></trkpt><trkpt lat="44.3736068" lon="11.0304083"><ele>689.6</ele><time>2026-03-22T09:14:08.995Z</time></trkpt><trkpt lat="44.3735667" lon="11.0302784"><ele>691.8000000000001</ele><time>2026-03-22T09:14:09.991Z</time></trkpt><trkpt lat="44.3735303" lon="11.0301451"><ele>694.0</ele><time>2026-03-22T09:14:10.989Z</time></trkpt><trkpt lat="44.3735025" lon="11.0300146"><ele>694.5</ele><time>2026-03-22T09:14:11.992Z</time></trkpt><trkpt lat="44.3734786" lon="11.0298913"><ele>695.0</ele><time>2026-03-22T09:14:12.991Z</time></trkpt><trkpt lat="44.3734626" lon="11.0297791"><ele>695.5</ele><time>2026-03-22T09:14:13.993Z</time></trkpt><trkpt lat="44.3734542" lon="11.0296715"><ele>696.0</ele><time>2026-03-22T09:14:14.992Z</time></trkpt><trkpt lat="44.3734574" lon="11.0295466"><ele>696.5</ele><time>2026-03-22T09:14:15.996Z</time></trkpt><trkpt lat="44.3734932" lon="11.0294253"><ele>697.0</ele><time>2026-03-22T09:14:16.989Z</time></trkpt><trkpt lat="44.3735303" lon="11.0293006"><ele>697.0</ele><time>2026-03-22T09:14:17.992Z</time></trkpt><trkpt lat="44.3735539" lon="11.0291728"><ele>697.0</ele><time>2026-03-22T09:14:18.99Z</time></trkpt><trkpt lat="44.3735613" lon="11.029035"><ele>697.0</ele><time>2026-03-22T09:14:19.991Z</time></trkpt><trkpt lat="44.3735577" lon="11.0289052"><ele>697.0</ele><time>2026-03-22T09:14:20.993Z</time></trkpt><trkpt lat="44.3735439" lon="11.0287738"><ele>697.0</ele><time>2026-03-22T09:14:21.993Z</time></trkpt><trkpt lat="44.3735295" lon="11.0286367"><ele>697.6</ele><time>2026-03-22T09:14:22.99Z</time></trkpt><trkpt lat="44.3735231" lon="11.0284983"><ele>698.2</ele><time>2026-03-22T09:14:23.991Z</time></trkpt><trkpt lat="44.3735301" lon="11.0283664"><ele>698.8</ele><time>2026-03-22T09:14:24.994Z</time></trkpt><trkpt lat="44.3735408" lon="11.0282315"><ele>699.4</ele><time>2026-03-22T09:14:25.988Z</time></trkpt><trkpt lat="44.373555" lon="11.0280986"><ele>700.0</ele><time>2026-03-22T09:14:26.992Z</time></trkpt><trkpt lat="44.373568" lon="11.0279653"><ele>700.5</ele><time>2026-03-22T09:14:27.995Z</time></trkpt><trkpt lat="44.3735839" lon="11.0278374"><ele>701.0</ele><time>2026-03-22T09:14:28.991Z</time></trkpt><trkpt lat="44.3736097" lon="11.0277176"><ele>701.5</ele><time>2026-03-22T09:14:29.988Z</time></trkpt><trkpt lat="44.3736345" lon="11.0276021"><ele>702.0</ele><time>2026-03-22T09:14:30.992Z</time></trkpt><trkpt lat="44.3736587" lon="11.0274893"><ele>702.5</ele><time>2026-03-22T09:14:31.993Z</time></trkpt><trkpt lat="44.3736797" lon="11.0273831"><ele>703.0</ele><time>2026-03-22T09:14:32.998Z</time></trkpt><trkpt lat="44.3736946" lon="11.0272934"><ele>704.0</ele><time>2026-03-22T09:14:33.992Z</time></trkpt><trkpt lat="44.3737302" lon="11.0271384"><ele>705.0</ele><time>2026-03-22T09:14:35.992Z</time></trkpt><trkpt lat="44.3737628" lon="11.0270027"><ele>706.0</ele><time>2026-03-22T09:14:37.995Z</time></trkpt><trkpt lat="44.3737672" lon="11.0268425"><ele>707.0</ele><time>2026-03-22T09:14:39.987Z</time></trkpt><trkpt lat="44.3737683" lon="11.0267419"><ele>708.0</ele><time>2026-03-22T09:14:40.989Z</time></trkpt><trkpt lat="44.3737734" lon="11.0266376"><ele>708.5</ele><time>2026-03-22T09:14:41.992Z</time></trkpt><trkpt lat="44.3737866" lon="11.026525"><ele>709.0</ele><time>2026-03-22T09:14:42.991Z</time></trkpt><trkpt lat="44.3737979" lon="11.0264118"><ele>709.5</ele><time>2026-03-22T09:14:44.001Z</time></trkpt><trkpt lat="44.3738028" lon="11.0263036"><ele>710.0</ele><time>2026-03-22T09:14:44.986Z</time></trkpt><trkpt lat="44.3738034" lon="11.0261934"><ele>710.5</ele><time>2026-03-22T09:14:45.991Z</time></trkpt><trkpt lat="44.3738059" lon="11.0260901"><ele>711.0</ele><time>2026-03-22T09:14:46.991Z</time></trkpt><trkpt lat="44.373813" lon="11.0259978"><ele>711.0</ele><time>2026-03-22T09:14:48Z</time></trkpt><trkpt lat="44.373824" lon="11.0259046"><ele>711.0</ele><time>2026-03-22T09:14:48.996Z</time></trkpt><trkpt lat="44.3738233" lon="11.0258017"><ele>711.0</ele><time>2026-03-22T09:14:49.989Z</time></trkpt><trkpt lat="44.37382" lon="11.0257083"><ele>711.0</ele><time>2026-03-22T09:14:50.994Z</time></trkpt><trkpt lat="44.373815" lon="11.0255783"><ele>711.0</ele><time>2026-03-22T09:14:52.994Z</time></trkpt><trkpt lat="44.3738183" lon="11.0254717"><ele>711.0</ele><time>2026-03-22T09:14:55.989Z</time></trkpt><trkpt lat="44.3737833" lon="11.0253333"><ele>712.4</ele><time>2026-03-22T09:14:58.992Z</time></trkpt><trkpt lat="44.3737633" lon="11.025185"><ele>713.8</ele><time>2026-03-22T09:15:00.996Z</time></trkpt><trkpt lat="44.37376" lon="11.025095"><ele>715.1999999999999</ele><time>2026-03-22T09:15:01.995Z</time></trkpt><trkpt lat="44.3737617" lon="11.0250067"><ele>716.5999999999999</ele><time>2026-03-22T09:15:02.992Z</time></trkpt><trkpt lat="44.3737633" lon="11.0248467"><ele>718.0</ele><time>2026-03-22T09:15:04.993Z</time></trkpt><trkpt lat="44.3737633" lon="11.02469"><ele>719.8</ele><time>2026-03-22T09:15:07Z</time></trkpt><trkpt lat="44.3737617" lon="11.0245967"><ele>721.5999999999999</ele><time>2026-03-22T09:15:07.998Z</time></trkpt><trkpt lat="44.3737567" lon="11.0244983"><ele>723.4000000000001</ele><time>2026-03-22T09:15:08.991Z</time></trkpt><trkpt lat="44.3737567" lon="11.0243433"><ele>725.2</ele><time>2026-03-22T09:15:10.998Z</time></trkpt><trkpt lat="44.3737817" lon="11.0242067"><ele>727.0</ele><time>2026-03-22T09:15:12.993Z</time></trkpt><trkpt lat="44.373805" lon="11.02406"><ele>729.8333333333334</ele><time>2026-03-22T09:15:14.992Z</time></trkpt><trkpt lat="44.3738283" lon="11.023945"><ele>732.6666666666667</ele><time>2026-03-22T09:15:16.992Z</time></trkpt><trkpt lat="44.37384" lon="11.02385"><ele>735.5</ele><time>2026-03-22T09:15:18.993Z</time></trkpt><trkpt lat="44.3738633" lon="11.0237417"><ele>738.3333333333334</ele><time>2026-03-22T09:15:21.993Z</time></trkpt><trkpt lat="44.373885" lon="11.023655"><ele>741.1666666666666</ele><time>2026-03-22T09:15:23.988Z</time></trkpt><trkpt lat="44.3738783" lon="11.0235517"><ele>744.0</ele><time>2026-03-22T09:15:25.99Z</time></trkpt><trkpt lat="44.3738267" lon="11.023475"><ele>744.0</ele><time>2026-03-22T09:16:06.995Z</time></trkpt><trkpt lat="44.3738083" lon="11.0233867"><ele>744.0</ele><time>2026-03-22T09:16:08.99Z</time></trkpt><trkpt lat="44.373785" lon="11.0232133"><ele>744.0</ele><time>2026-03-22T09:16:10.988Z</time></trkpt><trkpt lat="44.3737717" lon="11.0231217"><ele>744.0</ele><time>2026-03-22T09:16:11.988Z</time></trkpt><trkpt lat="44.3737617" lon="11.023025"><ele>744.0</ele><time>2026-03-22T09:16:12.992Z</time></trkpt><trkpt lat="44.373755" lon="11.02293"><ele>744.0</ele><time>2026-03-22T09:16:13.995Z</time></trkpt><trkpt lat="44.3737483" lon="11.02284"><ele>745.5</ele><time>2026-03-22T09:16:15Z</time></trkpt><trkpt lat="44.37373" lon="11.02275"><ele>747.0</ele><time>2026-03-22T09:16:15.991Z</time></trkpt><trkpt lat="44.373705" lon="11.0226633"><ele>748.5</ele><time>2026-03-22T09:16:16.992Z</time></trkpt><trkpt lat="44.3736783" lon="11.0225833"><ele>750.0</ele><time>2026-03-22T09:16:17.998Z</time></trkpt><trkpt lat="44.3736267" lon="11.022455"><ele>751.5</ele><time>2026-03-22T09:16:19.994Z</time></trkpt><trkpt lat="44.3735383" lon="11.0223733"><ele>753.0</ele><time>2026-03-22T09:16:21.993Z</time></trkpt><trkpt lat="44.3734483" lon="11.0223167"><ele>753.0</ele><time>2026-03-22T09:16:23.993Z</time></trkpt><trkpt lat="44.37336" lon="11.0223067"><ele>753.0</ele><time>2026-03-22T09:16:25.994Z</time></trkpt><trkpt lat="44.3732817" lon="11.0223317"><ele>753.0</ele><time>2026-03-22T09:16:27.995Z</time></trkpt><trkpt lat="44.3732183" lon="11.0223967"><ele>753.0</ele><time>2026-03-22T09:16:29.991Z</time></trkpt><trkpt lat="44.3731567" lon="11.0224467"><ele>753.0</ele><time>2026-03-22T09:16:31.992Z</time></trkpt><trkpt lat="44.37308" lon="11.02247"><ele>753.0</ele><time>2026-03-22T09:16:33.988Z</time></trkpt><trkpt lat="44.3730167" lon="11.0224683"><ele>749.6666666666666</ele><time>2026-03-22T09:16:35.993Z</time></trkpt><trkpt lat="44.3729367" lon="11.0225367"><ele>746.3333333333334</ele><time>2026-03-22T09:16:38.994Z</time></trkpt><trkpt lat="44.3728716" lon="11.0226181"><ele>743.0</ele><time>2026-03-22T09:16:41.992Z</time></trkpt><trkpt lat="44.3728046" lon="11.0226394"><ele>739.6666666666667</ele><time>2026-03-22T09:16:44.995Z</time></trkpt><trkpt lat="44.3727461" lon="11.0226813"><ele>736.3333333333334</ele><time>2026-03-22T09:16:47.988Z</time></trkpt><trkpt lat="44.3726684" lon="11.0227404"><ele>733.0</ele><time>2026-03-22T09:16:50.996Z</time></trkpt><trkpt lat="44.3725867" lon="11.0228267"><ele>732.9999999999999</ele><time>2026-03-22T09:16:52.989Z</time></trkpt><trkpt lat="44.372515" lon="11.02286"><ele>733.0</ele><time>2026-03-22T09:16:54.993Z</time></trkpt><trkpt lat="44.3724533" lon="11.0228967"><ele>733.0</ele><time>2026-03-22T09:16:57.001Z</time></trkpt><trkpt lat="44.3723917" lon="11.0229183"><ele>733.0</ele><time>2026-03-22T09:16:58.993Z</time></trkpt><trkpt lat="44.3723117" lon="11.0229133"><ele>733.0</ele><time>2026-03-22T09:17:01.001Z</time></trkpt><trkpt lat="44.3722333" lon="11.022895"><ele>732.9999999999999</ele><time>2026-03-22T09:17:02.992Z</time></trkpt><trkpt lat="44.3721683" lon="11.0228683"><ele>733.0</ele><time>2026-03-22T09:17:04.993Z</time></trkpt><trkpt lat="44.3720967" lon="11.0228133"><ele>729.5714285714286</ele><time>2026-03-22T09:17:07.993Z</time></trkpt><trkpt lat="44.3720283" lon="11.0228267"><ele>726.1428571428571</ele><time>2026-03-22T09:17:09.994Z</time></trkpt><trkpt lat="44.3719673" lon="11.0228507"><ele>722.7142857142858</ele><time>2026-03-22T09:17:11.992Z</time></trkpt><trkpt lat="44.3718889" lon="11.0228581"><ele>719.2857142857142</ele><time>2026-03-22T09:17:14.986Z</time></trkpt><trkpt lat="44.3718245" lon="11.0228276"><ele>715.8571428571429</ele><time>2026-03-22T09:17:17.007Z</time></trkpt><trkpt lat="44.3718013" lon="11.0227425"><ele>712.4285714285714</ele><time>2026-03-22T09:17:19.995Z</time></trkpt><trkpt lat="44.3718538" lon="11.0226776"><ele>709.0</ele><time>2026-03-22T09:17:23.994Z</time></trkpt><trkpt lat="44.3718883" lon="11.0225415"><ele>707.25</ele><time>2026-03-22T09:18:08.995Z</time></trkpt><trkpt lat="44.3719817" lon="11.022375"><ele>705.5</ele><time>2026-03-22T09:18:10.993Z</time></trkpt><trkpt lat="44.372065" lon="11.0222567"><ele>703.75</ele><time>2026-03-22T09:18:12.989Z</time></trkpt><trkpt lat="44.3721317" lon="11.022105"><ele>702.0</ele><time>2026-03-22T09:18:14.992Z</time></trkpt><trkpt lat="44.3721517" lon="11.0220083"><ele>702.0</ele><time>2026-03-22T09:18:15.991Z</time></trkpt><trkpt lat="44.372165" lon="11.0219117"><ele>702.0</ele><time>2026-03-22T09:18:16.989Z</time></trkpt><trkpt lat="44.3721667" lon="11.0218067"><ele>702.0</ele><time>2026-03-22T09:18:17.988Z</time></trkpt><trkpt lat="44.37216" lon="11.0216933"><ele>702.0</ele><time>2026-03-22T09:18:18.988Z</time></trkpt><trkpt lat="44.372155" lon="11.0215817"><ele>702.0</ele><time>2026-03-22T09:18:19.988Z</time></trkpt><trkpt lat="44.3721467" lon="11.0214783"><ele>702.0</ele><time>2026-03-22T09:18:20.99Z</time></trkpt><trkpt lat="44.3721367" lon="11.0213817"><ele>702.8</ele><time>2026-03-22T09:18:21.996Z</time></trkpt><trkpt lat="44.372125" lon="11.0212917"><ele>703.6</ele><time>2026-03-22T09:18:22.995Z</time></trkpt><trkpt lat="44.3721467" lon="11.0211267"><ele>704.4</ele><time>2026-03-22T09:18:24.994Z</time></trkpt><trkpt lat="44.3721767" lon="11.0209483"><ele>705.1999999999999</ele><time>2026-03-22T09:18:26.992Z</time></trkpt><trkpt lat="44.3721917" lon="11.0208417"><ele>706.0</ele><time>2026-03-22T09:18:27.994Z</time></trkpt><trkpt lat="44.3722017" lon="11.0207333"><ele>706.0</ele><time>2026-03-22T09:18:28.99Z</time></trkpt><trkpt lat="44.37221" lon="11.0206233"><ele>706.0</ele><time>2026-03-22T09:18:29.991Z</time></trkpt><trkpt lat="44.3722267" lon="11.0205133"><ele>706.0</ele><time>2026-03-22T09:18:30.991Z</time></trkpt><trkpt lat="44.3722567" lon="11.02041"><ele>706.0</ele><time>2026-03-22T09:18:31.998Z</time></trkpt><trkpt lat="44.3722917" lon="11.0203067"><ele>706.0</ele><time>2026-03-22T09:18:32.992Z</time></trkpt><trkpt lat="44.372335" lon="11.0202217"><ele>706.0</ele><time>2026-03-22T09:18:33.99Z</time></trkpt><trkpt lat="44.3723833" lon="11.0201367"><ele>706.0</ele><time>2026-03-22T09:18:34.988Z</time></trkpt><trkpt lat="44.37244" lon="11.02004"><ele>706.0</ele><time>2026-03-22T09:18:35.994Z</time></trkpt><trkpt lat="44.3725" lon="11.01994"><ele>706.0</ele><time>2026-03-22T09:18:36.992Z</time></trkpt><trkpt lat="44.3725583" lon="11.019855"><ele>706.0</ele><time>2026-03-22T09:18:37.994Z</time></trkpt><trkpt lat="44.3726133" lon="11.0197667"><ele>706.0</ele><time>2026-03-22T09:18:38.987Z</time></trkpt><trkpt lat="44.372675" lon="11.019675"><ele>706.0</ele><time>2026-03-22T09:18:39.996Z</time></trkpt><trkpt lat="44.37273" lon="11.019575"><ele>705.6666666666667</ele><time>2026-03-22T09:18:40.988Z</time></trkpt><trkpt lat="44.37277" lon="11.0194733"><ele>705.3333333333334</ele><time>2026-03-22T09:18:41.996Z</time></trkpt><trkpt lat="44.3728067" lon="11.019385"><ele>705.0</ele><time>2026-03-22T09:18:42.988Z</time></trkpt><trkpt lat="44.3728517" lon="11.0192967"><ele>704.6666666666666</ele><time>2026-03-22T09:18:43.988Z</time></trkpt><trkpt lat="44.3729133" lon="11.0192083"><ele>704.3333333333333</ele><time>2026-03-22T09:18:45.004Z</time></trkpt><trkpt lat="44.3729767" lon="11.0191183"><ele>704.0</ele><time>2026-03-22T09:18:45.988Z</time></trkpt><trkpt lat="44.3730483" lon="11.0190317"><ele>704.0</ele><time>2026-03-22T09:18:46.994Z</time></trkpt><trkpt lat="44.3731133" lon="11.0189633"><ele>704.0</ele><time>2026-03-22T09:18:47.989Z</time></trkpt><trkpt lat="44.37318" lon="11.0188967"><ele>704.0</ele><time>2026-03-22T09:18:48.993Z</time></trkpt><trkpt lat="44.373255" lon="11.0188267"><ele>704.0</ele><time>2026-03-22T09:18:49.989Z</time></trkpt><trkpt lat="44.3733283" lon="11.01876"><ele>704.0</ele><time>2026-03-22T09:18:50.992Z</time></trkpt><trkpt lat="44.3734" lon="11.0187"><ele>704.0</ele><time>2026-03-22T09:18:51.992Z</time></trkpt><trkpt lat="44.37347" lon="11.0186467"><ele>704.0</ele><time>2026-03-22T09:18:52.994Z</time></trkpt><trkpt lat="44.373535" lon="11.0185983"><ele>704.0</ele><time>2026-03-22T09:18:53.992Z</time></trkpt><trkpt lat="44.3736" lon="11.018535"><ele>704.0</ele><time>2026-03-22T09:18:54.994Z</time></trkpt><trkpt lat="44.373655" lon="11.0184667"><ele>704.0</ele><time>2026-03-22T09:18:55.992Z</time></trkpt><trkpt lat="44.3737133" lon="11.01839"><ele>704.0</ele><time>2026-03-22T09:18:56.997Z</time></trkpt><trkpt lat="44.37377" lon="11.0182983"><ele>704.0</ele><time>2026-03-22T09:18:57.998Z</time></trkpt><trkpt lat="44.373825" lon="11.0182133"><ele>705.6666666666666</ele><time>2026-03-22T09:18:58.99Z</time></trkpt><trkpt lat="44.3738783" lon="11.0181267"><ele>707.3333333333333</ele><time>2026-03-22T09:18:59.993Z</time></trkpt><trkpt lat="44.37393" lon="11.0180333"><ele>709.0</ele><time>2026-03-22T09:19:00.995Z</time></trkpt><trkpt lat="44.3739767" lon="11.0179183"><ele>710.6666666666666</ele><time>2026-03-22T09:19:01.993Z</time></trkpt><trkpt lat="44.3739983" lon="11.0177933"><ele>712.3333333333334</ele><time>2026-03-22T09:19:02.992Z</time></trkpt><trkpt lat="44.37403" lon="11.0176883"><ele>714.0</ele><time>2026-03-22T09:19:03.996Z</time></trkpt><trkpt lat="44.3740533" lon="11.01759"><ele>714.0</ele><time>2026-03-22T09:19:04.987Z</time></trkpt><trkpt lat="44.37408" lon="11.0174883"><ele>714.0</ele><time>2026-03-22T09:19:05.993Z</time></trkpt><trkpt lat="44.3741233" lon="11.01738"><ele>714.0</ele><time>2026-03-22T09:19:06.99Z</time></trkpt><trkpt lat="44.3741783" lon="11.01728"><ele>714.0</ele><time>2026-03-22T09:19:08Z</time></trkpt><trkpt lat="44.3742267" lon="11.0171983"><ele>714.0</ele><time>2026-03-22T09:19:08.994Z</time></trkpt><trkpt lat="44.374275" lon="11.0171317"><ele>714.0</ele><time>2026-03-22T09:19:09.989Z</time></trkpt><trkpt lat="44.3743167" lon="11.01706"><ele>712.8333333333334</ele><time>2026-03-22T09:19:10.991Z</time></trkpt><trkpt lat="44.37436" lon="11.0169867"><ele>711.6666666666666</ele><time>2026-03-22T09:19:11.996Z</time></trkpt><trkpt lat="44.3743883" lon="11.0168917"><ele>710.5</ele><time>2026-03-22T09:19:12.991Z</time></trkpt><trkpt lat="44.3744033" lon="11.0167867"><ele>709.3333333333333</ele><time>2026-03-22T09:19:13.995Z</time></trkpt><trkpt lat="44.3744183" lon="11.01667"><ele>708.1666666666666</ele><time>2026-03-22T09:19:14.994Z</time></trkpt><trkpt lat="44.3744417" lon="11.016545"><ele>707.0</ele><time>2026-03-22T09:19:15.992Z</time></trkpt><trkpt lat="44.3744683" lon="11.0164167"><ele>706.3333333333333</ele><time>2026-03-22T09:19:16.993Z</time></trkpt><trkpt lat="44.3744967" lon="11.0163083"><ele>705.6666666666666</ele><time>2026-03-22T09:19:17.992Z</time></trkpt><trkpt lat="44.3745267" lon="11.016215"><ele>705.0</ele><time>2026-03-22T09:19:18.996Z</time></trkpt><trkpt lat="44.374555" lon="11.01613"><ele>704.3333333333334</ele><time>2026-03-22T09:19:20Z</time></trkpt><trkpt lat="44.374485" lon="11.0160967"><ele>703.6666666666667</ele><time>2026-03-22T09:19:23.994Z</time></trkpt><trkpt lat="44.3743767" lon="11.01612"><ele>703.0</ele><time>2026-03-22T09:19:25.998Z</time></trkpt><trkpt lat="44.3743083" lon="11.0161233"><ele>703.0</ele><time>2026-03-22T09:19:26.991Z</time></trkpt><trkpt lat="44.374235" lon="11.01614"><ele>703.0</ele><time>2026-03-22T09:19:27.993Z</time></trkpt><trkpt lat="44.3741633" lon="11.0161683"><ele>703.0</ele><time>2026-03-22T09:19:28.995Z</time></trkpt><trkpt lat="44.3741" lon="11.0162167"><ele>703.0</ele><time>2026-03-22T09:19:29.994Z</time></trkpt><trkpt lat="44.3740417" lon="11.016275"><ele>703.0</ele><time>2026-03-22T09:19:30.994Z</time></trkpt><trkpt lat="44.373985" lon="11.0163217"><ele>703.0</ele><time>2026-03-22T09:19:31.989Z</time></trkpt><trkpt lat="44.3738683" lon="11.016375"><ele>701.1428571428571</ele><time>2026-03-22T09:19:33.987Z</time></trkpt><trkpt lat="44.3737983" lon="11.0163633"><ele>699.2857142857143</ele><time>2026-03-22T09:19:35Z</time></trkpt><trkpt lat="44.373735" lon="11.0163217"><ele>697.4285714285714</ele><time>2026-03-22T09:19:35.997Z</time></trkpt><trkpt lat="44.3736833" lon="11.0162683"><ele>695.5714285714286</ele><time>2026-03-22T09:19:36.991Z</time></trkpt><trkpt lat="44.37363" lon="11.0162133"><ele>693.7142857142857</ele><time>2026-03-22T09:19:37.995Z</time></trkpt><trkpt lat="44.3735717" lon="11.016165"><ele>691.8571428571429</ele><time>2026-03-22T09:19:38.998Z</time></trkpt><trkpt lat="44.3735067" lon="11.0161133"><ele>690.0</ele><time>2026-03-22T09:19:39.999Z</time></trkpt><trkpt lat="44.3734333" lon="11.0160717"><ele>690.0</ele><time>2026-03-22T09:19:40.987Z</time></trkpt><trkpt lat="44.3733567" lon="11.0160333"><ele>690.0</ele><time>2026-03-22T09:19:41.996Z</time></trkpt><trkpt lat="44.3732767" lon="11.0160033"><ele>690.0</ele><time>2026-03-22T09:19:42.994Z</time></trkpt><trkpt lat="44.3731983" lon="11.0159667"><ele>690.0</ele><time>2026-03-22T09:19:44Z</time></trkpt><trkpt lat="44.373125" lon="11.01593"><ele>690.0</ele><time>2026-03-22T09:19:45.008Z</time></trkpt><trkpt lat="44.37305" lon="11.0158933"><ele>690.0</ele><time>2026-03-22T09:19:45.994Z</time></trkpt><trkpt lat="44.3729717" lon="11.0158617"><ele>688.1428571428571</ele><time>2026-03-22T09:19:46.992Z</time></trkpt><trkpt lat="44.3728933" lon="11.0158467"><ele>686.2857142857142</ele><time>2026-03-22T09:19:47.988Z</time></trkpt><trkpt lat="44.3728183" lon="11.01583"><ele>684.4285714285713</ele><time>2026-03-22T09:19:48.993Z</time></trkpt><trkpt lat="44.3727433" lon="11.0158217"><ele>682.5714285714286</ele><time>2026-03-22T09:19:49.993Z</time></trkpt><trkpt lat="44.3726717" lon="11.0158217"><ele>680.7142857142857</ele><time>2026-03-22T09:19:50.997Z</time></trkpt><trkpt lat="44.3726083" lon="11.0158433"><ele>678.8571428571428</ele><time>2026-03-22T09:19:51.998Z</time></trkpt><trkpt lat="44.372545" lon="11.0159067"><ele>677.0</ele><time>2026-03-22T09:19:53.003Z</time></trkpt><trkpt lat="44.37249" lon="11.0159933"><ele>677.0</ele><time>2026-03-22T09:19:53.987Z</time></trkpt><trkpt lat="44.37243" lon="11.0161017"><ele>677.0</ele><time>2026-03-22T09:19:54.991Z</time></trkpt><trkpt lat="44.372365" lon="11.0161933"><ele>677.0</ele><time>2026-03-22T09:19:55.996Z</time></trkpt><trkpt lat="44.3722983" lon="11.01626"><ele>677.0</ele><time>2026-03-22T09:19:56.994Z</time></trkpt><trkpt lat="44.3722267" lon="11.0162917"><ele>677.0</ele><time>2026-03-22T09:19:57.995Z</time></trkpt><trkpt lat="44.3721417" lon="11.01628"><ele>677.0</ele><time>2026-03-22T09:19:58.991Z</time></trkpt><trkpt lat="44.37206" lon="11.01626"><ele>674.8333333333333</ele><time>2026-03-22T09:19:59.993Z</time></trkpt><trkpt lat="44.3719767" lon="11.0162583"><ele>672.6666666666666</ele><time>2026-03-22T09:20:00.99Z</time></trkpt><trkpt lat="44.3718983" lon="11.0162667"><ele>670.5</ele><time>2026-03-22T09:20:01.995Z</time></trkpt><trkpt lat="44.37182" lon="11.016335"><ele>668.3333333333334</ele><time>2026-03-22T09:20:02.99Z</time></trkpt><trkpt lat="44.3717483" lon="11.0164133"><ele>666.1666666666667</ele><time>2026-03-22T09:20:03.997Z</time></trkpt><trkpt lat="44.3716767" lon="11.0165017"><ele>664.0</ele><time>2026-03-22T09:20:04.992Z</time></trkpt><trkpt lat="44.371605" lon="11.0166"><ele>665.6</ele><time>2026-03-22T09:20:05.99Z</time></trkpt><trkpt lat="44.3715333" lon="11.0167067"><ele>667.2</ele><time>2026-03-22T09:20:06.994Z</time></trkpt><trkpt lat="44.3714683" lon="11.0168133"><ele>668.8000000000001</ele><time>2026-03-22T09:20:07.988Z</time></trkpt><trkpt lat="44.3714083" lon="11.0169133"><ele>670.4000000000001</ele><time>2026-03-22T09:20:08.998Z</time></trkpt><trkpt lat="44.3713417" lon="11.0170083"><ele>672.0</ele><time>2026-03-22T09:20:09.989Z</time></trkpt><trkpt lat="44.371275" lon="11.0170917"><ele>669.1428571428571</ele><time>2026-03-22T09:20:10.993Z</time></trkpt><trkpt lat="44.3712117" lon="11.0171633"><ele>666.2857142857142</ele><time>2026-03-22T09:20:11.995Z</time></trkpt><trkpt lat="44.3711467" lon="11.0172267"><ele>663.4285714285714</ele><time>2026-03-22T09:20:12.99Z</time></trkpt><trkpt lat="44.3710833" lon="11.017265"><ele>660.5714285714286</ele><time>2026-03-22T09:20:13.99Z</time></trkpt><trkpt lat="44.3710167" lon="11.017295"><ele>657.7142857142857</ele><time>2026-03-22T09:20:14.996Z</time></trkpt><trkpt lat="44.37095" lon="11.0173167"><ele>654.8571428571429</ele><time>2026-03-22T09:20:15.987Z</time></trkpt><trkpt lat="44.3708817" lon="11.0172683"><ele>652.0</ele><time>2026-03-22T09:20:16.989Z</time></trkpt><trkpt lat="44.3708167" lon="11.0172217"><ele>652.0</ele><time>2026-03-22T09:20:17.995Z</time></trkpt><trkpt lat="44.370755" lon="11.0171567"><ele>652.0</ele><time>2026-03-22T09:20:18.995Z</time></trkpt><trkpt lat="44.3706933" lon="11.017095"><ele>652.0</ele><time>2026-03-22T09:20:19.993Z</time></trkpt><trkpt lat="44.37063" lon="11.017035"><ele>652.0</ele><time>2026-03-22T09:20:20.992Z</time></trkpt><trkpt lat="44.370565" lon="11.016975"><ele>652.0</ele><time>2026-03-22T09:20:21.99Z</time></trkpt><trkpt lat="44.3705033" lon="11.0169183"><ele>652.0</ele><time>2026-03-22T09:20:22.993Z</time></trkpt><trkpt lat="44.3704417" lon="11.0168633"><ele>649.4285714285714</ele><time>2026-03-22T09:20:23.994Z</time></trkpt><trkpt lat="44.3703767" lon="11.016835"><ele>646.8571428571428</ele><time>2026-03-22T09:20:24.995Z</time></trkpt><trkpt lat="44.3703033" lon="11.01682"><ele>644.2857142857142</ele><time>2026-03-22T09:20:25.998Z</time></trkpt><trkpt lat="44.3702283" lon="11.01681"><ele>641.7142857142858</ele><time>2026-03-22T09:20:26.994Z</time></trkpt><trkpt lat="44.370165" lon="11.016785"><ele>639.1428571428571</ele><time>2026-03-22T09:20:27.99Z</time></trkpt><trkpt lat="44.3701" lon="11.016745"><ele>636.5714285714286</ele><time>2026-03-22T09:20:28.994Z</time></trkpt><trkpt lat="44.37003" lon="11.0166983"><ele>634.0</ele><time>2026-03-22T09:20:29.999Z</time></trkpt><trkpt lat="44.3699683" lon="11.01664"><ele>633.3333333333334</ele><time>2026-03-22T09:20:30.989Z</time></trkpt><trkpt lat="44.3699" lon="11.0165717"><ele>632.6666666666667</ele><time>2026-03-22T09:20:31.99Z</time></trkpt><trkpt lat="44.369835" lon="11.016505"><ele>632.0</ele><time>2026-03-22T09:20:32.988Z</time></trkpt><trkpt lat="44.3697683" lon="11.016455"><ele>631.3333333333334</ele><time>2026-03-22T09:20:33.997Z</time></trkpt><trkpt lat="44.3697" lon="11.0163833"><ele>630.6666666666666</ele><time>2026-03-22T09:20:35.991Z</time></trkpt><trkpt lat="44.3697617" lon="11.0162833"><ele>630.0</ele><time>2026-03-22T09:20:38.992Z</time></trkpt><trkpt lat="44.369825" lon="11.016245"><ele>630.0</ele><time>2026-03-22T09:20:39.99Z</time></trkpt><trkpt lat="44.3698867" lon="11.016195"><ele>630.0</ele><time>2026-03-22T09:20:40.988Z</time></trkpt><trkpt lat="44.3699417" lon="11.0161383"><ele>630.0</ele><time>2026-03-22T09:20:41.99Z</time></trkpt><trkpt lat="44.3699933" lon="11.0160833"><ele>630.0</ele><time>2026-03-22T09:20:42.992Z</time></trkpt><trkpt lat="44.370075" lon="11.0159617"><ele>630.0</ele><time>2026-03-22T09:20:44.995Z</time></trkpt><trkpt lat="44.3701367" lon="11.0158333"><ele>630.0</ele><time>2026-03-22T09:20:46.99Z</time></trkpt><trkpt lat="44.3702017" lon="11.0157117"><ele>628.4</ele><time>2026-03-22T09:20:48.998Z</time></trkpt><trkpt lat="44.3702733" lon="11.01562"><ele>626.8</ele><time>2026-03-22T09:20:50.993Z</time></trkpt><trkpt lat="44.3703617" lon="11.0155683"><ele>625.2</ele><time>2026-03-22T09:20:52.987Z</time></trkpt><trkpt lat="44.3704417" lon="11.0155217"><ele>623.6</ele><time>2026-03-22T09:20:54.99Z</time></trkpt><trkpt lat="44.3705233" lon="11.0154667"><ele>622.0</ele><time>2026-03-22T09:20:56.989Z</time></trkpt><trkpt lat="44.3705867" lon="11.0153867"><ele>622.0</ele><time>2026-03-22T09:20:58.992Z</time></trkpt><trkpt lat="44.370635" lon="11.0153"><ele>622.0</ele><time>2026-03-22T09:21:00.989Z</time></trkpt><trkpt lat="44.3706617" lon="11.0152083"><ele>622.0</ele><time>2026-03-22T09:21:02.989Z</time></trkpt><trkpt lat="44.3706183" lon="11.0152933"><ele>622.0</ele><time>2026-03-22T09:21:13.994Z</time></trkpt><trkpt lat="44.370585" lon="11.0153983"><ele>622.0</ele><time>2026-03-22T09:21:15.989Z</time></trkpt><trkpt lat="44.370515" lon="11.015455"><ele>622.0</ele><time>2026-03-22T09:21:17.994Z</time></trkpt><trkpt lat="44.3706067" lon="11.015355"><ele>623.1666666666667</ele><time>2026-03-22T09:21:31.989Z</time></trkpt><trkpt lat="44.3706667" lon="11.0152133"><ele>624.3333333333334</ele><time>2026-03-22T09:21:33.987Z</time></trkpt><trkpt lat="44.3706983" lon="11.0151317"><ele>625.5</ele><time>2026-03-22T09:21:34.994Z</time></trkpt><trkpt lat="44.3707367" lon="11.0150417"><ele>626.6666666666666</ele><time>2026-03-22T09:21:35.994Z</time></trkpt><trkpt lat="44.370775" lon="11.0149333"><ele>627.8333333333333</ele><time>2026-03-22T09:21:36.991Z</time></trkpt><trkpt lat="44.3708217" lon="11.01481"><ele>629.0</ele><time>2026-03-22T09:21:37.992Z</time></trkpt><trkpt lat="44.3708767" lon="11.0146733"><ele>629.0</ele><time>2026-03-22T09:21:38.99Z</time></trkpt><trkpt lat="44.370935" lon="11.0145333"><ele>629.0</ele><time>2026-03-22T09:21:39.999Z</time></trkpt><trkpt lat="44.3709933" lon="11.0143967"><ele>629.0</ele><time>2026-03-22T09:21:40.997Z</time></trkpt><trkpt lat="44.3710467" lon="11.014265"><ele>629.0</ele><time>2026-03-22T09:21:41.989Z</time></trkpt><trkpt lat="44.3711" lon="11.014145"><ele>629.0</ele><time>2026-03-22T09:21:42.992Z</time></trkpt><trkpt lat="44.3711433" lon="11.0140367"><ele>629.4</ele><time>2026-03-22T09:21:43.991Z</time></trkpt><trkpt lat="44.3711783" lon="11.0139233"><ele>629.8</ele><time>2026-03-22T09:21:44.999Z</time></trkpt><trkpt lat="44.371205" lon="11.0137967"><ele>630.2</ele><time>2026-03-22T09:21:45.995Z</time></trkpt><trkpt lat="44.3712167" lon="11.0136183"><ele>630.6</ele><time>2026-03-22T09:21:46.991Z</time></trkpt><trkpt lat="44.3712267" lon="11.01343"><ele>631.0</ele><time>2026-03-22T09:21:47.994Z</time></trkpt><trkpt lat="44.3712333" lon="11.01324"><ele>631.8</ele><time>2026-03-22T09:21:48.994Z</time></trkpt><trkpt lat="44.3712367" lon="11.0130683"><ele>632.6</ele><time>2026-03-22T09:21:49.994Z</time></trkpt><trkpt lat="44.3712383" lon="11.0129083"><ele>633.4</ele><time>2026-03-22T09:21:50.99Z</time></trkpt><trkpt lat="44.37124" lon="11.0127583"><ele>634.2</ele><time>2026-03-22T09:21:51.989Z</time></trkpt><trkpt lat="44.3712383" lon="11.0126167"><ele>635.0</ele><time>2026-03-22T09:21:52.994Z</time></trkpt><trkpt lat="44.3712417" lon="11.0124767"><ele>635.2</ele><time>2026-03-22T09:21:54.003Z</time></trkpt><trkpt lat="44.3712583" lon="11.0123383"><ele>635.4</ele><time>2026-03-22T09:21:54.989Z</time></trkpt><trkpt lat="44.3712833" lon="11.01219"><ele>635.6</ele><time>2026-03-22T09:21:55.989Z</time></trkpt><trkpt lat="44.3713117" lon="11.012025"><ele>635.8</ele><time>2026-03-22T09:21:56.989Z</time></trkpt><trkpt lat="44.3713383" lon="11.0118633"><ele>636.0</ele><time>2026-03-22T09:21:57.988Z</time></trkpt><trkpt lat="44.3713767" lon="11.0117067"><ele>640.8</ele><time>2026-03-22T09:21:58.998Z</time></trkpt><trkpt lat="44.37141" lon="11.0115467"><ele>645.6</ele><time>2026-03-22T09:21:59.998Z</time></trkpt><trkpt lat="44.3714333" lon="11.0113917"><ele>650.4</ele><time>2026-03-22T09:22:00.994Z</time></trkpt><trkpt lat="44.3714517" lon="11.0112433"><ele>655.2</ele><time>2026-03-22T09:22:01.993Z</time></trkpt><trkpt lat="44.37146" lon="11.0111033"><ele>660.0</ele><time>2026-03-22T09:22:02.988Z</time></trkpt><trkpt lat="44.3714483" lon="11.0109617"><ele>660.0</ele><time>2026-03-22T09:22:03.988Z</time></trkpt><trkpt lat="44.37143" lon="11.010825"><ele>660.0</ele><time>2026-03-22T09:22:04.99Z</time></trkpt><trkpt lat="44.3714067" lon="11.0107033"><ele>660.0</ele><time>2026-03-22T09:22:05.995Z</time></trkpt><trkpt lat="44.3713933" lon="11.0105867"><ele>660.0</ele><time>2026-03-22T09:22:06.993Z</time></trkpt><trkpt lat="44.3713967" lon="11.010465"><ele>660.0</ele><time>2026-03-22T09:22:07.988Z</time></trkpt><trkpt lat="44.3714088" lon="11.0103413"><ele>660.3333333333334</ele><time>2026-03-22T09:22:08.993Z</time></trkpt><trkpt lat="44.3714069" lon="11.0102197"><ele>660.6666666666666</ele><time>2026-03-22T09:22:09.991Z</time></trkpt><trkpt lat="44.371402" lon="11.0101096"><ele>661.0</ele><time>2026-03-22T09:22:10.992Z</time></trkpt><trkpt lat="44.3713934" lon="11.0100111"><ele>661.3333333333333</ele><time>2026-03-22T09:22:11.992Z</time></trkpt><trkpt lat="44.3713839" lon="11.009922"><ele>661.6666666666666</ele><time>2026-03-22T09:22:12.992Z</time></trkpt><trkpt lat="44.3713596" lon="11.0097812"><ele>662.0</ele><time>2026-03-22T09:22:14.996Z</time></trkpt><trkpt lat="44.3713346" lon="11.0096999"><ele>659.1666666666666</ele><time>2026-03-22T09:22:16.989Z</time></trkpt><trkpt lat="44.3712583" lon="11.0096617"><ele>656.3333333333333</ele><time>2026-03-22T09:22:25.993Z</time></trkpt><trkpt lat="44.3711867" lon="11.0096483"><ele>653.5</ele><time>2026-03-22T09:22:27.99Z</time></trkpt><trkpt lat="44.37111" lon="11.0096233"><ele>650.6666666666666</ele><time>2026-03-22T09:22:29.992Z</time></trkpt><trkpt lat="44.3710283" lon="11.0095867"><ele>647.8333333333334</ele><time>2026-03-22T09:22:32.001Z</time></trkpt><trkpt lat="44.3709283" lon="11.0095333"><ele>645.0</ele><time>2026-03-22T09:22:33.992Z</time></trkpt><trkpt lat="44.3708183" lon="11.0094783"><ele>645.0</ele><time>2026-03-22T09:22:35.995Z</time></trkpt><trkpt lat="44.3706967" lon="11.0094317"><ele>645.0</ele><time>2026-03-22T09:22:37.988Z</time></trkpt><trkpt lat="44.3706317" lon="11.0094183"><ele>645.0</ele><time>2026-03-22T09:22:38.989Z</time></trkpt><trkpt lat="44.370565" lon="11.0094083"><ele>645.0</ele><time>2026-03-22T09:22:39.995Z</time></trkpt><trkpt lat="44.3705017" lon="11.009395"><ele>645.0</ele><time>2026-03-22T09:22:40.987Z</time></trkpt><trkpt lat="44.370435" lon="11.0093867"><ele>645.0</ele><time>2026-03-22T09:22:41.994Z</time></trkpt><trkpt lat="44.3703633" lon="11.0093867"><ele>642.3333333333334</ele><time>2026-03-22T09:22:42.994Z</time></trkpt><trkpt lat="44.37029" lon="11.0093967"><ele>639.6666666666666</ele><time>2026-03-22T09:22:43.996Z</time></trkpt><trkpt lat="44.37021" lon="11.0094133"><ele>637.0</ele><time>2026-03-22T09:22:44.992Z</time></trkpt><trkpt lat="44.3701283" lon="11.0094283"><ele>634.3333333333333</ele><time>2026-03-22T09:22:45.995Z</time></trkpt><trkpt lat="44.3700367" lon="11.0094667"><ele>631.6666666666666</ele><time>2026-03-22T09:22:46.995Z</time></trkpt><trkpt lat="44.36995" lon="11.0095167"><ele>629.0</ele><time>2026-03-22T09:22:47.993Z</time></trkpt><trkpt lat="44.3698583" lon="11.0095717"><ele>629.0</ele><time>2026-03-22T09:22:48.994Z</time></trkpt><trkpt lat="44.369765" lon="11.0096133"><ele>629.0</ele><time>2026-03-22T09:22:49.992Z</time></trkpt><trkpt lat="44.3696633" lon="11.009635"><ele>629.0</ele><time>2026-03-22T09:22:50.99Z</time></trkpt><trkpt lat="44.3695533" lon="11.009655"><ele>629.0</ele><time>2026-03-22T09:22:51.995Z</time></trkpt><trkpt lat="44.369445" lon="11.009665"><ele>629.0</ele><time>2026-03-22T09:22:52.989Z</time></trkpt><trkpt lat="44.36934" lon="11.0096733"><ele>625.0</ele><time>2026-03-22T09:22:53.992Z</time></trkpt><trkpt lat="44.3692367" lon="11.0096817"><ele>621.0</ele><time>2026-03-22T09:22:54.996Z</time></trkpt><trkpt lat="44.3691383" lon="11.00969"><ele>617.0</ele><time>2026-03-22T09:22:55.995Z</time></trkpt><trkpt lat="44.3690383" lon="11.00969"><ele>613.0</ele><time>2026-03-22T09:22:56.993Z</time></trkpt><trkpt lat="44.3689417" lon="11.0096833"><ele>609.0</ele><time>2026-03-22T09:22:57.986Z</time></trkpt><trkpt lat="44.3688433" lon="11.0096767"><ele>605.8</ele><time>2026-03-22T09:22:58.99Z</time></trkpt><trkpt lat="44.3687467" lon="11.00967"><ele>602.5999999999999</ele><time>2026-03-22T09:22:59.987Z</time></trkpt><trkpt lat="44.368645" lon="11.009675"><ele>599.4</ele><time>2026-03-22T09:23:00.994Z</time></trkpt><trkpt lat="44.368545" lon="11.0096983"><ele>596.1999999999999</ele><time>2026-03-22T09:23:01.994Z</time></trkpt><trkpt lat="44.36844" lon="11.00971"><ele>593.0</ele><time>2026-03-22T09:23:02.989Z</time></trkpt><trkpt lat="44.3683333" lon="11.0097067"><ele>593.0</ele><time>2026-03-22T09:23:03.996Z</time></trkpt><trkpt lat="44.3682283" lon="11.0096983"><ele>593.0</ele><time>2026-03-22T09:23:04.99Z</time></trkpt><trkpt lat="44.3681267" lon="11.0096967"><ele>593.0</ele><time>2026-03-22T09:23:05.987Z</time></trkpt><trkpt lat="44.3680333" lon="11.0096917"><ele>593.0</ele><time>2026-03-22T09:23:06.987Z</time></trkpt><trkpt lat="44.3679417" lon="11.0096833"><ele>593.0</ele><time>2026-03-22T09:23:07.993Z</time></trkpt><trkpt lat="44.3678533" lon="11.0096583"><ele>590.5</ele><time>2026-03-22T09:23:09.002Z</time></trkpt><trkpt lat="44.3677683" lon="11.0096267"><ele>588.0</ele><time>2026-03-22T09:23:09.988Z</time></trkpt><trkpt lat="44.3677" lon="11.00957"><ele>585.5</ele><time>2026-03-22T09:23:10.995Z</time></trkpt><trkpt lat="44.3676433" lon="11.0094967"><ele>583.0</ele><time>2026-03-22T09:23:11.988Z</time></trkpt><trkpt lat="44.3675967" lon="11.009395"><ele>580.5</ele><time>2026-03-22T09:23:12.992Z</time></trkpt><trkpt lat="44.3675517" lon="11.00927"><ele>578.0</ele><time>2026-03-22T09:23:13.994Z</time></trkpt><trkpt lat="44.367505" lon="11.0091333"><ele>577.1999999999999</ele><time>2026-03-22T09:23:14.987Z</time></trkpt><trkpt lat="44.36745" lon="11.009"><ele>576.4</ele><time>2026-03-22T09:23:15.996Z</time></trkpt><trkpt lat="44.3673983" lon="11.0088683"><ele>575.5999999999999</ele><time>2026-03-22T09:23:16.989Z</time></trkpt><trkpt lat="44.3673417" lon="11.008735"><ele>574.8</ele><time>2026-03-22T09:23:17.995Z</time></trkpt><trkpt lat="44.367295" lon="11.008605"><ele>574.0</ele><time>2026-03-22T09:23:18.995Z</time></trkpt><trkpt lat="44.3672333" lon="11.0084817"><ele>571.75</ele><time>2026-03-22T09:23:19.99Z</time></trkpt><trkpt lat="44.36717" lon="11.0083517"><ele>569.5</ele><time>2026-03-22T09:23:20.998Z</time></trkpt><trkpt lat="44.3670983" lon="11.008215"><ele>567.25</ele><time>2026-03-22T09:23:21.992Z</time></trkpt><trkpt lat="44.367035" lon="11.008075"><ele>565.0</ele><time>2026-03-22T09:23:22.992Z</time></trkpt><trkpt lat="44.366975" lon="11.0079467"><ele>565.0</ele><time>2026-03-22T09:23:23.989Z</time></trkpt><trkpt lat="44.3669217" lon="11.00783"><ele>565.0</ele><time>2026-03-22T09:23:24.996Z</time></trkpt><trkpt lat="44.36687" lon="11.0077217"><ele>565.0</ele><time>2026-03-22T09:23:25.993Z</time></trkpt><trkpt lat="44.36682" lon="11.0076233"><ele>565.0</ele><time>2026-03-22T09:23:26.996Z</time></trkpt><trkpt lat="44.3667717" lon="11.0075317"><ele>565.0</ele><time>2026-03-22T09:23:28Z</time></trkpt><trkpt lat="44.3667217" lon="11.007455"><ele>565.0</ele><time>2026-03-22T09:23:28.994Z</time></trkpt><trkpt lat="44.3666617" lon="11.0073983"><ele>564.8571428571428</ele><time>2026-03-22T09:23:29.999Z</time></trkpt><trkpt lat="44.3665917" lon="11.0073583"><ele>564.7142857142857</ele><time>2026-03-22T09:23:30.99Z</time></trkpt><trkpt lat="44.3665217" lon="11.007325"><ele>564.5714285714286</ele><time>2026-03-22T09:23:31.99Z</time></trkpt><trkpt lat="44.3664533" lon="11.0073083"><ele>564.4285714285713</ele><time>2026-03-22T09:23:32.999Z</time></trkpt><trkpt lat="44.36639" lon="11.0072883"><ele>564.2857142857142</ele><time>2026-03-22T09:23:33.99Z</time></trkpt><trkpt lat="44.3663267" lon="11.00728"><ele>564.1428571428571</ele><time>2026-03-22T09:23:34.994Z</time></trkpt><trkpt lat="44.3662467" lon="11.0072767"><ele>564.0</ele><time>2026-03-22T09:23:35.988Z</time></trkpt><trkpt lat="44.3661667" lon="11.00728"><ele>564.0</ele><time>2026-03-22T09:23:36.988Z</time></trkpt><trkpt lat="44.3660867" lon="11.007285"><ele>564.0</ele><time>2026-03-22T09:23:37.987Z</time></trkpt><trkpt lat="44.36601" lon="11.0073017"><ele>564.0</ele><time>2026-03-22T09:23:38.995Z</time></trkpt><trkpt lat="44.3659333" lon="11.007325"><ele>564.0</ele><time>2026-03-22T09:23:39.988Z</time></trkpt><trkpt lat="44.3658517" lon="11.0073533"><ele>564.0</ele><time>2026-03-22T09:23:40.996Z</time></trkpt><trkpt lat="44.3657717" lon="11.00738"><ele>564.0</ele><time>2026-03-22T09:23:41.991Z</time></trkpt><trkpt lat="44.365695" lon="11.0074"><ele>564.0</ele><time>2026-03-22T09:23:42.99Z</time></trkpt><trkpt lat="44.365625" lon="11.0074117"><ele>564.0</ele><time>2026-03-22T09:23:43.997Z</time></trkpt><trkpt lat="44.36556" lon="11.0074217"><ele>564.0</ele><time>2026-03-22T09:23:44.99Z</time></trkpt><trkpt lat="44.365495" lon="11.007435"><ele>564.0</ele><time>2026-03-22T09:23:46Z</time></trkpt><trkpt lat="44.365425" lon="11.0074417"><ele>564.0</ele><time>2026-03-22T09:23:46.99Z</time></trkpt><trkpt lat="44.365345" lon="11.0074567"><ele>564.0</ele><time>2026-03-22T09:23:47.996Z</time></trkpt><trkpt lat="44.3652633" lon="11.0074667"><ele>564.0</ele><time>2026-03-22T09:23:48.991Z</time></trkpt><trkpt lat="44.3651867" lon="11.007475"><ele>559.8</ele><time>2026-03-22T09:23:49.997Z</time></trkpt><trkpt lat="44.3651233" lon="11.00748"><ele>555.5999999999999</ele><time>2026-03-22T09:23:50.993Z</time></trkpt><trkpt lat="44.3650233" lon="11.007505"><ele>551.4</ele><time>2026-03-22T09:23:52.995Z</time></trkpt><trkpt lat="44.364905" lon="11.0075"><ele>547.1999999999999</ele><time>2026-03-22T09:23:55Z</time></trkpt><trkpt lat="44.36479" lon="11.0074867"><ele>543.0</ele><time>2026-03-22T09:23:56.996Z</time></trkpt><trkpt lat="44.3646833" lon="11.0074283"><ele>540.3333333333334</ele><time>2026-03-22T09:23:58.997Z</time></trkpt><trkpt lat="44.3646167" lon="11.0073817"><ele>537.6666666666666</ele><time>2026-03-22T09:24:00.988Z</time></trkpt><trkpt lat="44.364545" lon="11.00736"><ele>535.0</ele><time>2026-03-22T09:24:02.992Z</time></trkpt><trkpt lat="44.3644517" lon="11.0073667"><ele>532.3333333333333</ele><time>2026-03-22T09:24:05.993Z</time></trkpt><trkpt lat="44.3643667" lon="11.007325"><ele>529.6666666666666</ele><time>2026-03-22T09:24:08.992Z</time></trkpt><trkpt lat="44.36438" lon="11.0072067"><ele>527.0</ele><time>2026-03-22T09:25:54.99Z</time></trkpt><trkpt lat="44.36441" lon="11.0070983"><ele>527.0</ele><time>2026-03-22T09:25:57.006Z</time></trkpt><trkpt lat="44.3644617" lon="11.0069767"><ele>527.0</ele><time>2026-03-22T09:25:58.993Z</time></trkpt><trkpt lat="44.3645133" lon="11.00683"><ele>527.0</ele><time>2026-03-22T09:26:00.994Z</time></trkpt><trkpt lat="44.3645617" lon="11.006675"><ele>527.0</ele><time>2026-03-22T09:26:02.992Z</time></trkpt><trkpt lat="44.3645983" lon="11.006515"><ele>528.4</ele><time>2026-03-22T09:26:04.989Z</time></trkpt><trkpt lat="44.3645983" lon="11.0063633"><ele>529.8000000000001</ele><time>2026-03-22T09:26:06.996Z</time></trkpt><trkpt lat="44.3645767" lon="11.00623"><ele>531.2</ele><time>2026-03-22T09:26:08.992Z</time></trkpt><trkpt lat="44.3645517" lon="11.0060867"><ele>532.6</ele><time>2026-03-22T09:26:10.998Z</time></trkpt><trkpt lat="44.3645317" lon="11.0059367"><ele>534.0</ele><time>2026-03-22T09:26:12.993Z</time></trkpt><trkpt lat="44.3645167" lon="11.005775"><ele>534.6666666666666</ele><time>2026-03-22T09:26:14.994Z</time></trkpt><trkpt lat="44.364505" lon="11.0056833"><ele>535.3333333333334</ele><time>2026-03-22T09:26:15.99Z</time></trkpt><trkpt lat="44.3644733" lon="11.0055217"><ele>536.0</ele><time>2026-03-22T09:26:17.991Z</time></trkpt><trkpt lat="44.3644617" lon="11.0054317"><ele>536.6666666666667</ele><time>2026-03-22T09:26:18.994Z</time></trkpt><trkpt lat="44.36445" lon="11.0052833"><ele>537.3333333333334</ele><time>2026-03-22T09:26:20.995Z</time></trkpt><trkpt lat="44.36445" lon="11.0051783"><ele>538.0</ele><time>2026-03-22T09:26:22.995Z</time></trkpt><trkpt lat="44.364455" lon="11.0050833"><ele>538.6</ele><time>2026-03-22T09:26:24.989Z</time></trkpt><trkpt lat="44.36445" lon="11.004985"><ele>539.1999999999999</ele><time>2026-03-22T09:26:26.994Z</time></trkpt><trkpt lat="44.364435" lon="11.0048767"><ele>539.8</ele><time>2026-03-22T09:26:28.999Z</time></trkpt><trkpt lat="44.3644383" lon="11.004735"><ele>540.4</ele><time>2026-03-22T09:26:30.998Z</time></trkpt><trkpt lat="44.3644633" lon="11.0045783"><ele>541.0</ele><time>2026-03-22T09:26:32.996Z</time></trkpt><trkpt lat="44.36449" lon="11.00441"><ele>541.0</ele><time>2026-03-22T09:26:34.992Z</time></trkpt><trkpt lat="44.3644967" lon="11.0042383"><ele>541.0</ele><time>2026-03-22T09:26:36.991Z</time></trkpt><trkpt lat="44.3644983" lon="11.004145"><ele>541.0</ele><time>2026-03-22T09:26:37.997Z</time></trkpt><trkpt lat="44.3644983" lon="11.0040467"><ele>541.0</ele><time>2026-03-22T09:26:38.994Z</time></trkpt><trkpt lat="44.3645033" lon="11.00395"><ele>541.0</ele><time>2026-03-22T09:26:39.999Z</time></trkpt><trkpt lat="44.3645167" lon="11.0037883"><ele>541.0</ele><time>2026-03-22T09:26:41.994Z</time></trkpt><trkpt lat="44.3644917" lon="11.0036467"><ele>541.0</ele><time>2026-03-22T09:26:43.993Z</time></trkpt><trkpt lat="44.3644417" lon="11.0035417"><ele>541.0</ele><time>2026-03-22T09:26:45.995Z</time></trkpt><trkpt lat="44.3643783" lon="11.0034417"><ele>541.0</ele><time>2026-03-22T09:26:48.998Z</time></trkpt><trkpt lat="44.3643333" lon="11.0033533"><ele>541.0</ele><time>2026-03-22T09:26:51.99Z</time></trkpt><trkpt lat="44.3642833" lon="11.0032333"><ele>541.0</ele><time>2026-03-22T09:26:54.991Z</time></trkpt><trkpt lat="44.3642533" lon="11.0031067"><ele>541.0</ele><time>2026-03-22T09:26:57.992Z</time></trkpt><trkpt lat="44.364235" lon="11.0029733"><ele>541.0</ele><time>2026-03-22T09:26:59.998Z</time></trkpt><trkpt lat="44.3642133" lon="11.0027967"><ele>541.0</ele><time>2026-03-22T09:27:01.992Z</time></trkpt><trkpt lat="44.36421" lon="11.0027017"><ele>541.0</ele><time>2026-03-22T09:27:02.996Z</time></trkpt><trkpt lat="44.36421" lon="11.002605"><ele>541.0</ele><time>2026-03-22T09:27:03.992Z</time></trkpt><trkpt lat="44.3642083" lon="11.0024983"><ele>541.0</ele><time>2026-03-22T09:27:04.991Z</time></trkpt><trkpt lat="44.364215" lon="11.0023883"><ele>541.0000000000001</ele><time>2026-03-22T09:27:05.988Z</time></trkpt><trkpt lat="44.36423" lon="11.002285"><ele>541.0</ele><time>2026-03-22T09:27:06.991Z</time></trkpt><trkpt lat="44.3642583" lon="11.0021817"><ele>541.0</ele><time>2026-03-22T09:27:07.992Z</time></trkpt><trkpt lat="44.3642883" lon="11.0020783"><ele>541.0</ele><time>2026-03-22T09:27:08.99Z</time></trkpt><trkpt lat="44.3643017" lon="11.0019883"><ele>541.0</ele><time>2026-03-22T09:27:09.99Z</time></trkpt><trkpt lat="44.364305" lon="11.0018767"><ele>541.0000000000001</ele><time>2026-03-22T09:27:10.993Z</time></trkpt><trkpt lat="44.3643083" lon="11.001785"><ele>541.0</ele><time>2026-03-22T09:27:11.993Z</time></trkpt><trkpt lat="44.364305" lon="11.0016917"><ele>541.8333333333334</ele><time>2026-03-22T09:27:12.992Z</time></trkpt><trkpt lat="44.3642683" lon="11.0015267"><ele>542.6666666666667</ele><time>2026-03-22T09:27:14.993Z</time></trkpt><trkpt lat="44.3642367" lon="11.0014483"><ele>543.5</ele><time>2026-03-22T09:27:15.993Z</time></trkpt><trkpt lat="44.3641967" lon="11.001375"><ele>544.3333333333334</ele><time>2026-03-22T09:27:16.99Z</time></trkpt><trkpt lat="44.3641517" lon="11.00131"><ele>545.1666666666666</ele><time>2026-03-22T09:27:17.998Z</time></trkpt><trkpt lat="44.3640733" lon="11.0012217"><ele>546.0</ele><time>2026-03-22T09:27:19.991Z</time></trkpt><trkpt lat="44.3640217" lon="11.001145"><ele>546.0</ele><time>2026-03-22T09:27:22.99Z</time></trkpt><trkpt lat="44.36396" lon="11.001215"><ele>546.0</ele><time>2026-03-22T09:28:10.991Z</time></trkpt><trkpt lat="44.3639033" lon="11.00131"><ele>546.0</ele><time>2026-03-22T09:28:14.993Z</time></trkpt><trkpt lat="44.3638733" lon="11.0013917"><ele>546.0</ele><time>2026-03-22T09:28:16.992Z</time></trkpt><trkpt lat="44.3638333" lon="11.0014917"><ele>546.0</ele><time>2026-03-22T09:28:18.993Z</time></trkpt><trkpt lat="44.3638117" lon="11.0015983"><ele>546.0</ele><time>2026-03-22T09:28:20.992Z</time></trkpt><trkpt lat="44.3637833" lon="11.0017017"><ele>547.5</ele><time>2026-03-22T09:28:22.992Z</time></trkpt><trkpt lat="44.3637283" lon="11.0017867"><ele>549.0</ele><time>2026-03-22T09:28:24.99Z</time></trkpt><trkpt lat="44.36365" lon="11.0018383"><ele>550.5</ele><time>2026-03-22T09:28:26.992Z</time></trkpt><trkpt lat="44.3635583" lon="11.0018467"><ele>552.0</ele><time>2026-03-22T09:28:28.996Z</time></trkpt><trkpt lat="44.3634833" lon="11.0018683"><ele>553.5</ele><time>2026-03-22T09:28:30.99Z</time></trkpt><trkpt lat="44.3634317" lon="11.0019367"><ele>555.0</ele><time>2026-03-22T09:28:33.997Z</time></trkpt><trkpt lat="44.36339" lon="11.0020167"><ele>555.0000000000001</ele><time>2026-03-22T09:28:38.991Z</time></trkpt><trkpt lat="44.3633467" lon="11.0020817"><ele>555.0</ele><time>2026-03-22T09:28:41.992Z</time></trkpt><trkpt lat="44.363305" lon="11.0021717"><ele>555.0</ele><time>2026-03-22T09:28:45.996Z</time></trkpt><trkpt lat="44.363235" lon="11.0022417"><ele>555.0</ele><time>2026-03-22T09:28:49.995Z</time></trkpt><trkpt lat="44.3631683" lon="11.0022583"><ele>555.0</ele><time>2026-03-22T09:28:51.998Z</time></trkpt><trkpt lat="44.3630983" lon="11.0022433"><ele>555.0000000000001</ele><time>2026-03-22T09:28:54.992Z</time></trkpt><trkpt lat="44.36302" lon="11.002245"><ele>555.0</ele><time>2026-03-22T09:30:21.993Z</time></trkpt><trkpt lat="44.36296" lon="11.0022817"><ele>557.8571428571429</ele><time>2026-03-22T09:30:25.992Z</time></trkpt><trkpt lat="44.3629033" lon="11.0023367"><ele>560.7142857142858</ele><time>2026-03-22T09:30:29.996Z</time></trkpt><trkpt lat="44.362875" lon="11.0024267"><ele>563.5714285714286</ele><time>2026-03-22T09:30:34.989Z</time></trkpt><trkpt lat="44.3628802" lon="11.0025221"><ele>566.4285714285714</ele><time>2026-03-22T09:30:39.01Z</time></trkpt><trkpt lat="44.3628545" lon="11.00261"><ele>569.2857142857142</ele><time>2026-03-22T09:30:43.039Z</time></trkpt><trkpt lat="44.3627983" lon="11.0026629"><ele>572.1428571428571</ele><time>2026-03-22T09:30:48.988Z</time></trkpt><trkpt lat="44.3627404" lon="11.0027252"><ele>575.0</ele><time>2026-03-22T09:30:52.989Z</time></trkpt><trkpt lat="44.3626882" lon="11.002806"><ele>576.6666666666666</ele><time>2026-03-22T09:30:56.035Z</time></trkpt><trkpt lat="44.3626243" lon="11.0029025"><ele>578.3333333333333</ele><time>2026-03-22T09:30:58.991Z</time></trkpt><trkpt lat="44.3625947" lon="11.0029807"><ele>580.0</ele><time>2026-03-22T09:31:00.995Z</time></trkpt><trkpt lat="44.3625444" lon="11.0030894"><ele>581.6666666666666</ele><time>2026-03-22T09:31:03.989Z</time></trkpt><trkpt lat="44.362486" lon="11.0031776"><ele>583.3333333333334</ele><time>2026-03-22T09:31:06.919Z</time></trkpt><trkpt lat="44.3624408" lon="11.0032453"><ele>585.0</ele><time>2026-03-22T09:31:08.995Z</time></trkpt><trkpt lat="44.362375" lon="11.0033033"><ele>585.7142857142858</ele><time>2026-03-22T09:31:10.993Z</time></trkpt><trkpt lat="44.3623167" lon="11.003355"><ele>586.4285714285714</ele><time>2026-03-22T09:31:12.996Z</time></trkpt><trkpt lat="44.3622583" lon="11.0033933"><ele>587.1428571428571</ele><time>2026-03-22T09:31:14.993Z</time></trkpt><trkpt lat="44.3621833" lon="11.0034317"><ele>587.8571428571429</ele><time>2026-03-22T09:31:16.988Z</time></trkpt><trkpt lat="44.36211" lon="11.0034567"><ele>588.5714285714286</ele><time>2026-03-22T09:31:18.994Z</time></trkpt><trkpt lat="44.3620317" lon="11.003495"><ele>589.2857142857143</ele><time>2026-03-22T09:31:20.993Z</time></trkpt><trkpt lat="44.36198" lon="11.0035467"><ele>590.0</ele><time>2026-03-22T09:31:22.994Z</time></trkpt><trkpt lat="44.361925" lon="11.0036017"><ele>593.0</ele><time>2026-03-22T09:31:24.991Z</time></trkpt><trkpt lat="44.3618667" lon="11.0036783"><ele>596.0</ele><time>2026-03-22T09:31:27.993Z</time></trkpt><trkpt lat="44.3618617" lon="11.0038017"><ele>599.0</ele><time>2026-03-22T09:31:30.991Z</time></trkpt><trkpt lat="44.3618533" lon="11.003895"><ele>602.0</ele><time>2026-03-22T09:31:32.989Z</time></trkpt><trkpt lat="44.3618383" lon="11.0040133"><ele>605.0</ele><time>2026-03-22T09:31:35.992Z</time></trkpt><trkpt lat="44.3618517" lon="11.00411"><ele>608.0</ele><time>2026-03-22T09:31:37.992Z</time></trkpt><trkpt lat="44.3618833" lon="11.0042267"><ele>608.3333333333333</ele><time>2026-03-22T09:31:39.991Z</time></trkpt><trkpt lat="44.3619117" lon="11.0043567"><ele>608.6666666666666</ele><time>2026-03-22T09:31:41.991Z</time></trkpt><trkpt lat="44.3619167" lon="11.0044717"><ele>609.0</ele><time>2026-03-22T09:31:43.993Z</time></trkpt><trkpt lat="44.3618917" lon="11.0045733"><ele>609.3333333333334</ele><time>2026-03-22T09:31:45.992Z</time></trkpt><trkpt lat="44.361835" lon="11.0046567"><ele>609.6666666666667</ele><time>2026-03-22T09:31:47.989Z</time></trkpt><trkpt lat="44.3617717" lon="11.0047"><ele>610.0</ele><time>2026-03-22T09:31:49.993Z</time></trkpt><trkpt lat="44.3617017" lon="11.00472"><ele>610.0</ele><time>2026-03-22T09:31:51.995Z</time></trkpt><trkpt lat="44.3616233" lon="11.00471"><ele>610.0</ele><time>2026-03-22T09:31:53.988Z</time></trkpt><trkpt lat="44.3615467" lon="11.00471"><ele>610.0</ele><time>2026-03-22T09:31:55.992Z</time></trkpt><trkpt lat="44.3614667" lon="11.0047433"><ele>610.0</ele><time>2026-03-22T09:31:57.996Z</time></trkpt><trkpt lat="44.3613867" lon="11.00476"><ele>610.0</ele><time>2026-03-22T09:31:59.993Z</time></trkpt><trkpt lat="44.3613117" lon="11.0047533"><ele>610.0</ele><time>2026-03-22T09:32:01.993Z</time></trkpt><trkpt lat="44.36123" lon="11.0047633"><ele>613.3333333333334</ele><time>2026-03-22T09:32:03.995Z</time></trkpt><trkpt lat="44.361145" lon="11.0047883"><ele>616.6666666666667</ele><time>2026-03-22T09:32:05.992Z</time></trkpt><trkpt lat="44.3610783" lon="11.0048133"><ele>620.0</ele><time>2026-03-22T09:32:07.996Z</time></trkpt><trkpt lat="44.3609983" lon="11.0048767"><ele>623.3333333333334</ele><time>2026-03-22T09:32:10.991Z</time></trkpt><trkpt lat="44.36093" lon="11.0049433"><ele>626.6666666666666</ele><time>2026-03-22T09:32:13.995Z</time></trkpt><trkpt lat="44.3608533" lon="11.0049833"><ele>630.0</ele><time>2026-03-22T09:32:16.993Z</time></trkpt><trkpt lat="44.360785" lon="11.00501"><ele>631.0</ele><time>2026-03-22T09:32:18.994Z</time></trkpt><trkpt lat="44.36072" lon="11.0050717"><ele>632.0</ele><time>2026-03-22T09:32:20.992Z</time></trkpt><trkpt lat="44.3606717" lon="11.0051367"><ele>633.0</ele><time>2026-03-22T09:32:22.992Z</time></trkpt><trkpt lat="44.36059" lon="11.005165"><ele>634.0</ele><time>2026-03-22T09:32:25.993Z</time></trkpt><trkpt lat="44.3605167" lon="11.0051033"><ele>635.0</ele><time>2026-03-22T09:32:27.996Z</time></trkpt><trkpt lat="44.360445" lon="11.0050433"><ele>636.0</ele><time>2026-03-22T09:32:29.994Z</time></trkpt><trkpt lat="44.3603517" lon="11.0050417"><ele>638.5</ele><time>2026-03-22T09:32:31.991Z</time></trkpt><trkpt lat="44.3602617" lon="11.0050683"><ele>641.0</ele><time>2026-03-22T09:32:33.992Z</time></trkpt><trkpt lat="44.3601833" lon="11.0050933"><ele>643.5</ele><time>2026-03-22T09:32:35.993Z</time></trkpt><trkpt lat="44.3601083" lon="11.00514"><ele>646.0</ele><time>2026-03-22T09:32:37.991Z</time></trkpt><trkpt lat="44.36003" lon="11.0052217"><ele>648.5</ele><time>2026-03-22T09:32:39.993Z</time></trkpt><trkpt lat="44.35995" lon="11.00529"><ele>651.0</ele><time>2026-03-22T09:32:41.992Z</time></trkpt><trkpt lat="44.359875" lon="11.0053417"><ele>651.0</ele><time>2026-03-22T09:32:43.993Z</time></trkpt><trkpt lat="44.35979" lon="11.0053517"><ele>651.0</ele><time>2026-03-22T09:32:45.993Z</time></trkpt><trkpt lat="44.35969" lon="11.0053217"><ele>651.0</ele><time>2026-03-22T09:32:47.992Z</time></trkpt><trkpt lat="44.35958" lon="11.00527"><ele>651.0</ele><time>2026-03-22T09:32:49.991Z</time></trkpt><trkpt lat="44.3594817" lon="11.0052233"><ele>651.0</ele><time>2026-03-22T09:32:51.995Z</time></trkpt><trkpt lat="44.3594017" lon="11.0051833"><ele>653.1666666666666</ele><time>2026-03-22T09:32:53.991Z</time></trkpt><trkpt lat="44.3593183" lon="11.00513"><ele>655.3333333333334</ele><time>2026-03-22T09:32:55.99Z</time></trkpt><trkpt lat="44.3592333" lon="11.0050917"><ele>657.5</ele><time>2026-03-22T09:32:57.993Z</time></trkpt><trkpt lat="44.3591704" lon="11.0051092"><ele>659.6666666666667</ele><time>2026-03-22T09:32:59.989Z</time></trkpt><trkpt lat="44.3591186" lon="11.0051657"><ele>661.8333333333334</ele><time>2026-03-22T09:33:01.998Z</time></trkpt><trkpt lat="44.3590991" lon="11.0053308"><ele>664.0</ele><time>2026-03-22T09:33:06.996Z</time></trkpt><trkpt lat="44.3591333" lon="11.0051976"><ele>664.0</ele><time>2026-03-22T09:33:10.992Z</time></trkpt><trkpt lat="44.3590568" lon="11.0052635"><ele>664.0</ele><time>2026-03-22T09:35:38.992Z</time></trkpt><trkpt lat="44.3589852" lon="11.0053454"><ele>664.0</ele><time>2026-03-22T09:35:40.993Z</time></trkpt><trkpt lat="44.3589117" lon="11.0054317"><ele>664.0</ele><time>2026-03-22T09:35:42.992Z</time></trkpt><trkpt lat="44.3588567" lon="11.0054967"><ele>664.0</ele><time>2026-03-22T09:35:44.994Z</time></trkpt><trkpt lat="44.358805" lon="11.005575"><ele>664.0</ele><time>2026-03-22T09:35:46.991Z</time></trkpt><trkpt lat="44.358745" lon="11.0056667"><ele>663.5</ele><time>2026-03-22T09:35:48.997Z</time></trkpt><trkpt lat="44.35868" lon="11.0057617"><ele>663.0</ele><time>2026-03-22T09:35:51.001Z</time></trkpt><trkpt lat="44.35862" lon="11.0058467"><ele>662.5</ele><time>2026-03-22T09:35:52.995Z</time></trkpt><trkpt lat="44.3585667" lon="11.0059183"><ele>662.0</ele><time>2026-03-22T09:35:54.992Z</time></trkpt><trkpt lat="44.3585117" lon="11.00599"><ele>661.5</ele><time>2026-03-22T09:35:56.992Z</time></trkpt><trkpt lat="44.3584483" lon="11.006055"><ele>661.0</ele><time>2026-03-22T09:35:58.995Z</time></trkpt><trkpt lat="44.3583783" lon="11.00613"><ele>663.5999999999999</ele><time>2026-03-22T09:36:00.993Z</time></trkpt><trkpt lat="44.3582967" lon="11.0061983"><ele>666.2</ele><time>2026-03-22T09:36:02.993Z</time></trkpt><trkpt lat="44.3582033" lon="11.006265"><ele>668.8</ele><time>2026-03-22T09:36:04.993Z</time></trkpt><trkpt lat="44.3581117" lon="11.00635"><ele>671.4000000000001</ele><time>2026-03-22T09:36:06.993Z</time></trkpt><trkpt lat="44.3580067" lon="11.00642"><ele>674.0</ele><time>2026-03-22T09:36:08.995Z</time></trkpt><trkpt lat="44.357945" lon="11.0064483"><ele>674.0</ele><time>2026-03-22T09:36:09.991Z</time></trkpt><trkpt lat="44.3578733" lon="11.006475"><ele>674.0</ele><time>2026-03-22T09:36:10.992Z</time></trkpt><trkpt lat="44.35779" lon="11.00649"><ele>674.0</ele><time>2026-03-22T09:36:11.991Z</time></trkpt><trkpt lat="44.3576983" lon="11.0064967"><ele>674.0</ele><time>2026-03-22T09:36:12.99Z</time></trkpt><trkpt lat="44.3576017" lon="11.006505"><ele>674.0</ele><time>2026-03-22T09:36:13.991Z</time></trkpt><trkpt lat="44.3575017" lon="11.0065283"><ele>674.0</ele><time>2026-03-22T09:36:14.996Z</time></trkpt><trkpt lat="44.3574" lon="11.0065617"><ele>674.0</ele><time>2026-03-22T09:36:15.994Z</time></trkpt><trkpt lat="44.3572917" lon="11.00661"><ele>674.0</ele><time>2026-03-22T09:36:16.995Z</time></trkpt><trkpt lat="44.3571867" lon="11.0066633"><ele>674.0</ele><time>2026-03-22T09:36:17.994Z</time></trkpt><trkpt lat="44.3570883" lon="11.0067133"><ele>674.0</ele><time>2026-03-22T09:36:18.997Z</time></trkpt><trkpt lat="44.3569867" lon="11.0067483"><ele>674.0</ele><time>2026-03-22T09:36:19.99Z</time></trkpt><trkpt lat="44.3568883" lon="11.0067683"><ele>676.5</ele><time>2026-03-22T09:36:20.989Z</time></trkpt><trkpt lat="44.356805" lon="11.0067767"><ele>679.0</ele><time>2026-03-22T09:36:21.995Z</time></trkpt><trkpt lat="44.35674" lon="11.0067817"><ele>681.5</ele><time>2026-03-22T09:36:22.989Z</time></trkpt><trkpt lat="44.3566517" lon="11.006795"><ele>684.0</ele><time>2026-03-22T09:36:24.992Z</time></trkpt><trkpt lat="44.3565833" lon="11.0068"><ele>686.5</ele><time>2026-03-22T09:36:26.994Z</time></trkpt><trkpt lat="44.35649" lon="11.0068"><ele>689.0</ele><time>2026-03-22T09:36:28.994Z</time></trkpt><trkpt lat="44.356385" lon="11.0067967"><ele>691.5</ele><time>2026-03-22T09:36:30.996Z</time></trkpt><trkpt lat="44.35628" lon="11.0068367"><ele>694.0</ele><time>2026-03-22T09:36:32.992Z</time></trkpt><trkpt lat="44.3562217" lon="11.00688"><ele>696.5</ele><time>2026-03-22T09:36:33.99Z</time></trkpt><trkpt lat="44.3561567" lon="11.0069117"><ele>699.0</ele><time>2026-03-22T09:36:34.993Z</time></trkpt><trkpt lat="44.3560833" lon="11.0069367"><ele>701.5</ele><time>2026-03-22T09:36:35.992Z</time></trkpt><trkpt lat="44.356015" lon="11.0069567"><ele>704.0</ele><time>2026-03-22T09:36:36.996Z</time></trkpt><trkpt lat="44.3558967" lon="11.0069617"><ele>704.0</ele><time>2026-03-22T09:36:38.993Z</time></trkpt><trkpt lat="44.35582" lon="11.0069233"><ele>704.0</ele><time>2026-03-22T09:36:40.992Z</time></trkpt><trkpt lat="44.3557158" lon="11.0069519"><ele>704.0</ele><time>2026-03-22T09:36:43.992Z</time></trkpt><trkpt lat="44.3556245" lon="11.0070332"><ele>704.0</ele><time>2026-03-22T09:36:45.992Z</time></trkpt><trkpt lat="44.3555506" lon="11.0070735"><ele>704.0</ele><time>2026-03-22T09:36:46.992Z</time></trkpt><trkpt lat="44.3554768" lon="11.0071055"><ele>705.3333333333333</ele><time>2026-03-22T09:36:47.991Z</time></trkpt><trkpt lat="44.3554018" lon="11.0071325"><ele>706.6666666666666</ele><time>2026-03-22T09:36:48.994Z</time></trkpt><trkpt lat="44.3553254" lon="11.0071603"><ele>708.0</ele><time>2026-03-22T09:36:49.99Z</time></trkpt><trkpt lat="44.3552493" lon="11.0071812"><ele>709.3333333333334</ele><time>2026-03-22T09:36:50.992Z</time></trkpt><trkpt lat="44.3551752" lon="11.0071947"><ele>710.6666666666667</ele><time>2026-03-22T09:36:51.995Z</time></trkpt><trkpt lat="44.3551047" lon="11.0072005"><ele>712.0</ele><time>2026-03-22T09:36:52.989Z</time></trkpt><trkpt lat="44.3550236" lon="11.0072095"><ele>712.0</ele><time>2026-03-22T09:36:53.992Z</time></trkpt><trkpt lat="44.3549354" lon="11.007217"><ele>712.0</ele><time>2026-03-22T09:36:54.991Z</time></trkpt><trkpt lat="44.3548462" lon="11.0072153"><ele>712.0</ele><time>2026-03-22T09:36:55.994Z</time></trkpt><trkpt lat="44.3547705" lon="11.0072114"><ele>712.0</ele><time>2026-03-22T09:36:56.989Z</time></trkpt><trkpt lat="44.3546718" lon="11.0072392"><ele>712.0</ele><time>2026-03-22T09:36:58.99Z</time></trkpt><trkpt lat="44.354634" lon="11.0073272"><ele>712.0</ele><time>2026-03-22T09:37:00.991Z</time></trkpt><trkpt lat="44.35462" lon="11.0074464"><ele>716.3333333333334</ele><time>2026-03-22T09:37:02.993Z</time></trkpt><trkpt lat="44.3545455" lon="11.0075395"><ele>720.6666666666667</ele><time>2026-03-22T09:37:04.994Z</time></trkpt><trkpt lat="44.3544769" lon="11.0075678"><ele>725.0</ele><time>2026-03-22T09:37:05.994Z</time></trkpt><trkpt lat="44.3543935" lon="11.0075784"><ele>729.3333333333334</ele><time>2026-03-22T09:37:06.996Z</time></trkpt><trkpt lat="44.354301" lon="11.0075884"><ele>733.6666666666666</ele><time>2026-03-22T09:37:07.99Z</time></trkpt><trkpt lat="44.3542078" lon="11.0076077"><ele>738.0</ele><time>2026-03-22T09:37:08.992Z</time></trkpt><trkpt lat="44.3541163" lon="11.0076358"><ele>738.0</ele><time>2026-03-22T09:37:09.991Z</time></trkpt><trkpt lat="44.3540253" lon="11.0076696"><ele>738.0</ele><time>2026-03-22T09:37:10.991Z</time></trkpt><trkpt lat="44.3539337" lon="11.0077131"><ele>738.0</ele><time>2026-03-22T09:37:11.99Z</time></trkpt><trkpt lat="44.3538394" lon="11.0077634"><ele>738.0</ele><time>2026-03-22T09:37:12.99Z</time></trkpt><trkpt lat="44.3537469" lon="11.0078164"><ele>738.0</ele><time>2026-03-22T09:37:13.99Z</time></trkpt><trkpt lat="44.3536621" lon="11.0078656"><ele>739.5714285714286</ele><time>2026-03-22T09:37:14.993Z</time></trkpt><trkpt lat="44.3535882" lon="11.0079045"><ele>741.1428571428571</ele><time>2026-03-22T09:37:15.989Z</time></trkpt><trkpt lat="44.3535248" lon="11.0079188"><ele>742.7142857142858</ele><time>2026-03-22T09:37:16.992Z</time></trkpt><trkpt lat="44.3534557" lon="11.0079061"><ele>744.2857142857142</ele><time>2026-03-22T09:37:17.989Z</time></trkpt><trkpt lat="44.3533788" lon="11.0078776"><ele>745.8571428571429</ele><time>2026-03-22T09:37:18.996Z</time></trkpt><trkpt lat="44.3533047" lon="11.0078364"><ele>747.4285714285714</ele><time>2026-03-22T09:37:19.993Z</time></trkpt><trkpt lat="44.3532343" lon="11.0078099"><ele>749.0</ele><time>2026-03-22T09:37:20.99Z</time></trkpt><trkpt lat="44.3531658" lon="11.0078066"><ele>749.0</ele><time>2026-03-22T09:37:21.99Z</time></trkpt><trkpt lat="44.3531015" lon="11.0078118"><ele>749.0</ele><time>2026-03-22T09:37:22.993Z</time></trkpt><trkpt lat="44.3530407" lon="11.0078523"><ele>749.0</ele><time>2026-03-22T09:37:23.99Z</time></trkpt><trkpt lat="44.3529746" lon="11.0079314"><ele>749.0</ele><time>2026-03-22T09:37:24.989Z</time></trkpt><trkpt lat="44.3529018" lon="11.0080385"><ele>749.0</ele><time>2026-03-22T09:37:25.992Z</time></trkpt><trkpt lat="44.3528263" lon="11.008139"><ele>749.0</ele><time>2026-03-22T09:37:26.989Z</time></trkpt><trkpt lat="44.3527518" lon="11.008231"><ele>749.0</ele><time>2026-03-22T09:37:27.993Z</time></trkpt><trkpt lat="44.352674" lon="11.0083178"><ele>749.0</ele><time>2026-03-22T09:37:28.989Z</time></trkpt><trkpt lat="44.3525911" lon="11.0083977"><ele>749.0</ele><time>2026-03-22T09:37:29.993Z</time></trkpt><trkpt lat="44.3525023" lon="11.0084638"><ele>749.0</ele><time>2026-03-22T09:37:30.992Z</time></trkpt><trkpt lat="44.3524042" lon="11.008512"><ele>749.0</ele><time>2026-03-22T09:37:31.995Z</time></trkpt><trkpt lat="44.3522976" lon="11.0085386"><ele>754.0</ele><time>2026-03-22T09:37:32.989Z</time></trkpt><trkpt lat="44.3521861" lon="11.008548"><ele>759.0</ele><time>2026-03-22T09:37:33.99Z</time></trkpt><trkpt lat="44.3520742" lon="11.0085646"><ele>764.0</ele><time>2026-03-22T09:37:34.994Z</time></trkpt><trkpt lat="44.3519634" lon="11.0085958"><ele>769.0</ele><time>2026-03-22T09:37:35.99Z</time></trkpt><trkpt lat="44.3518529" lon="11.0086402"><ele>769.0</ele><time>2026-03-22T09:37:36.991Z</time></trkpt><trkpt lat="44.3517445" lon="11.0086933"><ele>769.0</ele><time>2026-03-22T09:37:37.992Z</time></trkpt><trkpt lat="44.3516406" lon="11.0087549"><ele>769.0</ele><time>2026-03-22T09:37:38.992Z</time></trkpt><trkpt lat="44.3515353" lon="11.0088202"><ele>769.0</ele><time>2026-03-22T09:37:39.991Z</time></trkpt><trkpt lat="44.3514239" lon="11.00888"><ele>770.0</ele><time>2026-03-22T09:37:40.99Z</time></trkpt><trkpt lat="44.3513006" lon="11.0089299"><ele>771.0</ele><time>2026-03-22T09:37:41.989Z</time></trkpt><trkpt lat="44.3511656" lon="11.0089839"><ele>772.0</ele><time>2026-03-22T09:37:42.992Z</time></trkpt><trkpt lat="44.3510314" lon="11.0090472"><ele>773.0</ele><time>2026-03-22T09:37:43.992Z</time></trkpt><trkpt lat="44.3508988" lon="11.0091139"><ele>775.0</ele><time>2026-03-22T09:37:44.991Z</time></trkpt><trkpt lat="44.3507687" lon="11.009182"><ele>777.0</ele><time>2026-03-22T09:37:45.992Z</time></trkpt><trkpt lat="44.3506351" lon="11.0092424"><ele>779.0</ele><time>2026-03-22T09:37:46.989Z</time></trkpt><trkpt lat="44.3504983" lon="11.0092934"><ele>781.0</ele><time>2026-03-22T09:37:47.989Z</time></trkpt><trkpt lat="44.3503636" lon="11.0093299"><ele>781.75</ele><time>2026-03-22T09:37:48.989Z</time></trkpt><trkpt lat="44.3502305" lon="11.0093532"><ele>782.5</ele><time>2026-03-22T09:37:49.989Z</time></trkpt><trkpt lat="44.3500935" lon="11.009359"><ele>783.25</ele><time>2026-03-22T09:37:50.994Z</time></trkpt><trkpt lat="44.3499536" lon="11.0093581"><ele>784.0</ele><time>2026-03-22T09:37:51.988Z</time></trkpt><trkpt lat="44.3498203" lon="11.0093718"><ele>785.5</ele><time>2026-03-22T09:37:52.995Z</time></trkpt><trkpt lat="44.3496935" lon="11.0093989"><ele>787.0</ele><time>2026-03-22T09:37:53.99Z</time></trkpt><trkpt lat="44.3495649" lon="11.0094232"><ele>788.5</ele><time>2026-03-22T09:37:54.99Z</time></trkpt><trkpt lat="44.3494321" lon="11.0094401"><ele>790.0</ele><time>2026-03-22T09:37:55.991Z</time></trkpt><trkpt lat="44.3492984" lon="11.0094654"><ele>790.0</ele><time>2026-03-22T09:37:56.995Z</time></trkpt><trkpt lat="44.3491721" lon="11.0094951"><ele>790.0</ele><time>2026-03-22T09:37:57.986Z</time></trkpt><trkpt lat="44.3490594" lon="11.0095259"><ele>790.0</ele><time>2026-03-22T09:37:58.998Z</time></trkpt><trkpt lat="44.3489525" lon="11.0095643"><ele>790.0</ele><time>2026-03-22T09:37:59.996Z</time></trkpt><trkpt lat="44.3488498" lon="11.0096003"><ele>791.8</ele><time>2026-03-22T09:38:00.996Z</time></trkpt><trkpt lat="44.3487479" lon="11.0096234"><ele>793.6</ele><time>2026-03-22T09:38:01.994Z</time></trkpt><trkpt lat="44.348649" lon="11.0096423"><ele>795.4000000000001</ele><time>2026-03-22T09:38:02.989Z</time></trkpt><trkpt lat="44.3485493" lon="11.0096592"><ele>797.2</ele><time>2026-03-22T09:38:03.989Z</time></trkpt><trkpt lat="44.3484412" lon="11.0096767"><ele>799.0</ele><time>2026-03-22T09:38:04.99Z</time></trkpt><trkpt lat="44.3483257" lon="11.0096924"><ele>799.0</ele><time>2026-03-22T09:38:05.994Z</time></trkpt><trkpt lat="44.3482157" lon="11.0097073"><ele>799.0</ele><time>2026-03-22T09:38:06.993Z</time></trkpt><trkpt lat="44.3481111" lon="11.0097286"><ele>799.0</ele><time>2026-03-22T09:38:07.992Z</time></trkpt><trkpt lat="44.3480186" lon="11.0097632"><ele>799.0</ele><time>2026-03-22T09:38:08.994Z</time></trkpt><trkpt lat="44.3479355" lon="11.009817"><ele>799.0</ele><time>2026-03-22T09:38:09.99Z</time></trkpt><trkpt lat="44.3478633" lon="11.0098983"><ele>799.6</ele><time>2026-03-22T09:38:10.992Z</time></trkpt><trkpt lat="44.3477833" lon="11.009985"><ele>800.2</ele><time>2026-03-22T09:38:11.995Z</time></trkpt><trkpt lat="44.3476983" lon="11.0100717"><ele>800.8000000000001</ele><time>2026-03-22T09:38:12.993Z</time></trkpt><trkpt lat="44.347615" lon="11.0101583"><ele>801.4000000000001</ele><time>2026-03-22T09:38:13.992Z</time></trkpt><trkpt lat="44.3475383" lon="11.0102367"><ele>802.0</ele><time>2026-03-22T09:38:14.993Z</time></trkpt><trkpt lat="44.347475" lon="11.010305"><ele>802.8</ele><time>2026-03-22T09:38:15.992Z</time></trkpt><trkpt lat="44.34742" lon="11.010365"><ele>803.6</ele><time>2026-03-22T09:38:16.99Z</time></trkpt><trkpt lat="44.3473283" lon="11.0104633"><ele>804.4</ele><time>2026-03-22T09:38:18.989Z</time></trkpt><trkpt lat="44.3472483" lon="11.0105433"><ele>805.1999999999999</ele><time>2026-03-22T09:38:20.99Z</time></trkpt><trkpt lat="44.3471767" lon="11.010655"><ele>806.0</ele><time>2026-03-22T09:39:00.993Z</time></trkpt><trkpt lat="44.3472317" lon="11.0107667"><ele>806.4</ele><time>2026-03-22T09:39:03.99Z</time></trkpt><trkpt lat="44.3473" lon="11.01084"><ele>806.8</ele><time>2026-03-22T09:39:04.989Z</time></trkpt><trkpt lat="44.3473667" lon="11.01092"><ele>807.1999999999999</ele><time>2026-03-22T09:39:05.99Z</time></trkpt><trkpt lat="44.3474417" lon="11.0110083"><ele>807.5999999999999</ele><time>2026-03-22T09:39:06.993Z</time></trkpt><trkpt lat="44.347525" lon="11.0110983"><ele>808.0</ele><time>2026-03-22T09:39:07.989Z</time></trkpt><trkpt lat="44.347605" lon="11.0111833"><ele>807.9999999999999</ele><time>2026-03-22T09:39:08.991Z</time></trkpt><trkpt lat="44.3476733" lon="11.0112683"><ele>808.0</ele><time>2026-03-22T09:39:09.989Z</time></trkpt><trkpt lat="44.347735" lon="11.0113533"><ele>808.0</ele><time>2026-03-22T09:39:10.992Z</time></trkpt><trkpt lat="44.3477883" lon="11.0114367"><ele>808.0</ele><time>2026-03-22T09:39:11.988Z</time></trkpt><trkpt lat="44.3478267" lon="11.0115233"><ele>807.9999999999999</ele><time>2026-03-22T09:39:12.993Z</time></trkpt><trkpt lat="44.347855" lon="11.0116083"><ele>808.0</ele><time>2026-03-22T09:39:13.996Z</time></trkpt><trkpt lat="44.34788" lon="11.0117083"><ele>807.8</ele><time>2026-03-22T09:39:14.995Z</time></trkpt><trkpt lat="44.3479017" lon="11.0118183"><ele>807.5999999999999</ele><time>2026-03-22T09:39:15.996Z</time></trkpt><trkpt lat="44.3479333" lon="11.0119367"><ele>807.4000000000001</ele><time>2026-03-22T09:39:16.995Z</time></trkpt><trkpt lat="44.3479767" lon="11.0120483"><ele>807.2</ele><time>2026-03-22T09:39:17.992Z</time></trkpt><trkpt lat="44.348045" lon="11.0121717"><ele>807.0</ele><time>2026-03-22T09:39:18.994Z</time></trkpt><trkpt lat="44.3481183" lon="11.01229"><ele>806.5</ele><time>2026-03-22T09:39:19.994Z</time></trkpt><trkpt lat="44.3482017" lon="11.0124033"><ele>806.0</ele><time>2026-03-22T09:39:20.992Z</time></trkpt><trkpt lat="44.3482833" lon="11.0125183"><ele>805.5</ele><time>2026-03-22T09:39:21.989Z</time></trkpt><trkpt lat="44.3483617" lon="11.0126367"><ele>805.0</ele><time>2026-03-22T09:39:22.998Z</time></trkpt><trkpt lat="44.348435" lon="11.0127517"><ele>804.8</ele><time>2026-03-22T09:39:23.991Z</time></trkpt><trkpt lat="44.3485067" lon="11.0128633"><ele>804.6</ele><time>2026-03-22T09:39:24.995Z</time></trkpt><trkpt lat="44.3485783" lon="11.0129767"><ele>804.4000000000001</ele><time>2026-03-22T09:39:25.99Z</time></trkpt><trkpt lat="44.3486417" lon="11.0130883"><ele>804.2</ele><time>2026-03-22T09:39:27.001Z</time></trkpt><trkpt lat="44.3487083" lon="11.0131833"><ele>804.0</ele><time>2026-03-22T09:39:27.989Z</time></trkpt><trkpt lat="44.3487533" lon="11.0132917"><ele>804.5</ele><time>2026-03-22T09:39:28.992Z</time></trkpt><trkpt lat="44.3487783" lon="11.0134183"><ele>805.0</ele><time>2026-03-22T09:39:29.99Z</time></trkpt><trkpt lat="44.3488017" lon="11.01357"><ele>805.5</ele><time>2026-03-22T09:39:30.994Z</time></trkpt><trkpt lat="44.34883" lon="11.013745"><ele>806.0</ele><time>2026-03-22T09:39:31.994Z</time></trkpt><trkpt lat="44.3488683" lon="11.0139283"><ele>802.0</ele><time>2026-03-22T09:39:32.991Z</time></trkpt><trkpt lat="44.3489117" lon="11.0141183"><ele>798.0</ele><time>2026-03-22T09:39:33.995Z</time></trkpt><trkpt lat="44.3489567" lon="11.0143083"><ele>794.0</ele><time>2026-03-22T09:39:34.991Z</time></trkpt><trkpt lat="44.3489967" lon="11.0144883"><ele>790.0</ele><time>2026-03-22T09:39:35.994Z</time></trkpt><trkpt lat="44.3490367" lon="11.0146583"><ele>789.6</ele><time>2026-03-22T09:39:36.992Z</time></trkpt><trkpt lat="44.3490817" lon="11.014815"><ele>789.2</ele><time>2026-03-22T09:39:38Z</time></trkpt><trkpt lat="44.3491317" lon="11.0149567"><ele>788.8</ele><time>2026-03-22T09:39:38.992Z</time></trkpt><trkpt lat="44.3491788" lon="11.0150867"><ele>788.4</ele><time>2026-03-22T09:39:39.994Z</time></trkpt><trkpt lat="44.3492145" lon="11.0152043"><ele>788.0</ele><time>2026-03-22T09:39:40.996Z</time></trkpt><trkpt lat="44.3492429" lon="11.0153223"><ele>788.0</ele><time>2026-03-22T09:39:41.991Z</time></trkpt><trkpt lat="44.3492541" lon="11.015461"><ele>788.0</ele><time>2026-03-22T09:39:42.994Z</time></trkpt><trkpt lat="44.3492504" lon="11.0156099"><ele>788.0</ele><time>2026-03-22T09:39:43.993Z</time></trkpt><trkpt lat="44.3492398" lon="11.0157613"><ele>788.0</ele><time>2026-03-22T09:39:44.989Z</time></trkpt><trkpt lat="44.3492336" lon="11.015908"><ele>788.0</ele><time>2026-03-22T09:39:45.995Z</time></trkpt><trkpt lat="44.349237" lon="11.0160513"><ele>787.0</ele><time>2026-03-22T09:39:46.992Z</time></trkpt><trkpt lat="44.3492388" lon="11.0161907"><ele>786.0</ele><time>2026-03-22T09:39:47.994Z</time></trkpt><trkpt lat="44.3492304" lon="11.0163247"><ele>785.0</ele><time>2026-03-22T09:39:48.991Z</time></trkpt><trkpt lat="44.3492107" lon="11.0164583"><ele>784.0</ele><time>2026-03-22T09:39:49.993Z</time></trkpt><trkpt lat="44.3491892" lon="11.0165857"><ele>783.0</ele><time>2026-03-22T09:39:50.997Z</time></trkpt><trkpt lat="44.3491826" lon="11.0167106"><ele>781.5999999999999</ele><time>2026-03-22T09:39:51.996Z</time></trkpt><trkpt lat="44.3491949" lon="11.0168325"><ele>780.1999999999999</ele><time>2026-03-22T09:39:52.992Z</time></trkpt><trkpt lat="44.3492292" lon="11.0169585"><ele>778.8</ele><time>2026-03-22T09:39:53.991Z</time></trkpt><trkpt lat="44.3492845" lon="11.017087"><ele>777.4</ele><time>2026-03-22T09:39:54.995Z</time></trkpt><trkpt lat="44.3493417" lon="11.0172149"><ele>776.0</ele><time>2026-03-22T09:39:55.992Z</time></trkpt><trkpt lat="44.3494018" lon="11.0173403"><ele>776.0</ele><time>2026-03-22T09:39:56.986Z</time></trkpt><trkpt lat="44.3494681" lon="11.0174635"><ele>776.0</ele><time>2026-03-22T09:39:58.018Z</time></trkpt><trkpt lat="44.3495311" lon="11.0175784"><ele>776.0</ele><time>2026-03-22T09:39:58.991Z</time></trkpt><trkpt lat="44.3495836" lon="11.0176929"><ele>776.0</ele><time>2026-03-22T09:39:59.99Z</time></trkpt><trkpt lat="44.3496289" lon="11.017803"><ele>776.0</ele><time>2026-03-22T09:40:00.994Z</time></trkpt><trkpt lat="44.3496796" lon="11.0179052"><ele>770.75</ele><time>2026-03-22T09:40:01.994Z</time></trkpt><trkpt lat="44.349749" lon="11.0179918"><ele>765.5</ele><time>2026-03-22T09:40:02.994Z</time></trkpt><trkpt lat="44.3498458" lon="11.0180595"><ele>760.25</ele><time>2026-03-22T09:40:03.993Z</time></trkpt><trkpt lat="44.3499661" lon="11.0181347"><ele>755.0</ele><time>2026-03-22T09:40:04.988Z</time></trkpt><trkpt lat="44.3501006" lon="11.0182253"><ele>755.5</ele><time>2026-03-22T09:40:05.993Z</time></trkpt><trkpt lat="44.3502264" lon="11.0183243"><ele>756.0</ele><time>2026-03-22T09:40:06.994Z</time></trkpt><trkpt lat="44.350343" lon="11.0184167"><ele>756.5</ele><time>2026-03-22T09:40:07.994Z</time></trkpt><trkpt lat="44.3504549" lon="11.0184898"><ele>757.0</ele><time>2026-03-22T09:40:08.996Z</time></trkpt><trkpt lat="44.3505596" lon="11.0185469"><ele>753.75</ele><time>2026-03-22T09:40:09.996Z</time></trkpt><trkpt lat="44.3506595" lon="11.0185979"><ele>750.5</ele><time>2026-03-22T09:40:10.993Z</time></trkpt><trkpt lat="44.3507579" lon="11.0186582"><ele>747.25</ele><time>2026-03-22T09:40:11.996Z</time></trkpt><trkpt lat="44.3508583" lon="11.018735"><ele>744.0</ele><time>2026-03-22T09:40:12.99Z</time></trkpt><trkpt lat="44.3509733" lon="11.0188067"><ele>744.0</ele><time>2026-03-22T09:40:13.992Z</time></trkpt><trkpt lat="44.3510767" lon="11.0188917"><ele>744.0</ele><time>2026-03-22T09:40:14.992Z</time></trkpt><trkpt lat="44.3511717" lon="11.0189867"><ele>744.0</ele><time>2026-03-22T09:40:15.987Z</time></trkpt><trkpt lat="44.3512567" lon="11.019105"><ele>744.0</ele><time>2026-03-22T09:40:16.997Z</time></trkpt><trkpt lat="44.3513467" lon="11.0192267"><ele>742.0</ele><time>2026-03-22T09:40:17.996Z</time></trkpt><trkpt lat="44.3514167" lon="11.0193583"><ele>740.0</ele><time>2026-03-22T09:40:18.996Z</time></trkpt><trkpt lat="44.35148" lon="11.0194967"><ele>738.0</ele><time>2026-03-22T09:40:19.994Z</time></trkpt><trkpt lat="44.3515483" lon="11.019645"><ele>736.0</ele><time>2026-03-22T09:40:20.992Z</time></trkpt><trkpt lat="44.3516117" lon="11.0197783"><ele>736.0</ele><time>2026-03-22T09:40:22.009Z</time></trkpt><trkpt lat="44.3516733" lon="11.01991"><ele>736.0</ele><time>2026-03-22T09:40:22.993Z</time></trkpt><trkpt lat="44.3517167" lon="11.0200417"><ele>736.0</ele><time>2026-03-22T09:40:23.995Z</time></trkpt><trkpt lat="44.35176" lon="11.0201717"><ele>736.0</ele><time>2026-03-22T09:40:24.994Z</time></trkpt><trkpt lat="44.3517967" lon="11.0202967"><ele>736.0</ele><time>2026-03-22T09:40:25.995Z</time></trkpt><trkpt lat="44.35183" lon="11.02041"><ele>735.5714285714286</ele><time>2026-03-22T09:40:27Z</time></trkpt><trkpt lat="44.35185" lon="11.0205117"><ele>735.1428571428571</ele><time>2026-03-22T09:40:27.995Z</time></trkpt><trkpt lat="44.3518683" lon="11.0206067"><ele>734.7142857142857</ele><time>2026-03-22T09:40:28.99Z</time></trkpt><trkpt lat="44.3518917" lon="11.0206967"><ele>734.2857142857142</ele><time>2026-03-22T09:40:29.997Z</time></trkpt><trkpt lat="44.3519317" lon="11.0207783"><ele>733.8571428571429</ele><time>2026-03-22T09:40:30.995Z</time></trkpt><trkpt lat="44.3519867" lon="11.0208483"><ele>733.4285714285713</ele><time>2026-03-22T09:40:31.995Z</time></trkpt><trkpt lat="44.3520467" lon="11.0209167"><ele>733.0</ele><time>2026-03-22T09:40:32.995Z</time></trkpt><trkpt lat="44.352115" lon="11.0209983"><ele>730.5</ele><time>2026-03-22T09:40:33.989Z</time></trkpt><trkpt lat="44.35219" lon="11.0211067"><ele>728.0</ele><time>2026-03-22T09:40:34.993Z</time></trkpt><trkpt lat="44.3522683" lon="11.021245"><ele>725.5</ele><time>2026-03-22T09:40:35.991Z</time></trkpt><trkpt lat="44.3523383" lon="11.021385"><ele>723.0</ele><time>2026-03-22T09:40:36.995Z</time></trkpt><trkpt lat="44.3524117" lon="11.0215267"><ele>721.8</ele><time>2026-03-22T09:40:37.995Z</time></trkpt><trkpt lat="44.35249" lon="11.02166"><ele>720.5999999999999</ele><time>2026-03-22T09:40:38.994Z</time></trkpt><trkpt lat="44.3525617" lon="11.0217817"><ele>719.4000000000001</ele><time>2026-03-22T09:40:39.996Z</time></trkpt><trkpt lat="44.35264" lon="11.0218817"><ele>718.2</ele><time>2026-03-22T09:40:40.997Z</time></trkpt><trkpt lat="44.352725" lon="11.0219633"><ele>717.0</ele><time>2026-03-22T09:40:41.993Z</time></trkpt><trkpt lat="44.3528217" lon="11.02204"><ele>717.0</ele><time>2026-03-22T09:40:43.003Z</time></trkpt><trkpt lat="44.352915" lon="11.02212"><ele>717.0</ele><time>2026-03-22T09:40:43.988Z</time></trkpt><trkpt lat="44.353005" lon="11.0222133"><ele>717.0</ele><time>2026-03-22T09:40:44.989Z</time></trkpt><trkpt lat="44.3531067" lon="11.0223033"><ele>717.0</ele><time>2026-03-22T09:40:45.987Z</time></trkpt><trkpt lat="44.3532183" lon="11.0223867"><ele>716.75</ele><time>2026-03-22T09:40:46.995Z</time></trkpt><trkpt lat="44.35333" lon="11.0224583"><ele>716.5</ele><time>2026-03-22T09:40:47.99Z</time></trkpt><trkpt lat="44.3534417" lon="11.022505"><ele>716.25</ele><time>2026-03-22T09:40:48.998Z</time></trkpt><trkpt lat="44.3535567" lon="11.022525"><ele>716.0</ele><time>2026-03-22T09:40:49.988Z</time></trkpt><trkpt lat="44.3536667" lon="11.022525"><ele>716.0</ele><time>2026-03-22T09:40:50.994Z</time></trkpt><trkpt lat="44.353765" lon="11.0225217"><ele>716.0</ele><time>2026-03-22T09:40:51.997Z</time></trkpt><trkpt lat="44.3538517" lon="11.0225433"><ele>716.0</ele><time>2026-03-22T09:40:52.994Z</time></trkpt><trkpt lat="44.3539283" lon="11.0225783"><ele>716.0</ele><time>2026-03-22T09:40:53.994Z</time></trkpt><trkpt lat="44.3539967" lon="11.02264"><ele>716.0</ele><time>2026-03-22T09:40:54.995Z</time></trkpt><trkpt lat="44.3540533" lon="11.0227333"><ele>716.0</ele><time>2026-03-22T09:40:55.994Z</time></trkpt><trkpt lat="44.3541083" lon="11.0228433"><ele>712.8</ele><time>2026-03-22T09:40:57.002Z</time></trkpt><trkpt lat="44.3541633" lon="11.0229533"><ele>709.5999999999999</ele><time>2026-03-22T09:40:57.99Z</time></trkpt><trkpt lat="44.3541983" lon="11.0230933"><ele>706.4</ele><time>2026-03-22T09:40:58.993Z</time></trkpt><trkpt lat="44.3542333" lon="11.023225"><ele>703.2</ele><time>2026-03-22T09:40:59.993Z</time></trkpt><trkpt lat="44.3542717" lon="11.023345"><ele>700.0</ele><time>2026-03-22T09:41:00.992Z</time></trkpt><trkpt lat="44.3543183" lon="11.023455"><ele>700.0</ele><time>2026-03-22T09:41:01.992Z</time></trkpt><trkpt lat="44.3543717" lon="11.0235617"><ele>700.0</ele><time>2026-03-22T09:41:02.994Z</time></trkpt><trkpt lat="44.354435" lon="11.0236483"><ele>700.0</ele><time>2026-03-22T09:41:03.992Z</time></trkpt><trkpt lat="44.35451" lon="11.0237133"><ele>700.0</ele><time>2026-03-22T09:41:04.988Z</time></trkpt><trkpt lat="44.3545983" lon="11.0237367"><ele>700.0</ele><time>2026-03-22T09:41:05.992Z</time></trkpt><trkpt lat="44.354685" lon="11.0237567"><ele>700.0</ele><time>2026-03-22T09:41:06.989Z</time></trkpt><trkpt lat="44.3547833" lon="11.02375"><ele>696.4</ele><time>2026-03-22T09:41:07.989Z</time></trkpt><trkpt lat="44.3548817" lon="11.02373"><ele>692.8</ele><time>2026-03-22T09:41:08.992Z</time></trkpt><trkpt lat="44.3549733" lon="11.023725"><ele>689.2</ele><time>2026-03-22T09:41:09.994Z</time></trkpt><trkpt lat="44.35506" lon="11.02374"><ele>685.6</ele><time>2026-03-22T09:41:10.992Z</time></trkpt><trkpt lat="44.3551483" lon="11.0237567"><ele>682.0</ele><time>2026-03-22T09:41:11.99Z</time></trkpt><trkpt lat="44.3552433" lon="11.0237483"><ele>682.0</ele><time>2026-03-22T09:41:12.988Z</time></trkpt><trkpt lat="44.3553417" lon="11.0237267"><ele>682.0</ele><time>2026-03-22T09:41:13.993Z</time></trkpt><trkpt lat="44.35544" lon="11.0237133"><ele>682.0</ele><time>2026-03-22T09:41:14.995Z</time></trkpt><trkpt lat="44.3555333" lon="11.02372"><ele>682.0</ele><time>2026-03-22T09:41:15.995Z</time></trkpt><trkpt lat="44.35563" lon="11.023775"><ele>682.0</ele><time>2026-03-22T09:41:16.992Z</time></trkpt><trkpt lat="44.3557233" lon="11.0238417"><ele>679.0</ele><time>2026-03-22T09:41:17.996Z</time></trkpt><trkpt lat="44.3558083" lon="11.0239183"><ele>676.0</ele><time>2026-03-22T09:41:18.991Z</time></trkpt><trkpt lat="44.3558883" lon="11.0239883"><ele>673.0</ele><time>2026-03-22T09:41:19.992Z</time></trkpt><trkpt lat="44.35598" lon="11.0240433"><ele>670.0</ele><time>2026-03-22T09:41:20.994Z</time></trkpt><trkpt lat="44.3560717" lon="11.02409"><ele>667.0</ele><time>2026-03-22T09:41:21.991Z</time></trkpt><trkpt lat="44.3561633" lon="11.024135"><ele>667.1666666666667</ele><time>2026-03-22T09:41:22.993Z</time></trkpt><trkpt lat="44.3562517" lon="11.02418"><ele>667.3333333333334</ele><time>2026-03-22T09:41:23.99Z</time></trkpt><trkpt lat="44.3563333" lon="11.0242283"><ele>667.5</ele><time>2026-03-22T09:41:24.99Z</time></trkpt><trkpt lat="44.3564083" lon="11.0242683"><ele>667.6666666666666</ele><time>2026-03-22T09:41:25.996Z</time></trkpt><trkpt lat="44.3564833" lon="11.024295"><ele>667.8333333333333</ele><time>2026-03-22T09:41:26.993Z</time></trkpt><trkpt lat="44.356555" lon="11.0242917"><ele>668.0</ele><time>2026-03-22T09:41:27.996Z</time></trkpt><trkpt lat="44.3566217" lon="11.0242683"><ele>667.5</ele><time>2026-03-22T09:41:28.989Z</time></trkpt><trkpt lat="44.356715" lon="11.024195"><ele>667.0</ele><time>2026-03-22T09:41:30.997Z</time></trkpt><trkpt lat="44.3567833" lon="11.0240867"><ele>666.5</ele><time>2026-03-22T09:41:32.996Z</time></trkpt><trkpt lat="44.3568233" lon="11.0240167"><ele>666.0</ele><time>2026-03-22T09:41:33.997Z</time></trkpt><trkpt lat="44.3568767" lon="11.023945"><ele>665.5</ele><time>2026-03-22T09:41:34.996Z</time></trkpt><trkpt lat="44.3569367" lon="11.02387"><ele>665.0</ele><time>2026-03-22T09:41:35.991Z</time></trkpt><trkpt lat="44.3570017" lon="11.0237933"><ele>663.6666666666666</ele><time>2026-03-22T09:41:36.993Z</time></trkpt><trkpt lat="44.3570617" lon="11.023705"><ele>662.3333333333333</ele><time>2026-03-22T09:41:37.989Z</time></trkpt><trkpt lat="44.3571217" lon="11.02362"><ele>661.0</ele><time>2026-03-22T09:41:38.991Z</time></trkpt><trkpt lat="44.3571767" lon="11.0235317"><ele>659.6666666666666</ele><time>2026-03-22T09:41:39.997Z</time></trkpt><trkpt lat="44.357225" lon="11.0234467"><ele>658.3333333333334</ele><time>2026-03-22T09:41:40.991Z</time></trkpt><trkpt lat="44.3572733" lon="11.0233733"><ele>657.0</ele><time>2026-03-22T09:41:41.992Z</time></trkpt><trkpt lat="44.35737" lon="11.02327"><ele>656.5</ele><time>2026-03-22T09:41:43.991Z</time></trkpt><trkpt lat="44.3574333" lon="11.0233317"><ele>656.0</ele><time>2026-03-22T09:41:45.99Z</time></trkpt><trkpt lat="44.3574033" lon="11.023485"><ele>655.5</ele><time>2026-03-22T09:41:47.992Z</time></trkpt><trkpt lat="44.3573583" lon="11.023565"><ele>655.0</ele><time>2026-03-22T09:41:48.994Z</time></trkpt><trkpt lat="44.3573083" lon="11.0236533"><ele>654.5</ele><time>2026-03-22T09:41:49.993Z</time></trkpt><trkpt lat="44.3572633" lon="11.0237367"><ele>654.0</ele><time>2026-03-22T09:41:50.99Z</time></trkpt><trkpt lat="44.3572267" lon="11.023815"><ele>654.5</ele><time>2026-03-22T09:41:51.997Z</time></trkpt><trkpt lat="44.3571883" lon="11.0239017"><ele>655.0</ele><time>2026-03-22T09:41:52.992Z</time></trkpt><trkpt lat="44.3571567" lon="11.0239967"><ele>655.5</ele><time>2026-03-22T09:41:53.991Z</time></trkpt><trkpt lat="44.3571333" lon="11.0241117"><ele>656.0</ele><time>2026-03-22T09:41:54.994Z</time></trkpt><trkpt lat="44.3571183" lon="11.0242267"><ele>656.5</ele><time>2026-03-22T09:41:55.99Z</time></trkpt><trkpt lat="44.3571167" lon="11.02435"><ele>657.0</ele><time>2026-03-22T09:41:56.99Z</time></trkpt><trkpt lat="44.357125" lon="11.02448"><ele>658.6</ele><time>2026-03-22T09:41:57.993Z</time></trkpt><trkpt lat="44.35715" lon="11.0246117"><ele>660.2</ele><time>2026-03-22T09:41:58.989Z</time></trkpt><trkpt lat="44.3571783" lon="11.0247417"><ele>661.8</ele><time>2026-03-22T09:41:59.99Z</time></trkpt><trkpt lat="44.3572" lon="11.02487"><ele>663.4</ele><time>2026-03-22T09:42:00.997Z</time></trkpt><trkpt lat="44.357215" lon="11.0249967"><ele>665.0</ele><time>2026-03-22T09:42:01.99Z</time></trkpt><trkpt lat="44.357235" lon="11.025115"><ele>661.4</ele><time>2026-03-22T09:42:02.996Z</time></trkpt><trkpt lat="44.3572583" lon="11.0252283"><ele>657.8</ele><time>2026-03-22T09:42:03.994Z</time></trkpt><trkpt lat="44.3572817" lon="11.0253433"><ele>654.2</ele><time>2026-03-22T09:42:04.993Z</time></trkpt><trkpt lat="44.3573183" lon="11.02547"><ele>650.6</ele><time>2026-03-22T09:42:05.993Z</time></trkpt><trkpt lat="44.3573533" lon="11.0255983"><ele>647.0</ele><time>2026-03-22T09:42:06.992Z</time></trkpt><trkpt lat="44.3573967" lon="11.0257233"><ele>645.5</ele><time>2026-03-22T09:42:07.994Z</time></trkpt><trkpt lat="44.3574383" lon="11.02584"><ele>644.0</ele><time>2026-03-22T09:42:08.996Z</time></trkpt><trkpt lat="44.3574783" lon="11.0259467"><ele>642.5</ele><time>2026-03-22T09:42:09.997Z</time></trkpt><trkpt lat="44.357515" lon="11.026035"><ele>641.0</ele><time>2026-03-22T09:42:10.995Z</time></trkpt><trkpt lat="44.3575383" lon="11.0261183"><ele>639.5</ele><time>2026-03-22T09:42:11.992Z</time></trkpt><trkpt lat="44.357535" lon="11.0262633"><ele>638.0</ele><time>2026-03-22T09:42:13.994Z</time></trkpt><trkpt lat="44.3574483" lon="11.0263533"><ele>638.0</ele><time>2026-03-22T09:42:15.995Z</time></trkpt><trkpt lat="44.35738" lon="11.0263533"><ele>638.0</ele><time>2026-03-22T09:42:16.993Z</time></trkpt><trkpt lat="44.35729" lon="11.0263267"><ele>638.0</ele><time>2026-03-22T09:42:17.992Z</time></trkpt><trkpt lat="44.3572" lon="11.026305"><ele>638.0</ele><time>2026-03-22T09:42:18.993Z</time></trkpt><trkpt lat="44.3571083" lon="11.0263067"><ele>638.0</ele><time>2026-03-22T09:42:19.992Z</time></trkpt><trkpt lat="44.3570167" lon="11.0263383"><ele>638.0</ele><time>2026-03-22T09:42:20.997Z</time></trkpt><trkpt lat="44.356925" lon="11.0263983"><ele>638.75</ele><time>2026-03-22T09:42:21.993Z</time></trkpt><trkpt lat="44.3568367" lon="11.0265117"><ele>639.5</ele><time>2026-03-22T09:42:22.994Z</time></trkpt><trkpt lat="44.3567617" lon="11.0266467"><ele>640.25</ele><time>2026-03-22T09:42:23.99Z</time></trkpt><trkpt lat="44.3566967" lon="11.0268017"><ele>641.0</ele><time>2026-03-22T09:42:24.99Z</time></trkpt><trkpt lat="44.3566333" lon="11.02695"><ele>638.5</ele><time>2026-03-22T09:42:25.997Z</time></trkpt><trkpt lat="44.356565" lon="11.0270883"><ele>636.0</ele><time>2026-03-22T09:42:26.993Z</time></trkpt><trkpt lat="44.3564883" lon="11.0272167"><ele>633.5</ele><time>2026-03-22T09:42:27.994Z</time></trkpt><trkpt lat="44.3564133" lon="11.02734"><ele>631.0</ele><time>2026-03-22T09:42:28.992Z</time></trkpt><trkpt lat="44.3563467" lon="11.0274567"><ele>628.8</ele><time>2026-03-22T09:42:29.992Z</time></trkpt><trkpt lat="44.3562867" lon="11.0275583"><ele>626.6</ele><time>2026-03-22T09:42:30.997Z</time></trkpt><trkpt lat="44.3562233" lon="11.0276417"><ele>624.4</ele><time>2026-03-22T09:42:31.994Z</time></trkpt><trkpt lat="44.3561483" lon="11.027715"><ele>622.2</ele><time>2026-03-22T09:42:32.992Z</time></trkpt><trkpt lat="44.3560533" lon="11.0277483"><ele>620.0</ele><time>2026-03-22T09:42:33.991Z</time></trkpt><trkpt lat="44.355945" lon="11.02776"><ele>620.0</ele><time>2026-03-22T09:42:34.993Z</time></trkpt><trkpt lat="44.3558367" lon="11.0277583"><ele>620.0</ele><time>2026-03-22T09:42:35.989Z</time></trkpt><trkpt lat="44.3557283" lon="11.027775"><ele>620.0</ele><time>2026-03-22T09:42:36.995Z</time></trkpt><trkpt lat="44.355635" lon="11.0278183"><ele>620.0</ele><time>2026-03-22T09:42:37.99Z</time></trkpt><trkpt lat="44.3555533" lon="11.027895"><ele>620.0</ele><time>2026-03-22T09:42:38.993Z</time></trkpt><trkpt lat="44.3554867" lon="11.028"><ele>621.2</ele><time>2026-03-22T09:42:39.995Z</time></trkpt><trkpt lat="44.355435" lon="11.02812"><ele>622.4</ele><time>2026-03-22T09:42:40.991Z</time></trkpt><trkpt lat="44.3553867" lon="11.0282467"><ele>623.6</ele><time>2026-03-22T09:42:41.994Z</time></trkpt><trkpt lat="44.3553417" lon="11.0283817"><ele>624.8</ele><time>2026-03-22T09:42:42.995Z</time></trkpt><trkpt lat="44.3553017" lon="11.028505"><ele>626.0</ele><time>2026-03-22T09:42:43.997Z</time></trkpt><trkpt lat="44.3552667" lon="11.02861"><ele>623.8333333333333</ele><time>2026-03-22T09:42:44.996Z</time></trkpt><trkpt lat="44.35523" lon="11.0286933"><ele>621.6666666666666</ele><time>2026-03-22T09:42:45.992Z</time></trkpt><trkpt lat="44.35518" lon="11.0287583"><ele>619.5</ele><time>2026-03-22T09:42:46.99Z</time></trkpt><trkpt lat="44.35511" lon="11.0288183"><ele>617.3333333333334</ele><time>2026-03-22T09:42:47.99Z</time></trkpt><trkpt lat="44.3550233" lon="11.0288583"><ele>615.1666666666667</ele><time>2026-03-22T09:42:48.991Z</time></trkpt><trkpt lat="44.3549233" lon="11.0288817"><ele>613.0</ele><time>2026-03-22T09:42:49.99Z</time></trkpt><trkpt lat="44.354815" lon="11.028895"><ele>614.5</ele><time>2026-03-22T09:42:50.989Z</time></trkpt><trkpt lat="44.3547" lon="11.0289117"><ele>616.0</ele><time>2026-03-22T09:42:51.989Z</time></trkpt><trkpt lat="44.3545817" lon="11.0289367"><ele>617.5</ele><time>2026-03-22T09:42:52.991Z</time></trkpt><trkpt lat="44.3544583" lon="11.0289783"><ele>619.0</ele><time>2026-03-22T09:42:53.993Z</time></trkpt><trkpt lat="44.35434" lon="11.0290233"><ele>619.0</ele><time>2026-03-22T09:42:54.988Z</time></trkpt><trkpt lat="44.354225" lon="11.0290883"><ele>619.0</ele><time>2026-03-22T09:42:55.99Z</time></trkpt><trkpt lat="44.35411" lon="11.02916"><ele>619.0</ele><time>2026-03-22T09:42:56.99Z</time></trkpt><trkpt lat="44.353995" lon="11.0292283"><ele>619.0</ele><time>2026-03-22T09:42:57.99Z</time></trkpt><trkpt lat="44.3538717" lon="11.0293"><ele>615.75</ele><time>2026-03-22T09:42:58.992Z</time></trkpt><trkpt lat="44.3537467" lon="11.02937"><ele>612.5</ele><time>2026-03-22T09:42:59.993Z</time></trkpt><trkpt lat="44.3536217" lon="11.0294433"><ele>609.25</ele><time>2026-03-22T09:43:00.997Z</time></trkpt><trkpt lat="44.353495" lon="11.029515"><ele>606.0</ele><time>2026-03-22T09:43:01.996Z</time></trkpt><trkpt lat="44.3533717" lon="11.02958"><ele>606.0</ele><time>2026-03-22T09:43:02.992Z</time></trkpt><trkpt lat="44.3532617" lon="11.029635"><ele>606.0</ele><time>2026-03-22T09:43:03.993Z</time></trkpt><trkpt lat="44.3531617" lon="11.0296867"><ele>606.0</ele><time>2026-03-22T09:43:04.995Z</time></trkpt><trkpt lat="44.35306" lon="11.02973"><ele>606.0</ele><time>2026-03-22T09:43:05.992Z</time></trkpt><trkpt lat="44.3529483" lon="11.0297617"><ele>606.0</ele><time>2026-03-22T09:43:06.996Z</time></trkpt><trkpt lat="44.3528267" lon="11.029785"><ele>605.75</ele><time>2026-03-22T09:43:07.996Z</time></trkpt><trkpt lat="44.3526983" lon="11.0298"><ele>605.5</ele><time>2026-03-22T09:43:08.995Z</time></trkpt><trkpt lat="44.352565" lon="11.02981"><ele>605.25</ele><time>2026-03-22T09:43:09.992Z</time></trkpt><trkpt lat="44.3524333" lon="11.0298283"><ele>605.0</ele><time>2026-03-22T09:43:10.991Z</time></trkpt><trkpt lat="44.3523083" lon="11.0298567"><ele>604.75</ele><time>2026-03-22T09:43:11.99Z</time></trkpt><trkpt lat="44.35219" lon="11.02988"><ele>604.5</ele><time>2026-03-22T09:43:12.987Z</time></trkpt><trkpt lat="44.352075" lon="11.0298983"><ele>604.25</ele><time>2026-03-22T09:43:13.99Z</time></trkpt><trkpt lat="44.3519583" lon="11.0299033"><ele>604.0</ele><time>2026-03-22T09:43:14.992Z</time></trkpt><trkpt lat="44.351835" lon="11.0298917"><ele>604.0</ele><time>2026-03-22T09:43:15.988Z</time></trkpt><trkpt lat="44.35171" lon="11.0298617"><ele>604.0</ele><time>2026-03-22T09:43:16.993Z</time></trkpt><trkpt lat="44.351585" lon="11.0298167"><ele>604.0</ele><time>2026-03-22T09:43:17.991Z</time></trkpt><trkpt lat="44.3514667" lon="11.0297683"><ele>604.0</ele><time>2026-03-22T09:43:18.995Z</time></trkpt><trkpt lat="44.3513567" lon="11.029705"><ele>604.0</ele><time>2026-03-22T09:43:19.992Z</time></trkpt><trkpt lat="44.35126" lon="11.02963"><ele>604.0</ele><time>2026-03-22T09:43:20.991Z</time></trkpt><trkpt lat="44.351175" lon="11.029545"><ele>604.0</ele><time>2026-03-22T09:43:21.989Z</time></trkpt><trkpt lat="44.3511033" lon="11.0294733"><ele>604.0</ele><time>2026-03-22T09:43:22.986Z</time></trkpt><trkpt lat="44.351035" lon="11.0294183"><ele>604.0</ele><time>2026-03-22T09:43:23.992Z</time></trkpt><trkpt lat="44.3509683" lon="11.0294117"><ele>604.0</ele><time>2026-03-22T09:43:24.99Z</time></trkpt><trkpt lat="44.3509033" lon="11.02945"><ele>604.0</ele><time>2026-03-22T09:43:25.991Z</time></trkpt><trkpt lat="44.3508583" lon="11.0295283"><ele>604.0</ele><time>2026-03-22T09:43:26.998Z</time></trkpt><trkpt lat="44.3507867" lon="11.0296817"><ele>604.0</ele><time>2026-03-22T09:43:28.991Z</time></trkpt><trkpt lat="44.3507817" lon="11.0297967"><ele>604.0</ele><time>2026-03-22T09:43:29.992Z</time></trkpt><trkpt lat="44.3507833" lon="11.0299383"><ele>604.0</ele><time>2026-03-22T09:43:30.99Z</time></trkpt><trkpt lat="44.3507867" lon="11.0300967"><ele>602.5</ele><time>2026-03-22T09:43:31.989Z</time></trkpt><trkpt lat="44.350795" lon="11.0302717"><ele>601.0</ele><time>2026-03-22T09:43:32.996Z</time></trkpt><trkpt lat="44.350795" lon="11.03044"><ele>599.5</ele><time>2026-03-22T09:43:33.988Z</time></trkpt><trkpt lat="44.350795" lon="11.0305983"><ele>598.0</ele><time>2026-03-22T09:43:34.991Z</time></trkpt><trkpt lat="44.350785" lon="11.0307483"><ele>596.4</ele><time>2026-03-22T09:43:35.994Z</time></trkpt><trkpt lat="44.3507583" lon="11.0308917"><ele>594.8</ele><time>2026-03-22T09:43:36.993Z</time></trkpt><trkpt lat="44.3507133" lon="11.0310217"><ele>593.2</ele><time>2026-03-22T09:43:37.992Z</time></trkpt><trkpt lat="44.350645" lon="11.0311317"><ele>591.6</ele><time>2026-03-22T09:43:38.993Z</time></trkpt><trkpt lat="44.3505583" lon="11.0312283"><ele>590.0</ele><time>2026-03-22T09:43:39.992Z</time></trkpt><trkpt lat="44.3504617" lon="11.0313033"><ele>591.6</ele><time>2026-03-22T09:43:40.994Z</time></trkpt><trkpt lat="44.3503717" lon="11.0313767"><ele>593.2</ele><time>2026-03-22T09:43:41.992Z</time></trkpt><trkpt lat="44.350295" lon="11.0314567"><ele>594.8</ele><time>2026-03-22T09:43:42.992Z</time></trkpt><trkpt lat="44.3502283" lon="11.0315567"><ele>596.4</ele><time>2026-03-22T09:43:43.992Z</time></trkpt><trkpt lat="44.350175" lon="11.0316867"><ele>598.0</ele><time>2026-03-22T09:43:44.993Z</time></trkpt><trkpt lat="44.3501417" lon="11.0318367"><ele>598.0</ele><time>2026-03-22T09:43:45.991Z</time></trkpt><trkpt lat="44.3501167" lon="11.032005"><ele>598.0</ele><time>2026-03-22T09:43:46.989Z</time></trkpt><trkpt lat="44.3501" lon="11.0321733"><ele>598.0</ele><time>2026-03-22T09:43:47.993Z</time></trkpt><trkpt lat="44.350075" lon="11.0323283"><ele>598.0</ele><time>2026-03-22T09:43:48.99Z</time></trkpt><trkpt lat="44.3500433" lon="11.0324783"><ele>597.8333333333334</ele><time>2026-03-22T09:43:49.992Z</time></trkpt><trkpt lat="44.3500183" lon="11.0326117"><ele>597.6666666666667</ele><time>2026-03-22T09:43:50.99Z</time></trkpt><trkpt lat="44.35" lon="11.0327333"><ele>597.5</ele><time>2026-03-22T09:43:51.991Z</time></trkpt><trkpt lat="44.349985" lon="11.0328417"><ele>597.3333333333334</ele><time>2026-03-22T09:43:52.99Z</time></trkpt><trkpt lat="44.3499567" lon="11.0329417"><ele>597.1666666666666</ele><time>2026-03-22T09:43:53.994Z</time></trkpt><trkpt lat="44.34991" lon="11.0330367"><ele>597.0</ele><time>2026-03-22T09:43:54.991Z</time></trkpt><trkpt lat="44.3498467" lon="11.033135"><ele>597.0</ele><time>2026-03-22T09:43:55.991Z</time></trkpt><trkpt lat="44.3497817" lon="11.0332317"><ele>597.0</ele><time>2026-03-22T09:43:56.996Z</time></trkpt><trkpt lat="44.349725" lon="11.0333217"><ele>597.0</ele><time>2026-03-22T09:43:57.994Z</time></trkpt><trkpt lat="44.3496783" lon="11.0334"><ele>597.0</ele><time>2026-03-22T09:43:58.993Z</time></trkpt><trkpt lat="44.3496133" lon="11.0334883"><ele>597.0</ele><time>2026-03-22T09:44:00.994Z</time></trkpt><trkpt lat="44.349635" lon="11.0335833"><ele>597.0</ele><time>2026-03-22T09:44:03.992Z</time></trkpt><trkpt lat="44.3497433" lon="11.0336167"><ele>596.4285714285714</ele><time>2026-03-22T09:44:05.991Z</time></trkpt><trkpt lat="44.349815" lon="11.033625"><ele>595.8571428571429</ele><time>2026-03-22T09:44:06.994Z</time></trkpt><trkpt lat="44.3498917" lon="11.03364"><ele>595.2857142857142</ele><time>2026-03-22T09:44:07.99Z</time></trkpt><trkpt lat="44.3499617" lon="11.0336533"><ele>594.7142857142858</ele><time>2026-03-22T09:44:08.993Z</time></trkpt><trkpt lat="44.3500283" lon="11.0336917"><ele>594.1428571428571</ele><time>2026-03-22T09:44:09.992Z</time></trkpt><trkpt lat="44.350085" lon="11.033755"><ele>593.5714285714286</ele><time>2026-03-22T09:44:10.994Z</time></trkpt><trkpt lat="44.350145" lon="11.0338133"><ele>593.0</ele><time>2026-03-22T09:44:11.991Z</time></trkpt><trkpt lat="44.350215" lon="11.0338633"><ele>593.0</ele><time>2026-03-22T09:44:12.992Z</time></trkpt><trkpt lat="44.3502933" lon="11.0339"><ele>593.0</ele><time>2026-03-22T09:44:14.003Z</time></trkpt><trkpt lat="44.350375" lon="11.0339267"><ele>593.0</ele><time>2026-03-22T09:44:14.991Z</time></trkpt><trkpt lat="44.350465" lon="11.0339417"><ele>593.0</ele><time>2026-03-22T09:44:15.992Z</time></trkpt><trkpt lat="44.3505617" lon="11.033965"><ele>593.0</ele><time>2026-03-22T09:44:16.988Z</time></trkpt><trkpt lat="44.3506533" lon="11.0339833"><ele>593.0</ele><time>2026-03-22T09:44:17.991Z</time></trkpt><trkpt lat="44.3507417" lon="11.033995"><ele>590.0</ele><time>2026-03-22T09:44:18.989Z</time></trkpt><trkpt lat="44.3508283" lon="11.0340033"><ele>587.0</ele><time>2026-03-22T09:44:19.99Z</time></trkpt><trkpt lat="44.350915" lon="11.0339967"><ele>584.0</ele><time>2026-03-22T09:44:20.99Z</time></trkpt><trkpt lat="44.3510067" lon="11.033965"><ele>581.0</ele><time>2026-03-22T09:44:21.99Z</time></trkpt><trkpt lat="44.351095" lon="11.033915"><ele>578.0</ele><time>2026-03-22T09:44:22.992Z</time></trkpt><trkpt lat="44.351185" lon="11.0338583"><ele>578.0</ele><time>2026-03-22T09:44:23.99Z</time></trkpt><trkpt lat="44.35127" lon="11.033795"><ele>578.0</ele><time>2026-03-22T09:44:24.996Z</time></trkpt><trkpt lat="44.351355" lon="11.0337367"><ele>578.0</ele><time>2026-03-22T09:44:25.991Z</time></trkpt><trkpt lat="44.3514333" lon="11.0336817"><ele>578.0</ele><time>2026-03-22T09:44:26.991Z</time></trkpt><trkpt lat="44.3515167" lon="11.0336483"><ele>578.0</ele><time>2026-03-22T09:44:27.992Z</time></trkpt><trkpt lat="44.3515967" lon="11.0336383"><ele>578.0</ele><time>2026-03-22T09:44:28.995Z</time></trkpt><trkpt lat="44.3516817" lon="11.03366"><ele>575.0</ele><time>2026-03-22T09:44:29.995Z</time></trkpt><trkpt lat="44.3517533" lon="11.0337333"><ele>572.0</ele><time>2026-03-22T09:44:30.993Z</time></trkpt><trkpt lat="44.3518217" lon="11.0338333"><ele>569.0</ele><time>2026-03-22T09:44:31.995Z</time></trkpt><trkpt lat="44.35189" lon="11.0339533"><ele>566.0</ele><time>2026-03-22T09:44:32.989Z</time></trkpt><trkpt lat="44.35196" lon="11.0340667"><ele>563.0</ele><time>2026-03-22T09:44:33.994Z</time></trkpt><trkpt lat="44.3520333" lon="11.03417"><ele>563.0</ele><time>2026-03-22T09:44:34.988Z</time></trkpt><trkpt lat="44.3521083" lon="11.0342633"><ele>563.0</ele><time>2026-03-22T09:44:35.992Z</time></trkpt><trkpt lat="44.3521833" lon="11.0343533"><ele>563.0</ele><time>2026-03-22T09:44:36.99Z</time></trkpt><trkpt lat="44.3522467" lon="11.0344467"><ele>563.0</ele><time>2026-03-22T09:44:37.989Z</time></trkpt><trkpt lat="44.352305" lon="11.0345433"><ele>563.0</ele><time>2026-03-22T09:44:38.989Z</time></trkpt><trkpt lat="44.3523583" lon="11.034655"><ele>560.0</ele><time>2026-03-22T09:44:39.989Z</time></trkpt><trkpt lat="44.3524067" lon="11.034775"><ele>557.0</ele><time>2026-03-22T09:44:40.989Z</time></trkpt><trkpt lat="44.3524617" lon="11.0348867"><ele>554.0</ele><time>2026-03-22T09:44:41.99Z</time></trkpt><trkpt lat="44.3525283" lon="11.0349917"><ele>551.0</ele><time>2026-03-22T09:44:42.995Z</time></trkpt><trkpt lat="44.3526017" lon="11.0350933"><ele>548.0</ele><time>2026-03-22T09:44:43.989Z</time></trkpt><trkpt lat="44.3526833" lon="11.0351967"><ele>548.0</ele><time>2026-03-22T09:44:44.993Z</time></trkpt><trkpt lat="44.3527717" lon="11.0353067"><ele>548.0</ele><time>2026-03-22T09:44:45.991Z</time></trkpt><trkpt lat="44.3528667" lon="11.0354067"><ele>548.0</ele><time>2026-03-22T09:44:46.995Z</time></trkpt><trkpt lat="44.3529567" lon="11.0354983"><ele>548.0</ele><time>2026-03-22T09:44:47.999Z</time></trkpt><trkpt lat="44.3530433" lon="11.0356"><ele>545.8</ele><time>2026-03-22T09:44:48.989Z</time></trkpt><trkpt lat="44.3531217" lon="11.0357067"><ele>543.5999999999999</ele><time>2026-03-22T09:44:49.993Z</time></trkpt><trkpt lat="44.3531867" lon="11.0358183"><ele>541.4000000000001</ele><time>2026-03-22T09:44:50.99Z</time></trkpt><trkpt lat="44.3532483" lon="11.03591"><ele>539.2</ele><time>2026-03-22T09:44:51.99Z</time></trkpt><trkpt lat="44.3533083" lon="11.035985"><ele>537.0</ele><time>2026-03-22T09:44:52.992Z</time></trkpt><trkpt lat="44.3533733" lon="11.0360383"><ele>537.0</ele><time>2026-03-22T09:44:53.992Z</time></trkpt><trkpt lat="44.3534567" lon="11.0360083"><ele>537.0</ele><time>2026-03-22T09:44:54.995Z</time></trkpt><trkpt lat="44.35355" lon="11.0359567"><ele>537.0</ele><time>2026-03-22T09:44:55.992Z</time></trkpt><trkpt lat="44.3536367" lon="11.0358717"><ele>537.0</ele><time>2026-03-22T09:44:56.994Z</time></trkpt><trkpt lat="44.3537183" lon="11.035795"><ele>537.0</ele><time>2026-03-22T09:44:57.994Z</time></trkpt><trkpt lat="44.3537917" lon="11.0357283"><ele>537.0</ele><time>2026-03-22T09:44:58.989Z</time></trkpt><trkpt lat="44.3538617" lon="11.0356733"><ele>537.0</ele><time>2026-03-22T09:44:59.994Z</time></trkpt><trkpt lat="44.353925" lon="11.0356317"><ele>537.0</ele><time>2026-03-22T09:45:00.991Z</time></trkpt><trkpt lat="44.3540233" lon="11.0356983"><ele>537.0</ele><time>2026-03-22T09:45:02.993Z</time></trkpt><trkpt lat="44.3540467" lon="11.0358817"><ele>537.0</ele><time>2026-03-22T09:45:04.987Z</time></trkpt><trkpt lat="44.35402" lon="11.036"><ele>535.0</ele><time>2026-03-22T09:45:05.995Z</time></trkpt><trkpt lat="44.3539933" lon="11.0361217"><ele>533.0</ele><time>2026-03-22T09:45:06.994Z</time></trkpt><trkpt lat="44.3539833" lon="11.0362417"><ele>531.0</ele><time>2026-03-22T09:45:07.993Z</time></trkpt><trkpt lat="44.35399" lon="11.0363567"><ele>529.0</ele><time>2026-03-22T09:45:08.994Z</time></trkpt><trkpt lat="44.3540083" lon="11.0364633"><ele>527.0</ele><time>2026-03-22T09:45:09.992Z</time></trkpt><trkpt lat="44.35404" lon="11.0365633"><ele>525.0</ele><time>2026-03-22T09:45:10.99Z</time></trkpt><trkpt lat="44.35409" lon="11.036655"><ele>523.4</ele><time>2026-03-22T09:45:11.988Z</time></trkpt><trkpt lat="44.3541517" lon="11.0367317"><ele>521.8</ele><time>2026-03-22T09:45:12.998Z</time></trkpt><trkpt lat="44.354235" lon="11.03679"><ele>520.2</ele><time>2026-03-22T09:45:13.994Z</time></trkpt><trkpt lat="44.3543283" lon="11.0368333"><ele>518.6</ele><time>2026-03-22T09:45:14.996Z</time></trkpt><trkpt lat="44.35443" lon="11.0368467"><ele>517.0</ele><time>2026-03-22T09:45:15.991Z</time></trkpt><trkpt lat="44.3545267" lon="11.0368367"><ele>517.0</ele><time>2026-03-22T09:45:16.994Z</time></trkpt><trkpt lat="44.3546167" lon="11.0368433"><ele>517.0</ele><time>2026-03-22T09:45:17.99Z</time></trkpt><trkpt lat="44.3547" lon="11.0368683"><ele>517.0</ele><time>2026-03-22T09:45:18.99Z</time></trkpt><trkpt lat="44.3547683" lon="11.0369283"><ele>517.0</ele><time>2026-03-22T09:45:19.993Z</time></trkpt><trkpt lat="44.3548317" lon="11.037"><ele>517.0</ele><time>2026-03-22T09:45:20.991Z</time></trkpt><trkpt lat="44.354865" lon="11.0371333"><ele>517.0</ele><time>2026-03-22T09:45:21.99Z</time></trkpt><trkpt lat="44.354895" lon="11.0372833"><ele>514.0</ele><time>2026-03-22T09:45:22.992Z</time></trkpt><trkpt lat="44.354925" lon="11.0374533"><ele>511.0</ele><time>2026-03-22T09:45:23.991Z</time></trkpt><trkpt lat="44.35497" lon="11.0376167"><ele>508.0</ele><time>2026-03-22T09:45:24.996Z</time></trkpt><trkpt lat="44.3550133" lon="11.03777"><ele>505.0</ele><time>2026-03-22T09:45:25.991Z</time></trkpt><trkpt lat="44.3550583" lon="11.0379217"><ele>504.75</ele><time>2026-03-22T09:45:26.995Z</time></trkpt><trkpt lat="44.3551167" lon="11.0380633"><ele>504.5</ele><time>2026-03-22T09:45:27.994Z</time></trkpt><trkpt lat="44.3551833" lon="11.0381867"><ele>504.25</ele><time>2026-03-22T09:45:28.989Z</time></trkpt><trkpt lat="44.3552667" lon="11.038295"><ele>504.0</ele><time>2026-03-22T09:45:29.993Z</time></trkpt><trkpt lat="44.3553617" lon="11.038385"><ele>503.0</ele><time>2026-03-22T09:45:30.991Z</time></trkpt><trkpt lat="44.3554533" lon="11.03846"><ele>502.0</ele><time>2026-03-22T09:45:31.99Z</time></trkpt><trkpt lat="44.3555433" lon="11.0385333"><ele>501.0</ele><time>2026-03-22T09:45:32.989Z</time></trkpt><trkpt lat="44.3556283" lon="11.0386083"><ele>500.0</ele><time>2026-03-22T09:45:33.99Z</time></trkpt><trkpt lat="44.3557133" lon="11.0386867"><ele>499.0</ele><time>2026-03-22T09:45:34.989Z</time></trkpt><trkpt lat="44.3557967" lon="11.0387633"><ele>497.79999999999995</ele><time>2026-03-22T09:45:35.988Z</time></trkpt><trkpt lat="44.3558783" lon="11.0388383"><ele>496.59999999999997</ele><time>2026-03-22T09:45:36.99Z</time></trkpt><trkpt lat="44.3559633" lon="11.03891"><ele>495.4</ele><time>2026-03-22T09:45:37.989Z</time></trkpt><trkpt lat="44.3560467" lon="11.03898"><ele>494.2</ele><time>2026-03-22T09:45:38.994Z</time></trkpt><trkpt lat="44.35613" lon="11.0390467"><ele>493.0</ele><time>2026-03-22T09:45:39.992Z</time></trkpt><trkpt lat="44.3562117" lon="11.039115"><ele>492.4</ele><time>2026-03-22T09:45:40.99Z</time></trkpt><trkpt lat="44.356295" lon="11.03917"><ele>491.79999999999995</ele><time>2026-03-22T09:45:41.992Z</time></trkpt><trkpt lat="44.3563833" lon="11.039205"><ele>491.2</ele><time>2026-03-22T09:45:42.988Z</time></trkpt><trkpt lat="44.35648" lon="11.03923"><ele>490.6</ele><time>2026-03-22T09:45:43.99Z</time></trkpt><trkpt lat="44.3565817" lon="11.0392617"><ele>490.0</ele><time>2026-03-22T09:45:44.993Z</time></trkpt><trkpt lat="44.3566883" lon="11.0393"><ele>488.25</ele><time>2026-03-22T09:45:45.991Z</time></trkpt><trkpt lat="44.3567983" lon="11.0393667"><ele>486.5</ele><time>2026-03-22T09:45:46.995Z</time></trkpt><trkpt lat="44.3569017" lon="11.039465"><ele>484.75</ele><time>2026-03-22T09:45:47.99Z</time></trkpt><trkpt lat="44.3569983" lon="11.03958"><ele>483.0</ele><time>2026-03-22T09:45:48.986Z</time></trkpt><trkpt lat="44.357085" lon="11.0397033"><ele>483.0</ele><time>2026-03-22T09:45:49.989Z</time></trkpt><trkpt lat="44.3571683" lon="11.03982"><ele>483.0</ele><time>2026-03-22T09:45:50.991Z</time></trkpt><trkpt lat="44.35726" lon="11.0399217"><ele>483.0</ele><time>2026-03-22T09:45:51.989Z</time></trkpt><trkpt lat="44.3573633" lon="11.0400117"><ele>483.0</ele><time>2026-03-22T09:45:52.992Z</time></trkpt><trkpt lat="44.3574767" lon="11.0400917"><ele>479.75</ele><time>2026-03-22T09:45:53.997Z</time></trkpt><trkpt lat="44.3575967" lon="11.0401733"><ele>476.5</ele><time>2026-03-22T09:45:54.994Z</time></trkpt><trkpt lat="44.3577167" lon="11.0402583"><ele>473.25</ele><time>2026-03-22T09:45:55.994Z</time></trkpt><trkpt lat="44.357835" lon="11.040365"><ele>470.0</ele><time>2026-03-22T09:45:56.992Z</time></trkpt><trkpt lat="44.3579567" lon="11.0404867"><ele>468.25</ele><time>2026-03-22T09:45:57.992Z</time></trkpt><trkpt lat="44.3580767" lon="11.0406183"><ele>466.5</ele><time>2026-03-22T09:45:58.99Z</time></trkpt><trkpt lat="44.3581983" lon="11.0407317"><ele>464.75</ele><time>2026-03-22T09:45:59.99Z</time></trkpt><trkpt lat="44.358325" lon="11.040825"><ele>463.0</ele><time>2026-03-22T09:46:00.991Z</time></trkpt><trkpt lat="44.3584467" lon="11.040905"><ele>463.0</ele><time>2026-03-22T09:46:01.994Z</time></trkpt><trkpt lat="44.35856" lon="11.0409917"><ele>463.0</ele><time>2026-03-22T09:46:02.998Z</time></trkpt><trkpt lat="44.3586633" lon="11.04108"><ele>463.0</ele><time>2026-03-22T09:46:03.989Z</time></trkpt><trkpt lat="44.3587583" lon="11.0411933"><ele>463.0</ele><time>2026-03-22T09:46:04.99Z</time></trkpt><trkpt lat="44.3588333" lon="11.0413317"><ele>462.0</ele><time>2026-03-22T09:46:05.989Z</time></trkpt><trkpt lat="44.3589033" lon="11.0414717"><ele>461.0</ele><time>2026-03-22T09:46:06.993Z</time></trkpt><trkpt lat="44.3589783" lon="11.0416"><ele>460.0</ele><time>2026-03-22T09:46:07.991Z</time></trkpt><trkpt lat="44.359065" lon="11.0417067"><ele>459.0</ele><time>2026-03-22T09:46:08.993Z</time></trkpt><trkpt lat="44.3591583" lon="11.0417967"><ele>459.0</ele><time>2026-03-22T09:46:09.99Z</time></trkpt><trkpt lat="44.3592517" lon="11.0418867"><ele>459.0</ele><time>2026-03-22T09:46:10.993Z</time></trkpt><trkpt lat="44.359345" lon="11.0419867"><ele>459.0</ele><time>2026-03-22T09:46:11.99Z</time></trkpt><trkpt lat="44.3594383" lon="11.0421"><ele>459.0</ele><time>2026-03-22T09:46:12.99Z</time></trkpt><trkpt lat="44.3595267" lon="11.04223"><ele>459.0</ele><time>2026-03-22T09:46:13.994Z</time></trkpt><trkpt lat="44.3596117" lon="11.0423683"><ele>459.0</ele><time>2026-03-22T09:46:14.994Z</time></trkpt><trkpt lat="44.3596933" lon="11.0425017"><ele>459.0</ele><time>2026-03-22T09:46:15.988Z</time></trkpt><trkpt lat="44.3597783" lon="11.0426333"><ele>459.0</ele><time>2026-03-22T09:46:16.989Z</time></trkpt><trkpt lat="44.3598633" lon="11.0427717"><ele>458.25</ele><time>2026-03-22T09:46:17.992Z</time></trkpt><trkpt lat="44.35995" lon="11.04291"><ele>457.5</ele><time>2026-03-22T09:46:18.993Z</time></trkpt><trkpt lat="44.3600367" lon="11.0430483"><ele>456.75</ele><time>2026-03-22T09:46:19.989Z</time></trkpt><trkpt lat="44.3601267" lon="11.0431883"><ele>456.0</ele><time>2026-03-22T09:46:20.996Z</time></trkpt><trkpt lat="44.360215" lon="11.0433283"><ele>454.75</ele><time>2026-03-22T09:46:21.994Z</time></trkpt><trkpt lat="44.3603033" lon="11.0434667"><ele>453.5</ele><time>2026-03-22T09:46:22.991Z</time></trkpt><trkpt lat="44.36039" lon="11.043615"><ele>452.25</ele><time>2026-03-22T09:46:23.99Z</time></trkpt><trkpt lat="44.3604767" lon="11.0437617"><ele>451.0</ele><time>2026-03-22T09:46:24.994Z</time></trkpt><trkpt lat="44.36056" lon="11.0439"><ele>450.0</ele><time>2026-03-22T09:46:25.993Z</time></trkpt><trkpt lat="44.3606417" lon="11.04403"><ele>449.0</ele><time>2026-03-22T09:46:26.992Z</time></trkpt><trkpt lat="44.36072" lon="11.0441617"><ele>448.0</ele><time>2026-03-22T09:46:27.989Z</time></trkpt><trkpt lat="44.360785" lon="11.0443017"><ele>447.0</ele><time>2026-03-22T09:46:28.989Z</time></trkpt><trkpt lat="44.3608367" lon="11.0444567"><ele>446.0</ele><time>2026-03-22T09:46:29.99Z</time></trkpt><trkpt lat="44.360865" lon="11.04463"><ele>445.0</ele><time>2026-03-22T09:46:30.992Z</time></trkpt><trkpt lat="44.3608783" lon="11.0448083"><ele>444.0</ele><time>2026-03-22T09:46:31.989Z</time></trkpt><trkpt lat="44.3609" lon="11.0449883"><ele>443.0</ele><time>2026-03-22T09:46:32.99Z</time></trkpt><trkpt lat="44.3609317" lon="11.045175"><ele>441.25</ele><time>2026-03-22T09:46:33.992Z</time></trkpt><trkpt lat="44.3609767" lon="11.045355"><ele>439.5</ele><time>2026-03-22T09:46:34.991Z</time></trkpt><trkpt lat="44.3610283" lon="11.04553"><ele>437.75</ele><time>2026-03-22T09:46:35.993Z</time></trkpt><trkpt lat="44.3610883" lon="11.0457"><ele>436.0</ele><time>2026-03-22T09:46:36.992Z</time></trkpt><trkpt lat="44.361155" lon="11.0458617"><ele>433.25</ele><time>2026-03-22T09:46:37.992Z</time></trkpt><trkpt lat="44.3612217" lon="11.0460167"><ele>430.5</ele><time>2026-03-22T09:46:38.991Z</time></trkpt><trkpt lat="44.3612833" lon="11.0461733"><ele>427.75</ele><time>2026-03-22T09:46:39.989Z</time></trkpt><trkpt lat="44.361325" lon="11.046335"><ele>425.0</ele><time>2026-03-22T09:46:40.989Z</time></trkpt><trkpt lat="44.3613633" lon="11.046505"><ele>424.0</ele><time>2026-03-22T09:46:41.99Z</time></trkpt><trkpt lat="44.361405" lon="11.046665"><ele>423.0</ele><time>2026-03-22T09:46:42.99Z</time></trkpt><trkpt lat="44.3614567" lon="11.0468067"><ele>422.0</ele><time>2026-03-22T09:46:43.992Z</time></trkpt><trkpt lat="44.361525" lon="11.046925"><ele>421.0</ele><time>2026-03-22T09:46:44.994Z</time></trkpt><trkpt lat="44.3616133" lon="11.0470233"><ele>421.0</ele><time>2026-03-22T09:46:46.002Z</time></trkpt><trkpt lat="44.3617267" lon="11.0471"><ele>421.0</ele><time>2026-03-22T09:46:46.99Z</time></trkpt><trkpt lat="44.3618483" lon="11.0471583"><ele>421.0</ele><time>2026-03-22T09:46:47.994Z</time></trkpt><trkpt lat="44.3619667" lon="11.0472167"><ele>421.0</ele><time>2026-03-22T09:46:48.997Z</time></trkpt><trkpt lat="44.3620783" lon="11.0472833"><ele>421.0</ele><time>2026-03-22T09:46:49.999Z</time></trkpt><trkpt lat="44.3621833" lon="11.0473567"><ele>421.0</ele><time>2026-03-22T09:46:50.995Z</time></trkpt><trkpt lat="44.3622683" lon="11.0474267"><ele>421.0</ele><time>2026-03-22T09:46:51.989Z</time></trkpt><trkpt lat="44.3623283" lon="11.047505"><ele>421.0</ele><time>2026-03-22T09:46:52.99Z</time></trkpt><trkpt lat="44.3623667" lon="11.0475883"><ele>421.0</ele><time>2026-03-22T09:46:53.99Z</time></trkpt><trkpt lat="44.36232" lon="11.047755"><ele>419.4</ele><time>2026-03-22T09:46:55.988Z</time></trkpt><trkpt lat="44.3622467" lon="11.0478183"><ele>417.8</ele><time>2026-03-22T09:46:56.989Z</time></trkpt><trkpt lat="44.3621317" lon="11.0478233"><ele>416.2</ele><time>2026-03-22T09:46:57.989Z</time></trkpt><trkpt lat="44.362035" lon="11.0478083"><ele>414.59999999999997</ele><time>2026-03-22T09:46:58.994Z</time></trkpt><trkpt lat="44.3619433" lon="11.0478033"><ele>413.0</ele><time>2026-03-22T09:46:59.993Z</time></trkpt><trkpt lat="44.3618567" lon="11.0478083"><ele>412.99999999999994</ele><time>2026-03-22T09:47:00.995Z</time></trkpt><trkpt lat="44.3618067" lon="11.0478933"><ele>413.0</ele><time>2026-03-22T09:47:01.99Z</time></trkpt><trkpt lat="44.361805" lon="11.0480033"><ele>413.0</ele><time>2026-03-22T09:47:02.997Z</time></trkpt><trkpt lat="44.36182" lon="11.0481017"><ele>413.0</ele><time>2026-03-22T09:47:03.997Z</time></trkpt><trkpt lat="44.3619067" lon="11.04817"><ele>412.99999999999994</ele><time>2026-03-22T09:47:04.994Z</time></trkpt><trkpt lat="44.3619967" lon="11.0482233"><ele>413.0</ele><time>2026-03-22T09:47:05.991Z</time></trkpt><trkpt lat="44.3621117" lon="11.048265"><ele>410.0</ele><time>2026-03-22T09:47:06.994Z</time></trkpt><trkpt lat="44.36223" lon="11.04832"><ele>407.0</ele><time>2026-03-22T09:47:07.989Z</time></trkpt><trkpt lat="44.3623483" lon="11.048385"><ele>404.0</ele><time>2026-03-22T09:47:08.991Z</time></trkpt><trkpt lat="44.3624667" lon="11.0484567"><ele>401.0</ele><time>2026-03-22T09:47:09.994Z</time></trkpt><trkpt lat="44.3625767" lon="11.0485267"><ele>401.0</ele><time>2026-03-22T09:47:10.992Z</time></trkpt><trkpt lat="44.3626833" lon="11.0485917"><ele>401.0</ele><time>2026-03-22T09:47:11.994Z</time></trkpt><trkpt lat="44.36278" lon="11.0486483"><ele>401.0</ele><time>2026-03-22T09:47:12.995Z</time></trkpt><trkpt lat="44.3628667" lon="11.0486983"><ele>401.0</ele><time>2026-03-22T09:47:13.993Z</time></trkpt><trkpt lat="44.3629433" lon="11.0487417"><ele>401.0</ele><time>2026-03-22T09:47:14.994Z</time></trkpt><trkpt lat="44.36301" lon="11.0487883"><ele>400.99999999999994</ele><time>2026-03-22T09:47:15.998Z</time></trkpt><trkpt lat="44.3630483" lon="11.04886"><ele>401.0</ele><time>2026-03-22T09:47:16.996Z</time></trkpt><trkpt lat="44.363035" lon="11.0490033"><ele>401.0</ele><time>2026-03-22T09:47:18.993Z</time></trkpt><trkpt lat="44.3629683" lon="11.049005"><ele>401.0</ele><time>2026-03-22T09:47:19.996Z</time></trkpt><trkpt lat="44.36289" lon="11.0489683"><ele>400.99999999999994</ele><time>2026-03-22T09:47:20.989Z</time></trkpt><trkpt lat="44.362795" lon="11.0489067"><ele>401.0</ele><time>2026-03-22T09:47:21.992Z</time></trkpt><trkpt lat="44.3626983" lon="11.0488533"><ele>400.99999999999994</ele><time>2026-03-22T09:47:22.992Z</time></trkpt><trkpt lat="44.36261" lon="11.048815"><ele>401.0</ele><time>2026-03-22T09:47:23.993Z</time></trkpt><trkpt lat="44.362525" lon="11.0487983"><ele>401.0</ele><time>2026-03-22T09:47:24.989Z</time></trkpt><trkpt lat="44.36245" lon="11.048815"><ele>401.0</ele><time>2026-03-22T09:47:25.992Z</time></trkpt><trkpt lat="44.36241" lon="11.0489067"><ele>400.99999999999994</ele><time>2026-03-22T09:47:26.993Z</time></trkpt><trkpt lat="44.3624183" lon="11.049025"><ele>401.0</ele><time>2026-03-22T09:47:27.99Z</time></trkpt><trkpt lat="44.3624617" lon="11.049155"><ele>398.0</ele><time>2026-03-22T09:47:28.994Z</time></trkpt><trkpt lat="44.3625317" lon="11.0492883"><ele>395.0</ele><time>2026-03-22T09:47:29.989Z</time></trkpt><trkpt lat="44.3626067" lon="11.049425"><ele>392.0</ele><time>2026-03-22T09:47:30.991Z</time></trkpt><trkpt lat="44.3627083" lon="11.0495517"><ele>389.0</ele><time>2026-03-22T09:47:31.994Z</time></trkpt><trkpt lat="44.3628217" lon="11.0496683"><ele>389.0</ele><time>2026-03-22T09:47:32.991Z</time></trkpt><trkpt lat="44.36294" lon="11.0497733"><ele>389.0</ele><time>2026-03-22T09:47:33.992Z</time></trkpt><trkpt lat="44.3630583" lon="11.049885"><ele>389.0</ele><time>2026-03-22T09:47:34.994Z</time></trkpt><trkpt lat="44.363175" lon="11.0499917"><ele>389.0</ele><time>2026-03-22T09:47:35.99Z</time></trkpt><trkpt lat="44.3632783" lon="11.0501067"><ele>387.0</ele><time>2026-03-22T09:47:36.994Z</time></trkpt><trkpt lat="44.3633733" lon="11.050225"><ele>385.0</ele><time>2026-03-22T09:47:37.994Z</time></trkpt><trkpt lat="44.36345" lon="11.05035"><ele>383.0</ele><time>2026-03-22T09:47:38.998Z</time></trkpt><trkpt lat="44.3635067" lon="11.0504717"><ele>381.0</ele><time>2026-03-22T09:47:39.99Z</time></trkpt><trkpt lat="44.3635267" lon="11.0505917"><ele>379.0</ele><time>2026-03-22T09:47:40.989Z</time></trkpt><trkpt lat="44.36353" lon="11.0507033"><ele>377.0</ele><time>2026-03-22T09:47:41.995Z</time></trkpt><trkpt lat="44.3635033" lon="11.0508067"><ele>375.0</ele><time>2026-03-22T09:47:42.99Z</time></trkpt><trkpt lat="44.3634267" lon="11.050875"><ele>373.0</ele><time>2026-03-22T09:47:43.995Z</time></trkpt><trkpt lat="44.3633317" lon="11.0509283"><ele>371.0</ele><time>2026-03-22T09:47:44.992Z</time></trkpt><trkpt lat="44.3632217" lon="11.0509717"><ele>369.0</ele><time>2026-03-22T09:47:45.99Z</time></trkpt><trkpt lat="44.3630983" lon="11.051015"><ele>368.0</ele><time>2026-03-22T09:47:46.991Z</time></trkpt><trkpt lat="44.362965" lon="11.0510683"><ele>367.0</ele><time>2026-03-22T09:47:47.992Z</time></trkpt><trkpt lat="44.3628367" lon="11.051135"><ele>366.0</ele><time>2026-03-22T09:47:48.991Z</time></trkpt><trkpt lat="44.3627083" lon="11.051195"><ele>365.0</ele><time>2026-03-22T09:47:49.995Z</time></trkpt><trkpt lat="44.36258" lon="11.0512483"><ele>365.0</ele><time>2026-03-22T09:47:50.992Z</time></trkpt><trkpt lat="44.362455" lon="11.0513017"><ele>365.0</ele><time>2026-03-22T09:47:51.992Z</time></trkpt><trkpt lat="44.3623367" lon="11.0513483"><ele>365.0</ele><time>2026-03-22T09:47:52.989Z</time></trkpt><trkpt lat="44.362225" lon="11.0513933"><ele>365.0</ele><time>2026-03-22T09:47:53.994Z</time></trkpt><trkpt lat="44.3621233" lon="11.051435"><ele>363.83333333333337</ele><time>2026-03-22T09:47:54.998Z</time></trkpt><trkpt lat="44.3620333" lon="11.05147"><ele>362.6666666666667</ele><time>2026-03-22T09:47:55.989Z</time></trkpt><trkpt lat="44.3619533" lon="11.0515083"><ele>361.5</ele><time>2026-03-22T09:47:56.994Z</time></trkpt><trkpt lat="44.3618867" lon="11.0515667"><ele>360.3333333333333</ele><time>2026-03-22T09:47:57.989Z</time></trkpt><trkpt lat="44.36184" lon="11.0516333"><ele>359.16666666666663</ele><time>2026-03-22T09:47:58.99Z</time></trkpt><trkpt lat="44.36184" lon="11.0517767"><ele>358.0</ele><time>2026-03-22T09:48:00.992Z</time></trkpt><trkpt lat="44.3619467" lon="11.051835"><ele>356.4</ele><time>2026-03-22T09:48:01.995Z</time></trkpt><trkpt lat="44.3620467" lon="11.0518833"><ele>354.79999999999995</ele><time>2026-03-22T09:48:02.991Z</time></trkpt><trkpt lat="44.3621317" lon="11.0519317"><ele>353.2</ele><time>2026-03-22T09:48:03.989Z</time></trkpt><trkpt lat="44.3622267" lon="11.0519733"><ele>351.6</ele><time>2026-03-22T09:48:04.992Z</time></trkpt><trkpt lat="44.3623183" lon="11.052"><ele>350.0</ele><time>2026-03-22T09:48:05.992Z</time></trkpt><trkpt lat="44.36242" lon="11.0520183"><ele>350.0</ele><time>2026-03-22T09:48:06.993Z</time></trkpt><trkpt lat="44.3625317" lon="11.0520333"><ele>350.0</ele><time>2026-03-22T09:48:07.993Z</time></trkpt><trkpt lat="44.3626583" lon="11.05204"><ele>350.0</ele><time>2026-03-22T09:48:08.99Z</time></trkpt><trkpt lat="44.362785" lon="11.0520433"><ele>350.0</ele><time>2026-03-22T09:48:09.99Z</time></trkpt><trkpt lat="44.3629217" lon="11.05205"><ele>350.5</ele><time>2026-03-22T09:48:10.99Z</time></trkpt><trkpt lat="44.3630583" lon="11.052055"><ele>351.0</ele><time>2026-03-22T09:48:11.991Z</time></trkpt><trkpt lat="44.3631983" lon="11.0520583"><ele>351.5</ele><time>2026-03-22T09:48:12.995Z</time></trkpt><trkpt lat="44.363345" lon="11.052065"><ele>352.0</ele><time>2026-03-22T09:48:13.995Z</time></trkpt><trkpt lat="44.363485" lon="11.0520867"><ele>352.0</ele><time>2026-03-22T09:48:14.996Z</time></trkpt><trkpt lat="44.363625" lon="11.0521167"><ele>352.0</ele><time>2026-03-22T09:48:15.99Z</time></trkpt><trkpt lat="44.3637617" lon="11.0521633"><ele>352.0</ele><time>2026-03-22T09:48:16.993Z</time></trkpt><trkpt lat="44.3639017" lon="11.0522267"><ele>352.0</ele><time>2026-03-22T09:48:17.991Z</time></trkpt><trkpt lat="44.3640433" lon="11.0522833"><ele>352.75</ele><time>2026-03-22T09:48:18.999Z</time></trkpt><trkpt lat="44.3641883" lon="11.0523333"><ele>353.5</ele><time>2026-03-22T09:48:19.988Z</time></trkpt><trkpt lat="44.3643317" lon="11.05238"><ele>354.25</ele><time>2026-03-22T09:48:20.995Z</time></trkpt><trkpt lat="44.364475" lon="11.0524167"><ele>355.0</ele><time>2026-03-22T09:48:21.995Z</time></trkpt><trkpt lat="44.36462" lon="11.0524483"><ele>349.25</ele><time>2026-03-22T09:48:22.996Z</time></trkpt><trkpt lat="44.3647617" lon="11.0524733"><ele>343.5</ele><time>2026-03-22T09:48:23.996Z</time></trkpt><trkpt lat="44.3649033" lon="11.052505"><ele>337.75</ele><time>2026-03-22T09:48:24.992Z</time></trkpt><trkpt lat="44.3650383" lon="11.0525333"><ele>332.0</ele><time>2026-03-22T09:48:25.992Z</time></trkpt><trkpt lat="44.36517" lon="11.052565"><ele>332.0</ele><time>2026-03-22T09:48:26.994Z</time></trkpt><trkpt lat="44.365295" lon="11.0525933"><ele>332.0</ele><time>2026-03-22T09:48:27.995Z</time></trkpt><trkpt lat="44.3654033" lon="11.0526167"><ele>332.0</ele><time>2026-03-22T09:48:28.992Z</time></trkpt><trkpt lat="44.3655067" lon="11.05265"><ele>332.0</ele><time>2026-03-22T09:48:29.99Z</time></trkpt><trkpt lat="44.3656017" lon="11.05269"><ele>332.0</ele><time>2026-03-22T09:48:30.992Z</time></trkpt><trkpt lat="44.3656933" lon="11.0527533"><ele>332.75</ele><time>2026-03-22T09:48:31.988Z</time></trkpt><trkpt lat="44.3657717" lon="11.0528533"><ele>333.5</ele><time>2026-03-22T09:48:32.99Z</time></trkpt><trkpt lat="44.3658433" lon="11.0529717"><ele>334.25</ele><time>2026-03-22T09:48:33.992Z</time></trkpt><trkpt lat="44.3658917" lon="11.053115"><ele>335.0</ele><time>2026-03-22T09:48:34.992Z</time></trkpt><trkpt lat="44.365925" lon="11.0532817"><ele>334.5</ele><time>2026-03-22T09:48:35.987Z</time></trkpt><trkpt lat="44.3659467" lon="11.0534583"><ele>334.0</ele><time>2026-03-22T09:48:36.994Z</time></trkpt><trkpt lat="44.3659667" lon="11.0536383"><ele>333.5</ele><time>2026-03-22T09:48:37.99Z</time></trkpt><trkpt lat="44.3659817" lon="11.0538217"><ele>333.0</ele><time>2026-03-22T09:48:38.992Z</time></trkpt><trkpt lat="44.36601" lon="11.054"><ele>332.5</ele><time>2026-03-22T09:48:39.991Z</time></trkpt><trkpt lat="44.3660517" lon="11.054175"><ele>332.0</ele><time>2026-03-22T09:48:40.992Z</time></trkpt><trkpt lat="44.3661083" lon="11.0543483"><ele>331.5</ele><time>2026-03-22T09:48:41.99Z</time></trkpt><trkpt lat="44.36619" lon="11.0545033"><ele>331.0</ele><time>2026-03-22T09:48:42.995Z</time></trkpt><trkpt lat="44.3662867" lon="11.0546483"><ele>330.25</ele><time>2026-03-22T09:48:43.995Z</time></trkpt><trkpt lat="44.3663867" lon="11.0547917"><ele>329.5</ele><time>2026-03-22T09:48:44.998Z</time></trkpt><trkpt lat="44.3664833" lon="11.054935"><ele>328.75</ele><time>2026-03-22T09:48:45.989Z</time></trkpt><trkpt lat="44.3665867" lon="11.0550733"><ele>328.0</ele><time>2026-03-22T09:48:46.99Z</time></trkpt><trkpt lat="44.366695" lon="11.05521"><ele>328.0</ele><time>2026-03-22T09:48:47.992Z</time></trkpt><trkpt lat="44.366805" lon="11.05535"><ele>328.0</ele><time>2026-03-22T09:48:48.998Z</time></trkpt><trkpt lat="44.3669167" lon="11.0554933"><ele>328.0</ele><time>2026-03-22T09:48:49.994Z</time></trkpt><trkpt lat="44.3670317" lon="11.0556367"><ele>328.0</ele><time>2026-03-22T09:48:50.993Z</time></trkpt><trkpt lat="44.3671533" lon="11.0557783"><ele>328.0</ele><time>2026-03-22T09:48:52Z</time></trkpt><trkpt lat="44.367275" lon="11.0559233"><ele>328.0</ele><time>2026-03-22T09:48:52.99Z</time></trkpt><trkpt lat="44.367395" lon="11.0560667"><ele>326.3333333333333</ele><time>2026-03-22T09:48:53.995Z</time></trkpt><trkpt lat="44.367515" lon="11.0562133"><ele>324.6666666666667</ele><time>2026-03-22T09:48:54.996Z</time></trkpt><trkpt lat="44.367635" lon="11.0563583"><ele>323.0</ele><time>2026-03-22T09:48:55.992Z</time></trkpt><trkpt lat="44.3677533" lon="11.0565017"><ele>323.0</ele><time>2026-03-22T09:48:56.99Z</time></trkpt><trkpt lat="44.3678717" lon="11.0566467"><ele>323.0</ele><time>2026-03-22T09:48:57.991Z</time></trkpt><trkpt lat="44.36799" lon="11.056795"><ele>323.0</ele><time>2026-03-22T09:48:58.994Z</time></trkpt><trkpt lat="44.36811" lon="11.05694"><ele>323.0</ele><time>2026-03-22T09:48:59.997Z</time></trkpt><trkpt lat="44.36823" lon="11.0570867"><ele>323.0</ele><time>2026-03-22T09:49:00.989Z</time></trkpt><trkpt lat="44.36835" lon="11.05723"><ele>323.0</ele><time>2026-03-22T09:49:01.997Z</time></trkpt><trkpt lat="44.368465" lon="11.0573767"><ele>321.6666666666667</ele><time>2026-03-22T09:49:02.991Z</time></trkpt><trkpt lat="44.3685833" lon="11.05752"><ele>320.3333333333333</ele><time>2026-03-22T09:49:03.99Z</time></trkpt><trkpt lat="44.3687017" lon="11.0576583"><ele>319.0</ele><time>2026-03-22T09:49:04.991Z</time></trkpt><trkpt lat="44.3688217" lon="11.0577867"><ele>321.3333333333333</ele><time>2026-03-22T09:49:06Z</time></trkpt><trkpt lat="44.3689383" lon="11.0579183"><ele>323.6666666666667</ele><time>2026-03-22T09:49:06.998Z</time></trkpt><trkpt lat="44.3690533" lon="11.05806"><ele>326.0</ele><time>2026-03-22T09:49:07.995Z</time></trkpt><trkpt lat="44.36917" lon="11.05821"><ele>323.0</ele><time>2026-03-22T09:49:08.993Z</time></trkpt><trkpt lat="44.36929" lon="11.0583667"><ele>320.0</ele><time>2026-03-22T09:49:09.991Z</time></trkpt><trkpt lat="44.3694117" lon="11.05852"><ele>317.0</ele><time>2026-03-22T09:49:10.992Z</time></trkpt><trkpt lat="44.3695317" lon="11.0586717"><ele>317.0</ele><time>2026-03-22T09:49:11.996Z</time></trkpt><trkpt lat="44.369655" lon="11.0588183"><ele>317.0</ele><time>2026-03-22T09:49:12.992Z</time></trkpt><trkpt lat="44.3697767" lon="11.0589583"><ele>317.0</ele><time>2026-03-22T09:49:13.995Z</time></trkpt><trkpt lat="44.3698933" lon="11.0591017"><ele>316.5</ele><time>2026-03-22T09:49:15Z</time></trkpt><trkpt lat="44.370005" lon="11.0592483"><ele>316.0</ele><time>2026-03-22T09:49:16Z</time></trkpt><trkpt lat="44.370105" lon="11.0593967"><ele>315.5</ele><time>2026-03-22T09:49:16.99Z</time></trkpt><trkpt lat="44.3701983" lon="11.0595517"><ele>315.0</ele><time>2026-03-22T09:49:17.997Z</time></trkpt><trkpt lat="44.3702733" lon="11.059725"><ele>315.0</ele><time>2026-03-22T09:49:18.993Z</time></trkpt><trkpt lat="44.3703367" lon="11.0599117"><ele>315.0</ele><time>2026-03-22T09:49:19.992Z</time></trkpt><trkpt lat="44.3703933" lon="11.0601133"><ele>315.0</ele><time>2026-03-22T09:49:20.996Z</time></trkpt><trkpt lat="44.3704533" lon="11.0603183"><ele>314.0</ele><time>2026-03-22T09:49:21.998Z</time></trkpt><trkpt lat="44.3705167" lon="11.06054"><ele>313.0</ele><time>2026-03-22T09:49:22.99Z</time></trkpt><trkpt lat="44.3705767" lon="11.0607533"><ele>312.0</ele><time>2026-03-22T09:49:23.991Z</time></trkpt><trkpt lat="44.3706333" lon="11.0609617"><ele>316.6666666666667</ele><time>2026-03-22T09:49:24.993Z</time></trkpt><trkpt lat="44.37069" lon="11.0611667"><ele>321.33333333333337</ele><time>2026-03-22T09:49:25.995Z</time></trkpt><trkpt lat="44.3707483" lon="11.0613717"><ele>326.0</ele><time>2026-03-22T09:49:26.992Z</time></trkpt><trkpt lat="44.3708083" lon="11.0615783"><ele>322.6666666666667</ele><time>2026-03-22T09:49:27.99Z</time></trkpt><trkpt lat="44.3708667" lon="11.0617883"><ele>319.3333333333333</ele><time>2026-03-22T09:49:28.992Z</time></trkpt><trkpt lat="44.3709267" lon="11.0620033"><ele>316.0</ele><time>2026-03-22T09:49:29.992Z</time></trkpt><trkpt lat="44.3709867" lon="11.0622183"><ele>316.0</ele><time>2026-03-22T09:49:30.995Z</time></trkpt><trkpt lat="44.37105" lon="11.0624317"><ele>316.0</ele><time>2026-03-22T09:49:31.993Z</time></trkpt><trkpt lat="44.371115" lon="11.06264"><ele>316.0</ele><time>2026-03-22T09:49:32.994Z</time></trkpt><trkpt lat="44.37119" lon="11.062845"><ele>316.66666666666663</ele><time>2026-03-22T09:49:33.991Z</time></trkpt><trkpt lat="44.37127" lon="11.0630483"><ele>317.3333333333333</ele><time>2026-03-22T09:49:34.991Z</time></trkpt><trkpt lat="44.3713583" lon="11.06325"><ele>318.0</ele><time>2026-03-22T09:49:35.993Z</time></trkpt><trkpt lat="44.37145" lon="11.0634483"><ele>318.0</ele><time>2026-03-22T09:49:36.99Z</time></trkpt><trkpt lat="44.371555" lon="11.063635"><ele>318.0</ele><time>2026-03-22T09:49:37.991Z</time></trkpt><trkpt lat="44.3716667" lon="11.0638067"><ele>318.0</ele><time>2026-03-22T09:49:38.992Z</time></trkpt><trkpt lat="44.3717817" lon="11.0639617"><ele>314.3333333333333</ele><time>2026-03-22T09:49:39.994Z</time></trkpt><trkpt lat="44.3718983" lon="11.0641183"><ele>310.66666666666663</ele><time>2026-03-22T09:49:40.991Z</time></trkpt><trkpt lat="44.3720183" lon="11.064275"><ele>307.0</ele><time>2026-03-22T09:49:41.991Z</time></trkpt><trkpt lat="44.3721383" lon="11.0644283"><ele>314.0</ele><time>2026-03-22T09:49:42.999Z</time></trkpt><trkpt lat="44.37226" lon="11.064585"><ele>321.0</ele><time>2026-03-22T09:49:43.991Z</time></trkpt><trkpt lat="44.37239" lon="11.0647367"><ele>328.0</ele><time>2026-03-22T09:49:44.997Z</time></trkpt><trkpt lat="44.3725183" lon="11.06489"><ele>321.3333333333333</ele><time>2026-03-22T09:49:45.99Z</time></trkpt><trkpt lat="44.37265" lon="11.065045"><ele>314.6666666666667</ele><time>2026-03-22T09:49:46.994Z</time></trkpt><trkpt lat="44.3727783" lon="11.0651967"><ele>308.0</ele><time>2026-03-22T09:49:47.994Z</time></trkpt><trkpt lat="44.3729" lon="11.0653417"><ele>315.6666666666667</ele><time>2026-03-22T09:49:48.99Z</time></trkpt><trkpt lat="44.3730233" lon="11.0654733"><ele>323.3333333333333</ele><time>2026-03-22T09:49:49.99Z</time></trkpt><trkpt lat="44.37315" lon="11.0655983"><ele>331.0</ele><time>2026-03-22T09:49:50.994Z</time></trkpt><trkpt lat="44.37329" lon="11.0657017"><ele>322.3333333333333</ele><time>2026-03-22T09:49:51.994Z</time></trkpt><trkpt lat="44.37344" lon="11.0657883"><ele>313.6666666666667</ele><time>2026-03-22T09:49:52.99Z</time></trkpt><trkpt lat="44.3735983" lon="11.065855"><ele>305.0</ele><time>2026-03-22T09:49:53.993Z</time></trkpt><trkpt lat="44.37376" lon="11.0658967"><ele>306.33333333333337</ele><time>2026-03-22T09:49:54.995Z</time></trkpt><trkpt lat="44.3739183" lon="11.0659217"><ele>307.6666666666667</ele><time>2026-03-22T09:49:55.993Z</time></trkpt><trkpt lat="44.3740767" lon="11.0659417"><ele>309.0</ele><time>2026-03-22T09:49:56.996Z</time></trkpt><trkpt lat="44.3742383" lon="11.06596"><ele>309.0</ele><time>2026-03-22T09:49:57.993Z</time></trkpt><trkpt lat="44.3744" lon="11.0659783"><ele>309.0</ele><time>2026-03-22T09:49:58.994Z</time></trkpt><trkpt lat="44.3745583" lon="11.0659967"><ele>309.0</ele><time>2026-03-22T09:49:59.994Z</time></trkpt><trkpt lat="44.374715" lon="11.0660233"><ele>309.0</ele><time>2026-03-22T09:50:00.997Z</time></trkpt><trkpt lat="44.3748683" lon="11.0660567"><ele>309.0</ele><time>2026-03-22T09:50:01.995Z</time></trkpt><trkpt lat="44.375025" lon="11.06611"><ele>309.0</ele><time>2026-03-22T09:50:02.992Z</time></trkpt><trkpt lat="44.375175" lon="11.0661917"><ele>309.0</ele><time>2026-03-22T09:50:03.998Z</time></trkpt><trkpt lat="44.3753183" lon="11.0662867"><ele>309.0</ele><time>2026-03-22T09:50:04.991Z</time></trkpt><trkpt lat="44.3754567" lon="11.0663833"><ele>309.0</ele><time>2026-03-22T09:50:05.991Z</time></trkpt><trkpt lat="44.3755867" lon="11.0664717"><ele>307.25</ele><time>2026-03-22T09:50:06.996Z</time></trkpt><trkpt lat="44.3757133" lon="11.0665417"><ele>305.5</ele><time>2026-03-22T09:50:07.997Z</time></trkpt><trkpt lat="44.3758367" lon="11.06659"><ele>303.75</ele><time>2026-03-22T09:50:08.992Z</time></trkpt><trkpt lat="44.3759517" lon="11.0666267"><ele>302.0</ele><time>2026-03-22T09:50:09.993Z</time></trkpt><trkpt lat="44.3760617" lon="11.0666483"><ele>302.0</ele><time>2026-03-22T09:50:10.993Z</time></trkpt><trkpt lat="44.37616" lon="11.0666767"><ele>302.0</ele><time>2026-03-22T09:50:11.99Z</time></trkpt><trkpt lat="44.3762333" lon="11.06672"><ele>302.0</ele><time>2026-03-22T09:50:12.992Z</time></trkpt><trkpt lat="44.3762967" lon="11.0667817"><ele>302.0</ele><time>2026-03-22T09:50:13.996Z</time></trkpt><trkpt lat="44.3763183" lon="11.0668733"><ele>302.0</ele><time>2026-03-22T09:50:14.991Z</time></trkpt><trkpt lat="44.37631" lon="11.0669683"><ele>302.0</ele><time>2026-03-22T09:50:15.993Z</time></trkpt><trkpt lat="44.376275" lon="11.0670683"><ele>302.0</ele><time>2026-03-22T09:50:16.992Z</time></trkpt><trkpt lat="44.3762283" lon="11.0671767"><ele>302.0</ele><time>2026-03-22T09:50:17.99Z</time></trkpt><trkpt lat="44.376175" lon="11.0673017"><ele>302.0</ele><time>2026-03-22T09:50:18.991Z</time></trkpt><trkpt lat="44.376125" lon="11.0674217"><ele>302.0</ele><time>2026-03-22T09:50:19.992Z</time></trkpt><trkpt lat="44.3760833" lon="11.06753"><ele>302.0</ele><time>2026-03-22T09:50:20.999Z</time></trkpt><trkpt lat="44.376045" lon="11.0676217"><ele>301.1666666666667</ele><time>2026-03-22T09:50:21.99Z</time></trkpt><trkpt lat="44.376" lon="11.0676917"><ele>300.33333333333337</ele><time>2026-03-22T09:50:22.994Z</time></trkpt><trkpt lat="44.37594" lon="11.0677283"><ele>299.5</ele><time>2026-03-22T09:50:23.99Z</time></trkpt><trkpt lat="44.3758667" lon="11.0677167"><ele>298.6666666666667</ele><time>2026-03-22T09:50:24.992Z</time></trkpt><trkpt lat="44.3757833" lon="11.06768"><ele>297.8333333333333</ele><time>2026-03-22T09:50:25.998Z</time></trkpt><trkpt lat="44.3757017" lon="11.06761"><ele>297.0</ele><time>2026-03-22T09:50:26.996Z</time></trkpt><trkpt lat="44.3756283" lon="11.0675283"><ele>297.0</ele><time>2026-03-22T09:50:27.995Z</time></trkpt><trkpt lat="44.3755567" lon="11.06745"><ele>297.0</ele><time>2026-03-22T09:50:28.991Z</time></trkpt><trkpt lat="44.37549" lon="11.0673767"><ele>297.0</ele><time>2026-03-22T09:50:29.995Z</time></trkpt><trkpt lat="44.3754183" lon="11.0673183"><ele>297.0</ele><time>2026-03-22T09:50:30.99Z</time></trkpt><trkpt lat="44.3753517" lon="11.0672733"><ele>297.0</ele><time>2026-03-22T09:50:31.991Z</time></trkpt><trkpt lat="44.3752867" lon="11.0672433"><ele>297.0</ele><time>2026-03-22T09:50:32.993Z</time></trkpt><trkpt lat="44.37522" lon="11.0672283"><ele>296.8333333333333</ele><time>2026-03-22T09:50:33.99Z</time></trkpt><trkpt lat="44.3751483" lon="11.0672117"><ele>296.6666666666667</ele><time>2026-03-22T09:50:34.992Z</time></trkpt><trkpt lat="44.3750667" lon="11.0672033"><ele>296.5</ele><time>2026-03-22T09:50:35.995Z</time></trkpt><trkpt lat="44.3749767" lon="11.0672017"><ele>296.33333333333337</ele><time>2026-03-22T09:50:36.994Z</time></trkpt><trkpt lat="44.3748817" lon="11.0671917"><ele>296.1666666666667</ele><time>2026-03-22T09:50:37.991Z</time></trkpt><trkpt lat="44.3747783" lon="11.067185"><ele>296.0</ele><time>2026-03-22T09:50:38.992Z</time></trkpt><trkpt lat="44.374675" lon="11.067175"><ele>296.0</ele><time>2026-03-22T09:50:39.999Z</time></trkpt><trkpt lat="44.3745767" lon="11.0671733"><ele>296.0</ele><time>2026-03-22T09:50:40.994Z</time></trkpt><trkpt lat="44.3744817" lon="11.0671683"><ele>296.0</ele><time>2026-03-22T09:50:41.992Z</time></trkpt><trkpt lat="44.374385" lon="11.0671633"><ele>296.0</ele><time>2026-03-22T09:50:42.998Z</time></trkpt><trkpt lat="44.3742883" lon="11.067165"><ele>296.0</ele><time>2026-03-22T09:50:43.99Z</time></trkpt><trkpt lat="44.3741883" lon="11.067175"><ele>296.0</ele><time>2026-03-22T09:50:44.989Z</time></trkpt><trkpt lat="44.3740867" lon="11.0671833"><ele>296.0</ele><time>2026-03-22T09:50:45.992Z</time></trkpt><trkpt lat="44.3739867" lon="11.0671917"><ele>296.0</ele><time>2026-03-22T09:50:46.997Z</time></trkpt><trkpt lat="44.3738867" lon="11.0672017"><ele>296.0</ele><time>2026-03-22T09:50:47.99Z</time></trkpt><trkpt lat="44.3737867" lon="11.06721"><ele>296.0</ele><time>2026-03-22T09:50:48.997Z</time></trkpt><trkpt lat="44.37369" lon="11.0672183"><ele>296.1666666666667</ele><time>2026-03-22T09:50:49.994Z</time></trkpt><trkpt lat="44.3736017" lon="11.0672317"><ele>296.33333333333337</ele><time>2026-03-22T09:50:50.991Z</time></trkpt><trkpt lat="44.3735183" lon="11.0672433"><ele>296.5</ele><time>2026-03-22T09:50:51.992Z</time></trkpt><trkpt lat="44.3734383" lon="11.0672617"><ele>296.6666666666667</ele><time>2026-03-22T09:50:52.992Z</time></trkpt><trkpt lat="44.3733633" lon="11.06728"><ele>296.8333333333333</ele><time>2026-03-22T09:50:53.99Z</time></trkpt><trkpt lat="44.3732933" lon="11.06731"><ele>297.0</ele><time>2026-03-22T09:50:54.992Z</time></trkpt><trkpt lat="44.373225" lon="11.067355"><ele>297.0</ele><time>2026-03-22T09:50:55.99Z</time></trkpt><trkpt lat="44.3731633" lon="11.0674"><ele>297.0</ele><time>2026-03-22T09:50:56.995Z</time></trkpt><trkpt lat="44.3731033" lon="11.06745"><ele>297.0</ele><time>2026-03-22T09:50:57.993Z</time></trkpt><trkpt lat="44.373035" lon="11.0674917"><ele>297.0</ele><time>2026-03-22T09:50:58.99Z</time></trkpt><trkpt lat="44.3729683" lon="11.0675167"><ele>297.0</ele><time>2026-03-22T09:50:59.99Z</time></trkpt><trkpt lat="44.372905" lon="11.06753"><ele>297.0</ele><time>2026-03-22T09:51:00.994Z</time></trkpt><trkpt lat="44.3728483" lon="11.06749"><ele>297.0</ele><time>2026-03-22T09:51:01.992Z</time></trkpt><trkpt lat="44.37279" lon="11.0674167"><ele>298.75</ele><time>2026-03-22T09:51:02.998Z</time></trkpt><trkpt lat="44.3727167" lon="11.067315"><ele>300.5</ele><time>2026-03-22T09:51:03.991Z</time></trkpt><trkpt lat="44.372615" lon="11.0671833"><ele>302.25</ele><time>2026-03-22T09:51:04.993Z</time></trkpt><trkpt lat="44.372515" lon="11.0670567"><ele>304.0</ele><time>2026-03-22T09:51:05.99Z</time></trkpt><trkpt lat="44.3724133" lon="11.066945"><ele>304.0</ele><time>2026-03-22T09:51:06.989Z</time></trkpt><trkpt lat="44.372325" lon="11.0668417"><ele>304.0</ele><time>2026-03-22T09:51:07.99Z</time></trkpt><trkpt lat="44.3722383" lon="11.0667367"><ele>304.0</ele><time>2026-03-22T09:51:08.993Z</time></trkpt><trkpt lat="44.3721417" lon="11.066635"><ele>304.0</ele><time>2026-03-22T09:51:09.989Z</time></trkpt><trkpt lat="44.3720533" lon="11.06653"><ele>308.25</ele><time>2026-03-22T09:51:10.994Z</time></trkpt><trkpt lat="44.37196" lon="11.0664383"><ele>312.5</ele><time>2026-03-22T09:51:11.996Z</time></trkpt><trkpt lat="44.3718567" lon="11.066365"><ele>316.75</ele><time>2026-03-22T09:51:12.991Z</time></trkpt><trkpt lat="44.371755" lon="11.066305"><ele>321.0</ele><time>2026-03-22T09:51:13.99Z</time></trkpt><trkpt lat="44.3716483" lon="11.0662467"><ele>321.0</ele><time>2026-03-22T09:51:15.001Z</time></trkpt><trkpt lat="44.3715467" lon="11.0661883"><ele>321.0</ele><time>2026-03-22T09:51:15.995Z</time></trkpt><trkpt lat="44.3714483" lon="11.06612"><ele>321.0</ele><time>2026-03-22T09:51:16.991Z</time></trkpt><trkpt lat="44.3713533" lon="11.06607"><ele>321.0</ele><time>2026-03-22T09:51:17.995Z</time></trkpt><trkpt lat="44.37127" lon="11.0660417"><ele>321.0</ele><time>2026-03-22T09:51:18.992Z</time></trkpt><trkpt lat="44.3711783" lon="11.0660267"><ele>325.1666666666667</ele><time>2026-03-22T09:51:19.994Z</time></trkpt><trkpt lat="44.371105" lon="11.0660633"><ele>329.3333333333333</ele><time>2026-03-22T09:51:20.99Z</time></trkpt><trkpt lat="44.3710383" lon="11.0660767"><ele>333.5</ele><time>2026-03-22T09:51:21.991Z</time></trkpt><trkpt lat="44.3709167" lon="11.0660733"><ele>337.66666666666663</ele><time>2026-03-22T09:51:23.99Z</time></trkpt><trkpt lat="44.3708417" lon="11.0660433"><ele>341.8333333333333</ele><time>2026-03-22T09:51:24.992Z</time></trkpt><trkpt lat="44.37076" lon="11.0660267"><ele>346.0</ele><time>2026-03-22T09:51:25.991Z</time></trkpt><trkpt lat="44.3706867" lon="11.0660183"><ele>346.0</ele><time>2026-03-22T09:51:26.992Z</time></trkpt><trkpt lat="44.37062" lon="11.06604"><ele>346.0</ele><time>2026-03-22T09:51:27.989Z</time></trkpt><trkpt lat="44.3705553" lon="11.0660895"><ele>346.0</ele><time>2026-03-22T09:51:28.994Z</time></trkpt><trkpt lat="44.3704972" lon="11.0661523"><ele>346.0</ele><time>2026-03-22T09:51:29.993Z</time></trkpt><trkpt lat="44.3704499" lon="11.0662367"><ele>346.0</ele><time>2026-03-22T09:51:30.991Z</time></trkpt><trkpt lat="44.3704062" lon="11.0663496"><ele>346.0</ele><time>2026-03-22T09:51:31.994Z</time></trkpt><trkpt lat="44.3703611" lon="11.0664739"><ele>350.0</ele><time>2026-03-22T09:51:33.001Z</time></trkpt><trkpt lat="44.3703358" lon="11.0665914"><ele>354.0</ele><time>2026-03-22T09:51:33.993Z</time></trkpt><trkpt lat="44.3703325" lon="11.0666874"><ele>358.0</ele><time>2026-03-22T09:51:34.994Z</time></trkpt><trkpt lat="44.3703897" lon="11.0667694"><ele>362.0</ele><time>2026-03-22T09:51:36.994Z</time></trkpt><trkpt lat="44.3704613" lon="11.0667561"><ele>366.0</ele><time>2026-03-22T09:51:37.993Z</time></trkpt><trkpt lat="44.3705407" lon="11.0667705"><ele>370.0</ele><time>2026-03-22T09:51:38.991Z</time></trkpt><trkpt lat="44.3706214" lon="11.0668149"><ele>370.4</ele><time>2026-03-22T09:51:39.987Z</time></trkpt><trkpt lat="44.3707202" lon="11.0669056"><ele>370.8</ele><time>2026-03-22T09:51:40.994Z</time></trkpt><trkpt lat="44.370817" lon="11.0669879"><ele>371.20000000000005</ele><time>2026-03-22T09:51:41.996Z</time></trkpt><trkpt lat="44.3709031" lon="11.067067"><ele>371.6</ele><time>2026-03-22T09:51:42.993Z</time></trkpt><trkpt lat="44.3709832" lon="11.0671443"><ele>372.0</ele><time>2026-03-22T09:51:43.993Z</time></trkpt><trkpt lat="44.3710271" lon="11.0672554"><ele>372.0</ele><time>2026-03-22T09:51:44.99Z</time></trkpt><trkpt lat="44.371048" lon="11.0673809"><ele>372.0</ele><time>2026-03-22T09:51:45.999Z</time></trkpt><trkpt lat="44.3710607" lon="11.0675001"><ele>372.0</ele><time>2026-03-22T09:51:46.995Z</time></trkpt><trkpt lat="44.3709874" lon="11.0675762"><ele>372.0</ele><time>2026-03-22T09:51:49Z</time></trkpt><trkpt lat="44.3708772" lon="11.0675196"><ele>372.0</ele><time>2026-03-22T09:51:50.994Z</time></trkpt><trkpt lat="44.3707716" lon="11.0674925"><ele>375.8</ele><time>2026-03-22T09:51:52.987Z</time></trkpt><trkpt lat="44.3707094" lon="11.0675386"><ele>379.6</ele><time>2026-03-22T09:51:53.993Z</time></trkpt><trkpt lat="44.3706298" lon="11.0676084"><ele>383.40000000000003</ele><time>2026-03-22T09:51:54.996Z</time></trkpt><trkpt lat="44.3705421" lon="11.0676921"><ele>387.20000000000005</ele><time>2026-03-22T09:51:55.996Z</time></trkpt><trkpt lat="44.3704544" lon="11.0677757"><ele>391.0</ele><time>2026-03-22T09:51:56.991Z</time></trkpt><trkpt lat="44.3703663" lon="11.0678542"><ele>393.20000000000005</ele><time>2026-03-22T09:51:57.991Z</time></trkpt><trkpt lat="44.3702772" lon="11.0679201"><ele>395.40000000000003</ele><time>2026-03-22T09:51:58.991Z</time></trkpt><trkpt lat="44.3701815" lon="11.067962"><ele>397.6</ele><time>2026-03-22T09:51:59.99Z</time></trkpt><trkpt lat="44.3700842" lon="11.0680001"><ele>399.8</ele><time>2026-03-22T09:52:00.99Z</time></trkpt><trkpt lat="44.3699846" lon="11.0680587"><ele>402.0</ele><time>2026-03-22T09:52:01.996Z</time></trkpt><trkpt lat="44.3698989" lon="11.0681325"><ele>402.0</ele><time>2026-03-22T09:52:02.993Z</time></trkpt><trkpt lat="44.3698168" lon="11.0682004"><ele>402.0</ele><time>2026-03-22T09:52:03.992Z</time></trkpt><trkpt lat="44.3697345" lon="11.0682463"><ele>402.0</ele><time>2026-03-22T09:52:04.99Z</time></trkpt><trkpt lat="44.369646" lon="11.0682689"><ele>402.0</ele><time>2026-03-22T09:52:05.987Z</time></trkpt><trkpt lat="44.3695568" lon="11.0682791"><ele>402.0</ele><time>2026-03-22T09:52:06.993Z</time></trkpt><trkpt lat="44.3694715" lon="11.0682925"><ele>402.0</ele><time>2026-03-22T09:52:07.989Z</time></trkpt><trkpt lat="44.3693946" lon="11.068323"><ele>406.0</ele><time>2026-03-22T09:52:08.989Z</time></trkpt><trkpt lat="44.369339" lon="11.0684183"><ele>410.0</ele><time>2026-03-22T09:52:09.99Z</time></trkpt><trkpt lat="44.3693073" lon="11.0685371"><ele>414.0</ele><time>2026-03-22T09:52:10.991Z</time></trkpt><trkpt lat="44.3692907" lon="11.0686489"><ele>418.0</ele><time>2026-03-22T09:52:11.989Z</time></trkpt><trkpt lat="44.369271" lon="11.0687429"><ele>422.0</ele><time>2026-03-22T09:52:12.994Z</time></trkpt><trkpt lat="44.3692135" lon="11.0688802"><ele>426.0</ele><time>2026-03-22T09:52:14.989Z</time></trkpt><trkpt lat="44.3691658" lon="11.068939"><ele>425.99999999999994</ele><time>2026-03-22T09:52:15.99Z</time></trkpt><trkpt lat="44.3691121" lon="11.0689954"><ele>426.0</ele><time>2026-03-22T09:52:16.995Z</time></trkpt><trkpt lat="44.3690565" lon="11.0690503"><ele>426.0</ele><time>2026-03-22T09:52:17.991Z</time></trkpt><trkpt lat="44.3689979" lon="11.0691004"><ele>426.0</ele><time>2026-03-22T09:52:18.993Z</time></trkpt><trkpt lat="44.3689394" lon="11.0691522"><ele>426.0</ele><time>2026-03-22T09:52:19.994Z</time></trkpt><trkpt lat="44.3688848" lon="11.0692083"><ele>425.99999999999994</ele><time>2026-03-22T09:52:20.999Z</time></trkpt><trkpt lat="44.3688331" lon="11.0692639"><ele>426.0</ele><time>2026-03-22T09:52:21.992Z</time></trkpt><trkpt lat="44.3687807" lon="11.0693174"><ele>430.0</ele><time>2026-03-22T09:52:22.992Z</time></trkpt><trkpt lat="44.3686894" lon="11.0694135"><ele>434.0</ele><time>2026-03-22T09:52:24.992Z</time></trkpt><trkpt lat="44.3686048" lon="11.0695077"><ele>438.0</ele><time>2026-03-22T09:52:26.99Z</time></trkpt><trkpt lat="44.3685258" lon="11.0695953"><ele>442.0</ele><time>2026-03-22T09:52:28.99Z</time></trkpt><trkpt lat="44.3684428" lon="11.06966"><ele>446.0</ele><time>2026-03-22T09:52:30.992Z</time></trkpt><trkpt lat="44.3683586" lon="11.0697153"><ele>446.0</ele><time>2026-03-22T09:52:32.992Z</time></trkpt><trkpt lat="44.3682667" lon="11.0697583"><ele>446.0</ele><time>2026-03-22T09:52:34.99Z</time></trkpt><trkpt lat="44.3681683" lon="11.069795"><ele>446.0</ele><time>2026-03-22T09:52:36.991Z</time></trkpt><trkpt lat="44.3680717" lon="11.06983"><ele>446.0</ele><time>2026-03-22T09:52:38.999Z</time></trkpt><trkpt lat="44.3679833" lon="11.0698683"><ele>446.0</ele><time>2026-03-22T09:52:40.995Z</time></trkpt><trkpt lat="44.3678967" lon="11.06991"><ele>447.8</ele><time>2026-03-22T09:52:42.99Z</time></trkpt><trkpt lat="44.3677633" lon="11.06992"><ele>449.6</ele><time>2026-03-22T09:52:44.994Z</time></trkpt><trkpt lat="44.3676733" lon="11.0698967"><ele>451.4</ele><time>2026-03-22T09:52:45.989Z</time></trkpt><trkpt lat="44.36759" lon="11.069875"><ele>453.2</ele><time>2026-03-22T09:52:46.991Z</time></trkpt><trkpt lat="44.3675133" lon="11.0698517"><ele>455.0</ele><time>2026-03-22T09:52:47.992Z</time></trkpt><trkpt lat="44.36744" lon="11.0698317"><ele>454.99999999999994</ele><time>2026-03-22T09:52:48.991Z</time></trkpt><trkpt lat="44.3673717" lon="11.0698083"><ele>455.0</ele><time>2026-03-22T09:52:49.995Z</time></trkpt><trkpt lat="44.3673067" lon="11.0697867"><ele>455.0</ele><time>2026-03-22T09:52:50.993Z</time></trkpt><trkpt lat="44.3672417" lon="11.069765"><ele>455.0</ele><time>2026-03-22T09:52:51.991Z</time></trkpt><trkpt lat="44.36713" lon="11.0697217"><ele>454.99999999999994</ele><time>2026-03-22T09:52:54Z</time></trkpt><trkpt lat="44.3670217" lon="11.0696933"><ele>455.0</ele><time>2026-03-22T09:52:55.992Z</time></trkpt><trkpt lat="44.3669117" lon="11.0696417"><ele>457.4</ele><time>2026-03-22T09:52:57.993Z</time></trkpt><trkpt lat="44.3668" lon="11.0696267"><ele>459.8</ele><time>2026-03-22T09:52:59.992Z</time></trkpt><trkpt lat="44.3667067" lon="11.0697"><ele>462.20000000000005</ele><time>2026-03-22T09:53:01.986Z</time></trkpt><trkpt lat="44.3666217" lon="11.06982"><ele>464.6</ele><time>2026-03-22T09:53:03.989Z</time></trkpt><trkpt lat="44.3665867" lon="11.069895"><ele>467.0</ele><time>2026-03-22T09:53:04.99Z</time></trkpt><trkpt lat="44.3665567" lon="11.069985"><ele>466.99999999999994</ele><time>2026-03-22T09:53:05.994Z</time></trkpt><trkpt lat="44.3665367" lon="11.0700767"><ele>467.0</ele><time>2026-03-22T09:53:06.989Z</time></trkpt><trkpt lat="44.3665017" lon="11.0701617"><ele>467.0</ele><time>2026-03-22T09:53:07.996Z</time></trkpt><trkpt lat="44.3664617" lon="11.0702483"><ele>467.0</ele><time>2026-03-22T09:53:08.997Z</time></trkpt><trkpt lat="44.36641" lon="11.07034"><ele>466.99999999999994</ele><time>2026-03-22T09:53:09.994Z</time></trkpt><trkpt lat="44.3663517" lon="11.0704417"><ele>467.0</ele><time>2026-03-22T09:53:10.994Z</time></trkpt><trkpt lat="44.3662967" lon="11.0705567"><ele>470.20000000000005</ele><time>2026-03-22T09:53:11.996Z</time></trkpt><trkpt lat="44.3662333" lon="11.0706667"><ele>473.40000000000003</ele><time>2026-03-22T09:53:12.998Z</time></trkpt><trkpt lat="44.3661833" lon="11.0707667"><ele>476.59999999999997</ele><time>2026-03-22T09:53:13.995Z</time></trkpt><trkpt lat="44.3661233" lon="11.07087"><ele>479.79999999999995</ele><time>2026-03-22T09:53:14.993Z</time></trkpt><trkpt lat="44.3660583" lon="11.0709717"><ele>483.0</ele><time>2026-03-22T09:53:15.989Z</time></trkpt><trkpt lat="44.3659983" lon="11.071055"><ele>483.0</ele><time>2026-03-22T09:53:16.99Z</time></trkpt><trkpt lat="44.3659267" lon="11.0711317"><ele>482.99999999999994</ele><time>2026-03-22T09:53:17.992Z</time></trkpt><trkpt lat="44.3658417" lon="11.0712083"><ele>482.99999999999994</ele><time>2026-03-22T09:53:18.997Z</time></trkpt><trkpt lat="44.36575" lon="11.0712767"><ele>483.0</ele><time>2026-03-22T09:53:19.991Z</time></trkpt><trkpt lat="44.3656667" lon="11.0713367"><ele>483.0</ele><time>2026-03-22T09:53:20.992Z</time></trkpt><trkpt lat="44.3655867" lon="11.0714"><ele>483.6666666666667</ele><time>2026-03-22T09:53:21.993Z</time></trkpt><trkpt lat="44.3655217" lon="11.0714733"><ele>484.33333333333337</ele><time>2026-03-22T09:53:22.997Z</time></trkpt><trkpt lat="44.365455" lon="11.0715283"><ele>485.0</ele><time>2026-03-22T09:53:23.993Z</time></trkpt><trkpt lat="44.365385" lon="11.07157"><ele>485.6666666666667</ele><time>2026-03-22T09:53:24.994Z</time></trkpt><trkpt lat="44.36532" lon="11.0716133"><ele>486.33333333333337</ele><time>2026-03-22T09:53:25.992Z</time></trkpt><trkpt lat="44.3652633" lon="11.0716833"><ele>487.0</ele><time>2026-03-22T09:53:26.994Z</time></trkpt><trkpt lat="44.3652167" lon="11.0717583"><ele>487.00000000000006</ele><time>2026-03-22T09:53:27.99Z</time></trkpt><trkpt lat="44.3651817" lon="11.0718367"><ele>487.0</ele><time>2026-03-22T09:53:28.994Z</time></trkpt><trkpt lat="44.3651417" lon="11.0719117"><ele>487.0</ele><time>2026-03-22T09:53:29.988Z</time></trkpt><trkpt lat="44.3650333" lon="11.072"><ele>487.0</ele><time>2026-03-22T09:53:31.992Z</time></trkpt><trkpt lat="44.3649633" lon="11.0720117"><ele>487.00000000000006</ele><time>2026-03-22T09:53:32.99Z</time></trkpt><trkpt lat="44.3648883" lon="11.072015"><ele>487.0</ele><time>2026-03-22T09:53:33.993Z</time></trkpt><trkpt lat="44.3648083" lon="11.0720183"><ele>487.00000000000006</ele><time>2026-03-22T09:53:34.988Z</time></trkpt><trkpt lat="44.364735" lon="11.072015"><ele>487.0</ele><time>2026-03-22T09:53:35.987Z</time></trkpt><trkpt lat="44.3646617" lon="11.0720183"><ele>487.0</ele><time>2026-03-22T09:53:36.989Z</time></trkpt><trkpt lat="44.3645783" lon="11.0720367"><ele>487.0</ele><time>2026-03-22T09:53:37.992Z</time></trkpt><trkpt lat="44.3644933" lon="11.0720467"><ele>487.00000000000006</ele><time>2026-03-22T09:53:38.992Z</time></trkpt><trkpt lat="44.36441" lon="11.07204"><ele>487.0</ele><time>2026-03-22T09:53:39.995Z</time></trkpt><trkpt lat="44.364335" lon="11.07203"><ele>489.42857142857144</ele><time>2026-03-22T09:53:40.993Z</time></trkpt><trkpt lat="44.3642617" lon="11.0720117"><ele>491.85714285714283</ele><time>2026-03-22T09:53:41.991Z</time></trkpt><trkpt lat="44.3641883" lon="11.07198"><ele>494.2857142857143</ele><time>2026-03-22T09:53:42.994Z</time></trkpt><trkpt lat="44.36412" lon="11.0719417"><ele>496.7142857142857</ele><time>2026-03-22T09:53:43.992Z</time></trkpt><trkpt lat="44.3640667" lon="11.07188"><ele>499.1428571428571</ele><time>2026-03-22T09:53:44.991Z</time></trkpt><trkpt lat="44.364025" lon="11.071795"><ele>501.57142857142856</ele><time>2026-03-22T09:53:45.989Z</time></trkpt><trkpt lat="44.3639867" lon="11.071695"><ele>504.0</ele><time>2026-03-22T09:53:46.988Z</time></trkpt><trkpt lat="44.3639483" lon="11.0716133"><ele>504.79999999999995</ele><time>2026-03-22T09:53:47.991Z</time></trkpt><trkpt lat="44.36388" lon="11.0714667"><ele>505.59999999999997</ele><time>2026-03-22T09:53:49.993Z</time></trkpt><trkpt lat="44.36384" lon="11.07139"><ele>506.4</ele><time>2026-03-22T09:53:50.992Z</time></trkpt><trkpt lat="44.3638083" lon="11.071305"><ele>507.2</ele><time>2026-03-22T09:53:51.993Z</time></trkpt><trkpt lat="44.3637833" lon="11.07122"><ele>508.0</ele><time>2026-03-22T09:53:52.99Z</time></trkpt><trkpt lat="44.3637383" lon="11.07105"><ele>508.00000000000006</ele><time>2026-03-22T09:53:54.991Z</time></trkpt><trkpt lat="44.36371" lon="11.0709567"><ele>508.0</ele><time>2026-03-22T09:53:55.991Z</time></trkpt><trkpt lat="44.36369" lon="11.0708633"><ele>508.0</ele><time>2026-03-22T09:53:56.995Z</time></trkpt><trkpt lat="44.3636617" lon="11.0707583"><ele>508.0</ele><time>2026-03-22T09:53:57.992Z</time></trkpt><trkpt lat="44.3636317" lon="11.0706483"><ele>508.00000000000006</ele><time>2026-03-22T09:53:58.993Z</time></trkpt><trkpt lat="44.3636117" lon="11.0705367"><ele>508.0</ele><time>2026-03-22T09:53:59.991Z</time></trkpt><trkpt lat="44.3635917" lon="11.070435"><ele>510.42857142857144</ele><time>2026-03-22T09:54:00.996Z</time></trkpt><trkpt lat="44.3635733" lon="11.0703367"><ele>512.8571428571429</ele><time>2026-03-22T09:54:01.99Z</time></trkpt><trkpt lat="44.363555" lon="11.0702317"><ele>515.2857142857142</ele><time>2026-03-22T09:54:02.99Z</time></trkpt><trkpt lat="44.3635433" lon="11.07013"><ele>517.7142857142858</ele><time>2026-03-22T09:54:03.991Z</time></trkpt><trkpt lat="44.3635367" lon="11.0700317"><ele>520.1428571428571</ele><time>2026-03-22T09:54:04.993Z</time></trkpt><trkpt lat="44.363525" lon="11.06993"><ele>522.5714285714286</ele><time>2026-03-22T09:54:05.991Z</time></trkpt><trkpt lat="44.363515" lon="11.0698283"><ele>525.0</ele><time>2026-03-22T09:54:06.989Z</time></trkpt><trkpt lat="44.3635083" lon="11.069735"><ele>526.2857142857143</ele><time>2026-03-22T09:54:07.995Z</time></trkpt><trkpt lat="44.3635083" lon="11.0696467"><ele>527.5714285714286</ele><time>2026-03-22T09:54:08.992Z</time></trkpt><trkpt lat="44.3635133" lon="11.06955"><ele>528.8571428571429</ele><time>2026-03-22T09:54:09.991Z</time></trkpt><trkpt lat="44.3635217" lon="11.0694467"><ele>530.1428571428571</ele><time>2026-03-22T09:54:10.992Z</time></trkpt><trkpt lat="44.3635233" lon="11.0693483"><ele>531.4285714285714</ele><time>2026-03-22T09:54:11.995Z</time></trkpt><trkpt lat="44.363515" lon="11.0692133"><ele>532.7142857142858</ele><time>2026-03-22T09:54:13.993Z</time></trkpt><trkpt lat="44.36345" lon="11.0691633"><ele>534.0</ele><time>2026-03-22T09:54:16.991Z</time></trkpt><trkpt lat="44.3633633" lon="11.0691867"><ele>534.0</ele><time>2026-03-22T09:54:18.992Z</time></trkpt><trkpt lat="44.3632617" lon="11.069205"><ele>534.0</ele><time>2026-03-22T09:54:20.992Z</time></trkpt><trkpt lat="44.3631633" lon="11.069205"><ele>534.0</ele><time>2026-03-22T09:54:22.991Z</time></trkpt><trkpt lat="44.3630733" lon="11.0692033"><ele>534.0</ele><time>2026-03-22T09:54:24.993Z</time></trkpt><trkpt lat="44.3629767" lon="11.06918"><ele>534.0</ele><time>2026-03-22T09:54:26.99Z</time></trkpt><trkpt lat="44.3629167" lon="11.0691467"><ele>533.3333333333334</ele><time>2026-03-22T09:54:27.992Z</time></trkpt><trkpt lat="44.36285" lon="11.0691083"><ele>532.6666666666666</ele><time>2026-03-22T09:54:28.99Z</time></trkpt><trkpt lat="44.3627767" lon="11.0690617"><ele>532.0</ele><time>2026-03-22T09:54:29.995Z</time></trkpt><trkpt lat="44.3627" lon="11.0690067"><ele>531.3333333333333</ele><time>2026-03-22T09:54:30.993Z</time></trkpt><trkpt lat="44.3626217" lon="11.0689517"><ele>530.6666666666666</ele><time>2026-03-22T09:54:31.995Z</time></trkpt><trkpt lat="44.3625383" lon="11.0688917"><ele>530.0</ele><time>2026-03-22T09:54:32.992Z</time></trkpt><trkpt lat="44.3624517" lon="11.068835"><ele>530.0</ele><time>2026-03-22T09:54:33.99Z</time></trkpt><trkpt lat="44.3623683" lon="11.0687667"><ele>530.0</ele><time>2026-03-22T09:54:34.991Z</time></trkpt><trkpt lat="44.362285" lon="11.0686983"><ele>530.0</ele><time>2026-03-22T09:54:35.992Z</time></trkpt><trkpt lat="44.362195" lon="11.0686183"><ele>530.0</ele><time>2026-03-22T09:54:36.994Z</time></trkpt><trkpt lat="44.3620983" lon="11.0685267"><ele>530.0</ele><time>2026-03-22T09:54:37.993Z</time></trkpt><trkpt lat="44.362" lon="11.0684333"><ele>530.4</ele><time>2026-03-22T09:54:38.991Z</time></trkpt><trkpt lat="44.3619067" lon="11.0683517"><ele>530.8</ele><time>2026-03-22T09:54:39.987Z</time></trkpt><trkpt lat="44.3618117" lon="11.0682917"><ele>531.2</ele><time>2026-03-22T09:54:40.995Z</time></trkpt><trkpt lat="44.3617067" lon="11.06825"><ele>531.6</ele><time>2026-03-22T09:54:41.994Z</time></trkpt><trkpt lat="44.3615983" lon="11.068215"><ele>532.0</ele><time>2026-03-22T09:54:42.99Z</time></trkpt><trkpt lat="44.3614867" lon="11.0681767"><ele>532.0</ele><time>2026-03-22T09:54:43.994Z</time></trkpt><trkpt lat="44.3613733" lon="11.068145"><ele>532.0</ele><time>2026-03-22T09:54:44.99Z</time></trkpt><trkpt lat="44.36126" lon="11.0681267"><ele>532.0</ele><time>2026-03-22T09:54:45.993Z</time></trkpt><trkpt lat="44.3611467" lon="11.0681283"><ele>532.0</ele><time>2026-03-22T09:54:46.99Z</time></trkpt><trkpt lat="44.36104" lon="11.0681517"><ele>533.6</ele><time>2026-03-22T09:54:47.993Z</time></trkpt><trkpt lat="44.3609367" lon="11.0681883"><ele>535.2</ele><time>2026-03-22T09:54:48.989Z</time></trkpt><trkpt lat="44.360835" lon="11.06823"><ele>536.8</ele><time>2026-03-22T09:54:49.993Z</time></trkpt><trkpt lat="44.3607283" lon="11.068265"><ele>538.4</ele><time>2026-03-22T09:54:50.99Z</time></trkpt><trkpt lat="44.360615" lon="11.0682817"><ele>540.0</ele><time>2026-03-22T09:54:51.993Z</time></trkpt><trkpt lat="44.360495" lon="11.0683"><ele>541.75</ele><time>2026-03-22T09:54:52.988Z</time></trkpt><trkpt lat="44.3603733" lon="11.0683233"><ele>543.5</ele><time>2026-03-22T09:54:53.991Z</time></trkpt><trkpt lat="44.3602517" lon="11.0683617"><ele>545.25</ele><time>2026-03-22T09:54:54.99Z</time></trkpt><trkpt lat="44.36014" lon="11.0683967"><ele>547.0</ele><time>2026-03-22T09:54:55.991Z</time></trkpt><trkpt lat="44.3600367" lon="11.0684333"><ele>547.0</ele><time>2026-03-22T09:54:56.991Z</time></trkpt><trkpt lat="44.3599317" lon="11.06847"><ele>547.0</ele><time>2026-03-22T09:54:57.988Z</time></trkpt><trkpt lat="44.3598217" lon="11.0685017"><ele>547.0</ele><time>2026-03-22T09:54:58.994Z</time></trkpt><trkpt lat="44.3597033" lon="11.06854"><ele>547.0</ele><time>2026-03-22T09:54:59.994Z</time></trkpt><trkpt lat="44.359585" lon="11.0685783"><ele>547.25</ele><time>2026-03-22T09:55:00.992Z</time></trkpt><trkpt lat="44.3594667" lon="11.0686233"><ele>547.5</ele><time>2026-03-22T09:55:01.992Z</time></trkpt><trkpt lat="44.3593517" lon="11.068675"><ele>547.75</ele><time>2026-03-22T09:55:02.993Z</time></trkpt><trkpt lat="44.3592383" lon="11.06873"><ele>548.0</ele><time>2026-03-22T09:55:03.989Z</time></trkpt><trkpt lat="44.3591317" lon="11.0687967"><ele>548.0</ele><time>2026-03-22T09:55:04.988Z</time></trkpt><trkpt lat="44.3590283" lon="11.0688783"><ele>548.0</ele><time>2026-03-22T09:55:05.992Z</time></trkpt><trkpt lat="44.3589217" lon="11.0689583"><ele>548.0</ele><time>2026-03-22T09:55:06.992Z</time></trkpt><trkpt lat="44.3588167" lon="11.0690317"><ele>548.0</ele><time>2026-03-22T09:55:07.993Z</time></trkpt><trkpt lat="44.3587117" lon="11.0690967"><ele>547.0</ele><time>2026-03-22T09:55:08.993Z</time></trkpt><trkpt lat="44.3586083" lon="11.0691483"><ele>546.0</ele><time>2026-03-22T09:55:09.99Z</time></trkpt><trkpt lat="44.3585033" lon="11.0692017"><ele>545.0</ele><time>2026-03-22T09:55:10.991Z</time></trkpt><trkpt lat="44.358405" lon="11.069255"><ele>544.0</ele><time>2026-03-22T09:55:11.99Z</time></trkpt><trkpt lat="44.35831" lon="11.069305"><ele>543.0</ele><time>2026-03-22T09:55:12.99Z</time></trkpt><trkpt lat="44.3582217" lon="11.0693567"><ele>543.0</ele><time>2026-03-22T09:55:13.993Z</time></trkpt><trkpt lat="44.3581433" lon="11.0694167"><ele>543.0</ele><time>2026-03-22T09:55:14.99Z</time></trkpt><trkpt lat="44.35807" lon="11.0695"><ele>543.0</ele><time>2026-03-22T09:55:15.993Z</time></trkpt><trkpt lat="44.3580083" lon="11.069605"><ele>543.0</ele><time>2026-03-22T09:55:16.996Z</time></trkpt><trkpt lat="44.357965" lon="11.0697333"><ele>543.0</ele><time>2026-03-22T09:55:17.99Z</time></trkpt><trkpt lat="44.3579183" lon="11.0698817"><ele>543.25</ele><time>2026-03-22T09:55:18.991Z</time></trkpt><trkpt lat="44.35788" lon="11.070035"><ele>543.5</ele><time>2026-03-22T09:55:19.993Z</time></trkpt><trkpt lat="44.3578433" lon="11.0701883"><ele>543.75</ele><time>2026-03-22T09:55:20.993Z</time></trkpt><trkpt lat="44.3578033" lon="11.0703333"><ele>544.0</ele><time>2026-03-22T09:55:21.992Z</time></trkpt><trkpt lat="44.3577517" lon="11.0704683"><ele>544.0</ele><time>2026-03-22T09:55:22.994Z</time></trkpt><trkpt lat="44.357685" lon="11.0705933"><ele>544.0</ele><time>2026-03-22T09:55:23.99Z</time></trkpt><trkpt lat="44.3576167" lon="11.07071"><ele>544.0</ele><time>2026-03-22T09:55:24.993Z</time></trkpt><trkpt lat="44.3575633" lon="11.0708083"><ele>544.0</ele><time>2026-03-22T09:55:25.991Z</time></trkpt><trkpt lat="44.3575217" lon="11.0708933"><ele>544.0</ele><time>2026-03-22T09:55:26.992Z</time></trkpt><trkpt lat="44.3574967" lon="11.0709867"><ele>543.2</ele><time>2026-03-22T09:55:27.991Z</time></trkpt><trkpt lat="44.3574917" lon="11.07109"><ele>542.4</ele><time>2026-03-22T09:55:28.989Z</time></trkpt><trkpt lat="44.35751" lon="11.0712067"><ele>541.6</ele><time>2026-03-22T09:55:29.99Z</time></trkpt><trkpt lat="44.3575567" lon="11.07134"><ele>540.8</ele><time>2026-03-22T09:55:30.992Z</time></trkpt><trkpt lat="44.3576333" lon="11.0714883"><ele>540.0</ele><time>2026-03-22T09:55:31.99Z</time></trkpt><trkpt lat="44.3576983" lon="11.07164"><ele>539.0</ele><time>2026-03-22T09:55:32.996Z</time></trkpt><trkpt lat="44.3577533" lon="11.071785"><ele>538.0</ele><time>2026-03-22T09:55:33.992Z</time></trkpt><trkpt lat="44.3578033" lon="11.0719183"><ele>537.0</ele><time>2026-03-22T09:55:34.99Z</time></trkpt><trkpt lat="44.357845" lon="11.07203"><ele>536.0</ele><time>2026-03-22T09:55:35.988Z</time></trkpt><trkpt lat="44.3578867" lon="11.0721183"><ele>535.0</ele><time>2026-03-22T09:55:36.994Z</time></trkpt><trkpt lat="44.3579333" lon="11.07219"><ele>535.0</ele><time>2026-03-22T09:55:37.994Z</time></trkpt><trkpt lat="44.3580017" lon="11.07219"><ele>535.0</ele><time>2026-03-22T09:55:38.994Z</time></trkpt><trkpt lat="44.3580667" lon="11.07218"><ele>535.0</ele><time>2026-03-22T09:55:39.988Z</time></trkpt><trkpt lat="44.3581117" lon="11.07209"><ele>535.0</ele><time>2026-03-22T09:55:40.992Z</time></trkpt><trkpt lat="44.3581433" lon="11.0719983"><ele>535.0</ele><time>2026-03-22T09:55:41.993Z</time></trkpt><trkpt lat="44.358165" lon="11.0719083"><ele>535.0</ele><time>2026-03-22T09:55:42.991Z</time></trkpt><trkpt lat="44.3582467" lon="11.0718167"><ele>532.2</ele><time>2026-03-22T09:55:44.992Z</time></trkpt><trkpt lat="44.3583" lon="11.0719267"><ele>529.4</ele><time>2026-03-22T09:55:46.992Z</time></trkpt><trkpt lat="44.3582933" lon="11.0720367"><ele>526.6</ele><time>2026-03-22T09:55:47.991Z</time></trkpt><trkpt lat="44.3582733" lon="11.072155"><ele>523.8</ele><time>2026-03-22T09:55:48.994Z</time></trkpt><trkpt lat="44.358245" lon="11.0722883"><ele>521.0</ele><time>2026-03-22T09:55:49.989Z</time></trkpt><trkpt lat="44.3582067" lon="11.0724133"><ele>520.1666666666666</ele><time>2026-03-22T09:55:50.991Z</time></trkpt><trkpt lat="44.3581683" lon="11.07252"><ele>519.3333333333333</ele><time>2026-03-22T09:55:51.996Z</time></trkpt><trkpt lat="44.3581217" lon="11.0726117"><ele>518.5</ele><time>2026-03-22T09:55:52.991Z</time></trkpt><trkpt lat="44.3580667" lon="11.072685"><ele>517.6666666666666</ele><time>2026-03-22T09:55:53.99Z</time></trkpt><trkpt lat="44.3579867" lon="11.0727467"><ele>516.8333333333334</ele><time>2026-03-22T09:55:54.999Z</time></trkpt><trkpt lat="44.3578983" lon="11.072805"><ele>516.0</ele><time>2026-03-22T09:55:55.991Z</time></trkpt><trkpt lat="44.357815" lon="11.0728633"><ele>516.1666666666666</ele><time>2026-03-22T09:55:56.991Z</time></trkpt><trkpt lat="44.35775" lon="11.0729283"><ele>516.3333333333334</ele><time>2026-03-22T09:55:57.989Z</time></trkpt><trkpt lat="44.357695" lon="11.0730017"><ele>516.5</ele><time>2026-03-22T09:55:58.992Z</time></trkpt><trkpt lat="44.357695" lon="11.0731033"><ele>516.6666666666667</ele><time>2026-03-22T09:55:59.996Z</time></trkpt><trkpt lat="44.357715" lon="11.0732067"><ele>516.8333333333334</ele><time>2026-03-22T09:56:00.99Z</time></trkpt><trkpt lat="44.3577717" lon="11.0733167"><ele>517.0</ele><time>2026-03-22T09:56:01.992Z</time></trkpt><trkpt lat="44.3578517" lon="11.07345"><ele>517.0</ele><time>2026-03-22T09:56:02.991Z</time></trkpt><trkpt lat="44.357905" lon="11.0735933"><ele>517.0</ele><time>2026-03-22T09:56:03.992Z</time></trkpt><trkpt lat="44.35794" lon="11.07376"><ele>517.0</ele><time>2026-03-22T09:56:04.991Z</time></trkpt><trkpt lat="44.357955" lon="11.0739383"><ele>517.0</ele><time>2026-03-22T09:56:05.988Z</time></trkpt><trkpt lat="44.3579617" lon="11.07411"><ele>515.5</ele><time>2026-03-22T09:56:06.99Z</time></trkpt><trkpt lat="44.3579633" lon="11.0742783"><ele>514.0</ele><time>2026-03-22T09:56:07.991Z</time></trkpt><trkpt lat="44.3579583" lon="11.0744483"><ele>512.5</ele><time>2026-03-22T09:56:08.992Z</time></trkpt><trkpt lat="44.3579417" lon="11.074615"><ele>511.0</ele><time>2026-03-22T09:56:09.986Z</time></trkpt><trkpt lat="44.3579167" lon="11.0747767"><ele>511.0</ele><time>2026-03-22T09:56:10.994Z</time></trkpt><trkpt lat="44.3578867" lon="11.0749283"><ele>511.0</ele><time>2026-03-22T09:56:11.994Z</time></trkpt><trkpt lat="44.3578433" lon="11.075075"><ele>511.0</ele><time>2026-03-22T09:56:12.994Z</time></trkpt><trkpt lat="44.3577817" lon="11.0752017"><ele>511.0</ele><time>2026-03-22T09:56:13.992Z</time></trkpt><trkpt lat="44.357695" lon="11.0752967"><ele>511.0</ele><time>2026-03-22T09:56:14.988Z</time></trkpt><trkpt lat="44.3576083" lon="11.07537"><ele>510.50000000000006</ele><time>2026-03-22T09:56:15.992Z</time></trkpt><trkpt lat="44.357545" lon="11.07544"><ele>510.0</ele><time>2026-03-22T09:56:16.989Z</time></trkpt><trkpt lat="44.3574967" lon="11.0755167"><ele>509.5</ele><time>2026-03-22T09:56:17.993Z</time></trkpt><trkpt lat="44.357535" lon="11.0756367"><ele>509.0</ele><time>2026-03-22T09:56:19.992Z</time></trkpt><trkpt lat="44.357635" lon="11.0756667"><ele>508.50000000000006</ele><time>2026-03-22T09:56:20.995Z</time></trkpt><trkpt lat="44.3577267" lon="11.075685"><ele>508.0</ele><time>2026-03-22T09:56:21.992Z</time></trkpt><trkpt lat="44.3578267" lon="11.075715"><ele>508.0</ele><time>2026-03-22T09:56:22.992Z</time></trkpt><trkpt lat="44.35793" lon="11.075765"><ele>507.99999999999994</ele><time>2026-03-22T09:56:23.99Z</time></trkpt><trkpt lat="44.35803" lon="11.075825"><ele>507.99999999999994</ele><time>2026-03-22T09:56:24.993Z</time></trkpt><trkpt lat="44.3581217" lon="11.0758833"><ele>508.0</ele><time>2026-03-22T09:56:25.991Z</time></trkpt><trkpt lat="44.3582133" lon="11.0759317"><ele>508.0</ele><time>2026-03-22T09:56:26.986Z</time></trkpt><trkpt lat="44.3583217" lon="11.0759667"><ele>506.25</ele><time>2026-03-22T09:56:27.989Z</time></trkpt><trkpt lat="44.35844" lon="11.0759683"><ele>504.5</ele><time>2026-03-22T09:56:28.99Z</time></trkpt><trkpt lat="44.3585617" lon="11.0759517"><ele>502.75</ele><time>2026-03-22T09:56:29.992Z</time></trkpt><trkpt lat="44.3586967" lon="11.0759267"><ele>501.0</ele><time>2026-03-22T09:56:30.99Z</time></trkpt><trkpt lat="44.3588333" lon="11.0759"><ele>498.75</ele><time>2026-03-22T09:56:31.992Z</time></trkpt><trkpt lat="44.35897" lon="11.07587"><ele>496.5</ele><time>2026-03-22T09:56:32.992Z</time></trkpt><trkpt lat="44.359105" lon="11.0758383"><ele>494.25</ele><time>2026-03-22T09:56:33.989Z</time></trkpt><trkpt lat="44.3592367" lon="11.0758033"><ele>492.0</ele><time>2026-03-22T09:56:34.998Z</time></trkpt><trkpt lat="44.3593633" lon="11.0757683"><ele>490.75</ele><time>2026-03-22T09:56:35.991Z</time></trkpt><trkpt lat="44.3594783" lon="11.0757383"><ele>489.5</ele><time>2026-03-22T09:56:36.993Z</time></trkpt><trkpt lat="44.35959" lon="11.0757183"><ele>488.25</ele><time>2026-03-22T09:56:37.993Z</time></trkpt><trkpt lat="44.3597033" lon="11.075715"><ele>487.0</ele><time>2026-03-22T09:56:38.994Z</time></trkpt><trkpt lat="44.35982" lon="11.0757217"><ele>486.6</ele><time>2026-03-22T09:56:39.995Z</time></trkpt><trkpt lat="44.3599333" lon="11.0757433"><ele>486.20000000000005</ele><time>2026-03-22T09:56:40.993Z</time></trkpt><trkpt lat="44.3600383" lon="11.0757667"><ele>485.8</ele><time>2026-03-22T09:56:41.995Z</time></trkpt><trkpt lat="44.360135" lon="11.0757983"><ele>485.4</ele><time>2026-03-22T09:56:42.992Z</time></trkpt><trkpt lat="44.3602233" lon="11.0758383"><ele>485.0</ele><time>2026-03-22T09:56:43.99Z</time></trkpt><trkpt lat="44.3603017" lon="11.0758867"><ele>485.0</ele><time>2026-03-22T09:56:44.993Z</time></trkpt><trkpt lat="44.3603717" lon="11.0759333"><ele>485.0</ele><time>2026-03-22T09:56:45.996Z</time></trkpt><trkpt lat="44.360435" lon="11.0759867"><ele>485.0</ele><time>2026-03-22T09:56:46.988Z</time></trkpt><trkpt lat="44.36049" lon="11.0760417"><ele>485.0</ele><time>2026-03-22T09:56:47.992Z</time></trkpt><trkpt lat="44.360595" lon="11.0761067"><ele>485.0</ele><time>2026-03-22T09:56:49.997Z</time></trkpt><trkpt lat="44.360715" lon="11.07612"><ele>483.8333333333333</ele><time>2026-03-22T09:56:51.987Z</time></trkpt><trkpt lat="44.3607817" lon="11.0761117"><ele>482.66666666666663</ele><time>2026-03-22T09:56:52.991Z</time></trkpt><trkpt lat="44.36085" lon="11.076105"><ele>481.5</ele><time>2026-03-22T09:56:53.991Z</time></trkpt><trkpt lat="44.3609267" lon="11.076105"><ele>480.33333333333337</ele><time>2026-03-22T09:56:54.994Z</time></trkpt><trkpt lat="44.3610033" lon="11.07611"><ele>479.1666666666667</ele><time>2026-03-22T09:56:55.996Z</time></trkpt><trkpt lat="44.36109" lon="11.0761083"><ele>478.0</ele><time>2026-03-22T09:56:56.992Z</time></trkpt><trkpt lat="44.361185" lon="11.0761083"><ele>478.0</ele><time>2026-03-22T09:56:57.989Z</time></trkpt><trkpt lat="44.3612833" lon="11.0761083"><ele>477.99999999999994</ele><time>2026-03-22T09:56:58.993Z</time></trkpt><trkpt lat="44.3613817" lon="11.0761033"><ele>477.99999999999994</ele><time>2026-03-22T09:56:59.99Z</time></trkpt><trkpt lat="44.3614733" lon="11.0760833"><ele>478.0</ele><time>2026-03-22T09:57:00.992Z</time></trkpt><trkpt lat="44.36156" lon="11.0760683"><ele>478.0</ele><time>2026-03-22T09:57:01.988Z</time></trkpt><trkpt lat="44.36164" lon="11.0760433"><ele>476.00000000000006</ele><time>2026-03-22T09:57:02.995Z</time></trkpt><trkpt lat="44.361715" lon="11.0760217"><ele>474.0</ele><time>2026-03-22T09:57:03.993Z</time></trkpt><trkpt lat="44.36179" lon="11.0760167"><ele>472.0</ele><time>2026-03-22T09:57:04.989Z</time></trkpt><trkpt lat="44.3618683" lon="11.0760233"><ele>470.0</ele><time>2026-03-22T09:57:05.991Z</time></trkpt><trkpt lat="44.3619467" lon="11.0760267"><ele>468.00000000000006</ele><time>2026-03-22T09:57:06.998Z</time></trkpt><trkpt lat="44.3620283" lon="11.076025"><ele>466.0</ele><time>2026-03-22T09:57:07.99Z</time></trkpt><trkpt lat="44.3621117" lon="11.07603"><ele>466.0</ele><time>2026-03-22T09:57:08.996Z</time></trkpt><trkpt lat="44.3621917" lon="11.0760417"><ele>466.0</ele><time>2026-03-22T09:57:09.99Z</time></trkpt><trkpt lat="44.3622667" lon="11.07607"><ele>466.0</ele><time>2026-03-22T09:57:10.986Z</time></trkpt><trkpt lat="44.3623333" lon="11.0761183"><ele>466.0</ele><time>2026-03-22T09:57:11.992Z</time></trkpt><trkpt lat="44.362395" lon="11.0761767"><ele>466.0</ele><time>2026-03-22T09:57:12.992Z</time></trkpt><trkpt lat="44.3624517" lon="11.0762283"><ele>466.0</ele><time>2026-03-22T09:57:13.99Z</time></trkpt><trkpt lat="44.362515" lon="11.0762617"><ele>466.0</ele><time>2026-03-22T09:57:14.991Z</time></trkpt><trkpt lat="44.3625983" lon="11.0762617"><ele>464.83333333333337</ele><time>2026-03-22T09:57:15.992Z</time></trkpt><trkpt lat="44.362695" lon="11.0762283"><ele>463.6666666666667</ele><time>2026-03-22T09:57:16.991Z</time></trkpt><trkpt lat="44.3627817" lon="11.076195"><ele>462.5</ele><time>2026-03-22T09:57:17.995Z</time></trkpt><trkpt lat="44.36286" lon="11.0761533"><ele>461.33333333333337</ele><time>2026-03-22T09:57:18.987Z</time></trkpt><trkpt lat="44.3629317" lon="11.0760967"><ele>460.1666666666667</ele><time>2026-03-22T09:57:19.991Z</time></trkpt><trkpt lat="44.3629933" lon="11.0760167"><ele>459.0</ele><time>2026-03-22T09:57:20.993Z</time></trkpt><trkpt lat="44.36305" lon="11.0759367"><ele>457.1666666666667</ele><time>2026-03-22T09:57:21.993Z</time></trkpt><trkpt lat="44.3631017" lon="11.0758683"><ele>455.33333333333337</ele><time>2026-03-22T09:57:22.995Z</time></trkpt><trkpt lat="44.36316" lon="11.0758117"><ele>453.5</ele><time>2026-03-22T09:57:23.993Z</time></trkpt><trkpt lat="44.3632233" lon="11.0757667"><ele>451.6666666666667</ele><time>2026-03-22T09:57:24.998Z</time></trkpt><trkpt lat="44.3632883" lon="11.0757417"><ele>449.83333333333337</ele><time>2026-03-22T09:57:25.991Z</time></trkpt><trkpt lat="44.3633517" lon="11.0757483"><ele>448.0</ele><time>2026-03-22T09:57:26.99Z</time></trkpt><trkpt lat="44.363445" lon="11.075825"><ele>448.00000000000006</ele><time>2026-03-22T09:57:29Z</time></trkpt><trkpt lat="44.36344" lon="11.075915"><ele>448.0</ele><time>2026-03-22T09:57:29.99Z</time></trkpt><trkpt lat="44.3634317" lon="11.07603"><ele>448.0</ele><time>2026-03-22T09:57:30.997Z</time></trkpt><trkpt lat="44.3634183" lon="11.0761467"><ele>448.0</ele><time>2026-03-22T09:57:31.992Z</time></trkpt><trkpt lat="44.3633867" lon="11.0762683"><ele>448.00000000000006</ele><time>2026-03-22T09:57:33.004Z</time></trkpt><trkpt lat="44.3633717" lon="11.0763933"><ele>448.0</ele><time>2026-03-22T09:57:33.994Z</time></trkpt><trkpt lat="44.3633683" lon="11.0765283"><ele>447.59999999999997</ele><time>2026-03-22T09:57:34.995Z</time></trkpt><trkpt lat="44.3633583" lon="11.076665"><ele>447.19999999999993</ele><time>2026-03-22T09:57:35.992Z</time></trkpt><trkpt lat="44.36335" lon="11.0768017"><ele>446.8</ele><time>2026-03-22T09:57:36.993Z</time></trkpt><trkpt lat="44.36333" lon="11.0769367"><ele>446.4</ele><time>2026-03-22T09:57:37.995Z</time></trkpt><trkpt lat="44.3633083" lon="11.07706"><ele>446.0</ele><time>2026-03-22T09:57:38.992Z</time></trkpt><trkpt lat="44.3632733" lon="11.0771817"><ele>446.0</ele><time>2026-03-22T09:57:39.99Z</time></trkpt><trkpt lat="44.3632133" lon="11.0772983"><ele>446.0</ele><time>2026-03-22T09:57:40.993Z</time></trkpt><trkpt lat="44.3631467" lon="11.0774083"><ele>446.0</ele><time>2026-03-22T09:57:41.992Z</time></trkpt><trkpt lat="44.3630783" lon="11.0775083"><ele>446.0</ele><time>2026-03-22T09:57:42.993Z</time></trkpt><trkpt lat="44.3630183" lon="11.0776133"><ele>446.0</ele><time>2026-03-22T09:57:43.992Z</time></trkpt><trkpt lat="44.36296" lon="11.0777183"><ele>445.3333333333333</ele><time>2026-03-22T09:57:44.994Z</time></trkpt><trkpt lat="44.3629017" lon="11.077815"><ele>444.66666666666663</ele><time>2026-03-22T09:57:45.989Z</time></trkpt><trkpt lat="44.3628367" lon="11.0778967"><ele>444.0</ele><time>2026-03-22T09:57:46.991Z</time></trkpt><trkpt lat="44.362775" lon="11.07797"><ele>443.33333333333337</ele><time>2026-03-22T09:57:47.987Z</time></trkpt><trkpt lat="44.3627233" lon="11.07804"><ele>442.6666666666667</ele><time>2026-03-22T09:57:48.988Z</time></trkpt><trkpt lat="44.3626883" lon="11.07812"><ele>442.0</ele><time>2026-03-22T09:57:49.994Z</time></trkpt><trkpt lat="44.3626733" lon="11.07829"><ele>441.50000000000006</ele><time>2026-03-22T09:57:51.989Z</time></trkpt><trkpt lat="44.3627117" lon="11.0783617"><ele>441.0</ele><time>2026-03-22T09:57:52.992Z</time></trkpt><trkpt lat="44.36276" lon="11.0784267"><ele>440.5</ele><time>2026-03-22T09:57:53.993Z</time></trkpt><trkpt lat="44.3628233" lon="11.0784867"><ele>440.0</ele><time>2026-03-22T09:57:54.99Z</time></trkpt><trkpt lat="44.3628983" lon="11.0785383"><ele>439.50000000000006</ele><time>2026-03-22T09:57:55.994Z</time></trkpt><trkpt lat="44.3629783" lon="11.0785817"><ele>439.0</ele><time>2026-03-22T09:57:56.995Z</time></trkpt><trkpt lat="44.363055" lon="11.0786067"><ele>436.83333333333337</ele><time>2026-03-22T09:57:57.994Z</time></trkpt><trkpt lat="44.3631333" lon="11.0786017"><ele>434.6666666666667</ele><time>2026-03-22T09:57:58.993Z</time></trkpt><trkpt lat="44.3632233" lon="11.0785767"><ele>432.5</ele><time>2026-03-22T09:57:59.99Z</time></trkpt><trkpt lat="44.36331" lon="11.0785483"><ele>430.33333333333337</ele><time>2026-03-22T09:58:00.988Z</time></trkpt><trkpt lat="44.3633983" lon="11.0785267"><ele>428.1666666666667</ele><time>2026-03-22T09:58:01.992Z</time></trkpt><trkpt lat="44.3634833" lon="11.0785217"><ele>426.0</ele><time>2026-03-22T09:58:02.989Z</time></trkpt><trkpt lat="44.3635733" lon="11.07854"><ele>426.0</ele><time>2026-03-22T09:58:03.992Z</time></trkpt><trkpt lat="44.36366" lon="11.0785683"><ele>426.0</ele><time>2026-03-22T09:58:04.995Z</time></trkpt><trkpt lat="44.3637467" lon="11.0786133"><ele>426.0</ele><time>2026-03-22T09:58:05.991Z</time></trkpt><trkpt lat="44.3638283" lon="11.078675"><ele>426.0</ele><time>2026-03-22T09:58:06.993Z</time></trkpt><trkpt lat="44.363905" lon="11.0787433"><ele>426.0</ele><time>2026-03-22T09:58:07.996Z</time></trkpt><trkpt lat="44.3639933" lon="11.0788517"><ele>423.5</ele><time>2026-03-22T09:58:08.995Z</time></trkpt><trkpt lat="44.364085" lon="11.0789683"><ele>421.0</ele><time>2026-03-22T09:58:09.993Z</time></trkpt><trkpt lat="44.3641817" lon="11.0790817"><ele>418.5</ele><time>2026-03-22T09:58:10.993Z</time></trkpt><trkpt lat="44.3642783" lon="11.07919"><ele>416.0</ele><time>2026-03-22T09:58:11.988Z</time></trkpt><trkpt lat="44.3643733" lon="11.0793"><ele>416.0</ele><time>2026-03-22T09:58:12.993Z</time></trkpt><trkpt lat="44.36446" lon="11.079415"><ele>416.0</ele><time>2026-03-22T09:58:13.993Z</time></trkpt><trkpt lat="44.3645467" lon="11.07954"><ele>416.0</ele><time>2026-03-22T09:58:14.991Z</time></trkpt><trkpt lat="44.364635" lon="11.079665"><ele>416.0</ele><time>2026-03-22T09:58:15.991Z</time></trkpt><trkpt lat="44.3647283" lon="11.07978"><ele>416.25</ele><time>2026-03-22T09:58:16.994Z</time></trkpt><trkpt lat="44.364815" lon="11.079885"><ele>416.5</ele><time>2026-03-22T09:58:17.995Z</time></trkpt><trkpt lat="44.3648867" lon="11.0800017"><ele>416.75</ele><time>2026-03-22T09:58:18.99Z</time></trkpt><trkpt lat="44.364945" lon="11.080135"><ele>417.0</ele><time>2026-03-22T09:58:19.992Z</time></trkpt><trkpt lat="44.3649917" lon="11.0802917"><ele>417.0</ele><time>2026-03-22T09:58:20.991Z</time></trkpt><trkpt lat="44.3650267" lon="11.0804783"><ele>417.0</ele><time>2026-03-22T09:58:21.991Z</time></trkpt><trkpt lat="44.3650533" lon="11.08067"><ele>417.0</ele><time>2026-03-22T09:58:22.993Z</time></trkpt><trkpt lat="44.3650683" lon="11.08085"><ele>417.0</ele><time>2026-03-22T09:58:23.995Z</time></trkpt><trkpt lat="44.365075" lon="11.0810167"><ele>419.25</ele><time>2026-03-22T09:58:24.994Z</time></trkpt><trkpt lat="44.36507" lon="11.08117"><ele>421.5</ele><time>2026-03-22T09:58:25.989Z</time></trkpt><trkpt lat="44.365045" lon="11.0813367"><ele>423.75</ele><time>2026-03-22T09:58:26.993Z</time></trkpt><trkpt lat="44.3650067" lon="11.0815183"><ele>426.0</ele><time>2026-03-22T09:58:27.993Z</time></trkpt><trkpt lat="44.36496" lon="11.0817"><ele>427.75</ele><time>2026-03-22T09:58:28.996Z</time></trkpt><trkpt lat="44.3649033" lon="11.0818567"><ele>429.5</ele><time>2026-03-22T09:58:29.993Z</time></trkpt><trkpt lat="44.3648567" lon="11.082005"><ele>431.25</ele><time>2026-03-22T09:58:30.991Z</time></trkpt><trkpt lat="44.36482" lon="11.082155"><ele>433.0</ele><time>2026-03-22T09:58:31.991Z</time></trkpt><trkpt lat="44.364815" lon="11.0823183"><ele>433.25</ele><time>2026-03-22T09:58:32.992Z</time></trkpt><trkpt lat="44.3648367" lon="11.0824967"><ele>433.5</ele><time>2026-03-22T09:58:33.991Z</time></trkpt><trkpt lat="44.36487" lon="11.0826733"><ele>433.75</ele><time>2026-03-22T09:58:34.993Z</time></trkpt><trkpt lat="44.3649" lon="11.082865"><ele>434.0</ele><time>2026-03-22T09:58:35.992Z</time></trkpt><trkpt lat="44.3649317" lon="11.0830667"><ele>434.0</ele><time>2026-03-22T09:58:36.991Z</time></trkpt><trkpt lat="44.3649833" lon="11.08326"><ele>434.0</ele><time>2026-03-22T09:58:37.992Z</time></trkpt><trkpt lat="44.365055" lon="11.0834367"><ele>434.0</ele><time>2026-03-22T09:58:38.994Z</time></trkpt><trkpt lat="44.3651183" lon="11.0835983"><ele>434.0</ele><time>2026-03-22T09:58:39.994Z</time></trkpt><trkpt lat="44.36516" lon="11.0837533"><ele>434.0</ele><time>2026-03-22T09:58:40.989Z</time></trkpt><trkpt lat="44.3651833" lon="11.0839317"><ele>434.0</ele><time>2026-03-22T09:58:41.995Z</time></trkpt><trkpt lat="44.365195" lon="11.0841167"><ele>434.0</ele><time>2026-03-22T09:58:42.994Z</time></trkpt><trkpt lat="44.3652083" lon="11.084285"><ele>434.0</ele><time>2026-03-22T09:58:43.993Z</time></trkpt><trkpt lat="44.36523" lon="11.0844283"><ele>433.99999999999994</ele><time>2026-03-22T09:58:44.994Z</time></trkpt><trkpt lat="44.3652733" lon="11.0845383"><ele>434.0</ele><time>2026-03-22T09:58:45.989Z</time></trkpt><trkpt lat="44.365315" lon="11.0846317"><ele>434.0</ele><time>2026-03-22T09:58:47.001Z</time></trkpt><trkpt lat="44.365375" lon="11.0846817"><ele>434.0</ele><time>2026-03-22T09:58:47.992Z</time></trkpt><trkpt lat="44.3654933" lon="11.08469"><ele>433.99999999999994</ele><time>2026-03-22T09:58:49.991Z</time></trkpt><trkpt lat="44.3655633" lon="11.0846233"><ele>434.0</ele><time>2026-03-22T09:58:50.997Z</time></trkpt><trkpt lat="44.3656317" lon="11.0845467"><ele>433.66666666666663</ele><time>2026-03-22T09:58:51.994Z</time></trkpt><trkpt lat="44.365705" lon="11.0844767"><ele>433.3333333333333</ele><time>2026-03-22T09:58:52.991Z</time></trkpt><trkpt lat="44.3657783" lon="11.084415"><ele>433.0</ele><time>2026-03-22T09:58:53.994Z</time></trkpt><trkpt lat="44.365855" lon="11.08437"><ele>432.66666666666663</ele><time>2026-03-22T09:58:54.991Z</time></trkpt><trkpt lat="44.3659383" lon="11.0843433"><ele>432.3333333333333</ele><time>2026-03-22T09:58:55.99Z</time></trkpt><trkpt lat="44.3660217" lon="11.08431"><ele>432.0</ele><time>2026-03-22T09:58:56.995Z</time></trkpt><trkpt lat="44.3661033" lon="11.0842733"><ele>432.0</ele><time>2026-03-22T09:58:57.994Z</time></trkpt><trkpt lat="44.366185" lon="11.0842433"><ele>432.0</ele><time>2026-03-22T09:58:58.993Z</time></trkpt><trkpt lat="44.3662567" lon="11.0842167"><ele>432.0</ele><time>2026-03-22T09:58:59.994Z</time></trkpt><trkpt lat="44.3663233" lon="11.084205"><ele>432.0</ele><time>2026-03-22T09:59:00.992Z</time></trkpt><trkpt lat="44.36641" lon="11.08419"><ele>432.0</ele><time>2026-03-22T09:59:02.993Z</time></trkpt><trkpt lat="44.3665033" lon="11.0841117"><ele>432.0</ele><time>2026-03-22T09:59:05.994Z</time></trkpt><trkpt lat="44.3665483" lon="11.0840483"><ele>431.6</ele><time>2026-03-22T09:59:06.988Z</time></trkpt><trkpt lat="44.3665917" lon="11.083955"><ele>431.20000000000005</ele><time>2026-03-22T09:59:07.992Z</time></trkpt><trkpt lat="44.366635" lon="11.083845"><ele>430.8</ele><time>2026-03-22T09:59:08.988Z</time></trkpt><trkpt lat="44.3666833" lon="11.08373"><ele>430.4</ele><time>2026-03-22T09:59:09.991Z</time></trkpt><trkpt lat="44.36673" lon="11.0836083"><ele>430.0</ele><time>2026-03-22T09:59:10.997Z</time></trkpt><trkpt lat="44.36678" lon="11.083485"><ele>430.0</ele><time>2026-03-22T09:59:11.994Z</time></trkpt><trkpt lat="44.3668267" lon="11.0833583"><ele>430.0</ele><time>2026-03-22T09:59:12.992Z</time></trkpt><trkpt lat="44.366875" lon="11.083235"><ele>430.0</ele><time>2026-03-22T09:59:13.992Z</time></trkpt><trkpt lat="44.3669233" lon="11.0831033"><ele>430.0</ele><time>2026-03-22T09:59:14.993Z</time></trkpt><trkpt lat="44.3669717" lon="11.08297"><ele>430.0</ele><time>2026-03-22T09:59:15.994Z</time></trkpt><trkpt lat="44.3670233" lon="11.0828433"><ele>428.2</ele><time>2026-03-22T09:59:16.996Z</time></trkpt><trkpt lat="44.367075" lon="11.0827233"><ele>426.4</ele><time>2026-03-22T09:59:17.992Z</time></trkpt><trkpt lat="44.3671267" lon="11.0826033"><ele>424.6</ele><time>2026-03-22T09:59:18.994Z</time></trkpt><trkpt lat="44.3671783" lon="11.0824867"><ele>422.8</ele><time>2026-03-22T09:59:19.993Z</time></trkpt><trkpt lat="44.3672217" lon="11.0823817"><ele>421.0</ele><time>2026-03-22T09:59:20.993Z</time></trkpt><trkpt lat="44.3672533" lon="11.08227"><ele>420.33333333333337</ele><time>2026-03-22T09:59:21.996Z</time></trkpt><trkpt lat="44.3672733" lon="11.08216"><ele>419.6666666666667</ele><time>2026-03-22T09:59:22.988Z</time></trkpt><trkpt lat="44.3672883" lon="11.0820617"><ele>419.0</ele><time>2026-03-22T09:59:23.994Z</time></trkpt><trkpt lat="44.3673083" lon="11.0819417"><ele>418.33333333333337</ele><time>2026-03-22T09:59:25.993Z</time></trkpt><trkpt lat="44.3673867" lon="11.0818917"><ele>417.6666666666667</ele><time>2026-03-22T09:59:28.99Z</time></trkpt><trkpt lat="44.3674867" lon="11.08193"><ele>417.0</ele><time>2026-03-22T09:59:30.995Z</time></trkpt><trkpt lat="44.36755" lon="11.08195"><ele>417.0</ele><time>2026-03-22T09:59:31.993Z</time></trkpt><trkpt lat="44.3676167" lon="11.0819917"><ele>417.0</ele><time>2026-03-22T09:59:32.991Z</time></trkpt><trkpt lat="44.3676783" lon="11.08204"><ele>417.0</ele><time>2026-03-22T09:59:33.994Z</time></trkpt><trkpt lat="44.3677483" lon="11.082085"><ele>417.0</ele><time>2026-03-22T09:59:34.991Z</time></trkpt><trkpt lat="44.3678267" lon="11.0821517"><ele>417.0</ele><time>2026-03-22T09:59:35.994Z</time></trkpt><trkpt lat="44.3679317" lon="11.0822283"><ele>417.0</ele><time>2026-03-22T09:59:37.003Z</time></trkpt><trkpt lat="44.3680283" lon="11.0823017"><ele>419.0</ele><time>2026-03-22T09:59:37.993Z</time></trkpt><trkpt lat="44.3681217" lon="11.0823633"><ele>421.0</ele><time>2026-03-22T09:59:38.995Z</time></trkpt><trkpt lat="44.3681767" lon="11.0824367"><ele>423.00000000000006</ele><time>2026-03-22T09:59:39.995Z</time></trkpt><trkpt lat="44.3682517" lon="11.0825067"><ele>425.0</ele><time>2026-03-22T09:59:40.993Z</time></trkpt><trkpt lat="44.3683317" lon="11.0825783"><ele>427.0</ele><time>2026-03-22T09:59:41.993Z</time></trkpt><trkpt lat="44.3683983" lon="11.08266"><ele>427.83333333333337</ele><time>2026-03-22T09:59:42.995Z</time></trkpt><trkpt lat="44.368465" lon="11.0827333"><ele>428.6666666666667</ele><time>2026-03-22T09:59:43.995Z</time></trkpt><trkpt lat="44.3685183" lon="11.08283"><ele>429.5</ele><time>2026-03-22T09:59:44.995Z</time></trkpt><trkpt lat="44.3685717" lon="11.08293"><ele>430.33333333333337</ele><time>2026-03-22T09:59:45.992Z</time></trkpt><trkpt lat="44.3686033" lon="11.0830333"><ele>431.1666666666667</ele><time>2026-03-22T09:59:46.994Z</time></trkpt><trkpt lat="44.3686417" lon="11.0831217"><ele>432.0</ele><time>2026-03-22T09:59:47.993Z</time></trkpt><trkpt lat="44.36869" lon="11.0832267"><ele>434.1428571428571</ele><time>2026-03-22T09:59:48.992Z</time></trkpt><trkpt lat="44.3687433" lon="11.0833133"><ele>436.2857142857143</ele><time>2026-03-22T09:59:49.987Z</time></trkpt><trkpt lat="44.3688117" lon="11.0833717"><ele>438.42857142857144</ele><time>2026-03-22T09:59:50.994Z</time></trkpt><trkpt lat="44.368885" lon="11.0833983"><ele>440.57142857142856</ele><time>2026-03-22T09:59:51.994Z</time></trkpt><trkpt lat="44.36896" lon="11.0834267"><ele>442.7142857142857</ele><time>2026-03-22T09:59:52.996Z</time></trkpt><trkpt lat="44.3690267" lon="11.08345"><ele>444.85714285714283</ele><time>2026-03-22T09:59:53.995Z</time></trkpt><trkpt lat="44.3690817" lon="11.0834967"><ele>447.0</ele><time>2026-03-22T09:59:54.993Z</time></trkpt><trkpt lat="44.3691433" lon="11.083535"><ele>447.0</ele><time>2026-03-22T09:59:55.996Z</time></trkpt><trkpt lat="44.3692083" lon="11.0836383"><ele>447.0</ele><time>2026-03-22T09:59:57.995Z</time></trkpt><trkpt lat="44.369135" lon="11.0836767"><ele>447.0</ele><time>2026-03-22T09:59:58.992Z</time></trkpt><trkpt lat="44.3690633" lon="11.0837117"><ele>447.0</ele><time>2026-03-22T09:59:59.992Z</time></trkpt><trkpt lat="44.368985" lon="11.0837333"><ele>447.0</ele><time>2026-03-22T10:00:00.987Z</time></trkpt><trkpt lat="44.3689167" lon="11.0837617"><ele>447.0</ele><time>2026-03-22T10:00:01.992Z</time></trkpt><trkpt lat="44.3688467" lon="11.0837983"><ele>447.0</ele><time>2026-03-22T10:00:02.992Z</time></trkpt><trkpt lat="44.3688167" lon="11.0839067"><ele>447.00000000000006</ele><time>2026-03-22T10:00:04.989Z</time></trkpt><trkpt lat="44.3688967" lon="11.084"><ele>447.00000000000006</ele><time>2026-03-22T10:00:07.994Z</time></trkpt><trkpt lat="44.3690133" lon="11.0840483"><ele>447.0</ele><time>2026-03-22T10:00:09.994Z</time></trkpt><trkpt lat="44.3690767" lon="11.08409"><ele>447.0</ele><time>2026-03-22T10:00:10.988Z</time></trkpt><trkpt lat="44.3691591" lon="11.0841321"><ele>451.1666666666667</ele><time>2026-03-22T10:00:11.987Z</time></trkpt><trkpt lat="44.3692516" lon="11.0841853"><ele>455.33333333333337</ele><time>2026-03-22T10:00:12.991Z</time></trkpt><trkpt lat="44.3693372" lon="11.0842454"><ele>459.5</ele><time>2026-03-22T10:00:13.994Z</time></trkpt><trkpt lat="44.3694144" lon="11.0842953"><ele>463.6666666666667</ele><time>2026-03-22T10:00:14.993Z</time></trkpt><trkpt lat="44.3694902" lon="11.0843327"><ele>467.83333333333337</ele><time>2026-03-22T10:00:15.993Z</time></trkpt><trkpt lat="44.3695677" lon="11.0843442"><ele>472.0</ele><time>2026-03-22T10:00:16.992Z</time></trkpt><trkpt lat="44.3696522" lon="11.0843385"><ele>473.83333333333337</ele><time>2026-03-22T10:00:17.992Z</time></trkpt><trkpt lat="44.369733" lon="11.0843281"><ele>475.6666666666667</ele><time>2026-03-22T10:00:18.994Z</time></trkpt><trkpt lat="44.3698082" lon="11.0843124"><ele>477.5</ele><time>2026-03-22T10:00:19.991Z</time></trkpt><trkpt lat="44.3698819" lon="11.0842935"><ele>479.33333333333337</ele><time>2026-03-22T10:00:20.996Z</time></trkpt><trkpt lat="44.3699559" lon="11.0842434"><ele>481.1666666666667</ele><time>2026-03-22T10:00:21.992Z</time></trkpt><trkpt lat="44.3700198" lon="11.0841862"><ele>483.0</ele><time>2026-03-22T10:00:22.992Z</time></trkpt><trkpt lat="44.3700693" lon="11.0841123"><ele>482.0</ele><time>2026-03-22T10:00:23.989Z</time></trkpt><trkpt lat="44.3701154" lon="11.0839744"><ele>481.0</ele><time>2026-03-22T10:00:25.99Z</time></trkpt><trkpt lat="44.3701295" lon="11.0838309"><ele>480.0</ele><time>2026-03-22T10:00:27.995Z</time></trkpt><trkpt lat="44.3701392" lon="11.0836721"><ele>479.0</ele><time>2026-03-22T10:00:29.992Z</time></trkpt><trkpt lat="44.370148" lon="11.0834939"><ele>478.99999999999994</ele><time>2026-03-22T10:00:31.993Z</time></trkpt><trkpt lat="44.3701475" lon="11.0833899"><ele>479.0</ele><time>2026-03-22T10:00:32.995Z</time></trkpt><trkpt lat="44.3701491" lon="11.0832848"><ele>479.0</ele><time>2026-03-22T10:00:33.99Z</time></trkpt><trkpt lat="44.3701623" lon="11.0831746"><ele>479.0</ele><time>2026-03-22T10:00:34.988Z</time></trkpt><trkpt lat="44.3701909" lon="11.0830563"><ele>478.99999999999994</ele><time>2026-03-22T10:00:35.99Z</time></trkpt><trkpt lat="44.370233" lon="11.0829396"><ele>479.0</ele><time>2026-03-22T10:00:36.992Z</time></trkpt><trkpt lat="44.3702878" lon="11.0828301"><ele>479.2</ele><time>2026-03-22T10:00:37.992Z</time></trkpt><trkpt lat="44.3703457" lon="11.0827249"><ele>479.4</ele><time>2026-03-22T10:00:38.994Z</time></trkpt><trkpt lat="44.3704082" lon="11.0826176"><ele>479.6</ele><time>2026-03-22T10:00:39.993Z</time></trkpt><trkpt lat="44.3704632" lon="11.0825051"><ele>479.8</ele><time>2026-03-22T10:00:40.993Z</time></trkpt><trkpt lat="44.3705101" lon="11.0824022"><ele>480.0</ele><time>2026-03-22T10:00:41.995Z</time></trkpt><trkpt lat="44.3705523" lon="11.0823153"><ele>480.8333333333333</ele><time>2026-03-22T10:00:42.994Z</time></trkpt><trkpt lat="44.3705814" lon="11.0822324"><ele>481.66666666666663</ele><time>2026-03-22T10:00:43.992Z</time></trkpt><trkpt lat="44.370599" lon="11.0821463"><ele>482.5</ele><time>2026-03-22T10:00:44.993Z</time></trkpt><trkpt lat="44.370599" lon="11.0819864"><ele>483.3333333333333</ele><time>2026-03-22T10:00:46.989Z</time></trkpt><trkpt lat="44.370553" lon="11.0818749"><ele>484.16666666666663</ele><time>2026-03-22T10:00:48.992Z</time></trkpt><trkpt lat="44.3705217" lon="11.08177"><ele>485.0</ele><time>2026-03-22T10:00:51.992Z</time></trkpt><trkpt lat="44.3705367" lon="11.0818867"><ele>484.16666666666663</ele><time>2026-03-22T10:01:08.993Z</time></trkpt><trkpt lat="44.3705883" lon="11.0819633"><ele>483.3333333333333</ele><time>2026-03-22T10:01:10.991Z</time></trkpt><trkpt lat="44.3706167" lon="11.08207"><ele>482.5</ele><time>2026-03-22T10:01:12.994Z</time></trkpt><trkpt lat="44.37062" lon="11.0821967"><ele>481.66666666666663</ele><time>2026-03-22T10:01:14.997Z</time></trkpt><trkpt lat="44.37058" lon="11.082345"><ele>480.8333333333333</ele><time>2026-03-22T10:01:16.994Z</time></trkpt><trkpt lat="44.3705417" lon="11.082415"><ele>480.0</ele><time>2026-03-22T10:01:17.996Z</time></trkpt><trkpt lat="44.3704783" lon="11.0825367"><ele>480.0</ele><time>2026-03-22T10:01:19.998Z</time></trkpt><trkpt lat="44.370415" lon="11.082635"><ele>480.0</ele><time>2026-03-22T10:01:21.993Z</time></trkpt><trkpt lat="44.370355" lon="11.0827283"><ele>480.0</ele><time>2026-03-22T10:01:23.991Z</time></trkpt><trkpt lat="44.37028" lon="11.0828633"><ele>480.0</ele><time>2026-03-22T10:01:26Z</time></trkpt><trkpt lat="44.3702383" lon="11.0829483"><ele>480.0</ele><time>2026-03-22T10:01:26.995Z</time></trkpt><trkpt lat="44.3702017" lon="11.083035"><ele>480.0</ele><time>2026-03-22T10:01:27.994Z</time></trkpt><trkpt lat="44.3701733" lon="11.0831217"><ele>480.0</ele><time>2026-03-22T10:01:28.988Z</time></trkpt><trkpt lat="44.3701533" lon="11.08322"><ele>480.0</ele><time>2026-03-22T10:01:29.993Z</time></trkpt><trkpt lat="44.3701383" lon="11.0833217"><ele>480.0</ele><time>2026-03-22T10:01:30.989Z</time></trkpt><trkpt lat="44.37013" lon="11.0834317"><ele>480.0</ele><time>2026-03-22T10:01:31.994Z</time></trkpt><trkpt lat="44.370125" lon="11.0835417"><ele>480.0</ele><time>2026-03-22T10:01:32.995Z</time></trkpt><trkpt lat="44.3701233" lon="11.08365"><ele>479.8333333333333</ele><time>2026-03-22T10:01:33.993Z</time></trkpt><trkpt lat="44.3701133" lon="11.0837517"><ele>479.66666666666663</ele><time>2026-03-22T10:01:34.989Z</time></trkpt><trkpt lat="44.370105" lon="11.0838483"><ele>479.5</ele><time>2026-03-22T10:01:35.992Z</time></trkpt><trkpt lat="44.3700883" lon="11.0839367"><ele>479.3333333333333</ele><time>2026-03-22T10:01:36.991Z</time></trkpt><trkpt lat="44.3700367" lon="11.0840817"><ele>479.16666666666663</ele><time>2026-03-22T10:01:38.989Z</time></trkpt><trkpt lat="44.3699833" lon="11.0841783"><ele>479.0</ele><time>2026-03-22T10:01:40.993Z</time></trkpt><trkpt lat="44.3699417" lon="11.0843067"><ele>479.79999999999995</ele><time>2026-03-22T10:01:42.991Z</time></trkpt><trkpt lat="44.369875" lon="11.0844283"><ele>480.59999999999997</ele><time>2026-03-22T10:01:44.995Z</time></trkpt><trkpt lat="44.3697983" lon="11.0845417"><ele>481.4</ele><time>2026-03-22T10:01:46.995Z</time></trkpt><trkpt lat="44.3697017" lon="11.0846"><ele>482.2</ele><time>2026-03-22T10:01:48.994Z</time></trkpt><trkpt lat="44.36962" lon="11.0846383"><ele>483.0</ele><time>2026-03-22T10:01:50.994Z</time></trkpt><trkpt lat="44.369515" lon="11.08468"><ele>481.42857142857144</ele><time>2026-03-22T10:01:52.993Z</time></trkpt><trkpt lat="44.3694467" lon="11.084695"><ele>479.8571428571429</ele><time>2026-03-22T10:01:53.994Z</time></trkpt><trkpt lat="44.36938" lon="11.08471"><ele>478.2857142857143</ele><time>2026-03-22T10:01:54.991Z</time></trkpt><trkpt lat="44.3693083" lon="11.084745"><ele>476.7142857142857</ele><time>2026-03-22T10:01:55.993Z</time></trkpt><trkpt lat="44.369235" lon="11.0847733"><ele>475.14285714285717</ele><time>2026-03-22T10:01:56.996Z</time></trkpt><trkpt lat="44.3691667" lon="11.0848117"><ele>473.57142857142856</ele><time>2026-03-22T10:01:57.992Z</time></trkpt><trkpt lat="44.3691117" lon="11.0848567"><ele>472.0</ele><time>2026-03-22T10:01:58.991Z</time></trkpt><trkpt lat="44.3690567" lon="11.0849183"><ele>475.50000000000006</ele><time>2026-03-22T10:01:59.991Z</time></trkpt><trkpt lat="44.36901" lon="11.0849883"><ele>479.0</ele><time>2026-03-22T10:02:00.992Z</time></trkpt><trkpt lat="44.3689567" lon="11.08506"><ele>482.5</ele><time>2026-03-22T10:02:01.989Z</time></trkpt><trkpt lat="44.3688983" lon="11.08514"><ele>486.0</ele><time>2026-03-22T10:02:02.993Z</time></trkpt><trkpt lat="44.3688533" lon="11.0852017"><ele>489.50000000000006</ele><time>2026-03-22T10:02:03.989Z</time></trkpt><trkpt lat="44.3687883" lon="11.0853033"><ele>493.0</ele><time>2026-03-22T10:02:05.996Z</time></trkpt><trkpt lat="44.3687647" lon="11.0853927"><ele>493.0</ele><time>2026-03-22T10:02:07.996Z</time></trkpt><trkpt lat="44.3687955" lon="11.0854795"><ele>492.99999999999994</ele><time>2026-03-22T10:02:09.996Z</time></trkpt><trkpt lat="44.3688606" lon="11.0855598"><ele>492.99999999999994</ele><time>2026-03-22T10:02:11.993Z</time></trkpt><trkpt lat="44.3689561" lon="11.085623"><ele>493.0</ele><time>2026-03-22T10:02:13.996Z</time></trkpt><trkpt lat="44.3690491" lon="11.0856829"><ele>493.0</ele><time>2026-03-22T10:02:15.993Z</time></trkpt><trkpt lat="44.3691575" lon="11.0857312"><ele>494.4</ele><time>2026-03-22T10:02:17.994Z</time></trkpt><trkpt lat="44.3692685" lon="11.0857187"><ele>495.79999999999995</ele><time>2026-03-22T10:02:19.991Z</time></trkpt><trkpt lat="44.3693906" lon="11.085685"><ele>497.2</ele><time>2026-03-22T10:02:21.99Z</time></trkpt><trkpt lat="44.3694569" lon="11.085667"><ele>498.6</ele><time>2026-03-22T10:02:22.993Z</time></trkpt><trkpt lat="44.3695261" lon="11.0856606"><ele>500.0</ele><time>2026-03-22T10:02:23.993Z</time></trkpt><trkpt lat="44.3696411" lon="11.0856623"><ele>499.99999999999994</ele><time>2026-03-22T10:02:25.994Z</time></trkpt><trkpt lat="44.3697388" lon="11.0857002"><ele>500.0</ele><time>2026-03-22T10:02:27.993Z</time></trkpt><trkpt lat="44.3698214" lon="11.0857283"><ele>500.0</ele><time>2026-03-22T10:02:29.992Z</time></trkpt><trkpt lat="44.3697483" lon="11.0857167"><ele>500.0</ele><time>2026-03-22T10:04:06.992Z</time></trkpt><trkpt lat="44.3696817" lon="11.0856717"><ele>499.99999999999994</ele><time>2026-03-22T10:04:08.994Z</time></trkpt><trkpt lat="44.3695883" lon="11.08566"><ele>500.0</ele><time>2026-03-22T10:04:10.993Z</time></trkpt><trkpt lat="44.3694867" lon="11.0856633"><ele>500.0</ele><time>2026-03-22T10:04:12.993Z</time></trkpt><trkpt lat="44.3693767" lon="11.0856867"><ele>500.0</ele><time>2026-03-22T10:04:14.998Z</time></trkpt><trkpt lat="44.3692733" lon="11.0857017"><ele>500.0</ele><time>2026-03-22T10:04:16.991Z</time></trkpt><trkpt lat="44.3691817" lon="11.0856983"><ele>500.0</ele><time>2026-03-22T10:04:18.993Z</time></trkpt><trkpt lat="44.3691167" lon="11.0856867"><ele>500.0</ele><time>2026-03-22T10:04:20.995Z</time></trkpt><trkpt lat="44.3690333" lon="11.0856333"><ele>499.99999999999994</ele><time>2026-03-22T10:04:23.993Z</time></trkpt><trkpt lat="44.3689667" lon="11.0855933"><ele>500.0</ele><time>2026-03-22T10:04:25.995Z</time></trkpt><trkpt lat="44.3688983" lon="11.085555"><ele>500.0</ele><time>2026-03-22T10:04:27.988Z</time></trkpt><trkpt lat="44.36884" lon="11.0855167"><ele>500.0</ele><time>2026-03-22T10:04:29.993Z</time></trkpt><trkpt lat="44.3687833" lon="11.0854483"><ele>499.99999999999994</ele><time>2026-03-22T10:04:32.991Z</time></trkpt><trkpt lat="44.3688217" lon="11.0853617"><ele>500.0</ele><time>2026-03-22T10:04:36.993Z</time></trkpt><trkpt lat="44.3688917" lon="11.085265"><ele>499.99999999999994</ele><time>2026-03-22T10:04:39.994Z</time></trkpt><trkpt lat="44.3689417" lon="11.0851983"><ele>500.0</ele><time>2026-03-22T10:04:41.993Z</time></trkpt><trkpt lat="44.368985" lon="11.0851333"><ele>500.0</ele><time>2026-03-22T10:04:43.99Z</time></trkpt><trkpt lat="44.368945" lon="11.085045"><ele>500.0</ele><time>2026-03-22T10:04:47.994Z</time></trkpt><trkpt lat="44.3688733" lon="11.08502"><ele>499.99999999999994</ele><time>2026-03-22T10:04:50.989Z</time></trkpt><trkpt lat="44.368785" lon="11.0849733"><ele>500.0</ele><time>2026-03-22T10:05:03.996Z</time></trkpt><trkpt lat="44.368705" lon="11.0849617"><ele>498.6</ele><time>2026-03-22T10:05:05.988Z</time></trkpt><trkpt lat="44.368595" lon="11.08498"><ele>497.2</ele><time>2026-03-22T10:05:07.99Z</time></trkpt><trkpt lat="44.368475" lon="11.0850233"><ele>495.79999999999995</ele><time>2026-03-22T10:05:09.99Z</time></trkpt><trkpt lat="44.368405" lon="11.08505"><ele>494.4</ele><time>2026-03-22T10:05:10.995Z</time></trkpt><trkpt lat="44.3682967" lon="11.08511"><ele>493.0</ele><time>2026-03-22T10:05:12.993Z</time></trkpt><trkpt lat="44.3682267" lon="11.08518"><ele>493.00000000000006</ele><time>2026-03-22T10:05:14.994Z</time></trkpt><trkpt lat="44.368185" lon="11.0852667"><ele>493.0</ele><time>2026-03-22T10:05:16.988Z</time></trkpt><trkpt lat="44.3681564" lon="11.0853603"><ele>493.0</ele><time>2026-03-22T10:05:18.996Z</time></trkpt><trkpt lat="44.3681299" lon="11.0854828"><ele>493.0</ele><time>2026-03-22T10:05:20.996Z</time></trkpt><trkpt lat="44.3681083" lon="11.08565"><ele>493.00000000000006</ele><time>2026-03-22T10:05:22.993Z</time></trkpt><trkpt lat="44.3680967" lon="11.085755"><ele>493.0</ele><time>2026-03-22T10:05:23.993Z</time></trkpt><trkpt lat="44.3680517" lon="11.08593"><ele>493.00000000000006</ele><time>2026-03-22T10:05:24.995Z</time></trkpt><trkpt lat="44.3680433" lon="11.0860333"><ele>493.0</ele><time>2026-03-22T10:05:25.991Z</time></trkpt><trkpt lat="44.36803" lon="11.086145"><ele>493.0</ele><time>2026-03-22T10:05:26.989Z</time></trkpt><trkpt lat="44.3680033" lon="11.0862567"><ele>493.0</ele><time>2026-03-22T10:05:27.994Z</time></trkpt><trkpt lat="44.3679867" lon="11.0863533"><ele>493.00000000000006</ele><time>2026-03-22T10:05:28.991Z</time></trkpt><trkpt lat="44.3679717" lon="11.0864483"><ele>493.0</ele><time>2026-03-22T10:05:29.988Z</time></trkpt><trkpt lat="44.3679603" lon="11.0866037"><ele>493.00000000000006</ele><time>2026-03-22T10:05:31.99Z</time></trkpt><trkpt lat="44.3679517" lon="11.0866969"><ele>493.0</ele><time>2026-03-22T10:05:32.995Z</time></trkpt><trkpt lat="44.3679371" lon="11.0867875"><ele>493.0</ele><time>2026-03-22T10:05:33.991Z</time></trkpt><trkpt lat="44.367923" lon="11.0868761"><ele>493.0</ele><time>2026-03-22T10:05:34.99Z</time></trkpt><trkpt lat="44.3679048" lon="11.0870321"><ele>493.00000000000006</ele><time>2026-03-22T10:05:36.988Z</time></trkpt><trkpt lat="44.367878" lon="11.0871898"><ele>493.0</ele><time>2026-03-22T10:05:38.989Z</time></trkpt><trkpt lat="44.3678621" lon="11.0873342"><ele>495.59999999999997</ele><time>2026-03-22T10:05:40.994Z</time></trkpt><trkpt lat="44.3678301" lon="11.0874395"><ele>498.19999999999993</ele><time>2026-03-22T10:05:42.996Z</time></trkpt><trkpt lat="44.3677724" lon="11.0875387"><ele>500.8</ele><time>2026-03-22T10:05:44.99Z</time></trkpt><trkpt lat="44.3677465" lon="11.0876548"><ele>503.4</ele><time>2026-03-22T10:05:46.991Z</time></trkpt><trkpt lat="44.3677579" lon="11.0877967"><ele>506.0</ele><time>2026-03-22T10:05:48.994Z</time></trkpt><trkpt lat="44.3677683" lon="11.0879599"><ele>506.0</ele><time>2026-03-22T10:05:50.994Z</time></trkpt><trkpt lat="44.367769" lon="11.088107"><ele>506.0</ele><time>2026-03-22T10:05:53Z</time></trkpt><trkpt lat="44.3677514" lon="11.0882428"><ele>506.0</ele><time>2026-03-22T10:05:54.992Z</time></trkpt><trkpt lat="44.3677281" lon="11.0883779"><ele>506.0</ele><time>2026-03-22T10:05:56.995Z</time></trkpt><trkpt lat="44.367731" lon="11.0885228"><ele>506.0</ele><time>2026-03-22T10:05:58.991Z</time></trkpt><trkpt lat="44.3677024" lon="11.0886338"><ele>506.8333333333333</ele><time>2026-03-22T10:06:00.991Z</time></trkpt><trkpt lat="44.3676726" lon="11.0887124"><ele>507.66666666666663</ele><time>2026-03-22T10:06:02.998Z</time></trkpt><trkpt lat="44.3676215" lon="11.0887918"><ele>508.5</ele><time>2026-03-22T10:06:05.995Z</time></trkpt><trkpt lat="44.3675744" lon="11.0888705"><ele>509.33333333333337</ele><time>2026-03-22T10:06:07.994Z</time></trkpt><trkpt lat="44.3674688" lon="11.0888826"><ele>510.1666666666667</ele><time>2026-03-22T10:06:10.995Z</time></trkpt><trkpt lat="44.3674067" lon="11.0889004"><ele>511.0</ele><time>2026-03-22T10:06:11.993Z</time></trkpt><trkpt lat="44.3672951" lon="11.0889691"><ele>511.0</ele><time>2026-03-22T10:06:13.996Z</time></trkpt><trkpt lat="44.3672108" lon="11.0890684"><ele>511.0</ele><time>2026-03-22T10:06:15.968Z</time></trkpt><trkpt lat="44.3671545" lon="11.0891915"><ele>511.0</ele><time>2026-03-22T10:06:17.991Z</time></trkpt><trkpt lat="44.3670647" lon="11.0893072"><ele>511.0</ele><time>2026-03-22T10:06:19.995Z</time></trkpt><trkpt lat="44.3669879" lon="11.0894187"><ele>511.0</ele><time>2026-03-22T10:06:21.99Z</time></trkpt><trkpt lat="44.3669737" lon="11.0895149"><ele>510.50000000000006</ele><time>2026-03-22T10:06:23.987Z</time></trkpt><trkpt lat="44.3670416" lon="11.0895884"><ele>510.0</ele><time>2026-03-22T10:06:25.99Z</time></trkpt><trkpt lat="44.3671258" lon="11.0896466"><ele>509.5</ele><time>2026-03-22T10:06:27.99Z</time></trkpt><trkpt lat="44.3672067" lon="11.08968"><ele>509.0</ele><time>2026-03-22T10:06:29.994Z</time></trkpt><trkpt lat="44.36727" lon="11.0896667"><ele>508.50000000000006</ele><time>2026-03-22T10:06:31.997Z</time></trkpt><trkpt lat="44.3673367" lon="11.08964"><ele>508.0</ele><time>2026-03-22T10:06:33.996Z</time></trkpt><trkpt lat="44.3673729" lon="11.0897213"><ele>511.0</ele><time>2026-03-22T10:06:35.995Z</time></trkpt><trkpt lat="44.3674276" lon="11.0897937"><ele>514.0</ele><time>2026-03-22T10:06:37.978Z</time></trkpt><trkpt lat="44.3675023" lon="11.0898358"><ele>517.0</ele><time>2026-03-22T10:06:41.99Z</time></trkpt><trkpt lat="44.367678" lon="11.0897462"><ele>520.0</ele><time>2026-03-22T10:06:45.989Z</time></trkpt><trkpt lat="44.3677692" lon="11.0897726"><ele>523.0</ele><time>2026-03-22T10:06:48.996Z</time></trkpt><trkpt lat="44.3678457" lon="11.0898068"><ele>523.0</ele><time>2026-03-22T10:06:50.999Z</time></trkpt><trkpt lat="44.3679304" lon="11.0898316"><ele>523.0</ele><time>2026-03-22T10:06:53.019Z</time></trkpt><trkpt lat="44.3680249" lon="11.0897942"><ele>523.0</ele><time>2026-03-22T10:06:55.989Z</time></trkpt><trkpt lat="44.3680945" lon="11.0898127"><ele>523.0</ele><time>2026-03-22T10:06:57.962Z</time></trkpt><trkpt lat="44.3681571" lon="11.0897872"><ele>523.0</ele><time>2026-03-22T10:06:59.997Z</time></trkpt><trkpt lat="44.3682092" lon="11.0897314"><ele>523.0</ele><time>2026-03-22T10:07:02.011Z</time></trkpt><trkpt lat="44.3683019" lon="11.0897412"><ele>526.7142857142857</ele><time>2026-03-22T10:07:05.008Z</time></trkpt><trkpt lat="44.3683764" lon="11.0897043"><ele>530.4285714285714</ele><time>2026-03-22T10:07:06.997Z</time></trkpt><trkpt lat="44.3684469" lon="11.0897336"><ele>534.1428571428571</ele><time>2026-03-22T10:07:08.936Z</time></trkpt><trkpt lat="44.3684903" lon="11.0897979"><ele>537.8571428571429</ele><time>2026-03-22T10:07:10.99Z</time></trkpt><trkpt lat="44.3685494" lon="11.0898457"><ele>541.5714285714286</ele><time>2026-03-22T10:07:12.995Z</time></trkpt><trkpt lat="44.3686167" lon="11.089805"><ele>545.2857142857142</ele><time>2026-03-22T10:07:15.995Z</time></trkpt><trkpt lat="44.36868" lon="11.0897867"><ele>549.0</ele><time>2026-03-22T10:07:17.99Z</time></trkpt><trkpt lat="44.3687683" lon="11.0897617"><ele>549.0</ele><time>2026-03-22T10:07:20.994Z</time></trkpt><trkpt lat="44.3688567" lon="11.0897017"><ele>549.0</ele><time>2026-03-22T10:07:22.991Z</time></trkpt><trkpt lat="44.3689433" lon="11.0896433"><ele>549.0</ele><time>2026-03-22T10:07:24.992Z</time></trkpt><trkpt lat="44.3690224" lon="11.0895979"><ele>549.0</ele><time>2026-03-22T10:07:26.993Z</time></trkpt><trkpt lat="44.3691003" lon="11.0895461"><ele>549.0</ele><time>2026-03-22T10:07:28.99Z</time></trkpt><trkpt lat="44.3691894" lon="11.0895642"><ele>556.4</ele><time>2026-03-22T10:07:31.002Z</time></trkpt><trkpt lat="44.3692948" lon="11.0895503"><ele>563.8</ele><time>2026-03-22T10:07:32.997Z</time></trkpt><trkpt lat="44.3694168" lon="11.0895494"><ele>571.2</ele><time>2026-03-22T10:07:34.97Z</time></trkpt><trkpt lat="44.3695065" lon="11.0894895"><ele>578.6</ele><time>2026-03-22T10:07:36.906Z</time></trkpt><trkpt lat="44.36957" lon="11.0894433"><ele>586.0</ele><time>2026-03-22T10:07:38.996Z</time></trkpt><trkpt lat="44.3696483" lon="11.08938"><ele>589.3333333333334</ele><time>2026-03-22T10:07:40.988Z</time></trkpt><trkpt lat="44.3697433" lon="11.089355"><ele>592.6666666666667</ele><time>2026-03-22T10:07:42.991Z</time></trkpt><trkpt lat="44.3698617" lon="11.08936"><ele>596.0</ele><time>2026-03-22T10:07:44.99Z</time></trkpt><trkpt lat="44.3699267" lon="11.0893633"><ele>599.3333333333334</ele><time>2026-03-22T10:07:45.994Z</time></trkpt><trkpt lat="44.3699917" lon="11.0893567"><ele>602.6666666666666</ele><time>2026-03-22T10:07:46.992Z</time></trkpt><trkpt lat="44.3700567" lon="11.0893367"><ele>606.0</ele><time>2026-03-22T10:07:47.992Z</time></trkpt><trkpt lat="44.3701667" lon="11.08928"><ele>606.0</ele><time>2026-03-22T10:07:49.993Z</time></trkpt><trkpt lat="44.3702755" lon="11.089245"><ele>606.0</ele><time>2026-03-22T10:07:51.992Z</time></trkpt><trkpt lat="44.370356" lon="11.0892392"><ele>606.0</ele><time>2026-03-22T10:07:53.992Z</time></trkpt><trkpt lat="44.3704722" lon="11.089291"><ele>606.0</ele><time>2026-03-22T10:13:34.986Z</time></trkpt><trkpt lat="44.3705222" lon="11.089381"><ele>606.0</ele><time>2026-03-22T10:13:36.986Z</time></trkpt><trkpt lat="44.3705722" lon="11.0894781"><ele>606.0</ele><time>2026-03-22T10:13:38.987Z</time></trkpt><trkpt lat="44.3706182" lon="11.0895478"><ele>606.0</ele><time>2026-03-22T10:13:40.989Z</time></trkpt><trkpt lat="44.3706962" lon="11.0896265"><ele>606.0</ele><time>2026-03-22T10:13:42.987Z</time></trkpt><trkpt lat="44.3707482" lon="11.089749"><ele>606.0</ele><time>2026-03-22T10:13:44.942Z</time></trkpt><trkpt lat="44.3708255" lon="11.0898812"><ele>606.0</ele><time>2026-03-22T10:13:46.995Z</time></trkpt><trkpt lat="44.3708697" lon="11.0899462"><ele>607.2</ele><time>2026-03-22T10:13:47.99Z</time></trkpt><trkpt lat="44.3709188" lon="11.0900164"><ele>608.4000000000001</ele><time>2026-03-22T10:13:48.994Z</time></trkpt><trkpt lat="44.3709648" lon="11.0900783"><ele>609.6</ele><time>2026-03-22T10:13:49.991Z</time></trkpt><trkpt lat="44.3710293" lon="11.0902068"><ele>610.8000000000001</ele><time>2026-03-22T10:13:51.637Z</time></trkpt><trkpt lat="44.3711483" lon="11.0903383"><ele>612.0</ele><time>2026-03-22T10:13:52.989Z</time></trkpt><trkpt lat="44.3712" lon="11.0904533"><ele>612.0</ele><time>2026-03-22T10:13:54.989Z</time></trkpt><trkpt lat="44.3713" lon="11.0905583"><ele>612.0</ele><time>2026-03-22T10:13:56.988Z</time></trkpt><trkpt lat="44.3713617" lon="11.090605"><ele>612.0</ele><time>2026-03-22T10:13:57.989Z</time></trkpt><trkpt lat="44.3714283" lon="11.0906567"><ele>612.0</ele><time>2026-03-22T10:13:58.99Z</time></trkpt><trkpt lat="44.3714983" lon="11.09071"><ele>612.0</ele><time>2026-03-22T10:13:59.99Z</time></trkpt><trkpt lat="44.37157" lon="11.0907617"><ele>612.0</ele><time>2026-03-22T10:14:00.991Z</time></trkpt><trkpt lat="44.3716467" lon="11.0908033"><ele>614.8333333333334</ele><time>2026-03-22T10:14:01.995Z</time></trkpt><trkpt lat="44.3717217" lon="11.0908467"><ele>617.6666666666666</ele><time>2026-03-22T10:14:02.993Z</time></trkpt><trkpt lat="44.3717883" lon="11.090885"><ele>620.5</ele><time>2026-03-22T10:14:03.993Z</time></trkpt><trkpt lat="44.3718517" lon="11.0909183"><ele>623.3333333333333</ele><time>2026-03-22T10:14:04.988Z</time></trkpt><trkpt lat="44.371915" lon="11.090945"><ele>626.1666666666666</ele><time>2026-03-22T10:14:05.991Z</time></trkpt><trkpt lat="44.3719917" lon="11.0909933"><ele>629.0</ele><time>2026-03-22T10:14:07.988Z</time></trkpt><trkpt lat="44.37208" lon="11.091"><ele>629.0</ele><time>2026-03-22T10:14:10.992Z</time></trkpt><trkpt lat="44.3721333" lon="11.09109"><ele>629.0</ele><time>2026-03-22T10:14:14.991Z</time></trkpt><trkpt lat="44.3721367" lon="11.0911783"><ele>629.0</ele><time>2026-03-22T10:14:15.99Z</time></trkpt><trkpt lat="44.3721383" lon="11.0912817"><ele>629.0</ele><time>2026-03-22T10:14:16.988Z</time></trkpt><trkpt lat="44.3721483" lon="11.0913983"><ele>629.0</ele><time>2026-03-22T10:14:17.992Z</time></trkpt><trkpt lat="44.372155" lon="11.0915217"><ele>629.0</ele><time>2026-03-22T10:14:18.99Z</time></trkpt><trkpt lat="44.3721617" lon="11.0916533"><ele>628.1666666666666</ele><time>2026-03-22T10:14:19.991Z</time></trkpt><trkpt lat="44.3721617" lon="11.0918033"><ele>627.3333333333333</ele><time>2026-03-22T10:14:20.992Z</time></trkpt><trkpt lat="44.37216" lon="11.09195"><ele>626.5</ele><time>2026-03-22T10:14:21.991Z</time></trkpt><trkpt lat="44.372165" lon="11.0920683"><ele>625.6666666666666</ele><time>2026-03-22T10:14:22.999Z</time></trkpt><trkpt lat="44.3721783" lon="11.092165"><ele>624.8333333333334</ele><time>2026-03-22T10:14:23.996Z</time></trkpt><trkpt lat="44.3722067" lon="11.0922583"><ele>624.0</ele><time>2026-03-22T10:14:24.988Z</time></trkpt><trkpt lat="44.3722583" lon="11.0923617"><ele>624.3333333333334</ele><time>2026-03-22T10:14:25.989Z</time></trkpt><trkpt lat="44.3723167" lon="11.092475"><ele>624.6666666666666</ele><time>2026-03-22T10:14:26.991Z</time></trkpt><trkpt lat="44.3723683" lon="11.0925833"><ele>625.0</ele><time>2026-03-22T10:14:27.99Z</time></trkpt><trkpt lat="44.37241" lon="11.092685"><ele>625.3333333333333</ele><time>2026-03-22T10:14:28.993Z</time></trkpt><trkpt lat="44.3724417" lon="11.092775"><ele>625.6666666666666</ele><time>2026-03-22T10:14:29.989Z</time></trkpt><trkpt lat="44.3724517" lon="11.092865"><ele>626.0</ele><time>2026-03-22T10:14:30.989Z</time></trkpt><trkpt lat="44.3724467" lon="11.0929733"><ele>626.0</ele><time>2026-03-22T10:14:31.987Z</time></trkpt><trkpt lat="44.372435" lon="11.09311"><ele>626.0</ele><time>2026-03-22T10:14:32.992Z</time></trkpt><trkpt lat="44.3724233" lon="11.0932567"><ele>626.0</ele><time>2026-03-22T10:14:33.989Z</time></trkpt><trkpt lat="44.3724117" lon="11.0933967"><ele>626.0</ele><time>2026-03-22T10:14:34.994Z</time></trkpt><trkpt lat="44.3724033" lon="11.0935267"><ele>626.0</ele><time>2026-03-22T10:14:35.993Z</time></trkpt><trkpt lat="44.372395" lon="11.0936533"><ele>626.8</ele><time>2026-03-22T10:14:36.99Z</time></trkpt><trkpt lat="44.3723867" lon="11.0937783"><ele>627.6</ele><time>2026-03-22T10:14:37.991Z</time></trkpt><trkpt lat="44.3723783" lon="11.0939033"><ele>628.4</ele><time>2026-03-22T10:14:38.991Z</time></trkpt><trkpt lat="44.372375" lon="11.0940333"><ele>629.2</ele><time>2026-03-22T10:14:39.992Z</time></trkpt><trkpt lat="44.3723683" lon="11.0941733"><ele>630.0</ele><time>2026-03-22T10:14:40.991Z</time></trkpt><trkpt lat="44.3723683" lon="11.0943167"><ele>631.6</ele><time>2026-03-22T10:14:41.991Z</time></trkpt><trkpt lat="44.3723717" lon="11.09445"><ele>633.2</ele><time>2026-03-22T10:14:42.992Z</time></trkpt><trkpt lat="44.37238" lon="11.094575"><ele>634.8</ele><time>2026-03-22T10:14:43.993Z</time></trkpt><trkpt lat="44.3723917" lon="11.0947017"><ele>636.4</ele><time>2026-03-22T10:14:44.989Z</time></trkpt><trkpt lat="44.372405" lon="11.0948333"><ele>638.0</ele><time>2026-03-22T10:14:45.993Z</time></trkpt><trkpt lat="44.37242" lon="11.0949767"><ele>638.8</ele><time>2026-03-22T10:14:46.993Z</time></trkpt><trkpt lat="44.3724167" lon="11.0951217"><ele>639.5999999999999</ele><time>2026-03-22T10:14:47.989Z</time></trkpt><trkpt lat="44.37241" lon="11.09527"><ele>640.4000000000001</ele><time>2026-03-22T10:14:48.991Z</time></trkpt><trkpt lat="44.3723983" lon="11.0954083"><ele>641.2</ele><time>2026-03-22T10:14:49.99Z</time></trkpt><trkpt lat="44.3723883" lon="11.0955267"><ele>642.0</ele><time>2026-03-22T10:14:50.994Z</time></trkpt><trkpt lat="44.3723567" lon="11.0956433"><ele>644.4000000000001</ele><time>2026-03-22T10:14:51.991Z</time></trkpt><trkpt lat="44.3723233" lon="11.0957667"><ele>646.8000000000001</ele><time>2026-03-22T10:14:52.989Z</time></trkpt><trkpt lat="44.3722983" lon="11.0958867"><ele>649.2</ele><time>2026-03-22T10:14:53.998Z</time></trkpt><trkpt lat="44.3722933" lon="11.0960083"><ele>651.6</ele><time>2026-03-22T10:14:54.99Z</time></trkpt><trkpt lat="44.3723133" lon="11.0961383"><ele>654.0</ele><time>2026-03-22T10:14:56.001Z</time></trkpt><trkpt lat="44.3723283" lon="11.0962667"><ele>654.0</ele><time>2026-03-22T10:14:56.991Z</time></trkpt><trkpt lat="44.3723317" lon="11.096395"><ele>654.0</ele><time>2026-03-22T10:14:57.989Z</time></trkpt><trkpt lat="44.37233" lon="11.0965217"><ele>654.0</ele><time>2026-03-22T10:14:58.989Z</time></trkpt><trkpt lat="44.372335" lon="11.0966517"><ele>654.0</ele><time>2026-03-22T10:14:59.99Z</time></trkpt><trkpt lat="44.3723417" lon="11.0967883"><ele>654.0</ele><time>2026-03-22T10:15:00.994Z</time></trkpt><trkpt lat="44.372355" lon="11.0969083"><ele>655.0</ele><time>2026-03-22T10:15:01.99Z</time></trkpt><trkpt lat="44.3723817" lon="11.0970283"><ele>656.0</ele><time>2026-03-22T10:15:02.992Z</time></trkpt><trkpt lat="44.3724117" lon="11.0971317"><ele>657.0</ele><time>2026-03-22T10:15:03.99Z</time></trkpt><trkpt lat="44.37246" lon="11.0972267"><ele>658.0</ele><time>2026-03-22T10:15:04.993Z</time></trkpt><trkpt lat="44.3725217" lon="11.0973267"><ele>659.0</ele><time>2026-03-22T10:15:05.992Z</time></trkpt><trkpt lat="44.37259" lon="11.097435"><ele>660.0</ele><time>2026-03-22T10:15:06.991Z</time></trkpt><trkpt lat="44.372645" lon="11.097555"><ele>661.0</ele><time>2026-03-22T10:15:07.989Z</time></trkpt><trkpt lat="44.37268" lon="11.0976717"><ele>662.0</ele><time>2026-03-22T10:15:08.995Z</time></trkpt><trkpt lat="44.3727017" lon="11.09779"><ele>663.0</ele><time>2026-03-22T10:15:09.99Z</time></trkpt><trkpt lat="44.37272" lon="11.0979167"><ele>664.0</ele><time>2026-03-22T10:15:10.991Z</time></trkpt><trkpt lat="44.3727354" lon="11.0980493"><ele>664.0</ele><time>2026-03-22T10:15:11.988Z</time></trkpt><trkpt lat="44.372748" lon="11.0981859"><ele>664.0</ele><time>2026-03-22T10:15:12.989Z</time></trkpt><trkpt lat="44.3727561" lon="11.0983219"><ele>664.0</ele><time>2026-03-22T10:15:13.988Z</time></trkpt><trkpt lat="44.3727543" lon="11.0984577"><ele>664.0</ele><time>2026-03-22T10:15:14.992Z</time></trkpt><trkpt lat="44.372745" lon="11.0985956"><ele>664.0</ele><time>2026-03-22T10:15:15.989Z</time></trkpt><trkpt lat="44.3727318" lon="11.0987316"><ele>665.0</ele><time>2026-03-22T10:15:16.989Z</time></trkpt><trkpt lat="44.3727149" lon="11.0988732"><ele>666.0</ele><time>2026-03-22T10:15:17.99Z</time></trkpt><trkpt lat="44.3727022" lon="11.0990237"><ele>667.0</ele><time>2026-03-22T10:15:18.994Z</time></trkpt><trkpt lat="44.3726936" lon="11.0991702"><ele>668.0</ele><time>2026-03-22T10:15:19.993Z</time></trkpt><trkpt lat="44.3726894" lon="11.0993179"><ele>669.0</ele><time>2026-03-22T10:15:20.991Z</time></trkpt><trkpt lat="44.3726901" lon="11.099471"><ele>671.2</ele><time>2026-03-22T10:15:21.993Z</time></trkpt><trkpt lat="44.3726956" lon="11.0996256"><ele>673.4000000000001</ele><time>2026-03-22T10:15:22.99Z</time></trkpt><trkpt lat="44.3726991" lon="11.0997774"><ele>675.6</ele><time>2026-03-22T10:15:23.995Z</time></trkpt><trkpt lat="44.3727002" lon="11.0999188"><ele>677.8</ele><time>2026-03-22T10:15:25.001Z</time></trkpt><trkpt lat="44.3727013" lon="11.1000492"><ele>680.0</ele><time>2026-03-22T10:15:25.998Z</time></trkpt><trkpt lat="44.3727032" lon="11.1001705"><ele>681.8333333333333</ele><time>2026-03-22T10:15:26.994Z</time></trkpt><trkpt lat="44.3727002" lon="11.1002827"><ele>683.6666666666666</ele><time>2026-03-22T10:15:27.993Z</time></trkpt><trkpt lat="44.3726921" lon="11.1003924"><ele>685.5</ele><time>2026-03-22T10:15:28.989Z</time></trkpt><trkpt lat="44.3726844" lon="11.1005139"><ele>687.3333333333334</ele><time>2026-03-22T10:15:29.992Z</time></trkpt><trkpt lat="44.372679" lon="11.1006354"><ele>689.1666666666667</ele><time>2026-03-22T10:15:30.994Z</time></trkpt><trkpt lat="44.3726701" lon="11.100761"><ele>691.0</ele><time>2026-03-22T10:15:31.989Z</time></trkpt><trkpt lat="44.3726515" lon="11.1009059"><ele>693.1999999999999</ele><time>2026-03-22T10:15:32.993Z</time></trkpt><trkpt lat="44.3726247" lon="11.1010547"><ele>695.4</ele><time>2026-03-22T10:15:33.995Z</time></trkpt><trkpt lat="44.3725912" lon="11.101191"><ele>697.6</ele><time>2026-03-22T10:15:34.988Z</time></trkpt><trkpt lat="44.3725596" lon="11.1013084"><ele>699.8</ele><time>2026-03-22T10:15:35.992Z</time></trkpt><trkpt lat="44.3725248" lon="11.101418"><ele>702.0</ele><time>2026-03-22T10:15:36.99Z</time></trkpt><trkpt lat="44.3724866" lon="11.1015171"><ele>702.8333333333334</ele><time>2026-03-22T10:15:37.991Z</time></trkpt><trkpt lat="44.3724492" lon="11.1016097"><ele>703.6666666666666</ele><time>2026-03-22T10:15:38.991Z</time></trkpt><trkpt lat="44.3724183" lon="11.1016982"><ele>704.5</ele><time>2026-03-22T10:15:39.992Z</time></trkpt><trkpt lat="44.3723875" lon="11.10178"><ele>705.3333333333333</ele><time>2026-03-22T10:15:40.992Z</time></trkpt><trkpt lat="44.3723515" lon="11.1018548"><ele>706.1666666666666</ele><time>2026-03-22T10:15:41.994Z</time></trkpt><trkpt lat="44.3722605" lon="11.1019715"><ele>707.0</ele><time>2026-03-22T10:15:43.989Z</time></trkpt><trkpt lat="44.3721789" lon="11.1020517"><ele>707.3333333333333</ele><time>2026-03-22T10:15:45.991Z</time></trkpt><trkpt lat="44.372065" lon="11.10212"><ele>707.6666666666666</ele><time>2026-03-22T10:15:54.991Z</time></trkpt><trkpt lat="44.3719983" lon="11.10214"><ele>708.0</ele><time>2026-03-22T10:15:55.993Z</time></trkpt><trkpt lat="44.3719283" lon="11.10217"><ele>708.3333333333334</ele><time>2026-03-22T10:15:56.991Z</time></trkpt><trkpt lat="44.3718483" lon="11.102205"><ele>708.6666666666667</ele><time>2026-03-22T10:15:57.993Z</time></trkpt><trkpt lat="44.3717567" lon="11.10225"><ele>709.0</ele><time>2026-03-22T10:15:58.99Z</time></trkpt><trkpt lat="44.37166" lon="11.1022983"><ele>709.0</ele><time>2026-03-22T10:15:59.989Z</time></trkpt><trkpt lat="44.3715567" lon="11.10235"><ele>709.0</ele><time>2026-03-22T10:16:00.999Z</time></trkpt><trkpt lat="44.37145" lon="11.10241"><ele>709.0</ele><time>2026-03-22T10:16:01.993Z</time></trkpt><trkpt lat="44.3713367" lon="11.1024733"><ele>709.0</ele><time>2026-03-22T10:16:02.994Z</time></trkpt><trkpt lat="44.3712167" lon="11.1025383"><ele>707.25</ele><time>2026-03-22T10:16:03.989Z</time></trkpt><trkpt lat="44.3710983" lon="11.1025917"><ele>705.5</ele><time>2026-03-22T10:16:04.991Z</time></trkpt><trkpt lat="44.37098" lon="11.102645"><ele>703.75</ele><time>2026-03-22T10:16:05.989Z</time></trkpt><trkpt lat="44.3708617" lon="11.1027033"><ele>702.0</ele><time>2026-03-22T10:16:06.989Z</time></trkpt><trkpt lat="44.370745" lon="11.1027633"><ele>702.0</ele><time>2026-03-22T10:16:07.992Z</time></trkpt><trkpt lat="44.3706283" lon="11.1028283"><ele>702.0</ele><time>2026-03-22T10:16:08.99Z</time></trkpt><trkpt lat="44.3705133" lon="11.1028983"><ele>702.0</ele><time>2026-03-22T10:16:09.989Z</time></trkpt><trkpt lat="44.3703983" lon="11.1029733"><ele>702.0</ele><time>2026-03-22T10:16:10.989Z</time></trkpt><trkpt lat="44.3702833" lon="11.1030567"><ele>698.25</ele><time>2026-03-22T10:16:11.988Z</time></trkpt><trkpt lat="44.370165" lon="11.103145"><ele>694.5</ele><time>2026-03-22T10:16:12.992Z</time></trkpt><trkpt lat="44.3700467" lon="11.1032383"><ele>690.75</ele><time>2026-03-22T10:16:13.992Z</time></trkpt><trkpt lat="44.36993" lon="11.1033267"><ele>687.0</ele><time>2026-03-22T10:16:14.993Z</time></trkpt><trkpt lat="44.36981" lon="11.103415"><ele>685.0</ele><time>2026-03-22T10:16:15.99Z</time></trkpt><trkpt lat="44.3696917" lon="11.103495"><ele>683.0</ele><time>2026-03-22T10:16:16.989Z</time></trkpt><trkpt lat="44.3695783" lon="11.103575"><ele>681.0</ele><time>2026-03-22T10:16:17.993Z</time></trkpt><trkpt lat="44.3694633" lon="11.10365"><ele>679.0</ele><time>2026-03-22T10:16:18.994Z</time></trkpt><trkpt lat="44.36934" lon="11.1037317"><ele>679.0</ele><time>2026-03-22T10:16:19.993Z</time></trkpt><trkpt lat="44.3692133" lon="11.103825"><ele>679.0</ele><time>2026-03-22T10:16:20.99Z</time></trkpt><trkpt lat="44.3690867" lon="11.103925"><ele>679.0</ele><time>2026-03-22T10:16:21.989Z</time></trkpt><trkpt lat="44.3689567" lon="11.1040267"><ele>679.0</ele><time>2026-03-22T10:16:22.992Z</time></trkpt><trkpt lat="44.36882" lon="11.1041233"><ele>679.0</ele><time>2026-03-22T10:16:23.992Z</time></trkpt><trkpt lat="44.3686717" lon="11.10421"><ele>679.0</ele><time>2026-03-22T10:16:24.991Z</time></trkpt><trkpt lat="44.3685267" lon="11.1042817"><ele>679.0</ele><time>2026-03-22T10:16:25.997Z</time></trkpt><trkpt lat="44.3683817" lon="11.1043417"><ele>679.0</ele><time>2026-03-22T10:16:26.993Z</time></trkpt><trkpt lat="44.368235" lon="11.104405"><ele>679.0</ele><time>2026-03-22T10:16:27.994Z</time></trkpt><trkpt lat="44.3680867" lon="11.1044667"><ele>679.0</ele><time>2026-03-22T10:16:28.992Z</time></trkpt><trkpt lat="44.3679417" lon="11.1045283"><ele>679.5</ele><time>2026-03-22T10:16:29.995Z</time></trkpt><trkpt lat="44.3678" lon="11.104585"><ele>680.0</ele><time>2026-03-22T10:16:30.992Z</time></trkpt><trkpt lat="44.36766" lon="11.1046417"><ele>680.5</ele><time>2026-03-22T10:16:31.996Z</time></trkpt><trkpt lat="44.3675133" lon="11.104705"><ele>681.0</ele><time>2026-03-22T10:16:32.993Z</time></trkpt><trkpt lat="44.3673633" lon="11.1047667"><ele>681.0</ele><time>2026-03-22T10:16:33.986Z</time></trkpt><trkpt lat="44.3672217" lon="11.10483"><ele>681.0</ele><time>2026-03-22T10:16:34.994Z</time></trkpt><trkpt lat="44.367085" lon="11.1048783"><ele>681.0</ele><time>2026-03-22T10:16:35.993Z</time></trkpt><trkpt lat="44.3669417" lon="11.1049083"><ele>681.0</ele><time>2026-03-22T10:16:36.994Z</time></trkpt><trkpt lat="44.3667917" lon="11.104935"><ele>681.6666666666666</ele><time>2026-03-22T10:16:37.991Z</time></trkpt><trkpt lat="44.366635" lon="11.1049567"><ele>682.3333333333333</ele><time>2026-03-22T10:16:38.993Z</time></trkpt><trkpt lat="44.3664767" lon="11.1049767"><ele>683.0</ele><time>2026-03-22T10:16:39.994Z</time></trkpt><trkpt lat="44.366315" lon="11.105"><ele>683.0</ele><time>2026-03-22T10:16:40.995Z</time></trkpt><trkpt lat="44.366155" lon="11.10502"><ele>683.0</ele><time>2026-03-22T10:16:41.99Z</time></trkpt><trkpt lat="44.366" lon="11.105035"><ele>683.0</ele><time>2026-03-22T10:16:42.996Z</time></trkpt><trkpt lat="44.36585" lon="11.1050517"><ele>683.0</ele><time>2026-03-22T10:16:43.991Z</time></trkpt><trkpt lat="44.36571" lon="11.1050733"><ele>683.0</ele><time>2026-03-22T10:16:44.992Z</time></trkpt><trkpt lat="44.3655717" lon="11.1051"><ele>683.0</ele><time>2026-03-22T10:16:45.993Z</time></trkpt><trkpt lat="44.3654317" lon="11.10513"><ele>683.0</ele><time>2026-03-22T10:16:46.995Z</time></trkpt><trkpt lat="44.3652917" lon="11.10516"><ele>684.6666666666666</ele><time>2026-03-22T10:16:47.993Z</time></trkpt><trkpt lat="44.365145" lon="11.1051833"><ele>686.3333333333334</ele><time>2026-03-22T10:16:48.994Z</time></trkpt><trkpt lat="44.3649933" lon="11.10521"><ele>688.0</ele><time>2026-03-22T10:16:49.99Z</time></trkpt><trkpt lat="44.36484" lon="11.1052383"><ele>688.3333333333334</ele><time>2026-03-22T10:16:50.996Z</time></trkpt><trkpt lat="44.3646817" lon="11.10527"><ele>688.6666666666666</ele><time>2026-03-22T10:16:51.997Z</time></trkpt><trkpt lat="44.3645233" lon="11.1053"><ele>689.0</ele><time>2026-03-22T10:16:52.989Z</time></trkpt><trkpt lat="44.3643667" lon="11.1053367"><ele>689.0</ele><time>2026-03-22T10:16:53.993Z</time></trkpt><trkpt lat="44.3642117" lon="11.1053717"><ele>689.0</ele><time>2026-03-22T10:16:54.994Z</time></trkpt><trkpt lat="44.364055" lon="11.10541"><ele>689.0</ele><time>2026-03-22T10:16:55.995Z</time></trkpt><trkpt lat="44.3638983" lon="11.1054467"><ele>687.6666666666666</ele><time>2026-03-22T10:16:56.996Z</time></trkpt><trkpt lat="44.36374" lon="11.1054767"><ele>686.3333333333334</ele><time>2026-03-22T10:16:57.991Z</time></trkpt><trkpt lat="44.3635817" lon="11.1055"><ele>685.0</ele><time>2026-03-22T10:16:58.995Z</time></trkpt><trkpt lat="44.36342" lon="11.1055317"><ele>685.0</ele><time>2026-03-22T10:16:59.993Z</time></trkpt><trkpt lat="44.3632583" lon="11.1055617"><ele>685.0</ele><time>2026-03-22T10:17:00.991Z</time></trkpt><trkpt lat="44.3630967" lon="11.10559"><ele>685.0</ele><time>2026-03-22T10:17:01.989Z</time></trkpt><trkpt lat="44.3629367" lon="11.1056167"><ele>685.0</ele><time>2026-03-22T10:17:02.995Z</time></trkpt><trkpt lat="44.36278" lon="11.10564"><ele>685.0</ele><time>2026-03-22T10:17:03.989Z</time></trkpt><trkpt lat="44.3626233" lon="11.105665"><ele>685.0</ele><time>2026-03-22T10:17:04.995Z</time></trkpt><trkpt lat="44.3624667" lon="11.1056917"><ele>685.0</ele><time>2026-03-22T10:17:05.994Z</time></trkpt><trkpt lat="44.3623067" lon="11.1057233"><ele>685.0</ele><time>2026-03-22T10:17:06.991Z</time></trkpt><trkpt lat="44.3621467" lon="11.105755"><ele>685.0</ele><time>2026-03-22T10:17:07.99Z</time></trkpt><trkpt lat="44.3619917" lon="11.1057867"><ele>685.6666666666667</ele><time>2026-03-22T10:17:08.99Z</time></trkpt><trkpt lat="44.361835" lon="11.10582"><ele>686.3333333333334</ele><time>2026-03-22T10:17:09.993Z</time></trkpt><trkpt lat="44.3616717" lon="11.1058567"><ele>687.0</ele><time>2026-03-22T10:17:10.994Z</time></trkpt><trkpt lat="44.361505" lon="11.1058883"><ele>686.75</ele><time>2026-03-22T10:17:11.988Z</time></trkpt><trkpt lat="44.3613483" lon="11.1059167"><ele>686.5</ele><time>2026-03-22T10:17:12.99Z</time></trkpt><trkpt lat="44.3611983" lon="11.1059417"><ele>686.25</ele><time>2026-03-22T10:17:13.995Z</time></trkpt><trkpt lat="44.36106" lon="11.1059583"><ele>686.0</ele><time>2026-03-22T10:17:14.992Z</time></trkpt><trkpt lat="44.360925" lon="11.1059733"><ele>686.0</ele><time>2026-03-22T10:17:15.999Z</time></trkpt><trkpt lat="44.36079" lon="11.1059733"><ele>686.0</ele><time>2026-03-22T10:17:16.987Z</time></trkpt><trkpt lat="44.3606533" lon="11.1059733"><ele>686.0</ele><time>2026-03-22T10:17:17.992Z</time></trkpt><trkpt lat="44.3605133" lon="11.105965"><ele>686.0</ele><time>2026-03-22T10:17:18.989Z</time></trkpt><trkpt lat="44.3603733" lon="11.1059517"><ele>686.0</ele><time>2026-03-22T10:17:19.994Z</time></trkpt><trkpt lat="44.3602383" lon="11.10593"><ele>686.0</ele><time>2026-03-22T10:17:20.989Z</time></trkpt><trkpt lat="44.3601167" lon="11.1059117"><ele>686.0</ele><time>2026-03-22T10:17:21.993Z</time></trkpt><trkpt lat="44.3599983" lon="11.10589"><ele>686.0</ele><time>2026-03-22T10:17:22.992Z</time></trkpt><trkpt lat="44.3598883" lon="11.1058667"><ele>686.0</ele><time>2026-03-22T10:17:23.995Z</time></trkpt><trkpt lat="44.3597933" lon="11.105845"><ele>686.0</ele><time>2026-03-22T10:17:24.993Z</time></trkpt><trkpt lat="44.359715" lon="11.1058267"><ele>686.0</ele><time>2026-03-22T10:17:25.994Z</time></trkpt><trkpt lat="44.35965" lon="11.105815"><ele>686.0</ele><time>2026-03-22T10:17:26.993Z</time></trkpt><trkpt lat="44.3595517" lon="11.1058317"><ele>686.0</ele><time>2026-03-22T10:17:28.99Z</time></trkpt><trkpt lat="44.3594933" lon="11.1059417"><ele>686.0</ele><time>2026-03-22T10:17:34.99Z</time></trkpt><trkpt lat="44.359555" lon="11.1060583"><ele>686.0</ele><time>2026-03-22T10:17:36.993Z</time></trkpt><trkpt lat="44.3596333" lon="11.1061517"><ele>686.0</ele><time>2026-03-22T10:17:37.991Z</time></trkpt><trkpt lat="44.3597133" lon="11.1062633"><ele>686.0</ele><time>2026-03-22T10:17:38.994Z</time></trkpt><trkpt lat="44.3598217" lon="11.1064083"><ele>686.0</ele><time>2026-03-22T10:17:39.989Z</time></trkpt><trkpt lat="44.359935" lon="11.10655"><ele>685.5</ele><time>2026-03-22T10:17:40.996Z</time></trkpt><trkpt lat="44.3600517" lon="11.1066783"><ele>685.0</ele><time>2026-03-22T10:17:41.99Z</time></trkpt><trkpt lat="44.360165" lon="11.1067983"><ele>684.5</ele><time>2026-03-22T10:17:42.993Z</time></trkpt><trkpt lat="44.36028" lon="11.1069017"><ele>684.0</ele><time>2026-03-22T10:17:43.993Z</time></trkpt><trkpt lat="44.36039" lon="11.1069967"><ele>684.0</ele><time>2026-03-22T10:17:44.995Z</time></trkpt><trkpt lat="44.3604983" lon="11.1070867"><ele>684.0</ele><time>2026-03-22T10:17:45.99Z</time></trkpt><trkpt lat="44.3606017" lon="11.10718"><ele>684.0</ele><time>2026-03-22T10:17:46.988Z</time></trkpt><trkpt lat="44.3607083" lon="11.107275"><ele>684.0</ele><time>2026-03-22T10:17:47.992Z</time></trkpt><trkpt lat="44.3608167" lon="11.10737"><ele>683.0</ele><time>2026-03-22T10:17:48.991Z</time></trkpt><trkpt lat="44.3609283" lon="11.1074667"><ele>682.0</ele><time>2026-03-22T10:17:49.989Z</time></trkpt><trkpt lat="44.3610417" lon="11.1075617"><ele>681.0</ele><time>2026-03-22T10:17:50.996Z</time></trkpt><trkpt lat="44.361155" lon="11.107655"><ele>680.0</ele><time>2026-03-22T10:17:51.991Z</time></trkpt><trkpt lat="44.361265" lon="11.1077467"><ele>681.25</ele><time>2026-03-22T10:17:52.992Z</time></trkpt><trkpt lat="44.3613733" lon="11.1078333"><ele>682.5</ele><time>2026-03-22T10:17:53.991Z</time></trkpt><trkpt lat="44.3614817" lon="11.1079217"><ele>683.75</ele><time>2026-03-22T10:17:54.988Z</time></trkpt><trkpt lat="44.3615883" lon="11.1080117"><ele>685.0</ele><time>2026-03-22T10:17:56.001Z</time></trkpt><trkpt lat="44.3616933" lon="11.1081033"><ele>685.0</ele><time>2026-03-22T10:17:56.994Z</time></trkpt><trkpt lat="44.3618" lon="11.1081883"><ele>685.0</ele><time>2026-03-22T10:17:57.991Z</time></trkpt><trkpt lat="44.3619083" lon="11.1082767"><ele>685.0</ele><time>2026-03-22T10:17:58.988Z</time></trkpt><trkpt lat="44.3620167" lon="11.1083733"><ele>685.0</ele><time>2026-03-22T10:17:59.992Z</time></trkpt><trkpt lat="44.36213" lon="11.10847"><ele>684.5</ele><time>2026-03-22T10:18:00.995Z</time></trkpt><trkpt lat="44.3622433" lon="11.1085667"><ele>684.0</ele><time>2026-03-22T10:18:01.99Z</time></trkpt><trkpt lat="44.3623583" lon="11.10866"><ele>683.5</ele><time>2026-03-22T10:18:02.992Z</time></trkpt><trkpt lat="44.3624733" lon="11.1087533"><ele>683.0</ele><time>2026-03-22T10:18:03.993Z</time></trkpt><trkpt lat="44.3625883" lon="11.1088533"><ele>683.0</ele><time>2026-03-22T10:18:04.991Z</time></trkpt><trkpt lat="44.3627" lon="11.1089483"><ele>683.0</ele><time>2026-03-22T10:18:05.989Z</time></trkpt><trkpt lat="44.36281" lon="11.1090383"><ele>683.0</ele><time>2026-03-22T10:18:06.993Z</time></trkpt><trkpt lat="44.36292" lon="11.10913"><ele>683.0</ele><time>2026-03-22T10:18:07.993Z</time></trkpt><trkpt lat="44.363035" lon="11.109225"><ele>682.0</ele><time>2026-03-22T10:18:08.995Z</time></trkpt><trkpt lat="44.36315" lon="11.1093167"><ele>681.0</ele><time>2026-03-22T10:18:09.988Z</time></trkpt><trkpt lat="44.363275" lon="11.1094067"><ele>680.0</ele><time>2026-03-22T10:18:10.998Z</time></trkpt><trkpt lat="44.3634067" lon="11.1094867"><ele>679.0</ele><time>2026-03-22T10:18:11.994Z</time></trkpt><trkpt lat="44.36354" lon="11.109555"><ele>679.0</ele><time>2026-03-22T10:18:12.99Z</time></trkpt><trkpt lat="44.36367" lon="11.109615"><ele>679.0</ele><time>2026-03-22T10:18:13.991Z</time></trkpt><trkpt lat="44.3637983" lon="11.1096767"><ele>679.0</ele><time>2026-03-22T10:18:14.992Z</time></trkpt><trkpt lat="44.36393" lon="11.1097417"><ele>679.0</ele><time>2026-03-22T10:18:15.994Z</time></trkpt><trkpt lat="44.3640583" lon="11.1098083"><ele>677.75</ele><time>2026-03-22T10:18:16.992Z</time></trkpt><trkpt lat="44.3641833" lon="11.1098883"><ele>676.5</ele><time>2026-03-22T10:18:17.989Z</time></trkpt><trkpt lat="44.3642983" lon="11.1099867"><ele>675.25</ele><time>2026-03-22T10:18:18.99Z</time></trkpt><trkpt lat="44.3644017" lon="11.1101033"><ele>674.0</ele><time>2026-03-22T10:18:19.988Z</time></trkpt><trkpt lat="44.3644917" lon="11.1102383"><ele>672.5</ele><time>2026-03-22T10:18:20.993Z</time></trkpt><trkpt lat="44.36458" lon="11.1103867"><ele>671.0</ele><time>2026-03-22T10:18:21.995Z</time></trkpt><trkpt lat="44.3646567" lon="11.1105417"><ele>669.5</ele><time>2026-03-22T10:18:22.988Z</time></trkpt><trkpt lat="44.3647233" lon="11.1107083"><ele>668.0</ele><time>2026-03-22T10:18:23.987Z</time></trkpt><trkpt lat="44.3647833" lon="11.110885"><ele>665.5</ele><time>2026-03-22T10:18:24.989Z</time></trkpt><trkpt lat="44.3648417" lon="11.11106"><ele>663.0</ele><time>2026-03-22T10:18:25.988Z</time></trkpt><trkpt lat="44.3649067" lon="11.1112267"><ele>660.5</ele><time>2026-03-22T10:18:26.989Z</time></trkpt><trkpt lat="44.364975" lon="11.1113917"><ele>658.0</ele><time>2026-03-22T10:18:27.992Z</time></trkpt><trkpt lat="44.36504" lon="11.111565"><ele>656.25</ele><time>2026-03-22T10:18:28.991Z</time></trkpt><trkpt lat="44.3651067" lon="11.1117467"><ele>654.5</ele><time>2026-03-22T10:18:29.99Z</time></trkpt><trkpt lat="44.3651733" lon="11.1119333"><ele>652.75</ele><time>2026-03-22T10:18:30.988Z</time></trkpt><trkpt lat="44.36524" lon="11.1121217"><ele>651.0</ele><time>2026-03-22T10:18:31.987Z</time></trkpt><trkpt lat="44.3653083" lon="11.11231"><ele>648.75</ele><time>2026-03-22T10:18:32.991Z</time></trkpt><trkpt lat="44.3653783" lon="11.1124967"><ele>646.5</ele><time>2026-03-22T10:18:33.998Z</time></trkpt><trkpt lat="44.3654483" lon="11.11267"><ele>644.25</ele><time>2026-03-22T10:18:34.992Z</time></trkpt><trkpt lat="44.3655233" lon="11.1128333"><ele>642.0</ele><time>2026-03-22T10:18:35.992Z</time></trkpt><trkpt lat="44.36561" lon="11.112995"><ele>641.3333333333334</ele><time>2026-03-22T10:18:36.994Z</time></trkpt><trkpt lat="44.3657067" lon="11.1131517"><ele>640.6666666666667</ele><time>2026-03-22T10:18:37.991Z</time></trkpt><trkpt lat="44.36581" lon="11.1133117"><ele>640.0</ele><time>2026-03-22T10:18:38.992Z</time></trkpt><trkpt lat="44.365915" lon="11.1134783"><ele>638.6666666666667</ele><time>2026-03-22T10:18:39.999Z</time></trkpt><trkpt lat="44.36602" lon="11.1136417"><ele>637.3333333333334</ele><time>2026-03-22T10:18:40.989Z</time></trkpt><trkpt lat="44.366125" lon="11.1138"><ele>636.0</ele><time>2026-03-22T10:18:41.991Z</time></trkpt><trkpt lat="44.3662283" lon="11.1139583"><ele>634.3333333333334</ele><time>2026-03-22T10:18:42.991Z</time></trkpt><trkpt lat="44.366335" lon="11.1141183"><ele>632.6666666666667</ele><time>2026-03-22T10:18:43.987Z</time></trkpt><trkpt lat="44.3664467" lon="11.1142833"><ele>631.0</ele><time>2026-03-22T10:18:44.995Z</time></trkpt><trkpt lat="44.366555" lon="11.114455"><ele>630.6666666666667</ele><time>2026-03-22T10:18:45.987Z</time></trkpt><trkpt lat="44.3666633" lon="11.1146167"><ele>630.3333333333334</ele><time>2026-03-22T10:18:46.99Z</time></trkpt><trkpt lat="44.3667767" lon="11.114765"><ele>630.0</ele><time>2026-03-22T10:18:47.994Z</time></trkpt><trkpt lat="44.3668917" lon="11.1148983"><ele>628.5</ele><time>2026-03-22T10:18:48.988Z</time></trkpt><trkpt lat="44.3670083" lon="11.1150233"><ele>627.0</ele><time>2026-03-22T10:18:49.996Z</time></trkpt><trkpt lat="44.367125" lon="11.1151533"><ele>625.5</ele><time>2026-03-22T10:18:50.989Z</time></trkpt><trkpt lat="44.36724" lon="11.1152783"><ele>624.0</ele><time>2026-03-22T10:18:51.991Z</time></trkpt><trkpt lat="44.3673467" lon="11.115395"><ele>623.25</ele><time>2026-03-22T10:18:52.995Z</time></trkpt><trkpt lat="44.36744" lon="11.1155283"><ele>622.5</ele><time>2026-03-22T10:18:53.996Z</time></trkpt><trkpt lat="44.3675233" lon="11.11568"><ele>621.75</ele><time>2026-03-22T10:18:54.99Z</time></trkpt><trkpt lat="44.36759" lon="11.11585"><ele>621.0</ele><time>2026-03-22T10:18:55.991Z</time></trkpt><trkpt lat="44.3676367" lon="11.1160367"><ele>620.5</ele><time>2026-03-22T10:18:56.992Z</time></trkpt><trkpt lat="44.3676783" lon="11.1162317"><ele>620.0</ele><time>2026-03-22T10:18:57.993Z</time></trkpt><trkpt lat="44.3677267" lon="11.1164233"><ele>619.5</ele><time>2026-03-22T10:18:58.991Z</time></trkpt><trkpt lat="44.3677867" lon="11.1166083"><ele>619.0</ele><time>2026-03-22T10:18:59.991Z</time></trkpt><trkpt lat="44.367855" lon="11.1167883"><ele>617.5</ele><time>2026-03-22T10:19:00.99Z</time></trkpt><trkpt lat="44.3679267" lon="11.1169633"><ele>616.0</ele><time>2026-03-22T10:19:01.994Z</time></trkpt><trkpt lat="44.3679967" lon="11.1171317"><ele>614.5</ele><time>2026-03-22T10:19:02.991Z</time></trkpt><trkpt lat="44.3680667" lon="11.1173"><ele>613.0</ele><time>2026-03-22T10:19:03.99Z</time></trkpt><trkpt lat="44.3681317" lon="11.1174733"><ele>611.75</ele><time>2026-03-22T10:19:04.995Z</time></trkpt><trkpt lat="44.3681967" lon="11.1176467"><ele>610.5</ele><time>2026-03-22T10:19:05.994Z</time></trkpt><trkpt lat="44.3682583" lon="11.1178183"><ele>609.25</ele><time>2026-03-22T10:19:07.002Z</time></trkpt><trkpt lat="44.3683167" lon="11.1179883"><ele>608.0</ele><time>2026-03-22T10:19:07.991Z</time></trkpt><trkpt lat="44.3683683" lon="11.1181617"><ele>607.75</ele><time>2026-03-22T10:19:08.992Z</time></trkpt><trkpt lat="44.3684117" lon="11.1183367"><ele>607.5</ele><time>2026-03-22T10:19:09.99Z</time></trkpt><trkpt lat="44.3684433" lon="11.1185133"><ele>607.25</ele><time>2026-03-22T10:19:10.989Z</time></trkpt><trkpt lat="44.3684717" lon="11.11869"><ele>607.0</ele><time>2026-03-22T10:19:11.992Z</time></trkpt><trkpt lat="44.3685" lon="11.11886"><ele>607.0</ele><time>2026-03-22T10:19:12.989Z</time></trkpt><trkpt lat="44.3685283" lon="11.11903"><ele>607.0</ele><time>2026-03-22T10:19:13.993Z</time></trkpt><trkpt lat="44.3685567" lon="11.1191967"><ele>607.0</ele><time>2026-03-22T10:19:14.994Z</time></trkpt><trkpt lat="44.3685867" lon="11.11935"><ele>607.0</ele><time>2026-03-22T10:19:15.993Z</time></trkpt><trkpt lat="44.368615" lon="11.1194983"><ele>606.8000000000001</ele><time>2026-03-22T10:19:16.992Z</time></trkpt><trkpt lat="44.3686433" lon="11.1196517"><ele>606.6</ele><time>2026-03-22T10:19:17.991Z</time></trkpt><trkpt lat="44.36867" lon="11.1198067"><ele>606.4000000000001</ele><time>2026-03-22T10:19:18.991Z</time></trkpt><trkpt lat="44.3686917" lon="11.1199567"><ele>606.2</ele><time>2026-03-22T10:19:19.99Z</time></trkpt><trkpt lat="44.3687133" lon="11.120095"><ele>606.0</ele><time>2026-03-22T10:19:20.992Z</time></trkpt><trkpt lat="44.368735" lon="11.12023"><ele>606.0</ele><time>2026-03-22T10:19:21.988Z</time></trkpt><trkpt lat="44.368755" lon="11.1203717"><ele>606.0</ele><time>2026-03-22T10:19:22.991Z</time></trkpt><trkpt lat="44.3687667" lon="11.1205233"><ele>606.0</ele><time>2026-03-22T10:19:23.992Z</time></trkpt><trkpt lat="44.3687717" lon="11.1206683"><ele>606.0</ele><time>2026-03-22T10:19:24.988Z</time></trkpt><trkpt lat="44.3687733" lon="11.1208"><ele>606.0</ele><time>2026-03-22T10:19:25.99Z</time></trkpt><trkpt lat="44.3687733" lon="11.12093"><ele>605.8</ele><time>2026-03-22T10:19:26.99Z</time></trkpt><trkpt lat="44.3687767" lon="11.1210633"><ele>605.6</ele><time>2026-03-22T10:19:27.992Z</time></trkpt><trkpt lat="44.3687717" lon="11.12121"><ele>605.4</ele><time>2026-03-22T10:19:28.987Z</time></trkpt><trkpt lat="44.3687617" lon="11.1213633"><ele>605.2</ele><time>2026-03-22T10:19:29.987Z</time></trkpt><trkpt lat="44.368745" lon="11.121525"><ele>605.0</ele><time>2026-03-22T10:19:30.992Z</time></trkpt><trkpt lat="44.3687233" lon="11.1216767"><ele>604.6</ele><time>2026-03-22T10:19:31.989Z</time></trkpt><trkpt lat="44.368695" lon="11.1218183"><ele>604.2</ele><time>2026-03-22T10:19:32.989Z</time></trkpt><trkpt lat="44.36866" lon="11.1219567"><ele>603.8</ele><time>2026-03-22T10:19:33.992Z</time></trkpt><trkpt lat="44.3686217" lon="11.1220933"><ele>603.4</ele><time>2026-03-22T10:19:34.994Z</time></trkpt><trkpt lat="44.3685867" lon="11.122235"><ele>603.0</ele><time>2026-03-22T10:19:35.992Z</time></trkpt><trkpt lat="44.3685517" lon="11.1223683"><ele>603.4</ele><time>2026-03-22T10:19:36.99Z</time></trkpt><trkpt lat="44.3685133" lon="11.1224933"><ele>603.8</ele><time>2026-03-22T10:19:37.994Z</time></trkpt><trkpt lat="44.368475" lon="11.1226183"><ele>604.2</ele><time>2026-03-22T10:19:38.99Z</time></trkpt><trkpt lat="44.3684417" lon="11.12274"><ele>604.6</ele><time>2026-03-22T10:19:39.991Z</time></trkpt><trkpt lat="44.3684033" lon="11.1228633"><ele>605.0</ele><time>2026-03-22T10:19:40.992Z</time></trkpt><trkpt lat="44.3683667" lon="11.12299"><ele>605.0</ele><time>2026-03-22T10:19:41.992Z</time></trkpt><trkpt lat="44.368325" lon="11.1231117"><ele>605.0</ele><time>2026-03-22T10:19:42.994Z</time></trkpt><trkpt lat="44.3682783" lon="11.1232233"><ele>605.0</ele><time>2026-03-22T10:19:43.989Z</time></trkpt><trkpt lat="44.3682267" lon="11.1233217"><ele>605.0</ele><time>2026-03-22T10:19:44.991Z</time></trkpt><trkpt lat="44.368175" lon="11.1234133"><ele>605.0</ele><time>2026-03-22T10:19:45.994Z</time></trkpt><trkpt lat="44.368125" lon="11.1234983"><ele>605.0</ele><time>2026-03-22T10:19:46.988Z</time></trkpt><trkpt lat="44.368075" lon="11.1235883"><ele>604.8333333333333</ele><time>2026-03-22T10:19:47.992Z</time></trkpt><trkpt lat="44.3680233" lon="11.1236767"><ele>604.6666666666666</ele><time>2026-03-22T10:19:48.988Z</time></trkpt><trkpt lat="44.367975" lon="11.123765"><ele>604.5</ele><time>2026-03-22T10:19:49.993Z</time></trkpt><trkpt lat="44.367925" lon="11.1238517"><ele>604.3333333333334</ele><time>2026-03-22T10:19:50.99Z</time></trkpt><trkpt lat="44.3678783" lon="11.1239217"><ele>604.1666666666667</ele><time>2026-03-22T10:19:51.989Z</time></trkpt><trkpt lat="44.3677883" lon="11.1240367"><ele>604.0</ele><time>2026-03-22T10:19:53.996Z</time></trkpt><trkpt lat="44.36774" lon="11.124105"><ele>603.8</ele><time>2026-03-22T10:19:54.99Z</time></trkpt><trkpt lat="44.367685" lon="11.1241867"><ele>603.5999999999999</ele><time>2026-03-22T10:19:55.995Z</time></trkpt><trkpt lat="44.36763" lon="11.1242933"><ele>603.4</ele><time>2026-03-22T10:19:56.992Z</time></trkpt><trkpt lat="44.3675733" lon="11.1244067"><ele>603.1999999999999</ele><time>2026-03-22T10:19:57.989Z</time></trkpt><trkpt lat="44.36752" lon="11.1245167"><ele>603.0</ele><time>2026-03-22T10:19:58.992Z</time></trkpt><trkpt lat="44.3674717" lon="11.1246217"><ele>603.0</ele><time>2026-03-22T10:19:59.992Z</time></trkpt><trkpt lat="44.3674317" lon="11.1247117"><ele>603.0</ele><time>2026-03-22T10:20:00.993Z</time></trkpt><trkpt lat="44.3673967" lon="11.124785"><ele>603.0</ele><time>2026-03-22T10:20:01.994Z</time></trkpt><trkpt lat="44.3673267" lon="11.12487"><ele>603.0</ele><time>2026-03-22T10:20:03.993Z</time></trkpt><trkpt lat="44.3672233" lon="11.1248067"><ele>603.0</ele><time>2026-03-22T10:20:05.988Z</time></trkpt><trkpt lat="44.3671733" lon="11.12474"><ele>603.0</ele><time>2026-03-22T10:20:06.991Z</time></trkpt><trkpt lat="44.3671267" lon="11.124665"><ele>601.0</ele><time>2026-03-22T10:20:07.988Z</time></trkpt><trkpt lat="44.3670867" lon="11.1245767"><ele>599.0</ele><time>2026-03-22T10:20:08.992Z</time></trkpt><trkpt lat="44.367045" lon="11.124475"><ele>597.0</ele><time>2026-03-22T10:20:09.989Z</time></trkpt><trkpt lat="44.367005" lon="11.1243667"><ele>595.0</ele><time>2026-03-22T10:20:10.993Z</time></trkpt><trkpt lat="44.3669717" lon="11.1242483"><ele>593.0</ele><time>2026-03-22T10:20:11.991Z</time></trkpt><trkpt lat="44.3669417" lon="11.1241183"><ele>591.0</ele><time>2026-03-22T10:20:12.991Z</time></trkpt><trkpt lat="44.3669083" lon="11.1239833"><ele>590.6</ele><time>2026-03-22T10:20:13.989Z</time></trkpt><trkpt lat="44.36688" lon="11.1238433"><ele>590.2</ele><time>2026-03-22T10:20:14.989Z</time></trkpt><trkpt lat="44.3668567" lon="11.1236983"><ele>589.8</ele><time>2026-03-22T10:20:15.994Z</time></trkpt><trkpt lat="44.3668367" lon="11.1235467"><ele>589.4</ele><time>2026-03-22T10:20:16.99Z</time></trkpt><trkpt lat="44.36682" lon="11.123395"><ele>589.0</ele><time>2026-03-22T10:20:17.994Z</time></trkpt><trkpt lat="44.3668017" lon="11.1232383"><ele>589.25</ele><time>2026-03-22T10:20:18.992Z</time></trkpt><trkpt lat="44.3667767" lon="11.1230817"><ele>589.5</ele><time>2026-03-22T10:20:19.992Z</time></trkpt><trkpt lat="44.3667483" lon="11.1229233"><ele>589.75</ele><time>2026-03-22T10:20:20.992Z</time></trkpt><trkpt lat="44.3667283" lon="11.122765"><ele>590.0</ele><time>2026-03-22T10:20:21.996Z</time></trkpt><trkpt lat="44.3667133" lon="11.1226083"><ele>590.0</ele><time>2026-03-22T10:20:22.992Z</time></trkpt><trkpt lat="44.3667083" lon="11.12245"><ele>590.0</ele><time>2026-03-22T10:20:23.991Z</time></trkpt><trkpt lat="44.36672" lon="11.122285"><ele>590.0</ele><time>2026-03-22T10:20:24.991Z</time></trkpt><trkpt lat="44.366745" lon="11.122115"><ele>590.0</ele><time>2026-03-22T10:20:25.989Z</time></trkpt><trkpt lat="44.366775" lon="11.1219367"><ele>589.0</ele><time>2026-03-22T10:20:26.991Z</time></trkpt><trkpt lat="44.3668117" lon="11.1217583"><ele>588.0</ele><time>2026-03-22T10:20:27.995Z</time></trkpt><trkpt lat="44.3668467" lon="11.12158"><ele>587.0</ele><time>2026-03-22T10:20:28.994Z</time></trkpt><trkpt lat="44.3668783" lon="11.12141"><ele>586.0</ele><time>2026-03-22T10:20:29.989Z</time></trkpt><trkpt lat="44.3668967" lon="11.1212417"><ele>585.5</ele><time>2026-03-22T10:20:30.99Z</time></trkpt><trkpt lat="44.3669033" lon="11.1210767"><ele>585.0</ele><time>2026-03-22T10:20:31.992Z</time></trkpt><trkpt lat="44.3669" lon="11.1209117"><ele>584.5</ele><time>2026-03-22T10:20:32.994Z</time></trkpt><trkpt lat="44.366885" lon="11.120755"><ele>584.0</ele><time>2026-03-22T10:20:33.995Z</time></trkpt><trkpt lat="44.366855" lon="11.1206083"><ele>585.1666666666666</ele><time>2026-03-22T10:20:34.991Z</time></trkpt><trkpt lat="44.36682" lon="11.1204767"><ele>586.3333333333333</ele><time>2026-03-22T10:20:35.992Z</time></trkpt><trkpt lat="44.366785" lon="11.1203633"><ele>587.5</ele><time>2026-03-22T10:20:36.991Z</time></trkpt><trkpt lat="44.366745" lon="11.1202717"><ele>588.6666666666666</ele><time>2026-03-22T10:20:37.989Z</time></trkpt><trkpt lat="44.3666917" lon="11.120195"><ele>589.8333333333334</ele><time>2026-03-22T10:20:38.991Z</time></trkpt><trkpt lat="44.3666233" lon="11.1201367"><ele>591.0</ele><time>2026-03-22T10:20:39.989Z</time></trkpt><trkpt lat="44.3665417" lon="11.12014"><ele>591.0</ele><time>2026-03-22T10:20:40.99Z</time></trkpt><trkpt lat="44.36646" lon="11.1201833"><ele>591.0</ele><time>2026-03-22T10:20:41.993Z</time></trkpt><trkpt lat="44.3663867" lon="11.1202383"><ele>591.0</ele><time>2026-03-22T10:20:42.99Z</time></trkpt><trkpt lat="44.3663183" lon="11.12034"><ele>591.0</ele><time>2026-03-22T10:20:43.994Z</time></trkpt><trkpt lat="44.3662517" lon="11.1204567"><ele>591.0</ele><time>2026-03-22T10:20:44.989Z</time></trkpt><trkpt lat="44.366185" lon="11.120575"><ele>591.8</ele><time>2026-03-22T10:20:45.991Z</time></trkpt><trkpt lat="44.36612" lon="11.1206917"><ele>592.6</ele><time>2026-03-22T10:20:46.99Z</time></trkpt><trkpt lat="44.366055" lon="11.1208083"><ele>593.4</ele><time>2026-03-22T10:20:47.995Z</time></trkpt><trkpt lat="44.3659867" lon="11.1209167"><ele>594.2</ele><time>2026-03-22T10:20:48.991Z</time></trkpt><trkpt lat="44.3659217" lon="11.121025"><ele>595.0</ele><time>2026-03-22T10:20:49.992Z</time></trkpt><trkpt lat="44.3658517" lon="11.1211183"><ele>595.0</ele><time>2026-03-22T10:20:50.989Z</time></trkpt><trkpt lat="44.3657767" lon="11.1211883"><ele>595.0</ele><time>2026-03-22T10:20:51.987Z</time></trkpt><trkpt lat="44.3656967" lon="11.1212367"><ele>595.0</ele><time>2026-03-22T10:20:52.99Z</time></trkpt><trkpt lat="44.3656017" lon="11.1212317"><ele>595.0</ele><time>2026-03-22T10:20:53.991Z</time></trkpt><trkpt lat="44.365505" lon="11.1211867"><ele>595.0</ele><time>2026-03-22T10:20:54.993Z</time></trkpt><trkpt lat="44.365405" lon="11.1211233"><ele>595.0</ele><time>2026-03-22T10:20:55.995Z</time></trkpt><trkpt lat="44.3653" lon="11.1210517"><ele>595.0</ele><time>2026-03-22T10:20:56.993Z</time></trkpt><trkpt lat="44.3652017" lon="11.12099"><ele>595.0</ele><time>2026-03-22T10:20:57.991Z</time></trkpt><trkpt lat="44.36511" lon="11.12095"><ele>595.0</ele><time>2026-03-22T10:20:58.988Z</time></trkpt><trkpt lat="44.3650233" lon="11.1209417"><ele>595.0</ele><time>2026-03-22T10:20:59.989Z</time></trkpt><trkpt lat="44.36494" lon="11.120945"><ele>595.0</ele><time>2026-03-22T10:21:00.996Z</time></trkpt><trkpt lat="44.3648683" lon="11.1209933"><ele>595.0</ele><time>2026-03-22T10:21:01.991Z</time></trkpt><trkpt lat="44.364795" lon="11.1210817"><ele>595.0</ele><time>2026-03-22T10:21:02.993Z</time></trkpt><trkpt lat="44.3647383" lon="11.12119"><ele>595.0</ele><time>2026-03-22T10:21:03.991Z</time></trkpt><trkpt lat="44.3646917" lon="11.121295"><ele>595.0</ele><time>2026-03-22T10:21:04.992Z</time></trkpt><trkpt lat="44.3646583" lon="11.1213883"><ele>595.0</ele><time>2026-03-22T10:21:05.992Z</time></trkpt><trkpt lat="44.3646017" lon="11.1215083"><ele>595.3333333333334</ele><time>2026-03-22T10:21:07.988Z</time></trkpt><trkpt lat="44.3645367" lon="11.1216"><ele>595.6666666666667</ele><time>2026-03-22T10:21:10.99Z</time></trkpt><trkpt lat="44.3644667" lon="11.1216267"><ele>596.0</ele><time>2026-03-22T10:21:12.993Z</time></trkpt><trkpt lat="44.3643517" lon="11.121635"><ele>596.3333333333334</ele><time>2026-03-22T10:21:14.992Z</time></trkpt><trkpt lat="44.3642767" lon="11.1216483"><ele>596.6666666666666</ele><time>2026-03-22T10:21:15.989Z</time></trkpt><trkpt lat="44.3641983" lon="11.1216633"><ele>597.0</ele><time>2026-03-22T10:21:16.992Z</time></trkpt><trkpt lat="44.3641183" lon="11.1216833"><ele>597.0</ele><time>2026-03-22T10:21:17.989Z</time></trkpt><trkpt lat="44.3640433" lon="11.1217133"><ele>597.0</ele><time>2026-03-22T10:21:18.996Z</time></trkpt><trkpt lat="44.3639717" lon="11.12177"><ele>597.0</ele><time>2026-03-22T10:21:19.996Z</time></trkpt><trkpt lat="44.3639033" lon="11.1218367"><ele>597.0</ele><time>2026-03-22T10:21:20.99Z</time></trkpt><trkpt lat="44.3638417" lon="11.12191"><ele>597.0</ele><time>2026-03-22T10:21:21.992Z</time></trkpt><trkpt lat="44.363775" lon="11.1219917"><ele>597.0</ele><time>2026-03-22T10:21:22.992Z</time></trkpt><trkpt lat="44.3637033" lon="11.1220733"><ele>597.8000000000001</ele><time>2026-03-22T10:21:23.996Z</time></trkpt><trkpt lat="44.3636233" lon="11.1221517"><ele>598.6</ele><time>2026-03-22T10:21:24.992Z</time></trkpt><trkpt lat="44.3635517" lon="11.1222317"><ele>599.4000000000001</ele><time>2026-03-22T10:21:25.992Z</time></trkpt><trkpt lat="44.3634833" lon="11.1223183"><ele>600.2</ele><time>2026-03-22T10:21:26.99Z</time></trkpt><trkpt lat="44.3634217" lon="11.1224133"><ele>601.0</ele><time>2026-03-22T10:21:27.988Z</time></trkpt><trkpt lat="44.3633583" lon="11.1225167"><ele>601.0</ele><time>2026-03-22T10:21:28.996Z</time></trkpt><trkpt lat="44.3632983" lon="11.1226267"><ele>601.0</ele><time>2026-03-22T10:21:29.99Z</time></trkpt><trkpt lat="44.3632383" lon="11.1227433"><ele>601.0</ele><time>2026-03-22T10:21:30.992Z</time></trkpt><trkpt lat="44.3631767" lon="11.122855"><ele>601.0</ele><time>2026-03-22T10:21:31.991Z</time></trkpt><trkpt lat="44.3631133" lon="11.122965"><ele>601.0</ele><time>2026-03-22T10:21:32.991Z</time></trkpt><trkpt lat="44.3630517" lon="11.1230783"><ele>603.8</ele><time>2026-03-22T10:21:33.991Z</time></trkpt><trkpt lat="44.3629917" lon="11.1231983"><ele>606.6</ele><time>2026-03-22T10:21:34.99Z</time></trkpt><trkpt lat="44.36293" lon="11.1233217"><ele>609.4</ele><time>2026-03-22T10:21:35.987Z</time></trkpt><trkpt lat="44.3628683" lon="11.123445"><ele>612.2</ele><time>2026-03-22T10:21:36.996Z</time></trkpt><trkpt lat="44.3628083" lon="11.1235783"><ele>615.0</ele><time>2026-03-22T10:21:37.99Z</time></trkpt><trkpt lat="44.3627483" lon="11.1237167"><ele>615.0</ele><time>2026-03-22T10:21:38.994Z</time></trkpt><trkpt lat="44.3626967" lon="11.123865"><ele>615.0</ele><time>2026-03-22T10:21:39.989Z</time></trkpt><trkpt lat="44.3626517" lon="11.12402"><ele>615.0</ele><time>2026-03-22T10:21:40.994Z</time></trkpt><trkpt lat="44.36262" lon="11.1241733"><ele>615.0</ele><time>2026-03-22T10:21:41.994Z</time></trkpt><trkpt lat="44.3626017" lon="11.1243283"><ele>613.6</ele><time>2026-03-22T10:21:42.99Z</time></trkpt><trkpt lat="44.362585" lon="11.124485"><ele>612.2</ele><time>2026-03-22T10:21:43.992Z</time></trkpt><trkpt lat="44.3625717" lon="11.12464"><ele>610.8</ele><time>2026-03-22T10:21:44.995Z</time></trkpt><trkpt lat="44.36256" lon="11.124795"><ele>609.4</ele><time>2026-03-22T10:21:45.989Z</time></trkpt><trkpt lat="44.3625533" lon="11.12495"><ele>608.0</ele><time>2026-03-22T10:21:46.989Z</time></trkpt><trkpt lat="44.3625467" lon="11.1251067"><ele>607.6</ele><time>2026-03-22T10:21:47.997Z</time></trkpt><trkpt lat="44.3625417" lon="11.12527"><ele>607.1999999999999</ele><time>2026-03-22T10:21:48.994Z</time></trkpt><trkpt lat="44.3625283" lon="11.1254333"><ele>606.8</ele><time>2026-03-22T10:21:49.989Z</time></trkpt><trkpt lat="44.3625233" lon="11.125585"><ele>606.4</ele><time>2026-03-22T10:21:50.992Z</time></trkpt><trkpt lat="44.36252" lon="11.125715"><ele>606.0</ele><time>2026-03-22T10:21:51.995Z</time></trkpt><trkpt lat="44.3625117" lon="11.1258267"><ele>605.6</ele><time>2026-03-22T10:21:52.992Z</time></trkpt><trkpt lat="44.36249" lon="11.1259333"><ele>605.2</ele><time>2026-03-22T10:21:53.99Z</time></trkpt><trkpt lat="44.3624483" lon="11.1260367"><ele>604.8</ele><time>2026-03-22T10:21:54.989Z</time></trkpt><trkpt lat="44.3623817" lon="11.1261317"><ele>604.4</ele><time>2026-03-22T10:21:55.992Z</time></trkpt><trkpt lat="44.3622983" lon="11.1262167"><ele>604.0</ele><time>2026-03-22T10:21:56.996Z</time></trkpt><trkpt lat="44.362205" lon="11.12631"><ele>604.75</ele><time>2026-03-22T10:21:57.993Z</time></trkpt><trkpt lat="44.36211" lon="11.12641"><ele>605.5</ele><time>2026-03-22T10:21:58.991Z</time></trkpt><trkpt lat="44.3620083" lon="11.126515"><ele>606.25</ele><time>2026-03-22T10:21:59.989Z</time></trkpt><trkpt lat="44.3619067" lon="11.1266267"><ele>607.0</ele><time>2026-03-22T10:22:00.993Z</time></trkpt><trkpt lat="44.3617983" lon="11.1267433"><ele>607.0</ele><time>2026-03-22T10:22:01.99Z</time></trkpt><trkpt lat="44.3616883" lon="11.1268633"><ele>607.0</ele><time>2026-03-22T10:22:02.988Z</time></trkpt><trkpt lat="44.3615817" lon="11.1269833"><ele>607.0</ele><time>2026-03-22T10:22:03.992Z</time></trkpt><trkpt lat="44.36148" lon="11.1271017"><ele>607.0</ele><time>2026-03-22T10:22:04.993Z</time></trkpt><trkpt lat="44.36138" lon="11.12722"><ele>606.8000000000001</ele><time>2026-03-22T10:22:05.989Z</time></trkpt><trkpt lat="44.36129" lon="11.1273283"><ele>606.6</ele><time>2026-03-22T10:22:06.993Z</time></trkpt><trkpt lat="44.3612083" lon="11.12743"><ele>606.4000000000001</ele><time>2026-03-22T10:22:07.993Z</time></trkpt><trkpt lat="44.36114" lon="11.1275233"><ele>606.2</ele><time>2026-03-22T10:22:08.993Z</time></trkpt><trkpt lat="44.361085" lon="11.12761"><ele>606.0</ele><time>2026-03-22T10:22:09.988Z</time></trkpt><trkpt lat="44.3610433" lon="11.1276933"><ele>606.0</ele><time>2026-03-22T10:22:10.992Z</time></trkpt><trkpt lat="44.3609867" lon="11.1278417"><ele>606.0</ele><time>2026-03-22T10:22:12.987Z</time></trkpt><trkpt lat="44.3609383" lon="11.1280117"><ele>606.0</ele><time>2026-03-22T10:22:14.994Z</time></trkpt><trkpt lat="44.36092" lon="11.128125"><ele>606.0</ele><time>2026-03-22T10:22:15.99Z</time></trkpt><trkpt lat="44.3608933" lon="11.1282533"><ele>606.0</ele><time>2026-03-22T10:22:16.988Z</time></trkpt><trkpt lat="44.3608633" lon="11.1283917"><ele>605.4</ele><time>2026-03-22T10:22:17.992Z</time></trkpt><trkpt lat="44.3608233" lon="11.1285267"><ele>604.8</ele><time>2026-03-22T10:22:18.991Z</time></trkpt><trkpt lat="44.3607683" lon="11.1286533"><ele>604.1999999999999</ele><time>2026-03-22T10:22:19.991Z</time></trkpt><trkpt lat="44.3606983" lon="11.1287667"><ele>603.6</ele><time>2026-03-22T10:22:20.993Z</time></trkpt><trkpt lat="44.36061" lon="11.12887"><ele>603.0</ele><time>2026-03-22T10:22:21.993Z</time></trkpt><trkpt lat="44.360505" lon="11.128955"><ele>603.0</ele><time>2026-03-22T10:22:22.99Z</time></trkpt><trkpt lat="44.3603933" lon="11.12902"><ele>603.0</ele><time>2026-03-22T10:22:23.99Z</time></trkpt><trkpt lat="44.3602833" lon="11.1290883"><ele>603.0</ele><time>2026-03-22T10:22:24.988Z</time></trkpt><trkpt lat="44.36018" lon="11.1291683"><ele>603.0</ele><time>2026-03-22T10:22:25.991Z</time></trkpt><trkpt lat="44.3600833" lon="11.1292517"><ele>603.0</ele><time>2026-03-22T10:22:26.992Z</time></trkpt><trkpt lat="44.359995" lon="11.12934"><ele>603.0</ele><time>2026-03-22T10:22:27.994Z</time></trkpt><trkpt lat="44.359925" lon="11.1294433"><ele>603.0</ele><time>2026-03-22T10:22:28.989Z</time></trkpt><trkpt lat="44.3598817" lon="11.129575"><ele>603.0</ele><time>2026-03-22T10:22:29.992Z</time></trkpt><trkpt lat="44.3598583" lon="11.12972"><ele>603.0</ele><time>2026-03-22T10:22:30.993Z</time></trkpt><trkpt lat="44.3598317" lon="11.1298617"><ele>604.4</ele><time>2026-03-22T10:22:31.995Z</time></trkpt><trkpt lat="44.359805" lon="11.1299983"><ele>605.8</ele><time>2026-03-22T10:22:32.995Z</time></trkpt><trkpt lat="44.359755" lon="11.1301317"><ele>607.2</ele><time>2026-03-22T10:22:33.994Z</time></trkpt><trkpt lat="44.3596917" lon="11.1302583"><ele>608.6</ele><time>2026-03-22T10:22:34.992Z</time></trkpt><trkpt lat="44.3596333" lon="11.13039"><ele>610.0</ele><time>2026-03-22T10:22:35.994Z</time></trkpt><trkpt lat="44.3595933" lon="11.130525"><ele>610.6</ele><time>2026-03-22T10:22:36.996Z</time></trkpt><trkpt lat="44.3595733" lon="11.1306667"><ele>611.2</ele><time>2026-03-22T10:22:37.992Z</time></trkpt><trkpt lat="44.359565" lon="11.1308167"><ele>611.8</ele><time>2026-03-22T10:22:38.992Z</time></trkpt><trkpt lat="44.3595683" lon="11.1309633"><ele>612.4</ele><time>2026-03-22T10:22:39.991Z</time></trkpt><trkpt lat="44.3596033" lon="11.1311067"><ele>613.0</ele><time>2026-03-22T10:22:40.994Z</time></trkpt><trkpt lat="44.3596583" lon="11.1312333"><ele>614.5</ele><time>2026-03-22T10:22:41.998Z</time></trkpt><trkpt lat="44.3597367" lon="11.13134"><ele>616.0</ele><time>2026-03-22T10:22:42.992Z</time></trkpt><trkpt lat="44.3598283" lon="11.131445"><ele>617.5</ele><time>2026-03-22T10:22:43.994Z</time></trkpt><trkpt lat="44.35992" lon="11.1315467"><ele>619.0</ele><time>2026-03-22T10:22:44.993Z</time></trkpt><trkpt lat="44.3600117" lon="11.1316467"><ele>619.0</ele><time>2026-03-22T10:22:45.992Z</time></trkpt><trkpt lat="44.360105" lon="11.1317433"><ele>619.0</ele><time>2026-03-22T10:22:46.991Z</time></trkpt><trkpt lat="44.3601917" lon="11.1318317"><ele>619.0</ele><time>2026-03-22T10:22:47.989Z</time></trkpt><trkpt lat="44.360265" lon="11.1319133"><ele>619.0</ele><time>2026-03-22T10:22:48.994Z</time></trkpt><trkpt lat="44.3603217" lon="11.1320033"><ele>619.0</ele><time>2026-03-22T10:22:49.996Z</time></trkpt><trkpt lat="44.3603633" lon="11.1320967"><ele>619.0</ele><time>2026-03-22T10:22:50.991Z</time></trkpt><trkpt lat="44.3603833" lon="11.1321967"><ele>619.0</ele><time>2026-03-22T10:22:51.994Z</time></trkpt><trkpt lat="44.36039" lon="11.132295"><ele>619.0</ele><time>2026-03-22T10:22:52.992Z</time></trkpt><trkpt lat="44.3603633" lon="11.1323983"><ele>619.0</ele><time>2026-03-22T10:22:53.989Z</time></trkpt><trkpt lat="44.3603067" lon="11.1325"><ele>619.0</ele><time>2026-03-22T10:22:54.99Z</time></trkpt><trkpt lat="44.3602333" lon="11.13261"><ele>619.0</ele><time>2026-03-22T10:22:55.995Z</time></trkpt><trkpt lat="44.3601667" lon="11.13272"><ele>621.8</ele><time>2026-03-22T10:22:56.993Z</time></trkpt><trkpt lat="44.3600933" lon="11.13283"><ele>624.5999999999999</ele><time>2026-03-22T10:22:57.992Z</time></trkpt><trkpt lat="44.360015" lon="11.1329483"><ele>627.4</ele><time>2026-03-22T10:22:58.993Z</time></trkpt><trkpt lat="44.3599433" lon="11.1330683"><ele>630.1999999999999</ele><time>2026-03-22T10:22:59.989Z</time></trkpt><trkpt lat="44.3598833" lon="11.1332"><ele>633.0</ele><time>2026-03-22T10:23:00.99Z</time></trkpt><trkpt lat="44.3598483" lon="11.13335"><ele>633.25</ele><time>2026-03-22T10:23:01.99Z</time></trkpt><trkpt lat="44.3598267" lon="11.133515"><ele>633.5</ele><time>2026-03-22T10:23:02.992Z</time></trkpt><trkpt lat="44.3598233" lon="11.1336867"><ele>633.75</ele><time>2026-03-22T10:23:03.994Z</time></trkpt><trkpt lat="44.3598183" lon="11.1338467"><ele>634.0</ele><time>2026-03-22T10:23:04.996Z</time></trkpt><trkpt lat="44.3598267" lon="11.134"><ele>636.2</ele><time>2026-03-22T10:23:05.994Z</time></trkpt><trkpt lat="44.35986" lon="11.13415"><ele>638.4</ele><time>2026-03-22T10:23:06.99Z</time></trkpt><trkpt lat="44.359905" lon="11.1342833"><ele>640.6</ele><time>2026-03-22T10:23:07.995Z</time></trkpt><trkpt lat="44.3599683" lon="11.1343967"><ele>642.8</ele><time>2026-03-22T10:23:08.996Z</time></trkpt><trkpt lat="44.36005" lon="11.13449"><ele>645.0</ele><time>2026-03-22T10:23:09.992Z</time></trkpt><trkpt lat="44.3601433" lon="11.1345433"><ele>645.0</ele><time>2026-03-22T10:23:10.994Z</time></trkpt><trkpt lat="44.3602583" lon="11.1345617"><ele>645.0</ele><time>2026-03-22T10:23:11.994Z</time></trkpt><trkpt lat="44.3603833" lon="11.134535"><ele>645.0</ele><time>2026-03-22T10:23:12.997Z</time></trkpt><trkpt lat="44.360505" lon="11.1345017"><ele>645.0</ele><time>2026-03-22T10:23:13.991Z</time></trkpt><trkpt lat="44.3606117" lon="11.1344717"><ele>644.0</ele><time>2026-03-22T10:23:14.992Z</time></trkpt><trkpt lat="44.3607083" lon="11.1344733"><ele>643.0</ele><time>2026-03-22T10:23:15.995Z</time></trkpt><trkpt lat="44.3607967" lon="11.1345033"><ele>642.0</ele><time>2026-03-22T10:23:16.994Z</time></trkpt><trkpt lat="44.3608767" lon="11.1345667"><ele>641.0</ele><time>2026-03-22T10:23:17.991Z</time></trkpt><trkpt lat="44.36094" lon="11.1346717"><ele>640.0</ele><time>2026-03-22T10:23:18.991Z</time></trkpt><trkpt lat="44.36099" lon="11.134805"><ele>646.0</ele><time>2026-03-22T10:23:19.996Z</time></trkpt><trkpt lat="44.3610333" lon="11.1349533"><ele>652.0</ele><time>2026-03-22T10:23:20.999Z</time></trkpt><trkpt lat="44.361085" lon="11.1350967"><ele>658.0</ele><time>2026-03-22T10:23:21.99Z</time></trkpt><trkpt lat="44.3611467" lon="11.1352367"><ele>664.0</ele><time>2026-03-22T10:23:22.992Z</time></trkpt><trkpt lat="44.3612233" lon="11.1353467"><ele>664.0</ele><time>2026-03-22T10:23:23.994Z</time></trkpt><trkpt lat="44.3613117" lon="11.135425"><ele>664.0</ele><time>2026-03-22T10:23:24.992Z</time></trkpt><trkpt lat="44.3614083" lon="11.1354717"><ele>664.0</ele><time>2026-03-22T10:23:25.996Z</time></trkpt><trkpt lat="44.3615217" lon="11.1354867"><ele>664.0</ele><time>2026-03-22T10:23:26.996Z</time></trkpt><trkpt lat="44.3616417" lon="11.1354883"><ele>664.0</ele><time>2026-03-22T10:23:27.993Z</time></trkpt><trkpt lat="44.3617517" lon="11.1354867"><ele>661.8000000000001</ele><time>2026-03-22T10:23:28.992Z</time></trkpt><trkpt lat="44.3618583" lon="11.135485"><ele>659.6</ele><time>2026-03-22T10:23:29.994Z</time></trkpt><trkpt lat="44.361955" lon="11.1355017"><ele>657.4</ele><time>2026-03-22T10:23:30.997Z</time></trkpt><trkpt lat="44.3620483" lon="11.1355617"><ele>655.2</ele><time>2026-03-22T10:23:31.997Z</time></trkpt><trkpt lat="44.3621317" lon="11.1356483"><ele>653.0</ele><time>2026-03-22T10:23:32.995Z</time></trkpt><trkpt lat="44.36221" lon="11.135765"><ele>653.0</ele><time>2026-03-22T10:23:33.988Z</time></trkpt><trkpt lat="44.3622833" lon="11.1359"><ele>653.0</ele><time>2026-03-22T10:23:34.995Z</time></trkpt><trkpt lat="44.3623417" lon="11.1360483"><ele>653.0</ele><time>2026-03-22T10:23:35.992Z</time></trkpt><trkpt lat="44.3623917" lon="11.1361983"><ele>653.0</ele><time>2026-03-22T10:23:36.992Z</time></trkpt><trkpt lat="44.3624283" lon="11.1363633"><ele>653.0</ele><time>2026-03-22T10:23:37.992Z</time></trkpt><trkpt lat="44.3624467" lon="11.136525"><ele>653.0</ele><time>2026-03-22T10:23:38.992Z</time></trkpt><trkpt lat="44.3624633" lon="11.1366733"><ele>653.0</ele><time>2026-03-22T10:23:39.99Z</time></trkpt><trkpt lat="44.362485" lon="11.1368133"><ele>653.0</ele><time>2026-03-22T10:23:40.997Z</time></trkpt><trkpt lat="44.362515" lon="11.1369333"><ele>653.0</ele><time>2026-03-22T10:23:41.992Z</time></trkpt><trkpt lat="44.3625433" lon="11.1370383"><ele>654.3333333333333</ele><time>2026-03-22T10:23:42.997Z</time></trkpt><trkpt lat="44.3625683" lon="11.1371333"><ele>655.6666666666666</ele><time>2026-03-22T10:23:43.99Z</time></trkpt><trkpt lat="44.3625883" lon="11.1373017"><ele>657.0</ele><time>2026-03-22T10:23:45.991Z</time></trkpt><trkpt lat="44.3625333" lon="11.13744"><ele>658.3333333333334</ele><time>2026-03-22T10:23:47.997Z</time></trkpt><trkpt lat="44.362485" lon="11.1375017"><ele>659.6666666666667</ele><time>2026-03-22T10:23:48.994Z</time></trkpt><trkpt lat="44.3624417" lon="11.13757"><ele>661.0</ele><time>2026-03-22T10:23:49.996Z</time></trkpt><trkpt lat="44.3623617" lon="11.1376783"><ele>661.0</ele><time>2026-03-22T10:23:51.995Z</time></trkpt><trkpt lat="44.362315" lon="11.13779"><ele>661.0</ele><time>2026-03-22T10:23:53.994Z</time></trkpt><trkpt lat="44.3622667" lon="11.1379017"><ele>661.0</ele><time>2026-03-22T10:23:55.997Z</time></trkpt><trkpt lat="44.36221" lon="11.1379717"><ele>661.0</ele><time>2026-03-22T10:23:58.002Z</time></trkpt><trkpt lat="44.3621433" lon="11.13798"><ele>661.0</ele><time>2026-03-22T10:23:59.989Z</time></trkpt><trkpt lat="44.3620583" lon="11.1379267"><ele>661.0</ele><time>2026-03-22T10:24:01.993Z</time></trkpt><trkpt lat="44.362005" lon="11.1378683"><ele>663.0</ele><time>2026-03-22T10:24:02.996Z</time></trkpt><trkpt lat="44.3619533" lon="11.137815"><ele>665.0</ele><time>2026-03-22T10:24:03.993Z</time></trkpt><trkpt lat="44.3618983" lon="11.137765"><ele>667.0</ele><time>2026-03-22T10:24:04.994Z</time></trkpt><trkpt lat="44.3617933" lon="11.1377167"><ele>669.0</ele><time>2026-03-22T10:24:06.994Z</time></trkpt><trkpt lat="44.3617183" lon="11.137725"><ele>671.0</ele><time>2026-03-22T10:24:08.996Z</time></trkpt><trkpt lat="44.36171" lon="11.137865"><ele>673.0</ele><time>2026-03-22T10:24:11.993Z</time></trkpt><trkpt lat="44.36174" lon="11.1380283"><ele>673.0</ele><time>2026-03-22T10:24:13.995Z</time></trkpt><trkpt lat="44.3617267" lon="11.1381883"><ele>673.0</ele><time>2026-03-22T10:24:15.99Z</time></trkpt><trkpt lat="44.3616767" lon="11.1383283"><ele>673.0</ele><time>2026-03-22T10:24:17.992Z</time></trkpt><trkpt lat="44.3616483" lon="11.13848"><ele>673.0</ele><time>2026-03-22T10:24:19.997Z</time></trkpt><trkpt lat="44.3616483" lon="11.13857"><ele>673.0</ele><time>2026-03-22T10:24:20.993Z</time></trkpt><trkpt lat="44.3616383" lon="11.13874"><ele>671.3333333333334</ele><time>2026-03-22T10:24:22.995Z</time></trkpt><trkpt lat="44.36163" lon="11.13883"><ele>669.6666666666667</ele><time>2026-03-22T10:24:24.003Z</time></trkpt><trkpt lat="44.3616033" lon="11.1389817"><ele>668.0</ele><time>2026-03-22T10:24:25.998Z</time></trkpt><trkpt lat="44.3615667" lon="11.1391217"><ele>666.3333333333334</ele><time>2026-03-22T10:24:27.993Z</time></trkpt><trkpt lat="44.3615267" lon="11.1392317"><ele>664.6666666666666</ele><time>2026-03-22T10:24:29.993Z</time></trkpt><trkpt lat="44.36147" lon="11.1393"><ele>663.0</ele><time>2026-03-22T10:24:31.991Z</time></trkpt><trkpt lat="44.36141" lon="11.1393933"><ele>664.5</ele><time>2026-03-22T10:24:34.992Z</time></trkpt><trkpt lat="44.36135" lon="11.1394767"><ele>666.0</ele><time>2026-03-22T10:24:37.991Z</time></trkpt><trkpt lat="44.3612983" lon="11.1395617"><ele>667.5</ele><time>2026-03-22T10:24:39.997Z</time></trkpt><trkpt lat="44.3612583" lon="11.1396417"><ele>669.0</ele><time>2026-03-22T10:24:41.993Z</time></trkpt><trkpt lat="44.36121" lon="11.1397383"><ele>670.5</ele><time>2026-03-22T10:24:44.994Z</time></trkpt><trkpt lat="44.361165" lon="11.13983"><ele>672.0</ele><time>2026-03-22T10:24:47.996Z</time></trkpt><trkpt lat="44.3611283" lon="11.1399117"><ele>667.0</ele><time>2026-03-22T10:24:49.996Z</time></trkpt><trkpt lat="44.36105" lon="11.1399817"><ele>662.0</ele><time>2026-03-22T10:24:52.004Z</time></trkpt><trkpt lat="44.3609463" lon="11.140058"><ele>657.0</ele><time>2026-03-22T10:24:53.993Z</time></trkpt><trkpt lat="44.3608507" lon="11.1401467"><ele>652.0</ele><time>2026-03-22T10:24:55.995Z</time></trkpt><trkpt lat="44.3607668" lon="11.1402422"><ele>647.0</ele><time>2026-03-22T10:24:57.998Z</time></trkpt><trkpt lat="44.3607017" lon="11.1403664"><ele>647.0</ele><time>2026-03-22T10:24:59.997Z</time></trkpt><trkpt lat="44.3606228" lon="11.1405022"><ele>647.0</ele><time>2026-03-22T10:25:01.992Z</time></trkpt><trkpt lat="44.3605741" lon="11.1405744"><ele>647.0</ele><time>2026-03-22T10:25:02.993Z</time></trkpt><trkpt lat="44.3605213" lon="11.1406455"><ele>647.0</ele><time>2026-03-22T10:25:03.991Z</time></trkpt><trkpt lat="44.3604733" lon="11.140705"><ele>647.0</ele><time>2026-03-22T10:25:04.995Z</time></trkpt><trkpt lat="44.3603667" lon="11.1407933"><ele>644.6</ele><time>2026-03-22T10:25:06.991Z</time></trkpt><trkpt lat="44.360265" lon="11.1408617"><ele>642.2</ele><time>2026-03-22T10:25:08.994Z</time></trkpt><trkpt lat="44.3601867" lon="11.1409417"><ele>639.8</ele><time>2026-03-22T10:25:10.989Z</time></trkpt><trkpt lat="44.3601133" lon="11.1410567"><ele>637.4</ele><time>2026-03-22T10:25:12.999Z</time></trkpt><trkpt lat="44.3600383" lon="11.1411683"><ele>635.0</ele><time>2026-03-22T10:25:14.997Z</time></trkpt><trkpt lat="44.3599617" lon="11.1412567"><ele>635.0</ele><time>2026-03-22T10:25:16.993Z</time></trkpt><trkpt lat="44.3599067" lon="11.1413317"><ele>635.0</ele><time>2026-03-22T10:25:19.995Z</time></trkpt><trkpt lat="44.3598583" lon="11.1414283"><ele>635.0</ele><time>2026-03-22T10:25:22.992Z</time></trkpt><trkpt lat="44.359815" lon="11.141495"><ele>635.0</ele><time>2026-03-22T10:25:24.996Z</time></trkpt><trkpt lat="44.3597296" lon="11.1415546"><ele>635.0</ele><time>2026-03-22T10:25:27.998Z</time></trkpt><trkpt lat="44.3596535" lon="11.1416283"><ele>635.0</ele><time>2026-03-22T10:25:29.945Z</time></trkpt><trkpt lat="44.359587" lon="11.1417463"><ele>630.0</ele><time>2026-03-22T10:25:32.02Z</time></trkpt><trkpt lat="44.3595141" lon="11.1418437"><ele>625.0</ele><time>2026-03-22T10:25:33.955Z</time></trkpt><trkpt lat="44.3594399" lon="11.1419486"><ele>620.0</ele><time>2026-03-22T10:25:35.99Z</time></trkpt><trkpt lat="44.3593609" lon="11.141982"><ele>615.0</ele><time>2026-03-22T10:25:38.014Z</time></trkpt><trkpt lat="44.3592828" lon="11.1419788"><ele>610.0</ele><time>2026-03-22T10:25:39.992Z</time></trkpt><trkpt lat="44.3591939" lon="11.1419913"><ele>610.0</ele><time>2026-03-22T10:25:41.996Z</time></trkpt><trkpt lat="44.3591023" lon="11.1419857"><ele>610.0</ele><time>2026-03-22T10:25:43.995Z</time></trkpt><trkpt lat="44.3590317" lon="11.1419483"><ele>610.0</ele><time>2026-03-22T10:25:47.994Z</time></trkpt><trkpt lat="44.3589933" lon="11.1418383"><ele>610.0</ele><time>2026-03-22T10:25:51.99Z</time></trkpt><trkpt lat="44.3589483" lon="11.1417467"><ele>610.0</ele><time>2026-03-22T10:25:54.993Z</time></trkpt><trkpt lat="44.358945" lon="11.14164"><ele>610.0</ele><time>2026-03-22T10:25:56.996Z</time></trkpt><trkpt lat="44.3589283" lon="11.141525"><ele>611.8333333333334</ele><time>2026-03-22T10:25:58.991Z</time></trkpt><trkpt lat="44.3589067" lon="11.1414183"><ele>613.6666666666667</ele><time>2026-03-22T10:26:00.993Z</time></trkpt><trkpt lat="44.3589167" lon="11.1413167"><ele>615.5</ele><time>2026-03-22T10:26:03.993Z</time></trkpt><trkpt lat="44.3588349" lon="11.1413203"><ele>617.3333333333334</ele><time>2026-03-22T10:26:06.994Z</time></trkpt><trkpt lat="44.3587602" lon="11.141356"><ele>619.1666666666666</ele><time>2026-03-22T10:26:08.992Z</time></trkpt><trkpt lat="44.3587129" lon="11.1414459"><ele>621.0</ele><time>2026-03-22T10:26:10.993Z</time></trkpt><trkpt lat="44.3586752" lon="11.1415549"><ele>621.2</ele><time>2026-03-22T10:26:13.021Z</time></trkpt><trkpt lat="44.3586414" lon="11.1416794"><ele>621.4000000000001</ele><time>2026-03-22T10:26:14.935Z</time></trkpt><trkpt lat="44.3585567" lon="11.1417933"><ele>621.6</ele><time>2026-03-22T10:26:16.99Z</time></trkpt><trkpt lat="44.3584617" lon="11.14185"><ele>621.8000000000001</ele><time>2026-03-22T10:26:18.991Z</time></trkpt><trkpt lat="44.358395" lon="11.141915"><ele>622.0</ele><time>2026-03-22T10:26:20.996Z</time></trkpt><trkpt lat="44.3584233" lon="11.1420217"><ele>622.0</ele><time>2026-03-22T10:26:23.99Z</time></trkpt><trkpt lat="44.3584733" lon="11.14214"><ele>622.0</ele><time>2026-03-22T10:26:25.994Z</time></trkpt><trkpt lat="44.3585017" lon="11.1423117"><ele>622.0</ele><time>2026-03-22T10:26:27.991Z</time></trkpt><trkpt lat="44.35851" lon="11.1424"><ele>622.0</ele><time>2026-03-22T10:26:28.992Z</time></trkpt><trkpt lat="44.3585133" lon="11.1425833"><ele>622.0</ele><time>2026-03-22T10:26:30.994Z</time></trkpt><trkpt lat="44.3585067" lon="11.1427333"><ele>620.5</ele><time>2026-03-22T10:26:32.992Z</time></trkpt><trkpt lat="44.358465" lon="11.1428033"><ele>619.0</ele><time>2026-03-22T10:26:34.991Z</time></trkpt><trkpt lat="44.3584567" lon="11.1429183"><ele>617.5</ele><time>2026-03-22T10:26:37.993Z</time></trkpt><trkpt lat="44.3584583" lon="11.14303"><ele>616.0</ele><time>2026-03-22T10:26:39.992Z</time></trkpt><trkpt lat="44.3584817" lon="11.143155"><ele>614.5</ele><time>2026-03-22T10:26:42.992Z</time></trkpt><trkpt lat="44.358505" lon="11.1432667"><ele>613.0</ele><time>2026-03-22T10:26:44.994Z</time></trkpt><trkpt lat="44.358555" lon="11.1433717"><ele>612.4</ele><time>2026-03-22T10:26:46.995Z</time></trkpt><trkpt lat="44.358585" lon="11.1435067"><ele>611.8</ele><time>2026-03-22T10:26:48.994Z</time></trkpt><trkpt lat="44.3585867" lon="11.1436683"><ele>611.2</ele><time>2026-03-22T10:26:50.993Z</time></trkpt><trkpt lat="44.358595" lon="11.1438283"><ele>610.6</ele><time>2026-03-22T10:26:52.991Z</time></trkpt><trkpt lat="44.358585" lon="11.1439667"><ele>610.0</ele><time>2026-03-22T10:26:54.993Z</time></trkpt><trkpt lat="44.35859" lon="11.144065"><ele>609.0</ele><time>2026-03-22T10:26:56.99Z</time></trkpt><trkpt lat="44.3585933" lon="11.1441567"><ele>608.0</ele><time>2026-03-22T10:26:58.99Z</time></trkpt><trkpt lat="44.3586" lon="11.1442583"><ele>607.0</ele><time>2026-03-22T10:27:00.995Z</time></trkpt><trkpt lat="44.3585983" lon="11.1443717"><ele>606.0</ele><time>2026-03-22T10:27:02.997Z</time></trkpt><trkpt lat="44.3585733" lon="11.1444833"><ele>605.0</ele><time>2026-03-22T10:27:04.997Z</time></trkpt><trkpt lat="44.35854" lon="11.1445817"><ele>604.0</ele><time>2026-03-22T10:27:06.995Z</time></trkpt><trkpt lat="44.358515" lon="11.1446667"><ele>603.0</ele><time>2026-03-22T10:27:08.998Z</time></trkpt><trkpt lat="44.35849" lon="11.14478"><ele>600.1666666666666</ele><time>2026-03-22T10:27:11.992Z</time></trkpt><trkpt lat="44.358455" lon="11.144905"><ele>597.3333333333334</ele><time>2026-03-22T10:27:14.997Z</time></trkpt><trkpt lat="44.3584133" lon="11.144995"><ele>594.5</ele><time>2026-03-22T10:27:16.993Z</time></trkpt><trkpt lat="44.3583783" lon="11.1450967"><ele>591.6666666666667</ele><time>2026-03-22T10:27:18.993Z</time></trkpt><trkpt lat="44.358345" lon="11.1452133"><ele>588.8333333333334</ele><time>2026-03-22T10:27:20.993Z</time></trkpt><trkpt lat="44.3583233" lon="11.1453333"><ele>586.0</ele><time>2026-03-22T10:27:22.992Z</time></trkpt><trkpt lat="44.3582778" lon="11.1454154"><ele>586.0</ele><time>2026-03-22T10:27:24.986Z</time></trkpt><trkpt lat="44.3582436" lon="11.1455354"><ele>586.0</ele><time>2026-03-22T10:27:26.993Z</time></trkpt><trkpt lat="44.3582291" lon="11.1456337"><ele>586.0</ele><time>2026-03-22T10:27:29.005Z</time></trkpt><trkpt lat="44.3582283" lon="11.1457267"><ele>586.0</ele><time>2026-03-22T10:27:30.996Z</time></trkpt><trkpt lat="44.358225" lon="11.14586"><ele>586.0</ele><time>2026-03-22T10:27:32.995Z</time></trkpt><trkpt lat="44.3581683" lon="11.14599"><ele>586.0</ele><time>2026-03-22T10:27:34.992Z</time></trkpt><trkpt lat="44.35813" lon="11.1460733"><ele>587.3333333333334</ele><time>2026-03-22T10:27:35.993Z</time></trkpt><trkpt lat="44.3580883" lon="11.14618"><ele>588.6666666666667</ele><time>2026-03-22T10:27:36.991Z</time></trkpt><trkpt lat="44.3580467" lon="11.146285"><ele>590.0</ele><time>2026-03-22T10:27:37.993Z</time></trkpt><trkpt lat="44.3579983" lon="11.1463717"><ele>591.3333333333334</ele><time>2026-03-22T10:27:38.994Z</time></trkpt><trkpt lat="44.35793" lon="11.1464433"><ele>592.6666666666666</ele><time>2026-03-22T10:27:39.99Z</time></trkpt><trkpt lat="44.35786" lon="11.1464867"><ele>594.0</ele><time>2026-03-22T10:27:40.993Z</time></trkpt><trkpt lat="44.3577617" lon="11.146575"><ele>591.0</ele><time>2026-03-22T10:27:42.997Z</time></trkpt><trkpt lat="44.3577233" lon="11.14673"><ele>588.0</ele><time>2026-03-22T10:27:44.993Z</time></trkpt><trkpt lat="44.3577267" lon="11.14682"><ele>585.0</ele><time>2026-03-22T10:27:45.993Z</time></trkpt><trkpt lat="44.3577117" lon="11.1469267"><ele>582.0</ele><time>2026-03-22T10:27:46.992Z</time></trkpt><trkpt lat="44.3576867" lon="11.1470167"><ele>579.0</ele><time>2026-03-22T10:27:47.99Z</time></trkpt><trkpt lat="44.35766" lon="11.1470967"><ele>576.0</ele><time>2026-03-22T10:27:48.991Z</time></trkpt><trkpt lat="44.3576017" lon="11.1472067"><ele>576.0</ele><time>2026-03-22T10:27:50.993Z</time></trkpt><trkpt lat="44.3575717" lon="11.147285"><ele>576.0</ele><time>2026-03-22T10:30:23.994Z</time></trkpt><trkpt lat="44.3575233" lon="11.1473817"><ele>576.0</ele><time>2026-03-22T10:32:07.992Z</time></trkpt><trkpt lat="44.3574483" lon="11.1474183"><ele>576.0</ele><time>2026-03-22T10:32:11.994Z</time></trkpt><trkpt lat="44.357365" lon="11.1474833"><ele>576.0</ele><time>2026-03-22T10:32:14.991Z</time></trkpt><trkpt lat="44.3572883" lon="11.1475267"><ele>576.0</ele><time>2026-03-22T10:32:16.991Z</time></trkpt><trkpt lat="44.3572033" lon="11.14758"><ele>578.0</ele><time>2026-03-22T10:32:18.996Z</time></trkpt><trkpt lat="44.357145" lon="11.147615"><ele>580.0</ele><time>2026-03-22T10:32:19.991Z</time></trkpt><trkpt lat="44.357065" lon="11.1476733"><ele>582.0</ele><time>2026-03-22T10:32:21.992Z</time></trkpt><trkpt lat="44.3570333" lon="11.1477917"><ele>584.0</ele><time>2026-03-22T10:32:23.992Z</time></trkpt><trkpt lat="44.3570233" lon="11.1479417"><ele>586.0</ele><time>2026-03-22T10:32:25.989Z</time></trkpt><trkpt lat="44.3570067" lon="11.1480983"><ele>580.5</ele><time>2026-03-22T10:32:27.992Z</time></trkpt><trkpt lat="44.3569517" lon="11.148245"><ele>575.0</ele><time>2026-03-22T10:32:29.997Z</time></trkpt><trkpt lat="44.35686" lon="11.14837"><ele>569.5</ele><time>2026-03-22T10:32:31.991Z</time></trkpt><trkpt lat="44.3567667" lon="11.1484317"><ele>564.0</ele><time>2026-03-22T10:32:32.992Z</time></trkpt><trkpt lat="44.3566717" lon="11.14849"><ele>564.0</ele><time>2026-03-22T10:32:33.991Z</time></trkpt><trkpt lat="44.35658" lon="11.1485417"><ele>564.0</ele><time>2026-03-22T10:32:34.991Z</time></trkpt><trkpt lat="44.3564917" lon="11.1485933"><ele>564.0</ele><time>2026-03-22T10:32:35.993Z</time></trkpt><trkpt lat="44.3564183" lon="11.14864"><ele>564.0</ele><time>2026-03-22T10:32:36.993Z</time></trkpt><trkpt lat="44.35635" lon="11.1486717"><ele>564.0</ele><time>2026-03-22T10:32:37.995Z</time></trkpt><trkpt lat="44.3562817" lon="11.1487183"><ele>564.0</ele><time>2026-03-22T10:32:38.993Z</time></trkpt><trkpt lat="44.3562267" lon="11.1487683"><ele>567.4</ele><time>2026-03-22T10:32:39.998Z</time></trkpt><trkpt lat="44.3561417" lon="11.14883"><ele>570.8</ele><time>2026-03-22T10:32:41.992Z</time></trkpt><trkpt lat="44.3560233" lon="11.1488617"><ele>574.2</ele><time>2026-03-22T10:32:43.996Z</time></trkpt><trkpt lat="44.3559517" lon="11.1488717"><ele>577.6</ele><time>2026-03-22T10:32:44.997Z</time></trkpt><trkpt lat="44.3558867" lon="11.1488733"><ele>581.0</ele><time>2026-03-22T10:32:45.996Z</time></trkpt><trkpt lat="44.3557833" lon="11.1488867"><ele>581.0</ele><time>2026-03-22T10:32:47.996Z</time></trkpt><trkpt lat="44.3557017" lon="11.1489233"><ele>581.0</ele><time>2026-03-22T10:32:50Z</time></trkpt><trkpt lat="44.3556083" lon="11.1489517"><ele>581.0</ele><time>2026-03-22T10:32:51.997Z</time></trkpt><trkpt lat="44.3555117" lon="11.1489483"><ele>581.0</ele><time>2026-03-22T10:32:53.991Z</time></trkpt><trkpt lat="44.3554067" lon="11.148925"><ele>581.0</ele><time>2026-03-22T10:32:55.996Z</time></trkpt><trkpt lat="44.35534" lon="11.14892"><ele>581.0</ele><time>2026-03-22T10:32:56.992Z</time></trkpt><trkpt lat="44.3552733" lon="11.14893"><ele>581.0</ele><time>2026-03-22T10:32:57.995Z</time></trkpt><trkpt lat="44.35521" lon="11.1489517"><ele>581.0</ele><time>2026-03-22T10:32:58.99Z</time></trkpt><trkpt lat="44.3551467" lon="11.1489733"><ele>581.0</ele><time>2026-03-22T10:32:59.992Z</time></trkpt><trkpt lat="44.3550833" lon="11.148975"><ele>581.0</ele><time>2026-03-22T10:33:00.993Z</time></trkpt><trkpt lat="44.3549617" lon="11.1489517"><ele>581.0</ele><time>2026-03-22T10:33:02.994Z</time></trkpt><trkpt lat="44.354895" lon="11.1489367"><ele>581.0</ele><time>2026-03-22T10:33:03.99Z</time></trkpt><trkpt lat="44.354825" lon="11.1489133"><ele>581.0</ele><time>2026-03-22T10:33:04.996Z</time></trkpt><trkpt lat="44.3547217" lon="11.1488283"><ele>581.0</ele><time>2026-03-22T10:33:07.004Z</time></trkpt><trkpt lat="44.3546367" lon="11.1487417"><ele>581.0</ele><time>2026-03-22T10:33:08.988Z</time></trkpt><trkpt lat="44.3545783" lon="11.1486167"><ele>581.0</ele><time>2026-03-22T10:33:10.987Z</time></trkpt><trkpt lat="44.3545283" lon="11.148495"><ele>578.6</ele><time>2026-03-22T10:33:12.987Z</time></trkpt><trkpt lat="44.35442" lon="11.1485217"><ele>576.2</ele><time>2026-03-22T10:33:14.993Z</time></trkpt><trkpt lat="44.3543133" lon="11.1485617"><ele>573.8</ele><time>2026-03-22T10:33:16.987Z</time></trkpt><trkpt lat="44.3542017" lon="11.1485733"><ele>571.4</ele><time>2026-03-22T10:33:18.988Z</time></trkpt><trkpt lat="44.3540983" lon="11.1485367"><ele>569.0</ele><time>2026-03-22T10:33:20.99Z</time></trkpt><trkpt lat="44.353995" lon="11.148515"><ele>568.1666666666666</ele><time>2026-03-22T10:33:22.99Z</time></trkpt><trkpt lat="44.3538717" lon="11.1484783"><ele>567.3333333333333</ele><time>2026-03-22T10:33:24.991Z</time></trkpt><trkpt lat="44.3538" lon="11.1484467"><ele>566.5</ele><time>2026-03-22T10:33:25.992Z</time></trkpt><trkpt lat="44.3537183" lon="11.1484133"><ele>565.6666666666666</ele><time>2026-03-22T10:33:26.996Z</time></trkpt><trkpt lat="44.35364" lon="11.1484017"><ele>564.8333333333334</ele><time>2026-03-22T10:33:27.99Z</time></trkpt><trkpt lat="44.3535767" lon="11.1483983"><ele>564.0</ele><time>2026-03-22T10:33:28.996Z</time></trkpt><trkpt lat="44.3535133" lon="11.1483833"><ele>564.0</ele><time>2026-03-22T10:33:29.992Z</time></trkpt><trkpt lat="44.3534483" lon="11.148365"><ele>564.0</ele><time>2026-03-22T10:33:30.993Z</time></trkpt><trkpt lat="44.3533767" lon="11.14834"><ele>564.0</ele><time>2026-03-22T10:33:31.993Z</time></trkpt><trkpt lat="44.35329" lon="11.1483267"><ele>564.0</ele><time>2026-03-22T10:33:32.996Z</time></trkpt><trkpt lat="44.3532017" lon="11.1483383"><ele>564.0</ele><time>2026-03-22T10:33:33.988Z</time></trkpt><trkpt lat="44.3531267" lon="11.148355"><ele>564.0</ele><time>2026-03-22T10:33:34.993Z</time></trkpt><trkpt lat="44.3530633" lon="11.1483683"><ele>562.8</ele><time>2026-03-22T10:33:35.987Z</time></trkpt><trkpt lat="44.3529983" lon="11.14839"><ele>561.5999999999999</ele><time>2026-03-22T10:33:36.99Z</time></trkpt><trkpt lat="44.352905" lon="11.1483467"><ele>560.4</ele><time>2026-03-22T10:33:38.995Z</time></trkpt><trkpt lat="44.3528217" lon="11.148315"><ele>559.1999999999999</ele><time>2026-03-22T10:33:40.993Z</time></trkpt><trkpt lat="44.3527317" lon="11.1482717"><ele>558.0</ele><time>2026-03-22T10:33:42.996Z</time></trkpt><trkpt lat="44.3526283" lon="11.1482683"><ele>558.0</ele><time>2026-03-22T10:33:44.992Z</time></trkpt><trkpt lat="44.3525433" lon="11.14831"><ele>558.0</ele><time>2026-03-22T10:33:46.989Z</time></trkpt><trkpt lat="44.3524637" lon="11.148371"><ele>558.0</ele><time>2026-03-22T10:33:49.991Z</time></trkpt><trkpt lat="44.3523904" lon="11.1484017"><ele>558.0</ele><time>2026-03-22T10:33:52.99Z</time></trkpt><trkpt lat="44.3523449" lon="11.1484973"><ele>558.0</ele><time>2026-03-22T10:33:54.998Z</time></trkpt><trkpt lat="44.3522868" lon="11.1485664"><ele>558.0</ele><time>2026-03-22T10:33:56.956Z</time></trkpt><trkpt lat="44.3522267" lon="11.148595"><ele>556.8</ele><time>2026-03-22T10:33:58.989Z</time></trkpt><trkpt lat="44.35216" lon="11.1485733"><ele>555.5999999999999</ele><time>2026-03-22T10:34:00.993Z</time></trkpt><trkpt lat="44.3520783" lon="11.14851"><ele>554.4000000000001</ele><time>2026-03-22T10:34:02.993Z</time></trkpt><trkpt lat="44.352005" lon="11.1484083"><ele>553.2</ele><time>2026-03-22T10:34:04.995Z</time></trkpt><trkpt lat="44.3519317" lon="11.1482817"><ele>552.0</ele><time>2026-03-22T10:34:06.993Z</time></trkpt><trkpt lat="44.3518417" lon="11.1481467"><ele>552.0</ele><time>2026-03-22T10:34:08.993Z</time></trkpt><trkpt lat="44.3517967" lon="11.148065"><ele>552.0</ele><time>2026-03-22T10:34:09.994Z</time></trkpt><trkpt lat="44.351745" lon="11.147995"><ele>552.0</ele><time>2026-03-22T10:34:10.994Z</time></trkpt><trkpt lat="44.3516917" lon="11.1479133"><ele>552.0</ele><time>2026-03-22T10:34:11.996Z</time></trkpt><trkpt lat="44.3516467" lon="11.1478433"><ele>552.0</ele><time>2026-03-22T10:34:12.993Z</time></trkpt><trkpt lat="44.3515917" lon="11.147795"><ele>552.0</ele><time>2026-03-22T10:34:13.992Z</time></trkpt><trkpt lat="44.3515583" lon="11.1478833"><ele>552.0</ele><time>2026-03-22T10:34:17.997Z</time></trkpt><trkpt lat="44.3515867" lon="11.1480317"><ele>552.0</ele><time>2026-03-22T10:34:19.99Z</time></trkpt><trkpt lat="44.3516" lon="11.1481233"><ele>552.0</ele><time>2026-03-22T10:34:20.987Z</time></trkpt><trkpt lat="44.3516233" lon="11.1482233"><ele>552.0</ele><time>2026-03-22T10:34:21.989Z</time></trkpt><trkpt lat="44.3516433" lon="11.148335"><ele>552.0</ele><time>2026-03-22T10:34:22.993Z</time></trkpt><trkpt lat="44.35165" lon="11.1484733"><ele>552.0</ele><time>2026-03-22T10:34:23.99Z</time></trkpt><trkpt lat="44.35166" lon="11.1486117"><ele>552.0</ele><time>2026-03-22T10:34:24.993Z</time></trkpt><trkpt lat="44.35169" lon="11.1487517"><ele>550.0</ele><time>2026-03-22T10:34:25.993Z</time></trkpt><trkpt lat="44.3517067" lon="11.1488917"><ele>548.0</ele><time>2026-03-22T10:34:26.991Z</time></trkpt><trkpt lat="44.3517183" lon="11.1490217"><ele>546.0</ele><time>2026-03-22T10:34:27.991Z</time></trkpt><trkpt lat="44.35174" lon="11.1491417"><ele>544.0</ele><time>2026-03-22T10:34:28.992Z</time></trkpt><trkpt lat="44.351755" lon="11.1492583"><ele>542.0</ele><time>2026-03-22T10:34:29.99Z</time></trkpt><trkpt lat="44.3517717" lon="11.14936"><ele>540.0</ele><time>2026-03-22T10:34:30.994Z</time></trkpt><trkpt lat="44.3517767" lon="11.1494567"><ele>539.0</ele><time>2026-03-22T10:34:31.99Z</time></trkpt><trkpt lat="44.3517633" lon="11.1495467"><ele>538.0</ele><time>2026-03-22T10:34:32.995Z</time></trkpt><trkpt lat="44.3517267" lon="11.14964"><ele>537.0</ele><time>2026-03-22T10:34:33.991Z</time></trkpt><trkpt lat="44.3516833" lon="11.1497533"><ele>536.0</ele><time>2026-03-22T10:34:34.992Z</time></trkpt><trkpt lat="44.351625" lon="11.1498617"><ele>535.0</ele><time>2026-03-22T10:34:35.993Z</time></trkpt><trkpt lat="44.35157" lon="11.1499567"><ele>534.0</ele><time>2026-03-22T10:34:36.993Z</time></trkpt><trkpt lat="44.3515217" lon="11.150045"><ele>532.0</ele><time>2026-03-22T10:34:37.993Z</time></trkpt><trkpt lat="44.3514583" lon="11.1501283"><ele>530.0</ele><time>2026-03-22T10:34:38.992Z</time></trkpt><trkpt lat="44.3513967" lon="11.1502033"><ele>528.0</ele><time>2026-03-22T10:34:39.988Z</time></trkpt><trkpt lat="44.3513233" lon="11.1502583"><ele>526.0</ele><time>2026-03-22T10:34:40.991Z</time></trkpt><trkpt lat="44.351265" lon="11.1503017"><ele>524.0</ele><time>2026-03-22T10:34:41.992Z</time></trkpt><trkpt lat="44.3512" lon="11.150385"><ele>522.0</ele><time>2026-03-22T10:34:44Z</time></trkpt><trkpt lat="44.3511717" lon="11.1505333"><ele>524.4</ele><time>2026-03-22T10:34:45.991Z</time></trkpt><trkpt lat="44.3511733" lon="11.1507033"><ele>526.8000000000001</ele><time>2026-03-22T10:34:47.991Z</time></trkpt><trkpt lat="44.3511617" lon="11.1507917"><ele>529.2</ele><time>2026-03-22T10:34:48.994Z</time></trkpt><trkpt lat="44.35111" lon="11.1509417"><ele>531.6</ele><time>2026-03-22T10:34:50.991Z</time></trkpt><trkpt lat="44.3510567" lon="11.15106"><ele>534.0</ele><time>2026-03-22T10:34:52.992Z</time></trkpt><trkpt lat="44.351055" lon="11.1511567"><ele>534.0</ele><time>2026-03-22T10:34:54.993Z</time></trkpt><trkpt lat="44.3510733" lon="11.151275"><ele>534.0</ele><time>2026-03-22T10:34:56.99Z</time></trkpt><trkpt lat="44.351075" lon="11.151445"><ele>534.0</ele><time>2026-03-22T10:34:58.992Z</time></trkpt><trkpt lat="44.35105" lon="11.1515383"><ele>534.0</ele><time>2026-03-22T10:34:59.99Z</time></trkpt><trkpt lat="44.3509717" lon="11.1515917"><ele>534.0</ele><time>2026-03-22T10:35:00.991Z</time></trkpt><trkpt lat="44.3509017" lon="11.15163"><ele>534.0</ele><time>2026-03-22T10:35:01.993Z</time></trkpt><trkpt lat="44.350845" lon="11.1516733"><ele>531.8333333333334</ele><time>2026-03-22T10:35:02.995Z</time></trkpt><trkpt lat="44.350795" lon="11.1518417"><ele>529.6666666666666</ele><time>2026-03-22T10:35:04.99Z</time></trkpt><trkpt lat="44.35078" lon="11.1519383"><ele>527.5</ele><time>2026-03-22T10:35:05.99Z</time></trkpt><trkpt lat="44.35075" lon="11.152035"><ele>525.3333333333333</ele><time>2026-03-22T10:35:06.991Z</time></trkpt><trkpt lat="44.3507083" lon="11.152125"><ele>523.1666666666666</ele><time>2026-03-22T10:35:07.993Z</time></trkpt><trkpt lat="44.3506617" lon="11.1522133"><ele>521.0</ele><time>2026-03-22T10:35:08.992Z</time></trkpt><trkpt lat="44.3506217" lon="11.1523117"><ele>523.6</ele><time>2026-03-22T10:35:09.991Z</time></trkpt><trkpt lat="44.3505967" lon="11.1524083"><ele>526.2</ele><time>2026-03-22T10:35:10.996Z</time></trkpt><trkpt lat="44.35057" lon="11.152495"><ele>528.8</ele><time>2026-03-22T10:35:11.991Z</time></trkpt><trkpt lat="44.3505133" lon="11.15263"><ele>531.4</ele><time>2026-03-22T10:35:13.99Z</time></trkpt><trkpt lat="44.350415" lon="11.1527233"><ele>534.0</ele><time>2026-03-22T10:35:15.994Z</time></trkpt><trkpt lat="44.3503267" lon="11.1528333"><ele>534.0</ele><time>2026-03-22T10:35:17.993Z</time></trkpt><trkpt lat="44.35031" lon="11.1529267"><ele>534.0</ele><time>2026-03-22T10:35:18.994Z</time></trkpt><trkpt lat="44.3502883" lon="11.1530383"><ele>534.0</ele><time>2026-03-22T10:35:19.991Z</time></trkpt><trkpt lat="44.3502583" lon="11.1531367"><ele>534.0</ele><time>2026-03-22T10:35:20.994Z</time></trkpt><trkpt lat="44.3502083" lon="11.153235"><ele>534.0</ele><time>2026-03-22T10:35:21.994Z</time></trkpt><trkpt lat="44.35014" lon="11.1533183"><ele>534.0</ele><time>2026-03-22T10:35:22.99Z</time></trkpt><trkpt lat="44.3500617" lon="11.1533767"><ele>536.3333333333334</ele><time>2026-03-22T10:35:23.999Z</time></trkpt><trkpt lat="44.34997" lon="11.1533933"><ele>538.6666666666666</ele><time>2026-03-22T10:35:24.991Z</time></trkpt><trkpt lat="44.3498917" lon="11.15341"><ele>541.0</ele><time>2026-03-22T10:35:25.991Z</time></trkpt><trkpt lat="44.3498267" lon="11.153445"><ele>543.3333333333333</ele><time>2026-03-22T10:35:26.991Z</time></trkpt><trkpt lat="44.3497717" lon="11.1535167"><ele>545.6666666666666</ele><time>2026-03-22T10:35:27.993Z</time></trkpt><trkpt lat="44.3497283" lon="11.1536"><ele>548.0</ele><time>2026-03-22T10:35:28.997Z</time></trkpt><trkpt lat="44.3496733" lon="11.1536917"><ele>548.0</ele><time>2026-03-22T10:35:29.995Z</time></trkpt><trkpt lat="44.3496067" lon="11.1537833"><ele>548.0</ele><time>2026-03-22T10:35:30.995Z</time></trkpt><trkpt lat="44.349545" lon="11.1538783"><ele>548.0</ele><time>2026-03-22T10:35:31.992Z</time></trkpt><trkpt lat="44.3494833" lon="11.1539533"><ele>548.0</ele><time>2026-03-22T10:35:32.99Z</time></trkpt><trkpt lat="44.3494183" lon="11.1540283"><ele>548.0</ele><time>2026-03-22T10:35:33.995Z</time></trkpt><trkpt lat="44.34936" lon="11.154115"><ele>548.0</ele><time>2026-03-22T10:35:34.992Z</time></trkpt><trkpt lat="44.34931" lon="11.1542267"><ele>543.6</ele><time>2026-03-22T10:35:35.995Z</time></trkpt><trkpt lat="44.34925" lon="11.1543583"><ele>539.1999999999999</ele><time>2026-03-22T10:35:36.992Z</time></trkpt><trkpt lat="44.3492" lon="11.1544833"><ele>534.8</ele><time>2026-03-22T10:35:37.993Z</time></trkpt><trkpt lat="44.3491517" lon="11.154595"><ele>530.4</ele><time>2026-03-22T10:35:38.991Z</time></trkpt><trkpt lat="44.349105" lon="11.154685"><ele>526.0</ele><time>2026-03-22T10:35:39.991Z</time></trkpt><trkpt lat="44.3490617" lon="11.15476"><ele>526.0</ele><time>2026-03-22T10:35:40.992Z</time></trkpt><trkpt lat="44.3490167" lon="11.1548217"><ele>526.0</ele><time>2026-03-22T10:35:41.99Z</time></trkpt><trkpt lat="44.34895" lon="11.154935"><ele>526.0</ele><time>2026-03-22T10:35:43.989Z</time></trkpt><trkpt lat="44.3489133" lon="11.155035"><ele>526.0</ele><time>2026-03-22T10:35:45.988Z</time></trkpt><trkpt lat="44.3488967" lon="11.1551283"><ele>526.0</ele><time>2026-03-22T10:35:48.993Z</time></trkpt><trkpt lat="44.34883" lon="11.1552433"><ele>526.0</ele><time>2026-03-22T10:35:51.991Z</time></trkpt><trkpt lat="44.3487717" lon="11.1553617"><ele>526.3333333333334</ele><time>2026-03-22T10:35:53.992Z</time></trkpt><trkpt lat="44.34871" lon="11.1554783"><ele>526.6666666666667</ele><time>2026-03-22T10:35:55.995Z</time></trkpt><trkpt lat="44.3486233" lon="11.1556083"><ele>527.0</ele><time>2026-03-22T10:35:57.996Z</time></trkpt><trkpt lat="44.34857" lon="11.1556667"><ele>527.3333333333334</ele><time>2026-03-22T10:35:58.996Z</time></trkpt><trkpt lat="44.3485167" lon="11.15573"><ele>527.6666666666666</ele><time>2026-03-22T10:35:59.994Z</time></trkpt><trkpt lat="44.3484667" lon="11.155795"><ele>528.0</ele><time>2026-03-22T10:36:00.992Z</time></trkpt><trkpt lat="44.3484033" lon="11.1559233"><ele>526.4</ele><time>2026-03-22T10:36:02.994Z</time></trkpt><trkpt lat="44.3483617" lon="11.1560967"><ele>524.8</ele><time>2026-03-22T10:36:05.024Z</time></trkpt><trkpt lat="44.3483567" lon="11.156235"><ele>523.2</ele><time>2026-03-22T10:36:05.992Z</time></trkpt><trkpt lat="44.3483583" lon="11.1563817"><ele>521.6</ele><time>2026-03-22T10:36:06.991Z</time></trkpt><trkpt lat="44.3483517" lon="11.1565117"><ele>520.0</ele><time>2026-03-22T10:36:07.992Z</time></trkpt><trkpt lat="44.34833" lon="11.1566283"><ele>520.1428571428572</ele><time>2026-03-22T10:36:08.991Z</time></trkpt><trkpt lat="44.3482817" lon="11.1567217"><ele>520.2857142857143</ele><time>2026-03-22T10:36:09.992Z</time></trkpt><trkpt lat="44.3482283" lon="11.1567883"><ele>520.4285714285714</ele><time>2026-03-22T10:36:10.991Z</time></trkpt><trkpt lat="44.3481617" lon="11.156815"><ele>520.5714285714287</ele><time>2026-03-22T10:36:11.989Z</time></trkpt><trkpt lat="44.348095" lon="11.156835"><ele>520.7142857142858</ele><time>2026-03-22T10:36:12.991Z</time></trkpt><trkpt lat="44.3480167" lon="11.1568617"><ele>520.8571428571429</ele><time>2026-03-22T10:36:13.994Z</time></trkpt><trkpt lat="44.34795" lon="11.1568983"><ele>521.0</ele><time>2026-03-22T10:36:14.993Z</time></trkpt><trkpt lat="44.3478533" lon="11.1570233"><ele>521.0</ele><time>2026-03-22T10:36:16.994Z</time></trkpt><trkpt lat="44.3478283" lon="11.1571233"><ele>521.0</ele><time>2026-03-22T10:36:17.992Z</time></trkpt><trkpt lat="44.3478133" lon="11.1572467"><ele>521.0</ele><time>2026-03-22T10:36:18.991Z</time></trkpt><trkpt lat="44.3478033" lon="11.1573767"><ele>521.0</ele><time>2026-03-22T10:36:19.993Z</time></trkpt><trkpt lat="44.347785" lon="11.1574883"><ele>521.0</ele><time>2026-03-22T10:36:20.992Z</time></trkpt><trkpt lat="44.347755" lon="11.1575883"><ele>521.0</ele><time>2026-03-22T10:36:21.991Z</time></trkpt><trkpt lat="44.34771" lon="11.1576767"><ele>519.6666666666666</ele><time>2026-03-22T10:36:22.994Z</time></trkpt><trkpt lat="44.3476417" lon="11.1577467"><ele>518.3333333333333</ele><time>2026-03-22T10:36:23.992Z</time></trkpt><trkpt lat="44.347565" lon="11.1577967"><ele>517.0</ele><time>2026-03-22T10:36:24.992Z</time></trkpt><trkpt lat="44.3474933" lon="11.157835"><ele>515.6666666666666</ele><time>2026-03-22T10:36:25.991Z</time></trkpt><trkpt lat="44.3473883" lon="11.157875"><ele>514.3333333333334</ele><time>2026-03-22T10:36:27.994Z</time></trkpt><trkpt lat="44.3473267" lon="11.1578117"><ele>513.0</ele><time>2026-03-22T10:36:30.991Z</time></trkpt><trkpt lat="44.3473233" lon="11.1576733"><ele>513.0</ele><time>2026-03-22T10:36:32.994Z</time></trkpt><trkpt lat="44.3473017" lon="11.15751"><ele>513.0</ele><time>2026-03-22T10:36:34.992Z</time></trkpt><trkpt lat="44.3472733" lon="11.15742"><ele>513.0</ele><time>2026-03-22T10:36:35.993Z</time></trkpt><trkpt lat="44.34724" lon="11.1573317"><ele>513.0</ele><time>2026-03-22T10:36:36.992Z</time></trkpt><trkpt lat="44.3471967" lon="11.1572417"><ele>513.0</ele><time>2026-03-22T10:36:37.993Z</time></trkpt><trkpt lat="44.3471453" lon="11.1571437"><ele>513.0</ele><time>2026-03-22T10:36:38.995Z</time></trkpt><trkpt lat="44.3470985" lon="11.1570442"><ele>512.5</ele><time>2026-03-22T10:36:39.992Z</time></trkpt><trkpt lat="44.3470616" lon="11.1569497"><ele>512.0</ele><time>2026-03-22T10:36:40.993Z</time></trkpt><trkpt lat="44.347038" lon="11.1568605"><ele>511.5</ele><time>2026-03-22T10:36:41.992Z</time></trkpt><trkpt lat="44.3470204" lon="11.1567751"><ele>511.0</ele><time>2026-03-22T10:36:42.998Z</time></trkpt><trkpt lat="44.3470156" lon="11.156602"><ele>510.5</ele><time>2026-03-22T10:36:44.994Z</time></trkpt><trkpt lat="44.3470298" lon="11.1565012"><ele>510.0</ele><time>2026-03-22T10:36:45.994Z</time></trkpt><trkpt lat="44.347051" lon="11.1563921"><ele>510.0</ele><time>2026-03-22T10:36:46.991Z</time></trkpt><trkpt lat="44.3470705" lon="11.1562889"><ele>510.0</ele><time>2026-03-22T10:36:47.991Z</time></trkpt><trkpt lat="44.3470848" lon="11.1561947"><ele>510.0</ele><time>2026-03-22T10:36:48.993Z</time></trkpt><trkpt lat="44.347102" lon="11.1560178"><ele>510.0</ele><time>2026-03-22T10:36:50.993Z</time></trkpt><trkpt lat="44.3471238" lon="11.1559151"><ele>510.0</ele><time>2026-03-22T10:36:51.991Z</time></trkpt><trkpt lat="44.3471481" lon="11.1558101"><ele>510.0</ele><time>2026-03-22T10:36:52.995Z</time></trkpt><trkpt lat="44.3471717" lon="11.1557005"><ele>509.2</ele><time>2026-03-22T10:36:53.992Z</time></trkpt><trkpt lat="44.3472037" lon="11.1555951"><ele>508.4</ele><time>2026-03-22T10:36:54.994Z</time></trkpt><trkpt lat="44.3472419" lon="11.1554814"><ele>507.6</ele><time>2026-03-22T10:36:55.996Z</time></trkpt><trkpt lat="44.3472822" lon="11.1553512"><ele>506.8</ele><time>2026-03-22T10:36:56.992Z</time></trkpt><trkpt lat="44.3473159" lon="11.1552185"><ele>506.0</ele><time>2026-03-22T10:36:57.992Z</time></trkpt><trkpt lat="44.347355" lon="11.1551083"><ele>511.49999999999994</ele><time>2026-03-22T10:36:58.993Z</time></trkpt><trkpt lat="44.3473967" lon="11.1550075"><ele>517.0</ele><time>2026-03-22T10:36:59.992Z</time></trkpt><trkpt lat="44.3474467" lon="11.1549154"><ele>522.5</ele><time>2026-03-22T10:37:00.992Z</time></trkpt><trkpt lat="44.3475031" lon="11.1548379"><ele>528.0</ele><time>2026-03-22T10:37:01.995Z</time></trkpt><trkpt lat="44.3475599" lon="11.1547512"><ele>533.5</ele><time>2026-03-22T10:37:02.992Z</time></trkpt><trkpt lat="44.3476134" lon="11.1546545"><ele>539.0</ele><time>2026-03-22T10:37:03.994Z</time></trkpt><trkpt lat="44.3476639" lon="11.1545505"><ele>539.0</ele><time>2026-03-22T10:37:04.995Z</time></trkpt><trkpt lat="44.3477086" lon="11.1544398"><ele>539.0</ele><time>2026-03-22T10:37:05.991Z</time></trkpt><trkpt lat="44.3477515" lon="11.1543259"><ele>539.0</ele><time>2026-03-22T10:37:06.997Z</time></trkpt><trkpt lat="44.3477888" lon="11.1542177"><ele>539.0</ele><time>2026-03-22T10:37:07.992Z</time></trkpt><trkpt lat="44.3478258" lon="11.1541228"><ele>539.0</ele><time>2026-03-22T10:37:08.993Z</time></trkpt><trkpt lat="44.3478683" lon="11.154051"><ele>539.0</ele><time>2026-03-22T10:37:09.994Z</time></trkpt><trkpt lat="44.3479283" lon="11.1540062"><ele>537.1666666666666</ele><time>2026-03-22T10:37:10.993Z</time></trkpt><trkpt lat="44.3479983" lon="11.1539666"><ele>535.3333333333333</ele><time>2026-03-22T10:37:11.993Z</time></trkpt><trkpt lat="44.3480782" lon="11.153928"><ele>533.5</ele><time>2026-03-22T10:37:12.994Z</time></trkpt><trkpt lat="44.3481602" lon="11.1538844"><ele>531.6666666666666</ele><time>2026-03-22T10:37:13.992Z</time></trkpt><trkpt lat="44.3482458" lon="11.1538257"><ele>529.8333333333334</ele><time>2026-03-22T10:37:14.993Z</time></trkpt><trkpt lat="44.3483331" lon="11.1537481"><ele>528.0</ele><time>2026-03-22T10:37:15.993Z</time></trkpt><trkpt lat="44.3484157" lon="11.1536679"><ele>533.1666666666666</ele><time>2026-03-22T10:37:16.993Z</time></trkpt><trkpt lat="44.3484927" lon="11.1535944"><ele>538.3333333333334</ele><time>2026-03-22T10:37:17.991Z</time></trkpt><trkpt lat="44.3485604" lon="11.1535223"><ele>543.5</ele><time>2026-03-22T10:37:18.994Z</time></trkpt><trkpt lat="44.3486234" lon="11.1534539"><ele>548.6666666666667</ele><time>2026-03-22T10:37:19.992Z</time></trkpt><trkpt lat="44.3486822" lon="11.1533794"><ele>553.8333333333334</ele><time>2026-03-22T10:37:20.987Z</time></trkpt><trkpt lat="44.3487413" lon="11.1533031"><ele>559.0</ele><time>2026-03-22T10:37:21.992Z</time></trkpt><trkpt lat="44.3487998" lon="11.1532213"><ele>559.5</ele><time>2026-03-22T10:37:22.991Z</time></trkpt><trkpt lat="44.3488611" lon="11.1531349"><ele>560.0</ele><time>2026-03-22T10:37:23.992Z</time></trkpt><trkpt lat="44.3489159" lon="11.1530458"><ele>560.5</ele><time>2026-03-22T10:37:24.992Z</time></trkpt><trkpt lat="44.3489607" lon="11.1529621"><ele>561.0</ele><time>2026-03-22T10:37:25.993Z</time></trkpt><trkpt lat="44.3489931" lon="11.15288"><ele>561.5</ele><time>2026-03-22T10:37:26.994Z</time></trkpt><trkpt lat="44.3490065" lon="11.152793"><ele>562.0</ele><time>2026-03-22T10:37:27.992Z</time></trkpt><trkpt lat="44.3490104" lon="11.1526884"><ele>562.0</ele><time>2026-03-22T10:37:28.99Z</time></trkpt><trkpt lat="44.3490154" lon="11.1525812"><ele>562.0</ele><time>2026-03-22T10:37:29.993Z</time></trkpt><trkpt lat="44.3490244" lon="11.1524753"><ele>562.0</ele><time>2026-03-22T10:37:30.993Z</time></trkpt><trkpt lat="44.3490282" lon="11.1523723"><ele>562.0</ele><time>2026-03-22T10:37:31.99Z</time></trkpt><trkpt lat="44.3490399" lon="11.1522676"><ele>562.0</ele><time>2026-03-22T10:37:32.992Z</time></trkpt><trkpt lat="44.3490649" lon="11.1521636"><ele>562.0</ele><time>2026-03-22T10:37:33.992Z</time></trkpt><trkpt lat="44.3491047" lon="11.1520645"><ele>565.8333333333334</ele><time>2026-03-22T10:37:34.987Z</time></trkpt><trkpt lat="44.349147" lon="11.1519652"><ele>569.6666666666667</ele><time>2026-03-22T10:37:35.999Z</time></trkpt><trkpt lat="44.3491838" lon="11.1518602"><ele>573.5</ele><time>2026-03-22T10:37:36.991Z</time></trkpt><trkpt lat="44.3492123" lon="11.1517425"><ele>577.3333333333334</ele><time>2026-03-22T10:37:37.994Z</time></trkpt><trkpt lat="44.3492414" lon="11.1516258"><ele>581.1666666666666</ele><time>2026-03-22T10:37:38.993Z</time></trkpt><trkpt lat="44.3492752" lon="11.1515153"><ele>585.0</ele><time>2026-03-22T10:37:39.995Z</time></trkpt><trkpt lat="44.3493105" lon="11.1514098"><ele>587.8333333333334</ele><time>2026-03-22T10:37:40.991Z</time></trkpt><trkpt lat="44.3493496" lon="11.1513079"><ele>590.6666666666666</ele><time>2026-03-22T10:37:41.992Z</time></trkpt><trkpt lat="44.3493882" lon="11.1512085"><ele>593.5</ele><time>2026-03-22T10:37:42.991Z</time></trkpt><trkpt lat="44.3494143" lon="11.1511044"><ele>596.3333333333333</ele><time>2026-03-22T10:37:43.994Z</time></trkpt><trkpt lat="44.3494278" lon="11.1509915"><ele>599.1666666666666</ele><time>2026-03-22T10:37:44.993Z</time></trkpt><trkpt lat="44.3494349" lon="11.150869"><ele>602.0</ele><time>2026-03-22T10:37:45.992Z</time></trkpt><trkpt lat="44.3494326" lon="11.1507468"><ele>602.5</ele><time>2026-03-22T10:37:46.993Z</time></trkpt><trkpt lat="44.3494272" lon="11.1506329"><ele>603.0</ele><time>2026-03-22T10:37:47.99Z</time></trkpt><trkpt lat="44.3494292" lon="11.150521"><ele>603.5</ele><time>2026-03-22T10:37:48.991Z</time></trkpt><trkpt lat="44.3494413" lon="11.1504081"><ele>604.0</ele><time>2026-03-22T10:37:49.994Z</time></trkpt><trkpt lat="44.3494742" lon="11.1502938"><ele>604.5</ele><time>2026-03-22T10:37:50.993Z</time></trkpt><trkpt lat="44.3495221" lon="11.1501812"><ele>605.0</ele><time>2026-03-22T10:37:51.998Z</time></trkpt><trkpt lat="44.3495765" lon="11.1500739"><ele>605.0</ele><time>2026-03-22T10:37:52.992Z</time></trkpt><trkpt lat="44.3496273" lon="11.1499726"><ele>605.0</ele><time>2026-03-22T10:37:53.994Z</time></trkpt><trkpt lat="44.3496823" lon="11.1498674"><ele>605.0</ele><time>2026-03-22T10:37:54.993Z</time></trkpt><trkpt lat="44.3497343" lon="11.1497493"><ele>605.0</ele><time>2026-03-22T10:37:55.992Z</time></trkpt><trkpt lat="44.3497775" lon="11.1496174"><ele>605.0</ele><time>2026-03-22T10:37:56.992Z</time></trkpt><trkpt lat="44.349804" lon="11.1494907"><ele>604.0</ele><time>2026-03-22T10:37:57.993Z</time></trkpt><trkpt lat="44.3498241" lon="11.1493727"><ele>603.0</ele><time>2026-03-22T10:37:58.993Z</time></trkpt><trkpt lat="44.3498316" lon="11.1492606"><ele>602.0</ele><time>2026-03-22T10:37:59.993Z</time></trkpt><trkpt lat="44.3498155" lon="11.1491527"><ele>601.0</ele><time>2026-03-22T10:38:00.995Z</time></trkpt><trkpt lat="44.3497758" lon="11.1490497"><ele>600.0</ele><time>2026-03-22T10:38:01.992Z</time></trkpt><trkpt lat="44.3497173" lon="11.1489494"><ele>599.0</ele><time>2026-03-22T10:38:02.996Z</time></trkpt><trkpt lat="44.3496518" lon="11.1488532"><ele>603.5</ele><time>2026-03-22T10:38:03.993Z</time></trkpt><trkpt lat="44.3495705" lon="11.1487595"><ele>608.0</ele><time>2026-03-22T10:38:04.995Z</time></trkpt><trkpt lat="44.3494824" lon="11.1486797"><ele>612.5</ele><time>2026-03-22T10:38:05.989Z</time></trkpt><trkpt lat="44.3493946" lon="11.1486296"><ele>617.0</ele><time>2026-03-22T10:38:06.992Z</time></trkpt><trkpt lat="44.3493186" lon="11.1486051"><ele>621.5</ele><time>2026-03-22T10:38:07.99Z</time></trkpt><trkpt lat="44.3492553" lon="11.1486068"><ele>626.0</ele><time>2026-03-22T10:38:08.989Z</time></trkpt><trkpt lat="44.3491569" lon="11.1486577"><ele>626.0</ele><time>2026-03-22T10:38:10.992Z</time></trkpt><trkpt lat="44.3490821" lon="11.148716"><ele>626.0</ele><time>2026-03-22T10:38:12.993Z</time></trkpt><trkpt lat="44.3490004" lon="11.1487595"><ele>626.0</ele><time>2026-03-22T10:38:14.992Z</time></trkpt><trkpt lat="44.3489233" lon="11.1487782"><ele>626.0</ele><time>2026-03-22T10:38:16.994Z</time></trkpt><trkpt lat="44.3488506" lon="11.1487238"><ele>626.0</ele><time>2026-03-22T10:38:18.992Z</time></trkpt><trkpt lat="44.3488037" lon="11.148631"><ele>626.0</ele><time>2026-03-22T10:38:20.993Z</time></trkpt><trkpt lat="44.3487694" lon="11.1485111"><ele>622.0</ele><time>2026-03-22T10:38:22.996Z</time></trkpt><trkpt lat="44.3487229" lon="11.1483965"><ele>618.0</ele><time>2026-03-22T10:38:24.994Z</time></trkpt><trkpt lat="44.3486751" lon="11.1482826"><ele>614.0</ele><time>2026-03-22T10:38:26.992Z</time></trkpt><trkpt lat="44.3486654" lon="11.1481541"><ele>610.0</ele><time>2026-03-22T10:38:28.991Z</time></trkpt><trkpt lat="44.3487009" lon="11.1480405"><ele>606.0</ele><time>2026-03-22T10:38:30.941Z</time></trkpt><trkpt lat="44.3487298" lon="11.1479482"><ele>602.0</ele><time>2026-03-22T10:38:33.013Z</time></trkpt><trkpt lat="44.3487605" lon="11.1478588"><ele>600.4</ele><time>2026-03-22T10:38:34.904Z</time></trkpt><trkpt lat="44.3487959" lon="11.1477056"><ele>598.8000000000001</ele><time>2026-03-22T10:38:36.99Z</time></trkpt><trkpt lat="44.3488354" lon="11.1475673"><ele>597.2</ele><time>2026-03-22T10:38:38.994Z</time></trkpt><trkpt lat="44.3488774" lon="11.1474469"><ele>595.6</ele><time>2026-03-22T10:38:40.99Z</time></trkpt><trkpt lat="44.3489494" lon="11.1473753"><ele>594.0</ele><time>2026-03-22T10:38:42.991Z</time></trkpt><trkpt lat="44.3490312" lon="11.1472978"><ele>599.3333333333334</ele><time>2026-03-22T10:38:44.986Z</time></trkpt><trkpt lat="44.3490983" lon="11.1471983"><ele>604.6666666666666</ele><time>2026-03-22T10:38:46.992Z</time></trkpt><trkpt lat="44.34916" lon="11.14707"><ele>610.0</ele><time>2026-03-22T10:38:48.994Z</time></trkpt><trkpt lat="44.349195" lon="11.1469917"><ele>615.3333333333333</ele><time>2026-03-22T10:38:49.989Z</time></trkpt><trkpt lat="44.3492367" lon="11.1469133"><ele>620.6666666666666</ele><time>2026-03-22T10:38:50.995Z</time></trkpt><trkpt lat="44.3492833" lon="11.1468417"><ele>626.0</ele><time>2026-03-22T10:38:51.989Z</time></trkpt><trkpt lat="44.349325" lon="11.14677"><ele>626.0</ele><time>2026-03-22T10:38:52.997Z</time></trkpt><trkpt lat="44.3493883" lon="11.1466367"><ele>626.0</ele><time>2026-03-22T10:38:54.993Z</time></trkpt><trkpt lat="44.3494283" lon="11.1465133"><ele>626.0</ele><time>2026-03-22T10:38:56.992Z</time></trkpt><trkpt lat="44.34947" lon="11.1463933"><ele>626.0</ele><time>2026-03-22T10:38:58.992Z</time></trkpt><trkpt lat="44.349515" lon="11.1462517"><ele>626.0</ele><time>2026-03-22T10:39:00.992Z</time></trkpt><trkpt lat="44.3495433" lon="11.1461717"><ele>623.5</ele><time>2026-03-22T10:39:01.991Z</time></trkpt><trkpt lat="44.3495733" lon="11.1460883"><ele>621.0</ele><time>2026-03-22T10:39:02.996Z</time></trkpt><trkpt lat="44.3496117" lon="11.1460067"><ele>618.5</ele><time>2026-03-22T10:39:03.989Z</time></trkpt><trkpt lat="44.3496417" lon="11.14592"><ele>616.0</ele><time>2026-03-22T10:39:04.987Z</time></trkpt><trkpt lat="44.3496917" lon="11.1457667"><ele>613.5</ele><time>2026-03-22T10:39:06.993Z</time></trkpt><trkpt lat="44.3497217" lon="11.1456883"><ele>611.0</ele><time>2026-03-22T10:39:07.993Z</time></trkpt><trkpt lat="44.3497583" lon="11.1456117"><ele>616.0</ele><time>2026-03-22T10:39:08.997Z</time></trkpt><trkpt lat="44.349795" lon="11.14554"><ele>621.0</ele><time>2026-03-22T10:39:09.987Z</time></trkpt><trkpt lat="44.3498317" lon="11.1454583"><ele>626.0</ele><time>2026-03-22T10:39:10.991Z</time></trkpt><trkpt lat="44.34987" lon="11.1453733"><ele>631.0</ele><time>2026-03-22T10:39:11.988Z</time></trkpt><trkpt lat="44.349905" lon="11.145295"><ele>636.0</ele><time>2026-03-22T10:39:12.99Z</time></trkpt><trkpt lat="44.34996" lon="11.14514"><ele>641.0</ele><time>2026-03-22T10:39:14.995Z</time></trkpt><trkpt lat="44.3499617" lon="11.14497"><ele>642.6666666666666</ele><time>2026-03-22T10:39:16.996Z</time></trkpt><trkpt lat="44.349955" lon="11.1448783"><ele>644.3333333333333</ele><time>2026-03-22T10:39:17.992Z</time></trkpt><trkpt lat="44.3499433" lon="11.1447733"><ele>646.0</ele><time>2026-03-22T10:39:18.995Z</time></trkpt><trkpt lat="44.3499317" lon="11.1446617"><ele>647.6666666666666</ele><time>2026-03-22T10:39:19.993Z</time></trkpt><trkpt lat="44.349925" lon="11.1445567"><ele>649.3333333333334</ele><time>2026-03-22T10:39:20.994Z</time></trkpt><trkpt lat="44.349915" lon="11.1444617"><ele>651.0</ele><time>2026-03-22T10:39:21.99Z</time></trkpt><trkpt lat="44.3498867" lon="11.144315"><ele>651.0</ele><time>2026-03-22T10:39:23.998Z</time></trkpt><trkpt lat="44.3498533" lon="11.144175"><ele>651.0</ele><time>2026-03-22T10:39:25.991Z</time></trkpt><trkpt lat="44.34983" lon="11.14407"><ele>651.0</ele><time>2026-03-22T10:39:27.99Z</time></trkpt><trkpt lat="44.3498233" lon="11.1439533"><ele>651.0</ele><time>2026-03-22T10:39:30.993Z</time></trkpt><trkpt lat="44.34987" lon="11.14389"><ele>651.0</ele><time>2026-03-22T10:39:32.995Z</time></trkpt><trkpt lat="44.3499117" lon="11.1438217"><ele>651.0</ele><time>2026-03-22T10:39:34.991Z</time></trkpt><trkpt lat="44.3499077" lon="11.1436887"><ele>653.1666666666666</ele><time>2026-03-22T10:39:37.991Z</time></trkpt><trkpt lat="44.3498661" lon="11.1435666"><ele>655.3333333333334</ele><time>2026-03-22T10:39:39.993Z</time></trkpt><trkpt lat="44.34982" lon="11.1434451"><ele>657.5</ele><time>2026-03-22T10:39:41.992Z</time></trkpt><trkpt lat="44.3497942" lon="11.1433311"><ele>659.6666666666667</ele><time>2026-03-22T10:39:43.991Z</time></trkpt><trkpt lat="44.3497768" lon="11.1432145"><ele>661.8333333333334</ele><time>2026-03-22T10:39:45.995Z</time></trkpt><trkpt lat="44.3497596" lon="11.143114"><ele>664.0</ele><time>2026-03-22T10:39:47.995Z</time></trkpt><trkpt lat="44.3497472" lon="11.142993"><ele>665.5</ele><time>2026-03-22T10:39:51.995Z</time></trkpt><trkpt lat="44.3497643" lon="11.1428571"><ele>667.0</ele><time>2026-03-22T10:39:54.025Z</time></trkpt><trkpt lat="44.3497961" lon="11.1427676"><ele>668.5</ele><time>2026-03-22T10:39:55.995Z</time></trkpt><trkpt lat="44.3498315" lon="11.142663"><ele>670.0</ele><time>2026-03-22T10:39:57.996Z</time></trkpt><trkpt lat="44.3498904" lon="11.1425804"><ele>671.5</ele><time>2026-03-22T10:40:00.02Z</time></trkpt><trkpt lat="44.3499578" lon="11.1425333"><ele>673.0</ele><time>2026-03-22T10:40:03.017Z</time></trkpt><trkpt lat="44.3499998" lon="11.1424263"><ele>672.0</ele><time>2026-03-22T10:40:54.997Z</time></trkpt><trkpt lat="44.3500438" lon="11.1423632"><ele>671.0</ele><time>2026-03-22T10:40:55.99Z</time></trkpt><trkpt lat="44.3500909" lon="11.1423003"><ele>670.0</ele><time>2026-03-22T10:40:56.992Z</time></trkpt><trkpt lat="44.3501453" lon="11.1422423"><ele>669.0</ele><time>2026-03-22T10:40:57.992Z</time></trkpt><trkpt lat="44.350231" lon="11.1421599"><ele>668.0</ele><time>2026-03-22T10:40:59.993Z</time></trkpt><trkpt lat="44.350316" lon="11.1420875"><ele>667.0</ele><time>2026-03-22T10:41:01.994Z</time></trkpt><trkpt lat="44.3503977" lon="11.1419796"><ele>667.0</ele><time>2026-03-22T10:41:03.993Z</time></trkpt><trkpt lat="44.350477" lon="11.1418358"><ele>667.0</ele><time>2026-03-22T10:41:05.996Z</time></trkpt><trkpt lat="44.3505168" lon="11.1417527"><ele>667.0</ele><time>2026-03-22T10:41:06.992Z</time></trkpt><trkpt lat="44.350557" lon="11.1416657"><ele>667.0</ele><time>2026-03-22T10:41:07.996Z</time></trkpt><trkpt lat="44.350585" lon="11.1415783"><ele>667.0</ele><time>2026-03-22T10:41:08.996Z</time></trkpt><trkpt lat="44.3506233" lon="11.1414267"><ele>673.4000000000001</ele><time>2026-03-22T10:41:10.995Z</time></trkpt><trkpt lat="44.350655" lon="11.1413117"><ele>679.8000000000001</ele><time>2026-03-22T10:41:12.994Z</time></trkpt><trkpt lat="44.3506567" lon="11.14119"><ele>686.2</ele><time>2026-03-22T10:41:14.993Z</time></trkpt><trkpt lat="44.3506467" lon="11.141035"><ele>692.6</ele><time>2026-03-22T10:41:16.987Z</time></trkpt><trkpt lat="44.3506117" lon="11.140865"><ele>699.0</ele><time>2026-03-22T10:41:18.993Z</time></trkpt><trkpt lat="44.350585" lon="11.1407733"><ele>700.3333333333334</ele><time>2026-03-22T10:41:19.991Z</time></trkpt><trkpt lat="44.3505633" lon="11.1406767"><ele>701.6666666666666</ele><time>2026-03-22T10:41:20.991Z</time></trkpt><trkpt lat="44.3505367" lon="11.1405867"><ele>703.0</ele><time>2026-03-22T10:41:21.995Z</time></trkpt><trkpt lat="44.3505067" lon="11.1405"><ele>704.3333333333333</ele><time>2026-03-22T10:41:22.992Z</time></trkpt><trkpt lat="44.35048" lon="11.1404183"><ele>705.6666666666666</ele><time>2026-03-22T10:41:23.994Z</time></trkpt><trkpt lat="44.3504533" lon="11.1403383"><ele>707.0</ele><time>2026-03-22T10:41:24.99Z</time></trkpt><trkpt lat="44.3504033" lon="11.1401967"><ele>701.3333333333333</ele><time>2026-03-22T10:41:26.994Z</time></trkpt><trkpt lat="44.3503883" lon="11.140055"><ele>695.6666666666666</ele><time>2026-03-22T10:41:28.99Z</time></trkpt><trkpt lat="44.3503783" lon="11.139935"><ele>690.0</ele><time>2026-03-22T10:41:30.996Z</time></trkpt><trkpt lat="44.3503733" lon="11.13981"><ele>684.3333333333334</ele><time>2026-03-22T10:41:32.994Z</time></trkpt><trkpt lat="44.35037" lon="11.1397033"><ele>678.6666666666667</ele><time>2026-03-22T10:41:34.988Z</time></trkpt><trkpt lat="44.3503483" lon="11.1395933"><ele>673.0</ele><time>2026-03-22T10:41:36.991Z</time></trkpt><trkpt lat="44.3503383" lon="11.139475"><ele>673.0</ele><time>2026-03-22T10:41:38.992Z</time></trkpt><trkpt lat="44.3503333" lon="11.1393617"><ele>673.0</ele><time>2026-03-22T10:41:40.993Z</time></trkpt><trkpt lat="44.3503233" lon="11.1392483"><ele>673.0</ele><time>2026-03-22T10:41:42.996Z</time></trkpt><trkpt lat="44.3503233" lon="11.13916"><ele>673.0</ele><time>2026-03-22T10:41:44.991Z</time></trkpt><trkpt lat="44.3502883" lon="11.1390467"><ele>673.0</ele><time>2026-03-22T10:41:47.995Z</time></trkpt><trkpt lat="44.3502367" lon="11.1389583"><ele>673.0</ele><time>2026-03-22T10:41:49.987Z</time></trkpt><trkpt lat="44.350205" lon="11.1388367"><ele>672.1666666666667</ele><time>2026-03-22T10:41:52.994Z</time></trkpt><trkpt lat="44.3501867" lon="11.1387317"><ele>671.3333333333334</ele><time>2026-03-22T10:41:55.994Z</time></trkpt><trkpt lat="44.3502333" lon="11.1386233"><ele>670.5</ele><time>2026-03-22T10:41:58.994Z</time></trkpt><trkpt lat="44.35028" lon="11.138535"><ele>669.6666666666666</ele><time>2026-03-22T10:42:01.991Z</time></trkpt><trkpt lat="44.3503183" lon="11.1384417"><ele>668.8333333333333</ele><time>2026-03-22T10:42:04.993Z</time></trkpt><trkpt lat="44.3503833" lon="11.13836"><ele>668.0</ele><time>2026-03-22T10:42:07.995Z</time></trkpt><trkpt lat="44.35045" lon="11.1382883"><ele>660.1666666666666</ele><time>2026-03-22T10:42:10.994Z</time></trkpt><trkpt lat="44.350525" lon="11.1382033"><ele>652.3333333333333</ele><time>2026-03-22T10:42:17.998Z</time></trkpt><trkpt lat="44.350595" lon="11.13815"><ele>644.5</ele><time>2026-03-22T10:42:21.993Z</time></trkpt><trkpt lat="44.3506633" lon="11.138125"><ele>636.6666666666666</ele><time>2026-03-22T10:42:24.993Z</time></trkpt><trkpt lat="44.35074" lon="11.1380733"><ele>628.8333333333334</ele><time>2026-03-22T10:42:27.996Z</time></trkpt><trkpt lat="44.3508227" lon="11.1380665"><ele>621.0</ele><time>2026-03-22T10:42:30.981Z</time></trkpt><trkpt lat="44.3509032" lon="11.1380724"><ele>621.0</ele><time>2026-03-22T10:42:34.019Z</time></trkpt><trkpt lat="44.3509283" lon="11.1379867"><ele>621.0</ele><time>2026-03-22T10:42:35.99Z</time></trkpt><trkpt lat="44.350995" lon="11.137935"><ele>621.0</ele><time>2026-03-22T10:42:38.999Z</time></trkpt><trkpt lat="44.351065" lon="11.1378533"><ele>621.0</ele><time>2026-03-22T10:42:41.987Z</time></trkpt><trkpt lat="44.3511333" lon="11.1377883"><ele>621.0</ele><time>2026-03-22T10:42:44.99Z</time></trkpt><trkpt lat="44.35122" lon="11.13775"><ele>621.0</ele><time>2026-03-22T10:42:47.999Z</time></trkpt><trkpt lat="44.351315" lon="11.1376633"><ele>624.2</ele><time>2026-03-22T10:42:49.99Z</time></trkpt><trkpt lat="44.3514207" lon="11.1375648"><ele>627.4000000000001</ele><time>2026-03-22T10:42:51.994Z</time></trkpt><trkpt lat="44.3514744" lon="11.1375163"><ele>630.6</ele><time>2026-03-22T10:42:52.994Z</time></trkpt><trkpt lat="44.3515856" lon="11.1374335"><ele>633.8000000000001</ele><time>2026-03-22T10:42:54.997Z</time></trkpt><trkpt lat="44.3516394" lon="11.1373861"><ele>637.0</ele><time>2026-03-22T10:42:55.995Z</time></trkpt><trkpt lat="44.3517364" lon="11.1372994"><ele>628.0</ele><time>2026-03-22T10:42:57.995Z</time></trkpt><trkpt lat="44.3518439" lon="11.1372513"><ele>619.0</ele><time>2026-03-22T10:42:59.997Z</time></trkpt><trkpt lat="44.3519364" lon="11.1372081"><ele>610.0</ele><time>2026-03-22T10:43:01.994Z</time></trkpt><trkpt lat="44.3520165" lon="11.1371504"><ele>601.0</ele><time>2026-03-22T10:43:03.995Z</time></trkpt><trkpt lat="44.3520962" lon="11.1370608"><ele>592.0</ele><time>2026-03-22T10:43:05.992Z</time></trkpt><trkpt lat="44.3521717" lon="11.1369606"><ele>593.0</ele><time>2026-03-22T10:43:07.995Z</time></trkpt><trkpt lat="44.3522376" lon="11.1368901"><ele>594.0</ele><time>2026-03-22T10:43:09.996Z</time></trkpt><trkpt lat="44.3522911" lon="11.1368385"><ele>595.0</ele><time>2026-03-22T10:43:12.989Z</time></trkpt><trkpt lat="44.3523215" lon="11.1367597"><ele>596.0</ele><time>2026-03-22T10:44:39.994Z</time></trkpt><trkpt lat="44.352385" lon="11.1367133"><ele>597.0</ele><time>2026-03-22T10:44:41.997Z</time></trkpt><trkpt lat="44.3524283" lon="11.1366317"><ele>598.0</ele><time>2026-03-22T10:44:43.995Z</time></trkpt><trkpt lat="44.3524517" lon="11.1365283"><ele>599.0</ele><time>2026-03-22T10:44:45.996Z</time></trkpt><trkpt lat="44.3524767" lon="11.136405"><ele>599.0</ele><time>2026-03-22T10:44:47.993Z</time></trkpt><trkpt lat="44.35253" lon="11.1363067"><ele>599.0</ele><time>2026-03-22T10:44:49.988Z</time></trkpt><trkpt lat="44.3526083" lon="11.1362067"><ele>599.0</ele><time>2026-03-22T10:44:51.994Z</time></trkpt><trkpt lat="44.35268" lon="11.1361433"><ele>599.0</ele><time>2026-03-22T10:44:53.993Z</time></trkpt><trkpt lat="44.3527433" lon="11.136055"><ele>599.0</ele><time>2026-03-22T10:44:56.993Z</time></trkpt><trkpt lat="44.35279" lon="11.1359867"><ele>599.0</ele><time>2026-03-22T10:44:58.996Z</time></trkpt><trkpt lat="44.352835" lon="11.135865"><ele>599.0</ele><time>2026-03-22T10:45:01.99Z</time></trkpt><trkpt lat="44.35287" lon="11.13577"><ele>599.0</ele><time>2026-03-22T10:45:04.003Z</time></trkpt><trkpt lat="44.3529083" lon="11.13569"><ele>599.0</ele><time>2026-03-22T10:45:05.994Z</time></trkpt><trkpt lat="44.352965" lon="11.13561"><ele>599.0</ele><time>2026-03-22T10:45:07.995Z</time></trkpt><trkpt lat="44.3530333" lon="11.1355283"><ele>599.0</ele><time>2026-03-22T10:45:09.996Z</time></trkpt><trkpt lat="44.353085" lon="11.1354567"><ele>599.0</ele><time>2026-03-22T10:45:11.993Z</time></trkpt><trkpt lat="44.35313" lon="11.1353717"><ele>600.5</ele><time>2026-03-22T10:45:13.995Z</time></trkpt><trkpt lat="44.3531983" lon="11.1352767"><ele>602.0</ele><time>2026-03-22T10:45:15.997Z</time></trkpt><trkpt lat="44.35327" lon="11.1351883"><ele>603.5</ele><time>2026-03-22T10:45:17.995Z</time></trkpt><trkpt lat="44.3533383" lon="11.135105"><ele>605.0</ele><time>2026-03-22T10:45:19.995Z</time></trkpt><trkpt lat="44.353405" lon="11.1350333"><ele>606.5</ele><time>2026-03-22T10:45:21.99Z</time></trkpt><trkpt lat="44.3534567" lon="11.134965"><ele>608.0</ele><time>2026-03-22T10:45:23.996Z</time></trkpt><trkpt lat="44.3535217" lon="11.1348717"><ele>606.0</ele><time>2026-03-22T10:45:26.992Z</time></trkpt><trkpt lat="44.35359" lon="11.134775"><ele>604.0</ele><time>2026-03-22T10:45:29.999Z</time></trkpt><trkpt lat="44.3536433" lon="11.1347167"><ele>602.0</ele><time>2026-03-22T10:45:31.989Z</time></trkpt><trkpt lat="44.3536983" lon="11.1346567"><ele>600.0</ele><time>2026-03-22T10:45:33.994Z</time></trkpt><trkpt lat="44.3537617" lon="11.1346217"><ele>598.0</ele><time>2026-03-22T10:45:35.989Z</time></trkpt><trkpt lat="44.3538167" lon="11.13457"><ele>596.0</ele><time>2026-03-22T10:45:37.991Z</time></trkpt><trkpt lat="44.3538767" lon="11.134505"><ele>594.0</ele><time>2026-03-22T10:45:40.99Z</time></trkpt><trkpt lat="44.35395" lon="11.13454"><ele>594.0</ele><time>2026-03-22T10:45:44.994Z</time></trkpt><trkpt lat="44.3540183" lon="11.1345"><ele>594.0</ele><time>2026-03-22T10:45:49.99Z</time></trkpt><trkpt lat="44.3540483" lon="11.134395"><ele>594.0</ele><time>2026-03-22T10:45:52.999Z</time></trkpt><trkpt lat="44.3540683" lon="11.1342983"><ele>594.0</ele><time>2026-03-22T10:45:55.992Z</time></trkpt><trkpt lat="44.3540217" lon="11.1341983"><ele>594.0</ele><time>2026-03-22T10:45:58.991Z</time></trkpt><trkpt lat="44.3541583" lon="11.13403"><ele>589.8333333333334</ele><time>2026-03-22T10:46:49.995Z</time></trkpt><trkpt lat="44.354185" lon="11.133895"><ele>585.6666666666666</ele><time>2026-03-22T10:46:51.996Z</time></trkpt><trkpt lat="44.3541783" lon="11.1338"><ele>581.5</ele><time>2026-03-22T10:46:52.995Z</time></trkpt><trkpt lat="44.35417" lon="11.1337067"><ele>577.3333333333333</ele><time>2026-03-22T10:46:53.991Z</time></trkpt><trkpt lat="44.3541633" lon="11.1336133"><ele>573.1666666666666</ele><time>2026-03-22T10:46:54.991Z</time></trkpt><trkpt lat="44.35417" lon="11.1334367"><ele>569.0</ele><time>2026-03-22T10:46:56.999Z</time></trkpt><trkpt lat="44.3541833" lon="11.1333417"><ele>569.0</ele><time>2026-03-22T10:46:57.999Z</time></trkpt><trkpt lat="44.3542017" lon="11.1332467"><ele>569.0</ele><time>2026-03-22T10:46:58.991Z</time></trkpt><trkpt lat="44.3542017" lon="11.133155"><ele>569.0</ele><time>2026-03-22T10:46:59.993Z</time></trkpt><trkpt lat="44.3542" lon="11.1330617"><ele>569.0</ele><time>2026-03-22T10:47:00.999Z</time></trkpt><trkpt lat="44.3542083" lon="11.1329033"><ele>569.0</ele><time>2026-03-22T10:47:02.995Z</time></trkpt><trkpt lat="44.3542883" lon="11.132795"><ele>569.0</ele><time>2026-03-22T10:47:04.996Z</time></trkpt><trkpt lat="44.35435" lon="11.132755"><ele>567.0</ele><time>2026-03-22T10:47:05.992Z</time></trkpt><trkpt lat="44.3544117" lon="11.1327133"><ele>565.0</ele><time>2026-03-22T10:47:06.997Z</time></trkpt><trkpt lat="44.354485" lon="11.1326667"><ele>563.0</ele><time>2026-03-22T10:47:07.991Z</time></trkpt><trkpt lat="44.3545633" lon="11.1326167"><ele>561.0</ele><time>2026-03-22T10:47:08.994Z</time></trkpt><trkpt lat="44.3546433" lon="11.132565"><ele>559.0</ele><time>2026-03-22T10:47:09.995Z</time></trkpt><trkpt lat="44.3547133" lon="11.1325117"><ele>557.0</ele><time>2026-03-22T10:47:10.997Z</time></trkpt><trkpt lat="44.3547783" lon="11.1324617"><ele>557.0</ele><time>2026-03-22T10:47:11.997Z</time></trkpt><trkpt lat="44.3548483" lon="11.1324317"><ele>557.0</ele><time>2026-03-22T10:47:12.994Z</time></trkpt><trkpt lat="44.3549167" lon="11.13241"><ele>557.0</ele><time>2026-03-22T10:47:13.989Z</time></trkpt><trkpt lat="44.3549967" lon="11.1324083"><ele>557.0</ele><time>2026-03-22T10:47:14.996Z</time></trkpt><trkpt lat="44.3550817" lon="11.13241"><ele>557.0</ele><time>2026-03-22T10:47:15.99Z</time></trkpt><trkpt lat="44.3551617" lon="11.132405"><ele>557.0</ele><time>2026-03-22T10:47:16.993Z</time></trkpt><trkpt lat="44.355235" lon="11.1323883"><ele>555.5</ele><time>2026-03-22T10:47:17.989Z</time></trkpt><trkpt lat="44.3553083" lon="11.1323817"><ele>554.0</ele><time>2026-03-22T10:47:18.997Z</time></trkpt><trkpt lat="44.355375" lon="11.1323567"><ele>552.5</ele><time>2026-03-22T10:47:19.991Z</time></trkpt><trkpt lat="44.355455" lon="11.1322683"><ele>551.0</ele><time>2026-03-22T10:47:21.996Z</time></trkpt><trkpt lat="44.3555033" lon="11.132115"><ele>549.5</ele><time>2026-03-22T10:47:23.991Z</time></trkpt><trkpt lat="44.3555367" lon="11.13202"><ele>548.0</ele><time>2026-03-22T10:47:24.991Z</time></trkpt><trkpt lat="44.3555633" lon="11.1319267"><ele>548.0000000000001</ele><time>2026-03-22T10:47:25.991Z</time></trkpt><trkpt lat="44.3556117" lon="11.131845"><ele>548.0</ele><time>2026-03-22T10:47:26.993Z</time></trkpt><trkpt lat="44.3556683" lon="11.1317783"><ele>548.0</ele><time>2026-03-22T10:47:27.991Z</time></trkpt><trkpt lat="44.3557317" lon="11.131715"><ele>548.0</ele><time>2026-03-22T10:47:28.99Z</time></trkpt><trkpt lat="44.355785" lon="11.1316433"><ele>548.0</ele><time>2026-03-22T10:47:29.994Z</time></trkpt><trkpt lat="44.3558317" lon="11.131575"><ele>548.0000000000001</ele><time>2026-03-22T10:47:30.996Z</time></trkpt><trkpt lat="44.3558733" lon="11.1315033"><ele>548.0</ele><time>2026-03-22T10:47:31.99Z</time></trkpt><trkpt lat="44.3559617" lon="11.1313867"><ele>547.8333333333333</ele><time>2026-03-22T10:47:33.99Z</time></trkpt><trkpt lat="44.3560717" lon="11.1313133"><ele>547.6666666666666</ele><time>2026-03-22T10:47:35.991Z</time></trkpt><trkpt lat="44.3561883" lon="11.1312717"><ele>547.5</ele><time>2026-03-22T10:47:37.991Z</time></trkpt><trkpt lat="44.3562533" lon="11.1312683"><ele>547.3333333333334</ele><time>2026-03-22T10:47:38.997Z</time></trkpt><trkpt lat="44.3563167" lon="11.131265"><ele>547.1666666666667</ele><time>2026-03-22T10:47:39.989Z</time></trkpt><trkpt lat="44.3563817" lon="11.1312617"><ele>547.0</ele><time>2026-03-22T10:47:40.995Z</time></trkpt><trkpt lat="44.356445" lon="11.1312533"><ele>547.0</ele><time>2026-03-22T10:47:41.991Z</time></trkpt><trkpt lat="44.3565083" lon="11.131245"><ele>547.0</ele><time>2026-03-22T10:47:42.996Z</time></trkpt><trkpt lat="44.3566183" lon="11.1312417"><ele>547.0</ele><time>2026-03-22T10:47:44.986Z</time></trkpt><trkpt lat="44.35672" lon="11.1312433"><ele>547.0</ele><time>2026-03-22T10:47:46.994Z</time></trkpt><trkpt lat="44.3567817" lon="11.131215"><ele>547.0</ele><time>2026-03-22T10:47:48.996Z</time></trkpt><trkpt lat="44.35678" lon="11.1310967"><ele>547.0</ele><time>2026-03-22T10:47:50.994Z</time></trkpt><trkpt lat="44.356775" lon="11.1309433"><ele>547.0</ele><time>2026-03-22T10:47:52.99Z</time></trkpt><trkpt lat="44.35678" lon="11.1308533"><ele>547.0</ele><time>2026-03-22T10:47:53.989Z</time></trkpt><trkpt lat="44.3567883" lon="11.1307633"><ele>547.0</ele><time>2026-03-22T10:47:54.99Z</time></trkpt><trkpt lat="44.3567967" lon="11.130675"><ele>547.0</ele><time>2026-03-22T10:47:55.997Z</time></trkpt><trkpt lat="44.356815" lon="11.130515"><ele>547.0</ele><time>2026-03-22T10:47:57.994Z</time></trkpt><trkpt lat="44.3568567" lon="11.13039"><ele>547.0</ele><time>2026-03-22T10:47:59.993Z</time></trkpt><trkpt lat="44.3569283" lon="11.1302767"><ele>546.2</ele><time>2026-03-22T10:48:01.994Z</time></trkpt><trkpt lat="44.3570067" lon="11.13015"><ele>545.4000000000001</ele><time>2026-03-22T10:48:03.989Z</time></trkpt><trkpt lat="44.3570817" lon="11.1300133"><ele>544.5999999999999</ele><time>2026-03-22T10:48:05.989Z</time></trkpt><trkpt lat="44.3571217" lon="11.1299417"><ele>543.8</ele><time>2026-03-22T10:48:06.993Z</time></trkpt><trkpt lat="44.357205" lon="11.12981"><ele>543.0</ele><time>2026-03-22T10:48:08.992Z</time></trkpt><trkpt lat="44.357265" lon="11.12975"><ele>543.0</ele><time>2026-03-22T10:48:09.988Z</time></trkpt><trkpt lat="44.3573283" lon="11.129695"><ele>543.0</ele><time>2026-03-22T10:48:10.989Z</time></trkpt><trkpt lat="44.3573933" lon="11.1296483"><ele>543.0</ele><time>2026-03-22T10:48:11.995Z</time></trkpt><trkpt lat="44.3574633" lon="11.12961"><ele>543.0</ele><time>2026-03-22T10:48:12.99Z</time></trkpt><trkpt lat="44.3575267" lon="11.1295483"><ele>543.0</ele><time>2026-03-22T10:48:13.994Z</time></trkpt><trkpt lat="44.357585" lon="11.12948"><ele>543.0</ele><time>2026-03-22T10:48:14.99Z</time></trkpt><trkpt lat="44.357645" lon="11.1294033"><ele>543.0</ele><time>2026-03-22T10:48:15.993Z</time></trkpt><trkpt lat="44.3577" lon="11.12931"><ele>543.0</ele><time>2026-03-22T10:48:16.991Z</time></trkpt><trkpt lat="44.3577433" lon="11.1292067"><ele>543.0</ele><time>2026-03-22T10:48:17.996Z</time></trkpt><trkpt lat="44.357785" lon="11.1291067"><ele>543.0</ele><time>2026-03-22T10:48:18.993Z</time></trkpt><trkpt lat="44.357825" lon="11.12901"><ele>543.0</ele><time>2026-03-22T10:48:19.996Z</time></trkpt><trkpt lat="44.3578667" lon="11.1289233"><ele>543.0</ele><time>2026-03-22T10:48:20.991Z</time></trkpt><trkpt lat="44.3579167" lon="11.1288433"><ele>541.3333333333334</ele><time>2026-03-22T10:48:21.99Z</time></trkpt><trkpt lat="44.3579733" lon="11.1287683"><ele>539.6666666666666</ele><time>2026-03-22T10:48:22.994Z</time></trkpt><trkpt lat="44.3580383" lon="11.1287033"><ele>538.0</ele><time>2026-03-22T10:48:23.992Z</time></trkpt><trkpt lat="44.3581017" lon="11.128645"><ele>536.3333333333333</ele><time>2026-03-22T10:48:24.999Z</time></trkpt><trkpt lat="44.3581733" lon="11.128585"><ele>534.6666666666666</ele><time>2026-03-22T10:48:25.991Z</time></trkpt><trkpt lat="44.3582417" lon="11.1285367"><ele>533.0</ele><time>2026-03-22T10:48:26.994Z</time></trkpt><trkpt lat="44.3583017" lon="11.1284967"><ele>536.0</ele><time>2026-03-22T10:48:27.989Z</time></trkpt><trkpt lat="44.3583833" lon="11.1283933"><ele>539.0</ele><time>2026-03-22T10:48:29.993Z</time></trkpt><trkpt lat="44.3584267" lon="11.1283217"><ele>542.0</ele><time>2026-03-22T10:48:30.997Z</time></trkpt><trkpt lat="44.3584667" lon="11.12821"><ele>545.0</ele><time>2026-03-22T10:48:31.995Z</time></trkpt><trkpt lat="44.3585083" lon="11.128095"><ele>548.0</ele><time>2026-03-22T10:48:32.991Z</time></trkpt><trkpt lat="44.3585483" lon="11.1279783"><ele>548.0</ele><time>2026-03-22T10:48:33.987Z</time></trkpt><trkpt lat="44.358585" lon="11.1278583"><ele>548.0</ele><time>2026-03-22T10:48:34.989Z</time></trkpt><trkpt lat="44.358605" lon="11.1277183"><ele>548.0</ele><time>2026-03-22T10:48:35.989Z</time></trkpt><trkpt lat="44.358605" lon="11.1275667"><ele>548.0</ele><time>2026-03-22T10:48:36.988Z</time></trkpt><trkpt lat="44.358595" lon="11.1274183"><ele>548.0</ele><time>2026-03-22T10:48:37.99Z</time></trkpt><trkpt lat="44.3585833" lon="11.1272783"><ele>549.6</ele><time>2026-03-22T10:48:38.996Z</time></trkpt><trkpt lat="44.3585633" lon="11.1271467"><ele>551.1999999999999</ele><time>2026-03-22T10:48:39.995Z</time></trkpt><trkpt lat="44.3585383" lon="11.1270267"><ele>552.8</ele><time>2026-03-22T10:48:40.996Z</time></trkpt><trkpt lat="44.3585117" lon="11.1269167"><ele>554.4</ele><time>2026-03-22T10:48:41.992Z</time></trkpt><trkpt lat="44.35846" lon="11.126825"><ele>556.0</ele><time>2026-03-22T10:48:42.99Z</time></trkpt><trkpt lat="44.358355" lon="11.1267883"><ele>556.0</ele><time>2026-03-22T10:48:43.999Z</time></trkpt><trkpt lat="44.3582417" lon="11.126785"><ele>556.0</ele><time>2026-03-22T10:48:44.991Z</time></trkpt><trkpt lat="44.3581317" lon="11.1267617"><ele>556.0</ele><time>2026-03-22T10:48:45.997Z</time></trkpt><trkpt lat="44.3580167" lon="11.12673"><ele>556.0</ele><time>2026-03-22T10:48:46.992Z</time></trkpt><trkpt lat="44.3578967" lon="11.1267067"><ele>555.0</ele><time>2026-03-22T10:48:47.99Z</time></trkpt><trkpt lat="44.35778" lon="11.1266883"><ele>554.0</ele><time>2026-03-22T10:48:48.996Z</time></trkpt><trkpt lat="44.357665" lon="11.1266817"><ele>553.0</ele><time>2026-03-22T10:48:49.99Z</time></trkpt><trkpt lat="44.357555" lon="11.1266733"><ele>552.0</ele><time>2026-03-22T10:48:50.993Z</time></trkpt><trkpt lat="44.3574517" lon="11.1266583"><ele>551.0</ele><time>2026-03-22T10:48:51.992Z</time></trkpt><trkpt lat="44.3573567" lon="11.1266217"><ele>551.0</ele><time>2026-03-22T10:48:52.992Z</time></trkpt><trkpt lat="44.3572667" lon="11.1265633"><ele>551.0</ele><time>2026-03-22T10:48:53.995Z</time></trkpt><trkpt lat="44.3571833" lon="11.126485"><ele>551.0</ele><time>2026-03-22T10:48:54.987Z</time></trkpt><trkpt lat="44.35712" lon="11.1263933"><ele>551.0</ele><time>2026-03-22T10:48:55.992Z</time></trkpt><trkpt lat="44.3570733" lon="11.1263033"><ele>551.0</ele><time>2026-03-22T10:48:56.989Z</time></trkpt><trkpt lat="44.3570367" lon="11.1262033"><ele>551.2</ele><time>2026-03-22T10:48:57.994Z</time></trkpt><trkpt lat="44.357015" lon="11.1260867"><ele>551.4000000000001</ele><time>2026-03-22T10:48:58.993Z</time></trkpt><trkpt lat="44.35701" lon="11.12595"><ele>551.6</ele><time>2026-03-22T10:48:59.997Z</time></trkpt><trkpt lat="44.357015" lon="11.1258033"><ele>551.8000000000001</ele><time>2026-03-22T10:49:00.994Z</time></trkpt><trkpt lat="44.3570217" lon="11.12565"><ele>552.0</ele><time>2026-03-22T10:49:01.995Z</time></trkpt><trkpt lat="44.3570267" lon="11.125495"><ele>552.0</ele><time>2026-03-22T10:49:02.991Z</time></trkpt><trkpt lat="44.3570233" lon="11.1253467"><ele>552.0</ele><time>2026-03-22T10:49:03.994Z</time></trkpt><trkpt lat="44.3570017" lon="11.1252067"><ele>552.0</ele><time>2026-03-22T10:49:04.995Z</time></trkpt><trkpt lat="44.356965" lon="11.12508"><ele>552.0</ele><time>2026-03-22T10:49:05.99Z</time></trkpt><trkpt lat="44.35691" lon="11.1249667"><ele>552.0</ele><time>2026-03-22T10:49:06.991Z</time></trkpt><trkpt lat="44.356855" lon="11.1248633"><ele>553.2</ele><time>2026-03-22T10:49:07.996Z</time></trkpt><trkpt lat="44.3568083" lon="11.1247483"><ele>554.4000000000001</ele><time>2026-03-22T10:49:08.99Z</time></trkpt><trkpt lat="44.3567683" lon="11.124625"><ele>555.5999999999999</ele><time>2026-03-22T10:49:09.991Z</time></trkpt><trkpt lat="44.3567283" lon="11.1245033"><ele>556.8</ele><time>2026-03-22T10:49:10.992Z</time></trkpt><trkpt lat="44.3566917" lon="11.1243867"><ele>558.0</ele><time>2026-03-22T10:49:11.991Z</time></trkpt><trkpt lat="44.3566517" lon="11.1242783"><ele>558.0</ele><time>2026-03-22T10:49:12.99Z</time></trkpt><trkpt lat="44.3566067" lon="11.1241817"><ele>558.0</ele><time>2026-03-22T10:49:13.991Z</time></trkpt><trkpt lat="44.3565483" lon="11.1241017"><ele>558.0</ele><time>2026-03-22T10:49:14.997Z</time></trkpt><trkpt lat="44.35648" lon="11.1240467"><ele>558.0</ele><time>2026-03-22T10:49:15.993Z</time></trkpt><trkpt lat="44.3564117" lon="11.12401"><ele>558.0</ele><time>2026-03-22T10:49:16.995Z</time></trkpt><trkpt lat="44.3563383" lon="11.1239933"><ele>558.0</ele><time>2026-03-22T10:49:17.995Z</time></trkpt><trkpt lat="44.3562583" lon="11.1239983"><ele>556.4285714285713</ele><time>2026-03-22T10:49:18.995Z</time></trkpt><trkpt lat="44.3561783" lon="11.124"><ele>554.8571428571429</ele><time>2026-03-22T10:49:19.997Z</time></trkpt><trkpt lat="44.3561017" lon="11.1239933"><ele>553.2857142857142</ele><time>2026-03-22T10:49:20.996Z</time></trkpt><trkpt lat="44.356035" lon="11.123965"><ele>551.7142857142857</ele><time>2026-03-22T10:49:21.996Z</time></trkpt><trkpt lat="44.3559783" lon="11.1239183"><ele>550.1428571428571</ele><time>2026-03-22T10:49:22.993Z</time></trkpt><trkpt lat="44.3559417" lon="11.1238417"><ele>548.5714285714286</ele><time>2026-03-22T10:49:23.995Z</time></trkpt><trkpt lat="44.3559233" lon="11.1237417"><ele>547.0</ele><time>2026-03-22T10:49:24.992Z</time></trkpt><trkpt lat="44.355915" lon="11.12362"><ele>547.0</ele><time>2026-03-22T10:49:25.988Z</time></trkpt><trkpt lat="44.3559183" lon="11.1234833"><ele>547.0</ele><time>2026-03-22T10:49:26.998Z</time></trkpt><trkpt lat="44.3559183" lon="11.1233483"><ele>547.0</ele><time>2026-03-22T10:49:27.991Z</time></trkpt><trkpt lat="44.3559183" lon="11.1232183"><ele>547.0</ele><time>2026-03-22T10:49:28.996Z</time></trkpt><trkpt lat="44.35592" lon="11.1230933"><ele>547.0</ele><time>2026-03-22T10:49:29.998Z</time></trkpt><trkpt lat="44.3559183" lon="11.122965"><ele>547.0</ele><time>2026-03-22T10:49:30.996Z</time></trkpt><trkpt lat="44.355905" lon="11.1228417"><ele>547.0</ele><time>2026-03-22T10:49:31.992Z</time></trkpt><trkpt lat="44.3558833" lon="11.1227267"><ele>547.0</ele><time>2026-03-22T10:49:32.993Z</time></trkpt><trkpt lat="44.3558467" lon="11.1226167"><ele>547.0</ele><time>2026-03-22T10:49:33.992Z</time></trkpt><trkpt lat="44.3557833" lon="11.1225167"><ele>547.0</ele><time>2026-03-22T10:49:34.991Z</time></trkpt><trkpt lat="44.3557" lon="11.122435"><ele>547.2</ele><time>2026-03-22T10:49:35.993Z</time></trkpt><trkpt lat="44.3556117" lon="11.1223667"><ele>547.4000000000001</ele><time>2026-03-22T10:49:37Z</time></trkpt><trkpt lat="44.355525" lon="11.1222983"><ele>547.5999999999999</ele><time>2026-03-22T10:49:37.994Z</time></trkpt><trkpt lat="44.35544" lon="11.1222367"><ele>547.8</ele><time>2026-03-22T10:49:39.004Z</time></trkpt><trkpt lat="44.3553517" lon="11.122175"><ele>548.0</ele><time>2026-03-22T10:49:39.999Z</time></trkpt><trkpt lat="44.35526" lon="11.1221233"><ele>548.0</ele><time>2026-03-22T10:49:40.995Z</time></trkpt><trkpt lat="44.3551683" lon="11.1220867"><ele>548.0</ele><time>2026-03-22T10:49:41.991Z</time></trkpt><trkpt lat="44.355075" lon="11.1220517"><ele>548.0</ele><time>2026-03-22T10:49:42.996Z</time></trkpt><trkpt lat="44.3549817" lon="11.122025"><ele>548.0</ele><time>2026-03-22T10:49:43.99Z</time></trkpt><trkpt lat="44.3548933" lon="11.1220067"><ele>548.0</ele><time>2026-03-22T10:49:44.995Z</time></trkpt><trkpt lat="44.354805" lon="11.1219983"><ele>548.0</ele><time>2026-03-22T10:49:45.991Z</time></trkpt><trkpt lat="44.3547183" lon="11.1220017"><ele>548.0</ele><time>2026-03-22T10:49:46.991Z</time></trkpt><trkpt lat="44.3546267" lon="11.1220133"><ele>548.0</ele><time>2026-03-22T10:49:47.992Z</time></trkpt><trkpt lat="44.3545283" lon="11.1220283"><ele>548.0</ele><time>2026-03-22T10:49:48.99Z</time></trkpt><trkpt lat="44.3544217" lon="11.12205"><ele>548.0</ele><time>2026-03-22T10:49:49.991Z</time></trkpt><trkpt lat="44.3543083" lon="11.12208"><ele>549.0</ele><time>2026-03-22T10:49:50.991Z</time></trkpt><trkpt lat="44.35419" lon="11.1221217"><ele>550.0</ele><time>2026-03-22T10:49:51.993Z</time></trkpt><trkpt lat="44.3540717" lon="11.1221583"><ele>551.0</ele><time>2026-03-22T10:49:52.988Z</time></trkpt><trkpt lat="44.3539517" lon="11.1221967"><ele>552.0</ele><time>2026-03-22T10:49:53.99Z</time></trkpt><trkpt lat="44.35383" lon="11.122225"><ele>555.5</ele><time>2026-03-22T10:49:54.991Z</time></trkpt><trkpt lat="44.3537083" lon="11.1222467"><ele>559.0</ele><time>2026-03-22T10:49:55.989Z</time></trkpt><trkpt lat="44.3535867" lon="11.122265"><ele>562.5</ele><time>2026-03-22T10:49:56.991Z</time></trkpt><trkpt lat="44.353465" lon="11.1222733"><ele>566.0</ele><time>2026-03-22T10:49:57.993Z</time></trkpt><trkpt lat="44.3533383" lon="11.1222883"><ele>566.0</ele><time>2026-03-22T10:49:58.991Z</time></trkpt><trkpt lat="44.35321" lon="11.1223133"><ele>566.0</ele><time>2026-03-22T10:49:59.992Z</time></trkpt><trkpt lat="44.3530883" lon="11.122345"><ele>566.0</ele><time>2026-03-22T10:50:00.989Z</time></trkpt><trkpt lat="44.3529733" lon="11.1223817"><ele>566.0</ele><time>2026-03-22T10:50:01.99Z</time></trkpt><trkpt lat="44.3528617" lon="11.122405"><ele>565.1666666666666</ele><time>2026-03-22T10:50:02.99Z</time></trkpt><trkpt lat="44.3527533" lon="11.1224283"><ele>564.3333333333333</ele><time>2026-03-22T10:50:03.991Z</time></trkpt><trkpt lat="44.3526617" lon="11.1224467"><ele>563.5</ele><time>2026-03-22T10:50:04.991Z</time></trkpt><trkpt lat="44.3525783" lon="11.12244"><ele>562.6666666666666</ele><time>2026-03-22T10:50:05.995Z</time></trkpt><trkpt lat="44.3525083" lon="11.122415"><ele>561.8333333333334</ele><time>2026-03-22T10:50:06.992Z</time></trkpt><trkpt lat="44.3524433" lon="11.1223717"><ele>561.0</ele><time>2026-03-22T10:50:07.995Z</time></trkpt><trkpt lat="44.352375" lon="11.12231"><ele>561.4</ele><time>2026-03-22T10:50:08.994Z</time></trkpt><trkpt lat="44.352305" lon="11.122235"><ele>561.8</ele><time>2026-03-22T10:50:09.992Z</time></trkpt><trkpt lat="44.3522367" lon="11.12215"><ele>562.1999999999999</ele><time>2026-03-22T10:50:10.995Z</time></trkpt><trkpt lat="44.3521617" lon="11.1220717"><ele>562.6</ele><time>2026-03-22T10:50:11.991Z</time></trkpt><trkpt lat="44.3520833" lon="11.121995"><ele>563.0</ele><time>2026-03-22T10:50:12.995Z</time></trkpt><trkpt lat="44.3519983" lon="11.12192"><ele>563.0</ele><time>2026-03-22T10:50:13.992Z</time></trkpt><trkpt lat="44.35191" lon="11.1218483"><ele>563.0</ele><time>2026-03-22T10:50:14.991Z</time></trkpt><trkpt lat="44.3518267" lon="11.1217867"><ele>563.0</ele><time>2026-03-22T10:50:15.992Z</time></trkpt><trkpt lat="44.3517467" lon="11.1217267"><ele>563.0</ele><time>2026-03-22T10:50:16.99Z</time></trkpt><trkpt lat="44.351675" lon="11.1216633"><ele>563.0</ele><time>2026-03-22T10:50:17.99Z</time></trkpt><trkpt lat="44.3516067" lon="11.1215917"><ele>565.0</ele><time>2026-03-22T10:50:18.988Z</time></trkpt><trkpt lat="44.3515433" lon="11.121505"><ele>567.0</ele><time>2026-03-22T10:50:19.988Z</time></trkpt><trkpt lat="44.3514867" lon="11.1214067"><ele>569.0</ele><time>2026-03-22T10:50:20.99Z</time></trkpt><trkpt lat="44.35144" lon="11.1212967"><ele>571.0</ele><time>2026-03-22T10:50:21.991Z</time></trkpt><trkpt lat="44.351405" lon="11.1211767"><ele>573.0</ele><time>2026-03-22T10:50:22.992Z</time></trkpt><trkpt lat="44.3513733" lon="11.1210567"><ele>570.1666666666666</ele><time>2026-03-22T10:50:23.999Z</time></trkpt><trkpt lat="44.35134" lon="11.1209383"><ele>567.3333333333334</ele><time>2026-03-22T10:50:24.989Z</time></trkpt><trkpt lat="44.3513067" lon="11.1208217"><ele>564.5</ele><time>2026-03-22T10:50:25.996Z</time></trkpt><trkpt lat="44.3512717" lon="11.12071"><ele>561.6666666666667</ele><time>2026-03-22T10:50:26.991Z</time></trkpt><trkpt lat="44.35124" lon="11.120605"><ele>558.8333333333334</ele><time>2026-03-22T10:50:27.99Z</time></trkpt><trkpt lat="44.3512133" lon="11.1204933"><ele>556.0</ele><time>2026-03-22T10:50:28.991Z</time></trkpt><trkpt lat="44.351185" lon="11.1203817"><ele>556.0</ele><time>2026-03-22T10:50:29.987Z</time></trkpt><trkpt lat="44.3511567" lon="11.1202683"><ele>556.0</ele><time>2026-03-22T10:50:30.992Z</time></trkpt><trkpt lat="44.351125" lon="11.12016"><ele>556.0</ele><time>2026-03-22T10:50:31.994Z</time></trkpt><trkpt lat="44.3510867" lon="11.1200417"><ele>556.0</ele><time>2026-03-22T10:50:32.991Z</time></trkpt><trkpt lat="44.35105" lon="11.11992"><ele>556.0</ele><time>2026-03-22T10:50:33.989Z</time></trkpt><trkpt lat="44.3510167" lon="11.1197983"><ele>556.8</ele><time>2026-03-22T10:50:34.992Z</time></trkpt><trkpt lat="44.35099" lon="11.119675"><ele>557.6</ele><time>2026-03-22T10:50:35.991Z</time></trkpt><trkpt lat="44.350965" lon="11.1195633"><ele>558.4</ele><time>2026-03-22T10:50:36.988Z</time></trkpt><trkpt lat="44.3509317" lon="11.11945"><ele>559.2</ele><time>2026-03-22T10:50:37.989Z</time></trkpt><trkpt lat="44.3509" lon="11.11932"><ele>560.0</ele><time>2026-03-22T10:50:38.991Z</time></trkpt><trkpt lat="44.3508683" lon="11.11919"><ele>559.6666666666666</ele><time>2026-03-22T10:50:39.991Z</time></trkpt><trkpt lat="44.3508417" lon="11.1190617"><ele>559.3333333333333</ele><time>2026-03-22T10:50:40.992Z</time></trkpt><trkpt lat="44.350815" lon="11.1189467"><ele>559.0</ele><time>2026-03-22T10:50:41.99Z</time></trkpt><trkpt lat="44.3507917" lon="11.118845"><ele>558.6666666666666</ele><time>2026-03-22T10:50:42.99Z</time></trkpt><trkpt lat="44.3507683" lon="11.11874"><ele>558.3333333333334</ele><time>2026-03-22T10:50:43.991Z</time></trkpt><trkpt lat="44.3507417" lon="11.1186317"><ele>558.0</ele><time>2026-03-22T10:50:44.992Z</time></trkpt><trkpt lat="44.3507133" lon="11.1185317"><ele>557.9999999999999</ele><time>2026-03-22T10:50:45.998Z</time></trkpt><trkpt lat="44.3506867" lon="11.1184383"><ele>558.0</ele><time>2026-03-22T10:50:46.988Z</time></trkpt><trkpt lat="44.3506617" lon="11.1183467"><ele>558.0</ele><time>2026-03-22T10:50:47.992Z</time></trkpt><trkpt lat="44.350635" lon="11.1182483"><ele>558.0</ele><time>2026-03-22T10:50:48.989Z</time></trkpt><trkpt lat="44.35061" lon="11.1181517"><ele>558.0</ele><time>2026-03-22T10:50:49.989Z</time></trkpt><trkpt lat="44.350585" lon="11.118055"><ele>557.9999999999999</ele><time>2026-03-22T10:50:50.99Z</time></trkpt><trkpt lat="44.350565" lon="11.1179583"><ele>558.0</ele><time>2026-03-22T10:50:52Z</time></trkpt><trkpt lat="44.3505533" lon="11.117855"><ele>558.3333333333334</ele><time>2026-03-22T10:50:52.991Z</time></trkpt><trkpt lat="44.35055" lon="11.1177483"><ele>558.6666666666666</ele><time>2026-03-22T10:50:53.991Z</time></trkpt><trkpt lat="44.35056" lon="11.1176467"><ele>559.0</ele><time>2026-03-22T10:50:54.991Z</time></trkpt><trkpt lat="44.3505783" lon="11.11754"><ele>559.3333333333333</ele><time>2026-03-22T10:50:55.993Z</time></trkpt><trkpt lat="44.350595" lon="11.117435"><ele>559.6666666666666</ele><time>2026-03-22T10:50:56.993Z</time></trkpt><trkpt lat="44.3506017" lon="11.1173317"><ele>560.0</ele><time>2026-03-22T10:50:57.988Z</time></trkpt><trkpt lat="44.35059" lon="11.117225"><ele>561.0</ele><time>2026-03-22T10:50:58.992Z</time></trkpt><trkpt lat="44.3505633" lon="11.1171133"><ele>562.0</ele><time>2026-03-22T10:50:59.989Z</time></trkpt><trkpt lat="44.3505117" lon="11.1170217"><ele>563.0</ele><time>2026-03-22T10:51:00.992Z</time></trkpt><trkpt lat="44.35044" lon="11.1169433"><ele>564.0</ele><time>2026-03-22T10:51:01.99Z</time></trkpt><trkpt lat="44.3503867" lon="11.1168533"><ele>565.0</ele><time>2026-03-22T10:51:02.997Z</time></trkpt><trkpt lat="44.3503383" lon="11.11675"><ele>566.0</ele><time>2026-03-22T10:51:03.991Z</time></trkpt><trkpt lat="44.3502967" lon="11.1166433"><ele>561.6</ele><time>2026-03-22T10:51:04.988Z</time></trkpt><trkpt lat="44.3502533" lon="11.1165383"><ele>557.2</ele><time>2026-03-22T10:51:05.997Z</time></trkpt><trkpt lat="44.350205" lon="11.1164317"><ele>552.8</ele><time>2026-03-22T10:51:06.991Z</time></trkpt><trkpt lat="44.3501533" lon="11.116325"><ele>548.4</ele><time>2026-03-22T10:51:07.99Z</time></trkpt><trkpt lat="44.35011" lon="11.1162133"><ele>544.0</ele><time>2026-03-22T10:51:08.993Z</time></trkpt><trkpt lat="44.350075" lon="11.1160967"><ele>544.0</ele><time>2026-03-22T10:51:09.996Z</time></trkpt><trkpt lat="44.35005" lon="11.1159817"><ele>544.0</ele><time>2026-03-22T10:51:10.99Z</time></trkpt><trkpt lat="44.3500367" lon="11.1158567"><ele>544.0</ele><time>2026-03-22T10:51:11.997Z</time></trkpt><trkpt lat="44.3500417" lon="11.1157133"><ele>544.0</ele><time>2026-03-22T10:51:12.991Z</time></trkpt><trkpt lat="44.3500533" lon="11.11556"><ele>544.0</ele><time>2026-03-22T10:51:13.991Z</time></trkpt><trkpt lat="44.3500633" lon="11.1154083"><ele>542.75</ele><time>2026-03-22T10:51:14.992Z</time></trkpt><trkpt lat="44.3500683" lon="11.1152533"><ele>541.5</ele><time>2026-03-22T10:51:15.992Z</time></trkpt><trkpt lat="44.350065" lon="11.1150933"><ele>540.25</ele><time>2026-03-22T10:51:16.99Z</time></trkpt><trkpt lat="44.3500517" lon="11.114925"><ele>539.0</ele><time>2026-03-22T10:51:17.989Z</time></trkpt><trkpt lat="44.3500317" lon="11.1147617"><ele>538.4</ele><time>2026-03-22T10:51:18.99Z</time></trkpt><trkpt lat="44.3500033" lon="11.114605"><ele>537.8</ele><time>2026-03-22T10:51:19.994Z</time></trkpt><trkpt lat="44.3499767" lon="11.1144567"><ele>537.2</ele><time>2026-03-22T10:51:20.99Z</time></trkpt><trkpt lat="44.3499483" lon="11.1143183"><ele>536.6</ele><time>2026-03-22T10:51:21.992Z</time></trkpt><trkpt lat="44.3499267" lon="11.114185"><ele>536.0</ele><time>2026-03-22T10:51:22.989Z</time></trkpt><trkpt lat="44.34992" lon="11.1140517"><ele>534.2</ele><time>2026-03-22T10:51:23.99Z</time></trkpt><trkpt lat="44.34994" lon="11.1139167"><ele>532.4000000000001</ele><time>2026-03-22T10:51:24.996Z</time></trkpt><trkpt lat="44.3499733" lon="11.1137767"><ele>530.6</ele><time>2026-03-22T10:51:25.997Z</time></trkpt><trkpt lat="44.350015" lon="11.1136433"><ele>528.8000000000001</ele><time>2026-03-22T10:51:26.989Z</time></trkpt><trkpt lat="44.3500583" lon="11.1135183"><ele>527.0</ele><time>2026-03-22T10:51:27.993Z</time></trkpt><trkpt lat="44.350095" lon="11.1133983"><ele>527.0</ele><time>2026-03-22T10:51:28.988Z</time></trkpt><trkpt lat="44.350115" lon="11.113275"><ele>527.0</ele><time>2026-03-22T10:51:29.989Z</time></trkpt><trkpt lat="44.3501083" lon="11.1131533"><ele>527.0</ele><time>2026-03-22T10:51:30.992Z</time></trkpt><trkpt lat="44.35008" lon="11.1130267"><ele>527.0</ele><time>2026-03-22T10:51:31.989Z</time></trkpt><trkpt lat="44.3500233" lon="11.1129"><ele>527.0</ele><time>2026-03-22T10:51:32.995Z</time></trkpt><trkpt lat="44.34996" lon="11.1127917"><ele>526.5</ele><time>2026-03-22T10:51:33.992Z</time></trkpt><trkpt lat="44.3498983" lon="11.11269"><ele>526.0</ele><time>2026-03-22T10:51:34.988Z</time></trkpt><trkpt lat="44.34985" lon="11.1125883"><ele>525.5</ele><time>2026-03-22T10:51:35.99Z</time></trkpt><trkpt lat="44.3498217" lon="11.1124817"><ele>525.0</ele><time>2026-03-22T10:51:36.991Z</time></trkpt><trkpt lat="44.349815" lon="11.112375"><ele>524.5</ele><time>2026-03-22T10:51:37.99Z</time></trkpt><trkpt lat="44.3498233" lon="11.112265"><ele>524.0</ele><time>2026-03-22T10:51:38.994Z</time></trkpt><trkpt lat="44.3498233" lon="11.1121567"><ele>524.0</ele><time>2026-03-22T10:51:39.992Z</time></trkpt><trkpt lat="44.349805" lon="11.1120517"><ele>524.0</ele><time>2026-03-22T10:51:40.996Z</time></trkpt><trkpt lat="44.3497533" lon="11.1119817"><ele>524.0</ele><time>2026-03-22T10:51:41.997Z</time></trkpt><trkpt lat="44.3496883" lon="11.11192"><ele>524.0</ele><time>2026-03-22T10:51:42.99Z</time></trkpt><trkpt lat="44.3496017" lon="11.1118867"><ele>524.0</ele><time>2026-03-22T10:51:43.991Z</time></trkpt><trkpt lat="44.3494867" lon="11.1118767"><ele>524.0</ele><time>2026-03-22T10:51:44.994Z</time></trkpt><trkpt lat="44.349365" lon="11.111865"><ele>521.0</ele><time>2026-03-22T10:51:45.988Z</time></trkpt><trkpt lat="44.349235" lon="11.1118517"><ele>518.0</ele><time>2026-03-22T10:51:46.99Z</time></trkpt><trkpt lat="44.349105" lon="11.111835"><ele>515.0</ele><time>2026-03-22T10:51:47.99Z</time></trkpt><trkpt lat="44.348985" lon="11.111815"><ele>512.0</ele><time>2026-03-22T10:51:48.991Z</time></trkpt><trkpt lat="44.3488667" lon="11.1117967"><ele>510.6</ele><time>2026-03-22T10:51:49.992Z</time></trkpt><trkpt lat="44.3487483" lon="11.1117783"><ele>509.20000000000005</ele><time>2026-03-22T10:51:50.992Z</time></trkpt><trkpt lat="44.3486367" lon="11.11176"><ele>507.8</ele><time>2026-03-22T10:51:51.993Z</time></trkpt><trkpt lat="44.34853" lon="11.11176"><ele>506.4</ele><time>2026-03-22T10:51:52.989Z</time></trkpt><trkpt lat="44.3484283" lon="11.1117767"><ele>505.0</ele><time>2026-03-22T10:51:53.993Z</time></trkpt><trkpt lat="44.3483317" lon="11.1117983"><ele>505.00000000000006</ele><time>2026-03-22T10:51:54.997Z</time></trkpt><trkpt lat="44.3482417" lon="11.1118083"><ele>505.0</ele><time>2026-03-22T10:51:55.99Z</time></trkpt><trkpt lat="44.3481583" lon="11.111805"><ele>505.0</ele><time>2026-03-22T10:51:56.994Z</time></trkpt><trkpt lat="44.3480883" lon="11.1117717"><ele>505.0</ele><time>2026-03-22T10:51:57.993Z</time></trkpt><trkpt lat="44.348025" lon="11.1117217"><ele>505.00000000000006</ele><time>2026-03-22T10:51:58.994Z</time></trkpt><trkpt lat="44.3479733" lon="11.1116667"><ele>505.0</ele><time>2026-03-22T10:51:59.994Z</time></trkpt><trkpt lat="44.3478883" lon="11.111595"><ele>502.83333333333337</ele><time>2026-03-22T10:52:01.991Z</time></trkpt><trkpt lat="44.34782" lon="11.1116117"><ele>500.6666666666667</ele><time>2026-03-22T10:52:28.99Z</time></trkpt><trkpt lat="44.3478267" lon="11.1117383"><ele>498.5</ele><time>2026-03-22T10:52:31.988Z</time></trkpt><trkpt lat="44.3478417" lon="11.11183"><ele>496.33333333333337</ele><time>2026-03-22T10:52:32.99Z</time></trkpt><trkpt lat="44.3478533" lon="11.11193"><ele>494.1666666666667</ele><time>2026-03-22T10:52:33.988Z</time></trkpt><trkpt lat="44.34786" lon="11.1120417"><ele>492.0</ele><time>2026-03-22T10:52:34.99Z</time></trkpt><trkpt lat="44.3478517" lon="11.11217"><ele>492.0</ele><time>2026-03-22T10:52:35.988Z</time></trkpt><trkpt lat="44.3478367" lon="11.1123033"><ele>492.00000000000006</ele><time>2026-03-22T10:52:36.991Z</time></trkpt><trkpt lat="44.3478283" lon="11.1124383"><ele>492.00000000000006</ele><time>2026-03-22T10:52:37.993Z</time></trkpt><trkpt lat="44.3478383" lon="11.1125783"><ele>492.0</ele><time>2026-03-22T10:52:38.99Z</time></trkpt><trkpt lat="44.3478633" lon="11.1127233"><ele>492.0</ele><time>2026-03-22T10:52:39.991Z</time></trkpt><trkpt lat="44.347905" lon="11.11286"><ele>492.0</ele><time>2026-03-22T10:52:40.993Z</time></trkpt><trkpt lat="44.3479617" lon="11.11298"><ele>492.00000000000006</ele><time>2026-03-22T10:52:41.994Z</time></trkpt><trkpt lat="44.34803" lon="11.1130883"><ele>492.00000000000006</ele><time>2026-03-22T10:52:42.996Z</time></trkpt><trkpt lat="44.348085" lon="11.1132033"><ele>492.0</ele><time>2026-03-22T10:52:43.989Z</time></trkpt><trkpt lat="44.34813" lon="11.11333"><ele>492.0</ele><time>2026-03-22T10:52:44.992Z</time></trkpt><trkpt lat="44.3481517" lon="11.1134633"><ele>492.0</ele><time>2026-03-22T10:52:45.989Z</time></trkpt><trkpt lat="44.3481517" lon="11.1136167"><ele>492.0</ele><time>2026-03-22T10:52:46.994Z</time></trkpt><trkpt lat="44.3481333" lon="11.1137783"><ele>492.0</ele><time>2026-03-22T10:52:47.992Z</time></trkpt><trkpt lat="44.348105" lon="11.11394"><ele>492.0</ele><time>2026-03-22T10:52:48.997Z</time></trkpt><trkpt lat="44.34807" lon="11.114095"><ele>488.6</ele><time>2026-03-22T10:52:49.991Z</time></trkpt><trkpt lat="44.3480333" lon="11.1142467"><ele>485.20000000000005</ele><time>2026-03-22T10:52:50.995Z</time></trkpt><trkpt lat="44.3479967" lon="11.1143867"><ele>481.8</ele><time>2026-03-22T10:52:51.995Z</time></trkpt><trkpt lat="44.3479583" lon="11.1145133"><ele>478.4</ele><time>2026-03-22T10:52:52.991Z</time></trkpt><trkpt lat="44.3479117" lon="11.1146233"><ele>475.0</ele><time>2026-03-22T10:52:53.991Z</time></trkpt><trkpt lat="44.3478583" lon="11.114715"><ele>475.00000000000006</ele><time>2026-03-22T10:52:54.992Z</time></trkpt><trkpt lat="44.3477983" lon="11.1147933"><ele>475.0</ele><time>2026-03-22T10:52:55.997Z</time></trkpt><trkpt lat="44.3477317" lon="11.11485"><ele>475.0</ele><time>2026-03-22T10:52:56.993Z</time></trkpt><trkpt lat="44.3476583" lon="11.114885"><ele>475.0</ele><time>2026-03-22T10:52:57.995Z</time></trkpt><trkpt lat="44.3475783" lon="11.1149"><ele>475.00000000000006</ele><time>2026-03-22T10:52:58.993Z</time></trkpt><trkpt lat="44.347495" lon="11.1149117"><ele>475.0</ele><time>2026-03-22T10:52:59.998Z</time></trkpt><trkpt lat="44.3473983" lon="11.1149"><ele>475.0</ele><time>2026-03-22T10:53:00.994Z</time></trkpt><trkpt lat="44.347305" lon="11.11489"><ele>475.0</ele><time>2026-03-22T10:53:01.992Z</time></trkpt><trkpt lat="44.3472083" lon="11.114885"><ele>475.0</ele><time>2026-03-22T10:53:02.996Z</time></trkpt><trkpt lat="44.3471133" lon="11.1148983"><ele>475.0</ele><time>2026-03-22T10:53:03.99Z</time></trkpt><trkpt lat="44.3470267" lon="11.11494"><ele>475.0</ele><time>2026-03-22T10:53:04.992Z</time></trkpt><trkpt lat="44.346945" lon="11.1150017"><ele>473.0</ele><time>2026-03-22T10:53:05.99Z</time></trkpt><trkpt lat="44.3468817" lon="11.1150917"><ele>471.0</ele><time>2026-03-22T10:53:06.998Z</time></trkpt><trkpt lat="44.3468317" lon="11.1152017"><ele>469.0</ele><time>2026-03-22T10:53:07.991Z</time></trkpt><trkpt lat="44.34679" lon="11.1153283"><ele>467.0</ele><time>2026-03-22T10:53:08.992Z</time></trkpt><trkpt lat="44.34677" lon="11.1154733"><ele>465.0</ele><time>2026-03-22T10:53:09.994Z</time></trkpt><trkpt lat="44.3467633" lon="11.1156317"><ele>466.0</ele><time>2026-03-22T10:53:10.996Z</time></trkpt><trkpt lat="44.346755" lon="11.1158017"><ele>467.0</ele><time>2026-03-22T10:53:11.994Z</time></trkpt><trkpt lat="44.3467583" lon="11.11598"><ele>468.0</ele><time>2026-03-22T10:53:12.989Z</time></trkpt><trkpt lat="44.3467633" lon="11.1161483"><ele>469.0</ele><time>2026-03-22T10:53:13.992Z</time></trkpt><trkpt lat="44.3467733" lon="11.1163067"><ele>469.0</ele><time>2026-03-22T10:53:14.994Z</time></trkpt><trkpt lat="44.3467967" lon="11.1164483"><ele>469.0</ele><time>2026-03-22T10:53:16.001Z</time></trkpt><trkpt lat="44.3468467" lon="11.1165717"><ele>469.0</ele><time>2026-03-22T10:53:16.991Z</time></trkpt><trkpt lat="44.3469083" lon="11.1166767"><ele>469.0</ele><time>2026-03-22T10:53:17.993Z</time></trkpt><trkpt lat="44.3469733" lon="11.1167617"><ele>469.0</ele><time>2026-03-22T10:53:18.997Z</time></trkpt><trkpt lat="44.347035" lon="11.116845"><ele>467.4</ele><time>2026-03-22T10:53:19.993Z</time></trkpt><trkpt lat="44.347075" lon="11.11694"><ele>465.79999999999995</ele><time>2026-03-22T10:53:20.989Z</time></trkpt><trkpt lat="44.3470633" lon="11.1170683"><ele>464.20000000000005</ele><time>2026-03-22T10:53:21.993Z</time></trkpt><trkpt lat="44.3470383" lon="11.1171983"><ele>462.6</ele><time>2026-03-22T10:53:22.995Z</time></trkpt><trkpt lat="44.3470117" lon="11.117335"><ele>461.0</ele><time>2026-03-22T10:53:23.992Z</time></trkpt><trkpt lat="44.3469867" lon="11.1174683"><ele>460.16666666666663</ele><time>2026-03-22T10:53:24.991Z</time></trkpt><trkpt lat="44.3469567" lon="11.1175833"><ele>459.3333333333333</ele><time>2026-03-22T10:53:25.996Z</time></trkpt><trkpt lat="44.3469067" lon="11.1176867"><ele>458.5</ele><time>2026-03-22T10:53:26.992Z</time></trkpt><trkpt lat="44.346845" lon="11.1177567"><ele>457.66666666666663</ele><time>2026-03-22T10:53:27.989Z</time></trkpt><trkpt lat="44.3467667" lon="11.1177633"><ele>456.8333333333333</ele><time>2026-03-22T10:53:28.988Z</time></trkpt><trkpt lat="44.3467" lon="11.117725"><ele>456.0</ele><time>2026-03-22T10:53:29.991Z</time></trkpt><trkpt lat="44.3466433" lon="11.117655"><ele>456.0</ele><time>2026-03-22T10:53:30.988Z</time></trkpt><trkpt lat="44.3466083" lon="11.1175517"><ele>456.0</ele><time>2026-03-22T10:53:31.989Z</time></trkpt><trkpt lat="44.3466117" lon="11.1174267"><ele>456.0</ele><time>2026-03-22T10:53:32.99Z</time></trkpt><trkpt lat="44.3466333" lon="11.117315"><ele>456.0</ele><time>2026-03-22T10:53:33.991Z</time></trkpt><trkpt lat="44.3466717" lon="11.1171783"><ele>456.0</ele><time>2026-03-22T10:53:34.991Z</time></trkpt><trkpt lat="44.3466867" lon="11.1170467"><ele>457.0</ele><time>2026-03-22T10:53:35.992Z</time></trkpt><trkpt lat="44.3466817" lon="11.1169117"><ele>458.0</ele><time>2026-03-22T10:53:36.997Z</time></trkpt><trkpt lat="44.34665" lon="11.1167867"><ele>459.0</ele><time>2026-03-22T10:53:37.993Z</time></trkpt><trkpt lat="44.3465767" lon="11.11669"><ele>460.0</ele><time>2026-03-22T10:53:38.993Z</time></trkpt><trkpt lat="44.34649" lon="11.11661"><ele>461.0</ele><time>2026-03-22T10:53:39.991Z</time></trkpt><trkpt lat="44.3464033" lon="11.11654"><ele>457.4</ele><time>2026-03-22T10:53:40.989Z</time></trkpt><trkpt lat="44.346325" lon="11.116455"><ele>453.8</ele><time>2026-03-22T10:53:41.99Z</time></trkpt><trkpt lat="44.3462583" lon="11.1163517"><ele>450.19999999999993</ele><time>2026-03-22T10:53:42.995Z</time></trkpt><trkpt lat="44.3462033" lon="11.1162283"><ele>446.59999999999997</ele><time>2026-03-22T10:53:43.994Z</time></trkpt><trkpt lat="44.346155" lon="11.116095"><ele>443.0</ele><time>2026-03-22T10:53:44.989Z</time></trkpt><trkpt lat="44.3461067" lon="11.1159683"><ele>443.0</ele><time>2026-03-22T10:53:45.99Z</time></trkpt><trkpt lat="44.346055" lon="11.11585"><ele>442.99999999999994</ele><time>2026-03-22T10:53:46.992Z</time></trkpt><trkpt lat="44.3460017" lon="11.1157417"><ele>442.99999999999994</ele><time>2026-03-22T10:53:47.996Z</time></trkpt><trkpt lat="44.3459483" lon="11.115635"><ele>443.0</ele><time>2026-03-22T10:53:48.992Z</time></trkpt><trkpt lat="44.3459117" lon="11.1155167"><ele>443.0</ele><time>2026-03-22T10:53:49.991Z</time></trkpt><trkpt lat="44.3458917" lon="11.1153833"><ele>443.59999999999997</ele><time>2026-03-22T10:53:50.993Z</time></trkpt><trkpt lat="44.345885" lon="11.1152533"><ele>444.19999999999993</ele><time>2026-03-22T10:53:51.992Z</time></trkpt><trkpt lat="44.34587" lon="11.115125"><ele>444.8</ele><time>2026-03-22T10:53:52.994Z</time></trkpt><trkpt lat="44.34583" lon="11.1150117"><ele>445.4</ele><time>2026-03-22T10:53:53.994Z</time></trkpt><trkpt lat="44.345765" lon="11.1149183"><ele>446.0</ele><time>2026-03-22T10:53:54.995Z</time></trkpt><trkpt lat="44.345675" lon="11.114845"><ele>446.6</ele><time>2026-03-22T10:53:55.992Z</time></trkpt><trkpt lat="44.3455683" lon="11.114805"><ele>447.20000000000005</ele><time>2026-03-22T10:53:56.994Z</time></trkpt><trkpt lat="44.3454583" lon="11.114785"><ele>447.79999999999995</ele><time>2026-03-22T10:53:57.992Z</time></trkpt><trkpt lat="44.345355" lon="11.11478"><ele>448.4</ele><time>2026-03-22T10:53:58.989Z</time></trkpt><trkpt lat="44.3452567" lon="11.1147867"><ele>449.0</ele><time>2026-03-22T10:53:59.993Z</time></trkpt><trkpt lat="44.3451633" lon="11.114785"><ele>446.79999999999995</ele><time>2026-03-22T10:54:00.992Z</time></trkpt><trkpt lat="44.3450733" lon="11.1147783"><ele>444.59999999999997</ele><time>2026-03-22T10:54:01.992Z</time></trkpt><trkpt lat="44.34499" lon="11.11477"><ele>442.4</ele><time>2026-03-22T10:54:02.991Z</time></trkpt><trkpt lat="44.3449033" lon="11.114745"><ele>440.2</ele><time>2026-03-22T10:54:03.989Z</time></trkpt><trkpt lat="44.3448083" lon="11.1147083"><ele>438.0</ele><time>2026-03-22T10:54:04.99Z</time></trkpt><trkpt lat="44.3447117" lon="11.1146433"><ele>435.59999999999997</ele><time>2026-03-22T10:54:05.995Z</time></trkpt><trkpt lat="44.344625" lon="11.1145483"><ele>433.19999999999993</ele><time>2026-03-22T10:54:06.988Z</time></trkpt><trkpt lat="44.3445533" lon="11.1144283"><ele>430.8</ele><time>2026-03-22T10:54:07.992Z</time></trkpt><trkpt lat="44.3445017" lon="11.1143"><ele>428.4</ele><time>2026-03-22T10:54:08.99Z</time></trkpt><trkpt lat="44.3444867" lon="11.1141533"><ele>426.0</ele><time>2026-03-22T10:54:09.993Z</time></trkpt><trkpt lat="44.3445" lon="11.114005"><ele>425.20000000000005</ele><time>2026-03-22T10:54:10.99Z</time></trkpt><trkpt lat="44.3445467" lon="11.1138617"><ele>424.40000000000003</ele><time>2026-03-22T10:54:11.991Z</time></trkpt><trkpt lat="44.3446083" lon="11.11374"><ele>423.6</ele><time>2026-03-22T10:54:12.993Z</time></trkpt><trkpt lat="44.3446633" lon="11.1136383"><ele>422.8</ele><time>2026-03-22T10:54:13.991Z</time></trkpt><trkpt lat="44.3447017" lon="11.1135383"><ele>422.0</ele><time>2026-03-22T10:54:14.993Z</time></trkpt><trkpt lat="44.3447" lon="11.1134283"><ele>422.0</ele><time>2026-03-22T10:54:15.996Z</time></trkpt><trkpt lat="44.344675" lon="11.1133233"><ele>422.0</ele><time>2026-03-22T10:54:16.992Z</time></trkpt><trkpt lat="44.3446233" lon="11.1132333"><ele>422.0</ele><time>2026-03-22T10:54:17.992Z</time></trkpt><trkpt lat="44.3445467" lon="11.11315"><ele>422.0</ele><time>2026-03-22T10:54:18.999Z</time></trkpt><trkpt lat="44.344455" lon="11.11308"><ele>422.0</ele><time>2026-03-22T10:54:19.992Z</time></trkpt><trkpt lat="44.3443633" lon="11.1130083"><ele>422.0</ele><time>2026-03-22T10:54:20.991Z</time></trkpt><trkpt lat="44.3442733" lon="11.112945"><ele>422.0</ele><time>2026-03-22T10:54:21.991Z</time></trkpt><trkpt lat="44.3441833" lon="11.1128883"><ele>422.0</ele><time>2026-03-22T10:54:22.989Z</time></trkpt><trkpt lat="44.3440983" lon="11.1128283"><ele>422.0</ele><time>2026-03-22T10:54:23.988Z</time></trkpt><trkpt lat="44.3440183" lon="11.1127733"><ele>422.0</ele><time>2026-03-22T10:54:24.993Z</time></trkpt><trkpt lat="44.3439383" lon="11.11273"><ele>422.16666666666663</ele><time>2026-03-22T10:54:25.99Z</time></trkpt><trkpt lat="44.3438617" lon="11.1127083"><ele>422.3333333333333</ele><time>2026-03-22T10:54:26.988Z</time></trkpt><trkpt lat="44.3437867" lon="11.1127117"><ele>422.5</ele><time>2026-03-22T10:54:27.992Z</time></trkpt><trkpt lat="44.34371" lon="11.11273"><ele>422.66666666666663</ele><time>2026-03-22T10:54:28.991Z</time></trkpt><trkpt lat="44.3436333" lon="11.1127667"><ele>422.8333333333333</ele><time>2026-03-22T10:54:29.993Z</time></trkpt><trkpt lat="44.343575" lon="11.1128733"><ele>423.0</ele><time>2026-03-22T10:54:30.991Z</time></trkpt><trkpt lat="44.3435233" lon="11.112965"><ele>423.0</ele><time>2026-03-22T10:54:31.995Z</time></trkpt><trkpt lat="44.34347" lon="11.11304"><ele>423.0</ele><time>2026-03-22T10:54:32.998Z</time></trkpt><trkpt lat="44.3434117" lon="11.1130883"><ele>423.0</ele><time>2026-03-22T10:54:33.993Z</time></trkpt><trkpt lat="44.3433467" lon="11.1131133"><ele>423.0</ele><time>2026-03-22T10:54:34.988Z</time></trkpt><trkpt lat="44.3432733" lon="11.11311"><ele>423.0</ele><time>2026-03-22T10:54:35.992Z</time></trkpt><trkpt lat="44.3431917" lon="11.11308"><ele>423.0</ele><time>2026-03-22T10:54:36.993Z</time></trkpt><trkpt lat="44.3430983" lon="11.11303"><ele>424.79999999999995</ele><time>2026-03-22T10:54:37.989Z</time></trkpt><trkpt lat="44.3429983" lon="11.11299"><ele>426.6</ele><time>2026-03-22T10:54:38.993Z</time></trkpt><trkpt lat="44.3429017" lon="11.11295"><ele>428.40000000000003</ele><time>2026-03-22T10:54:39.99Z</time></trkpt><trkpt lat="44.3428067" lon="11.1129117"><ele>430.20000000000005</ele><time>2026-03-22T10:54:40.992Z</time></trkpt><trkpt lat="44.3427033" lon="11.112865"><ele>432.0</ele><time>2026-03-22T10:54:41.989Z</time></trkpt><trkpt lat="44.3426" lon="11.112815"><ele>432.0</ele><time>2026-03-22T10:54:42.993Z</time></trkpt><trkpt lat="44.3424983" lon="11.112765"><ele>432.00000000000006</ele><time>2026-03-22T10:54:43.992Z</time></trkpt><trkpt lat="44.3423967" lon="11.1127183"><ele>432.00000000000006</ele><time>2026-03-22T10:54:44.995Z</time></trkpt><trkpt lat="44.3422983" lon="11.112675"><ele>432.0</ele><time>2026-03-22T10:54:45.99Z</time></trkpt><trkpt lat="44.3422117" lon="11.1126417"><ele>432.0</ele><time>2026-03-22T10:54:46.992Z</time></trkpt><trkpt lat="44.3421383" lon="11.11262"><ele>434.8</ele><time>2026-03-22T10:54:47.992Z</time></trkpt><trkpt lat="44.34206" lon="11.1125183"><ele>437.6</ele><time>2026-03-22T10:54:49.989Z</time></trkpt><trkpt lat="44.3420867" lon="11.112325"><ele>440.40000000000003</ele><time>2026-03-22T10:54:51.99Z</time></trkpt><trkpt lat="44.3421117" lon="11.1122033"><ele>443.20000000000005</ele><time>2026-03-22T10:54:52.988Z</time></trkpt><trkpt lat="44.3421433" lon="11.112075"><ele>446.0</ele><time>2026-03-22T10:54:53.995Z</time></trkpt><trkpt lat="44.3421683" lon="11.11194"><ele>446.4</ele><time>2026-03-22T10:54:54.993Z</time></trkpt><trkpt lat="44.3422033" lon="11.1118"><ele>446.8</ele><time>2026-03-22T10:54:55.992Z</time></trkpt><trkpt lat="44.3422417" lon="11.1116517"><ele>447.19999999999993</ele><time>2026-03-22T10:54:56.991Z</time></trkpt><trkpt lat="44.3422833" lon="11.1115067"><ele>447.59999999999997</ele><time>2026-03-22T10:54:57.997Z</time></trkpt><trkpt lat="44.3423333" lon="11.1113717"><ele>448.0</ele><time>2026-03-22T10:54:58.99Z</time></trkpt><trkpt lat="44.342395" lon="11.11124"><ele>447.75</ele><time>2026-03-22T10:54:59.99Z</time></trkpt><trkpt lat="44.34246" lon="11.11111"><ele>447.5</ele><time>2026-03-22T10:55:00.992Z</time></trkpt><trkpt lat="44.3425233" lon="11.110975"><ele>447.25</ele><time>2026-03-22T10:55:01.988Z</time></trkpt><trkpt lat="44.34259" lon="11.1108417"><ele>447.0</ele><time>2026-03-22T10:55:02.99Z</time></trkpt><trkpt lat="44.342655" lon="11.1107017"><ele>447.0</ele><time>2026-03-22T10:55:03.989Z</time></trkpt><trkpt lat="44.3427133" lon="11.1105733"><ele>447.00000000000006</ele><time>2026-03-22T10:55:04.991Z</time></trkpt><trkpt lat="44.342765" lon="11.110455"><ele>447.00000000000006</ele><time>2026-03-22T10:55:05.993Z</time></trkpt><trkpt lat="44.3428167" lon="11.1103333"><ele>447.0</ele><time>2026-03-22T10:55:06.99Z</time></trkpt><trkpt lat="44.3428733" lon="11.11021"><ele>447.0</ele><time>2026-03-22T10:55:07.991Z</time></trkpt><trkpt lat="44.342935" lon="11.1100833"><ele>447.0</ele><time>2026-03-22T10:55:08.991Z</time></trkpt><trkpt lat="44.3429967" lon="11.1099483"><ele>447.0</ele><time>2026-03-22T10:55:09.99Z</time></trkpt><trkpt lat="44.3430533" lon="11.1097983"><ele>447.0</ele><time>2026-03-22T10:55:10.99Z</time></trkpt><trkpt lat="44.3430983" lon="11.1096433"><ele>447.0</ele><time>2026-03-22T10:55:11.993Z</time></trkpt><trkpt lat="44.3431333" lon="11.1094917"><ele>447.40000000000003</ele><time>2026-03-22T10:55:12.99Z</time></trkpt><trkpt lat="44.3431683" lon="11.1093567"><ele>447.80000000000007</ele><time>2026-03-22T10:55:13.992Z</time></trkpt><trkpt lat="44.3432067" lon="11.109235"><ele>448.2</ele><time>2026-03-22T10:55:14.993Z</time></trkpt><trkpt lat="44.3432667" lon="11.1091367"><ele>448.6</ele><time>2026-03-22T10:55:15.989Z</time></trkpt><trkpt lat="44.3433517" lon="11.1090617"><ele>449.0</ele><time>2026-03-22T10:55:16.99Z</time></trkpt><trkpt lat="44.3434467" lon="11.1090017"><ele>449.0</ele><time>2026-03-22T10:55:17.991Z</time></trkpt><trkpt lat="44.3435383" lon="11.1089433"><ele>449.0</ele><time>2026-03-22T10:55:18.988Z</time></trkpt><trkpt lat="44.3436267" lon="11.10888"><ele>449.0</ele><time>2026-03-22T10:55:19.991Z</time></trkpt><trkpt lat="44.3437017" lon="11.1088"><ele>449.0</ele><time>2026-03-22T10:55:20.989Z</time></trkpt><trkpt lat="44.3437717" lon="11.1087083"><ele>449.0</ele><time>2026-03-22T10:55:21.989Z</time></trkpt><trkpt lat="44.3438367" lon="11.10861"><ele>447.6</ele><time>2026-03-22T10:55:22.988Z</time></trkpt><trkpt lat="44.3438917" lon="11.1084967"><ele>446.2</ele><time>2026-03-22T10:55:23.993Z</time></trkpt><trkpt lat="44.3439317" lon="11.10838"><ele>444.80000000000007</ele><time>2026-03-22T10:55:24.993Z</time></trkpt><trkpt lat="44.3439567" lon="11.1082783"><ele>443.40000000000003</ele><time>2026-03-22T10:55:25.99Z</time></trkpt><trkpt lat="44.3439933" lon="11.1081417"><ele>442.0</ele><time>2026-03-22T10:55:27.988Z</time></trkpt><trkpt lat="44.34406" lon="11.10804"><ele>442.0</ele><time>2026-03-22T10:55:29.993Z</time></trkpt><trkpt lat="44.3441417" lon="11.1079167"><ele>442.00000000000006</ele><time>2026-03-22T10:55:31.988Z</time></trkpt><trkpt lat="44.3441783" lon="11.1078433"><ele>442.00000000000006</ele><time>2026-03-22T10:55:32.992Z</time></trkpt><trkpt lat="44.34421" lon="11.1077667"><ele>442.0</ele><time>2026-03-22T10:55:33.992Z</time></trkpt><trkpt lat="44.3442583" lon="11.1076233"><ele>442.0</ele><time>2026-03-22T10:55:35.99Z</time></trkpt><trkpt lat="44.344295" lon="11.10747"><ele>442.6</ele><time>2026-03-22T10:55:37.99Z</time></trkpt><trkpt lat="44.34432" lon="11.107305"><ele>443.20000000000005</ele><time>2026-03-22T10:55:39.991Z</time></trkpt><trkpt lat="44.344335" lon="11.1071483"><ele>443.8</ele><time>2026-03-22T10:55:41.993Z</time></trkpt><trkpt lat="44.3443533" lon="11.1070133"><ele>444.4</ele><time>2026-03-22T10:55:43.993Z</time></trkpt><trkpt lat="44.34441" lon="11.1068817"><ele>445.0</ele><time>2026-03-22T10:55:45.995Z</time></trkpt><trkpt lat="44.3444483" lon="11.1067167"><ele>445.4</ele><time>2026-03-22T10:55:47.992Z</time></trkpt><trkpt lat="44.3444633" lon="11.1065517"><ele>445.8</ele><time>2026-03-22T10:55:49.995Z</time></trkpt><trkpt lat="44.34446" lon="11.1063983"><ele>446.20000000000005</ele><time>2026-03-22T10:55:51.989Z</time></trkpt><trkpt lat="44.3444633" lon="11.1062817"><ele>446.6</ele><time>2026-03-22T10:55:53.99Z</time></trkpt><trkpt lat="44.3445467" lon="11.106315"><ele>447.0</ele><time>2026-03-22T10:55:56.995Z</time></trkpt><trkpt lat="44.3446317" lon="11.1064183"><ele>447.0</ele><time>2026-03-22T10:55:58.99Z</time></trkpt><trkpt lat="44.3447083" lon="11.1065167"><ele>447.00000000000006</ele><time>2026-03-22T10:56:00.987Z</time></trkpt><trkpt lat="44.3447567" lon="11.1066533"><ele>447.00000000000006</ele><time>2026-03-22T10:56:02.992Z</time></trkpt><trkpt lat="44.3448183" lon="11.1068017"><ele>447.0</ele><time>2026-03-22T10:56:04.992Z</time></trkpt><trkpt lat="44.3448633" lon="11.1068833"><ele>447.0</ele><time>2026-03-22T10:56:05.993Z</time></trkpt><trkpt lat="44.3449183" lon="11.106955"><ele>448.0</ele><time>2026-03-22T10:56:06.994Z</time></trkpt><trkpt lat="44.3449733" lon="11.1070217"><ele>449.0</ele><time>2026-03-22T10:56:07.989Z</time></trkpt><trkpt lat="44.3450267" lon="11.107085"><ele>450.0</ele><time>2026-03-22T10:56:08.992Z</time></trkpt><trkpt lat="44.345075" lon="11.1071417"><ele>451.0</ele><time>2026-03-22T10:56:09.994Z</time></trkpt><trkpt lat="44.3451783" lon="11.1072133"><ele>452.0</ele><time>2026-03-22T10:56:11.992Z</time></trkpt><trkpt lat="44.3452717" lon="11.1071883"><ele>453.0</ele><time>2026-03-22T10:56:13.992Z</time></trkpt><trkpt lat="44.3453317" lon="11.1070717"><ele>453.0</ele><time>2026-03-22T10:56:15.988Z</time></trkpt><trkpt lat="44.34537" lon="11.106945"><ele>452.99999999999994</ele><time>2026-03-22T10:56:17.991Z</time></trkpt><trkpt lat="44.3453983" lon="11.106795"><ele>452.99999999999994</ele><time>2026-03-22T10:56:19.991Z</time></trkpt><trkpt lat="44.3454617" lon="11.1066833"><ele>453.0</ele><time>2026-03-22T10:56:21.994Z</time></trkpt><trkpt lat="44.3455333" lon="11.1065883"><ele>453.0</ele><time>2026-03-22T10:56:23.988Z</time></trkpt><trkpt lat="44.345605" lon="11.10651"><ele>457.59999999999997</ele><time>2026-03-22T10:56:25.988Z</time></trkpt><trkpt lat="44.3456817" lon="11.1064117"><ele>462.19999999999993</ele><time>2026-03-22T10:56:27.99Z</time></trkpt><trkpt lat="44.3457317" lon="11.1063017"><ele>466.8</ele><time>2026-03-22T10:56:29.989Z</time></trkpt><trkpt lat="44.3457433" lon="11.1061833"><ele>471.4</ele><time>2026-03-22T10:56:31.99Z</time></trkpt><trkpt lat="44.3457317" lon="11.106065"><ele>476.0</ele><time>2026-03-22T10:56:33.987Z</time></trkpt><trkpt lat="44.3457" lon="11.10595"><ele>476.0</ele><time>2026-03-22T10:56:35.989Z</time></trkpt><trkpt lat="44.3456617" lon="11.10584"><ele>476.0</ele><time>2026-03-22T10:56:37.999Z</time></trkpt><trkpt lat="44.3456483" lon="11.105725"><ele>476.0</ele><time>2026-03-22T10:56:39.991Z</time></trkpt><trkpt lat="44.3457033" lon="11.1056167"><ele>476.0</ele><time>2026-03-22T10:56:41.992Z</time></trkpt><trkpt lat="44.3458167" lon="11.1055483"><ele>476.0</ele><time>2026-03-22T10:56:43.992Z</time></trkpt><trkpt lat="44.3458817" lon="11.1055333"><ele>475.99999999999994</ele><time>2026-03-22T10:56:44.99Z</time></trkpt><trkpt lat="44.3459967" lon="11.1055"><ele>476.0</ele><time>2026-03-22T10:56:46.993Z</time></trkpt><trkpt lat="44.346125" lon="11.1054767"><ele>476.0</ele><time>2026-03-22T10:56:48.991Z</time></trkpt><trkpt lat="44.3461933" lon="11.1054683"><ele>476.0</ele><time>2026-03-22T10:56:49.999Z</time></trkpt><trkpt lat="44.3462583" lon="11.1054567"><ele>475.99999999999994</ele><time>2026-03-22T10:56:50.993Z</time></trkpt><trkpt lat="44.3463217" lon="11.105445"><ele>476.0</ele><time>2026-03-22T10:56:51.991Z</time></trkpt><trkpt lat="44.3464433" lon="11.1054283"><ele>478.16666666666663</ele><time>2026-03-22T10:56:53.99Z</time></trkpt><trkpt lat="44.3465733" lon="11.105435"><ele>480.3333333333333</ele><time>2026-03-22T10:56:55.998Z</time></trkpt><trkpt lat="44.3466467" lon="11.10543"><ele>482.5</ele><time>2026-03-22T10:56:56.994Z</time></trkpt><trkpt lat="44.3467217" lon="11.105425"><ele>484.66666666666663</ele><time>2026-03-22T10:56:57.993Z</time></trkpt><trkpt lat="44.3467983" lon="11.1054133"><ele>486.8333333333333</ele><time>2026-03-22T10:56:58.993Z</time></trkpt><trkpt lat="44.3468783" lon="11.105395"><ele>489.0</ele><time>2026-03-22T10:56:59.987Z</time></trkpt><trkpt lat="44.3469517" lon="11.10537"><ele>489.0</ele><time>2026-03-22T10:57:00.992Z</time></trkpt><trkpt lat="44.3470283" lon="11.10534"><ele>489.0</ele><time>2026-03-22T10:57:01.994Z</time></trkpt><trkpt lat="44.3471067" lon="11.105295"><ele>489.0</ele><time>2026-03-22T10:57:03Z</time></trkpt><trkpt lat="44.3471883" lon="11.105235"><ele>489.0</ele><time>2026-03-22T10:57:03.988Z</time></trkpt><trkpt lat="44.347265" lon="11.10516"><ele>489.0</ele><time>2026-03-22T10:57:04.99Z</time></trkpt><trkpt lat="44.347345" lon="11.105085"><ele>489.0</ele><time>2026-03-22T10:57:05.989Z</time></trkpt><trkpt lat="44.3474233" lon="11.1050267"><ele>491.5</ele><time>2026-03-22T10:57:06.997Z</time></trkpt><trkpt lat="44.3475017" lon="11.1050017"><ele>494.0</ele><time>2026-03-22T10:57:07.991Z</time></trkpt><trkpt lat="44.347585" lon="11.105025"><ele>496.5</ele><time>2026-03-22T10:57:08.999Z</time></trkpt><trkpt lat="44.3476733" lon="11.105065"><ele>499.0</ele><time>2026-03-22T10:57:09.99Z</time></trkpt><trkpt lat="44.3477633" lon="11.1051033"><ele>501.5</ele><time>2026-03-22T10:57:10.99Z</time></trkpt><trkpt lat="44.347855" lon="11.1051267"><ele>504.0</ele><time>2026-03-22T10:57:11.989Z</time></trkpt><trkpt lat="44.34795" lon="11.1051367"><ele>506.6</ele><time>2026-03-22T10:57:12.991Z</time></trkpt><trkpt lat="44.3480467" lon="11.1051233"><ele>509.2</ele><time>2026-03-22T10:57:13.991Z</time></trkpt><trkpt lat="44.3481433" lon="11.1051"><ele>511.80000000000007</ele><time>2026-03-22T10:57:14.992Z</time></trkpt><trkpt lat="44.34824" lon="11.1050817"><ele>514.4</ele><time>2026-03-22T10:57:15.993Z</time></trkpt><trkpt lat="44.34834" lon="11.1050833"><ele>517.0</ele><time>2026-03-22T10:57:16.994Z</time></trkpt><trkpt lat="44.3484433" lon="11.1050983"><ele>517.0</ele><time>2026-03-22T10:57:17.995Z</time></trkpt><trkpt lat="44.3485467" lon="11.1051183"><ele>517.0</ele><time>2026-03-22T10:57:18.995Z</time></trkpt><trkpt lat="44.3486417" lon="11.1051317"><ele>517.0</ele><time>2026-03-22T10:57:19.99Z</time></trkpt><trkpt lat="44.3487267" lon="11.10514"><ele>517.0</ele><time>2026-03-22T10:57:20.994Z</time></trkpt><trkpt lat="44.3487983" lon="11.1051533"><ele>517.0</ele><time>2026-03-22T10:57:21.99Z</time></trkpt><trkpt lat="44.34889" lon="11.105205"><ele>517.0</ele><time>2026-03-22T10:57:23.99Z</time></trkpt><trkpt lat="44.3488923" lon="11.1052933"><ele>517.0</ele><time>2026-03-22T10:57:25.991Z</time></trkpt><trkpt lat="44.3488497" lon="11.1053936"><ele>517.0</ele><time>2026-03-22T10:57:27.989Z</time></trkpt><trkpt lat="44.3487775" lon="11.1055283"><ele>517.0</ele><time>2026-03-22T10:57:29.991Z</time></trkpt><trkpt lat="44.3487248" lon="11.1055947"><ele>517.0</ele><time>2026-03-22T10:57:30.99Z</time></trkpt><trkpt lat="44.3486723" lon="11.1056537"><ele>517.0</ele><time>2026-03-22T10:57:31.992Z</time></trkpt><trkpt lat="44.3485977" lon="11.1057631"><ele>517.6666666666667</ele><time>2026-03-22T10:57:33.987Z</time></trkpt><trkpt lat="44.3485894" lon="11.1058694"><ele>518.3333333333334</ele><time>2026-03-22T10:57:35.991Z</time></trkpt><trkpt lat="44.3486709" lon="11.1059335"><ele>519.0</ele><time>2026-03-22T10:57:37.991Z</time></trkpt><trkpt lat="44.3487467" lon="11.10595"><ele>519.6666666666666</ele><time>2026-03-22T10:57:38.987Z</time></trkpt><trkpt lat="44.3488133" lon="11.10598"><ele>520.3333333333333</ele><time>2026-03-22T10:57:39.989Z</time></trkpt><trkpt lat="44.3488883" lon="11.1060183"><ele>521.0</ele><time>2026-03-22T10:57:40.988Z</time></trkpt><trkpt lat="44.3489667" lon="11.1060583"><ele>523.3333333333333</ele><time>2026-03-22T10:57:41.989Z</time></trkpt><trkpt lat="44.3490467" lon="11.106095"><ele>525.6666666666666</ele><time>2026-03-22T10:57:42.992Z</time></trkpt><trkpt lat="44.349125" lon="11.106135"><ele>528.0</ele><time>2026-03-22T10:57:43.99Z</time></trkpt><trkpt lat="44.3491983" lon="11.1061917"><ele>530.3333333333334</ele><time>2026-03-22T10:57:44.989Z</time></trkpt><trkpt lat="44.3492667" lon="11.1062633"><ele>532.6666666666667</ele><time>2026-03-22T10:57:45.994Z</time></trkpt><trkpt lat="44.3493267" lon="11.1063483"><ele>535.0</ele><time>2026-03-22T10:57:46.995Z</time></trkpt><trkpt lat="44.3493833" lon="11.1064383"><ele>535.0</ele><time>2026-03-22T10:57:47.991Z</time></trkpt><trkpt lat="44.3494417" lon="11.1065283"><ele>535.0</ele><time>2026-03-22T10:57:48.989Z</time></trkpt><trkpt lat="44.3495033" lon="11.106615"><ele>535.0</ele><time>2026-03-22T10:57:49.994Z</time></trkpt><trkpt lat="44.3495683" lon="11.1066883"><ele>535.0</ele><time>2026-03-22T10:57:50.992Z</time></trkpt><trkpt lat="44.3496317" lon="11.106745"><ele>535.0</ele><time>2026-03-22T10:57:51.993Z</time></trkpt><trkpt lat="44.3496967" lon="11.1067883"><ele>535.0</ele><time>2026-03-22T10:57:52.988Z</time></trkpt><trkpt lat="44.349755" lon="11.1068267"><ele>538.8333333333334</ele><time>2026-03-22T10:57:53.998Z</time></trkpt><trkpt lat="44.3498167" lon="11.1068583"><ele>542.6666666666667</ele><time>2026-03-22T10:57:54.993Z</time></trkpt><trkpt lat="44.3498783" lon="11.1068967"><ele>546.5</ele><time>2026-03-22T10:57:55.993Z</time></trkpt><trkpt lat="44.3499333" lon="11.1069417"><ele>550.3333333333334</ele><time>2026-03-22T10:57:56.99Z</time></trkpt><trkpt lat="44.34999" lon="11.1070983"><ele>554.1666666666666</ele><time>2026-03-22T10:57:58.991Z</time></trkpt><trkpt lat="44.349995" lon="11.1071983"><ele>558.0</ele><time>2026-03-22T10:57:59.991Z</time></trkpt><trkpt lat="44.3499983" lon="11.107315"><ele>560.3333333333334</ele><time>2026-03-22T10:58:00.996Z</time></trkpt><trkpt lat="44.350015" lon="11.1074267"><ele>562.6666666666666</ele><time>2026-03-22T10:58:01.989Z</time></trkpt><trkpt lat="44.35004" lon="11.1075383"><ele>565.0</ele><time>2026-03-22T10:58:02.993Z</time></trkpt><trkpt lat="44.3500717" lon="11.107655"><ele>567.3333333333333</ele><time>2026-03-22T10:58:03.993Z</time></trkpt><trkpt lat="44.3501133" lon="11.107765"><ele>569.6666666666666</ele><time>2026-03-22T10:58:04.993Z</time></trkpt><trkpt lat="44.3501583" lon="11.1078767"><ele>572.0</ele><time>2026-03-22T10:58:05.988Z</time></trkpt><trkpt lat="44.3502067" lon="11.107985"><ele>572.0</ele><time>2026-03-22T10:58:06.99Z</time></trkpt><trkpt lat="44.3502567" lon="11.1080833"><ele>572.0</ele><time>2026-03-22T10:58:07.993Z</time></trkpt><trkpt lat="44.35031" lon="11.1081783"><ele>572.0</ele><time>2026-03-22T10:58:08.996Z</time></trkpt><trkpt lat="44.3503783" lon="11.108255"><ele>572.0</ele><time>2026-03-22T10:58:09.993Z</time></trkpt><trkpt lat="44.3504567" lon="11.108315"><ele>572.0</ele><time>2026-03-22T10:58:10.991Z</time></trkpt><trkpt lat="44.3505483" lon="11.1083617"><ele>572.0</ele><time>2026-03-22T10:58:11.993Z</time></trkpt><trkpt lat="44.3506467" lon="11.108395"><ele>573.8333333333333</ele><time>2026-03-22T10:58:12.989Z</time></trkpt><trkpt lat="44.3507317" lon="11.1084217"><ele>575.6666666666666</ele><time>2026-03-22T10:58:13.993Z</time></trkpt><trkpt lat="44.3508117" lon="11.1084367"><ele>577.5</ele><time>2026-03-22T10:58:14.991Z</time></trkpt><trkpt lat="44.3509" lon="11.108425"><ele>579.3333333333334</ele><time>2026-03-22T10:58:15.992Z</time></trkpt><trkpt lat="44.3509833" lon="11.1083933"><ele>581.1666666666667</ele><time>2026-03-22T10:58:16.991Z</time></trkpt><trkpt lat="44.3510733" lon="11.1083583"><ele>583.0</ele><time>2026-03-22T10:58:17.994Z</time></trkpt><trkpt lat="44.3511833" lon="11.1083267"><ele>583.0</ele><time>2026-03-22T10:58:18.99Z</time></trkpt><trkpt lat="44.3513067" lon="11.10832"><ele>583.0</ele><time>2026-03-22T10:58:19.988Z</time></trkpt><trkpt lat="44.3514317" lon="11.10833"><ele>583.0</ele><time>2026-03-22T10:58:20.994Z</time></trkpt><trkpt lat="44.351555" lon="11.1083467"><ele>583.0</ele><time>2026-03-22T10:58:21.995Z</time></trkpt><trkpt lat="44.3516783" lon="11.1083633"><ele>583.75</ele><time>2026-03-22T10:58:22.993Z</time></trkpt><trkpt lat="44.3518033" lon="11.1083583"><ele>584.5</ele><time>2026-03-22T10:58:23.992Z</time></trkpt><trkpt lat="44.351925" lon="11.1083317"><ele>585.25</ele><time>2026-03-22T10:58:24.995Z</time></trkpt><trkpt lat="44.352045" lon="11.108285"><ele>586.0</ele><time>2026-03-22T10:58:25.997Z</time></trkpt><trkpt lat="44.3521633" lon="11.1082383"><ele>589.5</ele><time>2026-03-22T10:58:26.992Z</time></trkpt><trkpt lat="44.3522783" lon="11.1081867"><ele>593.0</ele><time>2026-03-22T10:58:27.991Z</time></trkpt><trkpt lat="44.352395" lon="11.1081317"><ele>596.5</ele><time>2026-03-22T10:58:28.993Z</time></trkpt><trkpt lat="44.35251" lon="11.1080767"><ele>600.0</ele><time>2026-03-22T10:58:29.99Z</time></trkpt><trkpt lat="44.3526233" lon="11.1080183"><ele>600.0</ele><time>2026-03-22T10:58:30.996Z</time></trkpt><trkpt lat="44.3527383" lon="11.1079533"><ele>600.0</ele><time>2026-03-22T10:58:31.992Z</time></trkpt><trkpt lat="44.352855" lon="11.107895"><ele>600.0</ele><time>2026-03-22T10:58:32.991Z</time></trkpt><trkpt lat="44.3529733" lon="11.107845"><ele>600.0</ele><time>2026-03-22T10:58:33.99Z</time></trkpt><trkpt lat="44.3530967" lon="11.1078117"><ele>603.75</ele><time>2026-03-22T10:58:34.994Z</time></trkpt><trkpt lat="44.3532217" lon="11.10778"><ele>607.5</ele><time>2026-03-22T10:58:35.996Z</time></trkpt><trkpt lat="44.3533483" lon="11.1077433"><ele>611.25</ele><time>2026-03-22T10:58:36.996Z</time></trkpt><trkpt lat="44.3534767" lon="11.1077167"><ele>615.0</ele><time>2026-03-22T10:58:37.992Z</time></trkpt><trkpt lat="44.3536067" lon="11.1076933"><ele>615.0</ele><time>2026-03-22T10:58:38.994Z</time></trkpt><trkpt lat="44.35374" lon="11.1076633"><ele>615.0</ele><time>2026-03-22T10:58:39.993Z</time></trkpt><trkpt lat="44.3538683" lon="11.1076217"><ele>615.0</ele><time>2026-03-22T10:58:40.992Z</time></trkpt><trkpt lat="44.3539883" lon="11.1075867"><ele>615.0</ele><time>2026-03-22T10:58:41.997Z</time></trkpt><trkpt lat="44.3541017" lon="11.1075733"><ele>619.25</ele><time>2026-03-22T10:58:42.99Z</time></trkpt><trkpt lat="44.35422" lon="11.10758"><ele>623.5</ele><time>2026-03-22T10:58:43.993Z</time></trkpt><trkpt lat="44.35434" lon="11.1076133"><ele>627.75</ele><time>2026-03-22T10:58:44.992Z</time></trkpt><trkpt lat="44.3544583" lon="11.1076683"><ele>632.0</ele><time>2026-03-22T10:58:45.994Z</time></trkpt><trkpt lat="44.3545767" lon="11.10775"><ele>632.0</ele><time>2026-03-22T10:58:46.992Z</time></trkpt><trkpt lat="44.35469" lon="11.107835"><ele>632.0</ele><time>2026-03-22T10:58:47.991Z</time></trkpt><trkpt lat="44.3548" lon="11.10791"><ele>632.0</ele><time>2026-03-22T10:58:48.993Z</time></trkpt><trkpt lat="44.35491" lon="11.107965"><ele>632.0</ele><time>2026-03-22T10:58:49.993Z</time></trkpt><trkpt lat="44.355025" lon="11.1080033"><ele>635.75</ele><time>2026-03-22T10:58:50.996Z</time></trkpt><trkpt lat="44.355145" lon="11.1080283"><ele>639.5</ele><time>2026-03-22T10:58:51.993Z</time></trkpt><trkpt lat="44.355265" lon="11.1080283"><ele>643.25</ele><time>2026-03-22T10:58:52.993Z</time></trkpt><trkpt lat="44.3553867" lon="11.1080083"><ele>647.0</ele><time>2026-03-22T10:58:53.993Z</time></trkpt><trkpt lat="44.3555083" lon="11.1079667"><ele>651.25</ele><time>2026-03-22T10:58:54.992Z</time></trkpt><trkpt lat="44.35563" lon="11.1079083"><ele>655.5</ele><time>2026-03-22T10:58:55.991Z</time></trkpt><trkpt lat="44.35575" lon="11.107855"><ele>659.75</ele><time>2026-03-22T10:58:56.993Z</time></trkpt><trkpt lat="44.35587" lon="11.1078"><ele>664.0</ele><time>2026-03-22T10:58:57.99Z</time></trkpt><trkpt lat="44.3559917" lon="11.1077433"><ele>664.0</ele><time>2026-03-22T10:58:58.993Z</time></trkpt><trkpt lat="44.3561117" lon="11.1076867"><ele>664.0</ele><time>2026-03-22T10:58:59.994Z</time></trkpt><trkpt lat="44.356235" lon="11.1076333"><ele>664.0</ele><time>2026-03-22T10:59:00.992Z</time></trkpt><trkpt lat="44.35636" lon="11.1075817"><ele>664.0</ele><time>2026-03-22T10:59:01.991Z</time></trkpt><trkpt lat="44.356485" lon="11.1075333"><ele>667.75</ele><time>2026-03-22T10:59:02.99Z</time></trkpt><trkpt lat="44.356615" lon="11.10749"><ele>671.5</ele><time>2026-03-22T10:59:03.993Z</time></trkpt><trkpt lat="44.3567533" lon="11.1074633"><ele>675.25</ele><time>2026-03-22T10:59:04.993Z</time></trkpt><trkpt lat="44.3568917" lon="11.1074483"><ele>679.0</ele><time>2026-03-22T10:59:05.992Z</time></trkpt><trkpt lat="44.3570183" lon="11.1074417"><ele>679.0</ele><time>2026-03-22T10:59:06.989Z</time></trkpt><trkpt lat="44.357135" lon="11.10744"><ele>679.0</ele><time>2026-03-22T10:59:07.992Z</time></trkpt><trkpt lat="44.357235" lon="11.1074333"><ele>679.0</ele><time>2026-03-22T10:59:08.992Z</time></trkpt><trkpt lat="44.3573183" lon="11.1074117"><ele>679.0</ele><time>2026-03-22T10:59:09.994Z</time></trkpt><trkpt lat="44.357395" lon="11.1073767"><ele>679.0</ele><time>2026-03-22T10:59:10.99Z</time></trkpt><trkpt lat="44.3574783" lon="11.107325"><ele>681.75</ele><time>2026-03-22T10:59:11.998Z</time></trkpt><trkpt lat="44.357575" lon="11.10726"><ele>684.5</ele><time>2026-03-22T10:59:12.992Z</time></trkpt><trkpt lat="44.3576783" lon="11.10719"><ele>687.25</ele><time>2026-03-22T10:59:13.993Z</time></trkpt><trkpt lat="44.357785" lon="11.1071133"><ele>690.0</ele><time>2026-03-22T10:59:14.989Z</time></trkpt><trkpt lat="44.3578967" lon="11.1070233"><ele>690.0</ele><time>2026-03-22T10:59:15.994Z</time></trkpt><trkpt lat="44.358005" lon="11.1069317"><ele>690.0</ele><time>2026-03-22T10:59:16.989Z</time></trkpt><trkpt lat="44.3581117" lon="11.10684"><ele>690.0</ele><time>2026-03-22T10:59:17.991Z</time></trkpt><trkpt lat="44.3582083" lon="11.10674"><ele>690.0</ele><time>2026-03-22T10:59:18.988Z</time></trkpt><trkpt lat="44.358295" lon="11.1066283"><ele>689.4</ele><time>2026-03-22T10:59:19.993Z</time></trkpt><trkpt lat="44.3583617" lon="11.1065"><ele>688.8</ele><time>2026-03-22T10:59:20.996Z</time></trkpt><trkpt lat="44.35842" lon="11.10637"><ele>688.2</ele><time>2026-03-22T10:59:21.993Z</time></trkpt><trkpt lat="44.358485" lon="11.1062433"><ele>687.6</ele><time>2026-03-22T10:59:22.987Z</time></trkpt><trkpt lat="44.3585667" lon="11.1061317"><ele>687.0</ele><time>2026-03-22T10:59:23.992Z</time></trkpt><trkpt lat="44.3586783" lon="11.106045"><ele>687.0</ele><time>2026-03-22T10:59:24.99Z</time></trkpt><trkpt lat="44.3587967" lon="11.1059733"><ele>687.0</ele><time>2026-03-22T10:59:25.991Z</time></trkpt><trkpt lat="44.3589083" lon="11.1059117"><ele>687.0</ele><time>2026-03-22T10:59:26.993Z</time></trkpt><trkpt lat="44.359005" lon="11.1058567"><ele>687.0</ele><time>2026-03-22T10:59:27.995Z</time></trkpt><trkpt lat="44.3590867" lon="11.1058117"><ele>687.0</ele><time>2026-03-22T10:59:28.989Z</time></trkpt><trkpt lat="44.359155" lon="11.1057683"><ele>686.75</ele><time>2026-03-22T10:59:29.992Z</time></trkpt><trkpt lat="44.359265" lon="11.105725"><ele>686.5</ele><time>2026-03-22T10:59:31.988Z</time></trkpt><trkpt lat="44.3593517" lon="11.1058017"><ele>686.25</ele><time>2026-03-22T10:59:33.486Z</time></trkpt><trkpt lat="44.3594517" lon="11.105975"><ele>686.0</ele><time>2026-03-22T10:59:34.621Z</time></trkpt><trkpt lat="44.3595583" lon="11.10591"><ele>686.0</ele><time>2026-03-22T10:59:35.989Z</time></trkpt><trkpt lat="44.3596583" lon="11.1058917"><ele>686.0</ele><time>2026-03-22T10:59:36.995Z</time></trkpt><trkpt lat="44.3597533" lon="11.1058917"><ele>686.0</ele><time>2026-03-22T10:59:37.995Z</time></trkpt><trkpt lat="44.3598483" lon="11.1059017"><ele>686.0</ele><time>2026-03-22T10:59:38.991Z</time></trkpt><trkpt lat="44.359945" lon="11.10592"><ele>686.0</ele><time>2026-03-22T10:59:39.993Z</time></trkpt><trkpt lat="44.36005" lon="11.1059483"><ele>686.0</ele><time>2026-03-22T10:59:40.992Z</time></trkpt><trkpt lat="44.360165" lon="11.1059767"><ele>686.0</ele><time>2026-03-22T10:59:41.991Z</time></trkpt><trkpt lat="44.3602983" lon="11.105995"><ele>686.0</ele><time>2026-03-22T10:59:42.994Z</time></trkpt><trkpt lat="44.360435" lon="11.1060083"><ele>686.0</ele><time>2026-03-22T10:59:43.996Z</time></trkpt><trkpt lat="44.360585" lon="11.106025"><ele>686.0</ele><time>2026-03-22T10:59:44.993Z</time></trkpt><trkpt lat="44.360735" lon="11.10603"><ele>686.0</ele><time>2026-03-22T10:59:45.992Z</time></trkpt><trkpt lat="44.360885" lon="11.106015"><ele>686.0</ele><time>2026-03-22T10:59:46.994Z</time></trkpt><trkpt lat="44.361035" lon="11.1059967"><ele>686.0</ele><time>2026-03-22T10:59:47.995Z</time></trkpt><trkpt lat="44.3611917" lon="11.1059733"><ele>686.0</ele><time>2026-03-22T10:59:48.991Z</time></trkpt><trkpt lat="44.36134" lon="11.1059517"><ele>686.0</ele><time>2026-03-22T10:59:49.996Z</time></trkpt><trkpt lat="44.3614917" lon="11.1059267"><ele>686.3333333333333</ele><time>2026-03-22T10:59:50.993Z</time></trkpt><trkpt lat="44.36164" lon="11.1058983"><ele>686.6666666666666</ele><time>2026-03-22T10:59:51.991Z</time></trkpt><trkpt lat="44.36179" lon="11.1058717"><ele>687.0</ele><time>2026-03-22T10:59:53Z</time></trkpt><trkpt lat="44.3619383" lon="11.1058417"><ele>687.0</ele><time>2026-03-22T10:59:54.001Z</time></trkpt><trkpt lat="44.3620833" lon="11.1058133"><ele>687.0</ele><time>2026-03-22T10:59:54.997Z</time></trkpt><trkpt lat="44.3622283" lon="11.1057867"><ele>687.0</ele><time>2026-03-22T10:59:55.996Z</time></trkpt><trkpt lat="44.3623767" lon="11.1057633"><ele>687.0</ele><time>2026-03-22T10:59:56.998Z</time></trkpt><trkpt lat="44.36252" lon="11.1057383"><ele>686.3333333333334</ele><time>2026-03-22T10:59:57.995Z</time></trkpt><trkpt lat="44.362665" lon="11.1057117"><ele>685.6666666666667</ele><time>2026-03-22T10:59:58.995Z</time></trkpt><trkpt lat="44.3628217" lon="11.105685"><ele>685.0</ele><time>2026-03-22T11:00:00.011Z</time></trkpt><trkpt lat="44.3629817" lon="11.1056567"><ele>685.0</ele><time>2026-03-22T11:00:00.992Z</time></trkpt><trkpt lat="44.3631417" lon="11.10563"><ele>685.0</ele><time>2026-03-22T11:00:01.992Z</time></trkpt><trkpt lat="44.3632983" lon="11.1056083"><ele>685.0</ele><time>2026-03-22T11:00:02.989Z</time></trkpt><trkpt lat="44.36345" lon="11.1055883"><ele>685.0</ele><time>2026-03-22T11:00:03.991Z</time></trkpt><trkpt lat="44.3635983" lon="11.1055683"><ele>685.0</ele><time>2026-03-22T11:00:04.988Z</time></trkpt><trkpt lat="44.3637417" lon="11.1055467"><ele>685.0</ele><time>2026-03-22T11:00:05.993Z</time></trkpt><trkpt lat="44.36389" lon="11.105525"><ele>685.0</ele><time>2026-03-22T11:00:06.992Z</time></trkpt><trkpt lat="44.3640333" lon="11.1054917"><ele>686.3333333333334</ele><time>2026-03-22T11:00:07.992Z</time></trkpt><trkpt lat="44.3641783" lon="11.1054583"><ele>687.6666666666666</ele><time>2026-03-22T11:00:09Z</time></trkpt><trkpt lat="44.3643267" lon="11.1054233"><ele>689.0</ele><time>2026-03-22T11:00:09.99Z</time></trkpt><trkpt lat="44.3644767" lon="11.1053833"><ele>689.0</ele><time>2026-03-22T11:00:10.994Z</time></trkpt><trkpt lat="44.3646283" lon="11.1053417"><ele>689.0</ele><time>2026-03-22T11:00:11.994Z</time></trkpt><trkpt lat="44.36478" lon="11.1053033"><ele>689.0</ele><time>2026-03-22T11:00:12.997Z</time></trkpt><trkpt lat="44.3649333" lon="11.1052717"><ele>688.6666666666666</ele><time>2026-03-22T11:00:13.995Z</time></trkpt><trkpt lat="44.3650867" lon="11.1052417"><ele>688.3333333333334</ele><time>2026-03-22T11:00:14.997Z</time></trkpt><trkpt lat="44.3652417" lon="11.1052067"><ele>688.0</ele><time>2026-03-22T11:00:15.993Z</time></trkpt><trkpt lat="44.365395" lon="11.105175"><ele>686.3333333333334</ele><time>2026-03-22T11:00:16.995Z</time></trkpt><trkpt lat="44.365545" lon="11.1051467"><ele>684.6666666666666</ele><time>2026-03-22T11:00:17.993Z</time></trkpt><trkpt lat="44.3656933" lon="11.1051167"><ele>683.0</ele><time>2026-03-22T11:00:19Z</time></trkpt><trkpt lat="44.3658417" lon="11.105095"><ele>683.0</ele><time>2026-03-22T11:00:19.994Z</time></trkpt><trkpt lat="44.36599" lon="11.1050717"><ele>683.0</ele><time>2026-03-22T11:00:20.997Z</time></trkpt><trkpt lat="44.3661367" lon="11.1050517"><ele>683.0</ele><time>2026-03-22T11:00:21.995Z</time></trkpt><trkpt lat="44.366285" lon="11.105035"><ele>683.0</ele><time>2026-03-22T11:00:22.995Z</time></trkpt><trkpt lat="44.3664417" lon="11.105025"><ele>683.75</ele><time>2026-03-22T11:00:23.992Z</time></trkpt><trkpt lat="44.3665967" lon="11.10501"><ele>684.5</ele><time>2026-03-22T11:00:24.996Z</time></trkpt><trkpt lat="44.3667433" lon="11.1049917"><ele>685.25</ele><time>2026-03-22T11:00:25.994Z</time></trkpt><trkpt lat="44.3668817" lon="11.1049717"><ele>686.0</ele><time>2026-03-22T11:00:26.991Z</time></trkpt><trkpt lat="44.3670083" lon="11.1049467"><ele>686.0</ele><time>2026-03-22T11:00:27.994Z</time></trkpt><trkpt lat="44.3671433" lon="11.1049133"><ele>686.0</ele><time>2026-03-22T11:00:28.991Z</time></trkpt><trkpt lat="44.3672817" lon="11.1048667"><ele>686.0</ele><time>2026-03-22T11:00:29.997Z</time></trkpt><trkpt lat="44.3674233" lon="11.1048067"><ele>686.0</ele><time>2026-03-22T11:00:30.995Z</time></trkpt><trkpt lat="44.3675667" lon="11.1047367"><ele>684.75</ele><time>2026-03-22T11:00:31.992Z</time></trkpt><trkpt lat="44.367705" lon="11.1046767"><ele>683.5</ele><time>2026-03-22T11:00:32.99Z</time></trkpt><trkpt lat="44.36784" lon="11.1046167"><ele>682.25</ele><time>2026-03-22T11:00:33.99Z</time></trkpt><trkpt lat="44.36798" lon="11.10456"><ele>681.0</ele><time>2026-03-22T11:00:34.993Z</time></trkpt><trkpt lat="44.3681167" lon="11.104505"><ele>680.5</ele><time>2026-03-22T11:00:35.994Z</time></trkpt><trkpt lat="44.3682567" lon="11.1044483"><ele>680.0</ele><time>2026-03-22T11:00:36.992Z</time></trkpt><trkpt lat="44.368395" lon="11.1043917"><ele>679.5</ele><time>2026-03-22T11:00:37.994Z</time></trkpt><trkpt lat="44.3685233" lon="11.104335"><ele>679.0</ele><time>2026-03-22T11:00:38.997Z</time></trkpt><trkpt lat="44.36864" lon="11.10428"><ele>679.0</ele><time>2026-03-22T11:00:39.996Z</time></trkpt><trkpt lat="44.36875" lon="11.104225"><ele>679.0</ele><time>2026-03-22T11:00:40.996Z</time></trkpt><trkpt lat="44.3688517" lon="11.1041667"><ele>679.0</ele><time>2026-03-22T11:00:42.002Z</time></trkpt><trkpt lat="44.368945" lon="11.1041033"><ele>679.0</ele><time>2026-03-22T11:00:42.991Z</time></trkpt><trkpt lat="44.369025" lon="11.10404"><ele>679.0</ele><time>2026-03-22T11:00:43.996Z</time></trkpt><trkpt lat="44.3690917" lon="11.1039817"><ele>679.0</ele><time>2026-03-22T11:00:44.991Z</time></trkpt><trkpt lat="44.3691883" lon="11.1038867"><ele>679.0</ele><time>2026-03-22T11:00:46.99Z</time></trkpt><trkpt lat="44.3692383" lon="11.10377"><ele>679.0</ele><time>2026-03-22T11:00:48.991Z</time></trkpt><trkpt lat="44.3692283" lon="11.1036733"><ele>679.0</ele><time>2026-03-22T11:00:49.992Z</time></trkpt><trkpt lat="44.3692217" lon="11.10358"><ele>679.0</ele><time>2026-03-22T11:00:50.994Z</time></trkpt><trkpt lat="44.369235" lon="11.1034883"><ele>679.0</ele><time>2026-03-22T11:00:51.987Z</time></trkpt><trkpt lat="44.3692583" lon="11.1033933"><ele>679.0</ele><time>2026-03-22T11:00:52.988Z</time></trkpt><trkpt lat="44.369295" lon="11.1033083"><ele>679.0</ele><time>2026-03-22T11:00:53.99Z</time></trkpt><trkpt lat="44.3693533" lon="11.1032583"><ele>679.0</ele><time>2026-03-22T11:00:54.993Z</time></trkpt><trkpt lat="44.3694217" lon="11.10321"><ele>679.0</ele><time>2026-03-22T11:00:55.992Z</time></trkpt><trkpt lat="44.3694833" lon="11.1031417"><ele>679.0</ele><time>2026-03-22T11:00:56.996Z</time></trkpt><trkpt lat="44.3695267" lon="11.1030717"><ele>679.0</ele><time>2026-03-22T11:00:57.99Z</time></trkpt><trkpt lat="44.3695583" lon="11.10298"><ele>679.0</ele><time>2026-03-22T11:00:58.993Z</time></trkpt><trkpt lat="44.369565" lon="11.1028717"><ele>677.1666666666667</ele><time>2026-03-22T11:00:59.994Z</time></trkpt><trkpt lat="44.369565" lon="11.10276"><ele>675.3333333333334</ele><time>2026-03-22T11:01:00.992Z</time></trkpt><trkpt lat="44.36957" lon="11.10265"><ele>673.5</ele><time>2026-03-22T11:01:01.992Z</time></trkpt><trkpt lat="44.3695783" lon="11.102545"><ele>671.6666666666666</ele><time>2026-03-22T11:01:02.993Z</time></trkpt><trkpt lat="44.3695833" lon="11.102445"><ele>669.8333333333333</ele><time>2026-03-22T11:01:03.989Z</time></trkpt><trkpt lat="44.3695833" lon="11.1023383"><ele>668.0</ele><time>2026-03-22T11:01:04.995Z</time></trkpt><trkpt lat="44.36957" lon="11.1022283"><ele>666.6666666666666</ele><time>2026-03-22T11:01:05.993Z</time></trkpt><trkpt lat="44.36956" lon="11.10211"><ele>665.3333333333333</ele><time>2026-03-22T11:01:06.992Z</time></trkpt><trkpt lat="44.3695533" lon="11.1019917"><ele>664.0</ele><time>2026-03-22T11:01:07.992Z</time></trkpt><trkpt lat="44.36956" lon="11.101875"><ele>662.6666666666666</ele><time>2026-03-22T11:01:08.994Z</time></trkpt><trkpt lat="44.3695783" lon="11.1017533"><ele>661.3333333333334</ele><time>2026-03-22T11:01:09.992Z</time></trkpt><trkpt lat="44.3696067" lon="11.1016467"><ele>660.0</ele><time>2026-03-22T11:01:10.989Z</time></trkpt><trkpt lat="44.3696317" lon="11.1015517"><ele>661.0</ele><time>2026-03-22T11:01:11.992Z</time></trkpt><trkpt lat="44.3696633" lon="11.1014517"><ele>662.0</ele><time>2026-03-22T11:01:12.988Z</time></trkpt><trkpt lat="44.3696967" lon="11.101365"><ele>663.0</ele><time>2026-03-22T11:01:13.993Z</time></trkpt><trkpt lat="44.3697417" lon="11.1012817"><ele>664.0</ele><time>2026-03-22T11:01:14.999Z</time></trkpt><trkpt lat="44.369795" lon="11.101195"><ele>665.0</ele><time>2026-03-22T11:01:15.99Z</time></trkpt><trkpt lat="44.3698533" lon="11.10112"><ele>666.0</ele><time>2026-03-22T11:01:16.993Z</time></trkpt><trkpt lat="44.369905" lon="11.101035"><ele>666.0</ele><time>2026-03-22T11:01:17.99Z</time></trkpt><trkpt lat="44.36995" lon="11.1009533"><ele>666.0</ele><time>2026-03-22T11:01:18.993Z</time></trkpt><trkpt lat="44.3699783" lon="11.10086"><ele>666.0</ele><time>2026-03-22T11:01:19.989Z</time></trkpt><trkpt lat="44.369995" lon="11.1007467"><ele>666.0</ele><time>2026-03-22T11:01:20.989Z</time></trkpt><trkpt lat="44.3699983" lon="11.1006333"><ele>666.0</ele><time>2026-03-22T11:01:21.994Z</time></trkpt><trkpt lat="44.3699917" lon="11.1005183"><ele>666.0</ele><time>2026-03-22T11:01:22.989Z</time></trkpt><trkpt lat="44.3699833" lon="11.1004083"><ele>664.8333333333334</ele><time>2026-03-22T11:01:23.993Z</time></trkpt><trkpt lat="44.3699833" lon="11.1002967"><ele>663.6666666666666</ele><time>2026-03-22T11:01:24.994Z</time></trkpt><trkpt lat="44.3699883" lon="11.1001833"><ele>662.5</ele><time>2026-03-22T11:01:25.989Z</time></trkpt><trkpt lat="44.3699983" lon="11.100075"><ele>661.3333333333333</ele><time>2026-03-22T11:01:26.994Z</time></trkpt><trkpt lat="44.3700067" lon="11.0999717"><ele>660.1666666666666</ele><time>2026-03-22T11:01:27.992Z</time></trkpt><trkpt lat="44.37001" lon="11.099865"><ele>659.0</ele><time>2026-03-22T11:01:28.99Z</time></trkpt><trkpt lat="44.3699967" lon="11.0997567"><ele>658.4285714285714</ele><time>2026-03-22T11:01:29.99Z</time></trkpt><trkpt lat="44.3699683" lon="11.0996617"><ele>657.8571428571428</ele><time>2026-03-22T11:01:30.991Z</time></trkpt><trkpt lat="44.3699217" lon="11.0995817"><ele>657.2857142857142</ele><time>2026-03-22T11:01:31.993Z</time></trkpt><trkpt lat="44.369865" lon="11.0995167"><ele>656.7142857142858</ele><time>2026-03-22T11:01:32.992Z</time></trkpt><trkpt lat="44.3698067" lon="11.0994617"><ele>656.1428571428571</ele><time>2026-03-22T11:01:33.991Z</time></trkpt><trkpt lat="44.3697533" lon="11.09941"><ele>655.5714285714286</ele><time>2026-03-22T11:01:34.991Z</time></trkpt><trkpt lat="44.3697067" lon="11.0993417"><ele>655.0</ele><time>2026-03-22T11:01:35.993Z</time></trkpt><trkpt lat="44.3696672" lon="11.0992631"><ele>652.5714285714286</ele><time>2026-03-22T11:01:36.989Z</time></trkpt><trkpt lat="44.3696363" lon="11.0991789"><ele>650.1428571428571</ele><time>2026-03-22T11:01:37.989Z</time></trkpt><trkpt lat="44.3696138" lon="11.0990947"><ele>647.7142857142858</ele><time>2026-03-22T11:01:38.992Z</time></trkpt><trkpt lat="44.3695946" lon="11.099009"><ele>645.2857142857142</ele><time>2026-03-22T11:01:39.993Z</time></trkpt><trkpt lat="44.3695709" lon="11.0989271"><ele>642.8571428571428</ele><time>2026-03-22T11:01:40.993Z</time></trkpt><trkpt lat="44.3695377" lon="11.0988491"><ele>640.4285714285714</ele><time>2026-03-22T11:01:41.992Z</time></trkpt><trkpt lat="44.3694855" lon="11.0987837"><ele>638.0</ele><time>2026-03-22T11:01:42.993Z</time></trkpt><trkpt lat="44.3694249" lon="11.0987356"><ele>637.0</ele><time>2026-03-22T11:01:43.991Z</time></trkpt><trkpt lat="44.3693566" lon="11.0987007"><ele>636.0</ele><time>2026-03-22T11:01:44.996Z</time></trkpt><trkpt lat="44.3692854" lon="11.0986773"><ele>635.0</ele><time>2026-03-22T11:01:45.997Z</time></trkpt><trkpt lat="44.3692158" lon="11.0986641"><ele>634.0</ele><time>2026-03-22T11:01:46.993Z</time></trkpt><trkpt lat="44.3691524" lon="11.0986569"><ele>633.0</ele><time>2026-03-22T11:01:47.992Z</time></trkpt><trkpt lat="44.3690269" lon="11.098641"><ele>632.0</ele><time>2026-03-22T11:01:49.99Z</time></trkpt><trkpt lat="44.3689618" lon="11.0986253"><ele>629.5</ele><time>2026-03-22T11:01:50.992Z</time></trkpt><trkpt lat="44.3688504" lon="11.098551"><ele>627.0</ele><time>2026-03-22T11:01:52.989Z</time></trkpt><trkpt lat="44.3688112" lon="11.0984817"><ele>624.5</ele><time>2026-03-22T11:01:53.989Z</time></trkpt><trkpt lat="44.3687856" lon="11.0984002"><ele>622.0</ele><time>2026-03-22T11:01:54.989Z</time></trkpt><trkpt lat="44.3687653" lon="11.0983143"><ele>619.5</ele><time>2026-03-22T11:01:55.989Z</time></trkpt><trkpt lat="44.3687449" lon="11.0981534"><ele>617.0</ele><time>2026-03-22T11:01:57.987Z</time></trkpt><trkpt lat="44.3687386" lon="11.0980104"><ele>616.4</ele><time>2026-03-22T11:01:59.994Z</time></trkpt><trkpt lat="44.3687172" lon="11.0978694"><ele>615.8000000000001</ele><time>2026-03-22T11:02:01.992Z</time></trkpt><trkpt lat="44.3686977" lon="11.0977163"><ele>615.2</ele><time>2026-03-22T11:02:03.993Z</time></trkpt><trkpt lat="44.3686896" lon="11.0975822"><ele>614.6</ele><time>2026-03-22T11:02:05.991Z</time></trkpt><trkpt lat="44.3686381" lon="11.0974662"><ele>614.0</ele><time>2026-03-22T11:02:07.992Z</time></trkpt><trkpt lat="44.3685133" lon="11.0974833"><ele>614.0</ele><time>2026-03-22T11:02:09.991Z</time></trkpt><trkpt lat="44.3684117" lon="11.0975683"><ele>614.0</ele><time>2026-03-22T11:02:11.995Z</time></trkpt><trkpt lat="44.3683683" lon="11.09764"><ele>614.0</ele><time>2026-03-22T11:02:12.993Z</time></trkpt><trkpt lat="44.368345" lon="11.0977283"><ele>614.0</ele><time>2026-03-22T11:02:13.992Z</time></trkpt><trkpt lat="44.3683233" lon="11.0978133"><ele>614.0</ele><time>2026-03-22T11:02:14.994Z</time></trkpt><trkpt lat="44.3683117" lon="11.097905"><ele>614.0</ele><time>2026-03-22T11:02:15.995Z</time></trkpt><trkpt lat="44.3682817" lon="11.0980767"><ele>614.0</ele><time>2026-03-22T11:02:17.996Z</time></trkpt><trkpt lat="44.3682417" lon="11.09822"><ele>614.0</ele><time>2026-03-22T11:02:19.993Z</time></trkpt><trkpt lat="44.368155" lon="11.0982133"><ele>614.0</ele><time>2026-03-22T11:02:21.993Z</time></trkpt><trkpt lat="44.3680767" lon="11.098125"><ele>614.0</ele><time>2026-03-22T11:02:23.991Z</time></trkpt><trkpt lat="44.36801" lon="11.097995"><ele>614.0</ele><time>2026-03-22T11:02:25.987Z</time></trkpt><trkpt lat="44.3679667" lon="11.0979283"><ele>610.8333333333333</ele><time>2026-03-22T11:02:26.994Z</time></trkpt><trkpt lat="44.36793" lon="11.09785"><ele>607.6666666666666</ele><time>2026-03-22T11:02:27.99Z</time></trkpt><trkpt lat="44.36789" lon="11.0977633"><ele>604.5</ele><time>2026-03-22T11:02:28.99Z</time></trkpt><trkpt lat="44.3678583" lon="11.0976733"><ele>601.3333333333334</ele><time>2026-03-22T11:02:29.995Z</time></trkpt><trkpt lat="44.3678233" lon="11.0975933"><ele>598.1666666666667</ele><time>2026-03-22T11:02:30.994Z</time></trkpt><trkpt lat="44.3677433" lon="11.0974683"><ele>595.0</ele><time>2026-03-22T11:02:32.992Z</time></trkpt><trkpt lat="44.36766" lon="11.0973483"><ele>594.5</ele><time>2026-03-22T11:02:34.991Z</time></trkpt><trkpt lat="44.367625" lon="11.0972733"><ele>594.0</ele><time>2026-03-22T11:02:35.992Z</time></trkpt><trkpt lat="44.3675933" lon="11.0971917"><ele>593.5</ele><time>2026-03-22T11:02:36.992Z</time></trkpt><trkpt lat="44.3675633" lon="11.0971033"><ele>593.0</ele><time>2026-03-22T11:02:37.993Z</time></trkpt><trkpt lat="44.3675383" lon="11.097015"><ele>592.5</ele><time>2026-03-22T11:02:38.994Z</time></trkpt><trkpt lat="44.3675067" lon="11.0968667"><ele>592.0</ele><time>2026-03-22T11:02:40.992Z</time></trkpt><trkpt lat="44.3675017" lon="11.09673"><ele>591.0</ele><time>2026-03-22T11:02:42.992Z</time></trkpt><trkpt lat="44.36755" lon="11.0965767"><ele>590.0</ele><time>2026-03-22T11:02:44.992Z</time></trkpt><trkpt lat="44.3675833" lon="11.0965"><ele>589.0</ele><time>2026-03-22T11:02:45.989Z</time></trkpt><trkpt lat="44.3676033" lon="11.0964"><ele>588.0</ele><time>2026-03-22T11:02:46.994Z</time></trkpt><trkpt lat="44.3676" lon="11.0962933"><ele>587.0</ele><time>2026-03-22T11:02:47.989Z</time></trkpt><trkpt lat="44.3675867" lon="11.0961967"><ele>586.0</ele><time>2026-03-22T11:02:49.001Z</time></trkpt><trkpt lat="44.3675633" lon="11.0961067"><ele>586.0</ele><time>2026-03-22T11:02:49.999Z</time></trkpt><trkpt lat="44.3675417" lon="11.0959417"><ele>586.0</ele><time>2026-03-22T11:02:51.987Z</time></trkpt><trkpt lat="44.3675333" lon="11.0957733"><ele>586.0</ele><time>2026-03-22T11:02:53.993Z</time></trkpt><trkpt lat="44.36756" lon="11.0956083"><ele>586.0</ele><time>2026-03-22T11:02:55.992Z</time></trkpt><trkpt lat="44.36759" lon="11.0955283"><ele>586.0</ele><time>2026-03-22T11:02:56.993Z</time></trkpt><trkpt lat="44.36763" lon="11.09546"><ele>584.0</ele><time>2026-03-22T11:02:57.991Z</time></trkpt><trkpt lat="44.3677283" lon="11.0953933"><ele>582.0</ele><time>2026-03-22T11:02:59.992Z</time></trkpt><trkpt lat="44.36785" lon="11.095445"><ele>580.0</ele><time>2026-03-22T11:03:01.996Z</time></trkpt><trkpt lat="44.367915" lon="11.0954567"><ele>578.0</ele><time>2026-03-22T11:03:02.991Z</time></trkpt><trkpt lat="44.3680367" lon="11.0953983"><ele>576.0</ele><time>2026-03-22T11:03:04.994Z</time></trkpt><trkpt lat="44.3680917" lon="11.0953433"><ele>576.0</ele><time>2026-03-22T11:03:05.994Z</time></trkpt><trkpt lat="44.3681433" lon="11.095265"><ele>576.0</ele><time>2026-03-22T11:03:06.991Z</time></trkpt><trkpt lat="44.36819" lon="11.095185"><ele>576.0</ele><time>2026-03-22T11:03:07.992Z</time></trkpt><trkpt lat="44.3682367" lon="11.0951167"><ele>576.0</ele><time>2026-03-22T11:03:08.994Z</time></trkpt><trkpt lat="44.3683117" lon="11.0950133"><ele>576.0</ele><time>2026-03-22T11:03:10.993Z</time></trkpt><trkpt lat="44.368385" lon="11.0949667"><ele>576.0</ele><time>2026-03-22T11:03:12.988Z</time></trkpt><trkpt lat="44.3684483" lon="11.0950433"><ele>576.0</ele><time>2026-03-22T11:03:14.991Z</time></trkpt><trkpt lat="44.368515" lon="11.09514"><ele>576.0</ele><time>2026-03-22T11:03:16.993Z</time></trkpt><trkpt lat="44.3685917" lon="11.095115"><ele>576.0</ele><time>2026-03-22T11:03:18.993Z</time></trkpt><trkpt lat="44.3686367" lon="11.0949983"><ele>576.0</ele><time>2026-03-22T11:03:20.991Z</time></trkpt><trkpt lat="44.3686083" lon="11.0948733"><ele>576.0</ele><time>2026-03-22T11:03:22.996Z</time></trkpt><trkpt lat="44.3685317" lon="11.0947367"><ele>573.0</ele><time>2026-03-22T11:03:24.993Z</time></trkpt><trkpt lat="44.36849" lon="11.0945817"><ele>570.0</ele><time>2026-03-22T11:03:26.988Z</time></trkpt><trkpt lat="44.36844" lon="11.09443"><ele>567.0</ele><time>2026-03-22T11:03:28.989Z</time></trkpt><trkpt lat="44.368365" lon="11.0943367"><ele>564.0</ele><time>2026-03-22T11:03:30.988Z</time></trkpt><trkpt lat="44.368305" lon="11.0943017"><ele>561.0</ele><time>2026-03-22T11:03:31.993Z</time></trkpt><trkpt lat="44.3682433" lon="11.0942567"><ele>561.0</ele><time>2026-03-22T11:03:32.992Z</time></trkpt><trkpt lat="44.3681867" lon="11.0942067"><ele>561.0</ele><time>2026-03-22T11:03:33.991Z</time></trkpt><trkpt lat="44.3681317" lon="11.0940867"><ele>561.0</ele><time>2026-03-22T11:03:35.989Z</time></trkpt><trkpt lat="44.3681417" lon="11.0939183"><ele>561.0</ele><time>2026-03-22T11:03:37.995Z</time></trkpt><trkpt lat="44.3681517" lon="11.0938167"><ele>561.0</ele><time>2026-03-22T11:03:38.99Z</time></trkpt><trkpt lat="44.36816" lon="11.093705"><ele>561.0</ele><time>2026-03-22T11:03:39.992Z</time></trkpt><trkpt lat="44.3681617" lon="11.09358"><ele>559.8333333333334</ele><time>2026-03-22T11:03:40.993Z</time></trkpt><trkpt lat="44.3681617" lon="11.0934667"><ele>558.6666666666666</ele><time>2026-03-22T11:03:41.994Z</time></trkpt><trkpt lat="44.36816" lon="11.093365"><ele>557.5</ele><time>2026-03-22T11:03:42.991Z</time></trkpt><trkpt lat="44.368155" lon="11.09327"><ele>556.3333333333333</ele><time>2026-03-22T11:03:43.99Z</time></trkpt><trkpt lat="44.3681383" lon="11.0931817"><ele>555.1666666666666</ele><time>2026-03-22T11:03:44.995Z</time></trkpt><trkpt lat="44.3681317" lon="11.09309"><ele>554.0</ele><time>2026-03-22T11:03:45.991Z</time></trkpt><trkpt lat="44.3681433" lon="11.09293"><ele>552.25</ele><time>2026-03-22T11:03:47.991Z</time></trkpt><trkpt lat="44.368195" lon="11.09277"><ele>550.5</ele><time>2026-03-22T11:03:49.994Z</time></trkpt><trkpt lat="44.368205" lon="11.0926033"><ele>548.75</ele><time>2026-03-22T11:03:51.985Z</time></trkpt><trkpt lat="44.3682033" lon="11.092455"><ele>547.0</ele><time>2026-03-22T11:03:53.99Z</time></trkpt><trkpt lat="44.3682433" lon="11.0923133"><ele>546.3333333333334</ele><time>2026-03-22T11:03:55.989Z</time></trkpt><trkpt lat="44.3682617" lon="11.0921733"><ele>545.6666666666667</ele><time>2026-03-22T11:03:57.991Z</time></trkpt><trkpt lat="44.3682317" lon="11.09206"><ele>545.0</ele><time>2026-03-22T11:03:59.985Z</time></trkpt><trkpt lat="44.3681317" lon="11.0920617"><ele>544.3333333333334</ele><time>2026-03-22T11:04:01.987Z</time></trkpt><trkpt lat="44.3680817" lon="11.0921217"><ele>543.6666666666666</ele><time>2026-03-22T11:04:02.988Z</time></trkpt><trkpt lat="44.3680333" lon="11.0921783"><ele>543.0</ele><time>2026-03-22T11:04:03.991Z</time></trkpt><trkpt lat="44.36794" lon="11.0922317"><ele>540.6666666666666</ele><time>2026-03-22T11:04:05.99Z</time></trkpt><trkpt lat="44.3678183" lon="11.0922183"><ele>538.3333333333334</ele><time>2026-03-22T11:04:07.99Z</time></trkpt><trkpt lat="44.3677533" lon="11.092205"><ele>536.0</ele><time>2026-03-22T11:04:08.99Z</time></trkpt><trkpt lat="44.3676833" lon="11.0922067"><ele>533.6666666666667</ele><time>2026-03-22T11:04:09.989Z</time></trkpt><trkpt lat="44.36762" lon="11.0922117"><ele>531.3333333333334</ele><time>2026-03-22T11:04:10.995Z</time></trkpt><trkpt lat="44.3675233" lon="11.09216"><ele>529.0</ele><time>2026-03-22T11:04:12.999Z</time></trkpt><trkpt lat="44.367485" lon="11.0920767"><ele>529.0</ele><time>2026-03-22T11:04:13.991Z</time></trkpt><trkpt lat="44.3674067" lon="11.0919467"><ele>529.0</ele><time>2026-03-22T11:04:15.995Z</time></trkpt><trkpt lat="44.3673517" lon="11.09188"><ele>529.0</ele><time>2026-03-22T11:04:16.995Z</time></trkpt><trkpt lat="44.367295" lon="11.0918117"><ele>529.0</ele><time>2026-03-22T11:04:17.99Z</time></trkpt><trkpt lat="44.367235" lon="11.09173"><ele>529.0</ele><time>2026-03-22T11:04:18.992Z</time></trkpt><trkpt lat="44.3671933" lon="11.09163"><ele>529.0</ele><time>2026-03-22T11:04:19.991Z</time></trkpt><trkpt lat="44.3671717" lon="11.0915117"><ele>528.6</ele><time>2026-03-22T11:04:20.991Z</time></trkpt><trkpt lat="44.367165" lon="11.0913833"><ele>528.2</ele><time>2026-03-22T11:04:21.989Z</time></trkpt><trkpt lat="44.367175" lon="11.0912533"><ele>527.8000000000001</ele><time>2026-03-22T11:04:22.996Z</time></trkpt><trkpt lat="44.3671783" lon="11.0911283"><ele>527.4</ele><time>2026-03-22T11:04:23.993Z</time></trkpt><trkpt lat="44.3671883" lon="11.09101"><ele>527.0</ele><time>2026-03-22T11:04:24.992Z</time></trkpt><trkpt lat="44.3671967" lon="11.090875"><ele>527.6666666666666</ele><time>2026-03-22T11:04:25.99Z</time></trkpt><trkpt lat="44.3672017" lon="11.0907433"><ele>528.3333333333333</ele><time>2026-03-22T11:04:26.995Z</time></trkpt><trkpt lat="44.3672067" lon="11.0906267"><ele>529.0</ele><time>2026-03-22T11:04:27.993Z</time></trkpt><trkpt lat="44.367205" lon="11.0905267"><ele>529.6666666666666</ele><time>2026-03-22T11:04:28.992Z</time></trkpt><trkpt lat="44.3671417" lon="11.0903967"><ele>530.3333333333334</ele><time>2026-03-22T11:04:30.989Z</time></trkpt><trkpt lat="44.3670817" lon="11.0903383"><ele>531.0</ele><time>2026-03-22T11:04:31.99Z</time></trkpt><trkpt lat="44.367005" lon="11.09028"><ele>526.4</ele><time>2026-03-22T11:04:32.989Z</time></trkpt><trkpt lat="44.3669183" lon="11.09021"><ele>521.8</ele><time>2026-03-22T11:04:33.992Z</time></trkpt><trkpt lat="44.3668367" lon="11.0901283"><ele>517.1999999999999</ele><time>2026-03-22T11:04:34.995Z</time></trkpt><trkpt lat="44.36676" lon="11.0900517"><ele>512.6</ele><time>2026-03-22T11:04:35.992Z</time></trkpt><trkpt lat="44.3666833" lon="11.0899867"><ele>508.0</ele><time>2026-03-22T11:04:36.994Z</time></trkpt><trkpt lat="44.3666133" lon="11.08992"><ele>508.0</ele><time>2026-03-22T11:04:37.991Z</time></trkpt><trkpt lat="44.3665533" lon="11.089845"><ele>507.99999999999994</ele><time>2026-03-22T11:04:38.993Z</time></trkpt><trkpt lat="44.366505" lon="11.08976"><ele>507.99999999999994</ele><time>2026-03-22T11:04:39.99Z</time></trkpt><trkpt lat="44.366465" lon="11.0896533"><ele>508.0</ele><time>2026-03-22T11:04:40.99Z</time></trkpt><trkpt lat="44.3664317" lon="11.0895183"><ele>508.0</ele><time>2026-03-22T11:04:41.99Z</time></trkpt><trkpt lat="44.366405" lon="11.0893733"><ele>508.0</ele><time>2026-03-22T11:04:42.99Z</time></trkpt><trkpt lat="44.3663683" lon="11.08924"><ele>507.99999999999994</ele><time>2026-03-22T11:04:43.991Z</time></trkpt><trkpt lat="44.3663217" lon="11.0891117"><ele>507.99999999999994</ele><time>2026-03-22T11:04:44.991Z</time></trkpt><trkpt lat="44.3662733" lon="11.0889933"><ele>508.0</ele><time>2026-03-22T11:04:45.994Z</time></trkpt><trkpt lat="44.3662283" lon="11.0888783"><ele>508.0</ele><time>2026-03-22T11:04:46.993Z</time></trkpt><trkpt lat="44.36619" lon="11.088765"><ele>503.50000000000006</ele><time>2026-03-22T11:04:47.991Z</time></trkpt><trkpt lat="44.3661567" lon="11.0886633"><ele>499.0</ele><time>2026-03-22T11:04:48.992Z</time></trkpt><trkpt lat="44.3661317" lon="11.0885583"><ele>494.5</ele><time>2026-03-22T11:04:49.995Z</time></trkpt><trkpt lat="44.3661267" lon="11.08844"><ele>490.0</ele><time>2026-03-22T11:04:50.992Z</time></trkpt><trkpt lat="44.3661583" lon="11.0883233"><ele>485.50000000000006</ele><time>2026-03-22T11:04:51.991Z</time></trkpt><trkpt lat="44.3662033" lon="11.0882117"><ele>481.0</ele><time>2026-03-22T11:04:52.99Z</time></trkpt><trkpt lat="44.3662683" lon="11.0881"><ele>481.50000000000006</ele><time>2026-03-22T11:04:53.991Z</time></trkpt><trkpt lat="44.366335" lon="11.0879867"><ele>482.0</ele><time>2026-03-22T11:04:54.993Z</time></trkpt><trkpt lat="44.3664017" lon="11.0878883"><ele>482.5</ele><time>2026-03-22T11:04:55.996Z</time></trkpt><trkpt lat="44.3664533" lon="11.0877983"><ele>483.0</ele><time>2026-03-22T11:04:56.989Z</time></trkpt><trkpt lat="44.3664933" lon="11.0877017"><ele>483.50000000000006</ele><time>2026-03-22T11:04:57.992Z</time></trkpt><trkpt lat="44.36652" lon="11.0875967"><ele>484.0</ele><time>2026-03-22T11:04:58.992Z</time></trkpt><trkpt lat="44.366525" lon="11.0874867"><ele>482.33333333333337</ele><time>2026-03-22T11:04:59.993Z</time></trkpt><trkpt lat="44.366495" lon="11.0873917"><ele>480.6666666666667</ele><time>2026-03-22T11:05:00.991Z</time></trkpt><trkpt lat="44.36645" lon="11.08731"><ele>479.0</ele><time>2026-03-22T11:05:01.989Z</time></trkpt><trkpt lat="44.3663967" lon="11.0872483"><ele>477.33333333333337</ele><time>2026-03-22T11:05:02.992Z</time></trkpt><trkpt lat="44.3662967" lon="11.0872267"><ele>475.6666666666667</ele><time>2026-03-22T11:05:03.992Z</time></trkpt><trkpt lat="44.3661967" lon="11.0872083"><ele>474.0</ele><time>2026-03-22T11:05:04.991Z</time></trkpt><trkpt lat="44.3661017" lon="11.0871983"><ele>471.79999999999995</ele><time>2026-03-22T11:05:05.992Z</time></trkpt><trkpt lat="44.3660083" lon="11.087185"><ele>469.59999999999997</ele><time>2026-03-22T11:05:06.992Z</time></trkpt><trkpt lat="44.3659233" lon="11.0871483"><ele>467.4</ele><time>2026-03-22T11:05:07.99Z</time></trkpt><trkpt lat="44.3658417" lon="11.087065"><ele>465.2</ele><time>2026-03-22T11:05:08.991Z</time></trkpt><trkpt lat="44.3657783" lon="11.0869567"><ele>463.0</ele><time>2026-03-22T11:05:09.99Z</time></trkpt><trkpt lat="44.36574" lon="11.0868283"><ele>463.0</ele><time>2026-03-22T11:05:10.991Z</time></trkpt><trkpt lat="44.3657233" lon="11.0866933"><ele>462.99999999999994</ele><time>2026-03-22T11:05:11.99Z</time></trkpt><trkpt lat="44.36573" lon="11.08656"><ele>462.99999999999994</ele><time>2026-03-22T11:05:12.991Z</time></trkpt><trkpt lat="44.3657617" lon="11.0864217"><ele>463.0</ele><time>2026-03-22T11:05:13.999Z</time></trkpt><trkpt lat="44.3658167" lon="11.0862817"><ele>463.0</ele><time>2026-03-22T11:05:14.993Z</time></trkpt><trkpt lat="44.36588" lon="11.0861517"><ele>461.4</ele><time>2026-03-22T11:05:15.996Z</time></trkpt><trkpt lat="44.36594" lon="11.08602"><ele>459.79999999999995</ele><time>2026-03-22T11:05:16.993Z</time></trkpt><trkpt lat="44.3659983" lon="11.085885"><ele>458.2</ele><time>2026-03-22T11:05:18.002Z</time></trkpt><trkpt lat="44.3660633" lon="11.0857617"><ele>456.6</ele><time>2026-03-22T11:05:18.996Z</time></trkpt><trkpt lat="44.3661317" lon="11.0856583"><ele>455.0</ele><time>2026-03-22T11:05:19.998Z</time></trkpt><trkpt lat="44.3661933" lon="11.08556"><ele>452.6</ele><time>2026-03-22T11:05:21Z</time></trkpt><trkpt lat="44.3662283" lon="11.08545"><ele>450.2</ele><time>2026-03-22T11:05:21.995Z</time></trkpt><trkpt lat="44.3662383" lon="11.08531"><ele>447.79999999999995</ele><time>2026-03-22T11:05:22.994Z</time></trkpt><trkpt lat="44.3662433" lon="11.0851683"><ele>445.4</ele><time>2026-03-22T11:05:23.991Z</time></trkpt><trkpt lat="44.36624" lon="11.085015"><ele>443.0</ele><time>2026-03-22T11:05:24.993Z</time></trkpt><trkpt lat="44.3662583" lon="11.0848683"><ele>442.75</ele><time>2026-03-22T11:05:25.994Z</time></trkpt><trkpt lat="44.3662983" lon="11.0847267"><ele>442.5</ele><time>2026-03-22T11:05:26.993Z</time></trkpt><trkpt lat="44.3663517" lon="11.08458"><ele>442.25</ele><time>2026-03-22T11:05:27.994Z</time></trkpt><trkpt lat="44.3664083" lon="11.084425"><ele>442.0</ele><time>2026-03-22T11:05:28.995Z</time></trkpt><trkpt lat="44.36647" lon="11.0842717"><ele>442.0</ele><time>2026-03-22T11:05:29.991Z</time></trkpt><trkpt lat="44.3665333" lon="11.08412"><ele>442.0</ele><time>2026-03-22T11:05:30.993Z</time></trkpt><trkpt lat="44.3666033" lon="11.0839617"><ele>442.0</ele><time>2026-03-22T11:05:31.99Z</time></trkpt><trkpt lat="44.36667" lon="11.083795"><ele>442.0</ele><time>2026-03-22T11:05:32.995Z</time></trkpt><trkpt lat="44.366735" lon="11.0836367"><ele>439.0</ele><time>2026-03-22T11:05:33.99Z</time></trkpt><trkpt lat="44.366805" lon="11.0834817"><ele>436.0</ele><time>2026-03-22T11:05:34.99Z</time></trkpt><trkpt lat="44.3668717" lon="11.0833167"><ele>433.0</ele><time>2026-03-22T11:05:35.993Z</time></trkpt><trkpt lat="44.3669383" lon="11.0831567"><ele>430.0</ele><time>2026-03-22T11:05:36.991Z</time></trkpt><trkpt lat="44.3670033" lon="11.083"><ele>427.75</ele><time>2026-03-22T11:05:37.992Z</time></trkpt><trkpt lat="44.3670667" lon="11.0828467"><ele>425.5</ele><time>2026-03-22T11:05:38.99Z</time></trkpt><trkpt lat="44.36713" lon="11.0826983"><ele>423.25</ele><time>2026-03-22T11:05:39.992Z</time></trkpt><trkpt lat="44.36719" lon="11.08256"><ele>421.0</ele><time>2026-03-22T11:05:40.991Z</time></trkpt><trkpt lat="44.3672417" lon="11.0824283"><ele>420.0</ele><time>2026-03-22T11:05:41.994Z</time></trkpt><trkpt lat="44.36728" lon="11.0822917"><ele>419.0</ele><time>2026-03-22T11:05:42.992Z</time></trkpt><trkpt lat="44.3673133" lon="11.0821533"><ele>418.0</ele><time>2026-03-22T11:05:43.989Z</time></trkpt><trkpt lat="44.3673417" lon="11.081995"><ele>417.0</ele><time>2026-03-22T11:05:44.991Z</time></trkpt><trkpt lat="44.3673783" lon="11.0818217"><ele>417.0</ele><time>2026-03-22T11:05:45.993Z</time></trkpt><trkpt lat="44.3674167" lon="11.0816267"><ele>417.0</ele><time>2026-03-22T11:05:46.991Z</time></trkpt><trkpt lat="44.3674533" lon="11.081405"><ele>417.0</ele><time>2026-03-22T11:05:47.991Z</time></trkpt><trkpt lat="44.3674967" lon="11.08118"><ele>414.33333333333337</ele><time>2026-03-22T11:05:48.995Z</time></trkpt><trkpt lat="44.367535" lon="11.0809633"><ele>411.6666666666667</ele><time>2026-03-22T11:05:49.991Z</time></trkpt><trkpt lat="44.3675683" lon="11.0807483"><ele>409.0</ele><time>2026-03-22T11:05:50.995Z</time></trkpt><trkpt lat="44.36759" lon="11.0805333"><ele>406.6666666666667</ele><time>2026-03-22T11:05:51.991Z</time></trkpt><trkpt lat="44.367605" lon="11.0803067"><ele>404.33333333333337</ele><time>2026-03-22T11:05:52.993Z</time></trkpt><trkpt lat="44.367615" lon="11.0800567"><ele>402.0</ele><time>2026-03-22T11:05:53.993Z</time></trkpt><trkpt lat="44.367635" lon="11.0798083"><ele>399.33333333333337</ele><time>2026-03-22T11:05:54.998Z</time></trkpt><trkpt lat="44.3676583" lon="11.0795583"><ele>396.6666666666667</ele><time>2026-03-22T11:05:55.994Z</time></trkpt><trkpt lat="44.367685" lon="11.0793133"><ele>394.0</ele><time>2026-03-22T11:05:56.993Z</time></trkpt><trkpt lat="44.3677067" lon="11.07908"><ele>392.25</ele><time>2026-03-22T11:05:57.99Z</time></trkpt><trkpt lat="44.3677317" lon="11.0788667"><ele>390.5</ele><time>2026-03-22T11:05:58.992Z</time></trkpt><trkpt lat="44.3677517" lon="11.07867"><ele>388.75</ele><time>2026-03-22T11:05:59.992Z</time></trkpt><trkpt lat="44.3677767" lon="11.0785033"><ele>387.0</ele><time>2026-03-22T11:06:00.995Z</time></trkpt><trkpt lat="44.3678067" lon="11.0783483"><ele>385.5</ele><time>2026-03-22T11:06:01.986Z</time></trkpt><trkpt lat="44.3678533" lon="11.0782033"><ele>384.0</ele><time>2026-03-22T11:06:02.998Z</time></trkpt><trkpt lat="44.3679217" lon="11.0780767"><ele>382.5</ele><time>2026-03-22T11:06:03.994Z</time></trkpt><trkpt lat="44.36801" lon="11.077965"><ele>381.0</ele><time>2026-03-22T11:06:04.994Z</time></trkpt><trkpt lat="44.3681083" lon="11.0778717"><ele>381.0</ele><time>2026-03-22T11:06:05.996Z</time></trkpt><trkpt lat="44.3682117" lon="11.0778033"><ele>381.0</ele><time>2026-03-22T11:06:06.995Z</time></trkpt><trkpt lat="44.3682969" lon="11.0777599"><ele>381.0</ele><time>2026-03-22T11:06:07.986Z</time></trkpt><trkpt lat="44.3683744" lon="11.0777262"><ele>381.0</ele><time>2026-03-22T11:06:08.997Z</time></trkpt><trkpt lat="44.3684477" lon="11.0776939"><ele>381.0</ele><time>2026-03-22T11:06:09.989Z</time></trkpt><trkpt lat="44.3685152" lon="11.0776625"><ele>381.0</ele><time>2026-03-22T11:06:10.994Z</time></trkpt><trkpt lat="44.3685786" lon="11.0776424"><ele>381.0</ele><time>2026-03-22T11:06:11.99Z</time></trkpt><trkpt lat="44.3686426" lon="11.0776245"><ele>381.0</ele><time>2026-03-22T11:06:12.992Z</time></trkpt><trkpt lat="44.3687069" lon="11.0776107"><ele>381.0</ele><time>2026-03-22T11:06:13.989Z</time></trkpt><trkpt lat="44.3687689" lon="11.0775944"><ele>381.0</ele><time>2026-03-22T11:06:14.992Z</time></trkpt><trkpt lat="44.3688818" lon="11.0775576"><ele>381.0</ele><time>2026-03-22T11:06:16.997Z</time></trkpt><trkpt lat="44.3689935" lon="11.0775021"><ele>381.0</ele><time>2026-03-22T11:06:18.991Z</time></trkpt><trkpt lat="44.3690985" lon="11.0774263"><ele>380.1666666666667</ele><time>2026-03-22T11:06:20.991Z</time></trkpt><trkpt lat="44.369156" lon="11.077376"><ele>379.3333333333333</ele><time>2026-03-22T11:06:21.993Z</time></trkpt><trkpt lat="44.3692171" lon="11.077321"><ele>378.5</ele><time>2026-03-22T11:06:22.991Z</time></trkpt><trkpt lat="44.3692814" lon="11.0772606"><ele>377.66666666666663</ele><time>2026-03-22T11:06:23.992Z</time></trkpt><trkpt lat="44.3693495" lon="11.0772017"><ele>376.8333333333333</ele><time>2026-03-22T11:06:24.991Z</time></trkpt><trkpt lat="44.3694206" lon="11.0771238"><ele>376.0</ele><time>2026-03-22T11:06:25.992Z</time></trkpt><trkpt lat="44.3694986" lon="11.077039"><ele>376.0</ele><time>2026-03-22T11:06:26.99Z</time></trkpt><trkpt lat="44.3695836" lon="11.0769449"><ele>376.0</ele><time>2026-03-22T11:06:27.991Z</time></trkpt><trkpt lat="44.3696713" lon="11.0768413"><ele>376.0</ele><time>2026-03-22T11:06:28.99Z</time></trkpt><trkpt lat="44.3697604" lon="11.0767316"><ele>376.0</ele><time>2026-03-22T11:06:29.991Z</time></trkpt><trkpt lat="44.3698531" lon="11.0766205"><ele>374.0</ele><time>2026-03-22T11:06:30.996Z</time></trkpt><trkpt lat="44.3699467" lon="11.0765078"><ele>372.0</ele><time>2026-03-22T11:06:31.995Z</time></trkpt><trkpt lat="44.3700415" lon="11.0763952"><ele>370.0</ele><time>2026-03-22T11:06:32.996Z</time></trkpt><trkpt lat="44.3701318" lon="11.0762782"><ele>368.0</ele><time>2026-03-22T11:06:33.995Z</time></trkpt><trkpt lat="44.3702204" lon="11.0761567"><ele>368.0</ele><time>2026-03-22T11:06:34.99Z</time></trkpt><trkpt lat="44.3703037" lon="11.0760319"><ele>368.0</ele><time>2026-03-22T11:06:35.99Z</time></trkpt><trkpt lat="44.3703879" lon="11.0759151"><ele>368.0</ele><time>2026-03-22T11:06:36.994Z</time></trkpt><trkpt lat="44.3704634" lon="11.0758062"><ele>368.0</ele><time>2026-03-22T11:06:37.99Z</time></trkpt><trkpt lat="44.3705291" lon="11.0756941"><ele>366.0</ele><time>2026-03-22T11:06:38.994Z</time></trkpt><trkpt lat="44.3705816" lon="11.0755684"><ele>364.0</ele><time>2026-03-22T11:06:39.993Z</time></trkpt><trkpt lat="44.37061" lon="11.0754017"><ele>362.0</ele><time>2026-03-22T11:06:40.994Z</time></trkpt><trkpt lat="44.3706317" lon="11.075225"><ele>360.0</ele><time>2026-03-22T11:06:41.993Z</time></trkpt><trkpt lat="44.3706517" lon="11.0750567"><ele>358.2</ele><time>2026-03-22T11:06:42.992Z</time></trkpt><trkpt lat="44.3706717" lon="11.0749"><ele>356.4</ele><time>2026-03-22T11:06:44.001Z</time></trkpt><trkpt lat="44.37069" lon="11.07476"><ele>354.6</ele><time>2026-03-22T11:06:44.996Z</time></trkpt><trkpt lat="44.3707117" lon="11.0746283"><ele>352.8</ele><time>2026-03-22T11:06:45.99Z</time></trkpt><trkpt lat="44.3707367" lon="11.0745283"><ele>351.0</ele><time>2026-03-22T11:06:46.993Z</time></trkpt><trkpt lat="44.3708317" lon="11.0744167"><ele>351.0</ele><time>2026-03-22T11:06:48.99Z</time></trkpt><trkpt lat="44.3709017" lon="11.07438"><ele>351.0</ele><time>2026-03-22T11:06:49.99Z</time></trkpt><trkpt lat="44.37097" lon="11.0743583"><ele>351.0</ele><time>2026-03-22T11:06:50.996Z</time></trkpt><trkpt lat="44.3710367" lon="11.0743433"><ele>351.0</ele><time>2026-03-22T11:06:51.99Z</time></trkpt><trkpt lat="44.3710733" lon="11.0742433"><ele>351.0</ele><time>2026-03-22T11:06:53.992Z</time></trkpt><trkpt lat="44.37096" lon="11.0741783"><ele>351.0</ele><time>2026-03-22T11:06:55.992Z</time></trkpt><trkpt lat="44.3708617" lon="11.07419"><ele>351.0</ele><time>2026-03-22T11:06:56.992Z</time></trkpt><trkpt lat="44.37075" lon="11.0742017"><ele>351.0</ele><time>2026-03-22T11:06:57.994Z</time></trkpt><trkpt lat="44.3706467" lon="11.0742167"><ele>351.0</ele><time>2026-03-22T11:06:58.991Z</time></trkpt><trkpt lat="44.3705517" lon="11.0742633"><ele>351.0</ele><time>2026-03-22T11:06:59.992Z</time></trkpt><trkpt lat="44.3704717" lon="11.0743333"><ele>351.0</ele><time>2026-03-22T11:07:00.989Z</time></trkpt><trkpt lat="44.3704033" lon="11.07442"><ele>349.6</ele><time>2026-03-22T11:07:01.993Z</time></trkpt><trkpt lat="44.37035" lon="11.074505"><ele>348.20000000000005</ele><time>2026-03-22T11:07:02.992Z</time></trkpt><trkpt lat="44.370305" lon="11.07458"><ele>346.79999999999995</ele><time>2026-03-22T11:07:03.994Z</time></trkpt><trkpt lat="44.3702233" lon="11.0746033"><ele>345.4</ele><time>2026-03-22T11:07:05.994Z</time></trkpt><trkpt lat="44.370165" lon="11.0744917"><ele>344.0</ele><time>2026-03-22T11:07:07.993Z</time></trkpt><trkpt lat="44.3701967" lon="11.0743167"><ele>344.0</ele><time>2026-03-22T11:07:09.992Z</time></trkpt><trkpt lat="44.37026" lon="11.0742"><ele>344.0</ele><time>2026-03-22T11:07:10.991Z</time></trkpt><trkpt lat="44.370355" lon="11.0740683"><ele>344.0</ele><time>2026-03-22T11:07:11.99Z</time></trkpt><trkpt lat="44.3704633" lon="11.0739383"><ele>344.0</ele><time>2026-03-22T11:07:12.991Z</time></trkpt><trkpt lat="44.3705683" lon="11.0738183"><ele>341.25</ele><time>2026-03-22T11:07:13.99Z</time></trkpt><trkpt lat="44.370675" lon="11.0737183"><ele>338.5</ele><time>2026-03-22T11:07:14.995Z</time></trkpt><trkpt lat="44.3707767" lon="11.07363"><ele>335.75</ele><time>2026-03-22T11:07:15.994Z</time></trkpt><trkpt lat="44.370875" lon="11.0735517"><ele>333.0</ele><time>2026-03-22T11:07:16.989Z</time></trkpt><trkpt lat="44.3709767" lon="11.0734733"><ele>333.0</ele><time>2026-03-22T11:07:17.992Z</time></trkpt><trkpt lat="44.3710733" lon="11.0733967"><ele>333.0</ele><time>2026-03-22T11:07:18.993Z</time></trkpt><trkpt lat="44.3711617" lon="11.0733133"><ele>333.0</ele><time>2026-03-22T11:07:19.992Z</time></trkpt><trkpt lat="44.3712483" lon="11.0732033"><ele>333.0</ele><time>2026-03-22T11:07:20.99Z</time></trkpt><trkpt lat="44.37133" lon="11.0730667"><ele>331.5</ele><time>2026-03-22T11:07:21.99Z</time></trkpt><trkpt lat="44.3714083" lon="11.0729267"><ele>330.0</ele><time>2026-03-22T11:07:22.991Z</time></trkpt><trkpt lat="44.3714817" lon="11.0727883"><ele>328.5</ele><time>2026-03-22T11:07:23.99Z</time></trkpt><trkpt lat="44.371545" lon="11.0726517"><ele>327.0</ele><time>2026-03-22T11:07:24.992Z</time></trkpt><trkpt lat="44.3716083" lon="11.072515"><ele>325.75</ele><time>2026-03-22T11:07:25.99Z</time></trkpt><trkpt lat="44.3716683" lon="11.0723667"><ele>324.5</ele><time>2026-03-22T11:07:26.991Z</time></trkpt><trkpt lat="44.37172" lon="11.0722083"><ele>323.25</ele><time>2026-03-22T11:07:27.99Z</time></trkpt><trkpt lat="44.3717683" lon="11.07204"><ele>322.0</ele><time>2026-03-22T11:07:28.991Z</time></trkpt><trkpt lat="44.37181" lon="11.07187"><ele>322.0</ele><time>2026-03-22T11:07:29.991Z</time></trkpt><trkpt lat="44.3718483" lon="11.071705"><ele>322.0</ele><time>2026-03-22T11:07:30.994Z</time></trkpt><trkpt lat="44.3718767" lon="11.07156"><ele>322.0</ele><time>2026-03-22T11:07:31.992Z</time></trkpt><trkpt lat="44.3718983" lon="11.0714283"><ele>322.0</ele><time>2026-03-22T11:07:32.997Z</time></trkpt><trkpt lat="44.3719167" lon="11.0713133"><ele>322.0</ele><time>2026-03-22T11:07:33.989Z</time></trkpt><trkpt lat="44.371935" lon="11.071215"><ele>322.66666666666663</ele><time>2026-03-22T11:07:34.989Z</time></trkpt><trkpt lat="44.37195" lon="11.0711267"><ele>323.3333333333333</ele><time>2026-03-22T11:07:35.992Z</time></trkpt><trkpt lat="44.3719617" lon="11.0710383"><ele>324.0</ele><time>2026-03-22T11:07:36.992Z</time></trkpt><trkpt lat="44.3719733" lon="11.0709"><ele>324.6666666666667</ele><time>2026-03-22T11:07:38.989Z</time></trkpt><trkpt lat="44.3719783" lon="11.07078"><ele>325.33333333333337</ele><time>2026-03-22T11:07:40.992Z</time></trkpt><trkpt lat="44.3719817" lon="11.0706583"><ele>326.0</ele><time>2026-03-22T11:07:42.995Z</time></trkpt><trkpt lat="44.372" lon="11.07051"><ele>326.0</ele><time>2026-03-22T11:07:44.99Z</time></trkpt><trkpt lat="44.372005" lon="11.070405"><ele>326.0</ele><time>2026-03-22T11:07:45.991Z</time></trkpt><trkpt lat="44.3720167" lon="11.0703"><ele>326.0</ele><time>2026-03-22T11:07:46.99Z</time></trkpt><trkpt lat="44.37203" lon="11.0701967"><ele>326.0</ele><time>2026-03-22T11:07:47.989Z</time></trkpt><trkpt lat="44.3720417" lon="11.0700917"><ele>326.0</ele><time>2026-03-22T11:07:49.002Z</time></trkpt><trkpt lat="44.3720483" lon="11.0699917"><ele>326.0</ele><time>2026-03-22T11:07:49.992Z</time></trkpt><trkpt lat="44.3720567" lon="11.0698933"><ele>326.0</ele><time>2026-03-22T11:07:50.995Z</time></trkpt><trkpt lat="44.3720583" lon="11.0697917"><ele>325.83333333333337</ele><time>2026-03-22T11:07:51.992Z</time></trkpt><trkpt lat="44.3720617" lon="11.0696967"><ele>325.6666666666667</ele><time>2026-03-22T11:07:52.989Z</time></trkpt><trkpt lat="44.3720833" lon="11.0695917"><ele>325.5</ele><time>2026-03-22T11:07:53.993Z</time></trkpt><trkpt lat="44.3721167" lon="11.0694783"><ele>325.3333333333333</ele><time>2026-03-22T11:07:54.991Z</time></trkpt><trkpt lat="44.3721517" lon="11.0693583"><ele>325.16666666666663</ele><time>2026-03-22T11:07:55.994Z</time></trkpt><trkpt lat="44.3721883" lon="11.0692367"><ele>325.0</ele><time>2026-03-22T11:07:56.996Z</time></trkpt><trkpt lat="44.3722267" lon="11.0691033"><ele>323.0</ele><time>2026-03-22T11:07:57.992Z</time></trkpt><trkpt lat="44.372265" lon="11.06897"><ele>321.0</ele><time>2026-03-22T11:07:58.989Z</time></trkpt><trkpt lat="44.3723133" lon="11.0688383"><ele>319.0</ele><time>2026-03-22T11:07:59.99Z</time></trkpt><trkpt lat="44.3723667" lon="11.0687067"><ele>317.0</ele><time>2026-03-22T11:08:00.995Z</time></trkpt><trkpt lat="44.3724233" lon="11.0685767"><ele>315.0</ele><time>2026-03-22T11:08:01.992Z</time></trkpt><trkpt lat="44.3724817" lon="11.06845"><ele>315.0</ele><time>2026-03-22T11:08:02.993Z</time></trkpt><trkpt lat="44.3725467" lon="11.0683367"><ele>315.0</ele><time>2026-03-22T11:08:03.99Z</time></trkpt><trkpt lat="44.372615" lon="11.068225"><ele>315.0</ele><time>2026-03-22T11:08:04.991Z</time></trkpt><trkpt lat="44.37269" lon="11.0681183"><ele>315.0</ele><time>2026-03-22T11:08:05.994Z</time></trkpt><trkpt lat="44.3727633" lon="11.0680117"><ele>315.0</ele><time>2026-03-22T11:08:06.99Z</time></trkpt><trkpt lat="44.37283" lon="11.0679033"><ele>314.0</ele><time>2026-03-22T11:08:07.994Z</time></trkpt><trkpt lat="44.3728917" lon="11.067795"><ele>313.0</ele><time>2026-03-22T11:08:08.991Z</time></trkpt><trkpt lat="44.37295" lon="11.0676967"><ele>312.0</ele><time>2026-03-22T11:08:09.99Z</time></trkpt><trkpt lat="44.373015" lon="11.0676033"><ele>311.0</ele><time>2026-03-22T11:08:10.991Z</time></trkpt><trkpt lat="44.3730833" lon="11.0675233"><ele>310.0</ele><time>2026-03-22T11:08:11.991Z</time></trkpt><trkpt lat="44.37316" lon="11.06746"><ele>307.8333333333333</ele><time>2026-03-22T11:08:12.99Z</time></trkpt><trkpt lat="44.3732367" lon="11.0674067"><ele>305.66666666666663</ele><time>2026-03-22T11:08:13.99Z</time></trkpt><trkpt lat="44.3733133" lon="11.0673617"><ele>303.5</ele><time>2026-03-22T11:08:14.992Z</time></trkpt><trkpt lat="44.3733883" lon="11.0673183"><ele>301.3333333333333</ele><time>2026-03-22T11:08:15.992Z</time></trkpt><trkpt lat="44.3734717" lon="11.0672883"><ele>299.1666666666667</ele><time>2026-03-22T11:08:16.995Z</time></trkpt><trkpt lat="44.3735667" lon="11.0672767"><ele>297.0</ele><time>2026-03-22T11:08:17.987Z</time></trkpt><trkpt lat="44.3736683" lon="11.0672733"><ele>297.0</ele><time>2026-03-22T11:08:18.991Z</time></trkpt><trkpt lat="44.3737733" lon="11.0672683"><ele>297.0</ele><time>2026-03-22T11:08:19.988Z</time></trkpt><trkpt lat="44.3738817" lon="11.0672633"><ele>297.0</ele><time>2026-03-22T11:08:20.991Z</time></trkpt><trkpt lat="44.3739883" lon="11.0672533"><ele>297.0</ele><time>2026-03-22T11:08:21.992Z</time></trkpt><trkpt lat="44.3740933" lon="11.0672467"><ele>297.0</ele><time>2026-03-22T11:08:22.994Z</time></trkpt><trkpt lat="44.3742" lon="11.0672383"><ele>296.8</ele><time>2026-03-22T11:08:23.991Z</time></trkpt><trkpt lat="44.3743067" lon="11.0672367"><ele>296.6</ele><time>2026-03-22T11:08:24.988Z</time></trkpt><trkpt lat="44.374415" lon="11.06724"><ele>296.40000000000003</ele><time>2026-03-22T11:08:25.993Z</time></trkpt><trkpt lat="44.3745283" lon="11.06725"><ele>296.2</ele><time>2026-03-22T11:08:26.994Z</time></trkpt><trkpt lat="44.3746417" lon="11.0672533"><ele>296.0</ele><time>2026-03-22T11:08:27.994Z</time></trkpt><trkpt lat="44.3747517" lon="11.0672617"><ele>296.6</ele><time>2026-03-22T11:08:28.991Z</time></trkpt><trkpt lat="44.3748567" lon="11.0672767"><ele>297.20000000000005</ele><time>2026-03-22T11:08:29.993Z</time></trkpt><trkpt lat="44.3749583" lon="11.0672917"><ele>297.79999999999995</ele><time>2026-03-22T11:08:30.989Z</time></trkpt><trkpt lat="44.3750583" lon="11.0672933"><ele>298.4</ele><time>2026-03-22T11:08:31.995Z</time></trkpt><trkpt lat="44.375155" lon="11.0672967"><ele>299.0</ele><time>2026-03-22T11:08:32.997Z</time></trkpt><trkpt lat="44.3752483" lon="11.0673117"><ele>299.0</ele><time>2026-03-22T11:08:33.995Z</time></trkpt><trkpt lat="44.37534" lon="11.06734"><ele>299.0</ele><time>2026-03-22T11:08:34.992Z</time></trkpt><trkpt lat="44.3754317" lon="11.0673867"><ele>299.0</ele><time>2026-03-22T11:08:35.994Z</time></trkpt><trkpt lat="44.3755217" lon="11.0674567"><ele>299.0</ele><time>2026-03-22T11:08:36.993Z</time></trkpt><trkpt lat="44.3755967" lon="11.0675383"><ele>299.0</ele><time>2026-03-22T11:08:37.995Z</time></trkpt><trkpt lat="44.3756667" lon="11.0676067"><ele>298.6666666666667</ele><time>2026-03-22T11:08:38.995Z</time></trkpt><trkpt lat="44.3757333" lon="11.0676733"><ele>298.33333333333337</ele><time>2026-03-22T11:08:39.994Z</time></trkpt><trkpt lat="44.3758" lon="11.0677333"><ele>298.0</ele><time>2026-03-22T11:08:40.993Z</time></trkpt><trkpt lat="44.3758533" lon="11.0677817"><ele>297.6666666666667</ele><time>2026-03-22T11:08:41.992Z</time></trkpt><trkpt lat="44.3759333" lon="11.067855"><ele>297.3333333333333</ele><time>2026-03-22T11:08:43.996Z</time></trkpt><trkpt lat="44.3760083" lon="11.0678867"><ele>297.0</ele><time>2026-03-22T11:08:46.994Z</time></trkpt><trkpt lat="44.3760317" lon="11.0677917"><ele>297.0</ele><time>2026-03-22T11:09:37.998Z</time></trkpt><trkpt lat="44.3759533" lon="11.0677383"><ele>297.0</ele><time>2026-03-22T11:09:39.993Z</time></trkpt><trkpt lat="44.37589" lon="11.0677083"><ele>297.0</ele><time>2026-03-22T11:09:40.989Z</time></trkpt><trkpt lat="44.37582" lon="11.0676633"><ele>297.0</ele><time>2026-03-22T11:09:41.99Z</time></trkpt><trkpt lat="44.3757483" lon="11.0675967"><ele>297.0</ele><time>2026-03-22T11:09:42.992Z</time></trkpt><trkpt lat="44.375685" lon="11.067535"><ele>297.0</ele><time>2026-03-22T11:09:43.99Z</time></trkpt><trkpt lat="44.3756183" lon="11.0674767"><ele>297.2857142857143</ele><time>2026-03-22T11:09:44.999Z</time></trkpt><trkpt lat="44.375555" lon="11.0674217"><ele>297.5714285714286</ele><time>2026-03-22T11:09:45.995Z</time></trkpt><trkpt lat="44.3754933" lon="11.0673683"><ele>297.8571428571429</ele><time>2026-03-22T11:09:46.992Z</time></trkpt><trkpt lat="44.3754317" lon="11.0673233"><ele>298.14285714285717</ele><time>2026-03-22T11:09:47.989Z</time></trkpt><trkpt lat="44.3753667" lon="11.0672917"><ele>298.42857142857144</ele><time>2026-03-22T11:09:48.992Z</time></trkpt><trkpt lat="44.3752983" lon="11.06727"><ele>298.7142857142857</ele><time>2026-03-22T11:09:49.993Z</time></trkpt><trkpt lat="44.3752217" lon="11.0672483"><ele>299.0</ele><time>2026-03-22T11:09:50.996Z</time></trkpt><trkpt lat="44.37514" lon="11.06725"><ele>299.0</ele><time>2026-03-22T11:09:51.992Z</time></trkpt><trkpt lat="44.3750467" lon="11.0672583"><ele>299.0</ele><time>2026-03-22T11:09:52.999Z</time></trkpt><trkpt lat="44.37495" lon="11.06725"><ele>299.0</ele><time>2026-03-22T11:09:53.992Z</time></trkpt><trkpt lat="44.3748483" lon="11.06723"><ele>299.0</ele><time>2026-03-22T11:09:54.995Z</time></trkpt><trkpt lat="44.3747467" lon="11.06722"><ele>299.0</ele><time>2026-03-22T11:09:55.993Z</time></trkpt><trkpt lat="44.3746467" lon="11.0672083"><ele>298.4</ele><time>2026-03-22T11:09:56.989Z</time></trkpt><trkpt lat="44.374545" lon="11.0672"><ele>297.79999999999995</ele><time>2026-03-22T11:09:57.995Z</time></trkpt><trkpt lat="44.3744433" lon="11.067195"><ele>297.20000000000005</ele><time>2026-03-22T11:09:58.99Z</time></trkpt><trkpt lat="44.3743383" lon="11.067205"><ele>296.6</ele><time>2026-03-22T11:09:59.992Z</time></trkpt><trkpt lat="44.37423" lon="11.0672167"><ele>296.0</ele><time>2026-03-22T11:10:00.991Z</time></trkpt><trkpt lat="44.3741233" lon="11.0672183"><ele>296.0</ele><time>2026-03-22T11:10:01.993Z</time></trkpt><trkpt lat="44.37402" lon="11.0672267"><ele>296.0</ele><time>2026-03-22T11:10:02.993Z</time></trkpt><trkpt lat="44.373915" lon="11.0672333"><ele>296.0</ele><time>2026-03-22T11:10:03.993Z</time></trkpt><trkpt lat="44.3738133" lon="11.0672417"><ele>296.0</ele><time>2026-03-22T11:10:04.991Z</time></trkpt><trkpt lat="44.3737217" lon="11.0672483"><ele>296.0</ele><time>2026-03-22T11:10:05.991Z</time></trkpt><trkpt lat="44.3736417" lon="11.0672483"><ele>296.1666666666667</ele><time>2026-03-22T11:10:06.991Z</time></trkpt><trkpt lat="44.373565" lon="11.06725"><ele>296.33333333333337</ele><time>2026-03-22T11:10:07.99Z</time></trkpt><trkpt lat="44.3734933" lon="11.0672533"><ele>296.5</ele><time>2026-03-22T11:10:08.993Z</time></trkpt><trkpt lat="44.3734283" lon="11.067255"><ele>296.6666666666667</ele><time>2026-03-22T11:10:09.992Z</time></trkpt><trkpt lat="44.3733467" lon="11.06727"><ele>296.8333333333333</ele><time>2026-03-22T11:10:11.991Z</time></trkpt><trkpt lat="44.3734367" lon="11.0672833"><ele>297.0</ele><time>2026-03-22T11:10:17.991Z</time></trkpt><trkpt lat="44.3735133" lon="11.0672583"><ele>297.0</ele><time>2026-03-22T11:10:18.99Z</time></trkpt><trkpt lat="44.3735917" lon="11.0672433"><ele>297.0</ele><time>2026-03-22T11:10:19.992Z</time></trkpt><trkpt lat="44.373695" lon="11.0672233"><ele>297.0</ele><time>2026-03-22T11:10:20.993Z</time></trkpt><trkpt lat="44.3738067" lon="11.06721"><ele>297.0</ele><time>2026-03-22T11:10:21.994Z</time></trkpt><trkpt lat="44.3739217" lon="11.067195"><ele>297.0</ele><time>2026-03-22T11:10:22.99Z</time></trkpt><trkpt lat="44.3740367" lon="11.0671833"><ele>296.75</ele><time>2026-03-22T11:10:23.989Z</time></trkpt><trkpt lat="44.3741567" lon="11.0671717"><ele>296.5</ele><time>2026-03-22T11:10:24.99Z</time></trkpt><trkpt lat="44.3742767" lon="11.06716"><ele>296.25</ele><time>2026-03-22T11:10:25.99Z</time></trkpt><trkpt lat="44.3744083" lon="11.0671617"><ele>296.0</ele><time>2026-03-22T11:10:26.994Z</time></trkpt><trkpt lat="44.3745433" lon="11.0671783"><ele>296.0</ele><time>2026-03-22T11:10:27.99Z</time></trkpt><trkpt lat="44.374675" lon="11.0672017"><ele>296.0</ele><time>2026-03-22T11:10:28.992Z</time></trkpt><trkpt lat="44.3747967" lon="11.0672183"><ele>296.0</ele><time>2026-03-22T11:10:29.994Z</time></trkpt><trkpt lat="44.37491" lon="11.0672283"><ele>296.0</ele><time>2026-03-22T11:10:30.988Z</time></trkpt><trkpt lat="44.3750217" lon="11.0672333"><ele>296.6</ele><time>2026-03-22T11:10:31.995Z</time></trkpt><trkpt lat="44.37513" lon="11.06724"><ele>297.20000000000005</ele><time>2026-03-22T11:10:32.99Z</time></trkpt><trkpt lat="44.3752367" lon="11.0672617"><ele>297.79999999999995</ele><time>2026-03-22T11:10:33.988Z</time></trkpt><trkpt lat="44.37534" lon="11.067295"><ele>298.4</ele><time>2026-03-22T11:10:34.99Z</time></trkpt><trkpt lat="44.3754433" lon="11.0673517"><ele>299.0</ele><time>2026-03-22T11:10:35.995Z</time></trkpt><trkpt lat="44.3755367" lon="11.067425"><ele>298.59999999999997</ele><time>2026-03-22T11:10:36.991Z</time></trkpt><trkpt lat="44.3756217" lon="11.0675033"><ele>298.2</ele><time>2026-03-22T11:10:37.988Z</time></trkpt><trkpt lat="44.3757017" lon="11.0675817"><ele>297.79999999999995</ele><time>2026-03-22T11:10:38.989Z</time></trkpt><trkpt lat="44.3757717" lon="11.06765"><ele>297.4</ele><time>2026-03-22T11:10:39.989Z</time></trkpt><trkpt lat="44.375835" lon="11.0677017"><ele>297.0</ele><time>2026-03-22T11:10:40.99Z</time></trkpt><trkpt lat="44.37593" lon="11.0677733"><ele>297.0</ele><time>2026-03-22T11:10:42.988Z</time></trkpt><trkpt lat="44.3760217" lon="11.067765"><ele>297.0</ele><time>2026-03-22T11:10:44.993Z</time></trkpt><trkpt lat="44.3760717" lon="11.0676333"><ele>297.0</ele><time>2026-03-22T11:10:46.992Z</time></trkpt><trkpt lat="44.3761017" lon="11.0675317"><ele>297.0</ele><time>2026-03-22T11:10:47.989Z</time></trkpt><trkpt lat="44.3761417" lon="11.0674117"><ele>297.0</ele><time>2026-03-22T11:10:48.995Z</time></trkpt><trkpt lat="44.3761833" lon="11.0672933"><ele>297.7142857142857</ele><time>2026-03-22T11:10:49.989Z</time></trkpt><trkpt lat="44.3762183" lon="11.0671833"><ele>298.42857142857144</ele><time>2026-03-22T11:10:50.996Z</time></trkpt><trkpt lat="44.3762533" lon="11.06708"><ele>299.14285714285717</ele><time>2026-03-22T11:10:51.991Z</time></trkpt><trkpt lat="44.3762833" lon="11.0669867"><ele>299.8571428571429</ele><time>2026-03-22T11:10:52.989Z</time></trkpt><trkpt lat="44.3763183" lon="11.0669033"><ele>300.57142857142856</ele><time>2026-03-22T11:10:53.993Z</time></trkpt><trkpt lat="44.3763667" lon="11.0668417"><ele>301.28571428571433</ele><time>2026-03-22T11:10:54.993Z</time></trkpt><trkpt lat="44.3764233" lon="11.0668017"><ele>302.0</ele><time>2026-03-22T11:10:55.995Z</time></trkpt><trkpt lat="44.3764883" lon="11.0667833"><ele>302.8</ele><time>2026-03-22T11:10:56.996Z</time></trkpt><trkpt lat="44.3765633" lon="11.066785"><ele>303.6</ele><time>2026-03-22T11:10:57.987Z</time></trkpt><trkpt lat="44.376655" lon="11.0668133"><ele>304.40000000000003</ele><time>2026-03-22T11:10:58.992Z</time></trkpt><trkpt lat="44.3767517" lon="11.066855"><ele>305.2</ele><time>2026-03-22T11:10:59.991Z</time></trkpt><trkpt lat="44.3768567" lon="11.0669033"><ele>306.0</ele><time>2026-03-22T11:11:00.994Z</time></trkpt><trkpt lat="44.3769783" lon="11.0669533"><ele>306.0</ele><time>2026-03-22T11:11:01.991Z</time></trkpt><trkpt lat="44.377095" lon="11.0670067"><ele>306.0</ele><time>2026-03-22T11:11:03Z</time></trkpt><trkpt lat="44.377205" lon="11.06706"><ele>306.0</ele><time>2026-03-22T11:11:03.989Z</time></trkpt><trkpt lat="44.3773017" lon="11.0671167"><ele>306.0</ele><time>2026-03-22T11:11:04.989Z</time></trkpt><trkpt lat="44.3774033" lon="11.0671817"><ele>308.0</ele><time>2026-03-22T11:11:05.992Z</time></trkpt><trkpt lat="44.37751" lon="11.067265"><ele>310.0</ele><time>2026-03-22T11:11:06.99Z</time></trkpt><trkpt lat="44.37763" lon="11.0673633"><ele>312.0</ele><time>2026-03-22T11:11:07.994Z</time></trkpt><trkpt lat="44.3777483" lon="11.0674667"><ele>314.0</ele><time>2026-03-22T11:11:08.998Z</time></trkpt><trkpt lat="44.377865" lon="11.0675717"><ele>313.0</ele><time>2026-03-22T11:11:09.993Z</time></trkpt><trkpt lat="44.3779783" lon="11.067675"><ele>312.0</ele><time>2026-03-22T11:11:10.989Z</time></trkpt><trkpt lat="44.3780867" lon="11.0677667"><ele>311.0</ele><time>2026-03-22T11:11:11.993Z</time></trkpt><trkpt lat="44.3781983" lon="11.0678583"><ele>310.0</ele><time>2026-03-22T11:11:12.993Z</time></trkpt><trkpt lat="44.3783183" lon="11.0679433"><ele>310.0</ele><time>2026-03-22T11:11:13.991Z</time></trkpt><trkpt lat="44.3784383" lon="11.06802"><ele>310.0</ele><time>2026-03-22T11:11:14.99Z</time></trkpt><trkpt lat="44.378555" lon="11.068085"><ele>310.0</ele><time>2026-03-22T11:11:15.991Z</time></trkpt><trkpt lat="44.3786683" lon="11.0681517"><ele>310.0</ele><time>2026-03-22T11:11:16.988Z</time></trkpt><trkpt lat="44.37879" lon="11.06822"><ele>307.75</ele><time>2026-03-22T11:11:17.994Z</time></trkpt><trkpt lat="44.37891" lon="11.0682917"><ele>305.5</ele><time>2026-03-22T11:11:18.99Z</time></trkpt><trkpt lat="44.3790233" lon="11.0683567"><ele>303.25</ele><time>2026-03-22T11:11:19.99Z</time></trkpt><trkpt lat="44.3791367" lon="11.068415"><ele>301.0</ele><time>2026-03-22T11:11:20.989Z</time></trkpt><trkpt lat="44.37925" lon="11.068475"><ele>301.0</ele><time>2026-03-22T11:11:21.994Z</time></trkpt><trkpt lat="44.3793583" lon="11.0685333"><ele>301.0</ele><time>2026-03-22T11:11:22.99Z</time></trkpt><trkpt lat="44.3794567" lon="11.0685833"><ele>301.0</ele><time>2026-03-22T11:11:23.991Z</time></trkpt><trkpt lat="44.37954" lon="11.0686233"><ele>301.0</ele><time>2026-03-22T11:11:24.995Z</time></trkpt><trkpt lat="44.3796117" lon="11.0686517"><ele>301.0</ele><time>2026-03-22T11:11:25.994Z</time></trkpt><trkpt lat="44.3797217" lon="11.0687083"><ele>300.40000000000003</ele><time>2026-03-22T11:11:27.988Z</time></trkpt><trkpt lat="44.3797783" lon="11.06877"><ele>299.8</ele><time>2026-03-22T11:11:28.993Z</time></trkpt><trkpt lat="44.379845" lon="11.06886"><ele>299.20000000000005</ele><time>2026-03-22T11:11:29.993Z</time></trkpt><trkpt lat="44.3799317" lon="11.0689733"><ele>298.6</ele><time>2026-03-22T11:11:30.99Z</time></trkpt><trkpt lat="44.3800167" lon="11.069095"><ele>298.0</ele><time>2026-03-22T11:11:31.994Z</time></trkpt><trkpt lat="44.3801017" lon="11.0692167"><ele>295.75</ele><time>2026-03-22T11:11:32.991Z</time></trkpt><trkpt lat="44.3801933" lon="11.069335"><ele>293.5</ele><time>2026-03-22T11:11:33.991Z</time></trkpt><trkpt lat="44.3802883" lon="11.0694533"><ele>291.25</ele><time>2026-03-22T11:11:34.989Z</time></trkpt><trkpt lat="44.380375" lon="11.0695733"><ele>289.0</ele><time>2026-03-22T11:11:35.991Z</time></trkpt><trkpt lat="44.3804583" lon="11.0696817"><ele>289.0</ele><time>2026-03-22T11:11:36.992Z</time></trkpt><trkpt lat="44.3805383" lon="11.0697883"><ele>289.0</ele><time>2026-03-22T11:11:37.991Z</time></trkpt><trkpt lat="44.3806117" lon="11.0698933"><ele>289.0</ele><time>2026-03-22T11:11:38.996Z</time></trkpt><trkpt lat="44.380665" lon="11.0700117"><ele>289.0</ele><time>2026-03-22T11:11:39.99Z</time></trkpt><trkpt lat="44.38069" lon="11.0701533"><ele>289.0</ele><time>2026-03-22T11:11:40.988Z</time></trkpt><trkpt lat="44.3807067" lon="11.07031"><ele>288.2</ele><time>2026-03-22T11:11:41.99Z</time></trkpt><trkpt lat="44.3807317" lon="11.0704633"><ele>287.4</ele><time>2026-03-22T11:11:42.993Z</time></trkpt><trkpt lat="44.3807767" lon="11.070605"><ele>286.6</ele><time>2026-03-22T11:11:43.994Z</time></trkpt><trkpt lat="44.38083" lon="11.0707317"><ele>285.8</ele><time>2026-03-22T11:11:44.996Z</time></trkpt><trkpt lat="44.3809133" lon="11.07083"><ele>285.0</ele><time>2026-03-22T11:11:45.992Z</time></trkpt><trkpt lat="44.3810083" lon="11.0709083"><ele>283.75</ele><time>2026-03-22T11:11:46.992Z</time></trkpt><trkpt lat="44.38112" lon="11.0709733"><ele>282.5</ele><time>2026-03-22T11:11:47.991Z</time></trkpt><trkpt lat="44.3812433" lon="11.0710333"><ele>281.25</ele><time>2026-03-22T11:11:48.994Z</time></trkpt><trkpt lat="44.3813667" lon="11.071095"><ele>280.0</ele><time>2026-03-22T11:11:49.99Z</time></trkpt><trkpt lat="44.381495" lon="11.0711583"><ele>279.75</ele><time>2026-03-22T11:11:50.996Z</time></trkpt><trkpt lat="44.3816267" lon="11.071225"><ele>279.5</ele><time>2026-03-22T11:11:51.993Z</time></trkpt><trkpt lat="44.381765" lon="11.0712867"><ele>279.25</ele><time>2026-03-22T11:11:52.989Z</time></trkpt><trkpt lat="44.3819067" lon="11.0713417"><ele>279.0</ele><time>2026-03-22T11:11:53.995Z</time></trkpt><trkpt lat="44.3820533" lon="11.0713867"><ele>278.5</ele><time>2026-03-22T11:11:54.991Z</time></trkpt><trkpt lat="44.3822017" lon="11.0714133"><ele>278.0</ele><time>2026-03-22T11:11:55.993Z</time></trkpt><trkpt lat="44.3823483" lon="11.0714317"><ele>277.5</ele><time>2026-03-22T11:11:56.992Z</time></trkpt><trkpt lat="44.382495" lon="11.071445"><ele>277.0</ele><time>2026-03-22T11:11:57.991Z</time></trkpt><trkpt lat="44.3826417" lon="11.0714533"><ele>277.0</ele><time>2026-03-22T11:11:58.993Z</time></trkpt><trkpt lat="44.3827833" lon="11.0714583"><ele>277.0</ele><time>2026-03-22T11:11:59.991Z</time></trkpt><trkpt lat="44.3829267" lon="11.0714617"><ele>277.0</ele><time>2026-03-22T11:12:00.993Z</time></trkpt><trkpt lat="44.3830733" lon="11.0714667"><ele>277.0</ele><time>2026-03-22T11:12:01.995Z</time></trkpt><trkpt lat="44.3832233" lon="11.071465"><ele>277.25</ele><time>2026-03-22T11:12:02.99Z</time></trkpt><trkpt lat="44.3833733" lon="11.0714633"><ele>277.5</ele><time>2026-03-22T11:12:03.993Z</time></trkpt><trkpt lat="44.38352" lon="11.071465"><ele>277.75</ele><time>2026-03-22T11:12:04.99Z</time></trkpt><trkpt lat="44.3836617" lon="11.07146"><ele>278.0</ele><time>2026-03-22T11:12:05.992Z</time></trkpt><trkpt lat="44.3837967" lon="11.07145"><ele>277.25</ele><time>2026-03-22T11:12:06.993Z</time></trkpt><trkpt lat="44.38393" lon="11.0714417"><ele>276.5</ele><time>2026-03-22T11:12:07.988Z</time></trkpt><trkpt lat="44.3840667" lon="11.0714317"><ele>275.75</ele><time>2026-03-22T11:12:08.993Z</time></trkpt><trkpt lat="44.38421" lon="11.0714233"><ele>275.0</ele><time>2026-03-22T11:12:09.989Z</time></trkpt><trkpt lat="44.3843533" lon="11.0714133"><ele>275.0</ele><time>2026-03-22T11:12:10.99Z</time></trkpt><trkpt lat="44.384495" lon="11.0714033"><ele>275.0</ele><time>2026-03-22T11:12:11.99Z</time></trkpt><trkpt lat="44.384635" lon="11.0714"><ele>275.0</ele><time>2026-03-22T11:12:12.992Z</time></trkpt><trkpt lat="44.3847783" lon="11.0713967"><ele>275.0</ele><time>2026-03-22T11:12:13.992Z</time></trkpt><trkpt lat="44.3849217" lon="11.0713883"><ele>274.5</ele><time>2026-03-22T11:12:14.989Z</time></trkpt><trkpt lat="44.3850683" lon="11.07138"><ele>274.0</ele><time>2026-03-22T11:12:15.989Z</time></trkpt><trkpt lat="44.385215" lon="11.07137"><ele>273.5</ele><time>2026-03-22T11:12:16.993Z</time></trkpt><trkpt lat="44.3853633" lon="11.0713583"><ele>273.0</ele><time>2026-03-22T11:12:17.993Z</time></trkpt><trkpt lat="44.38551" lon="11.0713483"><ele>273.0</ele><time>2026-03-22T11:12:18.989Z</time></trkpt><trkpt lat="44.385655" lon="11.07134"><ele>273.0</ele><time>2026-03-22T11:12:19.99Z</time></trkpt><trkpt lat="44.3858033" lon="11.0713317"><ele>273.0</ele><time>2026-03-22T11:12:20.992Z</time></trkpt><trkpt lat="44.3859483" lon="11.0713233"><ele>273.0</ele><time>2026-03-22T11:12:21.996Z</time></trkpt><trkpt lat="44.3860967" lon="11.0713167"><ele>273.0</ele><time>2026-03-22T11:12:22.99Z</time></trkpt><trkpt lat="44.386245" lon="11.0713083"><ele>273.0</ele><time>2026-03-22T11:12:23.993Z</time></trkpt><trkpt lat="44.3863917" lon="11.0713017"><ele>273.0</ele><time>2026-03-22T11:12:24.99Z</time></trkpt><trkpt lat="44.3865383" lon="11.0712967"><ele>273.0</ele><time>2026-03-22T11:12:25.992Z</time></trkpt><trkpt lat="44.386685" lon="11.07129"><ele>272.3333333333333</ele><time>2026-03-22T11:12:26.996Z</time></trkpt><trkpt lat="44.38684" lon="11.0712817"><ele>271.66666666666663</ele><time>2026-03-22T11:12:27.99Z</time></trkpt><trkpt lat="44.3869933" lon="11.0712767"><ele>271.0</ele><time>2026-03-22T11:12:28.992Z</time></trkpt><trkpt lat="44.38714" lon="11.0712683"><ele>270.25</ele><time>2026-03-22T11:12:29.995Z</time></trkpt><trkpt lat="44.3872817" lon="11.07126"><ele>269.5</ele><time>2026-03-22T11:12:30.991Z</time></trkpt><trkpt lat="44.3874183" lon="11.0712483"><ele>268.75</ele><time>2026-03-22T11:12:31.993Z</time></trkpt><trkpt lat="44.3875533" lon="11.0712383"><ele>268.0</ele><time>2026-03-22T11:12:32.995Z</time></trkpt><trkpt lat="44.3876883" lon="11.07123"><ele>268.0</ele><time>2026-03-22T11:12:33.991Z</time></trkpt><trkpt lat="44.3878283" lon="11.071225"><ele>268.0</ele><time>2026-03-22T11:12:34.99Z</time></trkpt><trkpt lat="44.3879733" lon="11.0712167"><ele>268.0</ele><time>2026-03-22T11:12:35.992Z</time></trkpt><trkpt lat="44.3881233" lon="11.07121"><ele>268.0</ele><time>2026-03-22T11:12:36.992Z</time></trkpt><trkpt lat="44.3882667" lon="11.071205"><ele>268.0</ele><time>2026-03-22T11:12:37.991Z</time></trkpt><trkpt lat="44.3884017" lon="11.0712033"><ele>268.0</ele><time>2026-03-22T11:12:38.994Z</time></trkpt><trkpt lat="44.3885217" lon="11.0711967"><ele>268.0</ele><time>2026-03-22T11:12:39.992Z</time></trkpt><trkpt lat="44.3886283" lon="11.071195"><ele>268.0</ele><time>2026-03-22T11:12:40.989Z</time></trkpt><trkpt lat="44.3887217" lon="11.0711933"><ele>268.0</ele><time>2026-03-22T11:12:41.988Z</time></trkpt><trkpt lat="44.3888017" lon="11.0712"><ele>268.0</ele><time>2026-03-22T11:12:42.99Z</time></trkpt><trkpt lat="44.3889083" lon="11.07123"><ele>268.0</ele><time>2026-03-22T11:12:44.992Z</time></trkpt><trkpt lat="44.3889733" lon="11.071255"><ele>268.0</ele><time>2026-03-22T11:12:46.993Z</time></trkpt><trkpt lat="44.389075" lon="11.071245"><ele>268.0</ele><time>2026-03-22T11:12:48.992Z</time></trkpt><trkpt lat="44.38915" lon="11.0712433"><ele>268.0</ele><time>2026-03-22T11:12:49.993Z</time></trkpt><trkpt lat="44.3892283" lon="11.0712533"><ele>267.3333333333333</ele><time>2026-03-22T11:12:50.996Z</time></trkpt><trkpt lat="44.38931" lon="11.07127"><ele>266.66666666666663</ele><time>2026-03-22T11:12:51.993Z</time></trkpt><trkpt lat="44.38939" lon="11.0712917"><ele>266.0</ele><time>2026-03-22T11:12:52.992Z</time></trkpt><trkpt lat="44.3894633" lon="11.0713133"><ele>265.3333333333333</ele><time>2026-03-22T11:12:53.997Z</time></trkpt><trkpt lat="44.3895367" lon="11.0713333"><ele>264.6666666666667</ele><time>2026-03-22T11:12:54.99Z</time></trkpt><trkpt lat="44.3896017" lon="11.0713433"><ele>264.0</ele><time>2026-03-22T11:12:55.994Z</time></trkpt><trkpt lat="44.389695" lon="11.07129"><ele>263.6666666666667</ele><time>2026-03-22T11:12:57.994Z</time></trkpt><trkpt lat="44.3897467" lon="11.0712217"><ele>263.3333333333333</ele><time>2026-03-22T11:12:59.993Z</time></trkpt><trkpt lat="44.389785" lon="11.0711417"><ele>263.0</ele><time>2026-03-22T11:13:02.995Z</time></trkpt><trkpt lat="44.3898017" lon="11.07126"><ele>262.66666666666663</ele><time>2026-03-22T11:15:53.981Z</time></trkpt><trkpt lat="44.389765" lon="11.0711617"><ele>262.3333333333333</ele><time>2026-03-22T11:15:57.992Z</time></trkpt><trkpt lat="44.3897083" lon="11.0712017"><ele>262.0</ele><time>2026-03-22T11:16:01.986Z</time></trkpt><trkpt lat="44.38978" lon="11.07111"><ele>262.0</ele><time>2026-03-22T11:17:00.988Z</time></trkpt><trkpt lat="44.389845" lon="11.0710983"><ele>262.0</ele><time>2026-03-22T11:33:50.99Z</time></trkpt><trkpt lat="44.3899283" lon="11.0711917"><ele>262.0</ele><time>2026-03-22T11:33:53.992Z</time></trkpt><trkpt lat="44.38998" lon="11.0712883"><ele>262.0</ele><time>2026-03-22T11:33:55.992Z</time></trkpt><trkpt lat="44.390045" lon="11.071385"><ele>262.0</ele><time>2026-03-22T11:33:57.99Z</time></trkpt><trkpt lat="44.3901617" lon="11.0714517"><ele>262.0</ele><time>2026-03-22T11:33:59.992Z</time></trkpt><trkpt lat="44.3902383" lon="11.0714817"><ele>262.0</ele><time>2026-03-22T11:34:00.992Z</time></trkpt><trkpt lat="44.390325" lon="11.0715117"><ele>262.0</ele><time>2026-03-22T11:34:01.996Z</time></trkpt><trkpt lat="44.390415" lon="11.07154"><ele>262.0</ele><time>2026-03-22T11:34:02.991Z</time></trkpt><trkpt lat="44.3905033" lon="11.071565"><ele>262.0</ele><time>2026-03-22T11:34:03.991Z</time></trkpt><trkpt lat="44.3906033" lon="11.0715967"><ele>261.0</ele><time>2026-03-22T11:34:04.991Z</time></trkpt><trkpt lat="44.3907183" lon="11.0716183"><ele>260.0</ele><time>2026-03-22T11:34:05.99Z</time></trkpt><trkpt lat="44.3908483" lon="11.0716433"><ele>259.0</ele><time>2026-03-22T11:34:06.992Z</time></trkpt><trkpt lat="44.39099" lon="11.07168"><ele>258.0</ele><time>2026-03-22T11:34:07.991Z</time></trkpt><trkpt lat="44.3911383" lon="11.0717233"><ele>258.0</ele><time>2026-03-22T11:34:08.995Z</time></trkpt><trkpt lat="44.39129" lon="11.07177"><ele>258.0</ele><time>2026-03-22T11:34:09.991Z</time></trkpt><trkpt lat="44.39144" lon="11.0718183"><ele>258.0</ele><time>2026-03-22T11:34:10.988Z</time></trkpt><trkpt lat="44.3915883" lon="11.0718617"><ele>257.6666666666667</ele><time>2026-03-22T11:34:11.99Z</time></trkpt><trkpt lat="44.391735" lon="11.0719017"><ele>257.33333333333337</ele><time>2026-03-22T11:34:12.994Z</time></trkpt><trkpt lat="44.3918867" lon="11.0719467"><ele>257.0</ele><time>2026-03-22T11:34:13.991Z</time></trkpt><trkpt lat="44.3920367" lon="11.0719917"><ele>257.5</ele><time>2026-03-22T11:34:14.99Z</time></trkpt><trkpt lat="44.3921817" lon="11.07204"><ele>258.0</ele><time>2026-03-22T11:34:15.99Z</time></trkpt><trkpt lat="44.3923217" lon="11.0720917"><ele>258.5</ele><time>2026-03-22T11:34:16.99Z</time></trkpt><trkpt lat="44.3924633" lon="11.07215"><ele>259.0</ele><time>2026-03-22T11:34:17.995Z</time></trkpt><trkpt lat="44.3925983" lon="11.0722083"><ele>259.0</ele><time>2026-03-22T11:34:18.988Z</time></trkpt><trkpt lat="44.3927367" lon="11.0722783"><ele>259.0</ele><time>2026-03-22T11:34:19.992Z</time></trkpt><trkpt lat="44.392875" lon="11.07236"><ele>259.0</ele><time>2026-03-22T11:34:20.993Z</time></trkpt><trkpt lat="44.3930133" lon="11.072455"><ele>258.3333333333333</ele><time>2026-03-22T11:34:21.988Z</time></trkpt><trkpt lat="44.39315" lon="11.072555"><ele>257.6666666666667</ele><time>2026-03-22T11:34:22.989Z</time></trkpt><trkpt lat="44.3932917" lon="11.07266"><ele>257.0</ele><time>2026-03-22T11:34:23.994Z</time></trkpt><trkpt lat="44.3934317" lon="11.072765"><ele>257.0</ele><time>2026-03-22T11:34:24.992Z</time></trkpt><trkpt lat="44.3935717" lon="11.0728733"><ele>257.0</ele><time>2026-03-22T11:34:25.992Z</time></trkpt><trkpt lat="44.3937183" lon="11.0729833"><ele>257.0</ele><time>2026-03-22T11:34:26.994Z</time></trkpt><trkpt lat="44.3938583" lon="11.0730883"><ele>258.0</ele><time>2026-03-22T11:34:27.991Z</time></trkpt><trkpt lat="44.394" lon="11.07319"><ele>259.0</ele><time>2026-03-22T11:34:28.992Z</time></trkpt><trkpt lat="44.394145" lon="11.0732967"><ele>260.0</ele><time>2026-03-22T11:34:29.994Z</time></trkpt><trkpt lat="44.3942833" lon="11.0734033"><ele>258.0</ele><time>2026-03-22T11:34:30.996Z</time></trkpt><trkpt lat="44.3944217" lon="11.0735067"><ele>256.0</ele><time>2026-03-22T11:34:31.988Z</time></trkpt><trkpt lat="44.3945583" lon="11.0736083"><ele>254.0</ele><time>2026-03-22T11:34:32.991Z</time></trkpt><trkpt lat="44.3946967" lon="11.0737117"><ele>254.0</ele><time>2026-03-22T11:34:33.992Z</time></trkpt><trkpt lat="44.394835" lon="11.0738133"><ele>254.0</ele><time>2026-03-22T11:34:34.997Z</time></trkpt><trkpt lat="44.3949733" lon="11.073925"><ele>254.0</ele><time>2026-03-22T11:34:35.995Z</time></trkpt><trkpt lat="44.3951083" lon="11.0740317"><ele>253.0</ele><time>2026-03-22T11:34:36.994Z</time></trkpt><trkpt lat="44.3952433" lon="11.0741283"><ele>252.0</ele><time>2026-03-22T11:34:37.994Z</time></trkpt><trkpt lat="44.395375" lon="11.0742217"><ele>251.0</ele><time>2026-03-22T11:34:38.996Z</time></trkpt><trkpt lat="44.3955133" lon="11.074305"><ele>252.5</ele><time>2026-03-22T11:34:39.991Z</time></trkpt><trkpt lat="44.39565" lon="11.0743617"><ele>254.0</ele><time>2026-03-22T11:34:40.993Z</time></trkpt><trkpt lat="44.3957867" lon="11.0744117"><ele>255.5</ele><time>2026-03-22T11:34:41.99Z</time></trkpt><trkpt lat="44.3959283" lon="11.0744717"><ele>257.0</ele><time>2026-03-22T11:34:42.99Z</time></trkpt><trkpt lat="44.3960633" lon="11.074555"><ele>257.0</ele><time>2026-03-22T11:34:43.996Z</time></trkpt><trkpt lat="44.396185" lon="11.0746567"><ele>257.0</ele><time>2026-03-22T11:34:44.995Z</time></trkpt><trkpt lat="44.3963083" lon="11.0747717"><ele>257.0</ele><time>2026-03-22T11:34:45.989Z</time></trkpt><trkpt lat="44.3964317" lon="11.0748883"><ele>257.0</ele><time>2026-03-22T11:34:46.994Z</time></trkpt><trkpt lat="44.3965517" lon="11.0750083"><ele>257.0</ele><time>2026-03-22T11:34:47.994Z</time></trkpt><trkpt lat="44.396665" lon="11.0751367"><ele>257.0</ele><time>2026-03-22T11:34:48.996Z</time></trkpt><trkpt lat="44.396775" lon="11.0752617"><ele>257.0</ele><time>2026-03-22T11:34:49.99Z</time></trkpt><trkpt lat="44.3968767" lon="11.0753917"><ele>257.0</ele><time>2026-03-22T11:34:50.991Z</time></trkpt><trkpt lat="44.3969667" lon="11.0755383"><ele>257.0</ele><time>2026-03-22T11:34:51.992Z</time></trkpt><trkpt lat="44.3970467" lon="11.0757033"><ele>257.0</ele><time>2026-03-22T11:34:52.988Z</time></trkpt><trkpt lat="44.397115" lon="11.075875"><ele>257.0</ele><time>2026-03-22T11:34:53.993Z</time></trkpt><trkpt lat="44.3971817" lon="11.0760433"><ele>257.0</ele><time>2026-03-22T11:34:54.988Z</time></trkpt><trkpt lat="44.3972483" lon="11.076205"><ele>257.5</ele><time>2026-03-22T11:34:55.997Z</time></trkpt><trkpt lat="44.3973267" lon="11.07635"><ele>258.0</ele><time>2026-03-22T11:34:56.999Z</time></trkpt><trkpt lat="44.3974267" lon="11.0764717"><ele>258.5</ele><time>2026-03-22T11:34:57.99Z</time></trkpt><trkpt lat="44.3975383" lon="11.07658"><ele>259.0</ele><time>2026-03-22T11:34:58.99Z</time></trkpt><trkpt lat="44.3976583" lon="11.0766667"><ele>257.75</ele><time>2026-03-22T11:34:59.995Z</time></trkpt><trkpt lat="44.397785" lon="11.0767383"><ele>256.5</ele><time>2026-03-22T11:35:00.987Z</time></trkpt><trkpt lat="44.397915" lon="11.076815"><ele>255.25</ele><time>2026-03-22T11:35:01.988Z</time></trkpt><trkpt lat="44.3980433" lon="11.0768867"><ele>254.0</ele><time>2026-03-22T11:35:02.996Z</time></trkpt><trkpt lat="44.3981783" lon="11.0769583"><ele>254.0</ele><time>2026-03-22T11:35:03.994Z</time></trkpt><trkpt lat="44.3983217" lon="11.0770233"><ele>254.0</ele><time>2026-03-22T11:35:04.99Z</time></trkpt><trkpt lat="44.3984667" lon="11.077095"><ele>254.0</ele><time>2026-03-22T11:35:05.991Z</time></trkpt><trkpt lat="44.39861" lon="11.077165"><ele>254.0</ele><time>2026-03-22T11:35:06.992Z</time></trkpt><trkpt lat="44.3987567" lon="11.0772417"><ele>254.0</ele><time>2026-03-22T11:35:07.993Z</time></trkpt><trkpt lat="44.3989" lon="11.0773133"><ele>254.0</ele><time>2026-03-22T11:35:08.996Z</time></trkpt><trkpt lat="44.3990383" lon="11.0773883"><ele>251.75</ele><time>2026-03-22T11:35:09.995Z</time></trkpt><trkpt lat="44.3991733" lon="11.0774533"><ele>249.5</ele><time>2026-03-22T11:35:10.99Z</time></trkpt><trkpt lat="44.3993067" lon="11.077525"><ele>247.25</ele><time>2026-03-22T11:35:11.991Z</time></trkpt><trkpt lat="44.3994383" lon="11.0776117"><ele>245.0</ele><time>2026-03-22T11:35:12.995Z</time></trkpt><trkpt lat="44.3995533" lon="11.0777183"><ele>245.0</ele><time>2026-03-22T11:35:13.988Z</time></trkpt><trkpt lat="44.3996583" lon="11.0778533"><ele>245.0</ele><time>2026-03-22T11:35:14.992Z</time></trkpt><trkpt lat="44.3997567" lon="11.0780033"><ele>245.0</ele><time>2026-03-22T11:35:15.99Z</time></trkpt><trkpt lat="44.3998583" lon="11.078165"><ele>245.0</ele><time>2026-03-22T11:35:16.989Z</time></trkpt><trkpt lat="44.3999617" lon="11.0783267"><ele>245.0</ele><time>2026-03-22T11:35:17.989Z</time></trkpt><trkpt lat="44.4000683" lon="11.0784867"><ele>245.0</ele><time>2026-03-22T11:35:18.996Z</time></trkpt><trkpt lat="44.4001733" lon="11.07865"><ele>245.0</ele><time>2026-03-22T11:35:19.99Z</time></trkpt><trkpt lat="44.4002733" lon="11.0788217"><ele>245.0</ele><time>2026-03-22T11:35:20.996Z</time></trkpt><trkpt lat="44.400375" lon="11.0789967"><ele>245.0</ele><time>2026-03-22T11:35:21.991Z</time></trkpt><trkpt lat="44.400475" lon="11.07917"><ele>245.0</ele><time>2026-03-22T11:35:22.996Z</time></trkpt><trkpt lat="44.400575" lon="11.0793417"><ele>246.0</ele><time>2026-03-22T11:35:23.995Z</time></trkpt><trkpt lat="44.40068" lon="11.0795117"><ele>247.0</ele><time>2026-03-22T11:35:24.996Z</time></trkpt><trkpt lat="44.40079" lon="11.0796767"><ele>248.0</ele><time>2026-03-22T11:35:25.99Z</time></trkpt><trkpt lat="44.4009067" lon="11.0798317"><ele>245.66666666666669</ele><time>2026-03-22T11:35:26.994Z</time></trkpt><trkpt lat="44.4010333" lon="11.0799783"><ele>243.33333333333331</ele><time>2026-03-22T11:35:27.989Z</time></trkpt><trkpt lat="44.401165" lon="11.0801133"><ele>241.0</ele><time>2026-03-22T11:35:28.988Z</time></trkpt><trkpt lat="44.4013" lon="11.080245"><ele>241.33333333333331</ele><time>2026-03-22T11:35:29.988Z</time></trkpt><trkpt lat="44.4014383" lon="11.0803733"><ele>241.66666666666669</ele><time>2026-03-22T11:35:30.99Z</time></trkpt><trkpt lat="44.401575" lon="11.0805033"><ele>242.0</ele><time>2026-03-22T11:35:31.994Z</time></trkpt><trkpt lat="44.4017117" lon="11.080625"><ele>242.0</ele><time>2026-03-22T11:35:32.993Z</time></trkpt><trkpt lat="44.4018517" lon="11.0807483"><ele>242.0</ele><time>2026-03-22T11:35:33.99Z</time></trkpt><trkpt lat="44.4019883" lon="11.0808733"><ele>242.0</ele><time>2026-03-22T11:35:34.99Z</time></trkpt><trkpt lat="44.402125" lon="11.081005"><ele>242.66666666666669</ele><time>2026-03-22T11:35:35.991Z</time></trkpt><trkpt lat="44.402255" lon="11.0811333"><ele>243.33333333333331</ele><time>2026-03-22T11:35:36.994Z</time></trkpt><trkpt lat="44.4023917" lon="11.0812583"><ele>244.0</ele><time>2026-03-22T11:35:37.992Z</time></trkpt><trkpt lat="44.402525" lon="11.0813883"><ele>244.0</ele><time>2026-03-22T11:35:38.995Z</time></trkpt><trkpt lat="44.4026617" lon="11.0815233"><ele>244.0</ele><time>2026-03-22T11:35:39.993Z</time></trkpt><trkpt lat="44.4028" lon="11.081655"><ele>244.0</ele><time>2026-03-22T11:35:40.992Z</time></trkpt><trkpt lat="44.40294" lon="11.0817883"><ele>242.0</ele><time>2026-03-22T11:35:41.991Z</time></trkpt><trkpt lat="44.4030783" lon="11.0819217"><ele>240.0</ele><time>2026-03-22T11:35:42.995Z</time></trkpt><trkpt lat="44.4032183" lon="11.0820567"><ele>238.0</ele><time>2026-03-22T11:35:43.993Z</time></trkpt><trkpt lat="44.4033567" lon="11.08219"><ele>238.0</ele><time>2026-03-22T11:35:44.99Z</time></trkpt><trkpt lat="44.4034967" lon="11.08232"><ele>238.0</ele><time>2026-03-22T11:35:45.996Z</time></trkpt><trkpt lat="44.40364" lon="11.0824467"><ele>238.0</ele><time>2026-03-22T11:35:46.993Z</time></trkpt><trkpt lat="44.4037783" lon="11.0825783"><ele>237.0</ele><time>2026-03-22T11:35:48.002Z</time></trkpt><trkpt lat="44.4039183" lon="11.0827133"><ele>236.0</ele><time>2026-03-22T11:35:48.99Z</time></trkpt><trkpt lat="44.4040483" lon="11.0828583"><ele>235.0</ele><time>2026-03-22T11:35:49.995Z</time></trkpt><trkpt lat="44.4041717" lon="11.0830133"><ele>235.0</ele><time>2026-03-22T11:35:50.997Z</time></trkpt><trkpt lat="44.4042867" lon="11.0831783"><ele>235.0</ele><time>2026-03-22T11:35:51.991Z</time></trkpt><trkpt lat="44.4043967" lon="11.0833533"><ele>235.0</ele><time>2026-03-22T11:35:52.991Z</time></trkpt><trkpt lat="44.4045" lon="11.08354"><ele>235.0</ele><time>2026-03-22T11:35:53.989Z</time></trkpt><trkpt lat="44.404605" lon="11.08373"><ele>235.0</ele><time>2026-03-22T11:35:54.99Z</time></trkpt><trkpt lat="44.4047133" lon="11.0839183"><ele>235.0</ele><time>2026-03-22T11:35:55.989Z</time></trkpt><trkpt lat="44.40482" lon="11.084105"><ele>234.0</ele><time>2026-03-22T11:35:56.988Z</time></trkpt><trkpt lat="44.404925" lon="11.0842867"><ele>233.0</ele><time>2026-03-22T11:35:57.99Z</time></trkpt><trkpt lat="44.4050283" lon="11.0844733"><ele>232.0</ele><time>2026-03-22T11:35:58.993Z</time></trkpt><trkpt lat="44.405135" lon="11.08466"><ele>232.0</ele><time>2026-03-22T11:35:59.992Z</time></trkpt><trkpt lat="44.4052417" lon="11.0848483"><ele>232.0</ele><time>2026-03-22T11:36:00.991Z</time></trkpt><trkpt lat="44.4053517" lon="11.0850383"><ele>232.0</ele><time>2026-03-22T11:36:01.992Z</time></trkpt><trkpt lat="44.40546" lon="11.0852317"><ele>233.0</ele><time>2026-03-22T11:36:02.993Z</time></trkpt><trkpt lat="44.40557" lon="11.0854267"><ele>234.0</ele><time>2026-03-22T11:36:03.991Z</time></trkpt><trkpt lat="44.40568" lon="11.0856183"><ele>235.0</ele><time>2026-03-22T11:36:04.991Z</time></trkpt><trkpt lat="44.4057917" lon="11.08581"><ele>232.0</ele><time>2026-03-22T11:36:05.99Z</time></trkpt><trkpt lat="44.4059017" lon="11.0860017"><ele>229.0</ele><time>2026-03-22T11:36:06.993Z</time></trkpt><trkpt lat="44.40601" lon="11.0861917"><ele>226.0</ele><time>2026-03-22T11:36:07.989Z</time></trkpt><trkpt lat="44.40612" lon="11.0863817"><ele>226.0</ele><time>2026-03-22T11:36:08.994Z</time></trkpt><trkpt lat="44.4062283" lon="11.086565"><ele>226.0</ele><time>2026-03-22T11:36:09.987Z</time></trkpt><trkpt lat="44.4063433" lon="11.0867383"><ele>226.0</ele><time>2026-03-22T11:36:10.995Z</time></trkpt><trkpt lat="44.4064617" lon="11.0869083"><ele>228.0</ele><time>2026-03-22T11:36:11.99Z</time></trkpt><trkpt lat="44.4065833" lon="11.0870767"><ele>230.0</ele><time>2026-03-22T11:36:12.996Z</time></trkpt><trkpt lat="44.4067017" lon="11.0872467"><ele>232.0</ele><time>2026-03-22T11:36:13.996Z</time></trkpt><trkpt lat="44.40682" lon="11.0874167"><ele>231.66666666666666</ele><time>2026-03-22T11:36:14.99Z</time></trkpt><trkpt lat="44.406935" lon="11.0875883"><ele>231.33333333333331</ele><time>2026-03-22T11:36:15.993Z</time></trkpt><trkpt lat="44.407055" lon="11.08776"><ele>231.0</ele><time>2026-03-22T11:36:16.99Z</time></trkpt><trkpt lat="44.4071767" lon="11.0879217"><ele>231.0</ele><time>2026-03-22T11:36:17.99Z</time></trkpt><trkpt lat="44.4072917" lon="11.0880833"><ele>231.0</ele><time>2026-03-22T11:36:18.993Z</time></trkpt><trkpt lat="44.4074033" lon="11.088245"><ele>231.0</ele><time>2026-03-22T11:36:19.994Z</time></trkpt><trkpt lat="44.4075183" lon="11.088405"><ele>228.33333333333331</ele><time>2026-03-22T11:36:20.996Z</time></trkpt><trkpt lat="44.4076383" lon="11.0885617"><ele>225.66666666666666</ele><time>2026-03-22T11:36:22.005Z</time></trkpt><trkpt lat="44.4077583" lon="11.0887133"><ele>223.0</ele><time>2026-03-22T11:36:22.995Z</time></trkpt><trkpt lat="44.4078817" lon="11.08886"><ele>222.66666666666666</ele><time>2026-03-22T11:36:23.994Z</time></trkpt><trkpt lat="44.4080067" lon="11.0889967"><ele>222.33333333333331</ele><time>2026-03-22T11:36:24.99Z</time></trkpt><trkpt lat="44.4081367" lon="11.0891217"><ele>222.0</ele><time>2026-03-22T11:36:25.989Z</time></trkpt><trkpt lat="44.40827" lon="11.0892483"><ele>222.0</ele><time>2026-03-22T11:36:26.99Z</time></trkpt><trkpt lat="44.4084033" lon="11.0893767"><ele>222.0</ele><time>2026-03-22T11:36:27.99Z</time></trkpt><trkpt lat="44.4085383" lon="11.0895083"><ele>222.0</ele><time>2026-03-22T11:36:28.987Z</time></trkpt><trkpt lat="44.408675" lon="11.0896383"><ele>222.0</ele><time>2026-03-22T11:36:29.989Z</time></trkpt><trkpt lat="44.4088183" lon="11.0897667"><ele>222.0</ele><time>2026-03-22T11:36:30.988Z</time></trkpt><trkpt lat="44.408965" lon="11.0898967"><ele>222.0</ele><time>2026-03-22T11:36:31.991Z</time></trkpt><trkpt lat="44.40911" lon="11.0900267"><ele>220.66666666666669</ele><time>2026-03-22T11:36:32.991Z</time></trkpt><trkpt lat="44.4092533" lon="11.0901583"><ele>219.33333333333334</ele><time>2026-03-22T11:36:33.994Z</time></trkpt><trkpt lat="44.4093983" lon="11.09029"><ele>218.0</ele><time>2026-03-22T11:36:34.988Z</time></trkpt><trkpt lat="44.40954" lon="11.0904217"><ele>219.25</ele><time>2026-03-22T11:36:35.988Z</time></trkpt><trkpt lat="44.4096717" lon="11.09054"><ele>220.5</ele><time>2026-03-22T11:36:36.989Z</time></trkpt><trkpt lat="44.4097867" lon="11.0906567"><ele>221.75</ele><time>2026-03-22T11:36:37.992Z</time></trkpt><trkpt lat="44.4098883" lon="11.090765"><ele>223.0</ele><time>2026-03-22T11:36:38.991Z</time></trkpt><trkpt lat="44.40997" lon="11.090865"><ele>222.99999999999997</ele><time>2026-03-22T11:36:39.99Z</time></trkpt><trkpt lat="44.4100333" lon="11.0909617"><ele>223.0</ele><time>2026-03-22T11:36:40.992Z</time></trkpt><trkpt lat="44.4100733" lon="11.0910583"><ele>223.0</ele><time>2026-03-22T11:36:41.993Z</time></trkpt><trkpt lat="44.4100917" lon="11.0911533"><ele>223.0</ele><time>2026-03-22T11:36:42.99Z</time></trkpt><trkpt lat="44.410055" lon="11.0912483"><ele>222.99999999999997</ele><time>2026-03-22T11:36:43.987Z</time></trkpt><trkpt lat="44.41001" lon="11.09134"><ele>223.0</ele><time>2026-03-22T11:36:44.992Z</time></trkpt><trkpt lat="44.409945" lon="11.0914333"><ele>223.0</ele><time>2026-03-22T11:36:45.996Z</time></trkpt><trkpt lat="44.409855" lon="11.0915317"><ele>223.0</ele><time>2026-03-22T11:36:46.991Z</time></trkpt><trkpt lat="44.4097567" lon="11.09164"><ele>223.0</ele><time>2026-03-22T11:36:47.994Z</time></trkpt><trkpt lat="44.4096583" lon="11.09175"><ele>223.0</ele><time>2026-03-22T11:36:48.992Z</time></trkpt><trkpt lat="44.409555" lon="11.09187"><ele>221.5</ele><time>2026-03-22T11:36:49.988Z</time></trkpt><trkpt lat="44.40945" lon="11.0919967"><ele>220.0</ele><time>2026-03-22T11:36:50.99Z</time></trkpt><trkpt lat="44.4093433" lon="11.0921233"><ele>218.5</ele><time>2026-03-22T11:36:51.996Z</time></trkpt><trkpt lat="44.409235" lon="11.0922583"><ele>217.0</ele><time>2026-03-22T11:36:52.99Z</time></trkpt><trkpt lat="44.409125" lon="11.0924"><ele>216.75</ele><time>2026-03-22T11:36:53.991Z</time></trkpt><trkpt lat="44.409015" lon="11.0925367"><ele>216.5</ele><time>2026-03-22T11:36:54.992Z</time></trkpt><trkpt lat="44.4089067" lon="11.0926783"><ele>216.25</ele><time>2026-03-22T11:36:55.99Z</time></trkpt><trkpt lat="44.4088017" lon="11.0928233"><ele>216.0</ele><time>2026-03-22T11:36:56.989Z</time></trkpt><trkpt lat="44.4087" lon="11.09298"><ele>216.33333333333331</ele><time>2026-03-22T11:36:57.992Z</time></trkpt><trkpt lat="44.4085983" lon="11.0931417"><ele>216.66666666666666</ele><time>2026-03-22T11:36:58.989Z</time></trkpt><trkpt lat="44.4085017" lon="11.09331"><ele>217.0</ele><time>2026-03-22T11:36:59.99Z</time></trkpt><trkpt lat="44.4084083" lon="11.0934833"><ele>217.0</ele><time>2026-03-22T11:37:00.992Z</time></trkpt><trkpt lat="44.4083183" lon="11.0936517"><ele>217.0</ele><time>2026-03-22T11:37:01.988Z</time></trkpt><trkpt lat="44.4082267" lon="11.0938117"><ele>217.0</ele><time>2026-03-22T11:37:02.993Z</time></trkpt><trkpt lat="44.4081333" lon="11.0939667"><ele>217.0</ele><time>2026-03-22T11:37:03.998Z</time></trkpt><trkpt lat="44.40804" lon="11.094125"><ele>216.75</ele><time>2026-03-22T11:37:04.99Z</time></trkpt><trkpt lat="44.4079533" lon="11.0942783"><ele>216.5</ele><time>2026-03-22T11:37:05.988Z</time></trkpt><trkpt lat="44.4078733" lon="11.0944267"><ele>216.25</ele><time>2026-03-22T11:37:06.99Z</time></trkpt><trkpt lat="44.407795" lon="11.0945733"><ele>216.0</ele><time>2026-03-22T11:37:07.99Z</time></trkpt><trkpt lat="44.4077233" lon="11.0947083"><ele>216.0</ele><time>2026-03-22T11:37:08.988Z</time></trkpt><trkpt lat="44.4076567" lon="11.09484"><ele>216.0</ele><time>2026-03-22T11:37:09.988Z</time></trkpt><trkpt lat="44.4076017" lon="11.0949833"><ele>216.0</ele><time>2026-03-22T11:37:10.994Z</time></trkpt><trkpt lat="44.4075633" lon="11.0951317"><ele>216.0</ele><time>2026-03-22T11:37:11.992Z</time></trkpt><trkpt lat="44.4075467" lon="11.0952933"><ele>216.0</ele><time>2026-03-22T11:37:12.993Z</time></trkpt><trkpt lat="44.40756" lon="11.0954533"><ele>216.0</ele><time>2026-03-22T11:37:13.992Z</time></trkpt><trkpt lat="44.4075933" lon="11.0956083"><ele>216.0</ele><time>2026-03-22T11:37:14.994Z</time></trkpt><trkpt lat="44.40766" lon="11.0957567"><ele>216.0</ele><time>2026-03-22T11:37:15.994Z</time></trkpt><trkpt lat="44.4077383" lon="11.0958983"><ele>216.0</ele><time>2026-03-22T11:37:16.991Z</time></trkpt><trkpt lat="44.4078233" lon="11.0960433"><ele>216.0</ele><time>2026-03-22T11:37:17.988Z</time></trkpt><trkpt lat="44.4079083" lon="11.0962"><ele>216.0</ele><time>2026-03-22T11:37:18.995Z</time></trkpt><trkpt lat="44.408" lon="11.0963567"><ele>216.0</ele><time>2026-03-22T11:37:19.994Z</time></trkpt><trkpt lat="44.4081" lon="11.0965217"><ele>214.66666666666669</ele><time>2026-03-22T11:37:20.989Z</time></trkpt><trkpt lat="44.4081983" lon="11.0966933"><ele>213.33333333333334</ele><time>2026-03-22T11:37:21.996Z</time></trkpt><trkpt lat="44.4082983" lon="11.0968667"><ele>212.0</ele><time>2026-03-22T11:37:22.991Z</time></trkpt><trkpt lat="44.4083983" lon="11.0970417"><ele>212.0</ele><time>2026-03-22T11:37:23.997Z</time></trkpt><trkpt lat="44.4085" lon="11.0972217"><ele>212.0</ele><time>2026-03-22T11:37:24.993Z</time></trkpt><trkpt lat="44.408605" lon="11.0974017"><ele>212.0</ele><time>2026-03-22T11:37:25.988Z</time></trkpt><trkpt lat="44.4087133" lon="11.09758"><ele>212.0</ele><time>2026-03-22T11:37:26.99Z</time></trkpt><trkpt lat="44.408815" lon="11.0977533"><ele>212.0</ele><time>2026-03-22T11:37:27.988Z</time></trkpt><trkpt lat="44.4089133" lon="11.09793"><ele>212.0</ele><time>2026-03-22T11:37:28.99Z</time></trkpt><trkpt lat="44.4090083" lon="11.0981133"><ele>211.33333333333334</ele><time>2026-03-22T11:37:29.987Z</time></trkpt><trkpt lat="44.4090967" lon="11.09831"><ele>210.66666666666669</ele><time>2026-03-22T11:37:30.992Z</time></trkpt><trkpt lat="44.4091733" lon="11.09852"><ele>210.0</ele><time>2026-03-22T11:37:31.993Z</time></trkpt><trkpt lat="44.4092433" lon="11.0987367"><ele>210.0</ele><time>2026-03-22T11:37:32.992Z</time></trkpt><trkpt lat="44.4093033" lon="11.0989483"><ele>210.0</ele><time>2026-03-22T11:37:33.989Z</time></trkpt><trkpt lat="44.4093517" lon="11.0991533"><ele>210.0</ele><time>2026-03-22T11:37:34.991Z</time></trkpt><trkpt lat="44.4093967" lon="11.0993417"><ele>210.4</ele><time>2026-03-22T11:37:35.991Z</time></trkpt><trkpt lat="44.4094333" lon="11.0995117"><ele>210.8</ele><time>2026-03-22T11:37:36.989Z</time></trkpt><trkpt lat="44.409465" lon="11.099665"><ele>211.2</ele><time>2026-03-22T11:37:37.992Z</time></trkpt><trkpt lat="44.4094917" lon="11.099805"><ele>211.6</ele><time>2026-03-22T11:37:38.99Z</time></trkpt><trkpt lat="44.40951" lon="11.0999333"><ele>212.0</ele><time>2026-03-22T11:37:39.99Z</time></trkpt><trkpt lat="44.409515" lon="11.1000533"><ele>212.33333333333334</ele><time>2026-03-22T11:37:40.994Z</time></trkpt><trkpt lat="44.4095167" lon="11.1001617"><ele>212.66666666666669</ele><time>2026-03-22T11:37:41.992Z</time></trkpt><trkpt lat="44.4095267" lon="11.1002533"><ele>213.0</ele><time>2026-03-22T11:37:42.992Z</time></trkpt><trkpt lat="44.409605" lon="11.1003833"><ele>213.33333333333331</ele><time>2026-03-22T11:37:44.99Z</time></trkpt><trkpt lat="44.40967" lon="11.1004083"><ele>213.66666666666666</ele><time>2026-03-22T11:37:45.989Z</time></trkpt><trkpt lat="44.4097783" lon="11.1003817"><ele>214.0</ele><time>2026-03-22T11:37:46.989Z</time></trkpt><trkpt lat="44.4098917" lon="11.1003467"><ele>213.0</ele><time>2026-03-22T11:37:47.992Z</time></trkpt><trkpt lat="44.4100133" lon="11.10031"><ele>212.0</ele><time>2026-03-22T11:37:48.992Z</time></trkpt><trkpt lat="44.410145" lon="11.10027"><ele>211.0</ele><time>2026-03-22T11:37:49.989Z</time></trkpt><trkpt lat="44.4102817" lon="11.1002283"><ele>210.0</ele><time>2026-03-22T11:37:50.991Z</time></trkpt><trkpt lat="44.41042" lon="11.1001883"><ele>209.5</ele><time>2026-03-22T11:37:51.988Z</time></trkpt><trkpt lat="44.4105633" lon="11.1001517"><ele>209.0</ele><time>2026-03-22T11:37:52.992Z</time></trkpt><trkpt lat="44.4107133" lon="11.1001167"><ele>208.5</ele><time>2026-03-22T11:37:53.987Z</time></trkpt><trkpt lat="44.4108567" lon="11.1000783"><ele>208.0</ele><time>2026-03-22T11:37:54.992Z</time></trkpt><trkpt lat="44.41099" lon="11.10005"><ele>208.0</ele><time>2026-03-22T11:37:55.99Z</time></trkpt><trkpt lat="44.41112" lon="11.10004"><ele>208.0</ele><time>2026-03-22T11:37:56.996Z</time></trkpt><trkpt lat="44.4112467" lon="11.1000667"><ele>208.0</ele><time>2026-03-22T11:37:57.988Z</time></trkpt><trkpt lat="44.41137" lon="11.10013"><ele>208.0</ele><time>2026-03-22T11:37:58.992Z</time></trkpt><trkpt lat="44.4114867" lon="11.1002233"><ele>206.0</ele><time>2026-03-22T11:37:59.987Z</time></trkpt><trkpt lat="44.4116017" lon="11.10035"><ele>204.0</ele><time>2026-03-22T11:38:00.991Z</time></trkpt><trkpt lat="44.4117183" lon="11.1004917"><ele>202.0</ele><time>2026-03-22T11:38:01.992Z</time></trkpt><trkpt lat="44.4118383" lon="11.1006367"><ele>201.66666666666666</ele><time>2026-03-22T11:38:02.993Z</time></trkpt><trkpt lat="44.4119633" lon="11.10078"><ele>201.33333333333331</ele><time>2026-03-22T11:38:03.989Z</time></trkpt><trkpt lat="44.412085" lon="11.1009367"><ele>201.0</ele><time>2026-03-22T11:38:04.99Z</time></trkpt><trkpt lat="44.41221" lon="11.1010983"><ele>201.0</ele><time>2026-03-22T11:38:05.988Z</time></trkpt><trkpt lat="44.4123267" lon="11.1012617"><ele>201.0</ele><time>2026-03-22T11:38:06.991Z</time></trkpt><trkpt lat="44.412445" lon="11.1014233"><ele>201.0</ele><time>2026-03-22T11:38:07.988Z</time></trkpt><trkpt lat="44.4125683" lon="11.1015767"><ele>201.33333333333331</ele><time>2026-03-22T11:38:08.996Z</time></trkpt><trkpt lat="44.4127017" lon="11.10172"><ele>201.66666666666666</ele><time>2026-03-22T11:38:09.988Z</time></trkpt><trkpt lat="44.41284" lon="11.1018533"><ele>202.0</ele><time>2026-03-22T11:38:10.99Z</time></trkpt><trkpt lat="44.41299" lon="11.1019683"><ele>202.0</ele><time>2026-03-22T11:38:11.992Z</time></trkpt><trkpt lat="44.4131483" lon="11.1020717"><ele>202.0</ele><time>2026-03-22T11:38:12.987Z</time></trkpt><trkpt lat="44.4133017" lon="11.1021817"><ele>202.0</ele><time>2026-03-22T11:38:13.99Z</time></trkpt><trkpt lat="44.4134467" lon="11.102305"><ele>202.0</ele><time>2026-03-22T11:38:14.994Z</time></trkpt><trkpt lat="44.41358" lon="11.1024483"><ele>202.0</ele><time>2026-03-22T11:38:15.993Z</time></trkpt><trkpt lat="44.413715" lon="11.1026"><ele>202.0</ele><time>2026-03-22T11:38:16.992Z</time></trkpt><trkpt lat="44.4138483" lon="11.1027483"><ele>201.0</ele><time>2026-03-22T11:38:17.988Z</time></trkpt><trkpt lat="44.4139783" lon="11.1028917"><ele>200.0</ele><time>2026-03-22T11:38:18.989Z</time></trkpt><trkpt lat="44.4141017" lon="11.10303"><ele>199.0</ele><time>2026-03-22T11:38:19.988Z</time></trkpt><trkpt lat="44.4142233" lon="11.1031683"><ele>200.0</ele><time>2026-03-22T11:38:20.995Z</time></trkpt><trkpt lat="44.41435" lon="11.10331"><ele>201.0</ele><time>2026-03-22T11:38:21.992Z</time></trkpt><trkpt lat="44.4144783" lon="11.10345"><ele>202.0</ele><time>2026-03-22T11:38:22.997Z</time></trkpt><trkpt lat="44.4146167" lon="11.1035783"><ele>201.66666666666666</ele><time>2026-03-22T11:38:23.992Z</time></trkpt><trkpt lat="44.4147617" lon="11.103695"><ele>201.33333333333331</ele><time>2026-03-22T11:38:24.991Z</time></trkpt><trkpt lat="44.41491" lon="11.1038"><ele>201.0</ele><time>2026-03-22T11:38:25.987Z</time></trkpt><trkpt lat="44.4150617" lon="11.1038917"><ele>201.0</ele><time>2026-03-22T11:38:26.994Z</time></trkpt><trkpt lat="44.4152167" lon="11.1039717"><ele>201.0</ele><time>2026-03-22T11:38:27.99Z</time></trkpt><trkpt lat="44.4153783" lon="11.1040467"><ele>201.0</ele><time>2026-03-22T11:38:28.993Z</time></trkpt><trkpt lat="44.4155433" lon="11.10412"><ele>200.66666666666669</ele><time>2026-03-22T11:38:29.991Z</time></trkpt><trkpt lat="44.4157067" lon="11.10419"><ele>200.33333333333334</ele><time>2026-03-22T11:38:30.993Z</time></trkpt><trkpt lat="44.41587" lon="11.1042667"><ele>200.0</ele><time>2026-03-22T11:38:31.989Z</time></trkpt><trkpt lat="44.4160333" lon="11.1043367"><ele>200.0</ele><time>2026-03-22T11:38:32.991Z</time></trkpt><trkpt lat="44.4162" lon="11.1044117"><ele>200.0</ele><time>2026-03-22T11:38:33.991Z</time></trkpt><trkpt lat="44.416365" lon="11.1044917"><ele>200.0</ele><time>2026-03-22T11:38:34.993Z</time></trkpt><trkpt lat="44.4165317" lon="11.1045733"><ele>199.66666666666669</ele><time>2026-03-22T11:38:35.992Z</time></trkpt><trkpt lat="44.41669" lon="11.1046483"><ele>199.33333333333331</ele><time>2026-03-22T11:38:36.992Z</time></trkpt><trkpt lat="44.4168483" lon="11.1047267"><ele>199.0</ele><time>2026-03-22T11:38:37.989Z</time></trkpt><trkpt lat="44.4170033" lon="11.104805"><ele>199.0</ele><time>2026-03-22T11:38:38.99Z</time></trkpt><trkpt lat="44.4171517" lon="11.104855"><ele>199.0</ele><time>2026-03-22T11:38:39.988Z</time></trkpt><trkpt lat="44.4173033" lon="11.104875"><ele>199.0</ele><time>2026-03-22T11:38:40.988Z</time></trkpt><trkpt lat="44.417455" lon="11.1048633"><ele>198.75</ele><time>2026-03-22T11:38:41.991Z</time></trkpt><trkpt lat="44.4176" lon="11.1048533"><ele>198.5</ele><time>2026-03-22T11:38:42.99Z</time></trkpt><trkpt lat="44.4177383" lon="11.104865"><ele>198.25</ele><time>2026-03-22T11:38:43.992Z</time></trkpt><trkpt lat="44.4178767" lon="11.1049217"><ele>198.0</ele><time>2026-03-22T11:38:44.991Z</time></trkpt><trkpt lat="44.4180133" lon="11.105005"><ele>196.33333333333331</ele><time>2026-03-22T11:38:45.988Z</time></trkpt><trkpt lat="44.418145" lon="11.1051033"><ele>194.66666666666666</ele><time>2026-03-22T11:38:46.993Z</time></trkpt><trkpt lat="44.418285" lon="11.1052017"><ele>193.0</ele><time>2026-03-22T11:38:47.989Z</time></trkpt><trkpt lat="44.4184317" lon="11.1052967"><ele>193.0</ele><time>2026-03-22T11:38:48.992Z</time></trkpt><trkpt lat="44.41858" lon="11.1053867"><ele>193.0</ele><time>2026-03-22T11:38:49.989Z</time></trkpt><trkpt lat="44.4187233" lon="11.1054733"><ele>193.0</ele><time>2026-03-22T11:38:50.998Z</time></trkpt><trkpt lat="44.418865" lon="11.1055617"><ele>193.0</ele><time>2026-03-22T11:38:51.991Z</time></trkpt><trkpt lat="44.4190017" lon="11.105645"><ele>193.0</ele><time>2026-03-22T11:38:52.989Z</time></trkpt><trkpt lat="44.4191267" lon="11.1057233"><ele>193.0</ele><time>2026-03-22T11:38:53.992Z</time></trkpt><trkpt lat="44.4192333" lon="11.1057817"><ele>193.0</ele><time>2026-03-22T11:38:54.99Z</time></trkpt><trkpt lat="44.41934" lon="11.1058467"><ele>192.8</ele><time>2026-03-22T11:38:55.993Z</time></trkpt><trkpt lat="44.4194267" lon="11.1059267"><ele>192.60000000000002</ele><time>2026-03-22T11:38:56.99Z</time></trkpt><trkpt lat="44.4194933" lon="11.1060283"><ele>192.39999999999998</ele><time>2026-03-22T11:38:57.99Z</time></trkpt><trkpt lat="44.419535" lon="11.1061533"><ele>192.2</ele><time>2026-03-22T11:38:58.992Z</time></trkpt><trkpt lat="44.419545" lon="11.10628"><ele>192.0</ele><time>2026-03-22T11:38:59.987Z</time></trkpt><trkpt lat="44.4195133" lon="11.1064183"><ele>192.0</ele><time>2026-03-22T11:39:00.988Z</time></trkpt><trkpt lat="44.4194633" lon="11.1065617"><ele>192.0</ele><time>2026-03-22T11:39:01.987Z</time></trkpt><trkpt lat="44.4194217" lon="11.1067133"><ele>192.0</ele><time>2026-03-22T11:39:02.99Z</time></trkpt><trkpt lat="44.4194083" lon="11.106865"><ele>192.0</ele><time>2026-03-22T11:39:03.989Z</time></trkpt><trkpt lat="44.419435" lon="11.1070217"><ele>192.0</ele><time>2026-03-22T11:39:04.995Z</time></trkpt><trkpt lat="44.41949" lon="11.1071733"><ele>192.0</ele><time>2026-03-22T11:39:05.989Z</time></trkpt><trkpt lat="44.419575" lon="11.1073133"><ele>192.0</ele><time>2026-03-22T11:39:06.993Z</time></trkpt><trkpt lat="44.419675" lon="11.1074533"><ele>192.0</ele><time>2026-03-22T11:39:07.99Z</time></trkpt><trkpt lat="44.41977" lon="11.107605"><ele>192.0</ele><time>2026-03-22T11:39:08.988Z</time></trkpt><trkpt lat="44.419865" lon="11.1077733"><ele>192.0</ele><time>2026-03-22T11:39:09.989Z</time></trkpt><trkpt lat="44.4199617" lon="11.1079467"><ele>192.0</ele><time>2026-03-22T11:39:10.989Z</time></trkpt><trkpt lat="44.4200617" lon="11.1081183"><ele>192.5</ele><time>2026-03-22T11:39:11.99Z</time></trkpt><trkpt lat="44.42016" lon="11.1082783"><ele>193.0</ele><time>2026-03-22T11:39:12.988Z</time></trkpt><trkpt lat="44.4202567" lon="11.1084267"><ele>193.5</ele><time>2026-03-22T11:39:13.993Z</time></trkpt><trkpt lat="44.4203633" lon="11.1085683"><ele>194.0</ele><time>2026-03-22T11:39:14.988Z</time></trkpt><trkpt lat="44.420475" lon="11.1087067"><ele>193.33333333333334</ele><time>2026-03-22T11:39:15.99Z</time></trkpt><trkpt lat="44.4205833" lon="11.1088483"><ele>192.66666666666669</ele><time>2026-03-22T11:39:16.99Z</time></trkpt><trkpt lat="44.4206983" lon="11.108985"><ele>192.0</ele><time>2026-03-22T11:39:17.994Z</time></trkpt><trkpt lat="44.4208167" lon="11.109125"><ele>192.0</ele><time>2026-03-22T11:39:18.998Z</time></trkpt><trkpt lat="44.4209333" lon="11.1092667"><ele>192.0</ele><time>2026-03-22T11:39:19.993Z</time></trkpt><trkpt lat="44.4210467" lon="11.1094183"><ele>192.0</ele><time>2026-03-22T11:39:20.992Z</time></trkpt><trkpt lat="44.421155" lon="11.10958"><ele>192.0</ele><time>2026-03-22T11:39:21.992Z</time></trkpt><trkpt lat="44.4212667" lon="11.1097367"><ele>192.0</ele><time>2026-03-22T11:39:22.994Z</time></trkpt><trkpt lat="44.421385" lon="11.1098883"><ele>192.0</ele><time>2026-03-22T11:39:23.992Z</time></trkpt><trkpt lat="44.421505" lon="11.1100317"><ele>191.33333333333334</ele><time>2026-03-22T11:39:24.99Z</time></trkpt><trkpt lat="44.4216283" lon="11.11017"><ele>190.66666666666669</ele><time>2026-03-22T11:39:25.987Z</time></trkpt><trkpt lat="44.421755" lon="11.1103017"><ele>190.0</ele><time>2026-03-22T11:39:26.992Z</time></trkpt><trkpt lat="44.4218783" lon="11.110425"><ele>190.0</ele><time>2026-03-22T11:39:27.988Z</time></trkpt><trkpt lat="44.4220017" lon="11.1105467"><ele>190.0</ele><time>2026-03-22T11:39:28.988Z</time></trkpt><trkpt lat="44.4221217" lon="11.110675"><ele>190.0</ele><time>2026-03-22T11:39:29.992Z</time></trkpt><trkpt lat="44.422235" lon="11.1108183"><ele>189.25</ele><time>2026-03-22T11:39:30.989Z</time></trkpt><trkpt lat="44.4223367" lon="11.1109817"><ele>188.5</ele><time>2026-03-22T11:39:31.994Z</time></trkpt><trkpt lat="44.42243" lon="11.111145"><ele>187.75</ele><time>2026-03-22T11:39:32.991Z</time></trkpt><trkpt lat="44.42251" lon="11.1113117"><ele>187.0</ele><time>2026-03-22T11:39:33.987Z</time></trkpt><trkpt lat="44.4225883" lon="11.1114667"><ele>187.25</ele><time>2026-03-22T11:39:34.994Z</time></trkpt><trkpt lat="44.4226767" lon="11.1115983"><ele>187.5</ele><time>2026-03-22T11:39:35.99Z</time></trkpt><trkpt lat="44.4227767" lon="11.1117117"><ele>187.75</ele><time>2026-03-22T11:39:36.99Z</time></trkpt><trkpt lat="44.4228883" lon="11.1118133"><ele>188.0</ele><time>2026-03-22T11:39:37.992Z</time></trkpt><trkpt lat="44.423005" lon="11.111895"><ele>188.0</ele><time>2026-03-22T11:39:38.989Z</time></trkpt><trkpt lat="44.42312" lon="11.1119817"><ele>188.0</ele><time>2026-03-22T11:39:39.993Z</time></trkpt><trkpt lat="44.4232283" lon="11.1120867"><ele>188.0</ele><time>2026-03-22T11:39:40.989Z</time></trkpt><trkpt lat="44.4233367" lon="11.1122117"><ele>188.0</ele><time>2026-03-22T11:39:41.994Z</time></trkpt><trkpt lat="44.4234383" lon="11.11233"><ele>188.0</ele><time>2026-03-22T11:39:42.993Z</time></trkpt><trkpt lat="44.423535" lon="11.1124417"><ele>188.0</ele><time>2026-03-22T11:39:43.991Z</time></trkpt><trkpt lat="44.4236267" lon="11.1125517"><ele>188.0</ele><time>2026-03-22T11:39:44.99Z</time></trkpt><trkpt lat="44.4237217" lon="11.11266"><ele>188.0</ele><time>2026-03-22T11:39:45.989Z</time></trkpt><trkpt lat="44.4238167" lon="11.1127733"><ele>188.0</ele><time>2026-03-22T11:39:46.992Z</time></trkpt><trkpt lat="44.4239217" lon="11.1128967"><ele>188.0</ele><time>2026-03-22T11:39:47.987Z</time></trkpt><trkpt lat="44.4240333" lon="11.1130183"><ele>188.0</ele><time>2026-03-22T11:39:48.997Z</time></trkpt><trkpt lat="44.4241483" lon="11.1131433"><ele>188.0</ele><time>2026-03-22T11:39:49.994Z</time></trkpt><trkpt lat="44.4242567" lon="11.113265"><ele>187.75</ele><time>2026-03-22T11:39:50.991Z</time></trkpt><trkpt lat="44.424365" lon="11.1133883"><ele>187.5</ele><time>2026-03-22T11:39:51.988Z</time></trkpt><trkpt lat="44.4244717" lon="11.113515"><ele>187.25</ele><time>2026-03-22T11:39:52.992Z</time></trkpt><trkpt lat="44.4245767" lon="11.1136483"><ele>187.0</ele><time>2026-03-22T11:39:53.99Z</time></trkpt><trkpt lat="44.4246767" lon="11.113785"><ele>187.0</ele><time>2026-03-22T11:39:54.993Z</time></trkpt><trkpt lat="44.4247783" lon="11.1139217"><ele>187.0</ele><time>2026-03-22T11:39:55.992Z</time></trkpt><trkpt lat="44.42488" lon="11.1140533"><ele>187.0</ele><time>2026-03-22T11:39:56.99Z</time></trkpt><trkpt lat="44.4249833" lon="11.1141767"><ele>187.0</ele><time>2026-03-22T11:39:57.993Z</time></trkpt><trkpt lat="44.4250883" lon="11.1143017"><ele>187.25</ele><time>2026-03-22T11:39:58.991Z</time></trkpt><trkpt lat="44.425195" lon="11.1144217"><ele>187.5</ele><time>2026-03-22T11:39:59.99Z</time></trkpt><trkpt lat="44.4252933" lon="11.1145417"><ele>187.75</ele><time>2026-03-22T11:40:00.989Z</time></trkpt><trkpt lat="44.42539" lon="11.1146633"><ele>188.0</ele><time>2026-03-22T11:40:01.988Z</time></trkpt><trkpt lat="44.4254883" lon="11.114785"><ele>186.75</ele><time>2026-03-22T11:40:02.99Z</time></trkpt><trkpt lat="44.4255867" lon="11.1149"><ele>185.5</ele><time>2026-03-22T11:40:03.988Z</time></trkpt><trkpt lat="44.4256933" lon="11.1150083"><ele>184.25</ele><time>2026-03-22T11:40:04.987Z</time></trkpt><trkpt lat="44.4258033" lon="11.11512"><ele>183.0</ele><time>2026-03-22T11:40:05.996Z</time></trkpt><trkpt lat="44.4259133" lon="11.115235"><ele>183.0</ele><time>2026-03-22T11:40:06.991Z</time></trkpt><trkpt lat="44.4260283" lon="11.1153583"><ele>183.0</ele><time>2026-03-22T11:40:07.987Z</time></trkpt><trkpt lat="44.426145" lon="11.1154917"><ele>183.0</ele><time>2026-03-22T11:40:08.989Z</time></trkpt><trkpt lat="44.4262683" lon="11.1156233"><ele>183.33333333333334</ele><time>2026-03-22T11:40:09.993Z</time></trkpt><trkpt lat="44.4263917" lon="11.11576"><ele>183.66666666666669</ele><time>2026-03-22T11:40:10.99Z</time></trkpt><trkpt lat="44.426515" lon="11.1159"><ele>184.0</ele><time>2026-03-22T11:40:11.997Z</time></trkpt><trkpt lat="44.42663" lon="11.1160267"><ele>184.0</ele><time>2026-03-22T11:40:12.991Z</time></trkpt><trkpt lat="44.4267367" lon="11.1161383"><ele>184.0</ele><time>2026-03-22T11:40:13.993Z</time></trkpt><trkpt lat="44.42684" lon="11.1162383"><ele>184.0</ele><time>2026-03-22T11:40:14.993Z</time></trkpt><trkpt lat="44.4269567" lon="11.11632"><ele>184.0</ele><time>2026-03-22T11:40:15.99Z</time></trkpt><trkpt lat="44.42708" lon="11.11639"><ele>183.75</ele><time>2026-03-22T11:40:16.991Z</time></trkpt><trkpt lat="44.4271933" lon="11.11644"><ele>183.5</ele><time>2026-03-22T11:40:17.99Z</time></trkpt><trkpt lat="44.4273" lon="11.1165"><ele>183.25</ele><time>2026-03-22T11:40:18.995Z</time></trkpt><trkpt lat="44.4273983" lon="11.11658"><ele>183.0</ele><time>2026-03-22T11:40:19.99Z</time></trkpt><trkpt lat="44.4274833" lon="11.1167"><ele>184.8</ele><time>2026-03-22T11:40:20.996Z</time></trkpt><trkpt lat="44.4275533" lon="11.11684"><ele>186.60000000000002</ele><time>2026-03-22T11:40:21.99Z</time></trkpt><trkpt lat="44.427605" lon="11.1169767"><ele>188.39999999999998</ele><time>2026-03-22T11:40:22.987Z</time></trkpt><trkpt lat="44.4276283" lon="11.1171083"><ele>190.2</ele><time>2026-03-22T11:40:23.995Z</time></trkpt><trkpt lat="44.4276317" lon="11.1172433"><ele>192.0</ele><time>2026-03-22T11:40:24.993Z</time></trkpt><trkpt lat="44.4276267" lon="11.1173767"><ele>194.0</ele><time>2026-03-22T11:40:25.994Z</time></trkpt><trkpt lat="44.4276433" lon="11.1175017"><ele>196.0</ele><time>2026-03-22T11:40:26.992Z</time></trkpt><trkpt lat="44.4276833" lon="11.1176167"><ele>198.0</ele><time>2026-03-22T11:40:27.995Z</time></trkpt><trkpt lat="44.4277417" lon="11.11772"><ele>200.0</ele><time>2026-03-22T11:40:28.992Z</time></trkpt><trkpt lat="44.42781" lon="11.1178183"><ele>202.0</ele><time>2026-03-22T11:40:29.989Z</time></trkpt><trkpt lat="44.4278833" lon="11.1179183"><ele>202.0</ele><time>2026-03-22T11:40:30.988Z</time></trkpt><trkpt lat="44.4279583" lon="11.11803"><ele>202.0</ele><time>2026-03-22T11:40:31.992Z</time></trkpt><trkpt lat="44.42804" lon="11.1181517"><ele>202.0</ele><time>2026-03-22T11:40:32.991Z</time></trkpt><trkpt lat="44.42813" lon="11.1182783"><ele>202.0</ele><time>2026-03-22T11:40:33.988Z</time></trkpt><trkpt lat="44.4282267" lon="11.118405"><ele>201.75</ele><time>2026-03-22T11:40:34.99Z</time></trkpt><trkpt lat="44.4283367" lon="11.1185133"><ele>201.5</ele><time>2026-03-22T11:40:35.99Z</time></trkpt><trkpt lat="44.42846" lon="11.1186083"><ele>201.25</ele><time>2026-03-22T11:40:36.99Z</time></trkpt><trkpt lat="44.4285833" lon="11.1186933"><ele>201.0</ele><time>2026-03-22T11:40:37.991Z</time></trkpt><trkpt lat="44.4286967" lon="11.118775"><ele>201.0</ele><time>2026-03-22T11:40:38.991Z</time></trkpt><trkpt lat="44.4287983" lon="11.1188583"><ele>201.0</ele><time>2026-03-22T11:40:39.989Z</time></trkpt><trkpt lat="44.4288967" lon="11.1189467"><ele>201.0</ele><time>2026-03-22T11:40:40.99Z</time></trkpt><trkpt lat="44.4289867" lon="11.1190417"><ele>201.0</ele><time>2026-03-22T11:40:41.994Z</time></trkpt><trkpt lat="44.4290783" lon="11.1191417"><ele>202.25</ele><time>2026-03-22T11:40:42.994Z</time></trkpt><trkpt lat="44.429175" lon="11.1192517"><ele>203.5</ele><time>2026-03-22T11:40:43.99Z</time></trkpt><trkpt lat="44.4292767" lon="11.1193517"><ele>204.75</ele><time>2026-03-22T11:40:44.989Z</time></trkpt><trkpt lat="44.4293767" lon="11.119445"><ele>206.0</ele><time>2026-03-22T11:40:45.992Z</time></trkpt><trkpt lat="44.4294733" lon="11.11953"><ele>206.0</ele><time>2026-03-22T11:40:46.991Z</time></trkpt><trkpt lat="44.4295717" lon="11.1196033"><ele>206.0</ele><time>2026-03-22T11:40:47.996Z</time></trkpt><trkpt lat="44.429675" lon="11.1196717"><ele>206.0</ele><time>2026-03-22T11:40:48.995Z</time></trkpt><trkpt lat="44.4297883" lon="11.1197467"><ele>206.0</ele><time>2026-03-22T11:40:49.996Z</time></trkpt><trkpt lat="44.4299117" lon="11.1198233"><ele>205.25</ele><time>2026-03-22T11:40:50.994Z</time></trkpt><trkpt lat="44.4300367" lon="11.119905"><ele>204.5</ele><time>2026-03-22T11:40:51.993Z</time></trkpt><trkpt lat="44.430165" lon="11.1199883"><ele>203.75</ele><time>2026-03-22T11:40:52.99Z</time></trkpt><trkpt lat="44.4302967" lon="11.1200767"><ele>203.0</ele><time>2026-03-22T11:40:53.992Z</time></trkpt><trkpt lat="44.4304317" lon="11.12017"><ele>201.25</ele><time>2026-03-22T11:40:54.993Z</time></trkpt><trkpt lat="44.430565" lon="11.120265"><ele>199.5</ele><time>2026-03-22T11:40:55.989Z</time></trkpt><trkpt lat="44.4306983" lon="11.1203517"><ele>197.75</ele><time>2026-03-22T11:40:56.989Z</time></trkpt><trkpt lat="44.4308283" lon="11.1204367"><ele>196.0</ele><time>2026-03-22T11:40:57.99Z</time></trkpt><trkpt lat="44.43095" lon="11.1205117"><ele>196.0</ele><time>2026-03-22T11:40:58.99Z</time></trkpt><trkpt lat="44.431065" lon="11.1205833"><ele>196.0</ele><time>2026-03-22T11:40:59.993Z</time></trkpt><trkpt lat="44.431175" lon="11.1206533"><ele>196.0</ele><time>2026-03-22T11:41:00.991Z</time></trkpt><trkpt lat="44.4312817" lon="11.12071"><ele>196.0</ele><time>2026-03-22T11:41:01.992Z</time></trkpt><trkpt lat="44.431395" lon="11.12075"><ele>195.75</ele><time>2026-03-22T11:41:02.996Z</time></trkpt><trkpt lat="44.43152" lon="11.120765"><ele>195.5</ele><time>2026-03-22T11:41:03.99Z</time></trkpt><trkpt lat="44.43165" lon="11.1207583"><ele>195.25</ele><time>2026-03-22T11:41:04.987Z</time></trkpt><trkpt lat="44.43179" lon="11.1207283"><ele>195.0</ele><time>2026-03-22T11:41:05.993Z</time></trkpt><trkpt lat="44.43193" lon="11.1206983"><ele>194.66666666666669</ele><time>2026-03-22T11:41:06.991Z</time></trkpt><trkpt lat="44.4320783" lon="11.12068"><ele>194.33333333333334</ele><time>2026-03-22T11:41:07.987Z</time></trkpt><trkpt lat="44.43223" lon="11.1206583"><ele>194.0</ele><time>2026-03-22T11:41:08.99Z</time></trkpt><trkpt lat="44.432385" lon="11.1206333"><ele>193.0</ele><time>2026-03-22T11:41:10.002Z</time></trkpt><trkpt lat="44.432535" lon="11.1206133"><ele>192.0</ele><time>2026-03-22T11:41:10.993Z</time></trkpt><trkpt lat="44.4326717" lon="11.1205883"><ele>191.0</ele><time>2026-03-22T11:41:11.988Z</time></trkpt><trkpt lat="44.4328033" lon="11.12057"><ele>190.0</ele><time>2026-03-22T11:41:12.988Z</time></trkpt><trkpt lat="44.4329317" lon="11.1205533"><ele>189.5</ele><time>2026-03-22T11:41:13.989Z</time></trkpt><trkpt lat="44.4330617" lon="11.1205367"><ele>189.0</ele><time>2026-03-22T11:41:14.992Z</time></trkpt><trkpt lat="44.4331967" lon="11.1205183"><ele>188.5</ele><time>2026-03-22T11:41:15.989Z</time></trkpt><trkpt lat="44.4333333" lon="11.1204983"><ele>188.0</ele><time>2026-03-22T11:41:16.991Z</time></trkpt><trkpt lat="44.43347" lon="11.1204733"><ele>188.0</ele><time>2026-03-22T11:41:17.99Z</time></trkpt><trkpt lat="44.4336067" lon="11.120455"><ele>188.0</ele><time>2026-03-22T11:41:18.99Z</time></trkpt><trkpt lat="44.4337483" lon="11.1204367"><ele>188.0</ele><time>2026-03-22T11:41:19.993Z</time></trkpt><trkpt lat="44.433895" lon="11.120415"><ele>188.0</ele><time>2026-03-22T11:41:20.992Z</time></trkpt><trkpt lat="44.4340417" lon="11.1203917"><ele>187.33333333333331</ele><time>2026-03-22T11:41:21.993Z</time></trkpt><trkpt lat="44.4341933" lon="11.1203733"><ele>186.66666666666666</ele><time>2026-03-22T11:41:22.989Z</time></trkpt><trkpt lat="44.43434" lon="11.1203517"><ele>186.0</ele><time>2026-03-22T11:41:23.989Z</time></trkpt><trkpt lat="44.43449" lon="11.12033"><ele>185.33333333333334</ele><time>2026-03-22T11:41:24.991Z</time></trkpt><trkpt lat="44.4346433" lon="11.1203133"><ele>184.66666666666669</ele><time>2026-03-22T11:41:25.992Z</time></trkpt><trkpt lat="44.434795" lon="11.1202933"><ele>184.0</ele><time>2026-03-22T11:41:26.991Z</time></trkpt><trkpt lat="44.4349483" lon="11.1202733"><ele>184.0</ele><time>2026-03-22T11:41:27.991Z</time></trkpt><trkpt lat="44.4351017" lon="11.120255"><ele>184.0</ele><time>2026-03-22T11:41:28.993Z</time></trkpt><trkpt lat="44.4352567" lon="11.1202367"><ele>184.0</ele><time>2026-03-22T11:41:29.989Z</time></trkpt><trkpt lat="44.4354133" lon="11.120215"><ele>183.33333333333334</ele><time>2026-03-22T11:41:30.989Z</time></trkpt><trkpt lat="44.4355717" lon="11.120195"><ele>182.66666666666666</ele><time>2026-03-22T11:41:31.991Z</time></trkpt><trkpt lat="44.4357283" lon="11.1201717"><ele>182.0</ele><time>2026-03-22T11:41:32.993Z</time></trkpt><trkpt lat="44.4358783" lon="11.1201467"><ele>182.0</ele><time>2026-03-22T11:41:33.989Z</time></trkpt><trkpt lat="44.4360283" lon="11.1201233"><ele>182.0</ele><time>2026-03-22T11:41:34.992Z</time></trkpt><trkpt lat="44.4361783" lon="11.120105"><ele>182.0</ele><time>2026-03-22T11:41:35.992Z</time></trkpt><trkpt lat="44.4363267" lon="11.12009"><ele>183.25</ele><time>2026-03-22T11:41:36.988Z</time></trkpt><trkpt lat="44.4364667" lon="11.120075"><ele>184.5</ele><time>2026-03-22T11:41:37.989Z</time></trkpt><trkpt lat="44.4366033" lon="11.1200617"><ele>185.75</ele><time>2026-03-22T11:41:38.992Z</time></trkpt><trkpt lat="44.4367383" lon="11.120045"><ele>187.0</ele><time>2026-03-22T11:41:39.989Z</time></trkpt><trkpt lat="44.4368717" lon="11.1200267"><ele>187.0</ele><time>2026-03-22T11:41:40.995Z</time></trkpt><trkpt lat="44.43701" lon="11.1200133"><ele>187.0</ele><time>2026-03-22T11:41:41.989Z</time></trkpt><trkpt lat="44.4371433" lon="11.12"><ele>187.0</ele><time>2026-03-22T11:41:42.988Z</time></trkpt><trkpt lat="44.43727" lon="11.1199883"><ele>187.0</ele><time>2026-03-22T11:41:43.987Z</time></trkpt><trkpt lat="44.4373917" lon="11.1199783"><ele>186.2</ele><time>2026-03-22T11:41:44.988Z</time></trkpt><trkpt lat="44.4375083" lon="11.1199733"><ele>185.39999999999998</ele><time>2026-03-22T11:41:45.992Z</time></trkpt><trkpt lat="44.437615" lon="11.119965"><ele>184.60000000000002</ele><time>2026-03-22T11:41:46.991Z</time></trkpt><trkpt lat="44.4377067" lon="11.11994"><ele>183.8</ele><time>2026-03-22T11:41:47.991Z</time></trkpt><trkpt lat="44.4377783" lon="11.1198733"><ele>183.0</ele><time>2026-03-22T11:41:48.994Z</time></trkpt><trkpt lat="44.4378333" lon="11.1197617"><ele>182.0</ele><time>2026-03-22T11:41:49.992Z</time></trkpt><trkpt lat="44.4378667" lon="11.1196167"><ele>181.0</ele><time>2026-03-22T11:41:50.993Z</time></trkpt><trkpt lat="44.4378917" lon="11.1194567"><ele>180.0</ele><time>2026-03-22T11:41:51.991Z</time></trkpt><trkpt lat="44.4379117" lon="11.119285"><ele>179.0</ele><time>2026-03-22T11:41:52.989Z</time></trkpt><trkpt lat="44.4379317" lon="11.1191067"><ele>178.25</ele><time>2026-03-22T11:41:53.989Z</time></trkpt><trkpt lat="44.43795" lon="11.1189267"><ele>177.5</ele><time>2026-03-22T11:41:54.993Z</time></trkpt><trkpt lat="44.4379683" lon="11.1187583"><ele>176.75</ele><time>2026-03-22T11:41:55.989Z</time></trkpt><trkpt lat="44.4379867" lon="11.1185833"><ele>176.0</ele><time>2026-03-22T11:41:56.991Z</time></trkpt><trkpt lat="44.4380017" lon="11.1184083"><ele>175.75</ele><time>2026-03-22T11:41:57.988Z</time></trkpt><trkpt lat="44.4380217" lon="11.1182383"><ele>175.5</ele><time>2026-03-22T11:41:58.987Z</time></trkpt><trkpt lat="44.4380383" lon="11.1180783"><ele>175.25</ele><time>2026-03-22T11:41:59.99Z</time></trkpt><trkpt lat="44.4380733" lon="11.1179183"><ele>175.0</ele><time>2026-03-22T11:42:00.988Z</time></trkpt><trkpt lat="44.4381133" lon="11.1177617"><ele>174.6</ele><time>2026-03-22T11:42:01.996Z</time></trkpt><trkpt lat="44.4381533" lon="11.1176183"><ele>174.2</ele><time>2026-03-22T11:42:02.99Z</time></trkpt><trkpt lat="44.4381883" lon="11.117475"><ele>173.8</ele><time>2026-03-22T11:42:03.99Z</time></trkpt><trkpt lat="44.4382167" lon="11.11734"><ele>173.4</ele><time>2026-03-22T11:42:04.988Z</time></trkpt><trkpt lat="44.43825" lon="11.1172267"><ele>173.0</ele><time>2026-03-22T11:42:05.987Z</time></trkpt><trkpt lat="44.4382867" lon="11.117135"><ele>171.60000000000002</ele><time>2026-03-22T11:42:06.991Z</time></trkpt><trkpt lat="44.4383317" lon="11.1170683"><ele>170.20000000000002</ele><time>2026-03-22T11:42:07.993Z</time></trkpt><trkpt lat="44.4384167" lon="11.1170617"><ele>168.8</ele><time>2026-03-22T11:42:08.989Z</time></trkpt><trkpt lat="44.438505" lon="11.1170617"><ele>167.4</ele><time>2026-03-22T11:42:09.992Z</time></trkpt><trkpt lat="44.4386067" lon="11.1170817"><ele>166.0</ele><time>2026-03-22T11:42:10.99Z</time></trkpt><trkpt lat="44.4387217" lon="11.117135"><ele>165.25</ele><time>2026-03-22T11:42:11.99Z</time></trkpt><trkpt lat="44.4388417" lon="11.117185"><ele>164.5</ele><time>2026-03-22T11:42:12.992Z</time></trkpt><trkpt lat="44.43897" lon="11.1172317"><ele>163.75</ele><time>2026-03-22T11:42:13.989Z</time></trkpt><trkpt lat="44.43911" lon="11.1172833"><ele>163.0</ele><time>2026-03-22T11:42:14.992Z</time></trkpt><trkpt lat="44.4392483" lon="11.117325"><ele>163.0</ele><time>2026-03-22T11:42:15.99Z</time></trkpt><trkpt lat="44.4393883" lon="11.1173717"><ele>163.0</ele><time>2026-03-22T11:42:16.989Z</time></trkpt><trkpt lat="44.4395417" lon="11.117425"><ele>163.0</ele><time>2026-03-22T11:42:17.99Z</time></trkpt><trkpt lat="44.4397017" lon="11.1174883"><ele>164.0</ele><time>2026-03-22T11:42:18.994Z</time></trkpt><trkpt lat="44.439865" lon="11.1175583"><ele>165.0</ele><time>2026-03-22T11:42:19.989Z</time></trkpt><trkpt lat="44.4400233" lon="11.1176317"><ele>166.0</ele><time>2026-03-22T11:42:20.992Z</time></trkpt><trkpt lat="44.4401817" lon="11.117715"><ele>166.0</ele><time>2026-03-22T11:42:21.989Z</time></trkpt><trkpt lat="44.4403433" lon="11.1177933"><ele>166.0</ele><time>2026-03-22T11:42:22.991Z</time></trkpt><trkpt lat="44.4405083" lon="11.1178583"><ele>166.0</ele><time>2026-03-22T11:42:23.992Z</time></trkpt><trkpt lat="44.4406733" lon="11.117905"><ele>164.33333333333334</ele><time>2026-03-22T11:42:24.989Z</time></trkpt><trkpt lat="44.440835" lon="11.1179283"><ele>162.66666666666666</ele><time>2026-03-22T11:42:25.993Z</time></trkpt><trkpt lat="44.4409933" lon="11.117945"><ele>161.0</ele><time>2026-03-22T11:42:26.99Z</time></trkpt><trkpt lat="44.44115" lon="11.117955"><ele>161.0</ele><time>2026-03-22T11:42:27.989Z</time></trkpt><trkpt lat="44.4413083" lon="11.1179617"><ele>161.0</ele><time>2026-03-22T11:42:28.991Z</time></trkpt><trkpt lat="44.44146" lon="11.1179667"><ele>161.0</ele><time>2026-03-22T11:42:29.99Z</time></trkpt><trkpt lat="44.4416033" lon="11.11797"><ele>161.0</ele><time>2026-03-22T11:42:30.987Z</time></trkpt><trkpt lat="44.4417467" lon="11.1179667"><ele>161.0</ele><time>2026-03-22T11:42:31.998Z</time></trkpt><trkpt lat="44.441895" lon="11.1179667"><ele>161.0</ele><time>2026-03-22T11:42:32.993Z</time></trkpt><trkpt lat="44.4420467" lon="11.117975"><ele>161.0</ele><time>2026-03-22T11:42:33.987Z</time></trkpt><trkpt lat="44.442205" lon="11.117985"><ele>160.33333333333331</ele><time>2026-03-22T11:42:34.993Z</time></trkpt><trkpt lat="44.4423717" lon="11.1179967"><ele>159.66666666666666</ele><time>2026-03-22T11:42:35.988Z</time></trkpt><trkpt lat="44.4425383" lon="11.1180083"><ele>159.0</ele><time>2026-03-22T11:42:36.991Z</time></trkpt><trkpt lat="44.442705" lon="11.1180167"><ele>159.0</ele><time>2026-03-22T11:42:37.99Z</time></trkpt><trkpt lat="44.44287" lon="11.1180267"><ele>159.0</ele><time>2026-03-22T11:42:38.992Z</time></trkpt><trkpt lat="44.44304" lon="11.118035"><ele>159.0</ele><time>2026-03-22T11:42:39.992Z</time></trkpt><trkpt lat="44.4432117" lon="11.11804"><ele>159.0</ele><time>2026-03-22T11:42:40.99Z</time></trkpt><trkpt lat="44.4433883" lon="11.11805"><ele>159.0</ele><time>2026-03-22T11:42:41.99Z</time></trkpt><trkpt lat="44.4435667" lon="11.1180583"><ele>159.0</ele><time>2026-03-22T11:42:42.99Z</time></trkpt><trkpt lat="44.4437433" lon="11.1180683"><ele>158.33333333333334</ele><time>2026-03-22T11:42:43.991Z</time></trkpt><trkpt lat="44.44391" lon="11.1180833"><ele>157.66666666666669</ele><time>2026-03-22T11:42:44.991Z</time></trkpt><trkpt lat="44.4440733" lon="11.1180967"><ele>157.0</ele><time>2026-03-22T11:42:45.989Z</time></trkpt><trkpt lat="44.4442367" lon="11.1181217"><ele>157.0</ele><time>2026-03-22T11:42:46.994Z</time></trkpt><trkpt lat="44.4443983" lon="11.118155"><ele>157.0</ele><time>2026-03-22T11:42:47.987Z</time></trkpt><trkpt lat="44.4445567" lon="11.1182117"><ele>157.0</ele><time>2026-03-22T11:42:48.993Z</time></trkpt><trkpt lat="44.44471" lon="11.118295"><ele>158.33333333333334</ele><time>2026-03-22T11:42:49.987Z</time></trkpt><trkpt lat="44.4448617" lon="11.1183967"><ele>159.66666666666666</ele><time>2026-03-22T11:42:50.997Z</time></trkpt><trkpt lat="44.44501" lon="11.118515"><ele>161.0</ele><time>2026-03-22T11:42:51.99Z</time></trkpt><trkpt lat="44.4451567" lon="11.1186333"><ele>161.0</ele><time>2026-03-22T11:42:52.991Z</time></trkpt><trkpt lat="44.4453067" lon="11.118745"><ele>161.0</ele><time>2026-03-22T11:42:53.99Z</time></trkpt><trkpt lat="44.4454583" lon="11.1188433"><ele>161.0</ele><time>2026-03-22T11:42:54.989Z</time></trkpt><trkpt lat="44.4456083" lon="11.1189367"><ele>159.66666666666666</ele><time>2026-03-22T11:42:55.989Z</time></trkpt><trkpt lat="44.4457567" lon="11.1190383"><ele>158.33333333333334</ele><time>2026-03-22T11:42:56.993Z</time></trkpt><trkpt lat="44.4459" lon="11.1191533"><ele>157.0</ele><time>2026-03-22T11:42:57.989Z</time></trkpt><trkpt lat="44.4460383" lon="11.1192783"><ele>157.0</ele><time>2026-03-22T11:42:58.992Z</time></trkpt><trkpt lat="44.4461717" lon="11.1194167"><ele>157.0</ele><time>2026-03-22T11:42:59.988Z</time></trkpt><trkpt lat="44.4463" lon="11.119555"><ele>157.0</ele><time>2026-03-22T11:43:00.988Z</time></trkpt><trkpt lat="44.446425" lon="11.1196883"><ele>157.0</ele><time>2026-03-22T11:43:01.989Z</time></trkpt><trkpt lat="44.446545" lon="11.1198167"><ele>157.0</ele><time>2026-03-22T11:43:02.991Z</time></trkpt><trkpt lat="44.4466533" lon="11.1199383"><ele>157.0</ele><time>2026-03-22T11:43:03.991Z</time></trkpt><trkpt lat="44.446775" lon="11.12004"><ele>157.0</ele><time>2026-03-22T11:43:04.988Z</time></trkpt><trkpt lat="44.4469067" lon="11.120115"><ele>157.25</ele><time>2026-03-22T11:43:05.987Z</time></trkpt><trkpt lat="44.4470433" lon="11.12017"><ele>157.5</ele><time>2026-03-22T11:43:06.987Z</time></trkpt><trkpt lat="44.4471867" lon="11.1202033"><ele>157.75</ele><time>2026-03-22T11:43:07.991Z</time></trkpt><trkpt lat="44.4473367" lon="11.1202183"><ele>158.0</ele><time>2026-03-22T11:43:08.989Z</time></trkpt><trkpt lat="44.447485" lon="11.120215"><ele>158.0</ele><time>2026-03-22T11:43:09.99Z</time></trkpt><trkpt lat="44.447635" lon="11.1202133"><ele>158.0</ele><time>2026-03-22T11:43:10.988Z</time></trkpt><trkpt lat="44.44779" lon="11.1201983"><ele>158.0</ele><time>2026-03-22T11:43:11.991Z</time></trkpt><trkpt lat="44.4479483" lon="11.1201817"><ele>157.33333333333331</ele><time>2026-03-22T11:43:12.993Z</time></trkpt><trkpt lat="44.44811" lon="11.120145"><ele>156.66666666666666</ele><time>2026-03-22T11:43:13.992Z</time></trkpt><trkpt lat="44.44827" lon="11.12009"><ele>156.0</ele><time>2026-03-22T11:43:14.993Z</time></trkpt><trkpt lat="44.4484267" lon="11.120025"><ele>156.0</ele><time>2026-03-22T11:43:16Z</time></trkpt><trkpt lat="44.4485833" lon="11.1199567"><ele>156.0</ele><time>2026-03-22T11:43:16.991Z</time></trkpt><trkpt lat="44.4487433" lon="11.11988"><ele>156.0</ele><time>2026-03-22T11:43:17.988Z</time></trkpt><trkpt lat="44.4489083" lon="11.1198067"><ele>154.33333333333334</ele><time>2026-03-22T11:43:18.988Z</time></trkpt><trkpt lat="44.4490717" lon="11.1197333"><ele>152.66666666666669</ele><time>2026-03-22T11:43:19.989Z</time></trkpt><trkpt lat="44.4492317" lon="11.1196767"><ele>151.0</ele><time>2026-03-22T11:43:20.986Z</time></trkpt><trkpt lat="44.449395" lon="11.1196383"><ele>151.0</ele><time>2026-03-22T11:43:21.99Z</time></trkpt><trkpt lat="44.4495633" lon="11.1196167"><ele>151.0</ele><time>2026-03-22T11:43:22.991Z</time></trkpt><trkpt lat="44.4497267" lon="11.1196167"><ele>151.0</ele><time>2026-03-22T11:43:23.989Z</time></trkpt><trkpt lat="44.4498917" lon="11.1196183"><ele>150.33333333333334</ele><time>2026-03-22T11:43:24.987Z</time></trkpt><trkpt lat="44.45006" lon="11.119615"><ele>149.66666666666666</ele><time>2026-03-22T11:43:25.988Z</time></trkpt><trkpt lat="44.4502283" lon="11.1196167"><ele>149.0</ele><time>2026-03-22T11:43:26.991Z</time></trkpt><trkpt lat="44.450395" lon="11.1196167"><ele>149.33333333333331</ele><time>2026-03-22T11:43:27.988Z</time></trkpt><trkpt lat="44.4505617" lon="11.1196167"><ele>149.66666666666666</ele><time>2026-03-22T11:43:28.991Z</time></trkpt><trkpt lat="44.4507317" lon="11.11961"><ele>150.0</ele><time>2026-03-22T11:43:29.993Z</time></trkpt><trkpt lat="44.4509017" lon="11.1196033"><ele>150.0</ele><time>2026-03-22T11:43:30.989Z</time></trkpt><trkpt lat="44.451075" lon="11.1196"><ele>150.0</ele><time>2026-03-22T11:43:31.992Z</time></trkpt><trkpt lat="44.4512517" lon="11.1195933"><ele>150.0</ele><time>2026-03-22T11:43:32.988Z</time></trkpt><trkpt lat="44.4514283" lon="11.1195933"><ele>149.66666666666666</ele><time>2026-03-22T11:43:33.995Z</time></trkpt><trkpt lat="44.4516067" lon="11.1195917"><ele>149.33333333333331</ele><time>2026-03-22T11:43:34.989Z</time></trkpt><trkpt lat="44.451785" lon="11.1195883"><ele>149.0</ele><time>2026-03-22T11:43:35.992Z</time></trkpt><trkpt lat="44.4519617" lon="11.1195867"><ele>148.66666666666666</ele><time>2026-03-22T11:43:36.992Z</time></trkpt><trkpt lat="44.4521383" lon="11.119585"><ele>148.33333333333334</ele><time>2026-03-22T11:43:37.992Z</time></trkpt><trkpt lat="44.4523083" lon="11.1195817"><ele>148.0</ele><time>2026-03-22T11:43:38.992Z</time></trkpt><trkpt lat="44.452475" lon="11.11958"><ele>148.0</ele><time>2026-03-22T11:43:39.995Z</time></trkpt><trkpt lat="44.452645" lon="11.11958"><ele>148.0</ele><time>2026-03-22T11:43:40.99Z</time></trkpt><trkpt lat="44.452815" lon="11.11958"><ele>148.0</ele><time>2026-03-22T11:43:41.99Z</time></trkpt><trkpt lat="44.45299" lon="11.11958"><ele>147.33333333333334</ele><time>2026-03-22T11:43:42.994Z</time></trkpt><trkpt lat="44.45317" lon="11.1195783"><ele>146.66666666666666</ele><time>2026-03-22T11:43:43.987Z</time></trkpt><trkpt lat="44.4533567" lon="11.1195767"><ele>146.0</ele><time>2026-03-22T11:43:44.994Z</time></trkpt><trkpt lat="44.4535417" lon="11.1195717"><ele>146.0</ele><time>2026-03-22T11:43:45.994Z</time></trkpt><trkpt lat="44.4537217" lon="11.11956"><ele>146.0</ele><time>2026-03-22T11:43:46.998Z</time></trkpt><trkpt lat="44.4538983" lon="11.11955"><ele>146.0</ele><time>2026-03-22T11:43:47.99Z</time></trkpt><trkpt lat="44.4540733" lon="11.1195417"><ele>146.0</ele><time>2026-03-22T11:43:48.99Z</time></trkpt><trkpt lat="44.4542317" lon="11.1195367"><ele>146.0</ele><time>2026-03-22T11:43:49.996Z</time></trkpt><trkpt lat="44.4543767" lon="11.1195317"><ele>146.0</ele><time>2026-03-22T11:43:50.993Z</time></trkpt><trkpt lat="44.45451" lon="11.119525"><ele>146.0</ele><time>2026-03-22T11:43:51.987Z</time></trkpt><trkpt lat="44.4546333" lon="11.11952"><ele>146.0</ele><time>2026-03-22T11:43:52.992Z</time></trkpt><trkpt lat="44.45475" lon="11.11952"><ele>146.0</ele><time>2026-03-22T11:43:53.988Z</time></trkpt><trkpt lat="44.4548633" lon="11.119525"><ele>146.0</ele><time>2026-03-22T11:43:54.991Z</time></trkpt><trkpt lat="44.4549717" lon="11.1195217"><ele>146.0</ele><time>2026-03-22T11:43:55.988Z</time></trkpt><trkpt lat="44.4550733" lon="11.1195183"><ele>146.0</ele><time>2026-03-22T11:43:56.988Z</time></trkpt><trkpt lat="44.45516" lon="11.1195217"><ele>146.0</ele><time>2026-03-22T11:43:57.99Z</time></trkpt><trkpt lat="44.4552317" lon="11.119525"><ele>146.0</ele><time>2026-03-22T11:43:58.99Z</time></trkpt><trkpt lat="44.4553283" lon="11.1195467"><ele>146.0</ele><time>2026-03-22T11:44:00.989Z</time></trkpt><trkpt lat="44.45538" lon="11.1196317"><ele>146.0</ele><time>2026-03-22T11:44:03.992Z</time></trkpt><trkpt lat="44.4554267" lon="11.1197017"><ele>146.0</ele><time>2026-03-22T11:44:06.989Z</time></trkpt><trkpt lat="44.4554717" lon="11.1197933"><ele>146.0</ele><time>2026-03-22T11:44:21.989Z</time></trkpt><trkpt lat="44.4555617" lon="11.119845"><ele>146.0</ele><time>2026-03-22T11:47:54.988Z</time></trkpt></trkseg></trk></gpx>